<?xml version="1.0" encoding="UTF-8" standalone="no" ?>
<gpx xmlns="http://www.topografix.com/GPX/1/1" xmlns:xsi="http://www.w3.org/2001/XMLSchema-instance" xsi:schemaLocation="http://www.topografix.com/GPX/1/1 http://www.topografix.com/GPX/1/1/gpx.xsd" version="1.1" creator="VisuGPX - https://www.visugpx.com">
  <metadata>
    <name>VTT Pont de montvert-pont du tarn-finiel-étang de barandon-finiel-Pont de montvert</name>
    <desc><![CDATA[pas beaucoup de single mais une sortie pour en prendre plein la vue.. magique!!!]]></desc>
  </metadata>
  <trk>
    <name><![CDATA[15-JUIN-13 16:18:03]]></name>
    <trkseg>
      <trkpt lat="44.36188" lon="3.7473">
        <ele>895.61</ele>
        <time>2013-06-15T06:03:17Z</time>
      </trkpt>
      <trkpt lat="44.36191" lon="3.74729">
        <ele>895.12</ele>
        <time>2013-06-15T06:03:28Z</time>
      </trkpt>
      <trkpt lat="44.36192" lon="3.74728">
        <ele>898.01</ele>
        <time>2013-06-15T06:03:33Z</time>
      </trkpt>
      <trkpt lat="44.36192" lon="3.74728">
        <ele>896.09</ele>
        <time>2013-06-15T06:03:36Z</time>
      </trkpt>
      <trkpt lat="44.36192" lon="3.74729">
        <ele>896.57</ele>
        <time>2013-06-15T06:03:38Z</time>
      </trkpt>
      <trkpt lat="44.36193" lon="3.7473">
        <ele>896.57</ele>
        <time>2013-06-15T06:03:50Z</time>
      </trkpt>
      <trkpt lat="44.36193" lon="3.74731">
        <ele>898.49</ele>
        <time>2013-06-15T06:04:18Z</time>
      </trkpt>
      <trkpt lat="44.36192" lon="3.74732">
        <ele>898.49</ele>
        <time>2013-06-15T06:04:47Z</time>
      </trkpt>
      <trkpt lat="44.36192" lon="3.74733">
        <ele>898.97</ele>
        <time>2013-06-15T06:05:14Z</time>
      </trkpt>
      <trkpt lat="44.36193" lon="3.74731">
        <ele>898.97</ele>
        <time>2013-06-15T06:05:46Z</time>
      </trkpt>
      <trkpt lat="44.36193" lon="3.74729">
        <ele>898.97</ele>
        <time>2013-06-15T06:06:18Z</time>
      </trkpt>
      <trkpt lat="44.36191" lon="3.74732">
        <ele>898.49</ele>
        <time>2013-06-15T06:06:50Z</time>
      </trkpt>
      <trkpt lat="44.3619" lon="3.74732">
        <ele>898.97</ele>
        <time>2013-06-15T06:07:02Z</time>
      </trkpt>
      <trkpt lat="44.3619" lon="3.74732">
        <ele>898.97</ele>
        <time>2013-06-15T06:07:27Z</time>
      </trkpt>
      <trkpt lat="44.36189" lon="3.74732">
        <ele>899.45</ele>
        <time>2013-06-15T06:07:48Z</time>
      </trkpt>
      <trkpt lat="44.36189" lon="3.74729">
        <ele>898.97</ele>
        <time>2013-06-15T06:07:56Z</time>
      </trkpt>
      <trkpt lat="44.36176" lon="3.74709">
        <ele>898.01</ele>
        <time>2013-06-15T06:08:05Z</time>
      </trkpt>
      <trkpt lat="44.36177" lon="3.74698">
        <ele>897.53</ele>
        <time>2013-06-15T06:08:07Z</time>
      </trkpt>
      <trkpt lat="44.36178" lon="3.74671">
        <ele>896.57</ele>
        <time>2013-06-15T06:08:11Z</time>
      </trkpt>
      <trkpt lat="44.36183" lon="3.74602">
        <ele>893.68</ele>
        <time>2013-06-15T06:08:19Z</time>
      </trkpt>
      <trkpt lat="44.36183" lon="3.74593">
        <ele>893.68</ele>
        <time>2013-06-15T06:08:20Z</time>
      </trkpt>
      <trkpt lat="44.36187" lon="3.74552">
        <ele>891.76</ele>
        <time>2013-06-15T06:08:24Z</time>
      </trkpt>
      <trkpt lat="44.36188" lon="3.74541">
        <ele>891.28</ele>
        <time>2013-06-15T06:08:25Z</time>
      </trkpt>
      <trkpt lat="44.36191" lon="3.7453">
        <ele>890.32</ele>
        <time>2013-06-15T06:08:26Z</time>
      </trkpt>
      <trkpt lat="44.36193" lon="3.74519">
        <ele>889.84</ele>
        <time>2013-06-15T06:08:27Z</time>
      </trkpt>
      <trkpt lat="44.36197" lon="3.74509">
        <ele>889.84</ele>
        <time>2013-06-15T06:08:28Z</time>
      </trkpt>
      <trkpt lat="44.36202" lon="3.74498">
        <ele>888.88</ele>
        <time>2013-06-15T06:08:29Z</time>
      </trkpt>
      <trkpt lat="44.36207" lon="3.74489">
        <ele>887.91</ele>
        <time>2013-06-15T06:08:30Z</time>
      </trkpt>
      <trkpt lat="44.36212" lon="3.7448">
        <ele>886.95</ele>
        <time>2013-06-15T06:08:31Z</time>
      </trkpt>
      <trkpt lat="44.36216" lon="3.74471">
        <ele>886.47</ele>
        <time>2013-06-15T06:08:32Z</time>
      </trkpt>
      <trkpt lat="44.36219" lon="3.74462">
        <ele>885.99</ele>
        <time>2013-06-15T06:08:33Z</time>
      </trkpt>
      <trkpt lat="44.36221" lon="3.74453">
        <ele>885.03</ele>
        <time>2013-06-15T06:08:34Z</time>
      </trkpt>
      <trkpt lat="44.36223" lon="3.74443">
        <ele>884.07</ele>
        <time>2013-06-15T06:08:35Z</time>
      </trkpt>
      <trkpt lat="44.36225" lon="3.74434">
        <ele>884.07</ele>
        <time>2013-06-15T06:08:36Z</time>
      </trkpt>
      <trkpt lat="44.36228" lon="3.74426">
        <ele>884.07</ele>
        <time>2013-06-15T06:08:37Z</time>
      </trkpt>
      <trkpt lat="44.36232" lon="3.74419">
        <ele>884.07</ele>
        <time>2013-06-15T06:08:38Z</time>
      </trkpt>
      <trkpt lat="44.36237" lon="3.74415">
        <ele>883.59</ele>
        <time>2013-06-15T06:08:39Z</time>
      </trkpt>
      <trkpt lat="44.36244" lon="3.74412">
        <ele>883.11</ele>
        <time>2013-06-15T06:08:40Z</time>
      </trkpt>
      <trkpt lat="44.36256" lon="3.74405">
        <ele>882.63</ele>
        <time>2013-06-15T06:08:42Z</time>
      </trkpt>
      <trkpt lat="44.36261" lon="3.744">
        <ele>883.11</ele>
        <time>2013-06-15T06:08:43Z</time>
      </trkpt>
      <trkpt lat="44.36265" lon="3.74394">
        <ele>883.11</ele>
        <time>2013-06-15T06:08:44Z</time>
      </trkpt>
      <trkpt lat="44.36268" lon="3.74387">
        <ele>883.11</ele>
        <time>2013-06-15T06:08:45Z</time>
      </trkpt>
      <trkpt lat="44.36288" lon="3.74338">
        <ele>882.15</ele>
        <time>2013-06-15T06:08:53Z</time>
      </trkpt>
      <trkpt lat="44.3629" lon="3.74338">
        <ele>882.15</ele>
        <time>2013-06-15T06:08:54Z</time>
      </trkpt>
      <trkpt lat="44.36294" lon="3.7434">
        <ele>882.15</ele>
        <time>2013-06-15T06:08:55Z</time>
      </trkpt>
      <trkpt lat="44.36314" lon="3.74352">
        <ele>884.07</ele>
        <time>2013-06-15T06:09:06Z</time>
      </trkpt>
      <trkpt lat="44.36329" lon="3.74361">
        <ele>883.11</ele>
        <time>2013-06-15T06:09:17Z</time>
      </trkpt>
      <trkpt lat="44.36331" lon="3.74363">
        <ele>883.11</ele>
        <time>2013-06-15T06:09:34Z</time>
      </trkpt>
      <trkpt lat="44.36331" lon="3.74365">
        <ele>882.63</ele>
        <time>2013-06-15T06:09:53Z</time>
      </trkpt>
      <trkpt lat="44.36329" lon="3.74367">
        <ele>882.63</ele>
        <time>2013-06-15T06:10:11Z</time>
      </trkpt>
      <trkpt lat="44.36329" lon="3.74367">
        <ele>883.11</ele>
        <time>2013-06-15T06:10:27Z</time>
      </trkpt>
      <trkpt lat="44.36329" lon="3.74366">
        <ele>883.11</ele>
        <time>2013-06-15T06:10:44Z</time>
      </trkpt>
      <trkpt lat="44.36328" lon="3.74366">
        <ele>883.11</ele>
        <time>2013-06-15T06:11:03Z</time>
      </trkpt>
      <trkpt lat="44.36328" lon="3.74366">
        <ele>883.11</ele>
        <time>2013-06-15T06:11:18Z</time>
      </trkpt>
      <trkpt lat="44.36329" lon="3.74365">
        <ele>883.11</ele>
        <time>2013-06-15T06:11:35Z</time>
      </trkpt>
      <trkpt lat="44.3633" lon="3.74363">
        <ele>883.11</ele>
        <time>2013-06-15T06:11:36Z</time>
      </trkpt>
      <trkpt lat="44.3633" lon="3.74361">
        <ele>882.63</ele>
        <time>2013-06-15T06:11:37Z</time>
      </trkpt>
      <trkpt lat="44.36329" lon="3.74359">
        <ele>883.11</ele>
        <time>2013-06-15T06:11:38Z</time>
      </trkpt>
      <trkpt lat="44.36327" lon="3.74358">
        <ele>883.11</ele>
        <time>2013-06-15T06:11:39Z</time>
      </trkpt>
      <trkpt lat="44.36324" lon="3.74358">
        <ele>883.11</ele>
        <time>2013-06-15T06:11:40Z</time>
      </trkpt>
      <trkpt lat="44.36322" lon="3.74358">
        <ele>883.11</ele>
        <time>2013-06-15T06:11:41Z</time>
      </trkpt>
      <trkpt lat="44.36319" lon="3.74357">
        <ele>883.11</ele>
        <time>2013-06-15T06:11:42Z</time>
      </trkpt>
      <trkpt lat="44.36317" lon="3.74356">
        <ele>878.78</ele>
        <time>2013-06-15T06:11:43Z</time>
      </trkpt>
      <trkpt lat="44.36315" lon="3.74355">
        <ele>884.07</ele>
        <time>2013-06-15T06:11:44Z</time>
      </trkpt>
      <trkpt lat="44.36288" lon="3.74344">
        <ele>881.67</ele>
        <time>2013-06-15T06:11:53Z</time>
      </trkpt>
      <trkpt lat="44.36284" lon="3.74345">
        <ele>881.67</ele>
        <time>2013-06-15T06:11:55Z</time>
      </trkpt>
      <trkpt lat="44.36282" lon="3.74348">
        <ele>881.67</ele>
        <time>2013-06-15T06:11:56Z</time>
      </trkpt>
      <trkpt lat="44.3628" lon="3.74352">
        <ele>881.67</ele>
        <time>2013-06-15T06:11:57Z</time>
      </trkpt>
      <trkpt lat="44.3626" lon="3.744">
        <ele>883.11</ele>
        <time>2013-06-15T06:12:09Z</time>
      </trkpt>
      <trkpt lat="44.36254" lon="3.74408">
        <ele>882.63</ele>
        <time>2013-06-15T06:12:11Z</time>
      </trkpt>
      <trkpt lat="44.36251" lon="3.74411">
        <ele>883.11</ele>
        <time>2013-06-15T06:12:12Z</time>
      </trkpt>
      <trkpt lat="44.36246" lon="3.74415">
        <ele>883.11</ele>
        <time>2013-06-15T06:12:13Z</time>
      </trkpt>
      <trkpt lat="44.3624" lon="3.7442">
        <ele>883.59</ele>
        <time>2013-06-15T06:12:14Z</time>
      </trkpt>
      <trkpt lat="44.3622" lon="3.74438">
        <ele>884.55</ele>
        <time>2013-06-15T06:12:20Z</time>
      </trkpt>
      <trkpt lat="44.36218" lon="3.74459">
        <ele>885.03</ele>
        <time>2013-06-15T06:12:25Z</time>
      </trkpt>
      <trkpt lat="44.36218" lon="3.74462">
        <ele>885.51</ele>
        <time>2013-06-15T06:12:26Z</time>
      </trkpt>
      <trkpt lat="44.36218" lon="3.74465">
        <ele>885.51</ele>
        <time>2013-06-15T06:12:27Z</time>
      </trkpt>
      <trkpt lat="44.36218" lon="3.74468">
        <ele>885.99</ele>
        <time>2013-06-15T06:12:28Z</time>
      </trkpt>
      <trkpt lat="44.36217" lon="3.74471">
        <ele>886.47</ele>
        <time>2013-06-15T06:12:29Z</time>
      </trkpt>
      <trkpt lat="44.362" lon="3.74496">
        <ele>888.4</ele>
        <time>2013-06-15T06:12:40Z</time>
      </trkpt>
      <trkpt lat="44.36192" lon="3.74525">
        <ele>890.8</ele>
        <time>2013-06-15T06:12:49Z</time>
      </trkpt>
      <trkpt lat="44.36187" lon="3.74562">
        <ele>891.76</ele>
        <time>2013-06-15T06:12:59Z</time>
      </trkpt>
      <trkpt lat="44.36184" lon="3.74602">
        <ele>893.68</ele>
        <time>2013-06-15T06:13:09Z</time>
      </trkpt>
      <trkpt lat="44.36183" lon="3.74632">
        <ele>895.12</ele>
        <time>2013-06-15T06:13:17Z</time>
      </trkpt>
      <trkpt lat="44.3618" lon="3.74669">
        <ele>896.09</ele>
        <time>2013-06-15T06:13:26Z</time>
      </trkpt>
      <trkpt lat="44.36179" lon="3.74702">
        <ele>897.53</ele>
        <time>2013-06-15T06:13:35Z</time>
      </trkpt>
      <trkpt lat="44.36186" lon="3.74723">
        <ele>898.49</ele>
        <time>2013-06-15T06:13:42Z</time>
      </trkpt>
      <trkpt lat="44.36194" lon="3.74725">
        <ele>898.49</ele>
        <time>2013-06-15T06:13:50Z</time>
      </trkpt>
      <trkpt lat="44.36194" lon="3.74726">
        <ele>898.49</ele>
        <time>2013-06-15T06:14:14Z</time>
      </trkpt>
      <trkpt lat="44.36194" lon="3.74725">
        <ele>898.97</ele>
        <time>2013-06-15T06:14:44Z</time>
      </trkpt>
      <trkpt lat="44.36194" lon="3.74725">
        <ele>898.97</ele>
        <time>2013-06-15T06:15:08Z</time>
      </trkpt>
      <trkpt lat="44.36193" lon="3.74725">
        <ele>898.49</ele>
        <time>2013-06-15T06:15:21Z</time>
      </trkpt>
      <trkpt lat="44.36192" lon="3.74724">
        <ele>898.97</ele>
        <time>2013-06-15T06:15:43Z</time>
      </trkpt>
      <trkpt lat="44.36192" lon="3.74723">
        <ele>898.49</ele>
        <time>2013-06-15T06:16:02Z</time>
      </trkpt>
      <trkpt lat="44.36192" lon="3.74722">
        <ele>898.49</ele>
        <time>2013-06-15T06:16:23Z</time>
      </trkpt>
      <trkpt lat="44.36191" lon="3.74724">
        <ele>898.49</ele>
        <time>2013-06-15T06:16:35Z</time>
      </trkpt>
      <trkpt lat="44.36191" lon="3.74724">
        <ele>898.01</ele>
        <time>2013-06-15T06:16:50Z</time>
      </trkpt>
      <trkpt lat="44.36191" lon="3.74724">
        <ele>898.49</ele>
        <time>2013-06-15T06:17:07Z</time>
      </trkpt>
      <trkpt lat="44.3619" lon="3.74725">
        <ele>897.53</ele>
        <time>2013-06-15T06:17:24Z</time>
      </trkpt>
      <trkpt lat="44.3619" lon="3.74725">
        <ele>898.49</ele>
        <time>2013-06-15T06:17:34Z</time>
      </trkpt>
      <trkpt lat="44.3619" lon="3.74725">
        <ele>898.01</ele>
        <time>2013-06-15T06:17:40Z</time>
      </trkpt>
      <trkpt lat="44.36179" lon="3.74721">
        <ele>897.53</ele>
        <time>2013-06-15T06:17:47Z</time>
      </trkpt>
      <trkpt lat="44.36177" lon="3.74685">
        <ele>896.09</ele>
        <time>2013-06-15T06:17:56Z</time>
      </trkpt>
      <trkpt lat="44.3618" lon="3.7465">
        <ele>890.32</ele>
        <time>2013-06-15T06:18:01Z</time>
      </trkpt>
      <trkpt lat="44.3618" lon="3.74642">
        <ele>894.16</ele>
        <time>2013-06-15T06:18:02Z</time>
      </trkpt>
      <trkpt lat="44.36181" lon="3.74627">
        <ele>893.68</ele>
        <time>2013-06-15T06:18:04Z</time>
      </trkpt>
      <trkpt lat="44.36188" lon="3.74548">
        <ele>890.32</ele>
        <time>2013-06-15T06:18:13Z</time>
      </trkpt>
      <trkpt lat="44.3619" lon="3.74538">
        <ele>889.84</ele>
        <time>2013-06-15T06:18:14Z</time>
      </trkpt>
      <trkpt lat="44.36192" lon="3.74527">
        <ele>889.36</ele>
        <time>2013-06-15T06:18:15Z</time>
      </trkpt>
      <trkpt lat="44.36195" lon="3.74517">
        <ele>888.88</ele>
        <time>2013-06-15T06:18:16Z</time>
      </trkpt>
      <trkpt lat="44.36199" lon="3.74507">
        <ele>888.4</ele>
        <time>2013-06-15T06:18:17Z</time>
      </trkpt>
      <trkpt lat="44.36204" lon="3.74497">
        <ele>886.95</ele>
        <time>2013-06-15T06:18:18Z</time>
      </trkpt>
      <trkpt lat="44.3621" lon="3.74488">
        <ele>886.47</ele>
        <time>2013-06-15T06:18:19Z</time>
      </trkpt>
      <trkpt lat="44.36214" lon="3.74479">
        <ele>885.51</ele>
        <time>2013-06-15T06:18:20Z</time>
      </trkpt>
      <trkpt lat="44.36217" lon="3.74471">
        <ele>885.51</ele>
        <time>2013-06-15T06:18:21Z</time>
      </trkpt>
      <trkpt lat="44.36223" lon="3.74448">
        <ele>883.59</ele>
        <time>2013-06-15T06:18:24Z</time>
      </trkpt>
      <trkpt lat="44.36227" lon="3.74433">
        <ele>883.59</ele>
        <time>2013-06-15T06:18:26Z</time>
      </trkpt>
      <trkpt lat="44.36231" lon="3.74426">
        <ele>883.59</ele>
        <time>2013-06-15T06:18:27Z</time>
      </trkpt>
      <trkpt lat="44.36236" lon="3.74421">
        <ele>883.11</ele>
        <time>2013-06-15T06:18:28Z</time>
      </trkpt>
      <trkpt lat="44.36242" lon="3.74418">
        <ele>882.63</ele>
        <time>2013-06-15T06:18:29Z</time>
      </trkpt>
      <trkpt lat="44.36248" lon="3.74415">
        <ele>882.15</ele>
        <time>2013-06-15T06:18:30Z</time>
      </trkpt>
      <trkpt lat="44.36259" lon="3.74408">
        <ele>882.15</ele>
        <time>2013-06-15T06:18:32Z</time>
      </trkpt>
      <trkpt lat="44.36262" lon="3.74402">
        <ele>881.67</ele>
        <time>2013-06-15T06:18:33Z</time>
      </trkpt>
      <trkpt lat="44.36265" lon="3.74397">
        <ele>882.15</ele>
        <time>2013-06-15T06:18:34Z</time>
      </trkpt>
      <trkpt lat="44.3628" lon="3.74366">
        <ele>881.19</ele>
        <time>2013-06-15T06:18:41Z</time>
      </trkpt>
      <trkpt lat="44.36281" lon="3.74362">
        <ele>876.86</ele>
        <time>2013-06-15T06:18:42Z</time>
      </trkpt>
      <trkpt lat="44.36282" lon="3.74357">
        <ele>881.19</ele>
        <time>2013-06-15T06:18:43Z</time>
      </trkpt>
      <trkpt lat="44.36288" lon="3.74334">
        <ele>879.74</ele>
        <time>2013-06-15T06:18:47Z</time>
      </trkpt>
      <trkpt lat="44.36306" lon="3.74287">
        <ele>880.22</ele>
        <time>2013-06-15T06:18:57Z</time>
      </trkpt>
      <trkpt lat="44.36311" lon="3.74242">
        <ele>882.15</ele>
        <time>2013-06-15T06:19:08Z</time>
      </trkpt>
      <trkpt lat="44.36319" lon="3.74203">
        <ele>883.11</ele>
        <time>2013-06-15T06:19:18Z</time>
      </trkpt>
      <trkpt lat="44.36329" lon="3.74173">
        <ele>884.55</ele>
        <time>2013-06-15T06:19:27Z</time>
      </trkpt>
      <trkpt lat="44.36338" lon="3.74137">
        <ele>885.99</ele>
        <time>2013-06-15T06:19:37Z</time>
      </trkpt>
      <trkpt lat="44.3635" lon="3.74103">
        <ele>885.03</ele>
        <time>2013-06-15T06:19:48Z</time>
      </trkpt>
      <trkpt lat="44.36351" lon="3.74099">
        <ele>887.91</ele>
        <time>2013-06-15T06:19:49Z</time>
      </trkpt>
      <trkpt lat="44.36362" lon="3.7407">
        <ele>889.36</ele>
        <time>2013-06-15T06:19:58Z</time>
      </trkpt>
      <trkpt lat="44.36372" lon="3.74035">
        <ele>890.8</ele>
        <time>2013-06-15T06:20:08Z</time>
      </trkpt>
      <trkpt lat="44.36376" lon="3.74">
        <ele>892.72</ele>
        <time>2013-06-15T06:20:17Z</time>
      </trkpt>
      <trkpt lat="44.3638" lon="3.73967">
        <ele>894.16</ele>
        <time>2013-06-15T06:20:27Z</time>
      </trkpt>
      <trkpt lat="44.36383" lon="3.7393">
        <ele>895.61</ele>
        <time>2013-06-15T06:20:36Z</time>
      </trkpt>
      <trkpt lat="44.36385" lon="3.73886">
        <ele>897.05</ele>
        <time>2013-06-15T06:20:46Z</time>
      </trkpt>
      <trkpt lat="44.36394" lon="3.73851">
        <ele>898.49</ele>
        <time>2013-06-15T06:20:55Z</time>
      </trkpt>
      <trkpt lat="44.36404" lon="3.73819">
        <ele>899.93</ele>
        <time>2013-06-15T06:21:05Z</time>
      </trkpt>
      <trkpt lat="44.36406" lon="3.73804">
        <ele>900.89</ele>
        <time>2013-06-15T06:21:11Z</time>
      </trkpt>
      <trkpt lat="44.36385" lon="3.73796">
        <ele>902.33</ele>
        <time>2013-06-15T06:21:21Z</time>
      </trkpt>
      <trkpt lat="44.36357" lon="3.73805">
        <ele>903.3</ele>
        <time>2013-06-15T06:21:32Z</time>
      </trkpt>
      <trkpt lat="44.36329" lon="3.73811">
        <ele>905.22</ele>
        <time>2013-06-15T06:21:43Z</time>
      </trkpt>
      <trkpt lat="44.36306" lon="3.73817">
        <ele>906.18</ele>
        <time>2013-06-15T06:21:52Z</time>
      </trkpt>
      <trkpt lat="44.36283" lon="3.73827">
        <ele>907.62</ele>
        <time>2013-06-15T06:22:01Z</time>
      </trkpt>
      <trkpt lat="44.36256" lon="3.73838">
        <ele>909.06</ele>
        <time>2013-06-15T06:22:12Z</time>
      </trkpt>
      <trkpt lat="44.36243" lon="3.73843">
        <ele>904.26</ele>
        <time>2013-06-15T06:22:17Z</time>
      </trkpt>
      <trkpt lat="44.36241" lon="3.73844">
        <ele>910.03</ele>
        <time>2013-06-15T06:22:18Z</time>
      </trkpt>
      <trkpt lat="44.36211" lon="3.73849">
        <ele>911.95</ele>
        <time>2013-06-15T06:22:28Z</time>
      </trkpt>
      <trkpt lat="44.36198" lon="3.73848">
        <ele>912.43</ele>
        <time>2013-06-15T06:22:33Z</time>
      </trkpt>
      <trkpt lat="44.36165" lon="3.73846">
        <ele>913.87</ele>
        <time>2013-06-15T06:22:45Z</time>
      </trkpt>
      <trkpt lat="44.36144" lon="3.7383">
        <ele>915.79</ele>
        <time>2013-06-15T06:22:53Z</time>
      </trkpt>
      <trkpt lat="44.3613" lon="3.73805">
        <ele>917.24</ele>
        <time>2013-06-15T06:23:01Z</time>
      </trkpt>
      <trkpt lat="44.36104" lon="3.7379">
        <ele>918.68</ele>
        <time>2013-06-15T06:23:10Z</time>
      </trkpt>
      <trkpt lat="44.36073" lon="3.73777">
        <ele>920.12</ele>
        <time>2013-06-15T06:23:21Z</time>
      </trkpt>
      <trkpt lat="44.36054" lon="3.73752">
        <ele>921.08</ele>
        <time>2013-06-15T06:23:30Z</time>
      </trkpt>
      <trkpt lat="44.36035" lon="3.73747">
        <ele>922.52</ele>
        <time>2013-06-15T06:23:37Z</time>
      </trkpt>
      <trkpt lat="44.36017" lon="3.73729">
        <ele>924.45</ele>
        <time>2013-06-15T06:23:46Z</time>
      </trkpt>
      <trkpt lat="44.35997" lon="3.73716">
        <ele>925.89</ele>
        <time>2013-06-15T06:23:54Z</time>
      </trkpt>
      <trkpt lat="44.35982" lon="3.73683">
        <ele>927.33</ele>
        <time>2013-06-15T06:24:05Z</time>
      </trkpt>
      <trkpt lat="44.3598" lon="3.73679">
        <ele>927.81</ele>
        <time>2013-06-15T06:24:07Z</time>
      </trkpt>
      <trkpt lat="44.35979" lon="3.73667">
        <ele>927.81</ele>
        <time>2013-06-15T06:24:11Z</time>
      </trkpt>
      <trkpt lat="44.35967" lon="3.73634">
        <ele>929.73</ele>
        <time>2013-06-15T06:24:20Z</time>
      </trkpt>
      <trkpt lat="44.35947" lon="3.73621">
        <ele>930.69</ele>
        <time>2013-06-15T06:24:28Z</time>
      </trkpt>
      <trkpt lat="44.35928" lon="3.73598">
        <ele>931.65</ele>
        <time>2013-06-15T06:24:36Z</time>
      </trkpt>
      <trkpt lat="44.35914" lon="3.7358">
        <ele>933.58</ele>
        <time>2013-06-15T06:24:44Z</time>
      </trkpt>
      <trkpt lat="44.35899" lon="3.73564">
        <ele>935.02</ele>
        <time>2013-06-15T06:24:51Z</time>
      </trkpt>
      <trkpt lat="44.35892" lon="3.73555">
        <ele>934.54</ele>
        <time>2013-06-15T06:24:54Z</time>
      </trkpt>
      <trkpt lat="44.35887" lon="3.73542">
        <ele>935.5</ele>
        <time>2013-06-15T06:24:58Z</time>
      </trkpt>
      <trkpt lat="44.35881" lon="3.73503">
        <ele>937.42</ele>
        <time>2013-06-15T06:25:08Z</time>
      </trkpt>
      <trkpt lat="44.35887" lon="3.73472">
        <ele>938.86</ele>
        <time>2013-06-15T06:25:16Z</time>
      </trkpt>
      <trkpt lat="44.35889" lon="3.73452">
        <ele>939.35</ele>
        <time>2013-06-15T06:25:21Z</time>
      </trkpt>
      <trkpt lat="44.35892" lon="3.73427">
        <ele>940.79</ele>
        <time>2013-06-15T06:25:28Z</time>
      </trkpt>
      <trkpt lat="44.359" lon="3.73383">
        <ele>942.23</ele>
        <time>2013-06-15T06:25:38Z</time>
      </trkpt>
      <trkpt lat="44.35902" lon="3.73353">
        <ele>943.67</ele>
        <time>2013-06-15T06:25:45Z</time>
      </trkpt>
      <trkpt lat="44.35892" lon="3.73326">
        <ele>944.63</ele>
        <time>2013-06-15T06:25:54Z</time>
      </trkpt>
      <trkpt lat="44.35891" lon="3.73325">
        <ele>945.11</ele>
        <time>2013-06-15T06:25:55Z</time>
      </trkpt>
      <trkpt lat="44.35889" lon="3.73297">
        <ele>946.07</ele>
        <time>2013-06-15T06:26:03Z</time>
      </trkpt>
      <trkpt lat="44.35895" lon="3.7326">
        <ele>948</ele>
        <time>2013-06-15T06:26:13Z</time>
      </trkpt>
      <trkpt lat="44.35899" lon="3.73248">
        <ele>948.48</ele>
        <time>2013-06-15T06:26:16Z</time>
      </trkpt>
      <trkpt lat="44.35908" lon="3.73236">
        <ele>949.44</ele>
        <time>2013-06-15T06:26:20Z</time>
      </trkpt>
      <trkpt lat="44.35926" lon="3.73214">
        <ele>950.88</ele>
        <time>2013-06-15T06:26:29Z</time>
      </trkpt>
      <trkpt lat="44.35928" lon="3.7318">
        <ele>951.84</ele>
        <time>2013-06-15T06:26:38Z</time>
      </trkpt>
      <trkpt lat="44.35917" lon="3.73152">
        <ele>953.28</ele>
        <time>2013-06-15T06:26:46Z</time>
      </trkpt>
      <trkpt lat="44.35908" lon="3.73133">
        <ele>954.73</ele>
        <time>2013-06-15T06:26:53Z</time>
      </trkpt>
      <trkpt lat="44.35903" lon="3.73125">
        <ele>949.92</ele>
        <time>2013-06-15T06:26:56Z</time>
      </trkpt>
      <trkpt lat="44.35902" lon="3.73122">
        <ele>956.17</ele>
        <time>2013-06-15T06:26:57Z</time>
      </trkpt>
      <trkpt lat="44.35901" lon="3.73119">
        <ele>955.69</ele>
        <time>2013-06-15T06:26:58Z</time>
      </trkpt>
      <trkpt lat="44.3589" lon="3.73072">
        <ele>957.13</ele>
        <time>2013-06-15T06:27:10Z</time>
      </trkpt>
      <trkpt lat="44.35867" lon="3.73056">
        <ele>958.57</ele>
        <time>2013-06-15T06:27:20Z</time>
      </trkpt>
      <trkpt lat="44.35837" lon="3.73058">
        <ele>960.98</ele>
        <time>2013-06-15T06:27:32Z</time>
      </trkpt>
      <trkpt lat="44.35819" lon="3.7306">
        <ele>961.94</ele>
        <time>2013-06-15T06:27:40Z</time>
      </trkpt>
      <trkpt lat="44.358" lon="3.7305">
        <ele>962.9</ele>
        <time>2013-06-15T06:27:48Z</time>
      </trkpt>
      <trkpt lat="44.35783" lon="3.73034">
        <ele>964.34</ele>
        <time>2013-06-15T06:27:56Z</time>
      </trkpt>
      <trkpt lat="44.35759" lon="3.7302">
        <ele>965.78</ele>
        <time>2013-06-15T06:28:05Z</time>
      </trkpt>
      <trkpt lat="44.35745" lon="3.73007">
        <ele>966.74</ele>
        <time>2013-06-15T06:28:11Z</time>
      </trkpt>
      <trkpt lat="44.35744" lon="3.72991">
        <ele>967.7</ele>
        <time>2013-06-15T06:28:16Z</time>
      </trkpt>
      <trkpt lat="44.35747" lon="3.72955">
        <ele>969.63</ele>
        <time>2013-06-15T06:28:26Z</time>
      </trkpt>
      <trkpt lat="44.3575" lon="3.72922">
        <ele>971.07</ele>
        <time>2013-06-15T06:28:35Z</time>
      </trkpt>
      <trkpt lat="44.35745" lon="3.72884">
        <ele>972.51</ele>
        <time>2013-06-15T06:28:45Z</time>
      </trkpt>
      <trkpt lat="44.35735" lon="3.72849">
        <ele>974.43</ele>
        <time>2013-06-15T06:28:55Z</time>
      </trkpt>
      <trkpt lat="44.35721" lon="3.72811">
        <ele>975.88</ele>
        <time>2013-06-15T06:29:05Z</time>
      </trkpt>
      <trkpt lat="44.35709" lon="3.72785">
        <ele>977.32</ele>
        <time>2013-06-15T06:29:13Z</time>
      </trkpt>
      <trkpt lat="44.35695" lon="3.72758">
        <ele>978.76</ele>
        <time>2013-06-15T06:29:22Z</time>
      </trkpt>
      <trkpt lat="44.35687" lon="3.72733">
        <ele>979.24</ele>
        <time>2013-06-15T06:29:29Z</time>
      </trkpt>
      <trkpt lat="44.35682" lon="3.72718">
        <ele>980.2</ele>
        <time>2013-06-15T06:29:34Z</time>
      </trkpt>
      <trkpt lat="44.35671" lon="3.72684">
        <ele>982.12</ele>
        <time>2013-06-15T06:29:43Z</time>
      </trkpt>
      <trkpt lat="44.35657" lon="3.7264">
        <ele>983.57</ele>
        <time>2013-06-15T06:29:53Z</time>
      </trkpt>
      <trkpt lat="44.35654" lon="3.72594">
        <ele>985.49</ele>
        <time>2013-06-15T06:30:04Z</time>
      </trkpt>
      <trkpt lat="44.3565" lon="3.72551">
        <ele>987.89</ele>
        <time>2013-06-15T06:30:15Z</time>
      </trkpt>
      <trkpt lat="44.35628" lon="3.72536">
        <ele>989.81</ele>
        <time>2013-06-15T06:30:24Z</time>
      </trkpt>
      <trkpt lat="44.35596" lon="3.72544">
        <ele>990.3</ele>
        <time>2013-06-15T06:30:35Z</time>
      </trkpt>
      <trkpt lat="44.35563" lon="3.72562">
        <ele>993.18</ele>
        <time>2013-06-15T06:30:46Z</time>
      </trkpt>
      <trkpt lat="44.35542" lon="3.72567">
        <ele>994.62</ele>
        <time>2013-06-15T06:30:55Z</time>
      </trkpt>
      <trkpt lat="44.35542" lon="3.72568">
        <ele>993.66</ele>
        <time>2013-06-15T06:31:16Z</time>
      </trkpt>
      <trkpt lat="44.35541" lon="3.72565">
        <ele>994.14</ele>
        <time>2013-06-15T06:31:49Z</time>
      </trkpt>
      <trkpt lat="44.35541" lon="3.72566">
        <ele>994.14</ele>
        <time>2013-06-15T06:32:14Z</time>
      </trkpt>
      <trkpt lat="44.35542" lon="3.72566">
        <ele>993.66</ele>
        <time>2013-06-15T06:32:39Z</time>
      </trkpt>
      <trkpt lat="44.35543" lon="3.72567">
        <ele>993.66</ele>
        <time>2013-06-15T06:33:02Z</time>
      </trkpt>
      <trkpt lat="44.35542" lon="3.72567">
        <ele>993.66</ele>
        <time>2013-06-15T06:33:24Z</time>
      </trkpt>
      <trkpt lat="44.35542" lon="3.72567">
        <ele>994.14</ele>
        <time>2013-06-15T06:33:43Z</time>
      </trkpt>
      <trkpt lat="44.35543" lon="3.72568">
        <ele>993.66</ele>
        <time>2013-06-15T06:34:11Z</time>
      </trkpt>
      <trkpt lat="44.35543" lon="3.72568">
        <ele>994.14</ele>
        <time>2013-06-15T06:34:33Z</time>
      </trkpt>
      <trkpt lat="44.35541" lon="3.72568">
        <ele>993.66</ele>
        <time>2013-06-15T06:34:46Z</time>
      </trkpt>
      <trkpt lat="44.3552" lon="3.72571">
        <ele>994.62</ele>
        <time>2013-06-15T06:34:53Z</time>
      </trkpt>
      <trkpt lat="44.35494" lon="3.72578">
        <ele>996.54</ele>
        <time>2013-06-15T06:35:01Z</time>
      </trkpt>
      <trkpt lat="44.3548" lon="3.72575">
        <ele>997.02</ele>
        <time>2013-06-15T06:35:05Z</time>
      </trkpt>
      <trkpt lat="44.35441" lon="3.72554">
        <ele>998.95</ele>
        <time>2013-06-15T06:35:16Z</time>
      </trkpt>
      <trkpt lat="44.35413" lon="3.72516">
        <ele>1000.87</ele>
        <time>2013-06-15T06:35:27Z</time>
      </trkpt>
      <trkpt lat="44.35399" lon="3.72504">
        <ele>1004.23</ele>
        <time>2013-06-15T06:35:32Z</time>
      </trkpt>
      <trkpt lat="44.35364" lon="3.72494">
        <ele>1004.23</ele>
        <time>2013-06-15T06:35:43Z</time>
      </trkpt>
      <trkpt lat="44.35344" lon="3.72483">
        <ele>1005.2</ele>
        <time>2013-06-15T06:35:50Z</time>
      </trkpt>
      <trkpt lat="44.3534" lon="3.72429">
        <ele>1007.6</ele>
        <time>2013-06-15T06:36:03Z</time>
      </trkpt>
      <trkpt lat="44.35341" lon="3.72377">
        <ele>1009.52</ele>
        <time>2013-06-15T06:36:15Z</time>
      </trkpt>
      <trkpt lat="44.3533" lon="3.7234">
        <ele>1011.93</ele>
        <time>2013-06-15T06:36:25Z</time>
      </trkpt>
      <trkpt lat="44.35325" lon="3.72299">
        <ele>1013.85</ele>
        <time>2013-06-15T06:36:36Z</time>
      </trkpt>
      <trkpt lat="44.3533" lon="3.72267">
        <ele>1015.77</ele>
        <time>2013-06-15T06:36:45Z</time>
      </trkpt>
      <trkpt lat="44.35327" lon="3.72247">
        <ele>1017.69</ele>
        <time>2013-06-15T06:36:53Z</time>
      </trkpt>
      <trkpt lat="44.3532" lon="3.72239">
        <ele>1018.65</ele>
        <time>2013-06-15T06:36:58Z</time>
      </trkpt>
      <trkpt lat="44.35308" lon="3.72228">
        <ele>1020.58</ele>
        <time>2013-06-15T06:37:06Z</time>
      </trkpt>
      <trkpt lat="44.35297" lon="3.72206">
        <ele>1023.46</ele>
        <time>2013-06-15T06:37:17Z</time>
      </trkpt>
      <trkpt lat="44.35287" lon="3.72207">
        <ele>1025.38</ele>
        <time>2013-06-15T06:37:23Z</time>
      </trkpt>
      <trkpt lat="44.35277" lon="3.72228">
        <ele>1027.31</ele>
        <time>2013-06-15T06:37:32Z</time>
      </trkpt>
      <trkpt lat="44.3527" lon="3.72258">
        <ele>1029.23</ele>
        <time>2013-06-15T06:37:43Z</time>
      </trkpt>
      <trkpt lat="44.35267" lon="3.72278">
        <ele>1031.15</ele>
        <time>2013-06-15T06:37:50Z</time>
      </trkpt>
      <trkpt lat="44.35252" lon="3.72298">
        <ele>1034.52</ele>
        <time>2013-06-15T06:38:02Z</time>
      </trkpt>
      <trkpt lat="44.35233" lon="3.72312">
        <ele>1036.44</ele>
        <time>2013-06-15T06:38:13Z</time>
      </trkpt>
      <trkpt lat="44.3522" lon="3.72338">
        <ele>1038.36</ele>
        <time>2013-06-15T06:38:23Z</time>
      </trkpt>
      <trkpt lat="44.352" lon="3.72367">
        <ele>1040.28</ele>
        <time>2013-06-15T06:38:34Z</time>
      </trkpt>
      <trkpt lat="44.35179" lon="3.72396">
        <ele>1042.21</ele>
        <time>2013-06-15T06:38:46Z</time>
      </trkpt>
      <trkpt lat="44.35169" lon="3.72407">
        <ele>1045.57</ele>
        <time>2013-06-15T06:38:51Z</time>
      </trkpt>
      <trkpt lat="44.35157" lon="3.72421">
        <ele>1022.98</ele>
        <time>2013-06-15T06:38:57Z</time>
      </trkpt>
      <trkpt lat="44.35155" lon="3.72423">
        <ele>1047.49</ele>
        <time>2013-06-15T06:38:58Z</time>
      </trkpt>
      <trkpt lat="44.35152" lon="3.72428">
        <ele>1034.04</ele>
        <time>2013-06-15T06:39:00Z</time>
      </trkpt>
      <trkpt lat="44.35151" lon="3.72431">
        <ele>1048.94</ele>
        <time>2013-06-15T06:39:01Z</time>
      </trkpt>
      <trkpt lat="44.35149" lon="3.72433">
        <ele>1045.09</ele>
        <time>2013-06-15T06:39:02Z</time>
      </trkpt>
      <trkpt lat="44.35126" lon="3.72472">
        <ele>1046.53</ele>
        <time>2013-06-15T06:39:15Z</time>
      </trkpt>
      <trkpt lat="44.35095" lon="3.7251">
        <ele>1047.01</ele>
        <time>2013-06-15T06:39:28Z</time>
      </trkpt>
      <trkpt lat="44.35056" lon="3.72551">
        <ele>1046.05</ele>
        <time>2013-06-15T06:39:40Z</time>
      </trkpt>
      <trkpt lat="44.35021" lon="3.72592">
        <ele>1047.49</ele>
        <time>2013-06-15T06:39:52Z</time>
      </trkpt>
      <trkpt lat="44.35016" lon="3.72599">
        <ele>1052.3</ele>
        <time>2013-06-15T06:39:54Z</time>
      </trkpt>
      <trkpt lat="44.35014" lon="3.72602">
        <ele>1047.97</ele>
        <time>2013-06-15T06:39:55Z</time>
      </trkpt>
      <trkpt lat="44.34982" lon="3.72633">
        <ele>1047.01</ele>
        <time>2013-06-15T06:40:05Z</time>
      </trkpt>
      <trkpt lat="44.3498" lon="3.72637">
        <ele>1047.01</ele>
        <time>2013-06-15T06:40:06Z</time>
      </trkpt>
      <trkpt lat="44.34977" lon="3.72642">
        <ele>1046.05</ele>
        <time>2013-06-15T06:40:07Z</time>
      </trkpt>
      <trkpt lat="44.3497" lon="3.72658">
        <ele>1045.57</ele>
        <time>2013-06-15T06:40:10Z</time>
      </trkpt>
      <trkpt lat="44.34966" lon="3.72663">
        <ele>1046.05</ele>
        <time>2013-06-15T06:40:11Z</time>
      </trkpt>
      <trkpt lat="44.34952" lon="3.7268">
        <ele>1044.13</ele>
        <time>2013-06-15T06:40:14Z</time>
      </trkpt>
      <trkpt lat="44.3493" lon="3.72699">
        <ele>1042.69</ele>
        <time>2013-06-15T06:40:18Z</time>
      </trkpt>
      <trkpt lat="44.34925" lon="3.72699">
        <ele>1041.73</ele>
        <time>2013-06-15T06:40:19Z</time>
      </trkpt>
      <trkpt lat="44.34919" lon="3.72698">
        <ele>1040.76</ele>
        <time>2013-06-15T06:40:20Z</time>
      </trkpt>
      <trkpt lat="44.34914" lon="3.72697">
        <ele>1039.8</ele>
        <time>2013-06-15T06:40:21Z</time>
      </trkpt>
      <trkpt lat="44.34908" lon="3.72699">
        <ele>1038.36</ele>
        <time>2013-06-15T06:40:22Z</time>
      </trkpt>
      <trkpt lat="44.34903" lon="3.72705">
        <ele>1037.4</ele>
        <time>2013-06-15T06:40:23Z</time>
      </trkpt>
      <trkpt lat="44.34899" lon="3.72714">
        <ele>1036.44</ele>
        <time>2013-06-15T06:40:24Z</time>
      </trkpt>
      <trkpt lat="44.34897" lon="3.72724">
        <ele>1035.48</ele>
        <time>2013-06-15T06:40:25Z</time>
      </trkpt>
      <trkpt lat="44.34895" lon="3.72734">
        <ele>1035.48</ele>
        <time>2013-06-15T06:40:26Z</time>
      </trkpt>
      <trkpt lat="44.34893" lon="3.72744">
        <ele>1035.96</ele>
        <time>2013-06-15T06:40:27Z</time>
      </trkpt>
      <trkpt lat="44.34888" lon="3.72771">
        <ele>1035.96</ele>
        <time>2013-06-15T06:40:30Z</time>
      </trkpt>
      <trkpt lat="44.34881" lon="3.72792">
        <ele>1036.44</ele>
        <time>2013-06-15T06:40:33Z</time>
      </trkpt>
      <trkpt lat="44.34874" lon="3.72802">
        <ele>1036.44</ele>
        <time>2013-06-15T06:40:35Z</time>
      </trkpt>
      <trkpt lat="44.34871" lon="3.72806">
        <ele>1036.92</ele>
        <time>2013-06-15T06:40:36Z</time>
      </trkpt>
      <trkpt lat="44.34868" lon="3.72809">
        <ele>1037.88</ele>
        <time>2013-06-15T06:40:37Z</time>
      </trkpt>
      <trkpt lat="44.34864" lon="3.72811">
        <ele>1037.88</ele>
        <time>2013-06-15T06:40:38Z</time>
      </trkpt>
      <trkpt lat="44.34861" lon="3.72813">
        <ele>1038.36</ele>
        <time>2013-06-15T06:40:39Z</time>
      </trkpt>
      <trkpt lat="44.34858" lon="3.72815">
        <ele>1038.36</ele>
        <time>2013-06-15T06:40:40Z</time>
      </trkpt>
      <trkpt lat="44.34832" lon="3.72843">
        <ele>1040.28</ele>
        <time>2013-06-15T06:40:50Z</time>
      </trkpt>
      <trkpt lat="44.34802" lon="3.72885">
        <ele>1040.28</ele>
        <time>2013-06-15T06:41:01Z</time>
      </trkpt>
      <trkpt lat="44.34799" lon="3.72889">
        <ele>1039.8</ele>
        <time>2013-06-15T06:41:02Z</time>
      </trkpt>
      <trkpt lat="44.34796" lon="3.72893">
        <ele>1040.76</ele>
        <time>2013-06-15T06:41:03Z</time>
      </trkpt>
      <trkpt lat="44.34793" lon="3.72897">
        <ele>1040.28</ele>
        <time>2013-06-15T06:41:04Z</time>
      </trkpt>
      <trkpt lat="44.3479" lon="3.72901">
        <ele>1039.8</ele>
        <time>2013-06-15T06:41:05Z</time>
      </trkpt>
      <trkpt lat="44.34777" lon="3.72919">
        <ele>1040.28</ele>
        <time>2013-06-15T06:41:09Z</time>
      </trkpt>
      <trkpt lat="44.3476" lon="3.7295">
        <ele>1040.28</ele>
        <time>2013-06-15T06:41:15Z</time>
      </trkpt>
      <trkpt lat="44.34758" lon="3.72955">
        <ele>1040.28</ele>
        <time>2013-06-15T06:41:16Z</time>
      </trkpt>
      <trkpt lat="44.34742" lon="3.72987">
        <ele>1043.65</ele>
        <time>2013-06-15T06:41:24Z</time>
      </trkpt>
      <trkpt lat="44.34719" lon="3.73025">
        <ele>1045.57</ele>
        <time>2013-06-15T06:41:35Z</time>
      </trkpt>
      <trkpt lat="44.34691" lon="3.73035">
        <ele>1047.01</ele>
        <time>2013-06-15T06:41:43Z</time>
      </trkpt>
      <trkpt lat="44.34668" lon="3.73063">
        <ele>1048.45</ele>
        <time>2013-06-15T06:41:52Z</time>
      </trkpt>
      <trkpt lat="44.3466" lon="3.73081">
        <ele>1051.82</ele>
        <time>2013-06-15T06:41:57Z</time>
      </trkpt>
      <trkpt lat="44.34635" lon="3.73121">
        <ele>1051.82</ele>
        <time>2013-06-15T06:42:09Z</time>
      </trkpt>
      <trkpt lat="44.34613" lon="3.73156">
        <ele>1053.26</ele>
        <time>2013-06-15T06:42:19Z</time>
      </trkpt>
      <trkpt lat="44.34591" lon="3.73187">
        <ele>1055.67</ele>
        <time>2013-06-15T06:42:29Z</time>
      </trkpt>
      <trkpt lat="44.34569" lon="3.73209">
        <ele>1057.59</ele>
        <time>2013-06-15T06:42:38Z</time>
      </trkpt>
      <trkpt lat="44.3454" lon="3.73216">
        <ele>1060.95</ele>
        <time>2013-06-15T06:42:49Z</time>
      </trkpt>
      <trkpt lat="44.34521" lon="3.73231">
        <ele>1062.87</ele>
        <time>2013-06-15T06:42:57Z</time>
      </trkpt>
      <trkpt lat="44.34501" lon="3.73254">
        <ele>1064.32</ele>
        <time>2013-06-15T06:43:06Z</time>
      </trkpt>
      <trkpt lat="44.34481" lon="3.73281">
        <ele>1065.76</ele>
        <time>2013-06-15T06:43:16Z</time>
      </trkpt>
      <trkpt lat="44.34475" lon="3.73296">
        <ele>1059.99</ele>
        <time>2013-06-15T06:43:20Z</time>
      </trkpt>
      <trkpt lat="44.34474" lon="3.73299">
        <ele>1066.72</ele>
        <time>2013-06-15T06:43:21Z</time>
      </trkpt>
      <trkpt lat="44.3446" lon="3.73342">
        <ele>1068.16</ele>
        <time>2013-06-15T06:43:32Z</time>
      </trkpt>
      <trkpt lat="44.34443" lon="3.73391">
        <ele>1069.12</ele>
        <time>2013-06-15T06:43:44Z</time>
      </trkpt>
      <trkpt lat="44.34446" lon="3.73438">
        <ele>1069.6</ele>
        <time>2013-06-15T06:43:54Z</time>
      </trkpt>
      <trkpt lat="44.3444" lon="3.73457">
        <ele>1071.05</ele>
        <time>2013-06-15T06:43:59Z</time>
      </trkpt>
      <trkpt lat="44.34432" lon="3.73494">
        <ele>1072.97</ele>
        <time>2013-06-15T06:44:08Z</time>
      </trkpt>
      <trkpt lat="44.34415" lon="3.73545">
        <ele>1074.41</ele>
        <time>2013-06-15T06:44:21Z</time>
      </trkpt>
      <trkpt lat="44.34394" lon="3.73564">
        <ele>1075.37</ele>
        <time>2013-06-15T06:44:29Z</time>
      </trkpt>
      <trkpt lat="44.34365" lon="3.7355">
        <ele>1076.33</ele>
        <time>2013-06-15T06:44:38Z</time>
      </trkpt>
      <trkpt lat="44.34336" lon="3.73551">
        <ele>1077.78</ele>
        <time>2013-06-15T06:44:47Z</time>
      </trkpt>
      <trkpt lat="44.34291" lon="3.73584">
        <ele>1079.7</ele>
        <time>2013-06-15T06:45:02Z</time>
      </trkpt>
      <trkpt lat="44.34256" lon="3.73595">
        <ele>1081.14</ele>
        <time>2013-06-15T06:45:13Z</time>
      </trkpt>
      <trkpt lat="44.34225" lon="3.73577">
        <ele>1082.58</ele>
        <time>2013-06-15T06:45:24Z</time>
      </trkpt>
      <trkpt lat="44.34195" lon="3.73568">
        <ele>1084.02</ele>
        <time>2013-06-15T06:45:35Z</time>
      </trkpt>
      <trkpt lat="44.34184" lon="3.73581">
        <ele>1084.5</ele>
        <time>2013-06-15T06:45:40Z</time>
      </trkpt>
      <trkpt lat="44.34185" lon="3.73585">
        <ele>1084.99</ele>
        <time>2013-06-15T06:45:41Z</time>
      </trkpt>
      <trkpt lat="44.34186" lon="3.73588">
        <ele>1084.99</ele>
        <time>2013-06-15T06:45:42Z</time>
      </trkpt>
      <trkpt lat="44.34187" lon="3.7359">
        <ele>1085.47</ele>
        <time>2013-06-15T06:45:43Z</time>
      </trkpt>
      <trkpt lat="44.34188" lon="3.73592">
        <ele>1085.95</ele>
        <time>2013-06-15T06:45:44Z</time>
      </trkpt>
      <trkpt lat="44.34189" lon="3.73595">
        <ele>1078.74</ele>
        <time>2013-06-15T06:45:45Z</time>
      </trkpt>
      <trkpt lat="44.3419" lon="3.73598">
        <ele>1086.91</ele>
        <time>2013-06-15T06:45:46Z</time>
      </trkpt>
      <trkpt lat="44.34191" lon="3.73601">
        <ele>1086.43</ele>
        <time>2013-06-15T06:45:47Z</time>
      </trkpt>
      <trkpt lat="44.34191" lon="3.73604">
        <ele>1086.43</ele>
        <time>2013-06-15T06:45:48Z</time>
      </trkpt>
      <trkpt lat="44.34192" lon="3.73607">
        <ele>1087.39</ele>
        <time>2013-06-15T06:45:49Z</time>
      </trkpt>
      <trkpt lat="44.34196" lon="3.7364">
        <ele>1089.31</ele>
        <time>2013-06-15T06:45:59Z</time>
      </trkpt>
      <trkpt lat="44.34197" lon="3.73649">
        <ele>1089.79</ele>
        <time>2013-06-15T06:46:02Z</time>
      </trkpt>
      <trkpt lat="44.34202" lon="3.73683">
        <ele>1091.23</ele>
        <time>2013-06-15T06:46:12Z</time>
      </trkpt>
      <trkpt lat="44.34225" lon="3.73716">
        <ele>1092.2</ele>
        <time>2013-06-15T06:46:23Z</time>
      </trkpt>
      <trkpt lat="44.3424" lon="3.73734">
        <ele>1094.12</ele>
        <time>2013-06-15T06:46:32Z</time>
      </trkpt>
      <trkpt lat="44.3424" lon="3.73735">
        <ele>1095.08</ele>
        <time>2013-06-15T06:46:33Z</time>
      </trkpt>
      <trkpt lat="44.34241" lon="3.7374">
        <ele>1095.08</ele>
        <time>2013-06-15T06:46:42Z</time>
      </trkpt>
      <trkpt lat="44.34237" lon="3.73744">
        <ele>1095.08</ele>
        <time>2013-06-15T06:46:50Z</time>
      </trkpt>
      <trkpt lat="44.34237" lon="3.73744">
        <ele>1094.6</ele>
        <time>2013-06-15T06:46:54Z</time>
      </trkpt>
      <trkpt lat="44.34234" lon="3.73747">
        <ele>1101.33</ele>
        <time>2013-06-15T06:46:57Z</time>
      </trkpt>
      <trkpt lat="44.34233" lon="3.73747">
        <ele>1094.6</ele>
        <time>2013-06-15T06:46:58Z</time>
      </trkpt>
      <trkpt lat="44.34214" lon="3.73767">
        <ele>1093.64</ele>
        <time>2013-06-15T06:47:07Z</time>
      </trkpt>
      <trkpt lat="44.34199" lon="3.73785">
        <ele>1093.16</ele>
        <time>2013-06-15T06:47:14Z</time>
      </trkpt>
      <trkpt lat="44.342" lon="3.73784">
        <ele>1093.64</ele>
        <time>2013-06-15T06:47:30Z</time>
      </trkpt>
      <trkpt lat="44.342" lon="3.73789">
        <ele>1092.68</ele>
        <time>2013-06-15T06:47:38Z</time>
      </trkpt>
      <trkpt lat="44.342" lon="3.738">
        <ele>1092.2</ele>
        <time>2013-06-15T06:47:40Z</time>
      </trkpt>
      <trkpt lat="44.342" lon="3.73812">
        <ele>1090.75</ele>
        <time>2013-06-15T06:47:42Z</time>
      </trkpt>
      <trkpt lat="44.342" lon="3.73818">
        <ele>1090.75</ele>
        <time>2013-06-15T06:47:43Z</time>
      </trkpt>
      <trkpt lat="44.34198" lon="3.73831">
        <ele>1089.79</ele>
        <time>2013-06-15T06:47:45Z</time>
      </trkpt>
      <trkpt lat="44.34198" lon="3.73839">
        <ele>1088.83</ele>
        <time>2013-06-15T06:47:46Z</time>
      </trkpt>
      <trkpt lat="44.34198" lon="3.73846">
        <ele>1087.87</ele>
        <time>2013-06-15T06:47:47Z</time>
      </trkpt>
      <trkpt lat="44.34197" lon="3.73852">
        <ele>1088.35</ele>
        <time>2013-06-15T06:47:48Z</time>
      </trkpt>
      <trkpt lat="44.34196" lon="3.73858">
        <ele>1087.39</ele>
        <time>2013-06-15T06:47:49Z</time>
      </trkpt>
      <trkpt lat="44.34194" lon="3.73864">
        <ele>1086.91</ele>
        <time>2013-06-15T06:47:50Z</time>
      </trkpt>
      <trkpt lat="44.34193" lon="3.73871">
        <ele>1086.43</ele>
        <time>2013-06-15T06:47:51Z</time>
      </trkpt>
      <trkpt lat="44.34191" lon="3.73878">
        <ele>1085.95</ele>
        <time>2013-06-15T06:47:52Z</time>
      </trkpt>
      <trkpt lat="44.34186" lon="3.73892">
        <ele>1085.47</ele>
        <time>2013-06-15T06:47:54Z</time>
      </trkpt>
      <trkpt lat="44.34183" lon="3.73898">
        <ele>1085.47</ele>
        <time>2013-06-15T06:47:55Z</time>
      </trkpt>
      <trkpt lat="44.3418" lon="3.73903">
        <ele>1085.95</ele>
        <time>2013-06-15T06:47:56Z</time>
      </trkpt>
      <trkpt lat="44.34177" lon="3.73908">
        <ele>1084.99</ele>
        <time>2013-06-15T06:47:57Z</time>
      </trkpt>
      <trkpt lat="44.34174" lon="3.73914">
        <ele>1084.5</ele>
        <time>2013-06-15T06:47:58Z</time>
      </trkpt>
      <trkpt lat="44.34171" lon="3.73921">
        <ele>1084.5</ele>
        <time>2013-06-15T06:47:59Z</time>
      </trkpt>
      <trkpt lat="44.3417" lon="3.73927">
        <ele>1083.54</ele>
        <time>2013-06-15T06:48:00Z</time>
      </trkpt>
      <trkpt lat="44.34168" lon="3.73934">
        <ele>1083.54</ele>
        <time>2013-06-15T06:48:01Z</time>
      </trkpt>
      <trkpt lat="44.34165" lon="3.73941">
        <ele>1083.06</ele>
        <time>2013-06-15T06:48:02Z</time>
      </trkpt>
      <trkpt lat="44.34162" lon="3.73948">
        <ele>1082.58</ele>
        <time>2013-06-15T06:48:03Z</time>
      </trkpt>
      <trkpt lat="44.34152" lon="3.7397">
        <ele>1081.14</ele>
        <time>2013-06-15T06:48:06Z</time>
      </trkpt>
      <trkpt lat="44.34135" lon="3.73993">
        <ele>1079.7</ele>
        <time>2013-06-15T06:48:10Z</time>
      </trkpt>
      <trkpt lat="44.34132" lon="3.73996">
        <ele>1078.74</ele>
        <time>2013-06-15T06:48:11Z</time>
      </trkpt>
      <trkpt lat="44.3413" lon="3.73999">
        <ele>1078.74</ele>
        <time>2013-06-15T06:48:12Z</time>
      </trkpt>
      <trkpt lat="44.34127" lon="3.74002">
        <ele>1077.78</ele>
        <time>2013-06-15T06:48:13Z</time>
      </trkpt>
      <trkpt lat="44.34124" lon="3.74004">
        <ele>1077.29</ele>
        <time>2013-06-15T06:48:14Z</time>
      </trkpt>
      <trkpt lat="44.34121" lon="3.74007">
        <ele>1077.29</ele>
        <time>2013-06-15T06:48:15Z</time>
      </trkpt>
      <trkpt lat="44.34118" lon="3.74011">
        <ele>1076.81</ele>
        <time>2013-06-15T06:48:16Z</time>
      </trkpt>
      <trkpt lat="44.34114" lon="3.74015">
        <ele>1076.81</ele>
        <time>2013-06-15T06:48:17Z</time>
      </trkpt>
      <trkpt lat="44.3411" lon="3.7402">
        <ele>1075.85</ele>
        <time>2013-06-15T06:48:18Z</time>
      </trkpt>
      <trkpt lat="44.34108" lon="3.74024">
        <ele>1075.37</ele>
        <time>2013-06-15T06:48:19Z</time>
      </trkpt>
      <trkpt lat="44.34105" lon="3.74028">
        <ele>1075.37</ele>
        <time>2013-06-15T06:48:20Z</time>
      </trkpt>
      <trkpt lat="44.34103" lon="3.74031">
        <ele>1075.37</ele>
        <time>2013-06-15T06:48:21Z</time>
      </trkpt>
      <trkpt lat="44.34101" lon="3.74034">
        <ele>1074.89</ele>
        <time>2013-06-15T06:48:22Z</time>
      </trkpt>
      <trkpt lat="44.34099" lon="3.74037">
        <ele>1073.93</ele>
        <time>2013-06-15T06:48:23Z</time>
      </trkpt>
      <trkpt lat="44.34082" lon="3.74068">
        <ele>1071.05</ele>
        <time>2013-06-15T06:48:33Z</time>
      </trkpt>
      <trkpt lat="44.34077" lon="3.74079">
        <ele>1071.05</ele>
        <time>2013-06-15T06:48:35Z</time>
      </trkpt>
      <trkpt lat="44.3406" lon="3.74115">
        <ele>1068.16</ele>
        <time>2013-06-15T06:48:42Z</time>
      </trkpt>
      <trkpt lat="44.34059" lon="3.74118">
        <ele>1069.12</ele>
        <time>2013-06-15T06:48:50Z</time>
      </trkpt>
      <trkpt lat="44.34058" lon="3.74122">
        <ele>1067.2</ele>
        <time>2013-06-15T06:49:02Z</time>
      </trkpt>
      <trkpt lat="44.34057" lon="3.74125">
        <ele>1067.2</ele>
        <time>2013-06-15T06:49:03Z</time>
      </trkpt>
      <trkpt lat="44.34056" lon="3.74129">
        <ele>1066.24</ele>
        <time>2013-06-15T06:49:04Z</time>
      </trkpt>
      <trkpt lat="44.34055" lon="3.74133">
        <ele>1065.76</ele>
        <time>2013-06-15T06:49:05Z</time>
      </trkpt>
      <trkpt lat="44.34054" lon="3.74137">
        <ele>1065.76</ele>
        <time>2013-06-15T06:49:06Z</time>
      </trkpt>
      <trkpt lat="44.34054" lon="3.74143">
        <ele>1064.8</ele>
        <time>2013-06-15T06:49:07Z</time>
      </trkpt>
      <trkpt lat="44.34053" lon="3.74148">
        <ele>1064.32</ele>
        <time>2013-06-15T06:49:08Z</time>
      </trkpt>
      <trkpt lat="44.34053" lon="3.74155">
        <ele>1063.84</ele>
        <time>2013-06-15T06:49:09Z</time>
      </trkpt>
      <trkpt lat="44.34052" lon="3.74162">
        <ele>1063.36</ele>
        <time>2013-06-15T06:49:10Z</time>
      </trkpt>
      <trkpt lat="44.34052" lon="3.7417">
        <ele>1062.87</ele>
        <time>2013-06-15T06:49:11Z</time>
      </trkpt>
      <trkpt lat="44.34052" lon="3.74178">
        <ele>1062.87</ele>
        <time>2013-06-15T06:49:12Z</time>
      </trkpt>
      <trkpt lat="44.34052" lon="3.74185">
        <ele>1061.91</ele>
        <time>2013-06-15T06:49:13Z</time>
      </trkpt>
      <trkpt lat="44.34052" lon="3.74193">
        <ele>1060.95</ele>
        <time>2013-06-15T06:49:14Z</time>
      </trkpt>
      <trkpt lat="44.34051" lon="3.742">
        <ele>1061.43</ele>
        <time>2013-06-15T06:49:15Z</time>
      </trkpt>
      <trkpt lat="44.34048" lon="3.74224">
        <ele>1059.51</ele>
        <time>2013-06-15T06:49:20Z</time>
      </trkpt>
      <trkpt lat="44.34046" lon="3.74225">
        <ele>1059.03</ele>
        <time>2013-06-15T06:49:21Z</time>
      </trkpt>
      <trkpt lat="44.34043" lon="3.74225">
        <ele>1058.55</ele>
        <time>2013-06-15T06:49:22Z</time>
      </trkpt>
      <trkpt lat="44.34042" lon="3.74224">
        <ele>1050.86</ele>
        <time>2013-06-15T06:49:23Z</time>
      </trkpt>
      <trkpt lat="44.34041" lon="3.74224">
        <ele>1058.55</ele>
        <time>2013-06-15T06:49:24Z</time>
      </trkpt>
      <trkpt lat="44.34041" lon="3.74223">
        <ele>1058.07</ele>
        <time>2013-06-15T06:49:25Z</time>
      </trkpt>
      <trkpt lat="44.34039" lon="3.74219">
        <ele>1057.11</ele>
        <time>2013-06-15T06:49:27Z</time>
      </trkpt>
      <trkpt lat="44.34031" lon="3.74206">
        <ele>1054.7</ele>
        <time>2013-06-15T06:49:30Z</time>
      </trkpt>
      <trkpt lat="44.34028" lon="3.74199">
        <ele>1053.74</ele>
        <time>2013-06-15T06:49:31Z</time>
      </trkpt>
      <trkpt lat="44.34024" lon="3.74193">
        <ele>1052.78</ele>
        <time>2013-06-15T06:49:32Z</time>
      </trkpt>
      <trkpt lat="44.34015" lon="3.74183">
        <ele>1051.82</ele>
        <time>2013-06-15T06:49:35Z</time>
      </trkpt>
      <trkpt lat="44.34005" lon="3.74181">
        <ele>1049.42</ele>
        <time>2013-06-15T06:49:39Z</time>
      </trkpt>
      <trkpt lat="44.34002" lon="3.74179">
        <ele>1048.45</ele>
        <time>2013-06-15T06:49:40Z</time>
      </trkpt>
      <trkpt lat="44.34" lon="3.74175">
        <ele>1047.97</ele>
        <time>2013-06-15T06:49:41Z</time>
      </trkpt>
      <trkpt lat="44.33998" lon="3.74172">
        <ele>1047.01</ele>
        <time>2013-06-15T06:49:42Z</time>
      </trkpt>
      <trkpt lat="44.33997" lon="3.74168">
        <ele>1046.53</ele>
        <time>2013-06-15T06:49:43Z</time>
      </trkpt>
      <trkpt lat="44.33993" lon="3.74163">
        <ele>1046.05</ele>
        <time>2013-06-15T06:49:45Z</time>
      </trkpt>
      <trkpt lat="44.33987" lon="3.74154">
        <ele>1043.65</ele>
        <time>2013-06-15T06:49:48Z</time>
      </trkpt>
      <trkpt lat="44.33984" lon="3.74151">
        <ele>1043.17</ele>
        <time>2013-06-15T06:49:49Z</time>
      </trkpt>
      <trkpt lat="44.33982" lon="3.74149">
        <ele>1042.21</ele>
        <time>2013-06-15T06:49:50Z</time>
      </trkpt>
      <trkpt lat="44.3398" lon="3.74146">
        <ele>1041.73</ele>
        <time>2013-06-15T06:49:51Z</time>
      </trkpt>
      <trkpt lat="44.33979" lon="3.74145">
        <ele>1041.73</ele>
        <time>2013-06-15T06:49:52Z</time>
      </trkpt>
      <trkpt lat="44.33964" lon="3.74158">
        <ele>1038.84</ele>
        <time>2013-06-15T06:49:57Z</time>
      </trkpt>
      <trkpt lat="44.33962" lon="3.7416">
        <ele>1038.36</ele>
        <time>2013-06-15T06:49:58Z</time>
      </trkpt>
      <trkpt lat="44.33951" lon="3.74175">
        <ele>1037.4</ele>
        <time>2013-06-15T06:50:04Z</time>
      </trkpt>
      <trkpt lat="44.33945" lon="3.74184">
        <ele>1035.96</ele>
        <time>2013-06-15T06:50:08Z</time>
      </trkpt>
      <trkpt lat="44.33937" lon="3.74203">
        <ele>1033.55</ele>
        <time>2013-06-15T06:50:16Z</time>
      </trkpt>
      <trkpt lat="44.33935" lon="3.74211">
        <ele>1032.11</ele>
        <time>2013-06-15T06:50:21Z</time>
      </trkpt>
      <trkpt lat="44.3393" lon="3.74238">
        <ele>1028.27</ele>
        <time>2013-06-15T06:50:26Z</time>
      </trkpt>
      <trkpt lat="44.33927" lon="3.74245">
        <ele>1027.79</ele>
        <time>2013-06-15T06:50:27Z</time>
      </trkpt>
      <trkpt lat="44.33923" lon="3.74252">
        <ele>1027.31</ele>
        <time>2013-06-15T06:50:28Z</time>
      </trkpt>
      <trkpt lat="44.33918" lon="3.7426">
        <ele>1025.86</ele>
        <time>2013-06-15T06:50:29Z</time>
      </trkpt>
      <trkpt lat="44.33912" lon="3.74269">
        <ele>1024.9</ele>
        <time>2013-06-15T06:50:30Z</time>
      </trkpt>
      <trkpt lat="44.339" lon="3.74285">
        <ele>1037.4</ele>
        <time>2013-06-15T06:50:34Z</time>
      </trkpt>
      <trkpt lat="44.33897" lon="3.74288">
        <ele>1024.9</ele>
        <time>2013-06-15T06:50:35Z</time>
      </trkpt>
      <trkpt lat="44.33887" lon="3.74293">
        <ele>1023.94</ele>
        <time>2013-06-15T06:50:38Z</time>
      </trkpt>
      <trkpt lat="44.33882" lon="3.74294">
        <ele>1022.98</ele>
        <time>2013-06-15T06:50:39Z</time>
      </trkpt>
      <trkpt lat="44.33871" lon="3.74294">
        <ele>1022.5</ele>
        <time>2013-06-15T06:50:41Z</time>
      </trkpt>
      <trkpt lat="44.33866" lon="3.74295">
        <ele>1022.02</ele>
        <time>2013-06-15T06:50:42Z</time>
      </trkpt>
      <trkpt lat="44.33861" lon="3.74298">
        <ele>1020.58</ele>
        <time>2013-06-15T06:50:43Z</time>
      </trkpt>
      <trkpt lat="44.33855" lon="3.74301">
        <ele>1019.62</ele>
        <time>2013-06-15T06:50:44Z</time>
      </trkpt>
      <trkpt lat="44.33849" lon="3.74304">
        <ele>1019.13</ele>
        <time>2013-06-15T06:50:45Z</time>
      </trkpt>
      <trkpt lat="44.33844" lon="3.74307">
        <ele>1018.65</ele>
        <time>2013-06-15T06:50:46Z</time>
      </trkpt>
      <trkpt lat="44.33839" lon="3.7431">
        <ele>1017.69</ele>
        <time>2013-06-15T06:50:47Z</time>
      </trkpt>
      <trkpt lat="44.33835" lon="3.7431">
        <ele>1017.21</ele>
        <time>2013-06-15T06:50:48Z</time>
      </trkpt>
      <trkpt lat="44.33832" lon="3.74308">
        <ele>1016.73</ele>
        <time>2013-06-15T06:50:49Z</time>
      </trkpt>
      <trkpt lat="44.33828" lon="3.74306">
        <ele>1016.25</ele>
        <time>2013-06-15T06:50:50Z</time>
      </trkpt>
      <trkpt lat="44.33825" lon="3.74306">
        <ele>1015.29</ele>
        <time>2013-06-15T06:50:51Z</time>
      </trkpt>
      <trkpt lat="44.33821" lon="3.74307">
        <ele>1015.29</ele>
        <time>2013-06-15T06:50:52Z</time>
      </trkpt>
      <trkpt lat="44.33819" lon="3.74309">
        <ele>1015.29</ele>
        <time>2013-06-15T06:50:53Z</time>
      </trkpt>
      <trkpt lat="44.33818" lon="3.74311">
        <ele>1015.29</ele>
        <time>2013-06-15T06:50:54Z</time>
      </trkpt>
      <trkpt lat="44.33818" lon="3.74313">
        <ele>1014.81</ele>
        <time>2013-06-15T06:50:55Z</time>
      </trkpt>
      <trkpt lat="44.33818" lon="3.74315">
        <ele>1014.81</ele>
        <time>2013-06-15T06:50:56Z</time>
      </trkpt>
      <trkpt lat="44.33818" lon="3.74318">
        <ele>1014.81</ele>
        <time>2013-06-15T06:50:57Z</time>
      </trkpt>
      <trkpt lat="44.33817" lon="3.74322">
        <ele>1014.81</ele>
        <time>2013-06-15T06:50:58Z</time>
      </trkpt>
      <trkpt lat="44.33816" lon="3.74324">
        <ele>1015.29</ele>
        <time>2013-06-15T06:50:59Z</time>
      </trkpt>
      <trkpt lat="44.33817" lon="3.7434">
        <ele>1013.37</ele>
        <time>2013-06-15T06:51:03Z</time>
      </trkpt>
      <trkpt lat="44.33817" lon="3.74351">
        <ele>1011.44</ele>
        <time>2013-06-15T06:51:05Z</time>
      </trkpt>
      <trkpt lat="44.33817" lon="3.74357">
        <ele>1010.96</ele>
        <time>2013-06-15T06:51:06Z</time>
      </trkpt>
      <trkpt lat="44.33814" lon="3.74365">
        <ele>1010</ele>
        <time>2013-06-15T06:51:07Z</time>
      </trkpt>
      <trkpt lat="44.33811" lon="3.74375">
        <ele>1009.52</ele>
        <time>2013-06-15T06:51:08Z</time>
      </trkpt>
      <trkpt lat="44.33806" lon="3.74386">
        <ele>1008.08</ele>
        <time>2013-06-15T06:51:09Z</time>
      </trkpt>
      <trkpt lat="44.33802" lon="3.74395">
        <ele>1006.64</ele>
        <time>2013-06-15T06:51:10Z</time>
      </trkpt>
      <trkpt lat="44.33797" lon="3.74405">
        <ele>1005.2</ele>
        <time>2013-06-15T06:51:11Z</time>
      </trkpt>
      <trkpt lat="44.33792" lon="3.74413">
        <ele>1004.72</ele>
        <time>2013-06-15T06:51:12Z</time>
      </trkpt>
      <trkpt lat="44.33786" lon="3.74421">
        <ele>1004.23</ele>
        <time>2013-06-15T06:51:13Z</time>
      </trkpt>
      <trkpt lat="44.33781" lon="3.74426">
        <ele>1004.23</ele>
        <time>2013-06-15T06:51:14Z</time>
      </trkpt>
      <trkpt lat="44.33775" lon="3.74431">
        <ele>1004.23</ele>
        <time>2013-06-15T06:51:15Z</time>
      </trkpt>
      <trkpt lat="44.33771" lon="3.74436">
        <ele>1004.23</ele>
        <time>2013-06-15T06:51:16Z</time>
      </trkpt>
      <trkpt lat="44.33768" lon="3.7444">
        <ele>1004.72</ele>
        <time>2013-06-15T06:51:17Z</time>
      </trkpt>
      <trkpt lat="44.33765" lon="3.74445">
        <ele>1005.2</ele>
        <time>2013-06-15T06:51:18Z</time>
      </trkpt>
      <trkpt lat="44.33756" lon="3.74455">
        <ele>1005.2</ele>
        <time>2013-06-15T06:51:22Z</time>
      </trkpt>
      <trkpt lat="44.33757" lon="3.74459">
        <ele>1005.2</ele>
        <time>2013-06-15T06:51:23Z</time>
      </trkpt>
      <trkpt lat="44.33757" lon="3.74461">
        <ele>1005.2</ele>
        <time>2013-06-15T06:51:24Z</time>
      </trkpt>
      <trkpt lat="44.33782" lon="3.74463">
        <ele>1004.23</ele>
        <time>2013-06-15T06:51:32Z</time>
      </trkpt>
      <trkpt lat="44.33787" lon="3.74465">
        <ele>1004.23</ele>
        <time>2013-06-15T06:51:33Z</time>
      </trkpt>
      <trkpt lat="44.33792" lon="3.74467">
        <ele>1003.75</ele>
        <time>2013-06-15T06:51:34Z</time>
      </trkpt>
      <trkpt lat="44.33797" lon="3.74467">
        <ele>1003.27</ele>
        <time>2013-06-15T06:51:35Z</time>
      </trkpt>
      <trkpt lat="44.33802" lon="3.74466">
        <ele>1003.75</ele>
        <time>2013-06-15T06:51:36Z</time>
      </trkpt>
      <trkpt lat="44.33808" lon="3.74463">
        <ele>1003.75</ele>
        <time>2013-06-15T06:51:37Z</time>
      </trkpt>
      <trkpt lat="44.33813" lon="3.7446">
        <ele>1002.79</ele>
        <time>2013-06-15T06:51:38Z</time>
      </trkpt>
      <trkpt lat="44.33824" lon="3.74451">
        <ele>1001.83</ele>
        <time>2013-06-15T06:51:40Z</time>
      </trkpt>
      <trkpt lat="44.33831" lon="3.74448">
        <ele>1001.35</ele>
        <time>2013-06-15T06:51:41Z</time>
      </trkpt>
      <trkpt lat="44.33838" lon="3.74446">
        <ele>1000.87</ele>
        <time>2013-06-15T06:51:42Z</time>
      </trkpt>
      <trkpt lat="44.33881" lon="3.7444">
        <ele>999.43</ele>
        <time>2013-06-15T06:51:48Z</time>
      </trkpt>
      <trkpt lat="44.33895" lon="3.74436">
        <ele>999.43</ele>
        <time>2013-06-15T06:51:50Z</time>
      </trkpt>
      <trkpt lat="44.33901" lon="3.74433">
        <ele>998.95</ele>
        <time>2013-06-15T06:51:51Z</time>
      </trkpt>
      <trkpt lat="44.33919" lon="3.74423">
        <ele>998.95</ele>
        <time>2013-06-15T06:51:54Z</time>
      </trkpt>
      <trkpt lat="44.33925" lon="3.74422">
        <ele>998.47</ele>
        <time>2013-06-15T06:51:55Z</time>
      </trkpt>
      <trkpt lat="44.33931" lon="3.74424">
        <ele>998.95</ele>
        <time>2013-06-15T06:51:56Z</time>
      </trkpt>
      <trkpt lat="44.33937" lon="3.74427">
        <ele>998.95</ele>
        <time>2013-06-15T06:51:57Z</time>
      </trkpt>
      <trkpt lat="44.33941" lon="3.74433">
        <ele>998.95</ele>
        <time>2013-06-15T06:51:58Z</time>
      </trkpt>
      <trkpt lat="44.33945" lon="3.74439">
        <ele>998.95</ele>
        <time>2013-06-15T06:51:59Z</time>
      </trkpt>
      <trkpt lat="44.33956" lon="3.74467">
        <ele>998.47</ele>
        <time>2013-06-15T06:52:03Z</time>
      </trkpt>
      <trkpt lat="44.33957" lon="3.74475">
        <ele>996.54</ele>
        <time>2013-06-15T06:52:04Z</time>
      </trkpt>
      <trkpt lat="44.33958" lon="3.74483">
        <ele>999.43</ele>
        <time>2013-06-15T06:52:05Z</time>
      </trkpt>
      <trkpt lat="44.33957" lon="3.74524">
        <ele>999.43</ele>
        <time>2013-06-15T06:52:11Z</time>
      </trkpt>
      <trkpt lat="44.33957" lon="3.74531">
        <ele>998.95</ele>
        <time>2013-06-15T06:52:12Z</time>
      </trkpt>
      <trkpt lat="44.33957" lon="3.74537">
        <ele>998.95</ele>
        <time>2013-06-15T06:52:13Z</time>
      </trkpt>
      <trkpt lat="44.33957" lon="3.74544">
        <ele>998.95</ele>
        <time>2013-06-15T06:52:14Z</time>
      </trkpt>
      <trkpt lat="44.33957" lon="3.74552">
        <ele>997.99</ele>
        <time>2013-06-15T06:52:15Z</time>
      </trkpt>
      <trkpt lat="44.33956" lon="3.74559">
        <ele>998.47</ele>
        <time>2013-06-15T06:52:16Z</time>
      </trkpt>
      <trkpt lat="44.33947" lon="3.74599">
        <ele>998.47</ele>
        <time>2013-06-15T06:52:21Z</time>
      </trkpt>
      <trkpt lat="44.33945" lon="3.74607">
        <ele>998.47</ele>
        <time>2013-06-15T06:52:22Z</time>
      </trkpt>
      <trkpt lat="44.33942" lon="3.74615">
        <ele>997.99</ele>
        <time>2013-06-15T06:52:23Z</time>
      </trkpt>
      <trkpt lat="44.33936" lon="3.74647">
        <ele>997.51</ele>
        <time>2013-06-15T06:52:27Z</time>
      </trkpt>
      <trkpt lat="44.33936" lon="3.74664">
        <ele>997.51</ele>
        <time>2013-06-15T06:52:29Z</time>
      </trkpt>
      <trkpt lat="44.33937" lon="3.74672">
        <ele>997.51</ele>
        <time>2013-06-15T06:52:30Z</time>
      </trkpt>
      <trkpt lat="44.33941" lon="3.74696">
        <ele>996.06</ele>
        <time>2013-06-15T06:52:33Z</time>
      </trkpt>
      <trkpt lat="44.33941" lon="3.74704">
        <ele>996.06</ele>
        <time>2013-06-15T06:52:34Z</time>
      </trkpt>
      <trkpt lat="44.33941" lon="3.74712">
        <ele>995.58</ele>
        <time>2013-06-15T06:52:35Z</time>
      </trkpt>
      <trkpt lat="44.33941" lon="3.7472">
        <ele>991.26</ele>
        <time>2013-06-15T06:52:36Z</time>
      </trkpt>
      <trkpt lat="44.33939" lon="3.74729">
        <ele>996.06</ele>
        <time>2013-06-15T06:52:37Z</time>
      </trkpt>
      <trkpt lat="44.33937" lon="3.74738">
        <ele>995.1</ele>
        <time>2013-06-15T06:52:38Z</time>
      </trkpt>
      <trkpt lat="44.33927" lon="3.74788">
        <ele>995.58</ele>
        <time>2013-06-15T06:52:44Z</time>
      </trkpt>
      <trkpt lat="44.33924" lon="3.74826">
        <ele>997.99</ele>
        <time>2013-06-15T06:52:52Z</time>
      </trkpt>
      <trkpt lat="44.33922" lon="3.74857">
        <ele>1001.35</ele>
        <time>2013-06-15T06:53:01Z</time>
      </trkpt>
      <trkpt lat="44.33922" lon="3.7486">
        <ele>1001.35</ele>
        <time>2013-06-15T06:53:02Z</time>
      </trkpt>
      <trkpt lat="44.33919" lon="3.74885">
        <ele>1003.75</ele>
        <time>2013-06-15T06:53:11Z</time>
      </trkpt>
      <trkpt lat="44.33919" lon="3.74888">
        <ele>1003.75</ele>
        <time>2013-06-15T06:53:12Z</time>
      </trkpt>
      <trkpt lat="44.33918" lon="3.74891">
        <ele>1004.23</ele>
        <time>2013-06-15T06:53:13Z</time>
      </trkpt>
      <trkpt lat="44.33918" lon="3.74894">
        <ele>1004.23</ele>
        <time>2013-06-15T06:53:14Z</time>
      </trkpt>
      <trkpt lat="44.33916" lon="3.74903">
        <ele>1008.08</ele>
        <time>2013-06-15T06:53:17Z</time>
      </trkpt>
      <trkpt lat="44.33902" lon="3.7493">
        <ele>1007.12</ele>
        <time>2013-06-15T06:53:29Z</time>
      </trkpt>
      <trkpt lat="44.33886" lon="3.74943">
        <ele>1010</ele>
        <time>2013-06-15T06:53:39Z</time>
      </trkpt>
      <trkpt lat="44.33873" lon="3.7495">
        <ele>1012.89</ele>
        <time>2013-06-15T06:53:47Z</time>
      </trkpt>
      <trkpt lat="44.3386" lon="3.74959">
        <ele>1014.33</ele>
        <time>2013-06-15T06:53:55Z</time>
      </trkpt>
      <trkpt lat="44.33849" lon="3.74962">
        <ele>1010.96</ele>
        <time>2013-06-15T06:54:01Z</time>
      </trkpt>
      <trkpt lat="44.33847" lon="3.74962">
        <ele>1022.5</ele>
        <time>2013-06-15T06:54:02Z</time>
      </trkpt>
      <trkpt lat="44.33845" lon="3.74963">
        <ele>1035</ele>
        <time>2013-06-15T06:54:03Z</time>
      </trkpt>
      <trkpt lat="44.33844" lon="3.74963">
        <ele>1016.73</ele>
        <time>2013-06-15T06:54:04Z</time>
      </trkpt>
      <trkpt lat="44.33842" lon="3.74962">
        <ele>1016.73</ele>
        <time>2013-06-15T06:54:05Z</time>
      </trkpt>
      <trkpt lat="44.3384" lon="3.74962">
        <ele>1017.21</ele>
        <time>2013-06-15T06:54:06Z</time>
      </trkpt>
      <trkpt lat="44.33833" lon="3.7496">
        <ele>1018.17</ele>
        <time>2013-06-15T06:54:10Z</time>
      </trkpt>
      <trkpt lat="44.33831" lon="3.7496">
        <ele>1018.17</ele>
        <time>2013-06-15T06:54:11Z</time>
      </trkpt>
      <trkpt lat="44.3383" lon="3.74959">
        <ele>1018.65</ele>
        <time>2013-06-15T06:54:12Z</time>
      </trkpt>
      <trkpt lat="44.33828" lon="3.74958">
        <ele>1018.65</ele>
        <time>2013-06-15T06:54:13Z</time>
      </trkpt>
      <trkpt lat="44.33826" lon="3.74957">
        <ele>1018.65</ele>
        <time>2013-06-15T06:54:14Z</time>
      </trkpt>
      <trkpt lat="44.33824" lon="3.74956">
        <ele>1019.13</ele>
        <time>2013-06-15T06:54:15Z</time>
      </trkpt>
      <trkpt lat="44.33822" lon="3.74955">
        <ele>1019.62</ele>
        <time>2013-06-15T06:54:16Z</time>
      </trkpt>
      <trkpt lat="44.33806" lon="3.74949">
        <ele>1020.58</ele>
        <time>2013-06-15T06:54:24Z</time>
      </trkpt>
      <trkpt lat="44.33802" lon="3.74951">
        <ele>1020.58</ele>
        <time>2013-06-15T06:54:26Z</time>
      </trkpt>
      <trkpt lat="44.338" lon="3.74953">
        <ele>1021.54</ele>
        <time>2013-06-15T06:54:27Z</time>
      </trkpt>
      <trkpt lat="44.33797" lon="3.74955">
        <ele>1021.54</ele>
        <time>2013-06-15T06:54:28Z</time>
      </trkpt>
      <trkpt lat="44.33795" lon="3.74957">
        <ele>1021.06</ele>
        <time>2013-06-15T06:54:29Z</time>
      </trkpt>
      <trkpt lat="44.33794" lon="3.74959">
        <ele>1022.02</ele>
        <time>2013-06-15T06:54:30Z</time>
      </trkpt>
      <trkpt lat="44.33777" lon="3.74971">
        <ele>1024.42</ele>
        <time>2013-06-15T06:54:39Z</time>
      </trkpt>
      <trkpt lat="44.33765" lon="3.74976">
        <ele>1026.34</ele>
        <time>2013-06-15T06:54:46Z</time>
      </trkpt>
      <trkpt lat="44.33746" lon="3.74983">
        <ele>1028.75</ele>
        <time>2013-06-15T06:54:56Z</time>
      </trkpt>
      <trkpt lat="44.33737" lon="3.74986">
        <ele>1030.19</ele>
        <time>2013-06-15T06:55:01Z</time>
      </trkpt>
      <trkpt lat="44.33719" lon="3.74992">
        <ele>1032.59</ele>
        <time>2013-06-15T06:55:12Z</time>
      </trkpt>
      <trkpt lat="44.33715" lon="3.74993">
        <ele>1032.59</ele>
        <time>2013-06-15T06:55:14Z</time>
      </trkpt>
      <trkpt lat="44.33699" lon="3.74995">
        <ele>1035.96</ele>
        <time>2013-06-15T06:55:24Z</time>
      </trkpt>
      <trkpt lat="44.33692" lon="3.74996">
        <ele>1035.96</ele>
        <time>2013-06-15T06:55:28Z</time>
      </trkpt>
      <trkpt lat="44.3369" lon="3.74997">
        <ele>1036.44</ele>
        <time>2013-06-15T06:55:29Z</time>
      </trkpt>
      <trkpt lat="44.33688" lon="3.74999">
        <ele>1036.92</ele>
        <time>2013-06-15T06:55:30Z</time>
      </trkpt>
      <trkpt lat="44.33686" lon="3.75001">
        <ele>1036.92</ele>
        <time>2013-06-15T06:55:31Z</time>
      </trkpt>
      <trkpt lat="44.33684" lon="3.75002">
        <ele>1036.92</ele>
        <time>2013-06-15T06:55:32Z</time>
      </trkpt>
      <trkpt lat="44.33682" lon="3.75003">
        <ele>1037.88</ele>
        <time>2013-06-15T06:55:33Z</time>
      </trkpt>
      <trkpt lat="44.33681" lon="3.75004">
        <ele>1037.4</ele>
        <time>2013-06-15T06:55:34Z</time>
      </trkpt>
      <trkpt lat="44.33679" lon="3.75004">
        <ele>1037.88</ele>
        <time>2013-06-15T06:55:35Z</time>
      </trkpt>
      <trkpt lat="44.33662" lon="3.75014">
        <ele>1041.25</ele>
        <time>2013-06-15T06:55:46Z</time>
      </trkpt>
      <trkpt lat="44.33648" lon="3.75024">
        <ele>1043.17</ele>
        <time>2013-06-15T06:55:55Z</time>
      </trkpt>
      <trkpt lat="44.33638" lon="3.7503">
        <ele>1045.09</ele>
        <time>2013-06-15T06:56:02Z</time>
      </trkpt>
      <trkpt lat="44.33636" lon="3.75032">
        <ele>1045.57</ele>
        <time>2013-06-15T06:56:03Z</time>
      </trkpt>
      <trkpt lat="44.33635" lon="3.75034">
        <ele>1045.57</ele>
        <time>2013-06-15T06:56:04Z</time>
      </trkpt>
      <trkpt lat="44.33633" lon="3.75035">
        <ele>1046.05</ele>
        <time>2013-06-15T06:56:05Z</time>
      </trkpt>
      <trkpt lat="44.33631" lon="3.75036">
        <ele>1046.05</ele>
        <time>2013-06-15T06:56:06Z</time>
      </trkpt>
      <trkpt lat="44.3363" lon="3.75038">
        <ele>1046.05</ele>
        <time>2013-06-15T06:56:07Z</time>
      </trkpt>
      <trkpt lat="44.33613" lon="3.75051">
        <ele>1049.42</ele>
        <time>2013-06-15T06:56:19Z</time>
      </trkpt>
      <trkpt lat="44.336" lon="3.75058">
        <ele>1051.34</ele>
        <time>2013-06-15T06:56:28Z</time>
      </trkpt>
      <trkpt lat="44.33599" lon="3.7506">
        <ele>1051.82</ele>
        <time>2013-06-15T06:56:29Z</time>
      </trkpt>
      <trkpt lat="44.33585" lon="3.75069">
        <ele>1053.74</ele>
        <time>2013-06-15T06:56:38Z</time>
      </trkpt>
      <trkpt lat="44.33568" lon="3.75082">
        <ele>1056.15</ele>
        <time>2013-06-15T06:56:50Z</time>
      </trkpt>
      <trkpt lat="44.33551" lon="3.75093">
        <ele>1058.07</ele>
        <time>2013-06-15T06:57:01Z</time>
      </trkpt>
      <trkpt lat="44.33549" lon="3.75095">
        <ele>1059.03</ele>
        <time>2013-06-15T06:57:03Z</time>
      </trkpt>
      <trkpt lat="44.33548" lon="3.75097">
        <ele>1059.51</ele>
        <time>2013-06-15T06:57:04Z</time>
      </trkpt>
      <trkpt lat="44.33547" lon="3.75098">
        <ele>1059.99</ele>
        <time>2013-06-15T06:57:05Z</time>
      </trkpt>
      <trkpt lat="44.33545" lon="3.75099">
        <ele>1059.99</ele>
        <time>2013-06-15T06:57:06Z</time>
      </trkpt>
      <trkpt lat="44.33544" lon="3.751">
        <ele>1060.47</ele>
        <time>2013-06-15T06:57:07Z</time>
      </trkpt>
      <trkpt lat="44.33543" lon="3.75101">
        <ele>1059.99</ele>
        <time>2013-06-15T06:57:08Z</time>
      </trkpt>
      <trkpt lat="44.33541" lon="3.75102">
        <ele>1060.47</ele>
        <time>2013-06-15T06:57:09Z</time>
      </trkpt>
      <trkpt lat="44.3354" lon="3.75103">
        <ele>1060.47</ele>
        <time>2013-06-15T06:57:10Z</time>
      </trkpt>
      <trkpt lat="44.33521" lon="3.75115">
        <ele>1062.87</ele>
        <time>2013-06-15T06:57:20Z</time>
      </trkpt>
      <trkpt lat="44.33505" lon="3.75125">
        <ele>1065.28</ele>
        <time>2013-06-15T06:57:29Z</time>
      </trkpt>
      <trkpt lat="44.33487" lon="3.75137">
        <ele>1068.16</ele>
        <time>2013-06-15T06:57:40Z</time>
      </trkpt>
      <trkpt lat="44.3347" lon="3.75148">
        <ele>1070.57</ele>
        <time>2013-06-15T06:57:50Z</time>
      </trkpt>
      <trkpt lat="44.33469" lon="3.7515">
        <ele>1071.05</ele>
        <time>2013-06-15T06:57:51Z</time>
      </trkpt>
      <trkpt lat="44.33467" lon="3.75151">
        <ele>1071.05</ele>
        <time>2013-06-15T06:57:52Z</time>
      </trkpt>
      <trkpt lat="44.33464" lon="3.75154">
        <ele>1071.53</ele>
        <time>2013-06-15T06:57:54Z</time>
      </trkpt>
      <trkpt lat="44.33463" lon="3.75156">
        <ele>1072.01</ele>
        <time>2013-06-15T06:57:55Z</time>
      </trkpt>
      <trkpt lat="44.33462" lon="3.75156">
        <ele>1072.97</ele>
        <time>2013-06-15T06:57:56Z</time>
      </trkpt>
      <trkpt lat="44.3346" lon="3.75157">
        <ele>1071.53</ele>
        <time>2013-06-15T06:57:57Z</time>
      </trkpt>
      <trkpt lat="44.33458" lon="3.75159">
        <ele>1074.41</ele>
        <time>2013-06-15T06:57:58Z</time>
      </trkpt>
      <trkpt lat="44.33436" lon="3.75174">
        <ele>1074.89</ele>
        <time>2013-06-15T06:58:10Z</time>
      </trkpt>
      <trkpt lat="44.33422" lon="3.75192">
        <ele>1076.81</ele>
        <time>2013-06-15T06:58:20Z</time>
      </trkpt>
      <trkpt lat="44.33409" lon="3.75207">
        <ele>1078.26</ele>
        <time>2013-06-15T06:58:29Z</time>
      </trkpt>
      <trkpt lat="44.33394" lon="3.75222">
        <ele>1080.18</ele>
        <time>2013-06-15T06:58:38Z</time>
      </trkpt>
      <trkpt lat="44.33372" lon="3.75244">
        <ele>1082.58</ele>
        <time>2013-06-15T06:58:50Z</time>
      </trkpt>
      <trkpt lat="44.33356" lon="3.75265">
        <ele>1084.02</ele>
        <time>2013-06-15T06:59:00Z</time>
      </trkpt>
      <trkpt lat="44.33336" lon="3.75295">
        <ele>1084.5</ele>
        <time>2013-06-15T06:59:10Z</time>
      </trkpt>
      <trkpt lat="44.33304" lon="3.75327">
        <ele>1085.47</ele>
        <time>2013-06-15T06:59:23Z</time>
      </trkpt>
      <trkpt lat="44.33287" lon="3.75337">
        <ele>1085.95</ele>
        <time>2013-06-15T06:59:29Z</time>
      </trkpt>
      <trkpt lat="44.33285" lon="3.75338">
        <ele>1085.95</ele>
        <time>2013-06-15T06:59:30Z</time>
      </trkpt>
      <trkpt lat="44.33282" lon="3.75339">
        <ele>1085.95</ele>
        <time>2013-06-15T06:59:31Z</time>
      </trkpt>
      <trkpt lat="44.33279" lon="3.7534">
        <ele>1086.43</ele>
        <time>2013-06-15T06:59:32Z</time>
      </trkpt>
      <trkpt lat="44.33276" lon="3.75341">
        <ele>1086.43</ele>
        <time>2013-06-15T06:59:33Z</time>
      </trkpt>
      <trkpt lat="44.33247" lon="3.75349">
        <ele>1087.39</ele>
        <time>2013-06-15T06:59:42Z</time>
      </trkpt>
      <trkpt lat="44.33215" lon="3.7536">
        <ele>1090.27</ele>
        <time>2013-06-15T06:59:53Z</time>
      </trkpt>
      <trkpt lat="44.3319" lon="3.75373">
        <ele>1090.75</ele>
        <time>2013-06-15T07:00:02Z</time>
      </trkpt>
      <trkpt lat="44.33165" lon="3.7538">
        <ele>1094.12</ele>
        <time>2013-06-15T07:00:13Z</time>
      </trkpt>
      <trkpt lat="44.33148" lon="3.75396">
        <ele>1095.56</ele>
        <time>2013-06-15T07:00:24Z</time>
      </trkpt>
      <trkpt lat="44.33129" lon="3.75411">
        <ele>1097</ele>
        <time>2013-06-15T07:00:35Z</time>
      </trkpt>
      <trkpt lat="44.33115" lon="3.75422">
        <ele>1099.89</ele>
        <time>2013-06-15T07:00:44Z</time>
      </trkpt>
      <trkpt lat="44.33098" lon="3.75433">
        <ele>1103.25</ele>
        <time>2013-06-15T07:00:56Z</time>
      </trkpt>
      <trkpt lat="44.33085" lon="3.75436">
        <ele>1104.21</ele>
        <time>2013-06-15T07:01:05Z</time>
      </trkpt>
      <trkpt lat="44.33081" lon="3.75434">
        <ele>1105.65</ele>
        <time>2013-06-15T07:01:08Z</time>
      </trkpt>
      <trkpt lat="44.33067" lon="3.75432">
        <ele>1107.1</ele>
        <time>2013-06-15T07:01:19Z</time>
      </trkpt>
      <trkpt lat="44.33066" lon="3.75432">
        <ele>1107.58</ele>
        <time>2013-06-15T07:01:20Z</time>
      </trkpt>
      <trkpt lat="44.33064" lon="3.75432">
        <ele>1108.06</ele>
        <time>2013-06-15T07:01:21Z</time>
      </trkpt>
      <trkpt lat="44.33051" lon="3.7543">
        <ele>1110.46</ele>
        <time>2013-06-15T07:01:31Z</time>
      </trkpt>
      <trkpt lat="44.33039" lon="3.7543">
        <ele>1112.38</ele>
        <time>2013-06-15T07:01:41Z</time>
      </trkpt>
      <trkpt lat="44.33028" lon="3.75428">
        <ele>1114.31</ele>
        <time>2013-06-15T07:01:50Z</time>
      </trkpt>
      <trkpt lat="44.33018" lon="3.75425">
        <ele>1117.19</ele>
        <time>2013-06-15T07:02:00Z</time>
      </trkpt>
      <trkpt lat="44.33011" lon="3.75423">
        <ele>1118.15</ele>
        <time>2013-06-15T07:02:05Z</time>
      </trkpt>
      <trkpt lat="44.3301" lon="3.75423">
        <ele>1118.15</ele>
        <time>2013-06-15T07:02:06Z</time>
      </trkpt>
      <trkpt lat="44.33009" lon="3.75422">
        <ele>1118.15</ele>
        <time>2013-06-15T07:02:07Z</time>
      </trkpt>
      <trkpt lat="44.33008" lon="3.75421">
        <ele>1118.63</ele>
        <time>2013-06-15T07:02:08Z</time>
      </trkpt>
      <trkpt lat="44.33006" lon="3.75421">
        <ele>1119.11</ele>
        <time>2013-06-15T07:02:09Z</time>
      </trkpt>
      <trkpt lat="44.33005" lon="3.7542">
        <ele>1119.59</ele>
        <time>2013-06-15T07:02:10Z</time>
      </trkpt>
      <trkpt lat="44.32995" lon="3.75413">
        <ele>1121.03</ele>
        <time>2013-06-15T07:02:19Z</time>
      </trkpt>
      <trkpt lat="44.32993" lon="3.75411">
        <ele>1121.52</ele>
        <time>2013-06-15T07:02:21Z</time>
      </trkpt>
      <trkpt lat="44.32979" lon="3.75402">
        <ele>1124.4</ele>
        <time>2013-06-15T07:02:33Z</time>
      </trkpt>
      <trkpt lat="44.32975" lon="3.75401">
        <ele>1125.84</ele>
        <time>2013-06-15T07:02:36Z</time>
      </trkpt>
      <trkpt lat="44.32964" lon="3.75395">
        <ele>1128.24</ele>
        <time>2013-06-15T07:02:46Z</time>
      </trkpt>
      <trkpt lat="44.32953" lon="3.75383">
        <ele>1130.65</ele>
        <time>2013-06-15T07:02:57Z</time>
      </trkpt>
      <trkpt lat="44.32946" lon="3.75369">
        <ele>1134.01</ele>
        <time>2013-06-15T07:03:07Z</time>
      </trkpt>
      <trkpt lat="44.32939" lon="3.75353">
        <ele>1135.45</ele>
        <time>2013-06-15T07:03:16Z</time>
      </trkpt>
      <trkpt lat="44.32933" lon="3.75335">
        <ele>1136.9</ele>
        <time>2013-06-15T07:03:25Z</time>
      </trkpt>
      <trkpt lat="44.32928" lon="3.75318">
        <ele>1137.86</ele>
        <time>2013-06-15T07:03:34Z</time>
      </trkpt>
      <trkpt lat="44.32926" lon="3.75313">
        <ele>1137.86</ele>
        <time>2013-06-15T07:03:36Z</time>
      </trkpt>
      <trkpt lat="44.32925" lon="3.7531">
        <ele>1137.86</ele>
        <time>2013-06-15T07:03:37Z</time>
      </trkpt>
      <trkpt lat="44.32923" lon="3.75307">
        <ele>1137.86</ele>
        <time>2013-06-15T07:03:38Z</time>
      </trkpt>
      <trkpt lat="44.32921" lon="3.75305">
        <ele>1137.86</ele>
        <time>2013-06-15T07:03:39Z</time>
      </trkpt>
      <trkpt lat="44.3292" lon="3.75303">
        <ele>1138.34</ele>
        <time>2013-06-15T07:03:40Z</time>
      </trkpt>
      <trkpt lat="44.32919" lon="3.75301">
        <ele>1138.82</ele>
        <time>2013-06-15T07:03:41Z</time>
      </trkpt>
      <trkpt lat="44.32918" lon="3.75299">
        <ele>1138.34</ele>
        <time>2013-06-15T07:03:42Z</time>
      </trkpt>
      <trkpt lat="44.32916" lon="3.75297">
        <ele>1138.82</ele>
        <time>2013-06-15T07:03:43Z</time>
      </trkpt>
      <trkpt lat="44.32915" lon="3.75296">
        <ele>1139.3</ele>
        <time>2013-06-15T07:03:44Z</time>
      </trkpt>
      <trkpt lat="44.32914" lon="3.75294">
        <ele>1139.3</ele>
        <time>2013-06-15T07:03:45Z</time>
      </trkpt>
      <trkpt lat="44.329" lon="3.75274">
        <ele>1141.22</ele>
        <time>2013-06-15T07:03:56Z</time>
      </trkpt>
      <trkpt lat="44.32892" lon="3.75264">
        <ele>1144.59</ele>
        <time>2013-06-15T07:04:01Z</time>
      </trkpt>
      <trkpt lat="44.32878" lon="3.75254">
        <ele>1141.22</ele>
        <time>2013-06-15T07:04:07Z</time>
      </trkpt>
      <trkpt lat="44.32846" lon="3.75235">
        <ele>1140.74</ele>
        <time>2013-06-15T07:04:16Z</time>
      </trkpt>
      <trkpt lat="44.32817" lon="3.75228">
        <ele>1141.22</ele>
        <time>2013-06-15T07:04:24Z</time>
      </trkpt>
      <trkpt lat="44.32792" lon="3.75227">
        <ele>1141.22</ele>
        <time>2013-06-15T07:04:32Z</time>
      </trkpt>
      <trkpt lat="44.32762" lon="3.75221">
        <ele>1142.18</ele>
        <time>2013-06-15T07:04:40Z</time>
      </trkpt>
      <trkpt lat="44.3275" lon="3.75214">
        <ele>1142.66</ele>
        <time>2013-06-15T07:04:45Z</time>
      </trkpt>
      <trkpt lat="44.32726" lon="3.75195">
        <ele>1143.63</ele>
        <time>2013-06-15T07:04:53Z</time>
      </trkpt>
      <trkpt lat="44.32714" lon="3.7517">
        <ele>1144.59</ele>
        <time>2013-06-15T07:05:00Z</time>
      </trkpt>
      <trkpt lat="44.32701" lon="3.75139">
        <ele>1146.51</ele>
        <time>2013-06-15T07:05:09Z</time>
      </trkpt>
      <trkpt lat="44.32688" lon="3.75112">
        <ele>1147.47</ele>
        <time>2013-06-15T07:05:18Z</time>
      </trkpt>
      <trkpt lat="44.32676" lon="3.75089">
        <ele>1149.39</ele>
        <time>2013-06-15T07:05:27Z</time>
      </trkpt>
      <trkpt lat="44.3266" lon="3.75066">
        <ele>1151.8</ele>
        <time>2013-06-15T07:05:38Z</time>
      </trkpt>
      <trkpt lat="44.32642" lon="3.75049">
        <ele>1152.76</ele>
        <time>2013-06-15T07:05:47Z</time>
      </trkpt>
      <trkpt lat="44.32622" lon="3.75027">
        <ele>1155.16</ele>
        <time>2013-06-15T07:05:57Z</time>
      </trkpt>
      <trkpt lat="44.32608" lon="3.75011">
        <ele>1156.12</ele>
        <time>2013-06-15T07:06:05Z</time>
      </trkpt>
      <trkpt lat="44.32597" lon="3.75">
        <ele>1157.56</ele>
        <time>2013-06-15T07:06:11Z</time>
      </trkpt>
      <trkpt lat="44.32595" lon="3.74998">
        <ele>1157.56</ele>
        <time>2013-06-15T07:06:12Z</time>
      </trkpt>
      <trkpt lat="44.32581" lon="3.7498">
        <ele>1159.49</ele>
        <time>2013-06-15T07:06:22Z</time>
      </trkpt>
      <trkpt lat="44.3258" lon="3.74978">
        <ele>1159.01</ele>
        <time>2013-06-15T07:06:23Z</time>
      </trkpt>
      <trkpt lat="44.3257" lon="3.74964">
        <ele>1160.93</ele>
        <time>2013-06-15T07:06:30Z</time>
      </trkpt>
      <trkpt lat="44.32569" lon="3.74962">
        <ele>1160.93</ele>
        <time>2013-06-15T07:06:31Z</time>
      </trkpt>
      <trkpt lat="44.32553" lon="3.74943">
        <ele>1162.37</ele>
        <time>2013-06-15T07:06:41Z</time>
      </trkpt>
      <trkpt lat="44.32544" lon="3.7493">
        <ele>1164.29</ele>
        <time>2013-06-15T07:06:48Z</time>
      </trkpt>
      <trkpt lat="44.32543" lon="3.74929">
        <ele>1164.29</ele>
        <time>2013-06-15T07:06:49Z</time>
      </trkpt>
      <trkpt lat="44.32541" lon="3.74927">
        <ele>1164.29</ele>
        <time>2013-06-15T07:06:50Z</time>
      </trkpt>
      <trkpt lat="44.32539" lon="3.74925">
        <ele>1164.77</ele>
        <time>2013-06-15T07:06:51Z</time>
      </trkpt>
      <trkpt lat="44.32537" lon="3.74923">
        <ele>1165.26</ele>
        <time>2013-06-15T07:06:52Z</time>
      </trkpt>
      <trkpt lat="44.32536" lon="3.74922">
        <ele>1165.26</ele>
        <time>2013-06-15T07:06:53Z</time>
      </trkpt>
      <trkpt lat="44.32534" lon="3.7492">
        <ele>1164.77</ele>
        <time>2013-06-15T07:06:54Z</time>
      </trkpt>
      <trkpt lat="44.32533" lon="3.74918">
        <ele>1165.26</ele>
        <time>2013-06-15T07:06:55Z</time>
      </trkpt>
      <trkpt lat="44.32532" lon="3.74916">
        <ele>1165.74</ele>
        <time>2013-06-15T07:06:56Z</time>
      </trkpt>
      <trkpt lat="44.3253" lon="3.74915">
        <ele>1166.22</ele>
        <time>2013-06-15T07:06:57Z</time>
      </trkpt>
      <trkpt lat="44.32515" lon="3.74901">
        <ele>1167.18</ele>
        <time>2013-06-15T07:07:06Z</time>
      </trkpt>
      <trkpt lat="44.32501" lon="3.74887">
        <ele>1169.1</ele>
        <time>2013-06-15T07:07:15Z</time>
      </trkpt>
      <trkpt lat="44.32494" lon="3.74879">
        <ele>1170.06</ele>
        <time>2013-06-15T07:07:20Z</time>
      </trkpt>
      <trkpt lat="44.32492" lon="3.74877">
        <ele>1170.06</ele>
        <time>2013-06-15T07:07:21Z</time>
      </trkpt>
      <trkpt lat="44.32491" lon="3.74876">
        <ele>1170.54</ele>
        <time>2013-06-15T07:07:22Z</time>
      </trkpt>
      <trkpt lat="44.3248" lon="3.74865">
        <ele>1172.47</ele>
        <time>2013-06-15T07:07:29Z</time>
      </trkpt>
      <trkpt lat="44.32479" lon="3.74864">
        <ele>1172.47</ele>
        <time>2013-06-15T07:07:30Z</time>
      </trkpt>
      <trkpt lat="44.32477" lon="3.74862">
        <ele>1172.47</ele>
        <time>2013-06-15T07:07:31Z</time>
      </trkpt>
      <trkpt lat="44.32476" lon="3.74861">
        <ele>1172.95</ele>
        <time>2013-06-15T07:07:32Z</time>
      </trkpt>
      <trkpt lat="44.32475" lon="3.7486">
        <ele>1172.95</ele>
        <time>2013-06-15T07:07:33Z</time>
      </trkpt>
      <trkpt lat="44.32459" lon="3.74845">
        <ele>1175.35</ele>
        <time>2013-06-15T07:07:43Z</time>
      </trkpt>
      <trkpt lat="44.32458" lon="3.74843">
        <ele>1175.35</ele>
        <time>2013-06-15T07:07:44Z</time>
      </trkpt>
      <trkpt lat="44.32457" lon="3.74842">
        <ele>1175.35</ele>
        <time>2013-06-15T07:07:45Z</time>
      </trkpt>
      <trkpt lat="44.32445" lon="3.7483">
        <ele>1176.31</ele>
        <time>2013-06-15T07:07:53Z</time>
      </trkpt>
      <trkpt lat="44.32431" lon="3.74812">
        <ele>1178.71</ele>
        <time>2013-06-15T07:08:04Z</time>
      </trkpt>
      <trkpt lat="44.32419" lon="3.74801">
        <ele>1181.12</ele>
        <time>2013-06-15T07:08:13Z</time>
      </trkpt>
      <trkpt lat="44.32417" lon="3.74799">
        <ele>1181.6</ele>
        <time>2013-06-15T07:08:14Z</time>
      </trkpt>
      <trkpt lat="44.32416" lon="3.74798">
        <ele>1181.6</ele>
        <time>2013-06-15T07:08:15Z</time>
      </trkpt>
      <trkpt lat="44.32415" lon="3.74796">
        <ele>1181.6</ele>
        <time>2013-06-15T07:08:16Z</time>
      </trkpt>
      <trkpt lat="44.32413" lon="3.74795">
        <ele>1181.6</ele>
        <time>2013-06-15T07:08:17Z</time>
      </trkpt>
      <trkpt lat="44.32412" lon="3.74794">
        <ele>1181.6</ele>
        <time>2013-06-15T07:08:18Z</time>
      </trkpt>
      <trkpt lat="44.32411" lon="3.74793">
        <ele>1182.56</ele>
        <time>2013-06-15T07:08:19Z</time>
      </trkpt>
      <trkpt lat="44.32396" lon="3.7478">
        <ele>1184.96</ele>
        <time>2013-06-15T07:08:30Z</time>
      </trkpt>
      <trkpt lat="44.32387" lon="3.74769">
        <ele>1186.88</ele>
        <time>2013-06-15T07:08:39Z</time>
      </trkpt>
      <trkpt lat="44.32386" lon="3.74768">
        <ele>1186.88</ele>
        <time>2013-06-15T07:08:40Z</time>
      </trkpt>
      <trkpt lat="44.32376" lon="3.74761">
        <ele>1188.81</ele>
        <time>2013-06-15T07:08:48Z</time>
      </trkpt>
      <trkpt lat="44.32364" lon="3.74752">
        <ele>1190.25</ele>
        <time>2013-06-15T07:08:57Z</time>
      </trkpt>
      <trkpt lat="44.32354" lon="3.74746">
        <ele>1192.17</ele>
        <time>2013-06-15T07:09:03Z</time>
      </trkpt>
      <trkpt lat="44.32353" lon="3.74744">
        <ele>1192.65</ele>
        <time>2013-06-15T07:09:04Z</time>
      </trkpt>
      <trkpt lat="44.32339" lon="3.74735">
        <ele>1194.09</ele>
        <time>2013-06-15T07:09:14Z</time>
      </trkpt>
      <trkpt lat="44.3233" lon="3.7473">
        <ele>1195.54</ele>
        <time>2013-06-15T07:09:21Z</time>
      </trkpt>
      <trkpt lat="44.32325" lon="3.74729">
        <ele>1196.5</ele>
        <time>2013-06-15T07:09:24Z</time>
      </trkpt>
      <trkpt lat="44.32323" lon="3.74728">
        <ele>1196.98</ele>
        <time>2013-06-15T07:09:25Z</time>
      </trkpt>
      <trkpt lat="44.32321" lon="3.74727">
        <ele>1196.98</ele>
        <time>2013-06-15T07:09:26Z</time>
      </trkpt>
      <trkpt lat="44.32317" lon="3.74727">
        <ele>1191.21</ele>
        <time>2013-06-15T07:09:28Z</time>
      </trkpt>
      <trkpt lat="44.32316" lon="3.74727">
        <ele>1197.94</ele>
        <time>2013-06-15T07:09:29Z</time>
      </trkpt>
      <trkpt lat="44.323" lon="3.74726">
        <ele>1199.38</ele>
        <time>2013-06-15T07:09:39Z</time>
      </trkpt>
      <trkpt lat="44.3229" lon="3.74726">
        <ele>1200.82</ele>
        <time>2013-06-15T07:09:48Z</time>
      </trkpt>
      <trkpt lat="44.32287" lon="3.74727">
        <ele>1200.82</ele>
        <time>2013-06-15T07:10:12Z</time>
      </trkpt>
      <trkpt lat="44.32287" lon="3.74725">
        <ele>1200.82</ele>
        <time>2013-06-15T07:10:36Z</time>
      </trkpt>
      <trkpt lat="44.32286" lon="3.74725">
        <ele>1200.82</ele>
        <time>2013-06-15T07:10:57Z</time>
      </trkpt>
      <trkpt lat="44.32286" lon="3.74724">
        <ele>1200.82</ele>
        <time>2013-06-15T07:11:27Z</time>
      </trkpt>
      <trkpt lat="44.32287" lon="3.74726">
        <ele>1200.82</ele>
        <time>2013-06-15T07:11:47Z</time>
      </trkpt>
      <trkpt lat="44.32287" lon="3.74726">
        <ele>1200.82</ele>
        <time>2013-06-15T07:12:11Z</time>
      </trkpt>
      <trkpt lat="44.32287" lon="3.74726">
        <ele>1200.82</ele>
        <time>2013-06-15T07:12:28Z</time>
      </trkpt>
      <trkpt lat="44.32287" lon="3.74726">
        <ele>1201.3</ele>
        <time>2013-06-15T07:12:34Z</time>
      </trkpt>
      <trkpt lat="44.32284" lon="3.74727">
        <ele>1201.79</ele>
        <time>2013-06-15T07:12:37Z</time>
      </trkpt>
      <trkpt lat="44.32282" lon="3.74729">
        <ele>1202.27</ele>
        <time>2013-06-15T07:12:45Z</time>
      </trkpt>
      <trkpt lat="44.32269" lon="3.7473">
        <ele>1204.19</ele>
        <time>2013-06-15T07:12:54Z</time>
      </trkpt>
      <trkpt lat="44.32249" lon="3.74736">
        <ele>1206.59</ele>
        <time>2013-06-15T07:13:04Z</time>
      </trkpt>
      <trkpt lat="44.32247" lon="3.74737">
        <ele>1206.59</ele>
        <time>2013-06-15T07:13:05Z</time>
      </trkpt>
      <trkpt lat="44.32224" lon="3.74747">
        <ele>1209</ele>
        <time>2013-06-15T07:13:17Z</time>
      </trkpt>
      <trkpt lat="44.32209" lon="3.74756">
        <ele>1210.92</ele>
        <time>2013-06-15T07:13:26Z</time>
      </trkpt>
      <trkpt lat="44.32197" lon="3.74764">
        <ele>1211.88</ele>
        <time>2013-06-15T07:13:33Z</time>
      </trkpt>
      <trkpt lat="44.32196" lon="3.74766">
        <ele>1212.36</ele>
        <time>2013-06-15T07:13:34Z</time>
      </trkpt>
      <trkpt lat="44.32195" lon="3.74768">
        <ele>1212.84</ele>
        <time>2013-06-15T07:13:35Z</time>
      </trkpt>
      <trkpt lat="44.32193" lon="3.74769">
        <ele>1213.32</ele>
        <time>2013-06-15T07:13:36Z</time>
      </trkpt>
      <trkpt lat="44.32192" lon="3.74771">
        <ele>1213.32</ele>
        <time>2013-06-15T07:13:37Z</time>
      </trkpt>
      <trkpt lat="44.3219" lon="3.74772">
        <ele>1213.8</ele>
        <time>2013-06-15T07:13:38Z</time>
      </trkpt>
      <trkpt lat="44.32176" lon="3.74782">
        <ele>1215.72</ele>
        <time>2013-06-15T07:13:46Z</time>
      </trkpt>
      <trkpt lat="44.32171" lon="3.74788">
        <ele>1216.69</ele>
        <time>2013-06-15T07:13:54Z</time>
      </trkpt>
      <trkpt lat="44.32169" lon="3.74788">
        <ele>1216.69</ele>
        <time>2013-06-15T07:13:59Z</time>
      </trkpt>
      <trkpt lat="44.32166" lon="3.74789">
        <ele>1216.69</ele>
        <time>2013-06-15T07:14:00Z</time>
      </trkpt>
      <trkpt lat="44.32164" lon="3.7479">
        <ele>1216.21</ele>
        <time>2013-06-15T07:14:01Z</time>
      </trkpt>
      <trkpt lat="44.32163" lon="3.74791">
        <ele>1216.21</ele>
        <time>2013-06-15T07:14:02Z</time>
      </trkpt>
      <trkpt lat="44.32162" lon="3.74792">
        <ele>1216.69</ele>
        <time>2013-06-15T07:14:03Z</time>
      </trkpt>
      <trkpt lat="44.3216" lon="3.74794">
        <ele>1216.69</ele>
        <time>2013-06-15T07:14:04Z</time>
      </trkpt>
      <trkpt lat="44.3216" lon="3.74796">
        <ele>1216.69</ele>
        <time>2013-06-15T07:14:05Z</time>
      </trkpt>
      <trkpt lat="44.32161" lon="3.74798">
        <ele>1217.17</ele>
        <time>2013-06-15T07:14:06Z</time>
      </trkpt>
      <trkpt lat="44.32162" lon="3.748">
        <ele>1217.17</ele>
        <time>2013-06-15T07:14:07Z</time>
      </trkpt>
      <trkpt lat="44.32163" lon="3.74801">
        <ele>1217.65</ele>
        <time>2013-06-15T07:14:08Z</time>
      </trkpt>
      <trkpt lat="44.32164" lon="3.74801">
        <ele>1217.65</ele>
        <time>2013-06-15T07:14:09Z</time>
      </trkpt>
      <trkpt lat="44.32165" lon="3.74801">
        <ele>1218.13</ele>
        <time>2013-06-15T07:14:10Z</time>
      </trkpt>
      <trkpt lat="44.32167" lon="3.748">
        <ele>1214.28</ele>
        <time>2013-06-15T07:14:11Z</time>
      </trkpt>
      <trkpt lat="44.32168" lon="3.748">
        <ele>1218.61</ele>
        <time>2013-06-15T07:14:12Z</time>
      </trkpt>
      <trkpt lat="44.32172" lon="3.74799">
        <ele>1218.61</ele>
        <time>2013-06-15T07:14:16Z</time>
      </trkpt>
      <trkpt lat="44.32174" lon="3.74798">
        <ele>1218.61</ele>
        <time>2013-06-15T07:14:17Z</time>
      </trkpt>
      <trkpt lat="44.32186" lon="3.74793">
        <ele>1219.57</ele>
        <time>2013-06-15T07:14:25Z</time>
      </trkpt>
      <trkpt lat="44.32209" lon="3.74789">
        <ele>1220.53</ele>
        <time>2013-06-15T07:14:34Z</time>
      </trkpt>
      <trkpt lat="44.32217" lon="3.74789">
        <ele>1220.53</ele>
        <time>2013-06-15T07:14:38Z</time>
      </trkpt>
      <trkpt lat="44.32219" lon="3.7479">
        <ele>1220.53</ele>
        <time>2013-06-15T07:14:39Z</time>
      </trkpt>
      <trkpt lat="44.32222" lon="3.74789">
        <ele>1221.01</ele>
        <time>2013-06-15T07:14:40Z</time>
      </trkpt>
      <trkpt lat="44.3224" lon="3.74794">
        <ele>1222.93</ele>
        <time>2013-06-15T07:14:48Z</time>
      </trkpt>
      <trkpt lat="44.32257" lon="3.748">
        <ele>1223.9</ele>
        <time>2013-06-15T07:14:56Z</time>
      </trkpt>
      <trkpt lat="44.32283" lon="3.74808">
        <ele>1225.34</ele>
        <time>2013-06-15T07:15:05Z</time>
      </trkpt>
      <trkpt lat="44.32296" lon="3.74816">
        <ele>1225.82</ele>
        <time>2013-06-15T07:15:10Z</time>
      </trkpt>
      <trkpt lat="44.32306" lon="3.74825">
        <ele>1227.74</ele>
        <time>2013-06-15T07:15:14Z</time>
      </trkpt>
      <trkpt lat="44.32308" lon="3.74828">
        <ele>1226.78</ele>
        <time>2013-06-15T07:15:15Z</time>
      </trkpt>
      <trkpt lat="44.3231" lon="3.7483">
        <ele>1227.26</ele>
        <time>2013-06-15T07:15:16Z</time>
      </trkpt>
      <trkpt lat="44.32312" lon="3.74833">
        <ele>1227.26</ele>
        <time>2013-06-15T07:15:17Z</time>
      </trkpt>
      <trkpt lat="44.32314" lon="3.74836">
        <ele>1227.26</ele>
        <time>2013-06-15T07:15:18Z</time>
      </trkpt>
      <trkpt lat="44.32316" lon="3.74839">
        <ele>1227.74</ele>
        <time>2013-06-15T07:15:19Z</time>
      </trkpt>
      <trkpt lat="44.32318" lon="3.74841">
        <ele>1227.26</ele>
        <time>2013-06-15T07:15:20Z</time>
      </trkpt>
      <trkpt lat="44.3232" lon="3.74844">
        <ele>1227.74</ele>
        <time>2013-06-15T07:15:21Z</time>
      </trkpt>
      <trkpt lat="44.32323" lon="3.74846">
        <ele>1227.74</ele>
        <time>2013-06-15T07:15:22Z</time>
      </trkpt>
      <trkpt lat="44.32325" lon="3.74848">
        <ele>1228.22</ele>
        <time>2013-06-15T07:15:23Z</time>
      </trkpt>
      <trkpt lat="44.32328" lon="3.7485">
        <ele>1228.22</ele>
        <time>2013-06-15T07:15:24Z</time>
      </trkpt>
      <trkpt lat="44.32329" lon="3.74852">
        <ele>1228.7</ele>
        <time>2013-06-15T07:15:25Z</time>
      </trkpt>
      <trkpt lat="44.3233" lon="3.74855">
        <ele>1228.7</ele>
        <time>2013-06-15T07:15:26Z</time>
      </trkpt>
      <trkpt lat="44.32343" lon="3.7488">
        <ele>1230.14</ele>
        <time>2013-06-15T07:15:35Z</time>
      </trkpt>
      <trkpt lat="44.32349" lon="3.74895">
        <ele>1231.11</ele>
        <time>2013-06-15T07:15:40Z</time>
      </trkpt>
      <trkpt lat="44.3235" lon="3.74898">
        <ele>1231.11</ele>
        <time>2013-06-15T07:15:41Z</time>
      </trkpt>
      <trkpt lat="44.32351" lon="3.749">
        <ele>1231.59</ele>
        <time>2013-06-15T07:15:42Z</time>
      </trkpt>
      <trkpt lat="44.32352" lon="3.74902">
        <ele>1231.59</ele>
        <time>2013-06-15T07:15:43Z</time>
      </trkpt>
      <trkpt lat="44.32352" lon="3.74904">
        <ele>1231.59</ele>
        <time>2013-06-15T07:15:44Z</time>
      </trkpt>
      <trkpt lat="44.32353" lon="3.74907">
        <ele>1231.59</ele>
        <time>2013-06-15T07:15:45Z</time>
      </trkpt>
      <trkpt lat="44.32354" lon="3.74911">
        <ele>1232.07</ele>
        <time>2013-06-15T07:15:46Z</time>
      </trkpt>
      <trkpt lat="44.32362" lon="3.74942">
        <ele>1233.99</ele>
        <time>2013-06-15T07:15:55Z</time>
      </trkpt>
      <trkpt lat="44.32363" lon="3.74946">
        <ele>1233.99</ele>
        <time>2013-06-15T07:15:56Z</time>
      </trkpt>
      <trkpt lat="44.32363" lon="3.7495">
        <ele>1233.99</ele>
        <time>2013-06-15T07:15:57Z</time>
      </trkpt>
      <trkpt lat="44.32363" lon="3.74954">
        <ele>1233.99</ele>
        <time>2013-06-15T07:15:58Z</time>
      </trkpt>
      <trkpt lat="44.32364" lon="3.74957">
        <ele>1234.47</ele>
        <time>2013-06-15T07:15:59Z</time>
      </trkpt>
      <trkpt lat="44.32364" lon="3.74961">
        <ele>1234.47</ele>
        <time>2013-06-15T07:16:00Z</time>
      </trkpt>
      <trkpt lat="44.32364" lon="3.74964">
        <ele>1233.99</ele>
        <time>2013-06-15T07:16:01Z</time>
      </trkpt>
      <trkpt lat="44.32365" lon="3.74967">
        <ele>1234.47</ele>
        <time>2013-06-15T07:16:02Z</time>
      </trkpt>
      <trkpt lat="44.32365" lon="3.74971">
        <ele>1234.95</ele>
        <time>2013-06-15T07:16:03Z</time>
      </trkpt>
      <trkpt lat="44.32365" lon="3.74974">
        <ele>1234.95</ele>
        <time>2013-06-15T07:16:04Z</time>
      </trkpt>
      <trkpt lat="44.32369" lon="3.74998">
        <ele>1236.87</ele>
        <time>2013-06-15T07:16:11Z</time>
      </trkpt>
      <trkpt lat="44.3237" lon="3.75">
        <ele>1236.39</ele>
        <time>2013-06-15T07:16:12Z</time>
      </trkpt>
      <trkpt lat="44.32371" lon="3.75003">
        <ele>1236.87</ele>
        <time>2013-06-15T07:16:13Z</time>
      </trkpt>
      <trkpt lat="44.32376" lon="3.75034">
        <ele>1236.87</ele>
        <time>2013-06-15T07:16:22Z</time>
      </trkpt>
      <trkpt lat="44.3238" lon="3.75061">
        <ele>1238.8</ele>
        <time>2013-06-15T07:16:30Z</time>
      </trkpt>
      <trkpt lat="44.32383" lon="3.75071">
        <ele>1238.8</ele>
        <time>2013-06-15T07:16:33Z</time>
      </trkpt>
      <trkpt lat="44.32385" lon="3.75074">
        <ele>1239.76</ele>
        <time>2013-06-15T07:16:34Z</time>
      </trkpt>
      <trkpt lat="44.32387" lon="3.75084">
        <ele>1240.24</ele>
        <time>2013-06-15T07:16:37Z</time>
      </trkpt>
      <trkpt lat="44.32388" lon="3.75087">
        <ele>1239.76</ele>
        <time>2013-06-15T07:16:38Z</time>
      </trkpt>
      <trkpt lat="44.32389" lon="3.75091">
        <ele>1239.76</ele>
        <time>2013-06-15T07:16:39Z</time>
      </trkpt>
      <trkpt lat="44.3239" lon="3.75094">
        <ele>1240.24</ele>
        <time>2013-06-15T07:16:40Z</time>
      </trkpt>
      <trkpt lat="44.32391" lon="3.75096">
        <ele>1240.72</ele>
        <time>2013-06-15T07:16:41Z</time>
      </trkpt>
      <trkpt lat="44.32392" lon="3.75099">
        <ele>1240.72</ele>
        <time>2013-06-15T07:16:42Z</time>
      </trkpt>
      <trkpt lat="44.32393" lon="3.75102">
        <ele>1240.72</ele>
        <time>2013-06-15T07:16:43Z</time>
      </trkpt>
      <trkpt lat="44.32396" lon="3.75107">
        <ele>1241.2</ele>
        <time>2013-06-15T07:16:45Z</time>
      </trkpt>
      <trkpt lat="44.32396" lon="3.7511">
        <ele>1241.68</ele>
        <time>2013-06-15T07:16:46Z</time>
      </trkpt>
      <trkpt lat="44.32397" lon="3.75113">
        <ele>1241.2</ele>
        <time>2013-06-15T07:16:47Z</time>
      </trkpt>
      <trkpt lat="44.32399" lon="3.75117">
        <ele>1241.68</ele>
        <time>2013-06-15T07:16:48Z</time>
      </trkpt>
      <trkpt lat="44.324" lon="3.75121">
        <ele>1241.68</ele>
        <time>2013-06-15T07:16:49Z</time>
      </trkpt>
      <trkpt lat="44.32401" lon="3.75124">
        <ele>1242.64</ele>
        <time>2013-06-15T07:16:50Z</time>
      </trkpt>
      <trkpt lat="44.32402" lon="3.75127">
        <ele>1242.16</ele>
        <time>2013-06-15T07:16:51Z</time>
      </trkpt>
      <trkpt lat="44.32402" lon="3.75131">
        <ele>1242.16</ele>
        <time>2013-06-15T07:16:52Z</time>
      </trkpt>
      <trkpt lat="44.32402" lon="3.75134">
        <ele>1243.12</ele>
        <time>2013-06-15T07:16:53Z</time>
      </trkpt>
      <trkpt lat="44.32402" lon="3.75136">
        <ele>1243.12</ele>
        <time>2013-06-15T07:16:54Z</time>
      </trkpt>
      <trkpt lat="44.32402" lon="3.7514">
        <ele>1242.64</ele>
        <time>2013-06-15T07:16:55Z</time>
      </trkpt>
      <trkpt lat="44.32403" lon="3.75143">
        <ele>1243.12</ele>
        <time>2013-06-15T07:16:56Z</time>
      </trkpt>
      <trkpt lat="44.32404" lon="3.75147">
        <ele>1242.64</ele>
        <time>2013-06-15T07:16:57Z</time>
      </trkpt>
      <trkpt lat="44.32412" lon="3.75183">
        <ele>1244.08</ele>
        <time>2013-06-15T07:17:07Z</time>
      </trkpt>
      <trkpt lat="44.32412" lon="3.75187">
        <ele>1244.56</ele>
        <time>2013-06-15T07:17:08Z</time>
      </trkpt>
      <trkpt lat="44.32413" lon="3.7519">
        <ele>1244.56</ele>
        <time>2013-06-15T07:17:09Z</time>
      </trkpt>
      <trkpt lat="44.32414" lon="3.75193">
        <ele>1244.56</ele>
        <time>2013-06-15T07:17:10Z</time>
      </trkpt>
      <trkpt lat="44.32416" lon="3.75196">
        <ele>1244.56</ele>
        <time>2013-06-15T07:17:11Z</time>
      </trkpt>
      <trkpt lat="44.32416" lon="3.75199">
        <ele>1245.53</ele>
        <time>2013-06-15T07:17:12Z</time>
      </trkpt>
      <trkpt lat="44.32417" lon="3.75201">
        <ele>1245.04</ele>
        <time>2013-06-15T07:17:13Z</time>
      </trkpt>
      <trkpt lat="44.32417" lon="3.75204">
        <ele>1245.53</ele>
        <time>2013-06-15T07:17:14Z</time>
      </trkpt>
      <trkpt lat="44.32417" lon="3.75208">
        <ele>1245.53</ele>
        <time>2013-06-15T07:17:15Z</time>
      </trkpt>
      <trkpt lat="44.32418" lon="3.75211">
        <ele>1245.53</ele>
        <time>2013-06-15T07:17:16Z</time>
      </trkpt>
      <trkpt lat="44.32418" lon="3.75214">
        <ele>1246.01</ele>
        <time>2013-06-15T07:17:17Z</time>
      </trkpt>
      <trkpt lat="44.32418" lon="3.75217">
        <ele>1246.01</ele>
        <time>2013-06-15T07:17:18Z</time>
      </trkpt>
      <trkpt lat="44.32417" lon="3.7522">
        <ele>1246.01</ele>
        <time>2013-06-15T07:17:19Z</time>
      </trkpt>
      <trkpt lat="44.32417" lon="3.75223">
        <ele>1246.01</ele>
        <time>2013-06-15T07:17:20Z</time>
      </trkpt>
      <trkpt lat="44.32417" lon="3.75226">
        <ele>1246.97</ele>
        <time>2013-06-15T07:17:21Z</time>
      </trkpt>
      <trkpt lat="44.32418" lon="3.75231">
        <ele>1247.45</ele>
        <time>2013-06-15T07:17:23Z</time>
      </trkpt>
      <trkpt lat="44.32421" lon="3.75241">
        <ele>1247.45</ele>
        <time>2013-06-15T07:17:26Z</time>
      </trkpt>
      <trkpt lat="44.32421" lon="3.75245">
        <ele>1247.45</ele>
        <time>2013-06-15T07:17:27Z</time>
      </trkpt>
      <trkpt lat="44.32421" lon="3.75248">
        <ele>1247.45</ele>
        <time>2013-06-15T07:17:28Z</time>
      </trkpt>
      <trkpt lat="44.32422" lon="3.75251">
        <ele>1247.93</ele>
        <time>2013-06-15T07:17:29Z</time>
      </trkpt>
      <trkpt lat="44.32423" lon="3.75253">
        <ele>1248.41</ele>
        <time>2013-06-15T07:17:30Z</time>
      </trkpt>
      <trkpt lat="44.32423" lon="3.75257">
        <ele>1248.41</ele>
        <time>2013-06-15T07:17:31Z</time>
      </trkpt>
      <trkpt lat="44.32423" lon="3.7526">
        <ele>1248.41</ele>
        <time>2013-06-15T07:17:32Z</time>
      </trkpt>
      <trkpt lat="44.32423" lon="3.75264">
        <ele>1248.41</ele>
        <time>2013-06-15T07:17:33Z</time>
      </trkpt>
      <trkpt lat="44.32424" lon="3.75268">
        <ele>1248.89</ele>
        <time>2013-06-15T07:17:34Z</time>
      </trkpt>
      <trkpt lat="44.32428" lon="3.75296">
        <ele>1250.33</ele>
        <time>2013-06-15T07:17:42Z</time>
      </trkpt>
      <trkpt lat="44.32429" lon="3.75299">
        <ele>1250.33</ele>
        <time>2013-06-15T07:17:43Z</time>
      </trkpt>
      <trkpt lat="44.32429" lon="3.75301">
        <ele>1249.85</ele>
        <time>2013-06-15T07:17:44Z</time>
      </trkpt>
      <trkpt lat="44.3243" lon="3.75305">
        <ele>1250.33</ele>
        <time>2013-06-15T07:17:45Z</time>
      </trkpt>
      <trkpt lat="44.3243" lon="3.75308">
        <ele>1250.33</ele>
        <time>2013-06-15T07:17:46Z</time>
      </trkpt>
      <trkpt lat="44.32431" lon="3.75311">
        <ele>1251.29</ele>
        <time>2013-06-15T07:17:47Z</time>
      </trkpt>
      <trkpt lat="44.32431" lon="3.75314">
        <ele>1251.29</ele>
        <time>2013-06-15T07:17:48Z</time>
      </trkpt>
      <trkpt lat="44.32432" lon="3.75316">
        <ele>1251.29</ele>
        <time>2013-06-15T07:17:49Z</time>
      </trkpt>
      <trkpt lat="44.32433" lon="3.7532">
        <ele>1250.81</ele>
        <time>2013-06-15T07:17:50Z</time>
      </trkpt>
      <trkpt lat="44.32432" lon="3.75324">
        <ele>1251.29</ele>
        <time>2013-06-15T07:17:51Z</time>
      </trkpt>
      <trkpt lat="44.32433" lon="3.75328">
        <ele>1250.81</ele>
        <time>2013-06-15T07:17:52Z</time>
      </trkpt>
      <trkpt lat="44.32435" lon="3.7533">
        <ele>1251.77</ele>
        <time>2013-06-15T07:17:53Z</time>
      </trkpt>
      <trkpt lat="44.32437" lon="3.75332">
        <ele>1251.77</ele>
        <time>2013-06-15T07:17:54Z</time>
      </trkpt>
      <trkpt lat="44.32439" lon="3.75335">
        <ele>1251.77</ele>
        <time>2013-06-15T07:17:55Z</time>
      </trkpt>
      <trkpt lat="44.3244" lon="3.75337">
        <ele>1252.25</ele>
        <time>2013-06-15T07:17:56Z</time>
      </trkpt>
      <trkpt lat="44.32441" lon="3.75339">
        <ele>1252.25</ele>
        <time>2013-06-15T07:17:57Z</time>
      </trkpt>
      <trkpt lat="44.32443" lon="3.75342">
        <ele>1252.25</ele>
        <time>2013-06-15T07:17:58Z</time>
      </trkpt>
      <trkpt lat="44.32444" lon="3.75345">
        <ele>1252.74</ele>
        <time>2013-06-15T07:17:59Z</time>
      </trkpt>
      <trkpt lat="44.32446" lon="3.75347">
        <ele>1252.74</ele>
        <time>2013-06-15T07:18:00Z</time>
      </trkpt>
      <trkpt lat="44.32457" lon="3.75372">
        <ele>1254.66</ele>
        <time>2013-06-15T07:18:08Z</time>
      </trkpt>
      <trkpt lat="44.32468" lon="3.7541">
        <ele>1256.1</ele>
        <time>2013-06-15T07:18:19Z</time>
      </trkpt>
      <trkpt lat="44.32469" lon="3.75413">
        <ele>1256.1</ele>
        <time>2013-06-15T07:18:20Z</time>
      </trkpt>
      <trkpt lat="44.3247" lon="3.75416">
        <ele>1256.1</ele>
        <time>2013-06-15T07:18:21Z</time>
      </trkpt>
      <trkpt lat="44.32471" lon="3.75419">
        <ele>1256.58</ele>
        <time>2013-06-15T07:18:22Z</time>
      </trkpt>
      <trkpt lat="44.32471" lon="3.75422">
        <ele>1257.06</ele>
        <time>2013-06-15T07:18:23Z</time>
      </trkpt>
      <trkpt lat="44.32472" lon="3.75425">
        <ele>1257.54</ele>
        <time>2013-06-15T07:18:24Z</time>
      </trkpt>
      <trkpt lat="44.32473" lon="3.75428">
        <ele>1257.54</ele>
        <time>2013-06-15T07:18:25Z</time>
      </trkpt>
      <trkpt lat="44.32475" lon="3.7543">
        <ele>1257.06</ele>
        <time>2013-06-15T07:18:26Z</time>
      </trkpt>
      <trkpt lat="44.32475" lon="3.75433">
        <ele>1257.54</ele>
        <time>2013-06-15T07:18:27Z</time>
      </trkpt>
      <trkpt lat="44.32476" lon="3.75437">
        <ele>1257.54</ele>
        <time>2013-06-15T07:18:28Z</time>
      </trkpt>
      <trkpt lat="44.32476" lon="3.7544">
        <ele>1258.02</ele>
        <time>2013-06-15T07:18:29Z</time>
      </trkpt>
      <trkpt lat="44.32477" lon="3.75444">
        <ele>1258.02</ele>
        <time>2013-06-15T07:18:30Z</time>
      </trkpt>
      <trkpt lat="44.32478" lon="3.75447">
        <ele>1258.02</ele>
        <time>2013-06-15T07:18:31Z</time>
      </trkpt>
      <trkpt lat="44.32479" lon="3.75451">
        <ele>1258.02</ele>
        <time>2013-06-15T07:18:32Z</time>
      </trkpt>
      <trkpt lat="44.3248" lon="3.75454">
        <ele>1258.5</ele>
        <time>2013-06-15T07:18:33Z</time>
      </trkpt>
      <trkpt lat="44.3248" lon="3.75458">
        <ele>1258.5</ele>
        <time>2013-06-15T07:18:34Z</time>
      </trkpt>
      <trkpt lat="44.3248" lon="3.75461">
        <ele>1258.5</ele>
        <time>2013-06-15T07:18:35Z</time>
      </trkpt>
      <trkpt lat="44.3248" lon="3.75464">
        <ele>1258.98</ele>
        <time>2013-06-15T07:18:36Z</time>
      </trkpt>
      <trkpt lat="44.32485" lon="3.75493">
        <ele>1260.43</ele>
        <time>2013-06-15T07:18:45Z</time>
      </trkpt>
      <trkpt lat="44.32484" lon="3.75496">
        <ele>1260.43</ele>
        <time>2013-06-15T07:18:46Z</time>
      </trkpt>
      <trkpt lat="44.32484" lon="3.75503">
        <ele>1261.39</ele>
        <time>2013-06-15T07:18:48Z</time>
      </trkpt>
      <trkpt lat="44.32484" lon="3.75507">
        <ele>1260.91</ele>
        <time>2013-06-15T07:18:49Z</time>
      </trkpt>
      <trkpt lat="44.32484" lon="3.75511">
        <ele>1260.91</ele>
        <time>2013-06-15T07:18:50Z</time>
      </trkpt>
      <trkpt lat="44.32484" lon="3.75515">
        <ele>1261.39</ele>
        <time>2013-06-15T07:18:51Z</time>
      </trkpt>
      <trkpt lat="44.32484" lon="3.75518">
        <ele>1261.87</ele>
        <time>2013-06-15T07:18:52Z</time>
      </trkpt>
      <trkpt lat="44.32485" lon="3.75522">
        <ele>1261.87</ele>
        <time>2013-06-15T07:18:53Z</time>
      </trkpt>
      <trkpt lat="44.32485" lon="3.75526">
        <ele>1261.87</ele>
        <time>2013-06-15T07:18:54Z</time>
      </trkpt>
      <trkpt lat="44.32486" lon="3.7553">
        <ele>1261.87</ele>
        <time>2013-06-15T07:18:55Z</time>
      </trkpt>
      <trkpt lat="44.32486" lon="3.75535">
        <ele>1262.35</ele>
        <time>2013-06-15T07:18:56Z</time>
      </trkpt>
      <trkpt lat="44.32486" lon="3.75539">
        <ele>1262.35</ele>
        <time>2013-06-15T07:18:57Z</time>
      </trkpt>
      <trkpt lat="44.32484" lon="3.75575">
        <ele>1264.27</ele>
        <time>2013-06-15T07:19:07Z</time>
      </trkpt>
      <trkpt lat="44.32483" lon="3.75597">
        <ele>1265.23</ele>
        <time>2013-06-15T07:19:14Z</time>
      </trkpt>
      <trkpt lat="44.32475" lon="3.75628">
        <ele>1266.67</ele>
        <time>2013-06-15T07:19:23Z</time>
      </trkpt>
      <trkpt lat="44.32472" lon="3.75642">
        <ele>1271</ele>
        <time>2013-06-15T07:19:27Z</time>
      </trkpt>
      <trkpt lat="44.32472" lon="3.75645">
        <ele>1267.64</ele>
        <time>2013-06-15T07:19:28Z</time>
      </trkpt>
      <trkpt lat="44.32463" lon="3.75671">
        <ele>1269.08</ele>
        <time>2013-06-15T07:19:36Z</time>
      </trkpt>
      <trkpt lat="44.32451" lon="3.75702">
        <ele>1269.56</ele>
        <time>2013-06-15T07:19:45Z</time>
      </trkpt>
      <trkpt lat="44.32438" lon="3.75738">
        <ele>1272.44</ele>
        <time>2013-06-15T07:19:56Z</time>
      </trkpt>
      <trkpt lat="44.32427" lon="3.7577">
        <ele>1273.4</ele>
        <time>2013-06-15T07:20:05Z</time>
      </trkpt>
      <trkpt lat="44.32411" lon="3.75799">
        <ele>1274.85</ele>
        <time>2013-06-15T07:20:14Z</time>
      </trkpt>
      <trkpt lat="44.32391" lon="3.75821">
        <ele>1276.29</ele>
        <time>2013-06-15T07:20:24Z</time>
      </trkpt>
      <trkpt lat="44.32371" lon="3.75845">
        <ele>1277.73</ele>
        <time>2013-06-15T07:20:34Z</time>
      </trkpt>
      <trkpt lat="44.32352" lon="3.75863">
        <ele>1279.17</ele>
        <time>2013-06-15T07:20:43Z</time>
      </trkpt>
      <trkpt lat="44.32332" lon="3.75885">
        <ele>1281.09</ele>
        <time>2013-06-15T07:20:53Z</time>
      </trkpt>
      <trkpt lat="44.32317" lon="3.75905">
        <ele>1281.57</ele>
        <time>2013-06-15T07:21:02Z</time>
      </trkpt>
      <trkpt lat="44.32304" lon="3.75919">
        <ele>1282.54</ele>
        <time>2013-06-15T07:21:09Z</time>
      </trkpt>
      <trkpt lat="44.3229" lon="3.75939">
        <ele>1283.5</ele>
        <time>2013-06-15T07:21:17Z</time>
      </trkpt>
      <trkpt lat="44.32288" lon="3.75941">
        <ele>1283.98</ele>
        <time>2013-06-15T07:21:18Z</time>
      </trkpt>
      <trkpt lat="44.32286" lon="3.75943">
        <ele>1283.98</ele>
        <time>2013-06-15T07:21:19Z</time>
      </trkpt>
      <trkpt lat="44.32285" lon="3.75946">
        <ele>1283.98</ele>
        <time>2013-06-15T07:21:20Z</time>
      </trkpt>
      <trkpt lat="44.32283" lon="3.75949">
        <ele>1283.98</ele>
        <time>2013-06-15T07:21:21Z</time>
      </trkpt>
      <trkpt lat="44.32281" lon="3.75952">
        <ele>1283.98</ele>
        <time>2013-06-15T07:21:22Z</time>
      </trkpt>
      <trkpt lat="44.32265" lon="3.75978">
        <ele>1285.9</ele>
        <time>2013-06-15T07:21:32Z</time>
      </trkpt>
      <trkpt lat="44.32253" lon="3.75995">
        <ele>1295.03</ele>
        <time>2013-06-15T07:21:39Z</time>
      </trkpt>
      <trkpt lat="44.32251" lon="3.75998">
        <ele>1286.86</ele>
        <time>2013-06-15T07:21:40Z</time>
      </trkpt>
      <trkpt lat="44.32232" lon="3.76027">
        <ele>1288.78</ele>
        <time>2013-06-15T07:21:51Z</time>
      </trkpt>
      <trkpt lat="44.32215" lon="3.76042">
        <ele>1289.27</ele>
        <time>2013-06-15T07:21:59Z</time>
      </trkpt>
      <trkpt lat="44.32191" lon="3.76065">
        <ele>1291.19</ele>
        <time>2013-06-15T07:22:09Z</time>
      </trkpt>
      <trkpt lat="44.32168" lon="3.76084">
        <ele>1292.15</ele>
        <time>2013-06-15T07:22:19Z</time>
      </trkpt>
      <trkpt lat="44.32146" lon="3.76103">
        <ele>1293.59</ele>
        <time>2013-06-15T07:22:29Z</time>
      </trkpt>
      <trkpt lat="44.32121" lon="3.76121">
        <ele>1295.03</ele>
        <time>2013-06-15T07:22:40Z</time>
      </trkpt>
      <trkpt lat="44.32116" lon="3.76124">
        <ele>1295.99</ele>
        <time>2013-06-15T07:22:42Z</time>
      </trkpt>
      <trkpt lat="44.32099" lon="3.76138">
        <ele>1296.48</ele>
        <time>2013-06-15T07:22:49Z</time>
      </trkpt>
      <trkpt lat="44.32081" lon="3.7615">
        <ele>1297.92</ele>
        <time>2013-06-15T07:22:57Z</time>
      </trkpt>
      <trkpt lat="44.32079" lon="3.76153">
        <ele>1297.92</ele>
        <time>2013-06-15T07:22:58Z</time>
      </trkpt>
      <trkpt lat="44.32058" lon="3.76175">
        <ele>1299.36</ele>
        <time>2013-06-15T07:23:08Z</time>
      </trkpt>
      <trkpt lat="44.32039" lon="3.76195">
        <ele>1300.8</ele>
        <time>2013-06-15T07:23:17Z</time>
      </trkpt>
      <trkpt lat="44.32023" lon="3.76215">
        <ele>1301.76</ele>
        <time>2013-06-15T07:23:25Z</time>
      </trkpt>
      <trkpt lat="44.32006" lon="3.76246">
        <ele>1303.69</ele>
        <time>2013-06-15T07:23:36Z</time>
      </trkpt>
      <trkpt lat="44.31995" lon="3.7627">
        <ele>1305.61</ele>
        <time>2013-06-15T07:23:44Z</time>
      </trkpt>
      <trkpt lat="44.31989" lon="3.7629">
        <ele>1306.09</ele>
        <time>2013-06-15T07:23:51Z</time>
      </trkpt>
      <trkpt lat="44.3197" lon="3.76323">
        <ele>1308.01</ele>
        <time>2013-06-15T07:24:01Z</time>
      </trkpt>
      <trkpt lat="44.31969" lon="3.76328">
        <ele>1307.53</ele>
        <time>2013-06-15T07:24:03Z</time>
      </trkpt>
      <trkpt lat="44.31967" lon="3.76331">
        <ele>1308.49</ele>
        <time>2013-06-15T07:24:04Z</time>
      </trkpt>
      <trkpt lat="44.31966" lon="3.76334">
        <ele>1308.49</ele>
        <time>2013-06-15T07:24:05Z</time>
      </trkpt>
      <trkpt lat="44.31965" lon="3.76337">
        <ele>1308.01</ele>
        <time>2013-06-15T07:24:06Z</time>
      </trkpt>
      <trkpt lat="44.31963" lon="3.7634">
        <ele>1308.01</ele>
        <time>2013-06-15T07:24:07Z</time>
      </trkpt>
      <trkpt lat="44.31962" lon="3.76344">
        <ele>1308.01</ele>
        <time>2013-06-15T07:24:08Z</time>
      </trkpt>
      <trkpt lat="44.31961" lon="3.76348">
        <ele>1308.49</ele>
        <time>2013-06-15T07:24:09Z</time>
      </trkpt>
      <trkpt lat="44.31959" lon="3.76352">
        <ele>1308.49</ele>
        <time>2013-06-15T07:24:10Z</time>
      </trkpt>
      <trkpt lat="44.31957" lon="3.76356">
        <ele>1312.34</ele>
        <time>2013-06-15T07:24:11Z</time>
      </trkpt>
      <trkpt lat="44.31954" lon="3.76359">
        <ele>1309.45</ele>
        <time>2013-06-15T07:24:12Z</time>
      </trkpt>
      <trkpt lat="44.31951" lon="3.76364">
        <ele>1308.97</ele>
        <time>2013-06-15T07:24:13Z</time>
      </trkpt>
      <trkpt lat="44.31948" lon="3.76368">
        <ele>1308.97</ele>
        <time>2013-06-15T07:24:14Z</time>
      </trkpt>
      <trkpt lat="44.31946" lon="3.76372">
        <ele>1308.97</ele>
        <time>2013-06-15T07:24:15Z</time>
      </trkpt>
      <trkpt lat="44.31925" lon="3.76419">
        <ele>1307.53</ele>
        <time>2013-06-15T07:24:26Z</time>
      </trkpt>
      <trkpt lat="44.3191" lon="3.76478">
        <ele>1306.09</ele>
        <time>2013-06-15T07:24:37Z</time>
      </trkpt>
      <trkpt lat="44.31909" lon="3.76492">
        <ele>1305.61</ele>
        <time>2013-06-15T07:24:39Z</time>
      </trkpt>
      <trkpt lat="44.31909" lon="3.76555">
        <ele>1302.24</ele>
        <time>2013-06-15T07:24:47Z</time>
      </trkpt>
      <trkpt lat="44.31908" lon="3.76572">
        <ele>1302.24</ele>
        <time>2013-06-15T07:24:49Z</time>
      </trkpt>
      <trkpt lat="44.31901" lon="3.76615">
        <ele>1300.8</ele>
        <time>2013-06-15T07:24:54Z</time>
      </trkpt>
      <trkpt lat="44.31892" lon="3.76658">
        <ele>1299.36</ele>
        <time>2013-06-15T07:24:59Z</time>
      </trkpt>
      <trkpt lat="44.31878" lon="3.7671">
        <ele>1296.96</ele>
        <time>2013-06-15T07:25:05Z</time>
      </trkpt>
      <trkpt lat="44.3186" lon="3.76765">
        <ele>1295.03</ele>
        <time>2013-06-15T07:25:11Z</time>
      </trkpt>
      <trkpt lat="44.31829" lon="3.76849">
        <ele>1291.67</ele>
        <time>2013-06-15T07:25:20Z</time>
      </trkpt>
      <trkpt lat="44.31824" lon="3.76869">
        <ele>1291.19</ele>
        <time>2013-06-15T07:25:22Z</time>
      </trkpt>
      <trkpt lat="44.31812" lon="3.76929">
        <ele>1288.78</ele>
        <time>2013-06-15T07:25:28Z</time>
      </trkpt>
      <trkpt lat="44.31799" lon="3.7698">
        <ele>1286.86</ele>
        <time>2013-06-15T07:25:33Z</time>
      </trkpt>
      <trkpt lat="44.31778" lon="3.77029">
        <ele>1284.46</ele>
        <time>2013-06-15T07:25:38Z</time>
      </trkpt>
      <trkpt lat="44.31745" lon="3.77111">
        <ele>1281.57</ele>
        <time>2013-06-15T07:25:46Z</time>
      </trkpt>
      <trkpt lat="44.31737" lon="3.77132">
        <ele>1280.61</ele>
        <time>2013-06-15T07:25:48Z</time>
      </trkpt>
      <trkpt lat="44.31722" lon="3.77183">
        <ele>1269.08</ele>
        <time>2013-06-15T07:25:53Z</time>
      </trkpt>
      <trkpt lat="44.31719" lon="3.77194">
        <ele>1278.21</ele>
        <time>2013-06-15T07:25:54Z</time>
      </trkpt>
      <trkpt lat="44.31699" lon="3.77244">
        <ele>1276.29</ele>
        <time>2013-06-15T07:25:59Z</time>
      </trkpt>
      <trkpt lat="44.31677" lon="3.77267">
        <ele>1275.33</ele>
        <time>2013-06-15T07:26:03Z</time>
      </trkpt>
      <trkpt lat="44.31661" lon="3.77273">
        <ele>1275.81</ele>
        <time>2013-06-15T07:26:11Z</time>
      </trkpt>
      <trkpt lat="44.31657" lon="3.77277">
        <ele>1274.85</ele>
        <time>2013-06-15T07:26:22Z</time>
      </trkpt>
      <trkpt lat="44.31635" lon="3.77288">
        <ele>1273.4</ele>
        <time>2013-06-15T07:26:28Z</time>
      </trkpt>
      <trkpt lat="44.31598" lon="3.77317">
        <ele>1272.92</ele>
        <time>2013-06-15T07:26:37Z</time>
      </trkpt>
      <trkpt lat="44.31583" lon="3.77329">
        <ele>1272.92</ele>
        <time>2013-06-15T07:26:40Z</time>
      </trkpt>
      <trkpt lat="44.31575" lon="3.77338">
        <ele>1271.96</ele>
        <time>2013-06-15T07:26:42Z</time>
      </trkpt>
      <trkpt lat="44.31567" lon="3.77349">
        <ele>1271.48</ele>
        <time>2013-06-15T07:26:44Z</time>
      </trkpt>
      <trkpt lat="44.31558" lon="3.77367">
        <ele>1271</ele>
        <time>2013-06-15T07:26:47Z</time>
      </trkpt>
      <trkpt lat="44.31539" lon="3.77412">
        <ele>1271.96</ele>
        <time>2013-06-15T07:26:56Z</time>
      </trkpt>
      <trkpt lat="44.31523" lon="3.77472">
        <ele>1271.96</ele>
        <time>2013-06-15T07:27:07Z</time>
      </trkpt>
      <trkpt lat="44.31521" lon="3.77484">
        <ele>1271</ele>
        <time>2013-06-15T07:27:09Z</time>
      </trkpt>
      <trkpt lat="44.31509" lon="3.77537">
        <ele>1271.48</ele>
        <time>2013-06-15T07:27:18Z</time>
      </trkpt>
      <trkpt lat="44.31502" lon="3.77579">
        <ele>1271</ele>
        <time>2013-06-15T07:27:25Z</time>
      </trkpt>
      <trkpt lat="44.315" lon="3.77604">
        <ele>1271</ele>
        <time>2013-06-15T07:27:29Z</time>
      </trkpt>
      <trkpt lat="44.31499" lon="3.7763">
        <ele>1271.48</ele>
        <time>2013-06-15T07:27:33Z</time>
      </trkpt>
      <trkpt lat="44.31498" lon="3.77688">
        <ele>1272.92</ele>
        <time>2013-06-15T07:27:42Z</time>
      </trkpt>
      <trkpt lat="44.31502" lon="3.77762">
        <ele>1270.52</ele>
        <time>2013-06-15T07:27:53Z</time>
      </trkpt>
      <trkpt lat="44.31503" lon="3.77776">
        <ele>1270.04</ele>
        <time>2013-06-15T07:27:55Z</time>
      </trkpt>
      <trkpt lat="44.31499" lon="3.77816">
        <ele>1265.71</ele>
        <time>2013-06-15T07:28:01Z</time>
      </trkpt>
      <trkpt lat="44.31496" lon="3.77828">
        <ele>1270.04</ele>
        <time>2013-06-15T07:28:03Z</time>
      </trkpt>
      <trkpt lat="44.31495" lon="3.77834">
        <ele>1269.56</ele>
        <time>2013-06-15T07:28:04Z</time>
      </trkpt>
      <trkpt lat="44.31489" lon="3.77861">
        <ele>1269.08</ele>
        <time>2013-06-15T07:28:08Z</time>
      </trkpt>
      <trkpt lat="44.31486" lon="3.77898">
        <ele>1269.08</ele>
        <time>2013-06-15T07:28:13Z</time>
      </trkpt>
      <trkpt lat="44.31471" lon="3.77932">
        <ele>1268.6</ele>
        <time>2013-06-15T07:28:20Z</time>
      </trkpt>
      <trkpt lat="44.31455" lon="3.77955">
        <ele>1268.12</ele>
        <time>2013-06-15T07:28:25Z</time>
      </trkpt>
      <trkpt lat="44.31432" lon="3.77984">
        <ele>1267.64</ele>
        <time>2013-06-15T07:28:31Z</time>
      </trkpt>
      <trkpt lat="44.3142" lon="3.77998">
        <ele>1268.12</ele>
        <time>2013-06-15T07:28:34Z</time>
      </trkpt>
      <trkpt lat="44.31397" lon="3.78019">
        <ele>1266.67</ele>
        <time>2013-06-15T07:28:40Z</time>
      </trkpt>
      <trkpt lat="44.31385" lon="3.78026">
        <ele>1266.19</ele>
        <time>2013-06-15T07:28:42Z</time>
      </trkpt>
      <trkpt lat="44.31317" lon="3.78064">
        <ele>1264.75</ele>
        <time>2013-06-15T07:28:53Z</time>
      </trkpt>
      <trkpt lat="44.31291" lon="3.78099">
        <ele>1264.75</ele>
        <time>2013-06-15T07:29:00Z</time>
      </trkpt>
      <trkpt lat="44.31306" lon="3.78127">
        <ele>1263.79</ele>
        <time>2013-06-15T07:29:05Z</time>
      </trkpt>
      <trkpt lat="44.31353" lon="3.78176">
        <ele>1260.91</ele>
        <time>2013-06-15T07:29:17Z</time>
      </trkpt>
      <trkpt lat="44.31357" lon="3.7818">
        <ele>1260.43</ele>
        <time>2013-06-15T07:29:18Z</time>
      </trkpt>
      <trkpt lat="44.31369" lon="3.78196">
        <ele>1260.43</ele>
        <time>2013-06-15T07:29:21Z</time>
      </trkpt>
      <trkpt lat="44.31391" lon="3.78237">
        <ele>1258.5</ele>
        <time>2013-06-15T07:29:28Z</time>
      </trkpt>
      <trkpt lat="44.31398" lon="3.78249">
        <ele>1258.5</ele>
        <time>2013-06-15T07:29:30Z</time>
      </trkpt>
      <trkpt lat="44.31403" lon="3.78263">
        <ele>1258.5</ele>
        <time>2013-06-15T07:29:32Z</time>
      </trkpt>
      <trkpt lat="44.3141" lon="3.783">
        <ele>1258.5</ele>
        <time>2013-06-15T07:29:38Z</time>
      </trkpt>
      <trkpt lat="44.31415" lon="3.78318">
        <ele>1259.46</ele>
        <time>2013-06-15T07:29:41Z</time>
      </trkpt>
      <trkpt lat="44.31434" lon="3.78351">
        <ele>1260.43</ele>
        <time>2013-06-15T07:29:50Z</time>
      </trkpt>
      <trkpt lat="44.31455" lon="3.78371">
        <ele>1260.43</ele>
        <time>2013-06-15T07:29:58Z</time>
      </trkpt>
      <trkpt lat="44.31475" lon="3.78384">
        <ele>1261.87</ele>
        <time>2013-06-15T07:30:06Z</time>
      </trkpt>
      <trkpt lat="44.315" lon="3.7839">
        <ele>1263.79</ele>
        <time>2013-06-15T07:30:15Z</time>
      </trkpt>
      <trkpt lat="44.31503" lon="3.78389">
        <ele>1264.27</ele>
        <time>2013-06-15T07:30:16Z</time>
      </trkpt>
      <trkpt lat="44.31521" lon="3.7839">
        <ele>1264.27</ele>
        <time>2013-06-15T07:30:23Z</time>
      </trkpt>
      <trkpt lat="44.31527" lon="3.78407">
        <ele>1258.5</ele>
        <time>2013-06-15T07:30:28Z</time>
      </trkpt>
      <trkpt lat="44.31528" lon="3.78411">
        <ele>1265.23</ele>
        <time>2013-06-15T07:30:29Z</time>
      </trkpt>
      <trkpt lat="44.31536" lon="3.78445">
        <ele>1265.71</ele>
        <time>2013-06-15T07:30:38Z</time>
      </trkpt>
      <trkpt lat="44.31545" lon="3.78475">
        <ele>1266.67</ele>
        <time>2013-06-15T07:30:46Z</time>
      </trkpt>
      <trkpt lat="44.31549" lon="3.78482">
        <ele>1266.67</ele>
        <time>2013-06-15T07:30:48Z</time>
      </trkpt>
      <trkpt lat="44.31571" lon="3.78505">
        <ele>1268.6</ele>
        <time>2013-06-15T07:30:57Z</time>
      </trkpt>
      <trkpt lat="44.31591" lon="3.78527">
        <ele>1269.08</ele>
        <time>2013-06-15T07:31:05Z</time>
      </trkpt>
      <trkpt lat="44.31615" lon="3.78552">
        <ele>1270.52</ele>
        <time>2013-06-15T07:31:15Z</time>
      </trkpt>
      <trkpt lat="44.31643" lon="3.78567">
        <ele>1271.96</ele>
        <time>2013-06-15T07:31:25Z</time>
      </trkpt>
      <trkpt lat="44.31665" lon="3.78589">
        <ele>1274.36</ele>
        <time>2013-06-15T07:31:34Z</time>
      </trkpt>
      <trkpt lat="44.31667" lon="3.7859">
        <ele>1274.36</ele>
        <time>2013-06-15T07:31:35Z</time>
      </trkpt>
      <trkpt lat="44.3169" lon="3.7861">
        <ele>1274.85</ele>
        <time>2013-06-15T07:31:44Z</time>
      </trkpt>
      <trkpt lat="44.31707" lon="3.78629">
        <ele>1277.25</ele>
        <time>2013-06-15T07:31:51Z</time>
      </trkpt>
      <trkpt lat="44.31727" lon="3.78657">
        <ele>1277.25</ele>
        <time>2013-06-15T07:32:00Z</time>
      </trkpt>
      <trkpt lat="44.31738" lon="3.78677">
        <ele>1276.77</ele>
        <time>2013-06-15T07:32:06Z</time>
      </trkpt>
      <trkpt lat="44.31754" lon="3.78711">
        <ele>1277.73</ele>
        <time>2013-06-15T07:32:15Z</time>
      </trkpt>
      <trkpt lat="44.31761" lon="3.78723">
        <ele>1278.21</ele>
        <time>2013-06-15T07:32:19Z</time>
      </trkpt>
      <trkpt lat="44.31782" lon="3.78759">
        <ele>1279.17</ele>
        <time>2013-06-15T07:32:30Z</time>
      </trkpt>
      <trkpt lat="44.31799" lon="3.78793">
        <ele>1279.65</ele>
        <time>2013-06-15T07:32:40Z</time>
      </trkpt>
      <trkpt lat="44.31799" lon="3.78827">
        <ele>1280.13</ele>
        <time>2013-06-15T07:32:48Z</time>
      </trkpt>
      <trkpt lat="44.31786" lon="3.78871">
        <ele>1279.65</ele>
        <time>2013-06-15T07:32:57Z</time>
      </trkpt>
      <trkpt lat="44.31764" lon="3.78926">
        <ele>1283.5</ele>
        <time>2013-06-15T07:33:08Z</time>
      </trkpt>
      <trkpt lat="44.31762" lon="3.78931">
        <ele>1278.69</ele>
        <time>2013-06-15T07:33:09Z</time>
      </trkpt>
      <trkpt lat="44.3176" lon="3.78938">
        <ele>1278.69</ele>
        <time>2013-06-15T07:33:10Z</time>
      </trkpt>
      <trkpt lat="44.3175" lon="3.78998">
        <ele>1275.81</ele>
        <time>2013-06-15T07:33:18Z</time>
      </trkpt>
      <trkpt lat="44.31748" lon="3.79024">
        <ele>1274.36</ele>
        <time>2013-06-15T07:33:21Z</time>
      </trkpt>
      <trkpt lat="44.31734" lon="3.79116">
        <ele>1272.44</ele>
        <time>2013-06-15T07:33:32Z</time>
      </trkpt>
      <trkpt lat="44.31733" lon="3.79151">
        <ele>1270.52</ele>
        <time>2013-06-15T07:33:36Z</time>
      </trkpt>
      <trkpt lat="44.31749" lon="3.79218">
        <ele>1266.19</ele>
        <time>2013-06-15T07:33:43Z</time>
      </trkpt>
      <trkpt lat="44.31763" lon="3.79273">
        <ele>1262.83</ele>
        <time>2013-06-15T07:33:48Z</time>
      </trkpt>
      <trkpt lat="44.31769" lon="3.79297">
        <ele>1261.39</ele>
        <time>2013-06-15T07:33:50Z</time>
      </trkpt>
      <trkpt lat="44.31778" lon="3.79333">
        <ele>1258.5</ele>
        <time>2013-06-15T07:33:53Z</time>
      </trkpt>
      <trkpt lat="44.31787" lon="3.79383">
        <ele>1255.62</ele>
        <time>2013-06-15T07:33:57Z</time>
      </trkpt>
      <trkpt lat="44.31807" lon="3.79462">
        <ele>1251.29</ele>
        <time>2013-06-15T07:34:03Z</time>
      </trkpt>
      <trkpt lat="44.31817" lon="3.79501">
        <ele>1248.89</ele>
        <time>2013-06-15T07:34:06Z</time>
      </trkpt>
      <trkpt lat="44.3184" lon="3.79556">
        <ele>1249.37</ele>
        <time>2013-06-15T07:34:12Z</time>
      </trkpt>
      <trkpt lat="44.31856" lon="3.796">
        <ele>1251.29</ele>
        <time>2013-06-15T07:34:20Z</time>
      </trkpt>
      <trkpt lat="44.31864" lon="3.79634">
        <ele>1252.25</ele>
        <time>2013-06-15T07:34:28Z</time>
      </trkpt>
      <trkpt lat="44.31873" lon="3.79668">
        <ele>1253.7</ele>
        <time>2013-06-15T07:34:36Z</time>
      </trkpt>
      <trkpt lat="44.31873" lon="3.79671">
        <ele>1254.18</ele>
        <time>2013-06-15T07:34:37Z</time>
      </trkpt>
      <trkpt lat="44.31881" lon="3.79717">
        <ele>1255.14</ele>
        <time>2013-06-15T07:34:47Z</time>
      </trkpt>
      <trkpt lat="44.31888" lon="3.79744">
        <ele>1255.62</ele>
        <time>2013-06-15T07:34:53Z</time>
      </trkpt>
      <trkpt lat="44.31895" lon="3.79794">
        <ele>1256.58</ele>
        <time>2013-06-15T07:35:03Z</time>
      </trkpt>
      <trkpt lat="44.31904" lon="3.79838">
        <ele>1257.54</ele>
        <time>2013-06-15T07:35:12Z</time>
      </trkpt>
      <trkpt lat="44.31909" lon="3.79878">
        <ele>1258.02</ele>
        <time>2013-06-15T07:35:20Z</time>
      </trkpt>
      <trkpt lat="44.31908" lon="3.79888">
        <ele>1259.94</ele>
        <time>2013-06-15T07:35:22Z</time>
      </trkpt>
      <trkpt lat="44.31901" lon="3.79903">
        <ele>1258.02</ele>
        <time>2013-06-15T07:35:25Z</time>
      </trkpt>
      <trkpt lat="44.31893" lon="3.79915">
        <ele>1258.02</ele>
        <time>2013-06-15T07:35:28Z</time>
      </trkpt>
      <trkpt lat="44.31872" lon="3.79936">
        <ele>1257.54</ele>
        <time>2013-06-15T07:35:34Z</time>
      </trkpt>
      <trkpt lat="44.31853" lon="3.79955">
        <ele>1257.06</ele>
        <time>2013-06-15T07:35:39Z</time>
      </trkpt>
      <trkpt lat="44.31839" lon="3.7997">
        <ele>1255.14</ele>
        <time>2013-06-15T07:35:43Z</time>
      </trkpt>
      <trkpt lat="44.31832" lon="3.79977">
        <ele>1254.66</ele>
        <time>2013-06-15T07:35:45Z</time>
      </trkpt>
      <trkpt lat="44.31818" lon="3.80001">
        <ele>1252.74</ele>
        <time>2013-06-15T07:35:49Z</time>
      </trkpt>
      <trkpt lat="44.31808" lon="3.80014">
        <ele>1252.74</ele>
        <time>2013-06-15T07:35:51Z</time>
      </trkpt>
      <trkpt lat="44.3179" lon="3.80047">
        <ele>1249.85</ele>
        <time>2013-06-15T07:35:56Z</time>
      </trkpt>
      <trkpt lat="44.31769" lon="3.80076">
        <ele>1250.81</ele>
        <time>2013-06-15T07:36:05Z</time>
      </trkpt>
      <trkpt lat="44.31751" lon="3.80111">
        <ele>1252.25</ele>
        <time>2013-06-15T07:36:15Z</time>
      </trkpt>
      <trkpt lat="44.31734" lon="3.80156">
        <ele>1253.22</ele>
        <time>2013-06-15T07:36:26Z</time>
      </trkpt>
      <trkpt lat="44.31723" lon="3.80186">
        <ele>1246.01</ele>
        <time>2013-06-15T07:36:33Z</time>
      </trkpt>
      <trkpt lat="44.31722" lon="3.8019">
        <ele>1254.66</ele>
        <time>2013-06-15T07:36:34Z</time>
      </trkpt>
      <trkpt lat="44.31717" lon="3.80208">
        <ele>1254.18</ele>
        <time>2013-06-15T07:36:38Z</time>
      </trkpt>
      <trkpt lat="44.31706" lon="3.80238">
        <ele>1252.25</ele>
        <time>2013-06-15T07:36:43Z</time>
      </trkpt>
      <trkpt lat="44.31704" lon="3.80244">
        <ele>1252.25</ele>
        <time>2013-06-15T07:36:44Z</time>
      </trkpt>
      <trkpt lat="44.317" lon="3.80255">
        <ele>1252.74</ele>
        <time>2013-06-15T07:36:46Z</time>
      </trkpt>
      <trkpt lat="44.31696" lon="3.80277">
        <ele>1252.74</ele>
        <time>2013-06-15T07:36:50Z</time>
      </trkpt>
      <trkpt lat="44.31696" lon="3.80314">
        <ele>1252.25</ele>
        <time>2013-06-15T07:36:56Z</time>
      </trkpt>
      <trkpt lat="44.31696" lon="3.80354">
        <ele>1253.22</ele>
        <time>2013-06-15T07:37:04Z</time>
      </trkpt>
      <trkpt lat="44.31699" lon="3.80379">
        <ele>1257.54</ele>
        <time>2013-06-15T07:37:12Z</time>
      </trkpt>
      <trkpt lat="44.31701" lon="3.80389">
        <ele>1254.18</ele>
        <time>2013-06-15T07:37:15Z</time>
      </trkpt>
      <trkpt lat="44.31712" lon="3.80413">
        <ele>1256.58</ele>
        <time>2013-06-15T07:37:25Z</time>
      </trkpt>
      <trkpt lat="44.31714" lon="3.80418">
        <ele>1257.54</ele>
        <time>2013-06-15T07:37:27Z</time>
      </trkpt>
      <trkpt lat="44.3172" lon="3.80439">
        <ele>1259.46</ele>
        <time>2013-06-15T07:37:36Z</time>
      </trkpt>
      <trkpt lat="44.31725" lon="3.8046">
        <ele>1261.87</ele>
        <time>2013-06-15T07:37:46Z</time>
      </trkpt>
      <trkpt lat="44.31728" lon="3.80479">
        <ele>1262.35</ele>
        <time>2013-06-15T07:37:54Z</time>
      </trkpt>
      <trkpt lat="44.31731" lon="3.80492">
        <ele>1263.79</ele>
        <time>2013-06-15T07:38:00Z</time>
      </trkpt>
      <trkpt lat="44.31734" lon="3.80514">
        <ele>1265.71</ele>
        <time>2013-06-15T07:38:10Z</time>
      </trkpt>
      <trkpt lat="44.31734" lon="3.80517">
        <ele>1265.71</ele>
        <time>2013-06-15T07:38:12Z</time>
      </trkpt>
      <trkpt lat="44.31735" lon="3.80524">
        <ele>1267.16</ele>
        <time>2013-06-15T07:38:15Z</time>
      </trkpt>
      <trkpt lat="44.31736" lon="3.80536">
        <ele>1267.64</ele>
        <time>2013-06-15T07:38:21Z</time>
      </trkpt>
      <trkpt lat="44.31737" lon="3.80562">
        <ele>1271</ele>
        <time>2013-06-15T07:38:33Z</time>
      </trkpt>
      <trkpt lat="44.31739" lon="3.80583">
        <ele>1272.44</ele>
        <time>2013-06-15T07:38:44Z</time>
      </trkpt>
      <trkpt lat="44.31741" lon="3.80609">
        <ele>1275.33</ele>
        <time>2013-06-15T07:38:56Z</time>
      </trkpt>
      <trkpt lat="44.31742" lon="3.8061">
        <ele>1275.33</ele>
        <time>2013-06-15T07:38:57Z</time>
      </trkpt>
      <trkpt lat="44.3174" lon="3.80627">
        <ele>1277.73</ele>
        <time>2013-06-15T07:39:05Z</time>
      </trkpt>
      <trkpt lat="44.31738" lon="3.80635">
        <ele>1278.69</ele>
        <time>2013-06-15T07:39:09Z</time>
      </trkpt>
      <trkpt lat="44.31729" lon="3.80657">
        <ele>1281.09</ele>
        <time>2013-06-15T07:39:20Z</time>
      </trkpt>
      <trkpt lat="44.31723" lon="3.80687">
        <ele>1282.06</ele>
        <time>2013-06-15T07:39:31Z</time>
      </trkpt>
      <trkpt lat="44.31717" lon="3.80722">
        <ele>1282.54</ele>
        <time>2013-06-15T07:39:42Z</time>
      </trkpt>
      <trkpt lat="44.31701" lon="3.80753">
        <ele>1283.5</ele>
        <time>2013-06-15T07:39:53Z</time>
      </trkpt>
      <trkpt lat="44.3167" lon="3.80793">
        <ele>1283.02</ele>
        <time>2013-06-15T07:40:06Z</time>
      </trkpt>
      <trkpt lat="44.31658" lon="3.8081">
        <ele>1282.06</ele>
        <time>2013-06-15T07:40:10Z</time>
      </trkpt>
      <trkpt lat="44.31639" lon="3.80829">
        <ele>1279.17</ele>
        <time>2013-06-15T07:40:14Z</time>
      </trkpt>
      <trkpt lat="44.31615" lon="3.80857">
        <ele>1280.13</ele>
        <time>2013-06-15T07:40:21Z</time>
      </trkpt>
      <trkpt lat="44.31587" lon="3.80893">
        <ele>1282.54</ele>
        <time>2013-06-15T07:40:34Z</time>
      </trkpt>
      <trkpt lat="44.31571" lon="3.80909">
        <ele>1284.46</ele>
        <time>2013-06-15T07:40:43Z</time>
      </trkpt>
      <trkpt lat="44.31562" lon="3.80937">
        <ele>1283.5</ele>
        <time>2013-06-15T07:40:51Z</time>
      </trkpt>
      <trkpt lat="44.31546" lon="3.80973">
        <ele>1284.46</ele>
        <time>2013-06-15T07:41:01Z</time>
      </trkpt>
      <trkpt lat="44.31535" lon="3.80997">
        <ele>1286.38</ele>
        <time>2013-06-15T07:41:10Z</time>
      </trkpt>
      <trkpt lat="44.31523" lon="3.81018">
        <ele>1288.78</ele>
        <time>2013-06-15T07:41:21Z</time>
      </trkpt>
      <trkpt lat="44.31519" lon="3.81023">
        <ele>1290.23</ele>
        <time>2013-06-15T07:41:24Z</time>
      </trkpt>
      <trkpt lat="44.31502" lon="3.81045">
        <ele>1292.63</ele>
        <time>2013-06-15T07:41:37Z</time>
      </trkpt>
      <trkpt lat="44.31484" lon="3.81064">
        <ele>1294.55</ele>
        <time>2013-06-15T07:41:47Z</time>
      </trkpt>
      <trkpt lat="44.3147" lon="3.81078">
        <ele>1296.48</ele>
        <time>2013-06-15T07:41:56Z</time>
      </trkpt>
      <trkpt lat="44.3145" lon="3.81092">
        <ele>1299.36</ele>
        <time>2013-06-15T07:42:08Z</time>
      </trkpt>
      <trkpt lat="44.31435" lon="3.81102">
        <ele>1300.8</ele>
        <time>2013-06-15T07:42:17Z</time>
      </trkpt>
      <trkpt lat="44.31415" lon="3.81112">
        <ele>1304.17</ele>
        <time>2013-06-15T07:42:29Z</time>
      </trkpt>
      <trkpt lat="44.31398" lon="3.81124">
        <ele>1307.05</ele>
        <time>2013-06-15T07:42:40Z</time>
      </trkpt>
      <trkpt lat="44.31397" lon="3.81126">
        <ele>1307.05</ele>
        <time>2013-06-15T07:42:41Z</time>
      </trkpt>
      <trkpt lat="44.31384" lon="3.81149">
        <ele>1308.49</ele>
        <time>2013-06-15T07:42:52Z</time>
      </trkpt>
      <trkpt lat="44.31374" lon="3.81168">
        <ele>1310.41</ele>
        <time>2013-06-15T07:43:02Z</time>
      </trkpt>
      <trkpt lat="44.31366" lon="3.81183">
        <ele>1312.34</ele>
        <time>2013-06-15T07:43:11Z</time>
      </trkpt>
      <trkpt lat="44.31363" lon="3.81188">
        <ele>1314.26</ele>
        <time>2013-06-15T07:43:14Z</time>
      </trkpt>
      <trkpt lat="44.31351" lon="3.81201">
        <ele>1316.66</ele>
        <time>2013-06-15T07:43:24Z</time>
      </trkpt>
      <trkpt lat="44.3134" lon="3.81215">
        <ele>1320.03</ele>
        <time>2013-06-15T07:43:34Z</time>
      </trkpt>
      <trkpt lat="44.31335" lon="3.81222">
        <ele>1320.51</ele>
        <time>2013-06-15T07:43:39Z</time>
      </trkpt>
      <trkpt lat="44.31324" lon="3.81236">
        <ele>1323.39</ele>
        <time>2013-06-15T07:43:50Z</time>
      </trkpt>
      <trkpt lat="44.31318" lon="3.81251">
        <ele>1325.8</ele>
        <time>2013-06-15T07:43:59Z</time>
      </trkpt>
      <trkpt lat="44.31316" lon="3.81265">
        <ele>1326.76</ele>
        <time>2013-06-15T07:44:06Z</time>
      </trkpt>
      <trkpt lat="44.31306" lon="3.81288">
        <ele>1329.64</ele>
        <time>2013-06-15T07:44:19Z</time>
      </trkpt>
      <trkpt lat="44.31305" lon="3.8129">
        <ele>1329.64</ele>
        <time>2013-06-15T07:44:20Z</time>
      </trkpt>
      <trkpt lat="44.31297" lon="3.81304">
        <ele>1332.52</ele>
        <time>2013-06-15T07:44:29Z</time>
      </trkpt>
      <trkpt lat="44.31292" lon="3.81309">
        <ele>1333.49</ele>
        <time>2013-06-15T07:44:33Z</time>
      </trkpt>
      <trkpt lat="44.31278" lon="3.81326">
        <ele>1335.89</ele>
        <time>2013-06-15T07:44:46Z</time>
      </trkpt>
      <trkpt lat="44.31267" lon="3.81343">
        <ele>1338.29</ele>
        <time>2013-06-15T07:44:57Z</time>
      </trkpt>
      <trkpt lat="44.3126" lon="3.81356">
        <ele>1340.22</ele>
        <time>2013-06-15T07:45:05Z</time>
      </trkpt>
      <trkpt lat="44.31253" lon="3.81371">
        <ele>1341.66</ele>
        <time>2013-06-15T07:45:13Z</time>
      </trkpt>
      <trkpt lat="44.31243" lon="3.81391">
        <ele>1344.54</ele>
        <time>2013-06-15T07:45:24Z</time>
      </trkpt>
      <trkpt lat="44.31236" lon="3.81403">
        <ele>1345.98</ele>
        <time>2013-06-15T07:45:31Z</time>
      </trkpt>
      <trkpt lat="44.31221" lon="3.81415">
        <ele>1348.39</ele>
        <time>2013-06-15T07:45:42Z</time>
      </trkpt>
      <trkpt lat="44.31209" lon="3.81432">
        <ele>1350.79</ele>
        <time>2013-06-15T07:45:53Z</time>
      </trkpt>
      <trkpt lat="44.31203" lon="3.81441">
        <ele>1352.23</ele>
        <time>2013-06-15T07:45:59Z</time>
      </trkpt>
      <trkpt lat="44.31201" lon="3.81447">
        <ele>1353.67</ele>
        <time>2013-06-15T07:46:03Z</time>
      </trkpt>
      <trkpt lat="44.31206" lon="3.81449">
        <ele>1353.67</ele>
        <time>2013-06-15T07:46:11Z</time>
      </trkpt>
      <trkpt lat="44.31206" lon="3.81449">
        <ele>1354.63</ele>
        <time>2013-06-15T07:46:13Z</time>
      </trkpt>
      <trkpt lat="44.31207" lon="3.81449">
        <ele>1353.67</ele>
        <time>2013-06-15T07:46:23Z</time>
      </trkpt>
      <trkpt lat="44.31208" lon="3.81449">
        <ele>1354.15</ele>
        <time>2013-06-15T07:46:53Z</time>
      </trkpt>
      <trkpt lat="44.31207" lon="3.81449">
        <ele>1353.67</ele>
        <time>2013-06-15T07:47:18Z</time>
      </trkpt>
      <trkpt lat="44.31207" lon="3.81449">
        <ele>1354.15</ele>
        <time>2013-06-15T07:47:40Z</time>
      </trkpt>
      <trkpt lat="44.31206" lon="3.81449">
        <ele>1353.67</ele>
        <time>2013-06-15T07:47:55Z</time>
      </trkpt>
      <trkpt lat="44.31206" lon="3.8145">
        <ele>1354.15</ele>
        <time>2013-06-15T07:48:03Z</time>
      </trkpt>
      <trkpt lat="44.31205" lon="3.81454">
        <ele>1353.67</ele>
        <time>2013-06-15T07:48:07Z</time>
      </trkpt>
      <trkpt lat="44.31207" lon="3.81467">
        <ele>1351.27</ele>
        <time>2013-06-15T07:48:14Z</time>
      </trkpt>
      <trkpt lat="44.3121" lon="3.8147">
        <ele>1349.35</ele>
        <time>2013-06-15T07:48:17Z</time>
      </trkpt>
      <trkpt lat="44.3122" lon="3.81474">
        <ele>1345.98</ele>
        <time>2013-06-15T07:48:25Z</time>
      </trkpt>
      <trkpt lat="44.31222" lon="3.81475">
        <ele>1345.98</ele>
        <time>2013-06-15T07:48:26Z</time>
      </trkpt>
      <trkpt lat="44.31224" lon="3.81475">
        <ele>1345.02</ele>
        <time>2013-06-15T07:48:27Z</time>
      </trkpt>
      <trkpt lat="44.31231" lon="3.8148">
        <ele>1341.66</ele>
        <time>2013-06-15T07:48:31Z</time>
      </trkpt>
      <trkpt lat="44.31234" lon="3.81481">
        <ele>1340.7</ele>
        <time>2013-06-15T07:48:32Z</time>
      </trkpt>
      <trkpt lat="44.31247" lon="3.81486">
        <ele>1337.81</ele>
        <time>2013-06-15T07:48:37Z</time>
      </trkpt>
      <trkpt lat="44.3125" lon="3.81491">
        <ele>1335.89</ele>
        <time>2013-06-15T07:48:39Z</time>
      </trkpt>
      <trkpt lat="44.3126" lon="3.81496">
        <ele>1331.56</ele>
        <time>2013-06-15T07:48:45Z</time>
      </trkpt>
      <trkpt lat="44.31262" lon="3.81497">
        <ele>1331.56</ele>
        <time>2013-06-15T07:48:46Z</time>
      </trkpt>
      <trkpt lat="44.3127" lon="3.81499">
        <ele>1329.16</ele>
        <time>2013-06-15T07:48:49Z</time>
      </trkpt>
      <trkpt lat="44.31276" lon="3.81505">
        <ele>1326.28</ele>
        <time>2013-06-15T07:48:52Z</time>
      </trkpt>
      <trkpt lat="44.3128" lon="3.81511">
        <ele>1323.39</ele>
        <time>2013-06-15T07:48:54Z</time>
      </trkpt>
      <trkpt lat="44.31291" lon="3.81518">
        <ele>1319.55</ele>
        <time>2013-06-15T07:48:58Z</time>
      </trkpt>
      <trkpt lat="44.31301" lon="3.81529">
        <ele>1316.18</ele>
        <time>2013-06-15T07:49:02Z</time>
      </trkpt>
      <trkpt lat="44.3131" lon="3.81535">
        <ele>1312.34</ele>
        <time>2013-06-15T07:49:05Z</time>
      </trkpt>
      <trkpt lat="44.31321" lon="3.81544">
        <ele>1307.53</ele>
        <time>2013-06-15T07:49:09Z</time>
      </trkpt>
      <trkpt lat="44.31331" lon="3.81557">
        <ele>1303.2</ele>
        <time>2013-06-15T07:49:13Z</time>
      </trkpt>
      <trkpt lat="44.31336" lon="3.81572">
        <ele>1301.28</ele>
        <time>2013-06-15T07:49:17Z</time>
      </trkpt>
      <trkpt lat="44.31359" lon="3.81581">
        <ele>1296.48</ele>
        <time>2013-06-15T07:49:23Z</time>
      </trkpt>
      <trkpt lat="44.3138" lon="3.81592">
        <ele>1294.07</ele>
        <time>2013-06-15T07:49:29Z</time>
      </trkpt>
      <trkpt lat="44.31388" lon="3.81595">
        <ele>1291.19</ele>
        <time>2013-06-15T07:49:32Z</time>
      </trkpt>
      <trkpt lat="44.31395" lon="3.81593">
        <ele>1290.71</ele>
        <time>2013-06-15T07:49:34Z</time>
      </trkpt>
      <trkpt lat="44.31413" lon="3.81598">
        <ele>1288.3</ele>
        <time>2013-06-15T07:49:38Z</time>
      </trkpt>
      <trkpt lat="44.31416" lon="3.81601">
        <ele>1286.86</ele>
        <time>2013-06-15T07:49:39Z</time>
      </trkpt>
      <trkpt lat="44.3143" lon="3.81603">
        <ele>1283.98</ele>
        <time>2013-06-15T07:49:43Z</time>
      </trkpt>
      <trkpt lat="44.31451" lon="3.81608">
        <ele>1280.13</ele>
        <time>2013-06-15T07:49:47Z</time>
      </trkpt>
      <trkpt lat="44.31463" lon="3.81611">
        <ele>1276.77</ele>
        <time>2013-06-15T07:49:49Z</time>
      </trkpt>
      <trkpt lat="44.31477" lon="3.81615">
        <ele>1273.4</ele>
        <time>2013-06-15T07:49:53Z</time>
      </trkpt>
      <trkpt lat="44.31484" lon="3.81617">
        <ele>1271.96</ele>
        <time>2013-06-15T07:49:55Z</time>
      </trkpt>
      <trkpt lat="44.31492" lon="3.81619">
        <ele>1268.6</ele>
        <time>2013-06-15T07:49:58Z</time>
      </trkpt>
      <trkpt lat="44.31497" lon="3.81619">
        <ele>1268.12</ele>
        <time>2013-06-15T07:50:00Z</time>
      </trkpt>
      <trkpt lat="44.31509" lon="3.8162">
        <ele>1264.27</ele>
        <time>2013-06-15T07:50:05Z</time>
      </trkpt>
      <trkpt lat="44.31519" lon="3.81618">
        <ele>1262.83</ele>
        <time>2013-06-15T07:50:08Z</time>
      </trkpt>
      <trkpt lat="44.31533" lon="3.81616">
        <ele>1259.46</ele>
        <time>2013-06-15T07:50:12Z</time>
      </trkpt>
      <trkpt lat="44.31547" lon="3.81619">
        <ele>1256.1</ele>
        <time>2013-06-15T07:50:18Z</time>
      </trkpt>
      <trkpt lat="44.31559" lon="3.81621">
        <ele>1253.7</ele>
        <time>2013-06-15T07:50:21Z</time>
      </trkpt>
      <trkpt lat="44.31572" lon="3.81627">
        <ele>1250.81</ele>
        <time>2013-06-15T07:50:24Z</time>
      </trkpt>
      <trkpt lat="44.31593" lon="3.81632">
        <ele>1245.53</ele>
        <time>2013-06-15T07:50:28Z</time>
      </trkpt>
      <trkpt lat="44.31599" lon="3.81633">
        <ele>1244.08</ele>
        <time>2013-06-15T07:50:29Z</time>
      </trkpt>
      <trkpt lat="44.31617" lon="3.81636">
        <ele>1241.68</ele>
        <time>2013-06-15T07:50:33Z</time>
      </trkpt>
      <trkpt lat="44.31639" lon="3.81642">
        <ele>1236.39</ele>
        <time>2013-06-15T07:50:37Z</time>
      </trkpt>
      <trkpt lat="44.31653" lon="3.81646">
        <ele>1233.51</ele>
        <time>2013-06-15T07:50:40Z</time>
      </trkpt>
      <trkpt lat="44.31659" lon="3.81648">
        <ele>1232.55</ele>
        <time>2013-06-15T07:50:42Z</time>
      </trkpt>
      <trkpt lat="44.31665" lon="3.8165">
        <ele>1231.11</ele>
        <time>2013-06-15T07:50:44Z</time>
      </trkpt>
      <trkpt lat="44.31679" lon="3.81656">
        <ele>1228.7</ele>
        <time>2013-06-15T07:50:47Z</time>
      </trkpt>
      <trkpt lat="44.31715" lon="3.81661">
        <ele>1223.42</ele>
        <time>2013-06-15T07:50:52Z</time>
      </trkpt>
      <trkpt lat="44.31722" lon="3.81661">
        <ele>1222.93</ele>
        <time>2013-06-15T07:50:53Z</time>
      </trkpt>
      <trkpt lat="44.3173" lon="3.81661">
        <ele>1222.93</ele>
        <time>2013-06-15T07:50:54Z</time>
      </trkpt>
      <trkpt lat="44.31793" lon="3.81673">
        <ele>1220.53</ele>
        <time>2013-06-15T07:51:03Z</time>
      </trkpt>
      <trkpt lat="44.31846" lon="3.81681">
        <ele>1221.49</ele>
        <time>2013-06-15T07:51:14Z</time>
      </trkpt>
      <trkpt lat="44.31883" lon="3.81685">
        <ele>1220.53</ele>
        <time>2013-06-15T07:51:22Z</time>
      </trkpt>
      <trkpt lat="44.31904" lon="3.81689">
        <ele>1219.57</ele>
        <time>2013-06-15T07:51:26Z</time>
      </trkpt>
      <trkpt lat="44.31929" lon="3.81689">
        <ele>1217.17</ele>
        <time>2013-06-15T07:51:30Z</time>
      </trkpt>
      <trkpt lat="44.31984" lon="3.81695">
        <ele>1215.72</ele>
        <time>2013-06-15T07:51:40Z</time>
      </trkpt>
      <trkpt lat="44.32003" lon="3.81699">
        <ele>1216.69</ele>
        <time>2013-06-15T07:51:46Z</time>
      </trkpt>
      <trkpt lat="44.32007" lon="3.81701">
        <ele>1216.21</ele>
        <time>2013-06-15T07:51:48Z</time>
      </trkpt>
      <trkpt lat="44.32014" lon="3.81707">
        <ele>1214.76</ele>
        <time>2013-06-15T07:51:50Z</time>
      </trkpt>
      <trkpt lat="44.32036" lon="3.81711">
        <ele>1210.92</ele>
        <time>2013-06-15T07:51:54Z</time>
      </trkpt>
      <trkpt lat="44.32041" lon="3.81712">
        <ele>1209.48</ele>
        <time>2013-06-15T07:51:55Z</time>
      </trkpt>
      <trkpt lat="44.32054" lon="3.8171">
        <ele>1207.55</ele>
        <time>2013-06-15T07:51:57Z</time>
      </trkpt>
      <trkpt lat="44.32069" lon="3.8171">
        <ele>1204.67</ele>
        <time>2013-06-15T07:52:01Z</time>
      </trkpt>
      <trkpt lat="44.32094" lon="3.81722">
        <ele>1198.42</ele>
        <time>2013-06-15T07:52:06Z</time>
      </trkpt>
      <trkpt lat="44.32114" lon="3.81724">
        <ele>1193.61</ele>
        <time>2013-06-15T07:52:09Z</time>
      </trkpt>
      <trkpt lat="44.3212" lon="3.81724">
        <ele>1192.65</ele>
        <time>2013-06-15T07:52:10Z</time>
      </trkpt>
      <trkpt lat="44.32149" lon="3.81728">
        <ele>1187.37</ele>
        <time>2013-06-15T07:52:15Z</time>
      </trkpt>
      <trkpt lat="44.32161" lon="3.81729">
        <ele>1183.52</ele>
        <time>2013-06-15T07:52:17Z</time>
      </trkpt>
      <trkpt lat="44.3218" lon="3.81731">
        <ele>1179.19</ele>
        <time>2013-06-15T07:52:20Z</time>
      </trkpt>
      <trkpt lat="44.322" lon="3.81737">
        <ele>1175.35</ele>
        <time>2013-06-15T07:52:23Z</time>
      </trkpt>
      <trkpt lat="44.32207" lon="3.81739">
        <ele>1173.43</ele>
        <time>2013-06-15T07:52:24Z</time>
      </trkpt>
      <trkpt lat="44.32227" lon="3.81745">
        <ele>1168.14</ele>
        <time>2013-06-15T07:52:27Z</time>
      </trkpt>
      <trkpt lat="44.32234" lon="3.81748">
        <ele>1167.18</ele>
        <time>2013-06-15T07:52:28Z</time>
      </trkpt>
      <trkpt lat="44.32262" lon="3.81757">
        <ele>1161.41</ele>
        <time>2013-06-15T07:52:32Z</time>
      </trkpt>
      <trkpt lat="44.32288" lon="3.81757">
        <ele>1155.64</ele>
        <time>2013-06-15T07:52:36Z</time>
      </trkpt>
      <trkpt lat="44.32313" lon="3.81761">
        <ele>1149.39</ele>
        <time>2013-06-15T07:52:40Z</time>
      </trkpt>
      <trkpt lat="44.32328" lon="3.81763">
        <ele>1146.03</ele>
        <time>2013-06-15T07:52:42Z</time>
      </trkpt>
      <trkpt lat="44.32347" lon="3.81767">
        <ele>1143.14</ele>
        <time>2013-06-15T07:52:44Z</time>
      </trkpt>
      <trkpt lat="44.32381" lon="3.81766">
        <ele>1136.9</ele>
        <time>2013-06-15T07:52:48Z</time>
      </trkpt>
      <trkpt lat="44.32388" lon="3.81764">
        <ele>1142.66</ele>
        <time>2013-06-15T07:52:49Z</time>
      </trkpt>
      <trkpt lat="44.32394" lon="3.81763">
        <ele>1142.18</ele>
        <time>2013-06-15T07:52:50Z</time>
      </trkpt>
      <trkpt lat="44.32438" lon="3.81751">
        <ele>1142.18</ele>
        <time>2013-06-15T07:52:58Z</time>
      </trkpt>
      <trkpt lat="44.32461" lon="3.81732">
        <ele>1138.82</ele>
        <time>2013-06-15T07:53:03Z</time>
      </trkpt>
      <trkpt lat="44.32475" lon="3.81719">
        <ele>1135.45</ele>
        <time>2013-06-15T07:53:06Z</time>
      </trkpt>
      <trkpt lat="44.32486" lon="3.81713">
        <ele>1132.57</ele>
        <time>2013-06-15T07:53:08Z</time>
      </trkpt>
      <trkpt lat="44.32497" lon="3.81708">
        <ele>1129.69</ele>
        <time>2013-06-15T07:53:10Z</time>
      </trkpt>
      <trkpt lat="44.32517" lon="3.81706">
        <ele>1126.32</ele>
        <time>2013-06-15T07:53:14Z</time>
      </trkpt>
      <trkpt lat="44.32541" lon="3.81705">
        <ele>1121.03</ele>
        <time>2013-06-15T07:53:18Z</time>
      </trkpt>
      <trkpt lat="44.32554" lon="3.81702">
        <ele>1117.19</ele>
        <time>2013-06-15T07:53:20Z</time>
      </trkpt>
      <trkpt lat="44.32577" lon="3.81694">
        <ele>1113.34</ele>
        <time>2013-06-15T07:53:24Z</time>
      </trkpt>
      <trkpt lat="44.32593" lon="3.81685">
        <ele>1109.5</ele>
        <time>2013-06-15T07:53:27Z</time>
      </trkpt>
      <trkpt lat="44.32597" lon="3.81682">
        <ele>1108.54</ele>
        <time>2013-06-15T07:53:28Z</time>
      </trkpt>
      <trkpt lat="44.32606" lon="3.81674">
        <ele>1105.65</ele>
        <time>2013-06-15T07:53:31Z</time>
      </trkpt>
      <trkpt lat="44.32615" lon="3.81669">
        <ele>1103.73</ele>
        <time>2013-06-15T07:53:35Z</time>
      </trkpt>
      <trkpt lat="44.32617" lon="3.81668">
        <ele>1103.73</ele>
        <time>2013-06-15T07:53:36Z</time>
      </trkpt>
      <trkpt lat="44.32619" lon="3.81668">
        <ele>1103.25</ele>
        <time>2013-06-15T07:53:37Z</time>
      </trkpt>
      <trkpt lat="44.32628" lon="3.81665">
        <ele>1101.81</ele>
        <time>2013-06-15T07:53:40Z</time>
      </trkpt>
      <trkpt lat="44.32631" lon="3.81663">
        <ele>1100.85</ele>
        <time>2013-06-15T07:53:46Z</time>
      </trkpt>
      <trkpt lat="44.32638" lon="3.81666">
        <ele>1098.44</ele>
        <time>2013-06-15T07:53:53Z</time>
      </trkpt>
      <trkpt lat="44.32639" lon="3.81665">
        <ele>1097.96</ele>
        <time>2013-06-15T07:53:55Z</time>
      </trkpt>
      <trkpt lat="44.32643" lon="3.81668">
        <ele>1097</ele>
        <time>2013-06-15T07:54:03Z</time>
      </trkpt>
      <trkpt lat="44.32648" lon="3.81664">
        <ele>1097.96</ele>
        <time>2013-06-15T07:54:07Z</time>
      </trkpt>
      <trkpt lat="44.32675" lon="3.81644">
        <ele>1096.04</ele>
        <time>2013-06-15T07:54:18Z</time>
      </trkpt>
      <trkpt lat="44.32677" lon="3.81643">
        <ele>1096.04</ele>
        <time>2013-06-15T07:54:19Z</time>
      </trkpt>
      <trkpt lat="44.32702" lon="3.81624">
        <ele>1096.52</ele>
        <time>2013-06-15T07:54:30Z</time>
      </trkpt>
      <trkpt lat="44.32728" lon="3.81611">
        <ele>1097</ele>
        <time>2013-06-15T07:54:39Z</time>
      </trkpt>
      <trkpt lat="44.32751" lon="3.81602">
        <ele>1093.16</ele>
        <time>2013-06-15T07:54:47Z</time>
      </trkpt>
      <trkpt lat="44.32754" lon="3.81601">
        <ele>1097.48</ele>
        <time>2013-06-15T07:54:48Z</time>
      </trkpt>
      <trkpt lat="44.32778" lon="3.81602">
        <ele>1098.92</ele>
        <time>2013-06-15T07:54:58Z</time>
      </trkpt>
      <trkpt lat="44.32795" lon="3.81609">
        <ele>1100.37</ele>
        <time>2013-06-15T07:55:06Z</time>
      </trkpt>
      <trkpt lat="44.32815" lon="3.81615">
        <ele>1101.81</ele>
        <time>2013-06-15T07:55:16Z</time>
      </trkpt>
      <trkpt lat="44.3284" lon="3.8162">
        <ele>1102.77</ele>
        <time>2013-06-15T07:55:27Z</time>
      </trkpt>
      <trkpt lat="44.32868" lon="3.81638">
        <ele>1104.21</ele>
        <time>2013-06-15T07:55:39Z</time>
      </trkpt>
      <trkpt lat="44.32892" lon="3.81646">
        <ele>1106.13</ele>
        <time>2013-06-15T07:55:50Z</time>
      </trkpt>
      <trkpt lat="44.32912" lon="3.8166">
        <ele>1107.1</ele>
        <time>2013-06-15T07:56:00Z</time>
      </trkpt>
      <trkpt lat="44.32921" lon="3.8167">
        <ele>1108.54</ele>
        <time>2013-06-15T07:56:06Z</time>
      </trkpt>
      <trkpt lat="44.32936" lon="3.81686">
        <ele>1110.94</ele>
        <time>2013-06-15T07:56:17Z</time>
      </trkpt>
      <trkpt lat="44.32948" lon="3.81705">
        <ele>1112.86</ele>
        <time>2013-06-15T07:56:27Z</time>
      </trkpt>
      <trkpt lat="44.32966" lon="3.81725">
        <ele>1114.31</ele>
        <time>2013-06-15T07:56:39Z</time>
      </trkpt>
      <trkpt lat="44.32978" lon="3.81744">
        <ele>1115.75</ele>
        <time>2013-06-15T07:56:49Z</time>
      </trkpt>
      <trkpt lat="44.3298" lon="3.81748">
        <ele>1116.23</ele>
        <time>2013-06-15T07:56:51Z</time>
      </trkpt>
      <trkpt lat="44.32988" lon="3.81767">
        <ele>1117.67</ele>
        <time>2013-06-15T07:57:00Z</time>
      </trkpt>
      <trkpt lat="44.32991" lon="3.81777">
        <ele>1118.63</ele>
        <time>2013-06-15T07:57:04Z</time>
      </trkpt>
      <trkpt lat="44.32996" lon="3.81802">
        <ele>1119.59</ele>
        <time>2013-06-15T07:57:14Z</time>
      </trkpt>
      <trkpt lat="44.32999" lon="3.81827">
        <ele>1120.55</ele>
        <time>2013-06-15T07:57:23Z</time>
      </trkpt>
      <trkpt lat="44.33" lon="3.81831">
        <ele>1121.03</ele>
        <time>2013-06-15T07:57:26Z</time>
      </trkpt>
      <trkpt lat="44.33" lon="3.81859">
        <ele>1122</ele>
        <time>2013-06-15T07:57:35Z</time>
      </trkpt>
      <trkpt lat="44.33" lon="3.81894">
        <ele>1125.84</ele>
        <time>2013-06-15T07:57:44Z</time>
      </trkpt>
      <trkpt lat="44.32998" lon="3.81927">
        <ele>1123.92</ele>
        <time>2013-06-15T07:57:52Z</time>
      </trkpt>
      <trkpt lat="44.33" lon="3.8197">
        <ele>1124.88</ele>
        <time>2013-06-15T07:58:01Z</time>
      </trkpt>
      <trkpt lat="44.33" lon="3.82024">
        <ele>1125.36</ele>
        <time>2013-06-15T07:58:12Z</time>
      </trkpt>
      <trkpt lat="44.32994" lon="3.82077">
        <ele>1125.36</ele>
        <time>2013-06-15T07:58:23Z</time>
      </trkpt>
      <trkpt lat="44.32984" lon="3.82126">
        <ele>1125.84</ele>
        <time>2013-06-15T07:58:33Z</time>
      </trkpt>
      <trkpt lat="44.32975" lon="3.82172">
        <ele>1127.76</ele>
        <time>2013-06-15T07:58:43Z</time>
      </trkpt>
      <trkpt lat="44.32961" lon="3.8223">
        <ele>1127.28</ele>
        <time>2013-06-15T07:58:55Z</time>
      </trkpt>
      <trkpt lat="44.32948" lon="3.82287">
        <ele>1128.73</ele>
        <time>2013-06-15T07:59:07Z</time>
      </trkpt>
      <trkpt lat="44.32939" lon="3.82324">
        <ele>1129.69</ele>
        <time>2013-06-15T07:59:16Z</time>
      </trkpt>
      <trkpt lat="44.32933" lon="3.82359">
        <ele>1131.13</ele>
        <time>2013-06-15T07:59:25Z</time>
      </trkpt>
      <trkpt lat="44.3293" lon="3.82386">
        <ele>1133.05</ele>
        <time>2013-06-15T07:59:33Z</time>
      </trkpt>
      <trkpt lat="44.32927" lon="3.82405">
        <ele>1134.01</ele>
        <time>2013-06-15T07:59:38Z</time>
      </trkpt>
      <trkpt lat="44.3292" lon="3.82423">
        <ele>1137.38</ele>
        <time>2013-06-15T07:59:44Z</time>
      </trkpt>
      <trkpt lat="44.32909" lon="3.82448">
        <ele>1136.9</ele>
        <time>2013-06-15T07:59:53Z</time>
      </trkpt>
      <trkpt lat="44.32912" lon="3.82479">
        <ele>1138.34</ele>
        <time>2013-06-15T08:00:02Z</time>
      </trkpt>
      <trkpt lat="44.32915" lon="3.82513">
        <ele>1139.3</ele>
        <time>2013-06-15T08:00:11Z</time>
      </trkpt>
      <trkpt lat="44.32912" lon="3.82542">
        <ele>1140.26</ele>
        <time>2013-06-15T08:00:19Z</time>
      </trkpt>
      <trkpt lat="44.32905" lon="3.82565">
        <ele>1141.7</ele>
        <time>2013-06-15T08:00:25Z</time>
      </trkpt>
      <trkpt lat="44.32899" lon="3.82582">
        <ele>1142.66</ele>
        <time>2013-06-15T08:00:30Z</time>
      </trkpt>
      <trkpt lat="44.3291" lon="3.82613">
        <ele>1144.59</ele>
        <time>2013-06-15T08:00:39Z</time>
      </trkpt>
      <trkpt lat="44.32926" lon="3.82653">
        <ele>1146.03</ele>
        <time>2013-06-15T08:00:51Z</time>
      </trkpt>
      <trkpt lat="44.32931" lon="3.82665">
        <ele>1147.47</ele>
        <time>2013-06-15T08:00:55Z</time>
      </trkpt>
      <trkpt lat="44.32935" lon="3.82686">
        <ele>1147.95</ele>
        <time>2013-06-15T08:01:01Z</time>
      </trkpt>
      <trkpt lat="44.32938" lon="3.82698">
        <ele>1149.87</ele>
        <time>2013-06-15T08:01:05Z</time>
      </trkpt>
      <trkpt lat="44.32941" lon="3.82714">
        <ele>1150.84</ele>
        <time>2013-06-15T08:01:11Z</time>
      </trkpt>
      <trkpt lat="44.32946" lon="3.82744">
        <ele>1151.8</ele>
        <time>2013-06-15T08:01:20Z</time>
      </trkpt>
      <trkpt lat="44.32954" lon="3.82774">
        <ele>1153.24</ele>
        <time>2013-06-15T08:01:29Z</time>
      </trkpt>
      <trkpt lat="44.32966" lon="3.82799">
        <ele>1155.64</ele>
        <time>2013-06-15T08:01:38Z</time>
      </trkpt>
      <trkpt lat="44.32968" lon="3.82801">
        <ele>1155.64</ele>
        <time>2013-06-15T08:01:39Z</time>
      </trkpt>
      <trkpt lat="44.32972" lon="3.82837">
        <ele>1157.56</ele>
        <time>2013-06-15T08:01:50Z</time>
      </trkpt>
      <trkpt lat="44.32981" lon="3.82874">
        <ele>1159.01</ele>
        <time>2013-06-15T08:02:01Z</time>
      </trkpt>
      <trkpt lat="44.32998" lon="3.82909">
        <ele>1159.49</ele>
        <time>2013-06-15T08:02:12Z</time>
      </trkpt>
      <trkpt lat="44.33024" lon="3.82942">
        <ele>1161.41</ele>
        <time>2013-06-15T08:02:23Z</time>
      </trkpt>
      <trkpt lat="44.33052" lon="3.8298">
        <ele>1161.89</ele>
        <time>2013-06-15T08:02:35Z</time>
      </trkpt>
      <trkpt lat="44.33082" lon="3.83005">
        <ele>1162.37</ele>
        <time>2013-06-15T08:02:45Z</time>
      </trkpt>
      <trkpt lat="44.33122" lon="3.83021">
        <ele>1162.85</ele>
        <time>2013-06-15T08:02:56Z</time>
      </trkpt>
      <trkpt lat="44.33153" lon="3.83033">
        <ele>1165.26</ele>
        <time>2013-06-15T08:03:06Z</time>
      </trkpt>
      <trkpt lat="44.33197" lon="3.83051">
        <ele>1164.77</ele>
        <time>2013-06-15T08:03:18Z</time>
      </trkpt>
      <trkpt lat="44.33245" lon="3.83067">
        <ele>1160.93</ele>
        <time>2013-06-15T08:03:26Z</time>
      </trkpt>
      <trkpt lat="44.33258" lon="3.83072">
        <ele>1159.97</ele>
        <time>2013-06-15T08:03:28Z</time>
      </trkpt>
      <trkpt lat="44.33271" lon="3.83077">
        <ele>1159.01</ele>
        <time>2013-06-15T08:03:30Z</time>
      </trkpt>
      <trkpt lat="44.33293" lon="3.83084">
        <ele>1157.56</ele>
        <time>2013-06-15T08:03:33Z</time>
      </trkpt>
      <trkpt lat="44.3333" lon="3.83096">
        <ele>1155.64</ele>
        <time>2013-06-15T08:03:38Z</time>
      </trkpt>
      <trkpt lat="44.3336" lon="3.83111">
        <ele>1155.64</ele>
        <time>2013-06-15T08:03:45Z</time>
      </trkpt>
      <trkpt lat="44.33386" lon="3.83143">
        <ele>1157.56</ele>
        <time>2013-06-15T08:03:56Z</time>
      </trkpt>
      <trkpt lat="44.33402" lon="3.83169">
        <ele>1158.53</ele>
        <time>2013-06-15T08:04:05Z</time>
      </trkpt>
      <trkpt lat="44.33404" lon="3.83173">
        <ele>1159.49</ele>
        <time>2013-06-15T08:04:07Z</time>
      </trkpt>
      <trkpt lat="44.33413" lon="3.83198">
        <ele>1161.89</ele>
        <time>2013-06-15T08:04:17Z</time>
      </trkpt>
      <trkpt lat="44.33415" lon="3.83217">
        <ele>1163.33</ele>
        <time>2013-06-15T08:04:24Z</time>
      </trkpt>
      <trkpt lat="44.33409" lon="3.83233">
        <ele>1165.26</ele>
        <time>2013-06-15T08:04:30Z</time>
      </trkpt>
      <trkpt lat="44.33407" lon="3.83241">
        <ele>1173.43</ele>
        <time>2013-06-15T08:04:33Z</time>
      </trkpt>
      <trkpt lat="44.33407" lon="3.83244">
        <ele>1166.7</ele>
        <time>2013-06-15T08:04:34Z</time>
      </trkpt>
      <trkpt lat="44.33408" lon="3.83245">
        <ele>1166.7</ele>
        <time>2013-06-15T08:04:40Z</time>
      </trkpt>
      <trkpt lat="44.33408" lon="3.83244">
        <ele>1166.22</ele>
        <time>2013-06-15T08:04:42Z</time>
      </trkpt>
      <trkpt lat="44.33409" lon="3.83221">
        <ele>1164.77</ele>
        <time>2013-06-15T08:04:48Z</time>
      </trkpt>
      <trkpt lat="44.33411" lon="3.83218">
        <ele>1164.29</ele>
        <time>2013-06-15T08:04:54Z</time>
      </trkpt>
      <trkpt lat="44.33412" lon="3.83218">
        <ele>1163.81</ele>
        <time>2013-06-15T08:04:57Z</time>
      </trkpt>
      <trkpt lat="44.33417" lon="3.83217">
        <ele>1164.77</ele>
        <time>2013-06-15T08:05:03Z</time>
      </trkpt>
      <trkpt lat="44.33426" lon="3.83222">
        <ele>1166.7</ele>
        <time>2013-06-15T08:05:12Z</time>
      </trkpt>
      <trkpt lat="44.33432" lon="3.83221">
        <ele>1167.66</ele>
        <time>2013-06-15T08:05:18Z</time>
      </trkpt>
      <trkpt lat="44.33433" lon="3.83224">
        <ele>1168.14</ele>
        <time>2013-06-15T08:05:20Z</time>
      </trkpt>
      <trkpt lat="44.33445" lon="3.83232">
        <ele>1170.54</ele>
        <time>2013-06-15T08:05:33Z</time>
      </trkpt>
      <trkpt lat="44.33451" lon="3.83241">
        <ele>1172.47</ele>
        <time>2013-06-15T08:05:42Z</time>
      </trkpt>
      <trkpt lat="44.33453" lon="3.83244">
        <ele>1173.43</ele>
        <time>2013-06-15T08:05:45Z</time>
      </trkpt>
      <trkpt lat="44.3346" lon="3.83255">
        <ele>1166.7</ele>
        <time>2013-06-15T08:05:55Z</time>
      </trkpt>
      <trkpt lat="44.3346" lon="3.83256">
        <ele>1175.83</ele>
        <time>2013-06-15T08:05:56Z</time>
      </trkpt>
      <trkpt lat="44.33466" lon="3.83265">
        <ele>1176.79</ele>
        <time>2013-06-15T08:06:05Z</time>
      </trkpt>
      <trkpt lat="44.33468" lon="3.83268">
        <ele>1177.75</ele>
        <time>2013-06-15T08:06:09Z</time>
      </trkpt>
      <trkpt lat="44.33477" lon="3.83271">
        <ele>1179.67</ele>
        <time>2013-06-15T08:06:18Z</time>
      </trkpt>
      <trkpt lat="44.33481" lon="3.83272">
        <ele>1180.16</ele>
        <time>2013-06-15T08:06:23Z</time>
      </trkpt>
      <trkpt lat="44.3349" lon="3.8328">
        <ele>1182.08</ele>
        <time>2013-06-15T08:06:34Z</time>
      </trkpt>
      <trkpt lat="44.33496" lon="3.83287">
        <ele>1184</ele>
        <time>2013-06-15T08:06:44Z</time>
      </trkpt>
      <trkpt lat="44.335" lon="3.8329">
        <ele>1184.96</ele>
        <time>2013-06-15T08:06:53Z</time>
      </trkpt>
      <trkpt lat="44.33508" lon="3.83296">
        <ele>1186.4</ele>
        <time>2013-06-15T08:07:04Z</time>
      </trkpt>
      <trkpt lat="44.33508" lon="3.83297">
        <ele>1187.37</ele>
        <time>2013-06-15T08:07:05Z</time>
      </trkpt>
      <trkpt lat="44.33517" lon="3.83301">
        <ele>1188.81</ele>
        <time>2013-06-15T08:07:15Z</time>
      </trkpt>
      <trkpt lat="44.33525" lon="3.83301">
        <ele>1190.25</ele>
        <time>2013-06-15T08:07:24Z</time>
      </trkpt>
      <trkpt lat="44.33535" lon="3.83305">
        <ele>1192.65</ele>
        <time>2013-06-15T08:07:35Z</time>
      </trkpt>
      <trkpt lat="44.33541" lon="3.8331">
        <ele>1193.61</ele>
        <time>2013-06-15T08:07:43Z</time>
      </trkpt>
      <trkpt lat="44.33542" lon="3.83311">
        <ele>1194.09</ele>
        <time>2013-06-15T08:07:45Z</time>
      </trkpt>
      <trkpt lat="44.33549" lon="3.83319">
        <ele>1195.54</ele>
        <time>2013-06-15T08:07:56Z</time>
      </trkpt>
      <trkpt lat="44.33555" lon="3.83324">
        <ele>1196.98</ele>
        <time>2013-06-15T08:08:03Z</time>
      </trkpt>
      <trkpt lat="44.33559" lon="3.83329">
        <ele>1197.94</ele>
        <time>2013-06-15T08:08:08Z</time>
      </trkpt>
      <trkpt lat="44.33566" lon="3.83335">
        <ele>1199.38</ele>
        <time>2013-06-15T08:08:16Z</time>
      </trkpt>
      <trkpt lat="44.33572" lon="3.83341">
        <ele>1202.75</ele>
        <time>2013-06-15T08:08:22Z</time>
      </trkpt>
      <trkpt lat="44.33579" lon="3.83347">
        <ele>1200.82</ele>
        <time>2013-06-15T08:08:30Z</time>
      </trkpt>
      <trkpt lat="44.3359" lon="3.83358">
        <ele>1202.27</ele>
        <time>2013-06-15T08:08:42Z</time>
      </trkpt>
      <trkpt lat="44.33595" lon="3.83365">
        <ele>1202.75</ele>
        <time>2013-06-15T08:08:47Z</time>
      </trkpt>
      <trkpt lat="44.33605" lon="3.83375">
        <ele>1204.19</ele>
        <time>2013-06-15T08:08:58Z</time>
      </trkpt>
      <trkpt lat="44.33614" lon="3.83384">
        <ele>1206.59</ele>
        <time>2013-06-15T08:09:09Z</time>
      </trkpt>
      <trkpt lat="44.33617" lon="3.83389">
        <ele>1206.59</ele>
        <time>2013-06-15T08:09:13Z</time>
      </trkpt>
      <trkpt lat="44.3362" lon="3.83395">
        <ele>1207.55</ele>
        <time>2013-06-15T08:09:17Z</time>
      </trkpt>
      <trkpt lat="44.33632" lon="3.83407">
        <ele>1210.44</ele>
        <time>2013-06-15T08:09:30Z</time>
      </trkpt>
      <trkpt lat="44.33634" lon="3.83409">
        <ele>1210.44</ele>
        <time>2013-06-15T08:09:32Z</time>
      </trkpt>
      <trkpt lat="44.33641" lon="3.83415">
        <ele>1211.4</ele>
        <time>2013-06-15T08:09:40Z</time>
      </trkpt>
      <trkpt lat="44.33647" lon="3.83427">
        <ele>1213.8</ele>
        <time>2013-06-15T08:09:51Z</time>
      </trkpt>
      <trkpt lat="44.3365" lon="3.83432">
        <ele>1214.28</ele>
        <time>2013-06-15T08:09:55Z</time>
      </trkpt>
      <trkpt lat="44.33652" lon="3.83444">
        <ele>1215.24</ele>
        <time>2013-06-15T08:10:06Z</time>
      </trkpt>
      <trkpt lat="44.33652" lon="3.83445">
        <ele>1215.24</ele>
        <time>2013-06-15T08:10:10Z</time>
      </trkpt>
      <trkpt lat="44.33652" lon="3.83446">
        <ele>1214.76</ele>
        <time>2013-06-15T08:10:12Z</time>
      </trkpt>
      <trkpt lat="44.33656" lon="3.83451">
        <ele>1213.8</ele>
        <time>2013-06-15T08:10:16Z</time>
      </trkpt>
      <trkpt lat="44.33659" lon="3.83453">
        <ele>1203.71</ele>
        <time>2013-06-15T08:10:18Z</time>
      </trkpt>
      <trkpt lat="44.3366" lon="3.83454">
        <ele>1216.21</ele>
        <time>2013-06-15T08:10:19Z</time>
      </trkpt>
      <trkpt lat="44.33662" lon="3.83455">
        <ele>1212.36</ele>
        <time>2013-06-15T08:10:20Z</time>
      </trkpt>
      <trkpt lat="44.33663" lon="3.83456">
        <ele>1216.21</ele>
        <time>2013-06-15T08:10:21Z</time>
      </trkpt>
      <trkpt lat="44.33681" lon="3.8347">
        <ele>1217.65</ele>
        <time>2013-06-15T08:10:32Z</time>
      </trkpt>
      <trkpt lat="44.3369" lon="3.83477">
        <ele>1219.09</ele>
        <time>2013-06-15T08:10:38Z</time>
      </trkpt>
      <trkpt lat="44.33705" lon="3.83483">
        <ele>1221.49</ele>
        <time>2013-06-15T08:10:48Z</time>
      </trkpt>
      <trkpt lat="44.33706" lon="3.83485">
        <ele>1222.45</ele>
        <time>2013-06-15T08:10:49Z</time>
      </trkpt>
      <trkpt lat="44.33709" lon="3.83499">
        <ele>1223.9</ele>
        <time>2013-06-15T08:10:56Z</time>
      </trkpt>
      <trkpt lat="44.33717" lon="3.8351">
        <ele>1225.34</ele>
        <time>2013-06-15T08:11:02Z</time>
      </trkpt>
      <trkpt lat="44.33724" lon="3.83519">
        <ele>1226.3</ele>
        <time>2013-06-15T08:11:07Z</time>
      </trkpt>
      <trkpt lat="44.33741" lon="3.83538">
        <ele>1228.22</ele>
        <time>2013-06-15T08:11:19Z</time>
      </trkpt>
      <trkpt lat="44.33757" lon="3.83556">
        <ele>1229.66</ele>
        <time>2013-06-15T08:11:29Z</time>
      </trkpt>
      <trkpt lat="44.33772" lon="3.83571">
        <ele>1230.62</ele>
        <time>2013-06-15T08:11:37Z</time>
      </trkpt>
      <trkpt lat="44.3379" lon="3.83593">
        <ele>1232.07</ele>
        <time>2013-06-15T08:11:47Z</time>
      </trkpt>
      <trkpt lat="44.33809" lon="3.83612">
        <ele>1238.32</ele>
        <time>2013-06-15T08:11:57Z</time>
      </trkpt>
      <trkpt lat="44.3381" lon="3.83614">
        <ele>1234.47</ele>
        <time>2013-06-15T08:11:58Z</time>
      </trkpt>
      <trkpt lat="44.33822" lon="3.8363">
        <ele>1234.95</ele>
        <time>2013-06-15T08:12:08Z</time>
      </trkpt>
      <trkpt lat="44.33823" lon="3.83629">
        <ele>1235.43</ele>
        <time>2013-06-15T08:12:26Z</time>
      </trkpt>
      <trkpt lat="44.33823" lon="3.83629">
        <ele>1235.43</ele>
        <time>2013-06-15T08:12:51Z</time>
      </trkpt>
      <trkpt lat="44.33823" lon="3.83629">
        <ele>1235.43</ele>
        <time>2013-06-15T08:13:11Z</time>
      </trkpt>
      <trkpt lat="44.33823" lon="3.83631">
        <ele>1234.47</ele>
        <time>2013-06-15T08:13:41Z</time>
      </trkpt>
      <trkpt lat="44.33822" lon="3.83631">
        <ele>1234.95</ele>
        <time>2013-06-15T08:14:15Z</time>
      </trkpt>
      <trkpt lat="44.33822" lon="3.83632">
        <ele>1235.43</ele>
        <time>2013-06-15T08:14:41Z</time>
      </trkpt>
      <trkpt lat="44.33821" lon="3.83632">
        <ele>1234.95</ele>
        <time>2013-06-15T08:15:06Z</time>
      </trkpt>
      <trkpt lat="44.33821" lon="3.83632">
        <ele>1235.91</ele>
        <time>2013-06-15T08:15:30Z</time>
      </trkpt>
      <trkpt lat="44.33823" lon="3.83632">
        <ele>1235.43</ele>
        <time>2013-06-15T08:15:42Z</time>
      </trkpt>
      <trkpt lat="44.33824" lon="3.83631">
        <ele>1232.07</ele>
        <time>2013-06-15T08:16:03Z</time>
      </trkpt>
      <trkpt lat="44.33824" lon="3.83631">
        <ele>1235.91</ele>
        <time>2013-06-15T08:16:04Z</time>
      </trkpt>
      <trkpt lat="44.33824" lon="3.83631">
        <ele>1235.91</ele>
        <time>2013-06-15T08:16:12Z</time>
      </trkpt>
      <trkpt lat="44.33824" lon="3.83631">
        <ele>1239.28</ele>
        <time>2013-06-15T08:16:13Z</time>
      </trkpt>
      <trkpt lat="44.33824" lon="3.83631">
        <ele>1235.43</ele>
        <time>2013-06-15T08:16:14Z</time>
      </trkpt>
      <trkpt lat="44.33824" lon="3.83631">
        <ele>1242.16</ele>
        <time>2013-06-15T08:16:15Z</time>
      </trkpt>
      <trkpt lat="44.33824" lon="3.83631">
        <ele>1235.91</ele>
        <time>2013-06-15T08:16:16Z</time>
      </trkpt>
      <trkpt lat="44.33824" lon="3.83631">
        <ele>1232.55</ele>
        <time>2013-06-15T08:16:18Z</time>
      </trkpt>
      <trkpt lat="44.33824" lon="3.83631">
        <ele>1235.43</ele>
        <time>2013-06-15T08:16:20Z</time>
      </trkpt>
      <trkpt lat="44.33824" lon="3.83631">
        <ele>1235.43</ele>
        <time>2013-06-15T08:16:39Z</time>
      </trkpt>
      <trkpt lat="44.33824" lon="3.83632">
        <ele>1235.43</ele>
        <time>2013-06-15T08:17:03Z</time>
      </trkpt>
      <trkpt lat="44.33823" lon="3.83632">
        <ele>1235.91</ele>
        <time>2013-06-15T08:17:15Z</time>
      </trkpt>
      <trkpt lat="44.33827" lon="3.83633">
        <ele>1234.95</ele>
        <time>2013-06-15T08:17:18Z</time>
      </trkpt>
      <trkpt lat="44.33836" lon="3.8364">
        <ele>1234.47</ele>
        <time>2013-06-15T08:17:26Z</time>
      </trkpt>
      <trkpt lat="44.3386" lon="3.83658">
        <ele>1232.55</ele>
        <time>2013-06-15T08:17:36Z</time>
      </trkpt>
      <trkpt lat="44.33886" lon="3.83676">
        <ele>1229.66</ele>
        <time>2013-06-15T08:17:42Z</time>
      </trkpt>
      <trkpt lat="44.3392" lon="3.83702">
        <ele>1226.3</ele>
        <time>2013-06-15T08:17:48Z</time>
      </trkpt>
      <trkpt lat="44.33934" lon="3.8371">
        <ele>1224.86</ele>
        <time>2013-06-15T08:17:50Z</time>
      </trkpt>
      <trkpt lat="44.33963" lon="3.83724">
        <ele>1223.42</ele>
        <time>2013-06-15T08:17:54Z</time>
      </trkpt>
      <trkpt lat="44.33999" lon="3.83745">
        <ele>1220.53</ele>
        <time>2013-06-15T08:17:59Z</time>
      </trkpt>
      <trkpt lat="44.34047" lon="3.83769">
        <ele>1216.69</ele>
        <time>2013-06-15T08:18:05Z</time>
      </trkpt>
      <trkpt lat="44.3407" lon="3.83779">
        <ele>1215.72</ele>
        <time>2013-06-15T08:18:08Z</time>
      </trkpt>
      <trkpt lat="44.3411" lon="3.83784">
        <ele>1217.65</ele>
        <time>2013-06-15T08:18:15Z</time>
      </trkpt>
      <trkpt lat="44.34124" lon="3.83787">
        <ele>1219.09</ele>
        <time>2013-06-15T08:18:23Z</time>
      </trkpt>
      <trkpt lat="44.34142" lon="3.8379">
        <ele>1221.49</ele>
        <time>2013-06-15T08:18:34Z</time>
      </trkpt>
      <trkpt lat="44.34161" lon="3.83795">
        <ele>1223.42</ele>
        <time>2013-06-15T08:18:45Z</time>
      </trkpt>
      <trkpt lat="44.34167" lon="3.83797">
        <ele>1224.86</ele>
        <time>2013-06-15T08:18:49Z</time>
      </trkpt>
      <trkpt lat="44.34178" lon="3.83799">
        <ele>1225.82</ele>
        <time>2013-06-15T08:18:57Z</time>
      </trkpt>
      <trkpt lat="44.34188" lon="3.838">
        <ele>1228.22</ele>
        <time>2013-06-15T08:19:05Z</time>
      </trkpt>
      <trkpt lat="44.34196" lon="3.838">
        <ele>1229.18</ele>
        <time>2013-06-15T08:19:11Z</time>
      </trkpt>
      <trkpt lat="44.34212" lon="3.83802">
        <ele>1231.59</ele>
        <time>2013-06-15T08:19:22Z</time>
      </trkpt>
      <trkpt lat="44.34215" lon="3.83803">
        <ele>1232.07</ele>
        <time>2013-06-15T08:19:24Z</time>
      </trkpt>
      <trkpt lat="44.34227" lon="3.83807">
        <ele>1233.51</ele>
        <time>2013-06-15T08:19:33Z</time>
      </trkpt>
      <trkpt lat="44.3423" lon="3.83808">
        <ele>1234.95</ele>
        <time>2013-06-15T08:19:35Z</time>
      </trkpt>
      <trkpt lat="44.34246" lon="3.83812">
        <ele>1236.87</ele>
        <time>2013-06-15T08:19:47Z</time>
      </trkpt>
      <trkpt lat="44.34249" lon="3.83813">
        <ele>1237.83</ele>
        <time>2013-06-15T08:19:49Z</time>
      </trkpt>
      <trkpt lat="44.34263" lon="3.83814">
        <ele>1239.76</ele>
        <time>2013-06-15T08:19:59Z</time>
      </trkpt>
      <trkpt lat="44.34269" lon="3.83814">
        <ele>1241.2</ele>
        <time>2013-06-15T08:20:04Z</time>
      </trkpt>
      <trkpt lat="44.34278" lon="3.83816">
        <ele>1242.64</ele>
        <time>2013-06-15T08:20:11Z</time>
      </trkpt>
      <trkpt lat="44.3428" lon="3.83816">
        <ele>1242.64</ele>
        <time>2013-06-15T08:20:13Z</time>
      </trkpt>
      <trkpt lat="44.34289" lon="3.83819">
        <ele>1244.56</ele>
        <time>2013-06-15T08:20:20Z</time>
      </trkpt>
      <trkpt lat="44.34306" lon="3.83822">
        <ele>1247.45</ele>
        <time>2013-06-15T08:20:33Z</time>
      </trkpt>
      <trkpt lat="44.3432" lon="3.83822">
        <ele>1249.37</ele>
        <time>2013-06-15T08:20:43Z</time>
      </trkpt>
      <trkpt lat="44.34323" lon="3.83822">
        <ele>1249.85</ele>
        <time>2013-06-15T08:20:45Z</time>
      </trkpt>
      <trkpt lat="44.34343" lon="3.83821">
        <ele>1252.25</ele>
        <time>2013-06-15T08:20:58Z</time>
      </trkpt>
      <trkpt lat="44.34359" lon="3.83819">
        <ele>1254.18</ele>
        <time>2013-06-15T08:21:09Z</time>
      </trkpt>
      <trkpt lat="44.34377" lon="3.83813">
        <ele>1257.06</ele>
        <time>2013-06-15T08:21:21Z</time>
      </trkpt>
      <trkpt lat="44.34388" lon="3.83807">
        <ele>1258.5</ele>
        <time>2013-06-15T08:21:29Z</time>
      </trkpt>
      <trkpt lat="44.34395" lon="3.8381">
        <ele>1260.43</ele>
        <time>2013-06-15T08:21:34Z</time>
      </trkpt>
      <trkpt lat="44.34411" lon="3.83809">
        <ele>1262.83</ele>
        <time>2013-06-15T08:21:45Z</time>
      </trkpt>
      <trkpt lat="44.34428" lon="3.83812">
        <ele>1264.75</ele>
        <time>2013-06-15T08:21:57Z</time>
      </trkpt>
      <trkpt lat="44.34442" lon="3.83817">
        <ele>1268.12</ele>
        <time>2013-06-15T08:22:07Z</time>
      </trkpt>
      <trkpt lat="44.34447" lon="3.83819">
        <ele>1268.12</ele>
        <time>2013-06-15T08:22:10Z</time>
      </trkpt>
      <trkpt lat="44.34465" lon="3.83818">
        <ele>1271</ele>
        <time>2013-06-15T08:22:22Z</time>
      </trkpt>
      <trkpt lat="44.34484" lon="3.83813">
        <ele>1273.4</ele>
        <time>2013-06-15T08:22:33Z</time>
      </trkpt>
      <trkpt lat="44.345" lon="3.8381">
        <ele>1275.81</ele>
        <time>2013-06-15T08:22:42Z</time>
      </trkpt>
      <trkpt lat="44.3452" lon="3.83807">
        <ele>1278.21</ele>
        <time>2013-06-15T08:22:53Z</time>
      </trkpt>
      <trkpt lat="44.34543" lon="3.83801">
        <ele>1279.65</ele>
        <time>2013-06-15T08:23:04Z</time>
      </trkpt>
      <trkpt lat="44.34554" lon="3.83795">
        <ele>1281.09</ele>
        <time>2013-06-15T08:23:10Z</time>
      </trkpt>
      <trkpt lat="44.34581" lon="3.83783">
        <ele>1281.57</ele>
        <time>2013-06-15T08:23:22Z</time>
      </trkpt>
      <trkpt lat="44.34606" lon="3.83774">
        <ele>1282.06</ele>
        <time>2013-06-15T08:23:32Z</time>
      </trkpt>
      <trkpt lat="44.34627" lon="3.8377">
        <ele>1282.06</ele>
        <time>2013-06-15T08:23:41Z</time>
      </trkpt>
      <trkpt lat="44.34659" lon="3.83759">
        <ele>1282.06</ele>
        <time>2013-06-15T08:23:53Z</time>
      </trkpt>
      <trkpt lat="44.34688" lon="3.83752">
        <ele>1282.54</ele>
        <time>2013-06-15T08:24:03Z</time>
      </trkpt>
      <trkpt lat="44.34712" lon="3.83744">
        <ele>1282.54</ele>
        <time>2013-06-15T08:24:12Z</time>
      </trkpt>
      <trkpt lat="44.34738" lon="3.83744">
        <ele>1283.02</ele>
        <time>2013-06-15T08:24:22Z</time>
      </trkpt>
      <trkpt lat="44.34769" lon="3.83737">
        <ele>1282.06</ele>
        <time>2013-06-15T08:24:31Z</time>
      </trkpt>
      <trkpt lat="44.34793" lon="3.83737">
        <ele>1280.61</ele>
        <time>2013-06-15T08:24:38Z</time>
      </trkpt>
      <trkpt lat="44.348" lon="3.83741">
        <ele>1280.61</ele>
        <time>2013-06-15T08:24:40Z</time>
      </trkpt>
      <trkpt lat="44.34812" lon="3.83745">
        <ele>1280.61</ele>
        <time>2013-06-15T08:24:43Z</time>
      </trkpt>
      <trkpt lat="44.34821" lon="3.83747">
        <ele>1279.65</ele>
        <time>2013-06-15T08:24:45Z</time>
      </trkpt>
      <trkpt lat="44.3485" lon="3.83753">
        <ele>1277.25</ele>
        <time>2013-06-15T08:24:52Z</time>
      </trkpt>
      <trkpt lat="44.34867" lon="3.83751">
        <ele>1275.81</ele>
        <time>2013-06-15T08:24:56Z</time>
      </trkpt>
      <trkpt lat="44.34886" lon="3.83741">
        <ele>1273.88</ele>
        <time>2013-06-15T08:25:01Z</time>
      </trkpt>
      <trkpt lat="44.34889" lon="3.83751">
        <ele>1272.92</ele>
        <time>2013-06-15T08:25:05Z</time>
      </trkpt>
      <trkpt lat="44.34896" lon="3.83758">
        <ele>1271</ele>
        <time>2013-06-15T08:25:12Z</time>
      </trkpt>
      <trkpt lat="44.34917" lon="3.83747">
        <ele>1268.12</ele>
        <time>2013-06-15T08:25:18Z</time>
      </trkpt>
      <trkpt lat="44.34949" lon="3.83741">
        <ele>1266.19</ele>
        <time>2013-06-15T08:25:27Z</time>
      </trkpt>
      <trkpt lat="44.34955" lon="3.8376">
        <ele>1264.27</ele>
        <time>2013-06-15T08:25:31Z</time>
      </trkpt>
      <trkpt lat="44.34967" lon="3.83773">
        <ele>1262.83</ele>
        <time>2013-06-15T08:25:36Z</time>
      </trkpt>
      <trkpt lat="44.3498" lon="3.83773">
        <ele>1260.91</ele>
        <time>2013-06-15T08:25:39Z</time>
      </trkpt>
      <trkpt lat="44.34995" lon="3.83771">
        <ele>1259.46</ele>
        <time>2013-06-15T08:25:42Z</time>
      </trkpt>
      <trkpt lat="44.35014" lon="3.83769">
        <ele>1258.02</ele>
        <time>2013-06-15T08:25:46Z</time>
      </trkpt>
      <trkpt lat="44.35023" lon="3.83776">
        <ele>1256.1</ele>
        <time>2013-06-15T08:25:48Z</time>
      </trkpt>
      <trkpt lat="44.35049" lon="3.83783">
        <ele>1254.66</ele>
        <time>2013-06-15T08:25:53Z</time>
      </trkpt>
      <trkpt lat="44.35059" lon="3.83785">
        <ele>1254.18</ele>
        <time>2013-06-15T08:25:55Z</time>
      </trkpt>
      <trkpt lat="44.35072" lon="3.83794">
        <ele>1253.7</ele>
        <time>2013-06-15T08:25:58Z</time>
      </trkpt>
      <trkpt lat="44.35097" lon="3.83801">
        <ele>1253.22</ele>
        <time>2013-06-15T08:26:04Z</time>
      </trkpt>
      <trkpt lat="44.35116" lon="3.83817">
        <ele>1253.22</ele>
        <time>2013-06-15T08:26:10Z</time>
      </trkpt>
      <trkpt lat="44.35136" lon="3.83816">
        <ele>1252.25</ele>
        <time>2013-06-15T08:26:16Z</time>
      </trkpt>
      <trkpt lat="44.35182" lon="3.83813">
        <ele>1251.77</ele>
        <time>2013-06-15T08:26:28Z</time>
      </trkpt>
      <trkpt lat="44.35191" lon="3.83814">
        <ele>1252.25</ele>
        <time>2013-06-15T08:26:30Z</time>
      </trkpt>
      <trkpt lat="44.35238" lon="3.83818">
        <ele>1251.77</ele>
        <time>2013-06-15T08:26:42Z</time>
      </trkpt>
      <trkpt lat="44.35259" lon="3.83808">
        <ele>1254.18</ele>
        <time>2013-06-15T08:26:51Z</time>
      </trkpt>
      <trkpt lat="44.3526" lon="3.83808">
        <ele>1254.18</ele>
        <time>2013-06-15T08:26:58Z</time>
      </trkpt>
      <trkpt lat="44.35261" lon="3.83809">
        <ele>1254.18</ele>
        <time>2013-06-15T08:27:11Z</time>
      </trkpt>
      <trkpt lat="44.35261" lon="3.83809">
        <ele>1254.18</ele>
        <time>2013-06-15T08:27:13Z</time>
      </trkpt>
      <trkpt lat="44.35269" lon="3.83805">
        <ele>1254.18</ele>
        <time>2013-06-15T08:27:18Z</time>
      </trkpt>
      <trkpt lat="44.35289" lon="3.83797">
        <ele>1254.66</ele>
        <time>2013-06-15T08:27:28Z</time>
      </trkpt>
      <trkpt lat="44.35307" lon="3.83795">
        <ele>1255.62</ele>
        <time>2013-06-15T08:27:38Z</time>
      </trkpt>
      <trkpt lat="44.35318" lon="3.83794">
        <ele>1258.02</ele>
        <time>2013-06-15T08:27:44Z</time>
      </trkpt>
      <trkpt lat="44.35321" lon="3.83793">
        <ele>1258.5</ele>
        <time>2013-06-15T08:27:46Z</time>
      </trkpt>
      <trkpt lat="44.35325" lon="3.83791">
        <ele>1258.5</ele>
        <time>2013-06-15T08:27:49Z</time>
      </trkpt>
      <trkpt lat="44.3533" lon="3.83785">
        <ele>1259.46</ele>
        <time>2013-06-15T08:27:57Z</time>
      </trkpt>
      <trkpt lat="44.35332" lon="3.83785">
        <ele>1259.94</ele>
        <time>2013-06-15T08:27:59Z</time>
      </trkpt>
      <trkpt lat="44.35345" lon="3.83783">
        <ele>1260.91</ele>
        <time>2013-06-15T08:28:11Z</time>
      </trkpt>
      <trkpt lat="44.35347" lon="3.83773">
        <ele>1261.39</ele>
        <time>2013-06-15T08:28:21Z</time>
      </trkpt>
      <trkpt lat="44.35354" lon="3.83765">
        <ele>1262.35</ele>
        <time>2013-06-15T08:28:28Z</time>
      </trkpt>
      <trkpt lat="44.35367" lon="3.8376">
        <ele>1263.79</ele>
        <time>2013-06-15T08:28:38Z</time>
      </trkpt>
      <trkpt lat="44.35369" lon="3.8376">
        <ele>1263.79</ele>
        <time>2013-06-15T08:28:39Z</time>
      </trkpt>
      <trkpt lat="44.35374" lon="3.83758">
        <ele>1264.27</ele>
        <time>2013-06-15T08:28:48Z</time>
      </trkpt>
      <trkpt lat="44.35373" lon="3.83758">
        <ele>1263.79</ele>
        <time>2013-06-15T08:29:12Z</time>
      </trkpt>
      <trkpt lat="44.35374" lon="3.83757">
        <ele>1264.27</ele>
        <time>2013-06-15T08:29:24Z</time>
      </trkpt>
      <trkpt lat="44.35388" lon="3.8375">
        <ele>1265.23</ele>
        <time>2013-06-15T08:29:35Z</time>
      </trkpt>
      <trkpt lat="44.35396" lon="3.83742">
        <ele>1265.71</ele>
        <time>2013-06-15T08:29:41Z</time>
      </trkpt>
      <trkpt lat="44.35404" lon="3.8374">
        <ele>1267.16</ele>
        <time>2013-06-15T08:29:48Z</time>
      </trkpt>
      <trkpt lat="44.35406" lon="3.83748">
        <ele>1267.64</ele>
        <time>2013-06-15T08:29:53Z</time>
      </trkpt>
      <trkpt lat="44.35414" lon="3.83749">
        <ele>1269.08</ele>
        <time>2013-06-15T08:30:01Z</time>
      </trkpt>
      <trkpt lat="44.35415" lon="3.83749">
        <ele>1268.6</ele>
        <time>2013-06-15T08:30:14Z</time>
      </trkpt>
      <trkpt lat="44.35419" lon="3.83746">
        <ele>1270.04</ele>
        <time>2013-06-15T08:30:23Z</time>
      </trkpt>
      <trkpt lat="44.3542" lon="3.83746">
        <ele>1270.52</ele>
        <time>2013-06-15T08:30:24Z</time>
      </trkpt>
      <trkpt lat="44.35425" lon="3.83747">
        <ele>1271.96</ele>
        <time>2013-06-15T08:30:30Z</time>
      </trkpt>
      <trkpt lat="44.3543" lon="3.83741">
        <ele>1271.96</ele>
        <time>2013-06-15T08:30:40Z</time>
      </trkpt>
      <trkpt lat="44.35433" lon="3.83739">
        <ele>1274.36</ele>
        <time>2013-06-15T08:30:50Z</time>
      </trkpt>
      <trkpt lat="44.35437" lon="3.8374">
        <ele>1274.85</ele>
        <time>2013-06-15T08:30:59Z</time>
      </trkpt>
      <trkpt lat="44.35442" lon="3.83742">
        <ele>1276.29</ele>
        <time>2013-06-15T08:31:06Z</time>
      </trkpt>
      <trkpt lat="44.35448" lon="3.83738">
        <ele>1277.25</ele>
        <time>2013-06-15T08:31:16Z</time>
      </trkpt>
      <trkpt lat="44.35448" lon="3.83738">
        <ele>1277.25</ele>
        <time>2013-06-15T08:31:17Z</time>
      </trkpt>
      <trkpt lat="44.35451" lon="3.83734">
        <ele>1278.21</ele>
        <time>2013-06-15T08:31:24Z</time>
      </trkpt>
      <trkpt lat="44.35452" lon="3.83733">
        <ele>1278.21</ele>
        <time>2013-06-15T08:31:25Z</time>
      </trkpt>
      <trkpt lat="44.35454" lon="3.83731">
        <ele>1279.17</ele>
        <time>2013-06-15T08:31:29Z</time>
      </trkpt>
      <trkpt lat="44.35457" lon="3.83725">
        <ele>1280.13</ele>
        <time>2013-06-15T08:31:37Z</time>
      </trkpt>
      <trkpt lat="44.35461" lon="3.83721">
        <ele>1281.57</ele>
        <time>2013-06-15T08:31:44Z</time>
      </trkpt>
      <trkpt lat="44.35466" lon="3.83722">
        <ele>1282.06</ele>
        <time>2013-06-15T08:31:50Z</time>
      </trkpt>
      <trkpt lat="44.3547" lon="3.8372">
        <ele>1283.02</ele>
        <time>2013-06-15T08:31:55Z</time>
      </trkpt>
      <trkpt lat="44.35475" lon="3.83716">
        <ele>1283.98</ele>
        <time>2013-06-15T08:32:05Z</time>
      </trkpt>
      <trkpt lat="44.35479" lon="3.83713">
        <ele>1285.42</ele>
        <time>2013-06-15T08:32:12Z</time>
      </trkpt>
      <trkpt lat="44.35482" lon="3.83709">
        <ele>1286.86</ele>
        <time>2013-06-15T08:32:19Z</time>
      </trkpt>
      <trkpt lat="44.35487" lon="3.83698">
        <ele>1287.34</ele>
        <time>2013-06-15T08:32:30Z</time>
      </trkpt>
      <trkpt lat="44.3549" lon="3.83689">
        <ele>1288.3</ele>
        <time>2013-06-15T08:32:39Z</time>
      </trkpt>
      <trkpt lat="44.35495" lon="3.83688">
        <ele>1289.27</ele>
        <time>2013-06-15T08:32:45Z</time>
      </trkpt>
      <trkpt lat="44.35505" lon="3.83684">
        <ele>1291.67</ele>
        <time>2013-06-15T08:32:57Z</time>
      </trkpt>
      <trkpt lat="44.35508" lon="3.8368">
        <ele>1292.15</ele>
        <time>2013-06-15T08:33:03Z</time>
      </trkpt>
      <trkpt lat="44.35511" lon="3.83677">
        <ele>1292.15</ele>
        <time>2013-06-15T08:33:06Z</time>
      </trkpt>
      <trkpt lat="44.35512" lon="3.83668">
        <ele>1292.15</ele>
        <time>2013-06-15T08:33:13Z</time>
      </trkpt>
      <trkpt lat="44.35514" lon="3.83665">
        <ele>1292.15</ele>
        <time>2013-06-15T08:33:16Z</time>
      </trkpt>
      <trkpt lat="44.35514" lon="3.8366">
        <ele>1292.15</ele>
        <time>2013-06-15T08:33:19Z</time>
      </trkpt>
      <trkpt lat="44.35519" lon="3.83646">
        <ele>1293.11</ele>
        <time>2013-06-15T08:33:30Z</time>
      </trkpt>
      <trkpt lat="44.35523" lon="3.83643">
        <ele>1292.63</ele>
        <time>2013-06-15T08:33:39Z</time>
      </trkpt>
      <trkpt lat="44.35524" lon="3.83642">
        <ele>1293.11</ele>
        <time>2013-06-15T08:33:40Z</time>
      </trkpt>
      <trkpt lat="44.35528" lon="3.83641">
        <ele>1284.46</ele>
        <time>2013-06-15T08:33:44Z</time>
      </trkpt>
      <trkpt lat="44.35529" lon="3.83641">
        <ele>1295.03</ele>
        <time>2013-06-15T08:33:45Z</time>
      </trkpt>
      <trkpt lat="44.3553" lon="3.83641">
        <ele>1298.88</ele>
        <time>2013-06-15T08:33:46Z</time>
      </trkpt>
      <trkpt lat="44.35531" lon="3.83641">
        <ele>1294.07</ele>
        <time>2013-06-15T08:33:47Z</time>
      </trkpt>
      <trkpt lat="44.35533" lon="3.83639">
        <ele>1294.07</ele>
        <time>2013-06-15T08:34:01Z</time>
      </trkpt>
      <trkpt lat="44.35545" lon="3.83634">
        <ele>1295.99</ele>
        <time>2013-06-15T08:34:10Z</time>
      </trkpt>
      <trkpt lat="44.35567" lon="3.83624">
        <ele>1298.4</ele>
        <time>2013-06-15T08:34:21Z</time>
      </trkpt>
      <trkpt lat="44.35581" lon="3.83619">
        <ele>1299.36</ele>
        <time>2013-06-15T08:34:28Z</time>
      </trkpt>
      <trkpt lat="44.35589" lon="3.83622">
        <ele>1299.84</ele>
        <time>2013-06-15T08:34:33Z</time>
      </trkpt>
      <trkpt lat="44.35593" lon="3.83627">
        <ele>1299.84</ele>
        <time>2013-06-15T08:34:37Z</time>
      </trkpt>
      <trkpt lat="44.35609" lon="3.83618">
        <ele>1300.32</ele>
        <time>2013-06-15T08:34:47Z</time>
      </trkpt>
      <trkpt lat="44.35617" lon="3.83615">
        <ele>1301.28</ele>
        <time>2013-06-15T08:34:51Z</time>
      </trkpt>
      <trkpt lat="44.35621" lon="3.83611">
        <ele>1300.8</ele>
        <time>2013-06-15T08:34:54Z</time>
      </trkpt>
      <trkpt lat="44.35621" lon="3.83607">
        <ele>1301.76</ele>
        <time>2013-06-15T08:35:02Z</time>
      </trkpt>
      <trkpt lat="44.35622" lon="3.83603">
        <ele>1301.76</ele>
        <time>2013-06-15T08:35:06Z</time>
      </trkpt>
      <trkpt lat="44.35622" lon="3.83596">
        <ele>1302.24</ele>
        <time>2013-06-15T08:35:10Z</time>
      </trkpt>
      <trkpt lat="44.35625" lon="3.83593">
        <ele>1302.72</ele>
        <time>2013-06-15T08:35:13Z</time>
      </trkpt>
      <trkpt lat="44.35626" lon="3.83591">
        <ele>1302.24</ele>
        <time>2013-06-15T08:35:15Z</time>
      </trkpt>
      <trkpt lat="44.35626" lon="3.83577">
        <ele>1303.69</ele>
        <time>2013-06-15T08:35:24Z</time>
      </trkpt>
      <trkpt lat="44.35627" lon="3.83576">
        <ele>1303.69</ele>
        <time>2013-06-15T08:35:30Z</time>
      </trkpt>
      <trkpt lat="44.35628" lon="3.83573">
        <ele>1304.17</ele>
        <time>2013-06-15T08:35:33Z</time>
      </trkpt>
      <trkpt lat="44.35644" lon="3.83555">
        <ele>1305.13</ele>
        <time>2013-06-15T08:35:44Z</time>
      </trkpt>
      <trkpt lat="44.35647" lon="3.83554">
        <ele>1305.61</ele>
        <time>2013-06-15T08:35:46Z</time>
      </trkpt>
      <trkpt lat="44.35655" lon="3.83549">
        <ele>1306.09</ele>
        <time>2013-06-15T08:35:51Z</time>
      </trkpt>
      <trkpt lat="44.35662" lon="3.83536">
        <ele>1306.57</ele>
        <time>2013-06-15T08:35:59Z</time>
      </trkpt>
      <trkpt lat="44.35674" lon="3.83526">
        <ele>1307.53</ele>
        <time>2013-06-15T08:36:09Z</time>
      </trkpt>
      <trkpt lat="44.35679" lon="3.83526">
        <ele>1307.53</ele>
        <time>2013-06-15T08:36:12Z</time>
      </trkpt>
      <trkpt lat="44.35701" lon="3.83526">
        <ele>1308.97</ele>
        <time>2013-06-15T08:36:24Z</time>
      </trkpt>
      <trkpt lat="44.35702" lon="3.83526">
        <ele>1309.45</ele>
        <time>2013-06-15T08:36:25Z</time>
      </trkpt>
      <trkpt lat="44.35706" lon="3.83515">
        <ele>1309.93</ele>
        <time>2013-06-15T08:36:31Z</time>
      </trkpt>
      <trkpt lat="44.35706" lon="3.83511">
        <ele>1310.9</ele>
        <time>2013-06-15T08:36:34Z</time>
      </trkpt>
      <trkpt lat="44.35717" lon="3.83498">
        <ele>1312.34</ele>
        <time>2013-06-15T08:36:45Z</time>
      </trkpt>
      <trkpt lat="44.35721" lon="3.8349">
        <ele>1313.3</ele>
        <time>2013-06-15T08:36:50Z</time>
      </trkpt>
      <trkpt lat="44.35719" lon="3.83476">
        <ele>1315.7</ele>
        <time>2013-06-15T08:36:57Z</time>
      </trkpt>
      <trkpt lat="44.35723" lon="3.83468">
        <ele>1316.66</ele>
        <time>2013-06-15T08:37:03Z</time>
      </trkpt>
      <trkpt lat="44.35725" lon="3.83465">
        <ele>1316.66</ele>
        <time>2013-06-15T08:37:05Z</time>
      </trkpt>
      <trkpt lat="44.35734" lon="3.83465">
        <ele>1317.62</ele>
        <time>2013-06-15T08:37:12Z</time>
      </trkpt>
      <trkpt lat="44.35739" lon="3.83462">
        <ele>1318.59</ele>
        <time>2013-06-15T08:37:16Z</time>
      </trkpt>
      <trkpt lat="44.35759" lon="3.83465">
        <ele>1319.07</ele>
        <time>2013-06-15T08:37:28Z</time>
      </trkpt>
      <trkpt lat="44.35771" lon="3.83462">
        <ele>1320.99</ele>
        <time>2013-06-15T08:37:37Z</time>
      </trkpt>
      <trkpt lat="44.35775" lon="3.8346">
        <ele>1321.95</ele>
        <time>2013-06-15T08:37:40Z</time>
      </trkpt>
      <trkpt lat="44.35783" lon="3.83454">
        <ele>1322.91</ele>
        <time>2013-06-15T08:37:47Z</time>
      </trkpt>
      <trkpt lat="44.35795" lon="3.83451">
        <ele>1324.83</ele>
        <time>2013-06-15T08:37:56Z</time>
      </trkpt>
      <trkpt lat="44.35796" lon="3.8345">
        <ele>1324.83</ele>
        <time>2013-06-15T08:37:57Z</time>
      </trkpt>
      <trkpt lat="44.35803" lon="3.83445">
        <ele>1326.76</ele>
        <time>2013-06-15T08:38:04Z</time>
      </trkpt>
      <trkpt lat="44.35812" lon="3.8344">
        <ele>1328.68</ele>
        <time>2013-06-15T08:38:11Z</time>
      </trkpt>
      <trkpt lat="44.35818" lon="3.83436">
        <ele>1324.83</ele>
        <time>2013-06-15T08:38:20Z</time>
      </trkpt>
      <trkpt lat="44.35818" lon="3.83435">
        <ele>1329.64</ele>
        <time>2013-06-15T08:38:21Z</time>
      </trkpt>
      <trkpt lat="44.35823" lon="3.83429">
        <ele>1331.56</ele>
        <time>2013-06-15T08:38:32Z</time>
      </trkpt>
      <trkpt lat="44.35827" lon="3.83419">
        <ele>1333.49</ele>
        <time>2013-06-15T08:38:43Z</time>
      </trkpt>
      <trkpt lat="44.35831" lon="3.83416">
        <ele>1334.45</ele>
        <time>2013-06-15T08:38:51Z</time>
      </trkpt>
      <trkpt lat="44.35832" lon="3.83416">
        <ele>1333.97</ele>
        <time>2013-06-15T08:39:16Z</time>
      </trkpt>
      <trkpt lat="44.35833" lon="3.83416">
        <ele>1333.49</ele>
        <time>2013-06-15T08:39:35Z</time>
      </trkpt>
      <trkpt lat="44.35832" lon="3.83416">
        <ele>1333.01</ele>
        <time>2013-06-15T08:40:05Z</time>
      </trkpt>
      <trkpt lat="44.35833" lon="3.83417">
        <ele>1333.97</ele>
        <time>2013-06-15T08:40:11Z</time>
      </trkpt>
      <trkpt lat="44.35834" lon="3.8341">
        <ele>1334.93</ele>
        <time>2013-06-15T08:40:20Z</time>
      </trkpt>
      <trkpt lat="44.35836" lon="3.83405">
        <ele>1335.89</ele>
        <time>2013-06-15T08:40:26Z</time>
      </trkpt>
      <trkpt lat="44.35841" lon="3.83396">
        <ele>1338.29</ele>
        <time>2013-06-15T08:40:36Z</time>
      </trkpt>
      <trkpt lat="44.35836" lon="3.83386">
        <ele>1339.25</ele>
        <time>2013-06-15T08:40:46Z</time>
      </trkpt>
      <trkpt lat="44.35832" lon="3.83384">
        <ele>1339.73</ele>
        <time>2013-06-15T08:40:50Z</time>
      </trkpt>
      <trkpt lat="44.3583" lon="3.83378">
        <ele>1340.22</ele>
        <time>2013-06-15T08:40:54Z</time>
      </trkpt>
      <trkpt lat="44.35829" lon="3.83367">
        <ele>1340.7</ele>
        <time>2013-06-15T08:41:01Z</time>
      </trkpt>
      <trkpt lat="44.35832" lon="3.83358">
        <ele>1341.18</ele>
        <time>2013-06-15T08:41:07Z</time>
      </trkpt>
      <trkpt lat="44.35832" lon="3.83349">
        <ele>1347.43</ele>
        <time>2013-06-15T08:41:13Z</time>
      </trkpt>
      <trkpt lat="44.35833" lon="3.83348">
        <ele>1342.62</ele>
        <time>2013-06-15T08:41:14Z</time>
      </trkpt>
      <trkpt lat="44.35834" lon="3.83348">
        <ele>1342.62</ele>
        <time>2013-06-15T08:41:15Z</time>
      </trkpt>
      <trkpt lat="44.35836" lon="3.83346">
        <ele>1343.1</ele>
        <time>2013-06-15T08:41:17Z</time>
      </trkpt>
      <trkpt lat="44.35843" lon="3.83339">
        <ele>1343.1</ele>
        <time>2013-06-15T08:41:26Z</time>
      </trkpt>
      <trkpt lat="44.35845" lon="3.83338">
        <ele>1343.58</ele>
        <time>2013-06-15T08:41:29Z</time>
      </trkpt>
      <trkpt lat="44.35854" lon="3.83329">
        <ele>1343.58</ele>
        <time>2013-06-15T08:41:39Z</time>
      </trkpt>
      <trkpt lat="44.35861" lon="3.83335">
        <ele>1345.5</ele>
        <time>2013-06-15T08:41:46Z</time>
      </trkpt>
      <trkpt lat="44.35873" lon="3.83334">
        <ele>1345.5</ele>
        <time>2013-06-15T08:41:56Z</time>
      </trkpt>
      <trkpt lat="44.35873" lon="3.83334">
        <ele>1345.98</ele>
        <time>2013-06-15T08:41:59Z</time>
      </trkpt>
      <trkpt lat="44.35887" lon="3.83324">
        <ele>1345.98</ele>
        <time>2013-06-15T08:42:08Z</time>
      </trkpt>
      <trkpt lat="44.35898" lon="3.83317">
        <ele>1346.46</ele>
        <time>2013-06-15T08:42:18Z</time>
      </trkpt>
      <trkpt lat="44.359" lon="3.83316">
        <ele>1345.98</ele>
        <time>2013-06-15T08:42:21Z</time>
      </trkpt>
      <trkpt lat="44.35909" lon="3.83313">
        <ele>1346.46</ele>
        <time>2013-06-15T08:42:29Z</time>
      </trkpt>
      <trkpt lat="44.3591" lon="3.83312">
        <ele>1345.98</ele>
        <time>2013-06-15T08:42:30Z</time>
      </trkpt>
      <trkpt lat="44.35912" lon="3.83308">
        <ele>1345.5</ele>
        <time>2013-06-15T08:42:35Z</time>
      </trkpt>
      <trkpt lat="44.35924" lon="3.83295">
        <ele>1344.06</ele>
        <time>2013-06-15T08:42:43Z</time>
      </trkpt>
      <trkpt lat="44.3593" lon="3.83288">
        <ele>1343.58</ele>
        <time>2013-06-15T08:42:46Z</time>
      </trkpt>
      <trkpt lat="44.35945" lon="3.83276">
        <ele>1341.66</ele>
        <time>2013-06-15T08:42:54Z</time>
      </trkpt>
      <trkpt lat="44.35946" lon="3.83275">
        <ele>1342.14</ele>
        <time>2013-06-15T08:42:55Z</time>
      </trkpt>
      <trkpt lat="44.35956" lon="3.83272">
        <ele>1342.14</ele>
        <time>2013-06-15T08:43:00Z</time>
      </trkpt>
      <trkpt lat="44.35976" lon="3.8325">
        <ele>1342.62</ele>
        <time>2013-06-15T08:43:09Z</time>
      </trkpt>
      <trkpt lat="44.35978" lon="3.83247">
        <ele>1342.62</ele>
        <time>2013-06-15T08:43:10Z</time>
      </trkpt>
      <trkpt lat="44.35991" lon="3.83233">
        <ele>1344.54</ele>
        <time>2013-06-15T08:43:18Z</time>
      </trkpt>
      <trkpt lat="44.35996" lon="3.83229">
        <ele>1344.54</ele>
        <time>2013-06-15T08:43:21Z</time>
      </trkpt>
      <trkpt lat="44.36001" lon="3.83226">
        <ele>1344.54</ele>
        <time>2013-06-15T08:43:24Z</time>
      </trkpt>
      <trkpt lat="44.36011" lon="3.83217">
        <ele>1345.02</ele>
        <time>2013-06-15T08:43:32Z</time>
      </trkpt>
      <trkpt lat="44.36011" lon="3.83217">
        <ele>1345.5</ele>
        <time>2013-06-15T08:43:33Z</time>
      </trkpt>
      <trkpt lat="44.36013" lon="3.83215">
        <ele>1345.5</ele>
        <time>2013-06-15T08:43:35Z</time>
      </trkpt>
      <trkpt lat="44.36017" lon="3.83209">
        <ele>1345.98</ele>
        <time>2013-06-15T08:43:39Z</time>
      </trkpt>
      <trkpt lat="44.36019" lon="3.83208">
        <ele>1345.98</ele>
        <time>2013-06-15T08:43:41Z</time>
      </trkpt>
      <trkpt lat="44.36021" lon="3.83206">
        <ele>1345.98</ele>
        <time>2013-06-15T08:43:43Z</time>
      </trkpt>
      <trkpt lat="44.3603" lon="3.83198">
        <ele>1347.91</ele>
        <time>2013-06-15T08:43:50Z</time>
      </trkpt>
      <trkpt lat="44.36034" lon="3.83188">
        <ele>1347.91</ele>
        <time>2013-06-15T08:43:56Z</time>
      </trkpt>
      <trkpt lat="44.36037" lon="3.83186">
        <ele>1347.91</ele>
        <time>2013-06-15T08:43:58Z</time>
      </trkpt>
      <trkpt lat="44.36041" lon="3.83172">
        <ele>1348.87</ele>
        <time>2013-06-15T08:44:04Z</time>
      </trkpt>
      <trkpt lat="44.36047" lon="3.8316">
        <ele>1345.5</ele>
        <time>2013-06-15T08:44:10Z</time>
      </trkpt>
      <trkpt lat="44.36048" lon="3.83159">
        <ele>1350.31</ele>
        <time>2013-06-15T08:44:11Z</time>
      </trkpt>
      <trkpt lat="44.36055" lon="3.83152">
        <ele>1351.27</ele>
        <time>2013-06-15T08:44:17Z</time>
      </trkpt>
      <trkpt lat="44.36057" lon="3.83136">
        <ele>1350.79</ele>
        <time>2013-06-15T08:44:26Z</time>
      </trkpt>
      <trkpt lat="44.36056" lon="3.83126">
        <ele>1350.31</ele>
        <time>2013-06-15T08:44:30Z</time>
      </trkpt>
      <trkpt lat="44.36059" lon="3.83118">
        <ele>1349.83</ele>
        <time>2013-06-15T08:44:36Z</time>
      </trkpt>
      <trkpt lat="44.3606" lon="3.83109">
        <ele>1349.83</ele>
        <time>2013-06-15T08:44:45Z</time>
      </trkpt>
      <trkpt lat="44.36061" lon="3.83107">
        <ele>1345.02</ele>
        <time>2013-06-15T08:44:48Z</time>
      </trkpt>
      <trkpt lat="44.36062" lon="3.83106">
        <ele>1349.83</ele>
        <time>2013-06-15T08:44:49Z</time>
      </trkpt>
      <trkpt lat="44.36063" lon="3.83105">
        <ele>1350.31</ele>
        <time>2013-06-15T08:44:50Z</time>
      </trkpt>
      <trkpt lat="44.36072" lon="3.83102">
        <ele>1350.31</ele>
        <time>2013-06-15T08:44:59Z</time>
      </trkpt>
      <trkpt lat="44.36077" lon="3.831">
        <ele>1351.27</ele>
        <time>2013-06-15T08:45:08Z</time>
      </trkpt>
      <trkpt lat="44.36079" lon="3.83098">
        <ele>1350.79</ele>
        <time>2013-06-15T08:45:11Z</time>
      </trkpt>
      <trkpt lat="44.36082" lon="3.83094">
        <ele>1351.27</ele>
        <time>2013-06-15T08:45:20Z</time>
      </trkpt>
      <trkpt lat="44.36085" lon="3.83104">
        <ele>1353.19</ele>
        <time>2013-06-15T08:45:27Z</time>
      </trkpt>
      <trkpt lat="44.36086" lon="3.8311">
        <ele>1354.15</ele>
        <time>2013-06-15T08:45:32Z</time>
      </trkpt>
      <trkpt lat="44.36088" lon="3.83115">
        <ele>1354.63</ele>
        <time>2013-06-15T08:45:36Z</time>
      </trkpt>
      <trkpt lat="44.36091" lon="3.83117">
        <ele>1356.08</ele>
        <time>2013-06-15T08:45:39Z</time>
      </trkpt>
      <trkpt lat="44.36096" lon="3.83116">
        <ele>1356.56</ele>
        <time>2013-06-15T08:45:48Z</time>
      </trkpt>
      <trkpt lat="44.36096" lon="3.83116">
        <ele>1356.08</ele>
        <time>2013-06-15T08:45:49Z</time>
      </trkpt>
      <trkpt lat="44.36096" lon="3.83113">
        <ele>1356.56</ele>
        <time>2013-06-15T08:45:51Z</time>
      </trkpt>
      <trkpt lat="44.36108" lon="3.83097">
        <ele>1356.08</ele>
        <time>2013-06-15T08:46:00Z</time>
      </trkpt>
      <trkpt lat="44.3611" lon="3.83094">
        <ele>1356.08</ele>
        <time>2013-06-15T08:46:01Z</time>
      </trkpt>
      <trkpt lat="44.36114" lon="3.83089">
        <ele>1356.56</ele>
        <time>2013-06-15T08:46:03Z</time>
      </trkpt>
      <trkpt lat="44.36126" lon="3.83084">
        <ele>1356.08</ele>
        <time>2013-06-15T08:46:08Z</time>
      </trkpt>
      <trkpt lat="44.36133" lon="3.8307">
        <ele>1355.12</ele>
        <time>2013-06-15T08:46:12Z</time>
      </trkpt>
      <trkpt lat="44.36136" lon="3.83067">
        <ele>1354.63</ele>
        <time>2013-06-15T08:46:13Z</time>
      </trkpt>
      <trkpt lat="44.3617" lon="3.83034">
        <ele>1355.6</ele>
        <time>2013-06-15T08:46:25Z</time>
      </trkpt>
      <trkpt lat="44.36193" lon="3.8301">
        <ele>1354.63</ele>
        <time>2013-06-15T08:46:34Z</time>
      </trkpt>
      <trkpt lat="44.36199" lon="3.83005">
        <ele>1355.12</ele>
        <time>2013-06-15T08:46:36Z</time>
      </trkpt>
      <trkpt lat="44.36203" lon="3.82993">
        <ele>1355.6</ele>
        <time>2013-06-15T08:46:41Z</time>
      </trkpt>
      <trkpt lat="44.3622" lon="3.82975">
        <ele>1356.56</ele>
        <time>2013-06-15T08:46:50Z</time>
      </trkpt>
      <trkpt lat="44.36242" lon="3.82953">
        <ele>1356.56</ele>
        <time>2013-06-15T08:46:59Z</time>
      </trkpt>
      <trkpt lat="44.36256" lon="3.82941">
        <ele>1357.04</ele>
        <time>2013-06-15T08:47:04Z</time>
      </trkpt>
      <trkpt lat="44.36269" lon="3.82925">
        <ele>1357.52</ele>
        <time>2013-06-15T08:47:10Z</time>
      </trkpt>
      <trkpt lat="44.36279" lon="3.82913">
        <ele>1358</ele>
        <time>2013-06-15T08:47:14Z</time>
      </trkpt>
      <trkpt lat="44.36286" lon="3.82912">
        <ele>1358.96</ele>
        <time>2013-06-15T08:47:22Z</time>
      </trkpt>
      <trkpt lat="44.36291" lon="3.82911">
        <ele>1359.44</ele>
        <time>2013-06-15T08:47:26Z</time>
      </trkpt>
      <trkpt lat="44.36298" lon="3.82905">
        <ele>1359.92</ele>
        <time>2013-06-15T08:47:35Z</time>
      </trkpt>
      <trkpt lat="44.36305" lon="3.82905">
        <ele>1361.36</ele>
        <time>2013-06-15T08:47:42Z</time>
      </trkpt>
      <trkpt lat="44.36308" lon="3.82903">
        <ele>1361.84</ele>
        <time>2013-06-15T08:47:49Z</time>
      </trkpt>
      <trkpt lat="44.36316" lon="3.82901">
        <ele>1361.36</ele>
        <time>2013-06-15T08:47:54Z</time>
      </trkpt>
      <trkpt lat="44.36331" lon="3.82891">
        <ele>1361.36</ele>
        <time>2013-06-15T08:48:03Z</time>
      </trkpt>
      <trkpt lat="44.36346" lon="3.82874">
        <ele>1359.92</ele>
        <time>2013-06-15T08:48:12Z</time>
      </trkpt>
      <trkpt lat="44.36364" lon="3.82858">
        <ele>1360.4</ele>
        <time>2013-06-15T08:48:20Z</time>
      </trkpt>
      <trkpt lat="44.36398" lon="3.82831">
        <ele>1361.36</ele>
        <time>2013-06-15T08:48:33Z</time>
      </trkpt>
      <trkpt lat="44.36422" lon="3.82815">
        <ele>1362.33</ele>
        <time>2013-06-15T08:48:42Z</time>
      </trkpt>
      <trkpt lat="44.36449" lon="3.82796">
        <ele>1361.36</ele>
        <time>2013-06-15T08:48:52Z</time>
      </trkpt>
      <trkpt lat="44.36473" lon="3.82782">
        <ele>1360.88</ele>
        <time>2013-06-15T08:48:59Z</time>
      </trkpt>
      <trkpt lat="44.36483" lon="3.82771">
        <ele>1360.4</ele>
        <time>2013-06-15T08:49:02Z</time>
      </trkpt>
      <trkpt lat="44.36527" lon="3.82748">
        <ele>1359.44</ele>
        <time>2013-06-15T08:49:14Z</time>
      </trkpt>
      <trkpt lat="44.36553" lon="3.82736">
        <ele>1358.96</ele>
        <time>2013-06-15T08:49:22Z</time>
      </trkpt>
      <trkpt lat="44.36573" lon="3.82726">
        <ele>1357.52</ele>
        <time>2013-06-15T08:49:29Z</time>
      </trkpt>
      <trkpt lat="44.36591" lon="3.8271">
        <ele>1356.56</ele>
        <time>2013-06-15T08:49:35Z</time>
      </trkpt>
      <trkpt lat="44.36597" lon="3.82708">
        <ele>1356.56</ele>
        <time>2013-06-15T08:49:37Z</time>
      </trkpt>
      <trkpt lat="44.36626" lon="3.82697">
        <ele>1355.6</ele>
        <time>2013-06-15T08:49:45Z</time>
      </trkpt>
      <trkpt lat="44.36645" lon="3.82685">
        <ele>1354.15</ele>
        <time>2013-06-15T08:49:50Z</time>
      </trkpt>
      <trkpt lat="44.3666" lon="3.82659">
        <ele>1351.75</ele>
        <time>2013-06-15T08:49:57Z</time>
      </trkpt>
      <trkpt lat="44.36669" lon="3.82649">
        <ele>1349.83</ele>
        <time>2013-06-15T08:50:02Z</time>
      </trkpt>
      <trkpt lat="44.36686" lon="3.82641">
        <ele>1346.94</ele>
        <time>2013-06-15T08:50:10Z</time>
      </trkpt>
      <trkpt lat="44.36689" lon="3.82639">
        <ele>1346.94</ele>
        <time>2013-06-15T08:50:11Z</time>
      </trkpt>
      <trkpt lat="44.36697" lon="3.82631">
        <ele>1345.98</ele>
        <time>2013-06-15T08:50:14Z</time>
      </trkpt>
      <trkpt lat="44.36725" lon="3.82608">
        <ele>1342.14</ele>
        <time>2013-06-15T08:50:22Z</time>
      </trkpt>
      <trkpt lat="44.3673" lon="3.82604">
        <ele>1342.14</ele>
        <time>2013-06-15T08:50:23Z</time>
      </trkpt>
      <trkpt lat="44.36745" lon="3.8259">
        <ele>1341.18</ele>
        <time>2013-06-15T08:50:26Z</time>
      </trkpt>
      <trkpt lat="44.36775" lon="3.82568">
        <ele>1338.77</ele>
        <time>2013-06-15T08:50:35Z</time>
      </trkpt>
      <trkpt lat="44.36788" lon="3.82561">
        <ele>1338.29</ele>
        <time>2013-06-15T08:50:38Z</time>
      </trkpt>
      <trkpt lat="44.36802" lon="3.82551">
        <ele>1336.85</ele>
        <time>2013-06-15T08:50:41Z</time>
      </trkpt>
      <trkpt lat="44.36825" lon="3.82534">
        <ele>1335.89</ele>
        <time>2013-06-15T08:50:47Z</time>
      </trkpt>
      <trkpt lat="44.36829" lon="3.82531">
        <ele>1335.41</ele>
        <time>2013-06-15T08:50:48Z</time>
      </trkpt>
      <trkpt lat="44.36833" lon="3.82528">
        <ele>1335.41</ele>
        <time>2013-06-15T08:50:49Z</time>
      </trkpt>
      <trkpt lat="44.36871" lon="3.82505">
        <ele>1335.41</ele>
        <time>2013-06-15T08:50:59Z</time>
      </trkpt>
      <trkpt lat="44.36884" lon="3.82499">
        <ele>1335.89</ele>
        <time>2013-06-15T08:51:02Z</time>
      </trkpt>
      <trkpt lat="44.36924" lon="3.82469">
        <ele>1333.97</ele>
        <time>2013-06-15T08:51:11Z</time>
      </trkpt>
      <trkpt lat="44.36932" lon="3.8246">
        <ele>1333.49</ele>
        <time>2013-06-15T08:51:13Z</time>
      </trkpt>
      <trkpt lat="44.3694" lon="3.82453">
        <ele>1333.97</ele>
        <time>2013-06-15T08:51:15Z</time>
      </trkpt>
      <trkpt lat="44.36953" lon="3.82446">
        <ele>1333.01</ele>
        <time>2013-06-15T08:51:18Z</time>
      </trkpt>
      <trkpt lat="44.36974" lon="3.82425">
        <ele>1332.04</ele>
        <time>2013-06-15T08:51:23Z</time>
      </trkpt>
      <trkpt lat="44.36986" lon="3.82413">
        <ele>1331.56</ele>
        <time>2013-06-15T08:51:26Z</time>
      </trkpt>
      <trkpt lat="44.36999" lon="3.82403">
        <ele>1331.08</ele>
        <time>2013-06-15T08:51:29Z</time>
      </trkpt>
      <trkpt lat="44.37016" lon="3.82387">
        <ele>1330.12</ele>
        <time>2013-06-15T08:51:33Z</time>
      </trkpt>
      <trkpt lat="44.37025" lon="3.82381">
        <ele>1329.16</ele>
        <time>2013-06-15T08:51:35Z</time>
      </trkpt>
      <trkpt lat="44.37041" lon="3.82372">
        <ele>1329.64</ele>
        <time>2013-06-15T08:51:39Z</time>
      </trkpt>
      <trkpt lat="44.37068" lon="3.82356">
        <ele>1328.2</ele>
        <time>2013-06-15T08:51:45Z</time>
      </trkpt>
      <trkpt lat="44.37095" lon="3.82344">
        <ele>1327.24</ele>
        <time>2013-06-15T08:51:52Z</time>
      </trkpt>
      <trkpt lat="44.3712" lon="3.82335">
        <ele>1325.8</ele>
        <time>2013-06-15T08:51:58Z</time>
      </trkpt>
      <trkpt lat="44.37131" lon="3.82331">
        <ele>1325.8</ele>
        <time>2013-06-15T08:52:03Z</time>
      </trkpt>
      <trkpt lat="44.37136" lon="3.82337">
        <ele>1321.95</ele>
        <time>2013-06-15T08:52:08Z</time>
      </trkpt>
      <trkpt lat="44.37138" lon="3.82337">
        <ele>1328.68</ele>
        <time>2013-06-15T08:52:09Z</time>
      </trkpt>
      <trkpt lat="44.37142" lon="3.82339">
        <ele>1326.28</ele>
        <time>2013-06-15T08:52:12Z</time>
      </trkpt>
      <trkpt lat="44.37138" lon="3.82338">
        <ele>1325.8</ele>
        <time>2013-06-15T08:52:22Z</time>
      </trkpt>
      <trkpt lat="44.37139" lon="3.82338">
        <ele>1326.28</ele>
        <time>2013-06-15T08:52:28Z</time>
      </trkpt>
      <trkpt lat="44.37142" lon="3.82337">
        <ele>1325.31</ele>
        <time>2013-06-15T08:52:32Z</time>
      </trkpt>
      <trkpt lat="44.37147" lon="3.82337">
        <ele>1325.31</ele>
        <time>2013-06-15T08:52:37Z</time>
      </trkpt>
      <trkpt lat="44.37153" lon="3.82338">
        <ele>1325.31</ele>
        <time>2013-06-15T08:52:45Z</time>
      </trkpt>
      <trkpt lat="44.3717" lon="3.82334">
        <ele>1324.83</ele>
        <time>2013-06-15T08:52:55Z</time>
      </trkpt>
      <trkpt lat="44.37188" lon="3.82312">
        <ele>1324.83</ele>
        <time>2013-06-15T08:53:05Z</time>
      </trkpt>
      <trkpt lat="44.37205" lon="3.82292">
        <ele>1324.83</ele>
        <time>2013-06-15T08:53:14Z</time>
      </trkpt>
      <trkpt lat="44.37214" lon="3.8229">
        <ele>1324.35</ele>
        <time>2013-06-15T08:53:21Z</time>
      </trkpt>
      <trkpt lat="44.37218" lon="3.82288">
        <ele>1323.87</ele>
        <time>2013-06-15T08:53:30Z</time>
      </trkpt>
      <trkpt lat="44.37217" lon="3.82288">
        <ele>1323.87</ele>
        <time>2013-06-15T08:53:40Z</time>
      </trkpt>
      <trkpt lat="44.37217" lon="3.82286">
        <ele>1323.39</ele>
        <time>2013-06-15T08:53:49Z</time>
      </trkpt>
      <trkpt lat="44.37217" lon="3.82285">
        <ele>1323.39</ele>
        <time>2013-06-15T08:53:55Z</time>
      </trkpt>
      <trkpt lat="44.37224" lon="3.82279">
        <ele>1323.87</ele>
        <time>2013-06-15T08:54:03Z</time>
      </trkpt>
      <trkpt lat="44.37231" lon="3.82275">
        <ele>1323.87</ele>
        <time>2013-06-15T08:54:07Z</time>
      </trkpt>
      <trkpt lat="44.37258" lon="3.82264">
        <ele>1324.35</ele>
        <time>2013-06-15T08:54:19Z</time>
      </trkpt>
      <trkpt lat="44.37282" lon="3.82266">
        <ele>1323.87</ele>
        <time>2013-06-15T08:54:26Z</time>
      </trkpt>
      <trkpt lat="44.37324" lon="3.8227">
        <ele>1324.35</ele>
        <time>2013-06-15T08:54:37Z</time>
      </trkpt>
      <trkpt lat="44.37367" lon="3.82275">
        <ele>1324.83</ele>
        <time>2013-06-15T08:54:48Z</time>
      </trkpt>
      <trkpt lat="44.3737" lon="3.82271">
        <ele>1323.87</ele>
        <time>2013-06-15T08:54:49Z</time>
      </trkpt>
      <trkpt lat="44.37373" lon="3.82267">
        <ele>1324.35</ele>
        <time>2013-06-15T08:54:50Z</time>
      </trkpt>
      <trkpt lat="44.37375" lon="3.82263">
        <ele>1324.35</ele>
        <time>2013-06-15T08:54:51Z</time>
      </trkpt>
      <trkpt lat="44.37375" lon="3.82259">
        <ele>1324.83</ele>
        <time>2013-06-15T08:54:52Z</time>
      </trkpt>
      <trkpt lat="44.37375" lon="3.82256">
        <ele>1324.83</ele>
        <time>2013-06-15T08:54:53Z</time>
      </trkpt>
      <trkpt lat="44.37373" lon="3.8223">
        <ele>1327.24</ele>
        <time>2013-06-15T08:55:04Z</time>
      </trkpt>
      <trkpt lat="44.37373" lon="3.82229">
        <ele>1326.76</ele>
        <time>2013-06-15T08:55:24Z</time>
      </trkpt>
      <trkpt lat="44.37372" lon="3.82229">
        <ele>1326.28</ele>
        <time>2013-06-15T08:55:45Z</time>
      </trkpt>
      <trkpt lat="44.37372" lon="3.82229">
        <ele>1326.28</ele>
        <time>2013-06-15T08:55:58Z</time>
      </trkpt>
      <trkpt lat="44.37372" lon="3.8223">
        <ele>1326.28</ele>
        <time>2013-06-15T08:56:04Z</time>
      </trkpt>
      <trkpt lat="44.37373" lon="3.82227">
        <ele>1326.28</ele>
        <time>2013-06-15T08:56:05Z</time>
      </trkpt>
      <trkpt lat="44.37373" lon="3.82225">
        <ele>1326.76</ele>
        <time>2013-06-15T08:56:06Z</time>
      </trkpt>
      <trkpt lat="44.37373" lon="3.82223">
        <ele>1326.76</ele>
        <time>2013-06-15T08:56:07Z</time>
      </trkpt>
      <trkpt lat="44.37373" lon="3.8222">
        <ele>1326.28</ele>
        <time>2013-06-15T08:56:08Z</time>
      </trkpt>
      <trkpt lat="44.37373" lon="3.82218">
        <ele>1325.8</ele>
        <time>2013-06-15T08:56:09Z</time>
      </trkpt>
      <trkpt lat="44.37373" lon="3.82214">
        <ele>1325.31</ele>
        <time>2013-06-15T08:56:10Z</time>
      </trkpt>
      <trkpt lat="44.37373" lon="3.82208">
        <ele>1324.83</ele>
        <time>2013-06-15T08:56:11Z</time>
      </trkpt>
      <trkpt lat="44.37373" lon="3.82201">
        <ele>1324.35</ele>
        <time>2013-06-15T08:56:12Z</time>
      </trkpt>
      <trkpt lat="44.37372" lon="3.82195">
        <ele>1323.87</ele>
        <time>2013-06-15T08:56:13Z</time>
      </trkpt>
      <trkpt lat="44.37371" lon="3.82189">
        <ele>1324.35</ele>
        <time>2013-06-15T08:56:14Z</time>
      </trkpt>
      <trkpt lat="44.3737" lon="3.82186">
        <ele>1324.83</ele>
        <time>2013-06-15T08:56:15Z</time>
      </trkpt>
      <trkpt lat="44.37369" lon="3.82184">
        <ele>1324.35</ele>
        <time>2013-06-15T08:56:16Z</time>
      </trkpt>
      <trkpt lat="44.37367" lon="3.82183">
        <ele>1324.83</ele>
        <time>2013-06-15T08:56:17Z</time>
      </trkpt>
      <trkpt lat="44.37365" lon="3.82181">
        <ele>1323.87</ele>
        <time>2013-06-15T08:56:18Z</time>
      </trkpt>
      <trkpt lat="44.37363" lon="3.82179">
        <ele>1324.83</ele>
        <time>2013-06-15T08:56:19Z</time>
      </trkpt>
      <trkpt lat="44.37362" lon="3.82178">
        <ele>1324.35</ele>
        <time>2013-06-15T08:56:20Z</time>
      </trkpt>
      <trkpt lat="44.3736" lon="3.82176">
        <ele>1324.35</ele>
        <time>2013-06-15T08:56:21Z</time>
      </trkpt>
      <trkpt lat="44.37358" lon="3.82175">
        <ele>1324.83</ele>
        <time>2013-06-15T08:56:22Z</time>
      </trkpt>
      <trkpt lat="44.37332" lon="3.82164">
        <ele>1323.87</ele>
        <time>2013-06-15T08:56:33Z</time>
      </trkpt>
      <trkpt lat="44.37326" lon="3.8216">
        <ele>1330.12</ele>
        <time>2013-06-15T08:56:35Z</time>
      </trkpt>
      <trkpt lat="44.37324" lon="3.82158">
        <ele>1324.35</ele>
        <time>2013-06-15T08:56:36Z</time>
      </trkpt>
      <trkpt lat="44.37296" lon="3.82122">
        <ele>1323.39</ele>
        <time>2013-06-15T08:56:47Z</time>
      </trkpt>
      <trkpt lat="44.3729" lon="3.8211">
        <ele>1320.03</ele>
        <time>2013-06-15T08:56:50Z</time>
      </trkpt>
      <trkpt lat="44.37287" lon="3.82101">
        <ele>1325.8</ele>
        <time>2013-06-15T08:56:52Z</time>
      </trkpt>
      <trkpt lat="44.37286" lon="3.82097">
        <ele>1322.43</ele>
        <time>2013-06-15T08:56:53Z</time>
      </trkpt>
      <trkpt lat="44.37281" lon="3.82084">
        <ele>1323.87</ele>
        <time>2013-06-15T08:56:56Z</time>
      </trkpt>
      <trkpt lat="44.37263" lon="3.8205">
        <ele>1324.35</ele>
        <time>2013-06-15T08:57:04Z</time>
      </trkpt>
      <trkpt lat="44.37245" lon="3.8202">
        <ele>1324.83</ele>
        <time>2013-06-15T08:57:12Z</time>
      </trkpt>
      <trkpt lat="44.37248" lon="3.81982">
        <ele>1327.72</ele>
        <time>2013-06-15T08:57:21Z</time>
      </trkpt>
      <trkpt lat="44.37259" lon="3.81958">
        <ele>1329.16</ele>
        <time>2013-06-15T08:57:29Z</time>
      </trkpt>
      <trkpt lat="44.37275" lon="3.81945">
        <ele>1331.08</ele>
        <time>2013-06-15T08:57:37Z</time>
      </trkpt>
      <trkpt lat="44.37299" lon="3.81931">
        <ele>1333.97</ele>
        <time>2013-06-15T08:57:49Z</time>
      </trkpt>
      <trkpt lat="44.37317" lon="3.81925">
        <ele>1335.41</ele>
        <time>2013-06-15T08:57:58Z</time>
      </trkpt>
      <trkpt lat="44.37337" lon="3.81918">
        <ele>1337.33</ele>
        <time>2013-06-15T08:58:08Z</time>
      </trkpt>
      <trkpt lat="44.37356" lon="3.81898">
        <ele>1337.81</ele>
        <time>2013-06-15T08:58:18Z</time>
      </trkpt>
      <trkpt lat="44.37381" lon="3.81895">
        <ele>1338.29</ele>
        <time>2013-06-15T08:58:27Z</time>
      </trkpt>
      <trkpt lat="44.37386" lon="3.81894">
        <ele>1339.73</ele>
        <time>2013-06-15T08:58:29Z</time>
      </trkpt>
      <trkpt lat="44.37399" lon="3.81892">
        <ele>1340.22</ele>
        <time>2013-06-15T08:58:34Z</time>
      </trkpt>
      <trkpt lat="44.37401" lon="3.81891">
        <ele>1340.22</ele>
        <time>2013-06-15T08:58:35Z</time>
      </trkpt>
      <trkpt lat="44.37404" lon="3.81891">
        <ele>1340.22</ele>
        <time>2013-06-15T08:58:36Z</time>
      </trkpt>
      <trkpt lat="44.37407" lon="3.8189">
        <ele>1340.7</ele>
        <time>2013-06-15T08:58:37Z</time>
      </trkpt>
      <trkpt lat="44.37409" lon="3.81889">
        <ele>1340.22</ele>
        <time>2013-06-15T08:58:38Z</time>
      </trkpt>
      <trkpt lat="44.37412" lon="3.81889">
        <ele>1341.18</ele>
        <time>2013-06-15T08:58:39Z</time>
      </trkpt>
      <trkpt lat="44.37414" lon="3.81888">
        <ele>1340.22</ele>
        <time>2013-06-15T08:58:40Z</time>
      </trkpt>
      <trkpt lat="44.37417" lon="3.81888">
        <ele>1341.18</ele>
        <time>2013-06-15T08:58:41Z</time>
      </trkpt>
      <trkpt lat="44.3742" lon="3.81888">
        <ele>1340.7</ele>
        <time>2013-06-15T08:58:42Z</time>
      </trkpt>
      <trkpt lat="44.37423" lon="3.81888">
        <ele>1341.18</ele>
        <time>2013-06-15T08:58:43Z</time>
      </trkpt>
      <trkpt lat="44.37426" lon="3.81888">
        <ele>1341.18</ele>
        <time>2013-06-15T08:58:44Z</time>
      </trkpt>
      <trkpt lat="44.37428" lon="3.81889">
        <ele>1341.18</ele>
        <time>2013-06-15T08:58:45Z</time>
      </trkpt>
      <trkpt lat="44.37431" lon="3.8189">
        <ele>1341.66</ele>
        <time>2013-06-15T08:58:46Z</time>
      </trkpt>
      <trkpt lat="44.37433" lon="3.81891">
        <ele>1342.14</ele>
        <time>2013-06-15T08:58:47Z</time>
      </trkpt>
      <trkpt lat="44.3746" lon="3.81893">
        <ele>1343.1</ele>
        <time>2013-06-15T08:58:57Z</time>
      </trkpt>
      <trkpt lat="44.37491" lon="3.81885">
        <ele>1344.06</ele>
        <time>2013-06-15T08:59:08Z</time>
      </trkpt>
      <trkpt lat="44.37528" lon="3.81861">
        <ele>1344.54</ele>
        <time>2013-06-15T08:59:21Z</time>
      </trkpt>
      <trkpt lat="44.37559" lon="3.81855">
        <ele>1345.02</ele>
        <time>2013-06-15T08:59:31Z</time>
      </trkpt>
      <trkpt lat="44.37596" lon="3.81827">
        <ele>1345.02</ele>
        <time>2013-06-15T08:59:43Z</time>
      </trkpt>
      <trkpt lat="44.37612" lon="3.81802">
        <ele>1344.06</ele>
        <time>2013-06-15T08:59:49Z</time>
      </trkpt>
      <trkpt lat="44.37615" lon="3.81799">
        <ele>1344.54</ele>
        <time>2013-06-15T08:59:50Z</time>
      </trkpt>
      <trkpt lat="44.37634" lon="3.81788">
        <ele>1344.06</ele>
        <time>2013-06-15T08:59:55Z</time>
      </trkpt>
      <trkpt lat="44.37675" lon="3.8174">
        <ele>1345.02</ele>
        <time>2013-06-15T09:00:08Z</time>
      </trkpt>
      <trkpt lat="44.37722" lon="3.81689">
        <ele>1344.54</ele>
        <time>2013-06-15T09:00:23Z</time>
      </trkpt>
      <trkpt lat="44.37761" lon="3.81644">
        <ele>1345.98</ele>
        <time>2013-06-15T09:00:36Z</time>
      </trkpt>
      <trkpt lat="44.37778" lon="3.81599">
        <ele>1346.94</ele>
        <time>2013-06-15T09:00:46Z</time>
      </trkpt>
      <trkpt lat="44.37798" lon="3.81558">
        <ele>1347.91</ele>
        <time>2013-06-15T09:00:56Z</time>
      </trkpt>
      <trkpt lat="44.37834" lon="3.81507">
        <ele>1348.87</ele>
        <time>2013-06-15T09:01:09Z</time>
      </trkpt>
      <trkpt lat="44.37879" lon="3.81454">
        <ele>1350.31</ele>
        <time>2013-06-15T09:01:24Z</time>
      </trkpt>
      <trkpt lat="44.37885" lon="3.81446">
        <ele>1349.83</ele>
        <time>2013-06-15T09:01:26Z</time>
      </trkpt>
      <trkpt lat="44.37889" lon="3.81443">
        <ele>1349.83</ele>
        <time>2013-06-15T09:01:27Z</time>
      </trkpt>
      <trkpt lat="44.37898" lon="3.81433">
        <ele>1350.31</ele>
        <time>2013-06-15T09:01:30Z</time>
      </trkpt>
      <trkpt lat="44.37911" lon="3.81415">
        <ele>1350.31</ele>
        <time>2013-06-15T09:01:35Z</time>
      </trkpt>
      <trkpt lat="44.37914" lon="3.8141">
        <ele>1351.27</ele>
        <time>2013-06-15T09:01:36Z</time>
      </trkpt>
      <trkpt lat="44.37916" lon="3.81406">
        <ele>1350.79</ele>
        <time>2013-06-15T09:01:37Z</time>
      </trkpt>
      <trkpt lat="44.37919" lon="3.81403">
        <ele>1350.79</ele>
        <time>2013-06-15T09:01:38Z</time>
      </trkpt>
      <trkpt lat="44.37922" lon="3.81399">
        <ele>1351.27</ele>
        <time>2013-06-15T09:01:39Z</time>
      </trkpt>
      <trkpt lat="44.37924" lon="3.81395">
        <ele>1351.75</ele>
        <time>2013-06-15T09:01:40Z</time>
      </trkpt>
      <trkpt lat="44.37926" lon="3.81391">
        <ele>1351.75</ele>
        <time>2013-06-15T09:01:41Z</time>
      </trkpt>
      <trkpt lat="44.37929" lon="3.81387">
        <ele>1351.27</ele>
        <time>2013-06-15T09:01:42Z</time>
      </trkpt>
      <trkpt lat="44.37957" lon="3.81356">
        <ele>1360.88</ele>
        <time>2013-06-15T09:01:52Z</time>
      </trkpt>
      <trkpt lat="44.3796" lon="3.81354">
        <ele>1353.19</ele>
        <time>2013-06-15T09:01:53Z</time>
      </trkpt>
      <trkpt lat="44.37984" lon="3.81321">
        <ele>1355.12</ele>
        <time>2013-06-15T09:02:03Z</time>
      </trkpt>
      <trkpt lat="44.38014" lon="3.81289">
        <ele>1356.08</ele>
        <time>2013-06-15T09:02:14Z</time>
      </trkpt>
      <trkpt lat="44.38044" lon="3.8127">
        <ele>1357.52</ele>
        <time>2013-06-15T09:02:24Z</time>
      </trkpt>
      <trkpt lat="44.38081" lon="3.81246">
        <ele>1356.56</ele>
        <time>2013-06-15T09:02:35Z</time>
      </trkpt>
      <trkpt lat="44.38097" lon="3.81236">
        <ele>1357.04</ele>
        <time>2013-06-15T09:02:39Z</time>
      </trkpt>
      <trkpt lat="44.38136" lon="3.81215">
        <ele>1356.08</ele>
        <time>2013-06-15T09:02:49Z</time>
      </trkpt>
      <trkpt lat="44.38177" lon="3.81197">
        <ele>1357.52</ele>
        <time>2013-06-15T09:03:00Z</time>
      </trkpt>
      <trkpt lat="44.38197" lon="3.81177">
        <ele>1357.04</ele>
        <time>2013-06-15T09:03:07Z</time>
      </trkpt>
      <trkpt lat="44.38239" lon="3.81121">
        <ele>1356.56</ele>
        <time>2013-06-15T09:03:20Z</time>
      </trkpt>
      <trkpt lat="44.38278" lon="3.8106">
        <ele>1358.48</ele>
        <time>2013-06-15T09:03:34Z</time>
      </trkpt>
      <trkpt lat="44.3828" lon="3.81056">
        <ele>1354.15</ele>
        <time>2013-06-15T09:03:35Z</time>
      </trkpt>
      <trkpt lat="44.38282" lon="3.81052">
        <ele>1359.92</ele>
        <time>2013-06-15T09:03:36Z</time>
      </trkpt>
      <trkpt lat="44.38309" lon="3.81029">
        <ele>1359.44</ele>
        <time>2013-06-15T09:03:46Z</time>
      </trkpt>
      <trkpt lat="44.38334" lon="3.8102">
        <ele>1359.92</ele>
        <time>2013-06-15T09:03:55Z</time>
      </trkpt>
      <trkpt lat="44.38349" lon="3.81005">
        <ele>1360.4</ele>
        <time>2013-06-15T09:04:05Z</time>
      </trkpt>
      <trkpt lat="44.38364" lon="3.8099">
        <ele>1360.4</ele>
        <time>2013-06-15T09:04:14Z</time>
      </trkpt>
      <trkpt lat="44.38384" lon="3.8097">
        <ele>1361.36</ele>
        <time>2013-06-15T09:04:25Z</time>
      </trkpt>
      <trkpt lat="44.38411" lon="3.80944">
        <ele>1361.84</ele>
        <time>2013-06-15T09:04:37Z</time>
      </trkpt>
      <trkpt lat="44.38427" lon="3.80928">
        <ele>1363.29</ele>
        <time>2013-06-15T09:04:45Z</time>
      </trkpt>
      <trkpt lat="44.38449" lon="3.80901">
        <ele>1363.77</ele>
        <time>2013-06-15T09:04:55Z</time>
      </trkpt>
      <trkpt lat="44.38462" lon="3.8089">
        <ele>1363.77</ele>
        <time>2013-06-15T09:05:04Z</time>
      </trkpt>
      <trkpt lat="44.38472" lon="3.80881">
        <ele>1364.25</ele>
        <time>2013-06-15T09:05:11Z</time>
      </trkpt>
      <trkpt lat="44.38484" lon="3.80875">
        <ele>1364.73</ele>
        <time>2013-06-15T09:05:15Z</time>
      </trkpt>
      <trkpt lat="44.38485" lon="3.80872">
        <ele>1365.21</ele>
        <time>2013-06-15T09:05:16Z</time>
      </trkpt>
      <trkpt lat="44.38487" lon="3.80869">
        <ele>1364.73</ele>
        <time>2013-06-15T09:05:17Z</time>
      </trkpt>
      <trkpt lat="44.38489" lon="3.80865">
        <ele>1364.73</ele>
        <time>2013-06-15T09:05:18Z</time>
      </trkpt>
      <trkpt lat="44.38491" lon="3.80862">
        <ele>1364.73</ele>
        <time>2013-06-15T09:05:19Z</time>
      </trkpt>
      <trkpt lat="44.38521" lon="3.80821">
        <ele>1364.25</ele>
        <time>2013-06-15T09:05:30Z</time>
      </trkpt>
      <trkpt lat="44.38555" lon="3.80781">
        <ele>1364.25</ele>
        <time>2013-06-15T09:05:41Z</time>
      </trkpt>
      <trkpt lat="44.38584" lon="3.80742">
        <ele>1364.25</ele>
        <time>2013-06-15T09:05:50Z</time>
      </trkpt>
      <trkpt lat="44.3859" lon="3.80733">
        <ele>1364.73</ele>
        <time>2013-06-15T09:05:52Z</time>
      </trkpt>
      <trkpt lat="44.38592" lon="3.80729">
        <ele>1364.25</ele>
        <time>2013-06-15T09:05:53Z</time>
      </trkpt>
      <trkpt lat="44.38618" lon="3.80689">
        <ele>1364.73</ele>
        <time>2013-06-15T09:06:02Z</time>
      </trkpt>
      <trkpt lat="44.38641" lon="3.80633">
        <ele>1365.69</ele>
        <time>2013-06-15T09:06:14Z</time>
      </trkpt>
      <trkpt lat="44.38642" lon="3.80597">
        <ele>1366.65</ele>
        <time>2013-06-15T09:06:23Z</time>
      </trkpt>
      <trkpt lat="44.38641" lon="3.80592">
        <ele>1367.13</ele>
        <time>2013-06-15T09:06:26Z</time>
      </trkpt>
      <trkpt lat="44.38642" lon="3.8059">
        <ele>1367.13</ele>
        <time>2013-06-15T09:06:27Z</time>
      </trkpt>
      <trkpt lat="44.38641" lon="3.80589">
        <ele>1367.13</ele>
        <time>2013-06-15T09:06:28Z</time>
      </trkpt>
      <trkpt lat="44.38645" lon="3.80594">
        <ele>1366.65</ele>
        <time>2013-06-15T09:06:33Z</time>
      </trkpt>
      <trkpt lat="44.38649" lon="3.80587">
        <ele>1367.61</ele>
        <time>2013-06-15T09:06:36Z</time>
      </trkpt>
      <trkpt lat="44.3866" lon="3.80545">
        <ele>1368.57</ele>
        <time>2013-06-15T09:06:48Z</time>
      </trkpt>
      <trkpt lat="44.38665" lon="3.80519">
        <ele>1370.02</ele>
        <time>2013-06-15T09:06:57Z</time>
      </trkpt>
      <trkpt lat="44.38671" lon="3.80481">
        <ele>1371.46</ele>
        <time>2013-06-15T09:07:08Z</time>
      </trkpt>
      <trkpt lat="44.38674" lon="3.8044">
        <ele>1370.5</ele>
        <time>2013-06-15T09:07:17Z</time>
      </trkpt>
      <trkpt lat="44.38682" lon="3.80423">
        <ele>1366.17</ele>
        <time>2013-06-15T09:07:21Z</time>
      </trkpt>
      <trkpt lat="44.38684" lon="3.80418">
        <ele>1370.5</ele>
        <time>2013-06-15T09:07:22Z</time>
      </trkpt>
      <trkpt lat="44.38707" lon="3.80392">
        <ele>1370.5</ele>
        <time>2013-06-15T09:07:30Z</time>
      </trkpt>
      <trkpt lat="44.38729" lon="3.80368">
        <ele>1369.54</ele>
        <time>2013-06-15T09:07:37Z</time>
      </trkpt>
      <trkpt lat="44.38748" lon="3.80357">
        <ele>1370.02</ele>
        <time>2013-06-15T09:07:42Z</time>
      </trkpt>
      <trkpt lat="44.38752" lon="3.80356">
        <ele>1369.05</ele>
        <time>2013-06-15T09:07:43Z</time>
      </trkpt>
      <trkpt lat="44.38756" lon="3.80356">
        <ele>1369.05</ele>
        <time>2013-06-15T09:07:44Z</time>
      </trkpt>
      <trkpt lat="44.38765" lon="3.80357">
        <ele>1369.54</ele>
        <time>2013-06-15T09:07:46Z</time>
      </trkpt>
      <trkpt lat="44.38769" lon="3.80356">
        <ele>1369.54</ele>
        <time>2013-06-15T09:07:47Z</time>
      </trkpt>
      <trkpt lat="44.38774" lon="3.80355">
        <ele>1370.02</ele>
        <time>2013-06-15T09:07:48Z</time>
      </trkpt>
      <trkpt lat="44.38782" lon="3.80353">
        <ele>1369.05</ele>
        <time>2013-06-15T09:07:50Z</time>
      </trkpt>
      <trkpt lat="44.38805" lon="3.80344">
        <ele>1374.82</ele>
        <time>2013-06-15T09:07:55Z</time>
      </trkpt>
      <trkpt lat="44.38809" lon="3.80342">
        <ele>1370.02</ele>
        <time>2013-06-15T09:07:56Z</time>
      </trkpt>
      <trkpt lat="44.38829" lon="3.80335">
        <ele>1370.5</ele>
        <time>2013-06-15T09:08:02Z</time>
      </trkpt>
      <trkpt lat="44.3886" lon="3.80325">
        <ele>1370.5</ele>
        <time>2013-06-15T09:08:11Z</time>
      </trkpt>
      <trkpt lat="44.38863" lon="3.80325">
        <ele>1370.98</ele>
        <time>2013-06-15T09:08:12Z</time>
      </trkpt>
      <trkpt lat="44.38865" lon="3.80325">
        <ele>1371.46</ele>
        <time>2013-06-15T09:08:13Z</time>
      </trkpt>
      <trkpt lat="44.38886" lon="3.80311">
        <ele>1370.98</ele>
        <time>2013-06-15T09:08:20Z</time>
      </trkpt>
      <trkpt lat="44.38892" lon="3.80305">
        <ele>1370.5</ele>
        <time>2013-06-15T09:08:22Z</time>
      </trkpt>
      <trkpt lat="44.38896" lon="3.80302">
        <ele>1370.98</ele>
        <time>2013-06-15T09:08:23Z</time>
      </trkpt>
      <trkpt lat="44.38899" lon="3.803">
        <ele>1370.98</ele>
        <time>2013-06-15T09:08:24Z</time>
      </trkpt>
      <trkpt lat="44.38901" lon="3.80298">
        <ele>1370.98</ele>
        <time>2013-06-15T09:08:25Z</time>
      </trkpt>
      <trkpt lat="44.38904" lon="3.80295">
        <ele>1370.98</ele>
        <time>2013-06-15T09:08:26Z</time>
      </trkpt>
      <trkpt lat="44.38925" lon="3.80276">
        <ele>1370.5</ele>
        <time>2013-06-15T09:08:31Z</time>
      </trkpt>
      <trkpt lat="44.38928" lon="3.80272">
        <ele>1370.98</ele>
        <time>2013-06-15T09:08:32Z</time>
      </trkpt>
      <trkpt lat="44.38931" lon="3.80268">
        <ele>1370.98</ele>
        <time>2013-06-15T09:08:33Z</time>
      </trkpt>
      <trkpt lat="44.38965" lon="3.80237">
        <ele>1370.98</ele>
        <time>2013-06-15T09:08:40Z</time>
      </trkpt>
      <trkpt lat="44.38969" lon="3.8023">
        <ele>1370.98</ele>
        <time>2013-06-15T09:08:41Z</time>
      </trkpt>
      <trkpt lat="44.3898" lon="3.80185">
        <ele>1371.46</ele>
        <time>2013-06-15T09:08:48Z</time>
      </trkpt>
      <trkpt lat="44.3898" lon="3.80179">
        <ele>1370.98</ele>
        <time>2013-06-15T09:08:49Z</time>
      </trkpt>
      <trkpt lat="44.38981" lon="3.80172">
        <ele>1370.98</ele>
        <time>2013-06-15T09:08:50Z</time>
      </trkpt>
      <trkpt lat="44.38979" lon="3.80133">
        <ele>1370.98</ele>
        <time>2013-06-15T09:08:56Z</time>
      </trkpt>
      <trkpt lat="44.3898" lon="3.8012">
        <ele>1370.5</ele>
        <time>2013-06-15T09:08:58Z</time>
      </trkpt>
      <trkpt lat="44.38981" lon="3.80113">
        <ele>1370.5</ele>
        <time>2013-06-15T09:08:59Z</time>
      </trkpt>
      <trkpt lat="44.38992" lon="3.80061">
        <ele>1370.98</ele>
        <time>2013-06-15T09:09:07Z</time>
      </trkpt>
      <trkpt lat="44.38992" lon="3.80056">
        <ele>1370.5</ele>
        <time>2013-06-15T09:09:08Z</time>
      </trkpt>
      <trkpt lat="44.38992" lon="3.8005">
        <ele>1370.98</ele>
        <time>2013-06-15T09:09:09Z</time>
      </trkpt>
      <trkpt lat="44.38994" lon="3.80036">
        <ele>1370.98</ele>
        <time>2013-06-15T09:09:15Z</time>
      </trkpt>
      <trkpt lat="44.38996" lon="3.80035">
        <ele>1370.98</ele>
        <time>2013-06-15T09:09:16Z</time>
      </trkpt>
      <trkpt lat="44.38997" lon="3.80035">
        <ele>1370.5</ele>
        <time>2013-06-15T09:09:23Z</time>
      </trkpt>
      <trkpt lat="44.38997" lon="3.80033">
        <ele>1370.98</ele>
        <time>2013-06-15T09:09:55Z</time>
      </trkpt>
      <trkpt lat="44.38997" lon="3.80032">
        <ele>1371.94</ele>
        <time>2013-06-15T09:09:56Z</time>
      </trkpt>
      <trkpt lat="44.38996" lon="3.80028">
        <ele>1371.46</ele>
        <time>2013-06-15T09:10:00Z</time>
      </trkpt>
      <trkpt lat="44.38997" lon="3.80026">
        <ele>1370.98</ele>
        <time>2013-06-15T09:10:01Z</time>
      </trkpt>
      <trkpt lat="44.38997" lon="3.80023">
        <ele>1370.98</ele>
        <time>2013-06-15T09:10:02Z</time>
      </trkpt>
      <trkpt lat="44.38998" lon="3.80021">
        <ele>1370.98</ele>
        <time>2013-06-15T09:10:03Z</time>
      </trkpt>
      <trkpt lat="44.38998" lon="3.80018">
        <ele>1370.98</ele>
        <time>2013-06-15T09:10:04Z</time>
      </trkpt>
      <trkpt lat="44.38999" lon="3.80008">
        <ele>1370.98</ele>
        <time>2013-06-15T09:10:13Z</time>
      </trkpt>
      <trkpt lat="44.38998" lon="3.80009">
        <ele>1370.98</ele>
        <time>2013-06-15T09:10:32Z</time>
      </trkpt>
      <trkpt lat="44.38999" lon="3.80005">
        <ele>1370.5</ele>
        <time>2013-06-15T09:10:41Z</time>
      </trkpt>
      <trkpt lat="44.38999" lon="3.80003">
        <ele>1370.02</ele>
        <time>2013-06-15T09:10:42Z</time>
      </trkpt>
      <trkpt lat="44.38999" lon="3.79999">
        <ele>1370.98</ele>
        <time>2013-06-15T09:10:43Z</time>
      </trkpt>
      <trkpt lat="44.39" lon="3.79996">
        <ele>1370.02</ele>
        <time>2013-06-15T09:10:44Z</time>
      </trkpt>
      <trkpt lat="44.39" lon="3.79992">
        <ele>1370.5</ele>
        <time>2013-06-15T09:10:45Z</time>
      </trkpt>
      <trkpt lat="44.3902" lon="3.79958">
        <ele>1369.54</ele>
        <time>2013-06-15T09:10:54Z</time>
      </trkpt>
      <trkpt lat="44.39057" lon="3.79914">
        <ele>1366.65</ele>
        <time>2013-06-15T09:11:04Z</time>
      </trkpt>
      <trkpt lat="44.39105" lon="3.79868">
        <ele>1365.21</ele>
        <time>2013-06-15T09:11:14Z</time>
      </trkpt>
      <trkpt lat="44.39121" lon="3.7986">
        <ele>1364.73</ele>
        <time>2013-06-15T09:11:17Z</time>
      </trkpt>
      <trkpt lat="44.39168" lon="3.79849">
        <ele>1362.81</ele>
        <time>2013-06-15T09:11:25Z</time>
      </trkpt>
      <trkpt lat="44.39173" lon="3.79845">
        <ele>1362.81</ele>
        <time>2013-06-15T09:11:26Z</time>
      </trkpt>
      <trkpt lat="44.39178" lon="3.79839">
        <ele>1361.84</ele>
        <time>2013-06-15T09:11:27Z</time>
      </trkpt>
      <trkpt lat="44.39181" lon="3.7983">
        <ele>1361.36</ele>
        <time>2013-06-15T09:11:28Z</time>
      </trkpt>
      <trkpt lat="44.39182" lon="3.7982">
        <ele>1360.4</ele>
        <time>2013-06-15T09:11:29Z</time>
      </trkpt>
      <trkpt lat="44.39181" lon="3.7981">
        <ele>1360.4</ele>
        <time>2013-06-15T09:11:30Z</time>
      </trkpt>
      <trkpt lat="44.3918" lon="3.798">
        <ele>1360.88</ele>
        <time>2013-06-15T09:11:31Z</time>
      </trkpt>
      <trkpt lat="44.39178" lon="3.79777">
        <ele>1361.36</ele>
        <time>2013-06-15T09:11:34Z</time>
      </trkpt>
      <trkpt lat="44.39178" lon="3.7977">
        <ele>1361.36</ele>
        <time>2013-06-15T09:11:35Z</time>
      </trkpt>
      <trkpt lat="44.39179" lon="3.79764">
        <ele>1361.36</ele>
        <time>2013-06-15T09:11:36Z</time>
      </trkpt>
      <trkpt lat="44.39181" lon="3.79757">
        <ele>1360.88</ele>
        <time>2013-06-15T09:11:37Z</time>
      </trkpt>
      <trkpt lat="44.39183" lon="3.79752">
        <ele>1361.36</ele>
        <time>2013-06-15T09:11:38Z</time>
      </trkpt>
      <trkpt lat="44.39185" lon="3.79747">
        <ele>1361.36</ele>
        <time>2013-06-15T09:11:39Z</time>
      </trkpt>
      <trkpt lat="44.39187" lon="3.79743">
        <ele>1361.36</ele>
        <time>2013-06-15T09:11:40Z</time>
      </trkpt>
      <trkpt lat="44.39191" lon="3.79736">
        <ele>1361.36</ele>
        <time>2013-06-15T09:11:42Z</time>
      </trkpt>
      <trkpt lat="44.39194" lon="3.79733">
        <ele>1361.84</ele>
        <time>2013-06-15T09:11:43Z</time>
      </trkpt>
      <trkpt lat="44.39206" lon="3.79721">
        <ele>1361.36</ele>
        <time>2013-06-15T09:11:47Z</time>
      </trkpt>
      <trkpt lat="44.39209" lon="3.79717">
        <ele>1361.36</ele>
        <time>2013-06-15T09:11:48Z</time>
      </trkpt>
      <trkpt lat="44.39215" lon="3.79707">
        <ele>1361.36</ele>
        <time>2013-06-15T09:11:50Z</time>
      </trkpt>
      <trkpt lat="44.3922" lon="3.79697">
        <ele>1360.88</ele>
        <time>2013-06-15T09:11:52Z</time>
      </trkpt>
      <trkpt lat="44.39248" lon="3.79649">
        <ele>1359.44</ele>
        <time>2013-06-15T09:12:02Z</time>
      </trkpt>
      <trkpt lat="44.39254" lon="3.79639">
        <ele>1359.44</ele>
        <time>2013-06-15T09:12:04Z</time>
      </trkpt>
      <trkpt lat="44.39262" lon="3.79617">
        <ele>1359.44</ele>
        <time>2013-06-15T09:12:08Z</time>
      </trkpt>
      <trkpt lat="44.39263" lon="3.79611">
        <ele>1359.92</ele>
        <time>2013-06-15T09:12:09Z</time>
      </trkpt>
      <trkpt lat="44.39266" lon="3.79588">
        <ele>1359.44</ele>
        <time>2013-06-15T09:12:13Z</time>
      </trkpt>
      <trkpt lat="44.39267" lon="3.79581">
        <ele>1358.96</ele>
        <time>2013-06-15T09:12:14Z</time>
      </trkpt>
      <trkpt lat="44.39278" lon="3.7952">
        <ele>1358</ele>
        <time>2013-06-15T09:12:23Z</time>
      </trkpt>
      <trkpt lat="44.3927" lon="3.79461">
        <ele>1357.04</ele>
        <time>2013-06-15T09:12:31Z</time>
      </trkpt>
      <trkpt lat="44.39267" lon="3.79454">
        <ele>1357.04</ele>
        <time>2013-06-15T09:12:32Z</time>
      </trkpt>
      <trkpt lat="44.39264" lon="3.79447">
        <ele>1356.56</ele>
        <time>2013-06-15T09:12:33Z</time>
      </trkpt>
      <trkpt lat="44.39257" lon="3.79436">
        <ele>1356.56</ele>
        <time>2013-06-15T09:12:35Z</time>
      </trkpt>
      <trkpt lat="44.39214" lon="3.7938">
        <ele>1356.56</ele>
        <time>2013-06-15T09:12:46Z</time>
      </trkpt>
      <trkpt lat="44.39201" lon="3.79362">
        <ele>1356.56</ele>
        <time>2013-06-15T09:12:50Z</time>
      </trkpt>
      <trkpt lat="44.39199" lon="3.79357">
        <ele>1356.08</ele>
        <time>2013-06-15T09:12:51Z</time>
      </trkpt>
      <trkpt lat="44.39197" lon="3.7935">
        <ele>1355.6</ele>
        <time>2013-06-15T09:12:52Z</time>
      </trkpt>
      <trkpt lat="44.39196" lon="3.79342">
        <ele>1355.6</ele>
        <time>2013-06-15T09:12:53Z</time>
      </trkpt>
      <trkpt lat="44.39195" lon="3.79334">
        <ele>1355.12</ele>
        <time>2013-06-15T09:12:54Z</time>
      </trkpt>
      <trkpt lat="44.39194" lon="3.79327">
        <ele>1355.12</ele>
        <time>2013-06-15T09:12:55Z</time>
      </trkpt>
      <trkpt lat="44.39193" lon="3.79294">
        <ele>1346.94</ele>
        <time>2013-06-15T09:13:00Z</time>
      </trkpt>
      <trkpt lat="44.39193" lon="3.79288">
        <ele>1355.12</ele>
        <time>2013-06-15T09:13:01Z</time>
      </trkpt>
      <trkpt lat="44.39194" lon="3.79282">
        <ele>1354.15</ele>
        <time>2013-06-15T09:13:02Z</time>
      </trkpt>
      <trkpt lat="44.39196" lon="3.79276">
        <ele>1354.15</ele>
        <time>2013-06-15T09:13:03Z</time>
      </trkpt>
      <trkpt lat="44.39204" lon="3.79256">
        <ele>1353.67</ele>
        <time>2013-06-15T09:13:07Z</time>
      </trkpt>
      <trkpt lat="44.39207" lon="3.79252">
        <ele>1353.67</ele>
        <time>2013-06-15T09:13:08Z</time>
      </trkpt>
      <trkpt lat="44.39213" lon="3.79244">
        <ele>1352.71</ele>
        <time>2013-06-15T09:13:10Z</time>
      </trkpt>
      <trkpt lat="44.39217" lon="3.7924">
        <ele>1352.71</ele>
        <time>2013-06-15T09:13:11Z</time>
      </trkpt>
      <trkpt lat="44.39221" lon="3.79237">
        <ele>1352.71</ele>
        <time>2013-06-15T09:13:12Z</time>
      </trkpt>
      <trkpt lat="44.39225" lon="3.79235">
        <ele>1353.19</ele>
        <time>2013-06-15T09:13:13Z</time>
      </trkpt>
      <trkpt lat="44.39228" lon="3.79233">
        <ele>1353.19</ele>
        <time>2013-06-15T09:13:14Z</time>
      </trkpt>
      <trkpt lat="44.39232" lon="3.79231">
        <ele>1353.19</ele>
        <time>2013-06-15T09:13:15Z</time>
      </trkpt>
      <trkpt lat="44.39235" lon="3.79229">
        <ele>1352.71</ele>
        <time>2013-06-15T09:13:16Z</time>
      </trkpt>
      <trkpt lat="44.39278" lon="3.79202">
        <ele>1351.75</ele>
        <time>2013-06-15T09:13:27Z</time>
      </trkpt>
      <trkpt lat="44.39282" lon="3.79197">
        <ele>1351.27</ele>
        <time>2013-06-15T09:13:28Z</time>
      </trkpt>
      <trkpt lat="44.39285" lon="3.79192">
        <ele>1351.75</ele>
        <time>2013-06-15T09:13:29Z</time>
      </trkpt>
      <trkpt lat="44.39291" lon="3.79181">
        <ele>1350.79</ele>
        <time>2013-06-15T09:13:31Z</time>
      </trkpt>
      <trkpt lat="44.39295" lon="3.79176">
        <ele>1351.27</ele>
        <time>2013-06-15T09:13:32Z</time>
      </trkpt>
      <trkpt lat="44.393" lon="3.79172">
        <ele>1350.79</ele>
        <time>2013-06-15T09:13:33Z</time>
      </trkpt>
      <trkpt lat="44.39348" lon="3.79132">
        <ele>1347.91</ele>
        <time>2013-06-15T09:13:42Z</time>
      </trkpt>
      <trkpt lat="44.3938" lon="3.79105">
        <ele>1344.54</ele>
        <time>2013-06-15T09:13:47Z</time>
      </trkpt>
      <trkpt lat="44.39386" lon="3.79098">
        <ele>1344.54</ele>
        <time>2013-06-15T09:13:48Z</time>
      </trkpt>
      <trkpt lat="44.39404" lon="3.79074">
        <ele>1343.1</ele>
        <time>2013-06-15T09:13:51Z</time>
      </trkpt>
      <trkpt lat="44.39415" lon="3.79058">
        <ele>1342.14</ele>
        <time>2013-06-15T09:13:53Z</time>
      </trkpt>
      <trkpt lat="44.39419" lon="3.79048">
        <ele>1341.66</ele>
        <time>2013-06-15T09:13:54Z</time>
      </trkpt>
      <trkpt lat="44.39421" lon="3.79038">
        <ele>1341.18</ele>
        <time>2013-06-15T09:13:55Z</time>
      </trkpt>
      <trkpt lat="44.39422" lon="3.79027">
        <ele>1341.18</ele>
        <time>2013-06-15T09:13:56Z</time>
      </trkpt>
      <trkpt lat="44.39423" lon="3.79016">
        <ele>1340.22</ele>
        <time>2013-06-15T09:13:57Z</time>
      </trkpt>
      <trkpt lat="44.39423" lon="3.79006">
        <ele>1340.22</ele>
        <time>2013-06-15T09:13:58Z</time>
      </trkpt>
      <trkpt lat="44.39422" lon="3.78998">
        <ele>1340.7</ele>
        <time>2013-06-15T09:13:59Z</time>
      </trkpt>
      <trkpt lat="44.39419" lon="3.78991">
        <ele>1340.7</ele>
        <time>2013-06-15T09:14:00Z</time>
      </trkpt>
      <trkpt lat="44.39415" lon="3.78985">
        <ele>1340.7</ele>
        <time>2013-06-15T09:14:01Z</time>
      </trkpt>
      <trkpt lat="44.3941" lon="3.78981">
        <ele>1340.22</ele>
        <time>2013-06-15T09:14:02Z</time>
      </trkpt>
      <trkpt lat="44.39406" lon="3.78978">
        <ele>1340.7</ele>
        <time>2013-06-15T09:14:03Z</time>
      </trkpt>
      <trkpt lat="44.39398" lon="3.78971">
        <ele>1340.7</ele>
        <time>2013-06-15T09:14:05Z</time>
      </trkpt>
      <trkpt lat="44.39395" lon="3.78967">
        <ele>1340.7</ele>
        <time>2013-06-15T09:14:06Z</time>
      </trkpt>
      <trkpt lat="44.39391" lon="3.78963">
        <ele>1341.18</ele>
        <time>2013-06-15T09:14:07Z</time>
      </trkpt>
      <trkpt lat="44.39388" lon="3.7896">
        <ele>1340.7</ele>
        <time>2013-06-15T09:14:08Z</time>
      </trkpt>
      <trkpt lat="44.39383" lon="3.78957">
        <ele>1340.7</ele>
        <time>2013-06-15T09:14:09Z</time>
      </trkpt>
      <trkpt lat="44.39379" lon="3.78955">
        <ele>1340.22</ele>
        <time>2013-06-15T09:14:10Z</time>
      </trkpt>
      <trkpt lat="44.39374" lon="3.78953">
        <ele>1340.7</ele>
        <time>2013-06-15T09:14:11Z</time>
      </trkpt>
      <trkpt lat="44.39369" lon="3.78952">
        <ele>1341.18</ele>
        <time>2013-06-15T09:14:12Z</time>
      </trkpt>
      <trkpt lat="44.39364" lon="3.78952">
        <ele>1341.66</ele>
        <time>2013-06-15T09:14:13Z</time>
      </trkpt>
      <trkpt lat="44.39356" lon="3.7895">
        <ele>1341.18</ele>
        <time>2013-06-15T09:14:15Z</time>
      </trkpt>
      <trkpt lat="44.39353" lon="3.78948">
        <ele>1341.66</ele>
        <time>2013-06-15T09:14:16Z</time>
      </trkpt>
      <trkpt lat="44.39351" lon="3.78947">
        <ele>1341.66</ele>
        <time>2013-06-15T09:14:17Z</time>
      </trkpt>
      <trkpt lat="44.39347" lon="3.78945">
        <ele>1341.66</ele>
        <time>2013-06-15T09:14:18Z</time>
      </trkpt>
      <trkpt lat="44.39344" lon="3.78943">
        <ele>1341.66</ele>
        <time>2013-06-15T09:14:19Z</time>
      </trkpt>
      <trkpt lat="44.3934" lon="3.78941">
        <ele>1341.66</ele>
        <time>2013-06-15T09:14:20Z</time>
      </trkpt>
      <trkpt lat="44.39336" lon="3.78938">
        <ele>1341.66</ele>
        <time>2013-06-15T09:14:21Z</time>
      </trkpt>
      <trkpt lat="44.39332" lon="3.78936">
        <ele>1341.66</ele>
        <time>2013-06-15T09:14:22Z</time>
      </trkpt>
      <trkpt lat="44.39328" lon="3.78935">
        <ele>1341.66</ele>
        <time>2013-06-15T09:14:23Z</time>
      </trkpt>
      <trkpt lat="44.39323" lon="3.78934">
        <ele>1341.66</ele>
        <time>2013-06-15T09:14:24Z</time>
      </trkpt>
      <trkpt lat="44.39319" lon="3.78934">
        <ele>1342.14</ele>
        <time>2013-06-15T09:14:25Z</time>
      </trkpt>
      <trkpt lat="44.39308" lon="3.78932">
        <ele>1342.62</ele>
        <time>2013-06-15T09:14:27Z</time>
      </trkpt>
      <trkpt lat="44.39278" lon="3.78925">
        <ele>1341.66</ele>
        <time>2013-06-15T09:14:32Z</time>
      </trkpt>
      <trkpt lat="44.39272" lon="3.78925">
        <ele>1342.62</ele>
        <time>2013-06-15T09:14:33Z</time>
      </trkpt>
      <trkpt lat="44.39254" lon="3.78925">
        <ele>1342.62</ele>
        <time>2013-06-15T09:14:36Z</time>
      </trkpt>
      <trkpt lat="44.39248" lon="3.78924">
        <ele>1345.98</ele>
        <time>2013-06-15T09:14:37Z</time>
      </trkpt>
      <trkpt lat="44.39242" lon="3.78924">
        <ele>1342.62</ele>
        <time>2013-06-15T09:14:38Z</time>
      </trkpt>
      <trkpt lat="44.39227" lon="3.7892">
        <ele>1342.62</ele>
        <time>2013-06-15T09:14:41Z</time>
      </trkpt>
      <trkpt lat="44.39222" lon="3.78918">
        <ele>1343.1</ele>
        <time>2013-06-15T09:14:42Z</time>
      </trkpt>
      <trkpt lat="44.39217" lon="3.78916">
        <ele>1343.1</ele>
        <time>2013-06-15T09:14:43Z</time>
      </trkpt>
      <trkpt lat="44.39208" lon="3.7891">
        <ele>1343.1</ele>
        <time>2013-06-15T09:14:45Z</time>
      </trkpt>
      <trkpt lat="44.39204" lon="3.78908">
        <ele>1343.1</ele>
        <time>2013-06-15T09:14:46Z</time>
      </trkpt>
      <trkpt lat="44.39199" lon="3.78906">
        <ele>1342.62</ele>
        <time>2013-06-15T09:14:47Z</time>
      </trkpt>
      <trkpt lat="44.39168" lon="3.78894">
        <ele>1343.58</ele>
        <time>2013-06-15T09:14:54Z</time>
      </trkpt>
      <trkpt lat="44.39159" lon="3.78892">
        <ele>1343.58</ele>
        <time>2013-06-15T09:14:56Z</time>
      </trkpt>
      <trkpt lat="44.39154" lon="3.78893">
        <ele>1344.06</ele>
        <time>2013-06-15T09:14:57Z</time>
      </trkpt>
      <trkpt lat="44.39131" lon="3.78896">
        <ele>1344.06</ele>
        <time>2013-06-15T09:15:02Z</time>
      </trkpt>
      <trkpt lat="44.39081" lon="3.78894">
        <ele>1344.54</ele>
        <time>2013-06-15T09:15:13Z</time>
      </trkpt>
      <trkpt lat="44.39034" lon="3.78882">
        <ele>1345.02</ele>
        <time>2013-06-15T09:15:24Z</time>
      </trkpt>
      <trkpt lat="44.39017" lon="3.78877">
        <ele>1345.02</ele>
        <time>2013-06-15T09:15:28Z</time>
      </trkpt>
      <trkpt lat="44.39002" lon="3.7887">
        <ele>1345.98</ele>
        <time>2013-06-15T09:15:32Z</time>
      </trkpt>
      <trkpt lat="44.38999" lon="3.78867">
        <ele>1345.98</ele>
        <time>2013-06-15T09:15:33Z</time>
      </trkpt>
      <trkpt lat="44.38995" lon="3.78863">
        <ele>1345.5</ele>
        <time>2013-06-15T09:15:34Z</time>
      </trkpt>
      <trkpt lat="44.38992" lon="3.78859">
        <ele>1345.98</ele>
        <time>2013-06-15T09:15:35Z</time>
      </trkpt>
      <trkpt lat="44.3899" lon="3.78855">
        <ele>1346.46</ele>
        <time>2013-06-15T09:15:36Z</time>
      </trkpt>
      <trkpt lat="44.38987" lon="3.7885">
        <ele>1346.46</ele>
        <time>2013-06-15T09:15:37Z</time>
      </trkpt>
      <trkpt lat="44.38983" lon="3.7884">
        <ele>1345.98</ele>
        <time>2013-06-15T09:15:39Z</time>
      </trkpt>
      <trkpt lat="44.38981" lon="3.78834">
        <ele>1346.46</ele>
        <time>2013-06-15T09:15:40Z</time>
      </trkpt>
      <trkpt lat="44.3898" lon="3.78828">
        <ele>1346.46</ele>
        <time>2013-06-15T09:15:41Z</time>
      </trkpt>
      <trkpt lat="44.38979" lon="3.78822">
        <ele>1345.5</ele>
        <time>2013-06-15T09:15:42Z</time>
      </trkpt>
      <trkpt lat="44.38979" lon="3.78815">
        <ele>1345.98</ele>
        <time>2013-06-15T09:15:43Z</time>
      </trkpt>
      <trkpt lat="44.38979" lon="3.78809">
        <ele>1345.98</ele>
        <time>2013-06-15T09:15:44Z</time>
      </trkpt>
      <trkpt lat="44.38985" lon="3.78772">
        <ele>1345.98</ele>
        <time>2013-06-15T09:15:50Z</time>
      </trkpt>
      <trkpt lat="44.38995" lon="3.78743">
        <ele>1345.98</ele>
        <time>2013-06-15T09:15:55Z</time>
      </trkpt>
      <trkpt lat="44.38998" lon="3.78737">
        <ele>1340.7</ele>
        <time>2013-06-15T09:15:56Z</time>
      </trkpt>
      <trkpt lat="44.39" lon="3.78731">
        <ele>1345.98</ele>
        <time>2013-06-15T09:15:57Z</time>
      </trkpt>
      <trkpt lat="44.39013" lon="3.78712">
        <ele>1345.98</ele>
        <time>2013-06-15T09:16:01Z</time>
      </trkpt>
      <trkpt lat="44.39018" lon="3.78708">
        <ele>1345.98</ele>
        <time>2013-06-15T09:16:02Z</time>
      </trkpt>
      <trkpt lat="44.39022" lon="3.78704">
        <ele>1345.5</ele>
        <time>2013-06-15T09:16:03Z</time>
      </trkpt>
      <trkpt lat="44.39028" lon="3.787">
        <ele>1345.02</ele>
        <time>2013-06-15T09:16:04Z</time>
      </trkpt>
      <trkpt lat="44.39033" lon="3.78697">
        <ele>1345.02</ele>
        <time>2013-06-15T09:16:05Z</time>
      </trkpt>
      <trkpt lat="44.39043" lon="3.78691">
        <ele>1344.54</ele>
        <time>2013-06-15T09:16:07Z</time>
      </trkpt>
      <trkpt lat="44.39049" lon="3.78687">
        <ele>1344.06</ele>
        <time>2013-06-15T09:16:08Z</time>
      </trkpt>
      <trkpt lat="44.39058" lon="3.78679">
        <ele>1344.54</ele>
        <time>2013-06-15T09:16:10Z</time>
      </trkpt>
      <trkpt lat="44.39077" lon="3.78655">
        <ele>1342.62</ele>
        <time>2013-06-15T09:16:14Z</time>
      </trkpt>
      <trkpt lat="44.39105" lon="3.78624">
        <ele>1340.22</ele>
        <time>2013-06-15T09:16:19Z</time>
      </trkpt>
      <trkpt lat="44.3911" lon="3.78617">
        <ele>1340.22</ele>
        <time>2013-06-15T09:16:20Z</time>
      </trkpt>
      <trkpt lat="44.39132" lon="3.78571">
        <ele>1340.22</ele>
        <time>2013-06-15T09:16:26Z</time>
      </trkpt>
      <trkpt lat="44.39133" lon="3.78563">
        <ele>1340.22</ele>
        <time>2013-06-15T09:16:27Z</time>
      </trkpt>
      <trkpt lat="44.39133" lon="3.78555">
        <ele>1340.7</ele>
        <time>2013-06-15T09:16:28Z</time>
      </trkpt>
      <trkpt lat="44.39131" lon="3.78547">
        <ele>1341.18</ele>
        <time>2013-06-15T09:16:29Z</time>
      </trkpt>
      <trkpt lat="44.39129" lon="3.78541">
        <ele>1340.7</ele>
        <time>2013-06-15T09:16:30Z</time>
      </trkpt>
      <trkpt lat="44.39125" lon="3.78534">
        <ele>1340.7</ele>
        <time>2013-06-15T09:16:31Z</time>
      </trkpt>
      <trkpt lat="44.39122" lon="3.78528">
        <ele>1340.7</ele>
        <time>2013-06-15T09:16:32Z</time>
      </trkpt>
      <trkpt lat="44.39112" lon="3.78509">
        <ele>1340.7</ele>
        <time>2013-06-15T09:16:35Z</time>
      </trkpt>
      <trkpt lat="44.39108" lon="3.78504">
        <ele>1340.22</ele>
        <time>2013-06-15T09:16:36Z</time>
      </trkpt>
      <trkpt lat="44.39105" lon="3.78497">
        <ele>1340.7</ele>
        <time>2013-06-15T09:16:37Z</time>
      </trkpt>
      <trkpt lat="44.39103" lon="3.7849">
        <ele>1340.7</ele>
        <time>2013-06-15T09:16:38Z</time>
      </trkpt>
      <trkpt lat="44.39103" lon="3.78483">
        <ele>1340.7</ele>
        <time>2013-06-15T09:16:39Z</time>
      </trkpt>
      <trkpt lat="44.39103" lon="3.78475">
        <ele>1341.66</ele>
        <time>2013-06-15T09:16:40Z</time>
      </trkpt>
      <trkpt lat="44.39103" lon="3.78446">
        <ele>1341.18</ele>
        <time>2013-06-15T09:16:44Z</time>
      </trkpt>
      <trkpt lat="44.39112" lon="3.78392">
        <ele>1339.73</ele>
        <time>2013-06-15T09:16:51Z</time>
      </trkpt>
      <trkpt lat="44.39114" lon="3.78385">
        <ele>1340.22</ele>
        <time>2013-06-15T09:16:52Z</time>
      </trkpt>
      <trkpt lat="44.39117" lon="3.78379">
        <ele>1339.73</ele>
        <time>2013-06-15T09:16:53Z</time>
      </trkpt>
      <trkpt lat="44.3912" lon="3.78373">
        <ele>1340.22</ele>
        <time>2013-06-15T09:16:54Z</time>
      </trkpt>
      <trkpt lat="44.39122" lon="3.78366">
        <ele>1340.22</ele>
        <time>2013-06-15T09:16:55Z</time>
      </trkpt>
      <trkpt lat="44.39126" lon="3.78354">
        <ele>1340.22</ele>
        <time>2013-06-15T09:16:57Z</time>
      </trkpt>
      <trkpt lat="44.39132" lon="3.78332">
        <ele>1339.73</ele>
        <time>2013-06-15T09:17:00Z</time>
      </trkpt>
      <trkpt lat="44.39135" lon="3.78326">
        <ele>1339.73</ele>
        <time>2013-06-15T09:17:01Z</time>
      </trkpt>
      <trkpt lat="44.39139" lon="3.78322">
        <ele>1339.73</ele>
        <time>2013-06-15T09:17:02Z</time>
      </trkpt>
      <trkpt lat="44.39143" lon="3.7832">
        <ele>1339.73</ele>
        <time>2013-06-15T09:17:03Z</time>
      </trkpt>
      <trkpt lat="44.39148" lon="3.78319">
        <ele>1339.73</ele>
        <time>2013-06-15T09:17:04Z</time>
      </trkpt>
      <trkpt lat="44.39153" lon="3.78316">
        <ele>1340.22</ele>
        <time>2013-06-15T09:17:05Z</time>
      </trkpt>
      <trkpt lat="44.39157" lon="3.78312">
        <ele>1339.73</ele>
        <time>2013-06-15T09:17:06Z</time>
      </trkpt>
      <trkpt lat="44.3916" lon="3.78308">
        <ele>1340.22</ele>
        <time>2013-06-15T09:17:07Z</time>
      </trkpt>
      <trkpt lat="44.39163" lon="3.78303">
        <ele>1340.22</ele>
        <time>2013-06-15T09:17:08Z</time>
      </trkpt>
      <trkpt lat="44.39171" lon="3.78291">
        <ele>1341.18</ele>
        <time>2013-06-15T09:17:11Z</time>
      </trkpt>
      <trkpt lat="44.39174" lon="3.78287">
        <ele>1341.18</ele>
        <time>2013-06-15T09:17:12Z</time>
      </trkpt>
      <trkpt lat="44.39199" lon="3.78247">
        <ele>1344.06</ele>
        <time>2013-06-15T09:17:22Z</time>
      </trkpt>
      <trkpt lat="44.39216" lon="3.78205">
        <ele>1345.5</ele>
        <time>2013-06-15T09:17:32Z</time>
      </trkpt>
      <trkpt lat="44.39222" lon="3.78165">
        <ele>1346.94</ele>
        <time>2013-06-15T09:17:41Z</time>
      </trkpt>
      <trkpt lat="44.39216" lon="3.78127">
        <ele>1348.39</ele>
        <time>2013-06-15T09:17:50Z</time>
      </trkpt>
      <trkpt lat="44.39212" lon="3.78121">
        <ele>1348.87</ele>
        <time>2013-06-15T09:17:52Z</time>
      </trkpt>
      <trkpt lat="44.39209" lon="3.78119">
        <ele>1349.83</ele>
        <time>2013-06-15T09:17:53Z</time>
      </trkpt>
      <trkpt lat="44.39206" lon="3.78118">
        <ele>1349.35</ele>
        <time>2013-06-15T09:17:54Z</time>
      </trkpt>
      <trkpt lat="44.39203" lon="3.78117">
        <ele>1349.83</ele>
        <time>2013-06-15T09:17:55Z</time>
      </trkpt>
      <trkpt lat="44.392" lon="3.78117">
        <ele>1349.83</ele>
        <time>2013-06-15T09:17:56Z</time>
      </trkpt>
      <trkpt lat="44.39176" lon="3.781">
        <ele>1351.75</ele>
        <time>2013-06-15T09:18:05Z</time>
      </trkpt>
      <trkpt lat="44.39164" lon="3.78055">
        <ele>1353.19</ele>
        <time>2013-06-15T09:18:16Z</time>
      </trkpt>
      <trkpt lat="44.39159" lon="3.78016">
        <ele>1354.15</ele>
        <time>2013-06-15T09:18:25Z</time>
      </trkpt>
      <trkpt lat="44.39155" lon="3.77977">
        <ele>1356.56</ele>
        <time>2013-06-15T09:18:34Z</time>
      </trkpt>
      <trkpt lat="44.39152" lon="3.77932">
        <ele>1358</ele>
        <time>2013-06-15T09:18:45Z</time>
      </trkpt>
      <trkpt lat="44.39141" lon="3.77904">
        <ele>1359.44</ele>
        <time>2013-06-15T09:18:54Z</time>
      </trkpt>
      <trkpt lat="44.39112" lon="3.77891">
        <ele>1360.4</ele>
        <time>2013-06-15T09:19:05Z</time>
      </trkpt>
      <trkpt lat="44.39078" lon="3.77875">
        <ele>1362.33</ele>
        <time>2013-06-15T09:19:17Z</time>
      </trkpt>
      <trkpt lat="44.39047" lon="3.7785">
        <ele>1364.25</ele>
        <time>2013-06-15T09:19:28Z</time>
      </trkpt>
      <trkpt lat="44.39015" lon="3.77816">
        <ele>1365.69</ele>
        <time>2013-06-15T09:19:40Z</time>
      </trkpt>
      <trkpt lat="44.38993" lon="3.77767">
        <ele>1367.13</ele>
        <time>2013-06-15T09:19:53Z</time>
      </trkpt>
      <trkpt lat="44.38992" lon="3.77724">
        <ele>1368.09</ele>
        <time>2013-06-15T09:20:03Z</time>
      </trkpt>
      <trkpt lat="44.39" lon="3.77695">
        <ele>1366.17</ele>
        <time>2013-06-15T09:20:09Z</time>
      </trkpt>
      <trkpt lat="44.39002" lon="3.77689">
        <ele>1366.17</ele>
        <time>2013-06-15T09:20:10Z</time>
      </trkpt>
      <trkpt lat="44.39014" lon="3.77664">
        <ele>1364.25</ele>
        <time>2013-06-15T09:20:14Z</time>
      </trkpt>
      <trkpt lat="44.39045" lon="3.77612">
        <ele>1360.88</ele>
        <time>2013-06-15T09:20:22Z</time>
      </trkpt>
      <trkpt lat="44.39103" lon="3.7756">
        <ele>1358</ele>
        <time>2013-06-15T09:20:33Z</time>
      </trkpt>
      <trkpt lat="44.39121" lon="3.7755">
        <ele>1357.04</ele>
        <time>2013-06-15T09:20:36Z</time>
      </trkpt>
      <trkpt lat="44.39127" lon="3.77546">
        <ele>1357.52</ele>
        <time>2013-06-15T09:20:37Z</time>
      </trkpt>
      <trkpt lat="44.39131" lon="3.7754">
        <ele>1357.52</ele>
        <time>2013-06-15T09:20:38Z</time>
      </trkpt>
      <trkpt lat="44.39135" lon="3.77532">
        <ele>1356.56</ele>
        <time>2013-06-15T09:20:39Z</time>
      </trkpt>
      <trkpt lat="44.39138" lon="3.77524">
        <ele>1356.08</ele>
        <time>2013-06-15T09:20:40Z</time>
      </trkpt>
      <trkpt lat="44.3914" lon="3.77515">
        <ele>1356.08</ele>
        <time>2013-06-15T09:20:41Z</time>
      </trkpt>
      <trkpt lat="44.39145" lon="3.77498">
        <ele>1354.63</ele>
        <time>2013-06-15T09:20:43Z</time>
      </trkpt>
      <trkpt lat="44.39156" lon="3.77461">
        <ele>1352.71</ele>
        <time>2013-06-15T09:20:47Z</time>
      </trkpt>
      <trkpt lat="44.3916" lon="3.77453">
        <ele>1355.6</ele>
        <time>2013-06-15T09:20:48Z</time>
      </trkpt>
      <trkpt lat="44.39165" lon="3.77445">
        <ele>1352.23</ele>
        <time>2013-06-15T09:20:49Z</time>
      </trkpt>
      <trkpt lat="44.39186" lon="3.77416">
        <ele>1350.79</ele>
        <time>2013-06-15T09:20:53Z</time>
      </trkpt>
      <trkpt lat="44.39194" lon="3.77398">
        <ele>1349.35</ele>
        <time>2013-06-15T09:20:55Z</time>
      </trkpt>
      <trkpt lat="44.39204" lon="3.77379">
        <ele>1348.39</ele>
        <time>2013-06-15T09:20:57Z</time>
      </trkpt>
      <trkpt lat="44.39209" lon="3.7737">
        <ele>1347.43</ele>
        <time>2013-06-15T09:20:58Z</time>
      </trkpt>
      <trkpt lat="44.39231" lon="3.77337">
        <ele>1346.46</ele>
        <time>2013-06-15T09:21:02Z</time>
      </trkpt>
      <trkpt lat="44.39236" lon="3.77326">
        <ele>1346.46</ele>
        <time>2013-06-15T09:21:06Z</time>
      </trkpt>
      <trkpt lat="44.39234" lon="3.77324">
        <ele>1345.98</ele>
        <time>2013-06-15T09:21:10Z</time>
      </trkpt>
      <trkpt lat="44.39224" lon="3.77351">
        <ele>1347.43</ele>
        <time>2013-06-15T09:21:20Z</time>
      </trkpt>
      <trkpt lat="44.39222" lon="3.77353">
        <ele>1343.1</ele>
        <time>2013-06-15T09:21:21Z</time>
      </trkpt>
      <trkpt lat="44.3922" lon="3.77355">
        <ele>1348.39</ele>
        <time>2013-06-15T09:21:22Z</time>
      </trkpt>
      <trkpt lat="44.39212" lon="3.77375">
        <ele>1348.87</ele>
        <time>2013-06-15T09:21:29Z</time>
      </trkpt>
      <trkpt lat="44.3922" lon="3.77381">
        <ele>1348.87</ele>
        <time>2013-06-15T09:21:33Z</time>
      </trkpt>
      <trkpt lat="44.39245" lon="3.77386">
        <ele>1351.27</ele>
        <time>2013-06-15T09:21:44Z</time>
      </trkpt>
      <trkpt lat="44.39271" lon="3.77393">
        <ele>1352.71</ele>
        <time>2013-06-15T09:21:55Z</time>
      </trkpt>
      <trkpt lat="44.39297" lon="3.77404">
        <ele>1354.63</ele>
        <time>2013-06-15T09:22:05Z</time>
      </trkpt>
      <trkpt lat="44.3933" lon="3.77411">
        <ele>1356.56</ele>
        <time>2013-06-15T09:22:17Z</time>
      </trkpt>
      <trkpt lat="44.39339" lon="3.77413">
        <ele>1358</ele>
        <time>2013-06-15T09:22:21Z</time>
      </trkpt>
      <trkpt lat="44.39362" lon="3.77415">
        <ele>1360.88</ele>
        <time>2013-06-15T09:22:31Z</time>
      </trkpt>
      <trkpt lat="44.3939" lon="3.77416">
        <ele>1362.81</ele>
        <time>2013-06-15T09:22:43Z</time>
      </trkpt>
      <trkpt lat="44.39405" lon="3.77419">
        <ele>1364.25</ele>
        <time>2013-06-15T09:22:50Z</time>
      </trkpt>
      <trkpt lat="44.39428" lon="3.77424">
        <ele>1366.17</ele>
        <time>2013-06-15T09:23:01Z</time>
      </trkpt>
      <trkpt lat="44.39448" lon="3.77425">
        <ele>1367.13</ele>
        <time>2013-06-15T09:23:09Z</time>
      </trkpt>
      <trkpt lat="44.39466" lon="3.77429">
        <ele>1369.54</ele>
        <time>2013-06-15T09:23:17Z</time>
      </trkpt>
      <trkpt lat="44.39487" lon="3.77434">
        <ele>1371.46</ele>
        <time>2013-06-15T09:23:26Z</time>
      </trkpt>
      <trkpt lat="44.39512" lon="3.77436">
        <ele>1372.9</ele>
        <time>2013-06-15T09:23:38Z</time>
      </trkpt>
      <trkpt lat="44.39526" lon="3.77444">
        <ele>1374.34</ele>
        <time>2013-06-15T09:23:45Z</time>
      </trkpt>
      <trkpt lat="44.39533" lon="3.77448">
        <ele>1375.3</ele>
        <time>2013-06-15T09:23:49Z</time>
      </trkpt>
      <trkpt lat="44.39551" lon="3.7746">
        <ele>1377.23</ele>
        <time>2013-06-15T09:23:59Z</time>
      </trkpt>
      <trkpt lat="44.39561" lon="3.77468">
        <ele>1378.19</ele>
        <time>2013-06-15T09:24:05Z</time>
      </trkpt>
      <trkpt lat="44.39581" lon="3.77471">
        <ele>1379.63</ele>
        <time>2013-06-15T09:24:14Z</time>
      </trkpt>
      <trkpt lat="44.39598" lon="3.77472">
        <ele>1381.07</ele>
        <time>2013-06-15T09:24:22Z</time>
      </trkpt>
      <trkpt lat="44.39623" lon="3.77478">
        <ele>1382.99</ele>
        <time>2013-06-15T09:24:34Z</time>
      </trkpt>
      <trkpt lat="44.3964" lon="3.77494">
        <ele>1386.36</ele>
        <time>2013-06-15T09:24:45Z</time>
      </trkpt>
      <trkpt lat="44.39643" lon="3.77496">
        <ele>1385.88</ele>
        <time>2013-06-15T09:24:47Z</time>
      </trkpt>
      <trkpt lat="44.39652" lon="3.77504">
        <ele>1386.84</ele>
        <time>2013-06-15T09:24:52Z</time>
      </trkpt>
      <trkpt lat="44.39656" lon="3.77512">
        <ele>1387.32</ele>
        <time>2013-06-15T09:24:56Z</time>
      </trkpt>
      <trkpt lat="44.39665" lon="3.77528">
        <ele>1389.72</ele>
        <time>2013-06-15T09:25:04Z</time>
      </trkpt>
      <trkpt lat="44.39669" lon="3.77539">
        <ele>1389.72</ele>
        <time>2013-06-15T09:25:09Z</time>
      </trkpt>
      <trkpt lat="44.39675" lon="3.77556">
        <ele>1391.65</ele>
        <time>2013-06-15T09:25:16Z</time>
      </trkpt>
      <trkpt lat="44.39681" lon="3.77568">
        <ele>1392.13</ele>
        <time>2013-06-15T09:25:22Z</time>
      </trkpt>
      <trkpt lat="44.39692" lon="3.7759">
        <ele>1394.05</ele>
        <time>2013-06-15T09:25:31Z</time>
      </trkpt>
      <trkpt lat="44.39709" lon="3.77609">
        <ele>1395.49</ele>
        <time>2013-06-15T09:25:41Z</time>
      </trkpt>
      <trkpt lat="44.39719" lon="3.77624">
        <ele>1396.45</ele>
        <time>2013-06-15T09:25:48Z</time>
      </trkpt>
      <trkpt lat="44.39726" lon="3.77643">
        <ele>1396.93</ele>
        <time>2013-06-15T09:25:55Z</time>
      </trkpt>
      <trkpt lat="44.39731" lon="3.77652">
        <ele>1397.41</ele>
        <time>2013-06-15T09:25:59Z</time>
      </trkpt>
      <trkpt lat="44.39748" lon="3.77676">
        <ele>1399.34</ele>
        <time>2013-06-15T09:26:10Z</time>
      </trkpt>
      <trkpt lat="44.39756" lon="3.77689">
        <ele>1391.65</ele>
        <time>2013-06-15T09:26:16Z</time>
      </trkpt>
      <trkpt lat="44.39758" lon="3.77691">
        <ele>1401.74</ele>
        <time>2013-06-15T09:26:17Z</time>
      </trkpt>
      <trkpt lat="44.39771" lon="3.7771">
        <ele>1401.26</ele>
        <time>2013-06-15T09:26:25Z</time>
      </trkpt>
      <trkpt lat="44.39789" lon="3.77731">
        <ele>1403.66</ele>
        <time>2013-06-15T09:26:36Z</time>
      </trkpt>
      <trkpt lat="44.39809" lon="3.77746">
        <ele>1405.1</ele>
        <time>2013-06-15T09:26:47Z</time>
      </trkpt>
      <trkpt lat="44.39824" lon="3.77756">
        <ele>1405.58</ele>
        <time>2013-06-15T09:26:55Z</time>
      </trkpt>
      <trkpt lat="44.39838" lon="3.77763">
        <ele>1407.03</ele>
        <time>2013-06-15T09:27:02Z</time>
      </trkpt>
      <trkpt lat="44.39857" lon="3.77765">
        <ele>1407.99</ele>
        <time>2013-06-15T09:27:11Z</time>
      </trkpt>
      <trkpt lat="44.39868" lon="3.77766">
        <ele>1408.47</ele>
        <time>2013-06-15T09:27:16Z</time>
      </trkpt>
      <trkpt lat="44.39878" lon="3.77769">
        <ele>1409.43</ele>
        <time>2013-06-15T09:27:21Z</time>
      </trkpt>
      <trkpt lat="44.39885" lon="3.77775">
        <ele>1409.91</ele>
        <time>2013-06-15T09:27:29Z</time>
      </trkpt>
      <trkpt lat="44.39886" lon="3.77775">
        <ele>1410.39</ele>
        <time>2013-06-15T09:27:30Z</time>
      </trkpt>
      <trkpt lat="44.39899" lon="3.77769">
        <ele>1411.83</ele>
        <time>2013-06-15T09:27:40Z</time>
      </trkpt>
      <trkpt lat="44.39922" lon="3.77773">
        <ele>1412.79</ele>
        <time>2013-06-15T09:27:50Z</time>
      </trkpt>
      <trkpt lat="44.39929" lon="3.77775">
        <ele>1413.28</ele>
        <time>2013-06-15T09:27:53Z</time>
      </trkpt>
      <trkpt lat="44.39943" lon="3.77778">
        <ele>1413.76</ele>
        <time>2013-06-15T09:27:59Z</time>
      </trkpt>
      <trkpt lat="44.39967" lon="3.77773">
        <ele>1415.68</ele>
        <time>2013-06-15T09:28:09Z</time>
      </trkpt>
      <trkpt lat="44.3999" lon="3.77777">
        <ele>1416.64</ele>
        <time>2013-06-15T09:28:17Z</time>
      </trkpt>
      <trkpt lat="44.40006" lon="3.77779">
        <ele>1417.12</ele>
        <time>2013-06-15T09:28:22Z</time>
      </trkpt>
      <trkpt lat="44.40018" lon="3.77772">
        <ele>1418.08</ele>
        <time>2013-06-15T09:28:29Z</time>
      </trkpt>
      <trkpt lat="44.40025" lon="3.77772">
        <ele>1418.56</ele>
        <time>2013-06-15T09:28:31Z</time>
      </trkpt>
      <trkpt lat="44.40048" lon="3.77767">
        <ele>1420</ele>
        <time>2013-06-15T09:28:41Z</time>
      </trkpt>
      <trkpt lat="44.4007" lon="3.7776">
        <ele>1420.97</ele>
        <time>2013-06-15T09:28:50Z</time>
      </trkpt>
      <trkpt lat="44.40089" lon="3.77754">
        <ele>1422.89</ele>
        <time>2013-06-15T09:28:59Z</time>
      </trkpt>
      <trkpt lat="44.40119" lon="3.77756">
        <ele>1423.37</ele>
        <time>2013-06-15T09:29:08Z</time>
      </trkpt>
      <trkpt lat="44.40142" lon="3.77756">
        <ele>1425.29</ele>
        <time>2013-06-15T09:29:16Z</time>
      </trkpt>
      <trkpt lat="44.40153" lon="3.77755">
        <ele>1425.77</ele>
        <time>2013-06-15T09:29:20Z</time>
      </trkpt>
      <trkpt lat="44.40162" lon="3.77754">
        <ele>1426.25</ele>
        <time>2013-06-15T09:29:24Z</time>
      </trkpt>
      <trkpt lat="44.40188" lon="3.77756">
        <ele>1427.21</ele>
        <time>2013-06-15T09:29:34Z</time>
      </trkpt>
      <trkpt lat="44.40207" lon="3.77765">
        <ele>1427.7</ele>
        <time>2013-06-15T09:29:42Z</time>
      </trkpt>
      <trkpt lat="44.40223" lon="3.77772">
        <ele>1429.14</ele>
        <time>2013-06-15T09:29:48Z</time>
      </trkpt>
      <trkpt lat="44.40239" lon="3.77787">
        <ele>1430.1</ele>
        <time>2013-06-15T09:29:57Z</time>
      </trkpt>
      <trkpt lat="44.40253" lon="3.77803">
        <ele>1431.54</ele>
        <time>2013-06-15T09:30:06Z</time>
      </trkpt>
      <trkpt lat="44.40254" lon="3.77809">
        <ele>1431.54</ele>
        <time>2013-06-15T09:30:08Z</time>
      </trkpt>
      <trkpt lat="44.40256" lon="3.77815">
        <ele>1432.5</ele>
        <time>2013-06-15T09:30:10Z</time>
      </trkpt>
      <trkpt lat="44.40265" lon="3.77837">
        <ele>1432.98</ele>
        <time>2013-06-15T09:30:19Z</time>
      </trkpt>
      <trkpt lat="44.40283" lon="3.7786">
        <ele>1434.42</ele>
        <time>2013-06-15T09:30:30Z</time>
      </trkpt>
      <trkpt lat="44.40287" lon="3.77864">
        <ele>1434.42</ele>
        <time>2013-06-15T09:30:32Z</time>
      </trkpt>
      <trkpt lat="44.40302" lon="3.77876">
        <ele>1435.39</ele>
        <time>2013-06-15T09:30:40Z</time>
      </trkpt>
      <trkpt lat="44.40316" lon="3.77884">
        <ele>1435.87</ele>
        <time>2013-06-15T09:30:47Z</time>
      </trkpt>
      <trkpt lat="44.40326" lon="3.77887">
        <ele>1436.35</ele>
        <time>2013-06-15T09:30:51Z</time>
      </trkpt>
      <trkpt lat="44.40351" lon="3.77885">
        <ele>1437.31</ele>
        <time>2013-06-15T09:31:00Z</time>
      </trkpt>
      <trkpt lat="44.40365" lon="3.77883">
        <ele>1437.31</ele>
        <time>2013-06-15T09:31:04Z</time>
      </trkpt>
      <trkpt lat="44.40389" lon="3.77887">
        <ele>1438.27</ele>
        <time>2013-06-15T09:31:13Z</time>
      </trkpt>
      <trkpt lat="44.40403" lon="3.77897">
        <ele>1439.23</ele>
        <time>2013-06-15T09:31:19Z</time>
      </trkpt>
      <trkpt lat="44.40408" lon="3.779">
        <ele>1438.75</ele>
        <time>2013-06-15T09:31:21Z</time>
      </trkpt>
      <trkpt lat="44.40432" lon="3.77902">
        <ele>1438.75</ele>
        <time>2013-06-15T09:31:29Z</time>
      </trkpt>
      <trkpt lat="44.40454" lon="3.77909">
        <ele>1440.19</ele>
        <time>2013-06-15T09:31:37Z</time>
      </trkpt>
      <trkpt lat="44.40472" lon="3.77925">
        <ele>1439.71</ele>
        <time>2013-06-15T09:31:46Z</time>
      </trkpt>
      <trkpt lat="44.4049" lon="3.77944">
        <ele>1440.67</ele>
        <time>2013-06-15T09:31:54Z</time>
      </trkpt>
      <trkpt lat="44.40513" lon="3.77942">
        <ele>1440.67</ele>
        <time>2013-06-15T09:32:02Z</time>
      </trkpt>
      <trkpt lat="44.40531" lon="3.77937">
        <ele>1440.67</ele>
        <time>2013-06-15T09:32:08Z</time>
      </trkpt>
      <trkpt lat="44.40547" lon="3.77924">
        <ele>1440.67</ele>
        <time>2013-06-15T09:32:14Z</time>
      </trkpt>
      <trkpt lat="44.40557" lon="3.77913">
        <ele>1441.15</ele>
        <time>2013-06-15T09:32:18Z</time>
      </trkpt>
      <trkpt lat="44.40568" lon="3.77886">
        <ele>1441.63</ele>
        <time>2013-06-15T09:32:25Z</time>
      </trkpt>
      <trkpt lat="44.40576" lon="3.77872">
        <ele>1442.11</ele>
        <time>2013-06-15T09:32:30Z</time>
      </trkpt>
      <trkpt lat="44.40589" lon="3.7786">
        <ele>1442.6</ele>
        <time>2013-06-15T09:32:35Z</time>
      </trkpt>
      <trkpt lat="44.40617" lon="3.77817">
        <ele>1441.63</ele>
        <time>2013-06-15T09:32:46Z</time>
      </trkpt>
      <trkpt lat="44.4062" lon="3.77812">
        <ele>1442.11</ele>
        <time>2013-06-15T09:32:47Z</time>
      </trkpt>
      <trkpt lat="44.40627" lon="3.77804">
        <ele>1441.63</ele>
        <time>2013-06-15T09:32:49Z</time>
      </trkpt>
      <trkpt lat="44.4063" lon="3.778">
        <ele>1441.63</ele>
        <time>2013-06-15T09:32:50Z</time>
      </trkpt>
      <trkpt lat="44.40633" lon="3.77795">
        <ele>1441.63</ele>
        <time>2013-06-15T09:32:51Z</time>
      </trkpt>
      <trkpt lat="44.4065" lon="3.77771">
        <ele>1443.56</ele>
        <time>2013-06-15T09:32:58Z</time>
      </trkpt>
      <trkpt lat="44.40676" lon="3.77757">
        <ele>1445</ele>
        <time>2013-06-15T09:33:08Z</time>
      </trkpt>
      <trkpt lat="44.40678" lon="3.77757">
        <ele>1444.52</ele>
        <time>2013-06-15T09:33:09Z</time>
      </trkpt>
      <trkpt lat="44.40696" lon="3.77767">
        <ele>1446.44</ele>
        <time>2013-06-15T09:33:17Z</time>
      </trkpt>
      <trkpt lat="44.4072" lon="3.7777">
        <ele>1447.88</ele>
        <time>2013-06-15T09:33:27Z</time>
      </trkpt>
      <trkpt lat="44.40735" lon="3.77771">
        <ele>1449.32</ele>
        <time>2013-06-15T09:33:34Z</time>
      </trkpt>
      <trkpt lat="44.40737" lon="3.7777">
        <ele>1448.84</ele>
        <time>2013-06-15T09:33:35Z</time>
      </trkpt>
      <trkpt lat="44.40739" lon="3.7777">
        <ele>1449.32</ele>
        <time>2013-06-15T09:33:36Z</time>
      </trkpt>
      <trkpt lat="44.40743" lon="3.7777">
        <ele>1449.32</ele>
        <time>2013-06-15T09:33:37Z</time>
      </trkpt>
      <trkpt lat="44.40745" lon="3.7777">
        <ele>1449.81</ele>
        <time>2013-06-15T09:33:38Z</time>
      </trkpt>
      <trkpt lat="44.40757" lon="3.77769">
        <ele>1450.29</ele>
        <time>2013-06-15T09:33:44Z</time>
      </trkpt>
      <trkpt lat="44.40761" lon="3.77769">
        <ele>1450.77</ele>
        <time>2013-06-15T09:33:46Z</time>
      </trkpt>
      <trkpt lat="44.40762" lon="3.77768">
        <ele>1451.25</ele>
        <time>2013-06-15T09:33:47Z</time>
      </trkpt>
      <trkpt lat="44.40765" lon="3.77768">
        <ele>1451.25</ele>
        <time>2013-06-15T09:33:48Z</time>
      </trkpt>
      <trkpt lat="44.40766" lon="3.77767">
        <ele>1451.73</ele>
        <time>2013-06-15T09:33:49Z</time>
      </trkpt>
      <trkpt lat="44.40768" lon="3.77767">
        <ele>1452.21</ele>
        <time>2013-06-15T09:33:50Z</time>
      </trkpt>
      <trkpt lat="44.4077" lon="3.77767">
        <ele>1451.73</ele>
        <time>2013-06-15T09:33:51Z</time>
      </trkpt>
      <trkpt lat="44.40772" lon="3.77767">
        <ele>1452.21</ele>
        <time>2013-06-15T09:33:52Z</time>
      </trkpt>
      <trkpt lat="44.40774" lon="3.77766">
        <ele>1452.21</ele>
        <time>2013-06-15T09:33:53Z</time>
      </trkpt>
      <trkpt lat="44.40776" lon="3.77766">
        <ele>1452.21</ele>
        <time>2013-06-15T09:33:54Z</time>
      </trkpt>
      <trkpt lat="44.40779" lon="3.77766">
        <ele>1452.21</ele>
        <time>2013-06-15T09:33:55Z</time>
      </trkpt>
      <trkpt lat="44.40786" lon="3.77765">
        <ele>1453.17</ele>
        <time>2013-06-15T09:33:58Z</time>
      </trkpt>
      <trkpt lat="44.4079" lon="3.77766">
        <ele>1453.65</ele>
        <time>2013-06-15T09:33:59Z</time>
      </trkpt>
      <trkpt lat="44.40792" lon="3.77767">
        <ele>1454.13</ele>
        <time>2013-06-15T09:34:00Z</time>
      </trkpt>
      <trkpt lat="44.40795" lon="3.77767">
        <ele>1454.13</ele>
        <time>2013-06-15T09:34:01Z</time>
      </trkpt>
      <trkpt lat="44.40797" lon="3.77766">
        <ele>1454.61</ele>
        <time>2013-06-15T09:34:02Z</time>
      </trkpt>
      <trkpt lat="44.40799" lon="3.77766">
        <ele>1454.13</ele>
        <time>2013-06-15T09:34:03Z</time>
      </trkpt>
      <trkpt lat="44.408" lon="3.77765">
        <ele>1454.61</ele>
        <time>2013-06-15T09:34:04Z</time>
      </trkpt>
      <trkpt lat="44.40819" lon="3.7776">
        <ele>1456.05</ele>
        <time>2013-06-15T09:34:12Z</time>
      </trkpt>
      <trkpt lat="44.40825" lon="3.77758">
        <ele>1456.53</ele>
        <time>2013-06-15T09:34:15Z</time>
      </trkpt>
      <trkpt lat="44.40828" lon="3.77758">
        <ele>1456.53</ele>
        <time>2013-06-15T09:34:16Z</time>
      </trkpt>
      <trkpt lat="44.40841" lon="3.77755">
        <ele>1456.53</ele>
        <time>2013-06-15T09:34:21Z</time>
      </trkpt>
      <trkpt lat="44.40844" lon="3.77753">
        <ele>1457.02</ele>
        <time>2013-06-15T09:34:22Z</time>
      </trkpt>
      <trkpt lat="44.40847" lon="3.77752">
        <ele>1457.02</ele>
        <time>2013-06-15T09:34:23Z</time>
      </trkpt>
      <trkpt lat="44.40851" lon="3.77752">
        <ele>1457.02</ele>
        <time>2013-06-15T09:34:24Z</time>
      </trkpt>
      <trkpt lat="44.40854" lon="3.77751">
        <ele>1457.02</ele>
        <time>2013-06-15T09:34:25Z</time>
      </trkpt>
      <trkpt lat="44.40878" lon="3.77741">
        <ele>1457.5</ele>
        <time>2013-06-15T09:34:33Z</time>
      </trkpt>
      <trkpt lat="44.40897" lon="3.77732">
        <ele>1456.53</ele>
        <time>2013-06-15T09:34:40Z</time>
      </trkpt>
      <trkpt lat="44.409" lon="3.7773">
        <ele>1457.5</ele>
        <time>2013-06-15T09:34:41Z</time>
      </trkpt>
      <trkpt lat="44.4093" lon="3.77725">
        <ele>1457.02</ele>
        <time>2013-06-15T09:34:48Z</time>
      </trkpt>
      <trkpt lat="44.40961" lon="3.77723">
        <ele>1457.98</ele>
        <time>2013-06-15T09:34:56Z</time>
      </trkpt>
      <trkpt lat="44.40964" lon="3.77724">
        <ele>1458.46</ele>
        <time>2013-06-15T09:34:57Z</time>
      </trkpt>
      <trkpt lat="44.40967" lon="3.77724">
        <ele>1458.46</ele>
        <time>2013-06-15T09:34:58Z</time>
      </trkpt>
      <trkpt lat="44.4097" lon="3.77724">
        <ele>1457.98</ele>
        <time>2013-06-15T09:34:59Z</time>
      </trkpt>
      <trkpt lat="44.40974" lon="3.77723">
        <ele>1457.98</ele>
        <time>2013-06-15T09:35:00Z</time>
      </trkpt>
      <trkpt lat="44.40977" lon="3.77723">
        <ele>1458.46</ele>
        <time>2013-06-15T09:35:01Z</time>
      </trkpt>
      <trkpt lat="44.4098" lon="3.77723">
        <ele>1458.46</ele>
        <time>2013-06-15T09:35:02Z</time>
      </trkpt>
      <trkpt lat="44.40984" lon="3.77724">
        <ele>1458.94</ele>
        <time>2013-06-15T09:35:03Z</time>
      </trkpt>
      <trkpt lat="44.40988" lon="3.77725">
        <ele>1458.94</ele>
        <time>2013-06-15T09:35:04Z</time>
      </trkpt>
      <trkpt lat="44.41015" lon="3.77726">
        <ele>1460.38</ele>
        <time>2013-06-15T09:35:12Z</time>
      </trkpt>
      <trkpt lat="44.4104" lon="3.77725">
        <ele>1459.9</ele>
        <time>2013-06-15T09:35:19Z</time>
      </trkpt>
      <trkpt lat="44.41064" lon="3.7772">
        <ele>1460.38</ele>
        <time>2013-06-15T09:35:26Z</time>
      </trkpt>
      <trkpt lat="44.41105" lon="3.77722">
        <ele>1461.34</ele>
        <time>2013-06-15T09:35:37Z</time>
      </trkpt>
      <trkpt lat="44.41117" lon="3.77719">
        <ele>1461.34</ele>
        <time>2013-06-15T09:35:40Z</time>
      </trkpt>
      <trkpt lat="44.41155" lon="3.77718">
        <ele>1461.82</ele>
        <time>2013-06-15T09:35:49Z</time>
      </trkpt>
      <trkpt lat="44.41186" lon="3.77722">
        <ele>1461.34</ele>
        <time>2013-06-15T09:35:56Z</time>
      </trkpt>
      <trkpt lat="44.4119" lon="3.77723">
        <ele>1461.34</ele>
        <time>2013-06-15T09:35:57Z</time>
      </trkpt>
      <trkpt lat="44.41227" lon="3.77728">
        <ele>1462.78</ele>
        <time>2013-06-15T09:36:07Z</time>
      </trkpt>
      <trkpt lat="44.41251" lon="3.77731">
        <ele>1463.74</ele>
        <time>2013-06-15T09:36:15Z</time>
      </trkpt>
      <trkpt lat="44.41285" lon="3.77719">
        <ele>1463.74</ele>
        <time>2013-06-15T09:36:25Z</time>
      </trkpt>
      <trkpt lat="44.41317" lon="3.77708">
        <ele>1465.19</ele>
        <time>2013-06-15T09:36:34Z</time>
      </trkpt>
      <trkpt lat="44.41342" lon="3.77707">
        <ele>1466.63</ele>
        <time>2013-06-15T09:36:42Z</time>
      </trkpt>
      <trkpt lat="44.41368" lon="3.77708">
        <ele>1467.59</ele>
        <time>2013-06-15T09:36:50Z</time>
      </trkpt>
      <trkpt lat="44.41391" lon="3.77717">
        <ele>1468.55</ele>
        <time>2013-06-15T09:36:58Z</time>
      </trkpt>
      <trkpt lat="44.41419" lon="3.77732">
        <ele>1469.51</ele>
        <time>2013-06-15T09:37:08Z</time>
      </trkpt>
      <trkpt lat="44.41428" lon="3.7774">
        <ele>1469.99</ele>
        <time>2013-06-15T09:37:12Z</time>
      </trkpt>
      <trkpt lat="44.41431" lon="3.77741">
        <ele>1469.99</ele>
        <time>2013-06-15T09:37:13Z</time>
      </trkpt>
      <trkpt lat="44.41433" lon="3.7774">
        <ele>1470.47</ele>
        <time>2013-06-15T09:37:14Z</time>
      </trkpt>
      <trkpt lat="44.41441" lon="3.77737">
        <ele>1470.47</ele>
        <time>2013-06-15T09:37:22Z</time>
      </trkpt>
      <trkpt lat="44.41441" lon="3.77737">
        <ele>1469.99</ele>
        <time>2013-06-15T09:37:35Z</time>
      </trkpt>
      <trkpt lat="44.41444" lon="3.77736">
        <ele>1470.95</ele>
        <time>2013-06-15T09:37:58Z</time>
      </trkpt>
      <trkpt lat="44.41444" lon="3.77736">
        <ele>1470.47</ele>
        <time>2013-06-15T09:38:21Z</time>
      </trkpt>
      <trkpt lat="44.41443" lon="3.77736">
        <ele>1470.47</ele>
        <time>2013-06-15T09:38:33Z</time>
      </trkpt>
      <trkpt lat="44.41443" lon="3.77736">
        <ele>1470.95</ele>
        <time>2013-06-15T09:39:00Z</time>
      </trkpt>
      <trkpt lat="44.41443" lon="3.77736">
        <ele>1478.16</ele>
        <time>2013-06-15T09:39:08Z</time>
      </trkpt>
      <trkpt lat="44.41443" lon="3.77735">
        <ele>1470.95</ele>
        <time>2013-06-15T09:39:09Z</time>
      </trkpt>
      <trkpt lat="44.41443" lon="3.77735">
        <ele>1462.78</ele>
        <time>2013-06-15T09:39:10Z</time>
      </trkpt>
      <trkpt lat="44.41443" lon="3.77735">
        <ele>1476.24</ele>
        <time>2013-06-15T09:39:11Z</time>
      </trkpt>
      <trkpt lat="44.41443" lon="3.77735">
        <ele>1472.4</ele>
        <time>2013-06-15T09:39:12Z</time>
      </trkpt>
      <trkpt lat="44.41443" lon="3.77735">
        <ele>1479.61</ele>
        <time>2013-06-15T09:39:15Z</time>
      </trkpt>
      <trkpt lat="44.41443" lon="3.77735">
        <ele>1469.99</ele>
        <time>2013-06-15T09:39:16Z</time>
      </trkpt>
      <trkpt lat="44.41443" lon="3.77735">
        <ele>1474.8</ele>
        <time>2013-06-15T09:39:17Z</time>
      </trkpt>
      <trkpt lat="44.41443" lon="3.77735">
        <ele>1465.67</ele>
        <time>2013-06-15T09:39:18Z</time>
      </trkpt>
      <trkpt lat="44.41443" lon="3.77735">
        <ele>1473.36</ele>
        <time>2013-06-15T09:39:19Z</time>
      </trkpt>
      <trkpt lat="44.41444" lon="3.77735">
        <ele>1471.44</ele>
        <time>2013-06-15T09:39:34Z</time>
      </trkpt>
      <trkpt lat="44.41444" lon="3.77736">
        <ele>1471.44</ele>
        <time>2013-06-15T09:40:01Z</time>
      </trkpt>
      <trkpt lat="44.41444" lon="3.77737">
        <ele>1470.95</ele>
        <time>2013-06-15T09:40:23Z</time>
      </trkpt>
      <trkpt lat="44.41445" lon="3.77736">
        <ele>1470.95</ele>
        <time>2013-06-15T09:40:42Z</time>
      </trkpt>
      <trkpt lat="44.41445" lon="3.77735">
        <ele>1471.44</ele>
        <time>2013-06-15T09:40:52Z</time>
      </trkpt>
      <trkpt lat="44.41447" lon="3.77734">
        <ele>1470.95</ele>
        <time>2013-06-15T09:40:53Z</time>
      </trkpt>
      <trkpt lat="44.41447" lon="3.77735">
        <ele>1470.95</ele>
        <time>2013-06-15T09:41:02Z</time>
      </trkpt>
      <trkpt lat="44.41445" lon="3.77735">
        <ele>1470.95</ele>
        <time>2013-06-15T09:41:31Z</time>
      </trkpt>
      <trkpt lat="44.41444" lon="3.77731">
        <ele>1471.44</ele>
        <time>2013-06-15T09:42:02Z</time>
      </trkpt>
      <trkpt lat="44.41445" lon="3.77734">
        <ele>1471.44</ele>
        <time>2013-06-15T09:42:29Z</time>
      </trkpt>
      <trkpt lat="44.41447" lon="3.77732">
        <ele>1471.44</ele>
        <time>2013-06-15T09:42:57Z</time>
      </trkpt>
      <trkpt lat="44.41448" lon="3.77733">
        <ele>1471.92</ele>
        <time>2013-06-15T09:43:19Z</time>
      </trkpt>
      <trkpt lat="44.41449" lon="3.77732">
        <ele>1471.92</ele>
        <time>2013-06-15T09:43:20Z</time>
      </trkpt>
      <trkpt lat="44.4145" lon="3.77729">
        <ele>1471.44</ele>
        <time>2013-06-15T09:43:21Z</time>
      </trkpt>
      <trkpt lat="44.41451" lon="3.77726">
        <ele>1471.44</ele>
        <time>2013-06-15T09:43:22Z</time>
      </trkpt>
      <trkpt lat="44.41451" lon="3.77721">
        <ele>1471.44</ele>
        <time>2013-06-15T09:43:23Z</time>
      </trkpt>
      <trkpt lat="44.41451" lon="3.77717">
        <ele>1471.92</ele>
        <time>2013-06-15T09:43:24Z</time>
      </trkpt>
      <trkpt lat="44.41449" lon="3.77712">
        <ele>1471.44</ele>
        <time>2013-06-15T09:43:25Z</time>
      </trkpt>
      <trkpt lat="44.41447" lon="3.77707">
        <ele>1471.44</ele>
        <time>2013-06-15T09:43:26Z</time>
      </trkpt>
      <trkpt lat="44.41445" lon="3.77703">
        <ele>1471.92</ele>
        <time>2013-06-15T09:43:27Z</time>
      </trkpt>
      <trkpt lat="44.41443" lon="3.77699">
        <ele>1471.92</ele>
        <time>2013-06-15T09:43:28Z</time>
      </trkpt>
      <trkpt lat="44.41422" lon="3.77666">
        <ele>1472.4</ele>
        <time>2013-06-15T09:43:37Z</time>
      </trkpt>
      <trkpt lat="44.41401" lon="3.7764">
        <ele>1472.88</ele>
        <time>2013-06-15T09:43:46Z</time>
      </trkpt>
      <trkpt lat="44.41383" lon="3.77617">
        <ele>1472.88</ele>
        <time>2013-06-15T09:43:53Z</time>
      </trkpt>
      <trkpt lat="44.41357" lon="3.77594">
        <ele>1473.84</ele>
        <time>2013-06-15T09:44:01Z</time>
      </trkpt>
      <trkpt lat="44.4134" lon="3.77575">
        <ele>1473.84</ele>
        <time>2013-06-15T09:44:07Z</time>
      </trkpt>
      <trkpt lat="44.41338" lon="3.77571">
        <ele>1473.84</ele>
        <time>2013-06-15T09:44:08Z</time>
      </trkpt>
      <trkpt lat="44.41319" lon="3.77546">
        <ele>1474.32</ele>
        <time>2013-06-15T09:44:15Z</time>
      </trkpt>
      <trkpt lat="44.41301" lon="3.77506">
        <ele>1474.8</ele>
        <time>2013-06-15T09:44:24Z</time>
      </trkpt>
      <trkpt lat="44.41297" lon="3.77488">
        <ele>1475.28</ele>
        <time>2013-06-15T09:44:28Z</time>
      </trkpt>
      <trkpt lat="44.41284" lon="3.77441">
        <ele>1476.24</ele>
        <time>2013-06-15T09:44:38Z</time>
      </trkpt>
      <trkpt lat="44.41281" lon="3.77427">
        <ele>1476.24</ele>
        <time>2013-06-15T09:44:41Z</time>
      </trkpt>
      <trkpt lat="44.41281" lon="3.77422">
        <ele>1477.2</ele>
        <time>2013-06-15T09:44:42Z</time>
      </trkpt>
      <trkpt lat="44.4128" lon="3.77417">
        <ele>1476.72</ele>
        <time>2013-06-15T09:44:43Z</time>
      </trkpt>
      <trkpt lat="44.41283" lon="3.77391">
        <ele>1477.68</ele>
        <time>2013-06-15T09:44:49Z</time>
      </trkpt>
      <trkpt lat="44.41283" lon="3.77386">
        <ele>1477.68</ele>
        <time>2013-06-15T09:44:50Z</time>
      </trkpt>
      <trkpt lat="44.41283" lon="3.77376">
        <ele>1478.16</ele>
        <time>2013-06-15T09:44:52Z</time>
      </trkpt>
      <trkpt lat="44.41284" lon="3.77372">
        <ele>1478.65</ele>
        <time>2013-06-15T09:44:53Z</time>
      </trkpt>
      <trkpt lat="44.41285" lon="3.77368">
        <ele>1478.65</ele>
        <time>2013-06-15T09:44:54Z</time>
      </trkpt>
      <trkpt lat="44.41287" lon="3.77364">
        <ele>1479.13</ele>
        <time>2013-06-15T09:44:55Z</time>
      </trkpt>
      <trkpt lat="44.41288" lon="3.7736">
        <ele>1478.65</ele>
        <time>2013-06-15T09:44:56Z</time>
      </trkpt>
      <trkpt lat="44.41296" lon="3.77325">
        <ele>1479.61</ele>
        <time>2013-06-15T09:45:04Z</time>
      </trkpt>
      <trkpt lat="44.4131" lon="3.77296">
        <ele>1480.57</ele>
        <time>2013-06-15T09:45:12Z</time>
      </trkpt>
      <trkpt lat="44.4132" lon="3.77264">
        <ele>1482.01</ele>
        <time>2013-06-15T09:45:20Z</time>
      </trkpt>
      <trkpt lat="44.41323" lon="3.77251">
        <ele>1482.01</ele>
        <time>2013-06-15T09:45:24Z</time>
      </trkpt>
      <trkpt lat="44.41321" lon="3.77247">
        <ele>1482.49</ele>
        <time>2013-06-15T09:45:25Z</time>
      </trkpt>
      <trkpt lat="44.41318" lon="3.77243">
        <ele>1482.97</ele>
        <time>2013-06-15T09:45:26Z</time>
      </trkpt>
      <trkpt lat="44.41315" lon="3.7724">
        <ele>1482.49</ele>
        <time>2013-06-15T09:45:27Z</time>
      </trkpt>
      <trkpt lat="44.41312" lon="3.77236">
        <ele>1482.97</ele>
        <time>2013-06-15T09:45:28Z</time>
      </trkpt>
      <trkpt lat="44.41298" lon="3.77214">
        <ele>1483.45</ele>
        <time>2013-06-15T09:45:34Z</time>
      </trkpt>
      <trkpt lat="44.41297" lon="3.7721">
        <ele>1483.45</ele>
        <time>2013-06-15T09:45:35Z</time>
      </trkpt>
      <trkpt lat="44.41296" lon="3.77205">
        <ele>1483.45</ele>
        <time>2013-06-15T09:45:36Z</time>
      </trkpt>
      <trkpt lat="44.41294" lon="3.77201">
        <ele>1483.93</ele>
        <time>2013-06-15T09:45:37Z</time>
      </trkpt>
      <trkpt lat="44.41294" lon="3.77196">
        <ele>1483.93</ele>
        <time>2013-06-15T09:45:38Z</time>
      </trkpt>
      <trkpt lat="44.41293" lon="3.77193">
        <ele>1484.41</ele>
        <time>2013-06-15T09:45:39Z</time>
      </trkpt>
      <trkpt lat="44.41292" lon="3.77189">
        <ele>1483.93</ele>
        <time>2013-06-15T09:45:40Z</time>
      </trkpt>
      <trkpt lat="44.41272" lon="3.77162">
        <ele>1484.89</ele>
        <time>2013-06-15T09:45:47Z</time>
      </trkpt>
      <trkpt lat="44.41255" lon="3.77148">
        <ele>1485.37</ele>
        <time>2013-06-15T09:45:53Z</time>
      </trkpt>
      <trkpt lat="44.4125" lon="3.77144">
        <ele>1491.62</ele>
        <time>2013-06-15T09:45:55Z</time>
      </trkpt>
      <trkpt lat="44.41247" lon="3.77142">
        <ele>1485.85</ele>
        <time>2013-06-15T09:45:56Z</time>
      </trkpt>
      <trkpt lat="44.41232" lon="3.77128">
        <ele>1486.82</ele>
        <time>2013-06-15T09:46:02Z</time>
      </trkpt>
      <trkpt lat="44.41231" lon="3.77125">
        <ele>1487.3</ele>
        <time>2013-06-15T09:46:03Z</time>
      </trkpt>
      <trkpt lat="44.41232" lon="3.77123">
        <ele>1486.82</ele>
        <time>2013-06-15T09:46:04Z</time>
      </trkpt>
      <trkpt lat="44.41234" lon="3.77121">
        <ele>1487.3</ele>
        <time>2013-06-15T09:46:05Z</time>
      </trkpt>
      <trkpt lat="44.41235" lon="3.77121">
        <ele>1487.78</ele>
        <time>2013-06-15T09:46:06Z</time>
      </trkpt>
      <trkpt lat="44.41236" lon="3.7712">
        <ele>1487.78</ele>
        <time>2013-06-15T09:46:07Z</time>
      </trkpt>
      <trkpt lat="44.41237" lon="3.77119">
        <ele>1487.78</ele>
        <time>2013-06-15T09:46:08Z</time>
      </trkpt>
      <trkpt lat="44.41256" lon="3.77115">
        <ele>1488.74</ele>
        <time>2013-06-15T09:46:17Z</time>
      </trkpt>
      <trkpt lat="44.41262" lon="3.77115">
        <ele>1477.2</ele>
        <time>2013-06-15T09:46:20Z</time>
      </trkpt>
      <trkpt lat="44.41265" lon="3.77116">
        <ele>1491.14</ele>
        <time>2013-06-15T09:46:21Z</time>
      </trkpt>
      <trkpt lat="44.4129" lon="3.77122">
        <ele>1491.14</ele>
        <time>2013-06-15T09:46:32Z</time>
      </trkpt>
      <trkpt lat="44.41295" lon="3.77123">
        <ele>1491.62</ele>
        <time>2013-06-15T09:46:35Z</time>
      </trkpt>
      <trkpt lat="44.41297" lon="3.77123">
        <ele>1491.62</ele>
        <time>2013-06-15T09:46:36Z</time>
      </trkpt>
      <trkpt lat="44.41299" lon="3.77124">
        <ele>1491.62</ele>
        <time>2013-06-15T09:46:37Z</time>
      </trkpt>
      <trkpt lat="44.41302" lon="3.77124">
        <ele>1492.1</ele>
        <time>2013-06-15T09:46:38Z</time>
      </trkpt>
      <trkpt lat="44.41305" lon="3.77124">
        <ele>1492.1</ele>
        <time>2013-06-15T09:46:39Z</time>
      </trkpt>
      <trkpt lat="44.41307" lon="3.77123">
        <ele>1493.55</ele>
        <time>2013-06-15T09:46:40Z</time>
      </trkpt>
      <trkpt lat="44.41309" lon="3.77123">
        <ele>1493.55</ele>
        <time>2013-06-15T09:46:41Z</time>
      </trkpt>
      <trkpt lat="44.41311" lon="3.77122">
        <ele>1494.03</ele>
        <time>2013-06-15T09:46:42Z</time>
      </trkpt>
      <trkpt lat="44.4132" lon="3.77122">
        <ele>1496.43</ele>
        <time>2013-06-15T09:46:50Z</time>
      </trkpt>
      <trkpt lat="44.41324" lon="3.7712">
        <ele>1497.39</ele>
        <time>2013-06-15T09:46:56Z</time>
      </trkpt>
      <trkpt lat="44.41331" lon="3.77123">
        <ele>1498.35</ele>
        <time>2013-06-15T09:47:04Z</time>
      </trkpt>
      <trkpt lat="44.41334" lon="3.7713">
        <ele>1499.31</ele>
        <time>2013-06-15T09:47:08Z</time>
      </trkpt>
      <trkpt lat="44.41337" lon="3.77131">
        <ele>1499.31</ele>
        <time>2013-06-15T09:47:09Z</time>
      </trkpt>
      <trkpt lat="44.41339" lon="3.77132">
        <ele>1499.79</ele>
        <time>2013-06-15T09:47:10Z</time>
      </trkpt>
      <trkpt lat="44.41341" lon="3.77133">
        <ele>1499.79</ele>
        <time>2013-06-15T09:47:11Z</time>
      </trkpt>
      <trkpt lat="44.41342" lon="3.77134">
        <ele>1500.27</ele>
        <time>2013-06-15T09:47:12Z</time>
      </trkpt>
      <trkpt lat="44.41359" lon="3.77136">
        <ele>1501.24</ele>
        <time>2013-06-15T09:47:22Z</time>
      </trkpt>
      <trkpt lat="44.41359" lon="3.77135">
        <ele>1501.24</ele>
        <time>2013-06-15T09:47:23Z</time>
      </trkpt>
      <trkpt lat="44.4136" lon="3.77135">
        <ele>1501.72</ele>
        <time>2013-06-15T09:47:24Z</time>
      </trkpt>
      <trkpt lat="44.41365" lon="3.77132">
        <ele>1502.2</ele>
        <time>2013-06-15T09:47:28Z</time>
      </trkpt>
      <trkpt lat="44.41371" lon="3.77131">
        <ele>1502.68</ele>
        <time>2013-06-15T09:47:33Z</time>
      </trkpt>
      <trkpt lat="44.41375" lon="3.77133">
        <ele>1503.64</ele>
        <time>2013-06-15T09:47:35Z</time>
      </trkpt>
      <trkpt lat="44.41376" lon="3.77135">
        <ele>1503.64</ele>
        <time>2013-06-15T09:47:36Z</time>
      </trkpt>
      <trkpt lat="44.41378" lon="3.77137">
        <ele>1502.68</ele>
        <time>2013-06-15T09:47:37Z</time>
      </trkpt>
      <trkpt lat="44.41379" lon="3.77139">
        <ele>1503.64</ele>
        <time>2013-06-15T09:47:38Z</time>
      </trkpt>
      <trkpt lat="44.41381" lon="3.77141">
        <ele>1503.64</ele>
        <time>2013-06-15T09:47:39Z</time>
      </trkpt>
      <trkpt lat="44.41384" lon="3.77143">
        <ele>1503.16</ele>
        <time>2013-06-15T09:47:40Z</time>
      </trkpt>
      <trkpt lat="44.41385" lon="3.77144">
        <ele>1503.64</ele>
        <time>2013-06-15T09:47:41Z</time>
      </trkpt>
      <trkpt lat="44.41399" lon="3.77153">
        <ele>1503.64</ele>
        <time>2013-06-15T09:47:49Z</time>
      </trkpt>
      <trkpt lat="44.41423" lon="3.77168">
        <ele>1503.16</ele>
        <time>2013-06-15T09:47:59Z</time>
      </trkpt>
      <trkpt lat="44.41425" lon="3.7717">
        <ele>1503.16</ele>
        <time>2013-06-15T09:48:00Z</time>
      </trkpt>
      <trkpt lat="44.41426" lon="3.77173">
        <ele>1504.12</ele>
        <time>2013-06-15T09:48:01Z</time>
      </trkpt>
      <trkpt lat="44.41427" lon="3.77175">
        <ele>1503.64</ele>
        <time>2013-06-15T09:48:02Z</time>
      </trkpt>
      <trkpt lat="44.41428" lon="3.77179">
        <ele>1503.16</ele>
        <time>2013-06-15T09:48:03Z</time>
      </trkpt>
      <trkpt lat="44.41429" lon="3.77183">
        <ele>1503.16</ele>
        <time>2013-06-15T09:48:04Z</time>
      </trkpt>
      <trkpt lat="44.41429" lon="3.77187">
        <ele>1502.68</ele>
        <time>2013-06-15T09:48:05Z</time>
      </trkpt>
      <trkpt lat="44.41431" lon="3.77192">
        <ele>1502.68</ele>
        <time>2013-06-15T09:48:06Z</time>
      </trkpt>
      <trkpt lat="44.41432" lon="3.77196">
        <ele>1502.2</ele>
        <time>2013-06-15T09:48:07Z</time>
      </trkpt>
      <trkpt lat="44.41432" lon="3.77199">
        <ele>1502.68</ele>
        <time>2013-06-15T09:48:08Z</time>
      </trkpt>
      <trkpt lat="44.41433" lon="3.77203">
        <ele>1502.2</ele>
        <time>2013-06-15T09:48:09Z</time>
      </trkpt>
      <trkpt lat="44.41433" lon="3.77207">
        <ele>1502.68</ele>
        <time>2013-06-15T09:48:10Z</time>
      </trkpt>
      <trkpt lat="44.41433" lon="3.77235">
        <ele>1502.68</ele>
        <time>2013-06-15T09:48:17Z</time>
      </trkpt>
      <trkpt lat="44.41433" lon="3.77238">
        <ele>1502.68</ele>
        <time>2013-06-15T09:48:18Z</time>
      </trkpt>
      <trkpt lat="44.41445" lon="3.77264">
        <ele>1504.12</ele>
        <time>2013-06-15T09:48:28Z</time>
      </trkpt>
      <trkpt lat="44.41452" lon="3.77274">
        <ele>1504.6</ele>
        <time>2013-06-15T09:48:33Z</time>
      </trkpt>
      <trkpt lat="44.41453" lon="3.77276">
        <ele>1504.6</ele>
        <time>2013-06-15T09:48:34Z</time>
      </trkpt>
      <trkpt lat="44.41455" lon="3.77278">
        <ele>1505.08</ele>
        <time>2013-06-15T09:48:35Z</time>
      </trkpt>
      <trkpt lat="44.41456" lon="3.7728">
        <ele>1505.08</ele>
        <time>2013-06-15T09:48:36Z</time>
      </trkpt>
      <trkpt lat="44.41458" lon="3.77282">
        <ele>1505.56</ele>
        <time>2013-06-15T09:48:37Z</time>
      </trkpt>
      <trkpt lat="44.4146" lon="3.77284">
        <ele>1506.04</ele>
        <time>2013-06-15T09:48:38Z</time>
      </trkpt>
      <trkpt lat="44.41461" lon="3.77286">
        <ele>1506.04</ele>
        <time>2013-06-15T09:48:39Z</time>
      </trkpt>
      <trkpt lat="44.41463" lon="3.77288">
        <ele>1506.52</ele>
        <time>2013-06-15T09:48:40Z</time>
      </trkpt>
      <trkpt lat="44.41465" lon="3.77291">
        <ele>1506.04</ele>
        <time>2013-06-15T09:48:41Z</time>
      </trkpt>
      <trkpt lat="44.41466" lon="3.77293">
        <ele>1506.04</ele>
        <time>2013-06-15T09:48:42Z</time>
      </trkpt>
      <trkpt lat="44.41467" lon="3.77296">
        <ele>1506.52</ele>
        <time>2013-06-15T09:48:43Z</time>
      </trkpt>
      <trkpt lat="44.41467" lon="3.77298">
        <ele>1506.52</ele>
        <time>2013-06-15T09:48:44Z</time>
      </trkpt>
      <trkpt lat="44.41467" lon="3.77301">
        <ele>1506.04</ele>
        <time>2013-06-15T09:48:45Z</time>
      </trkpt>
      <trkpt lat="44.41468" lon="3.77304">
        <ele>1506.04</ele>
        <time>2013-06-15T09:48:46Z</time>
      </trkpt>
      <trkpt lat="44.41468" lon="3.77307">
        <ele>1507.97</ele>
        <time>2013-06-15T09:48:47Z</time>
      </trkpt>
      <trkpt lat="44.41468" lon="3.7731">
        <ele>1506.52</ele>
        <time>2013-06-15T09:48:48Z</time>
      </trkpt>
      <trkpt lat="44.41469" lon="3.77313">
        <ele>1506.04</ele>
        <time>2013-06-15T09:48:49Z</time>
      </trkpt>
      <trkpt lat="44.4147" lon="3.77316">
        <ele>1506.04</ele>
        <time>2013-06-15T09:48:50Z</time>
      </trkpt>
      <trkpt lat="44.41477" lon="3.77324">
        <ele>1507</ele>
        <time>2013-06-15T09:48:55Z</time>
      </trkpt>
      <trkpt lat="44.4149" lon="3.77337">
        <ele>1507</ele>
        <time>2013-06-15T09:49:04Z</time>
      </trkpt>
      <trkpt lat="44.41498" lon="3.77335">
        <ele>1507.97</ele>
        <time>2013-06-15T09:49:08Z</time>
      </trkpt>
      <trkpt lat="44.41521" lon="3.77316">
        <ele>1509.41</ele>
        <time>2013-06-15T09:49:19Z</time>
      </trkpt>
      <trkpt lat="44.41542" lon="3.773">
        <ele>1510.85</ele>
        <time>2013-06-15T09:49:28Z</time>
      </trkpt>
      <trkpt lat="44.41544" lon="3.77298">
        <ele>1498.35</ele>
        <time>2013-06-15T09:49:29Z</time>
      </trkpt>
      <trkpt lat="44.41547" lon="3.77296">
        <ele>1512.29</ele>
        <time>2013-06-15T09:49:30Z</time>
      </trkpt>
      <trkpt lat="44.41571" lon="3.77277">
        <ele>1511.33</ele>
        <time>2013-06-15T09:49:39Z</time>
      </trkpt>
      <trkpt lat="44.41605" lon="3.77252">
        <ele>1513.25</ele>
        <time>2013-06-15T09:49:50Z</time>
      </trkpt>
      <trkpt lat="44.41641" lon="3.77236">
        <ele>1515.66</ele>
        <time>2013-06-15T09:50:01Z</time>
      </trkpt>
      <trkpt lat="44.41674" lon="3.77222">
        <ele>1517.1</ele>
        <time>2013-06-15T09:50:11Z</time>
      </trkpt>
      <trkpt lat="44.41706" lon="3.77206">
        <ele>1518.06</ele>
        <time>2013-06-15T09:50:21Z</time>
      </trkpt>
      <trkpt lat="44.4174" lon="3.77181">
        <ele>1519.98</ele>
        <time>2013-06-15T09:50:32Z</time>
      </trkpt>
      <trkpt lat="44.41761" lon="3.7716">
        <ele>1520.94</ele>
        <time>2013-06-15T09:50:40Z</time>
      </trkpt>
      <trkpt lat="44.41787" lon="3.77137">
        <ele>1521.9</ele>
        <time>2013-06-15T09:50:49Z</time>
      </trkpt>
      <trkpt lat="44.41814" lon="3.77114">
        <ele>1523.35</ele>
        <time>2013-06-15T09:50:58Z</time>
      </trkpt>
      <trkpt lat="44.41842" lon="3.77102">
        <ele>1524.79</ele>
        <time>2013-06-15T09:51:06Z</time>
      </trkpt>
      <trkpt lat="44.41878" lon="3.7709">
        <ele>1527.19</ele>
        <time>2013-06-15T09:51:17Z</time>
      </trkpt>
      <trkpt lat="44.41907" lon="3.77069">
        <ele>1528.15</ele>
        <time>2013-06-15T09:51:26Z</time>
      </trkpt>
      <trkpt lat="44.41939" lon="3.77051">
        <ele>1529.59</ele>
        <time>2013-06-15T09:51:36Z</time>
      </trkpt>
      <trkpt lat="44.4197" lon="3.77041">
        <ele>1531.04</ele>
        <time>2013-06-15T09:51:45Z</time>
      </trkpt>
      <trkpt lat="44.42011" lon="3.77034">
        <ele>1532.48</ele>
        <time>2013-06-15T09:51:56Z</time>
      </trkpt>
      <trkpt lat="44.42047" lon="3.77026">
        <ele>1533.92</ele>
        <time>2013-06-15T09:52:06Z</time>
      </trkpt>
      <trkpt lat="44.42076" lon="3.77021">
        <ele>1535.84</ele>
        <time>2013-06-15T09:52:14Z</time>
      </trkpt>
      <trkpt lat="44.42106" lon="3.77019">
        <ele>1537.29</ele>
        <time>2013-06-15T09:52:22Z</time>
      </trkpt>
      <trkpt lat="44.42148" lon="3.77018">
        <ele>1538.25</ele>
        <time>2013-06-15T09:52:33Z</time>
      </trkpt>
      <trkpt lat="44.42194" lon="3.77017">
        <ele>1540.17</ele>
        <time>2013-06-15T09:52:45Z</time>
      </trkpt>
      <trkpt lat="44.42241" lon="3.77014">
        <ele>1542.09</ele>
        <time>2013-06-15T09:52:57Z</time>
      </trkpt>
      <trkpt lat="44.42283" lon="3.76994">
        <ele>1543.05</ele>
        <time>2013-06-15T09:53:08Z</time>
      </trkpt>
      <trkpt lat="44.42328" lon="3.76964">
        <ele>1544.5</ele>
        <time>2013-06-15T09:53:19Z</time>
      </trkpt>
      <trkpt lat="44.42344" lon="3.76952">
        <ele>1548.34</ele>
        <time>2013-06-15T09:53:23Z</time>
      </trkpt>
      <trkpt lat="44.42348" lon="3.76949">
        <ele>1544.5</ele>
        <time>2013-06-15T09:53:24Z</time>
      </trkpt>
      <trkpt lat="44.42351" lon="3.76946">
        <ele>1536.32</ele>
        <time>2013-06-15T09:53:25Z</time>
      </trkpt>
      <trkpt lat="44.42354" lon="3.76943">
        <ele>1544.5</ele>
        <time>2013-06-15T09:53:26Z</time>
      </trkpt>
      <trkpt lat="44.4237" lon="3.76927">
        <ele>1544.98</ele>
        <time>2013-06-15T09:53:31Z</time>
      </trkpt>
      <trkpt lat="44.42373" lon="3.76922">
        <ele>1544.01</ele>
        <time>2013-06-15T09:53:32Z</time>
      </trkpt>
      <trkpt lat="44.42376" lon="3.76918">
        <ele>1544.5</ele>
        <time>2013-06-15T09:53:33Z</time>
      </trkpt>
      <trkpt lat="44.424" lon="3.76878">
        <ele>1544.01</ele>
        <time>2013-06-15T09:53:43Z</time>
      </trkpt>
      <trkpt lat="44.4242" lon="3.76828">
        <ele>1543.53</ele>
        <time>2013-06-15T09:53:54Z</time>
      </trkpt>
      <trkpt lat="44.42424" lon="3.76809">
        <ele>1543.53</ele>
        <time>2013-06-15T09:53:58Z</time>
      </trkpt>
      <trkpt lat="44.42423" lon="3.76806">
        <ele>1544.01</ele>
        <time>2013-06-15T09:53:59Z</time>
      </trkpt>
      <trkpt lat="44.42422" lon="3.76805">
        <ele>1544.01</ele>
        <time>2013-06-15T09:54:00Z</time>
      </trkpt>
      <trkpt lat="44.4242" lon="3.76805">
        <ele>1544.5</ele>
        <time>2013-06-15T09:54:01Z</time>
      </trkpt>
      <trkpt lat="44.42418" lon="3.76807">
        <ele>1544.5</ele>
        <time>2013-06-15T09:54:02Z</time>
      </trkpt>
      <trkpt lat="44.42416" lon="3.7681">
        <ele>1544.98</ele>
        <time>2013-06-15T09:54:03Z</time>
      </trkpt>
      <trkpt lat="44.42414" lon="3.76812">
        <ele>1544.98</ele>
        <time>2013-06-15T09:54:04Z</time>
      </trkpt>
      <trkpt lat="44.42413" lon="3.76815">
        <ele>1544.98</ele>
        <time>2013-06-15T09:54:05Z</time>
      </trkpt>
      <trkpt lat="44.42411" lon="3.76817">
        <ele>1545.46</ele>
        <time>2013-06-15T09:54:06Z</time>
      </trkpt>
      <trkpt lat="44.4241" lon="3.76819">
        <ele>1545.46</ele>
        <time>2013-06-15T09:54:07Z</time>
      </trkpt>
      <trkpt lat="44.42408" lon="3.76821">
        <ele>1545.46</ele>
        <time>2013-06-15T09:54:09Z</time>
      </trkpt>
      <trkpt lat="44.42406" lon="3.76821">
        <ele>1545.46</ele>
        <time>2013-06-15T09:54:10Z</time>
      </trkpt>
      <trkpt lat="44.42404" lon="3.76821">
        <ele>1545.94</ele>
        <time>2013-06-15T09:54:11Z</time>
      </trkpt>
      <trkpt lat="44.42402" lon="3.76821">
        <ele>1545.94</ele>
        <time>2013-06-15T09:54:12Z</time>
      </trkpt>
      <trkpt lat="44.42399" lon="3.76822">
        <ele>1546.42</ele>
        <time>2013-06-15T09:54:13Z</time>
      </trkpt>
      <trkpt lat="44.42386" lon="3.7683">
        <ele>1546.9</ele>
        <time>2013-06-15T09:54:21Z</time>
      </trkpt>
      <trkpt lat="44.42384" lon="3.76831">
        <ele>1547.38</ele>
        <time>2013-06-15T09:54:31Z</time>
      </trkpt>
      <trkpt lat="44.42383" lon="3.76832">
        <ele>1547.38</ele>
        <time>2013-06-15T09:54:47Z</time>
      </trkpt>
      <trkpt lat="44.4238" lon="3.76834">
        <ele>1547.86</ele>
        <time>2013-06-15T09:55:05Z</time>
      </trkpt>
      <trkpt lat="44.42376" lon="3.76837">
        <ele>1542.57</ele>
        <time>2013-06-15T09:55:07Z</time>
      </trkpt>
      <trkpt lat="44.42375" lon="3.76838">
        <ele>1547.86</ele>
        <time>2013-06-15T09:55:08Z</time>
      </trkpt>
      <trkpt lat="44.42373" lon="3.76838">
        <ele>1547.86</ele>
        <time>2013-06-15T09:55:09Z</time>
      </trkpt>
      <trkpt lat="44.42371" lon="3.76839">
        <ele>1547.86</ele>
        <time>2013-06-15T09:55:10Z</time>
      </trkpt>
      <trkpt lat="44.42354" lon="3.76847">
        <ele>1548.34</ele>
        <time>2013-06-15T09:55:18Z</time>
      </trkpt>
      <trkpt lat="44.42324" lon="3.76857">
        <ele>1550.26</ele>
        <time>2013-06-15T09:55:29Z</time>
      </trkpt>
      <trkpt lat="44.42295" lon="3.76865">
        <ele>1551.22</ele>
        <time>2013-06-15T09:55:38Z</time>
      </trkpt>
      <trkpt lat="44.42262" lon="3.76873">
        <ele>1552.19</ele>
        <time>2013-06-15T09:55:48Z</time>
      </trkpt>
      <trkpt lat="44.42233" lon="3.76881">
        <ele>1553.15</ele>
        <time>2013-06-15T09:55:57Z</time>
      </trkpt>
      <trkpt lat="44.4219" lon="3.76875">
        <ele>1555.07</ele>
        <time>2013-06-15T09:56:09Z</time>
      </trkpt>
      <trkpt lat="44.42163" lon="3.76869">
        <ele>1556.03</ele>
        <time>2013-06-15T09:56:18Z</time>
      </trkpt>
      <trkpt lat="44.42133" lon="3.76862">
        <ele>1556.99</ele>
        <time>2013-06-15T09:56:28Z</time>
      </trkpt>
      <trkpt lat="44.42107" lon="3.76855">
        <ele>1558.92</ele>
        <time>2013-06-15T09:56:37Z</time>
      </trkpt>
      <trkpt lat="44.42078" lon="3.76849">
        <ele>1560.36</ele>
        <time>2013-06-15T09:56:47Z</time>
      </trkpt>
      <trkpt lat="44.4206" lon="3.76845">
        <ele>1561.32</ele>
        <time>2013-06-15T09:56:54Z</time>
      </trkpt>
      <trkpt lat="44.42058" lon="3.76844">
        <ele>1561.8</ele>
        <time>2013-06-15T09:56:55Z</time>
      </trkpt>
      <trkpt lat="44.42034" lon="3.76838">
        <ele>1563.24</ele>
        <time>2013-06-15T09:57:04Z</time>
      </trkpt>
      <trkpt lat="44.42011" lon="3.76834">
        <ele>1565.16</ele>
        <time>2013-06-15T09:57:13Z</time>
      </trkpt>
      <trkpt lat="44.4199" lon="3.76828">
        <ele>1566.61</ele>
        <time>2013-06-15T09:57:22Z</time>
      </trkpt>
      <trkpt lat="44.41969" lon="3.76825">
        <ele>1569.01</ele>
        <time>2013-06-15T09:57:31Z</time>
      </trkpt>
      <trkpt lat="44.41947" lon="3.76817">
        <ele>1569.97</ele>
        <time>2013-06-15T09:57:40Z</time>
      </trkpt>
      <trkpt lat="44.4192" lon="3.76814">
        <ele>1570.93</ele>
        <time>2013-06-15T09:57:50Z</time>
      </trkpt>
      <trkpt lat="44.41897" lon="3.76809">
        <ele>1572.85</ele>
        <time>2013-06-15T09:57:59Z</time>
      </trkpt>
      <trkpt lat="44.41881" lon="3.76804">
        <ele>1573.33</ele>
        <time>2013-06-15T09:58:07Z</time>
      </trkpt>
      <trkpt lat="44.41854" lon="3.76787">
        <ele>1574.78</ele>
        <time>2013-06-15T09:58:15Z</time>
      </trkpt>
      <trkpt lat="44.41834" lon="3.76762">
        <ele>1575.74</ele>
        <time>2013-06-15T09:58:25Z</time>
      </trkpt>
      <trkpt lat="44.41825" lon="3.76726">
        <ele>1576.7</ele>
        <time>2013-06-15T09:58:35Z</time>
      </trkpt>
      <trkpt lat="44.4182" lon="3.76698">
        <ele>1578.62</ele>
        <time>2013-06-15T09:58:43Z</time>
      </trkpt>
      <trkpt lat="44.41816" lon="3.76668">
        <ele>1580.06</ele>
        <time>2013-06-15T09:58:52Z</time>
      </trkpt>
      <trkpt lat="44.41818" lon="3.7664">
        <ele>1581.03</ele>
        <time>2013-06-15T09:59:00Z</time>
      </trkpt>
      <trkpt lat="44.41818" lon="3.76633">
        <ele>1587.75</ele>
        <time>2013-06-15T09:59:02Z</time>
      </trkpt>
      <trkpt lat="44.41818" lon="3.76629">
        <ele>1581.03</ele>
        <time>2013-06-15T09:59:03Z</time>
      </trkpt>
      <trkpt lat="44.41816" lon="3.76594">
        <ele>1582.95</ele>
        <time>2013-06-15T09:59:13Z</time>
      </trkpt>
      <trkpt lat="44.41817" lon="3.76565">
        <ele>1584.39</ele>
        <time>2013-06-15T09:59:21Z</time>
      </trkpt>
      <trkpt lat="44.41821" lon="3.76521">
        <ele>1585.83</ele>
        <time>2013-06-15T09:59:33Z</time>
      </trkpt>
      <trkpt lat="44.41825" lon="3.76484">
        <ele>1588.24</ele>
        <time>2013-06-15T09:59:44Z</time>
      </trkpt>
      <trkpt lat="44.41826" lon="3.7647">
        <ele>1589.2</ele>
        <time>2013-06-15T09:59:48Z</time>
      </trkpt>
      <trkpt lat="44.41826" lon="3.76467">
        <ele>1588.72</ele>
        <time>2013-06-15T09:59:49Z</time>
      </trkpt>
      <trkpt lat="44.41826" lon="3.76464">
        <ele>1588.72</ele>
        <time>2013-06-15T09:59:50Z</time>
      </trkpt>
      <trkpt lat="44.41831" lon="3.76428">
        <ele>1591.12</ele>
        <time>2013-06-15T10:00:00Z</time>
      </trkpt>
      <trkpt lat="44.41839" lon="3.76387">
        <ele>1593.04</ele>
        <time>2013-06-15T10:00:11Z</time>
      </trkpt>
      <trkpt lat="44.41849" lon="3.76356">
        <ele>1594.48</ele>
        <time>2013-06-15T10:00:20Z</time>
      </trkpt>
      <trkpt lat="44.41862" lon="3.76314">
        <ele>1596.41</ele>
        <time>2013-06-15T10:00:32Z</time>
      </trkpt>
      <trkpt lat="44.41875" lon="3.76276">
        <ele>1597.85</ele>
        <time>2013-06-15T10:00:43Z</time>
      </trkpt>
      <trkpt lat="44.41886" lon="3.76234">
        <ele>1599.29</ele>
        <time>2013-06-15T10:00:54Z</time>
      </trkpt>
      <trkpt lat="44.41897" lon="3.7619">
        <ele>1600.25</ele>
        <time>2013-06-15T10:01:05Z</time>
      </trkpt>
      <trkpt lat="44.41908" lon="3.76156">
        <ele>1600.73</ele>
        <time>2013-06-15T10:01:13Z</time>
      </trkpt>
      <trkpt lat="44.41919" lon="3.76107">
        <ele>1605.06</ele>
        <time>2013-06-15T10:01:24Z</time>
      </trkpt>
      <trkpt lat="44.4192" lon="3.76102">
        <ele>1601.69</ele>
        <time>2013-06-15T10:01:25Z</time>
      </trkpt>
      <trkpt lat="44.41925" lon="3.76057">
        <ele>1603.14</ele>
        <time>2013-06-15T10:01:35Z</time>
      </trkpt>
      <trkpt lat="44.41929" lon="3.76023">
        <ele>1604.1</ele>
        <time>2013-06-15T10:01:43Z</time>
      </trkpt>
      <trkpt lat="44.41929" lon="3.75984">
        <ele>1604.58</ele>
        <time>2013-06-15T10:01:53Z</time>
      </trkpt>
      <trkpt lat="44.41931" lon="3.75949">
        <ele>1599.77</ele>
        <time>2013-06-15T10:02:02Z</time>
      </trkpt>
      <trkpt lat="44.4193" lon="3.75945">
        <ele>1605.54</ele>
        <time>2013-06-15T10:02:03Z</time>
      </trkpt>
      <trkpt lat="44.4193" lon="3.75937">
        <ele>1589.68</ele>
        <time>2013-06-15T10:02:05Z</time>
      </trkpt>
      <trkpt lat="44.4193" lon="3.75933">
        <ele>1608.9</ele>
        <time>2013-06-15T10:02:06Z</time>
      </trkpt>
      <trkpt lat="44.4193" lon="3.75929">
        <ele>1605.54</ele>
        <time>2013-06-15T10:02:07Z</time>
      </trkpt>
      <trkpt lat="44.41931" lon="3.75907">
        <ele>1617.07</ele>
        <time>2013-06-15T10:02:13Z</time>
      </trkpt>
      <trkpt lat="44.41931" lon="3.75904">
        <ele>1606.5</ele>
        <time>2013-06-15T10:02:14Z</time>
      </trkpt>
      <trkpt lat="44.41919" lon="3.75878">
        <ele>1606.5</ele>
        <time>2013-06-15T10:02:22Z</time>
      </trkpt>
      <trkpt lat="44.41892" lon="3.75846">
        <ele>1606.02</ele>
        <time>2013-06-15T10:02:32Z</time>
      </trkpt>
      <trkpt lat="44.41861" lon="3.75811">
        <ele>1604.58</ele>
        <time>2013-06-15T10:02:41Z</time>
      </trkpt>
      <trkpt lat="44.41857" lon="3.75806">
        <ele>1604.58</ele>
        <time>2013-06-15T10:02:42Z</time>
      </trkpt>
      <trkpt lat="44.41812" lon="3.75774">
        <ele>1602.66</ele>
        <time>2013-06-15T10:02:53Z</time>
      </trkpt>
      <trkpt lat="44.41799" lon="3.75767">
        <ele>1602.66</ele>
        <time>2013-06-15T10:02:56Z</time>
      </trkpt>
      <trkpt lat="44.41796" lon="3.75763">
        <ele>1601.69</ele>
        <time>2013-06-15T10:02:57Z</time>
      </trkpt>
      <trkpt lat="44.41793" lon="3.75756">
        <ele>1601.69</ele>
        <time>2013-06-15T10:02:58Z</time>
      </trkpt>
      <trkpt lat="44.41793" lon="3.75749">
        <ele>1600.73</ele>
        <time>2013-06-15T10:02:59Z</time>
      </trkpt>
      <trkpt lat="44.41793" lon="3.75741">
        <ele>1600.25</ele>
        <time>2013-06-15T10:03:00Z</time>
      </trkpt>
      <trkpt lat="44.41794" lon="3.75732">
        <ele>1599.29</ele>
        <time>2013-06-15T10:03:01Z</time>
      </trkpt>
      <trkpt lat="44.41796" lon="3.75724">
        <ele>1599.29</ele>
        <time>2013-06-15T10:03:02Z</time>
      </trkpt>
      <trkpt lat="44.41813" lon="3.75646">
        <ele>1595.93</ele>
        <time>2013-06-15T10:03:11Z</time>
      </trkpt>
      <trkpt lat="44.41834" lon="3.75532">
        <ele>1592.56</ele>
        <time>2013-06-15T10:03:24Z</time>
      </trkpt>
      <trkpt lat="44.41836" lon="3.75525">
        <ele>1592.08</ele>
        <time>2013-06-15T10:03:25Z</time>
      </trkpt>
      <trkpt lat="44.4185" lon="3.75475">
        <ele>1589.68</ele>
        <time>2013-06-15T10:03:31Z</time>
      </trkpt>
      <trkpt lat="44.41853" lon="3.75467">
        <ele>1589.68</ele>
        <time>2013-06-15T10:03:32Z</time>
      </trkpt>
      <trkpt lat="44.4188" lon="3.75423">
        <ele>1586.31</ele>
        <time>2013-06-15T10:03:38Z</time>
      </trkpt>
      <trkpt lat="44.41916" lon="3.75374">
        <ele>1583.43</ele>
        <time>2013-06-15T10:03:45Z</time>
      </trkpt>
      <trkpt lat="44.41956" lon="3.75317">
        <ele>1581.03</ele>
        <time>2013-06-15T10:03:53Z</time>
      </trkpt>
      <trkpt lat="44.41999" lon="3.75259">
        <ele>1577.66</ele>
        <time>2013-06-15T10:04:01Z</time>
      </trkpt>
      <trkpt lat="44.42016" lon="3.75238">
        <ele>1576.22</ele>
        <time>2013-06-15T10:04:04Z</time>
      </trkpt>
      <trkpt lat="44.42049" lon="3.75191">
        <ele>1572.85</ele>
        <time>2013-06-15T10:04:10Z</time>
      </trkpt>
      <trkpt lat="44.42073" lon="3.75156">
        <ele>1569.49</ele>
        <time>2013-06-15T10:04:14Z</time>
      </trkpt>
      <trkpt lat="44.42118" lon="3.75079">
        <ele>1567.09</ele>
        <time>2013-06-15T10:04:23Z</time>
      </trkpt>
      <trkpt lat="44.42119" lon="3.75077">
        <ele>1567.09</ele>
        <time>2013-06-15T10:04:24Z</time>
      </trkpt>
      <trkpt lat="44.4212" lon="3.75077">
        <ele>1562.76</ele>
        <time>2013-06-15T10:04:27Z</time>
      </trkpt>
      <trkpt lat="44.4212" lon="3.75077">
        <ele>1567.09</ele>
        <time>2013-06-15T10:04:28Z</time>
      </trkpt>
      <trkpt lat="44.4212" lon="3.75077">
        <ele>1566.61</ele>
        <time>2013-06-15T10:04:45Z</time>
      </trkpt>
      <trkpt lat="44.42118" lon="3.75077">
        <ele>1567.09</ele>
        <time>2013-06-15T10:05:12Z</time>
      </trkpt>
      <trkpt lat="44.42118" lon="3.75076">
        <ele>1567.09</ele>
        <time>2013-06-15T10:05:41Z</time>
      </trkpt>
      <trkpt lat="44.42119" lon="3.75075">
        <ele>1567.09</ele>
        <time>2013-06-15T10:06:02Z</time>
      </trkpt>
      <trkpt lat="44.42121" lon="3.75077">
        <ele>1567.09</ele>
        <time>2013-06-15T10:06:27Z</time>
      </trkpt>
      <trkpt lat="44.4212" lon="3.75077">
        <ele>1567.57</ele>
        <time>2013-06-15T10:06:45Z</time>
      </trkpt>
      <trkpt lat="44.42119" lon="3.75077">
        <ele>1567.57</ele>
        <time>2013-06-15T10:07:11Z</time>
      </trkpt>
      <trkpt lat="44.42119" lon="3.75076">
        <ele>1567.57</ele>
        <time>2013-06-15T10:07:30Z</time>
      </trkpt>
      <trkpt lat="44.42121" lon="3.75075">
        <ele>1568.05</ele>
        <time>2013-06-15T10:07:47Z</time>
      </trkpt>
      <trkpt lat="44.42123" lon="3.75072">
        <ele>1567.57</ele>
        <time>2013-06-15T10:07:48Z</time>
      </trkpt>
      <trkpt lat="44.42125" lon="3.7507">
        <ele>1568.05</ele>
        <time>2013-06-15T10:07:49Z</time>
      </trkpt>
      <trkpt lat="44.42133" lon="3.75058">
        <ele>1567.09</ele>
        <time>2013-06-15T10:07:52Z</time>
      </trkpt>
      <trkpt lat="44.4215" lon="3.75039">
        <ele>1565.64</ele>
        <time>2013-06-15T10:07:57Z</time>
      </trkpt>
      <trkpt lat="44.42153" lon="3.75034">
        <ele>1566.12</ele>
        <time>2013-06-15T10:07:58Z</time>
      </trkpt>
      <trkpt lat="44.42154" lon="3.75028">
        <ele>1565.64</ele>
        <time>2013-06-15T10:07:59Z</time>
      </trkpt>
      <trkpt lat="44.42154" lon="3.75021">
        <ele>1566.12</ele>
        <time>2013-06-15T10:08:00Z</time>
      </trkpt>
      <trkpt lat="44.42152" lon="3.75016">
        <ele>1565.64</ele>
        <time>2013-06-15T10:08:01Z</time>
      </trkpt>
      <trkpt lat="44.4215" lon="3.75012">
        <ele>1565.64</ele>
        <time>2013-06-15T10:08:02Z</time>
      </trkpt>
      <trkpt lat="44.42147" lon="3.75009">
        <ele>1566.12</ele>
        <time>2013-06-15T10:08:03Z</time>
      </trkpt>
      <trkpt lat="44.42129" lon="3.74963">
        <ele>1563.72</ele>
        <time>2013-06-15T10:08:12Z</time>
      </trkpt>
      <trkpt lat="44.42124" lon="3.74941">
        <ele>1562.28</ele>
        <time>2013-06-15T10:08:15Z</time>
      </trkpt>
      <trkpt lat="44.42122" lon="3.74917">
        <ele>1561.32</ele>
        <time>2013-06-15T10:08:18Z</time>
      </trkpt>
      <trkpt lat="44.42124" lon="3.74891">
        <ele>1559.88</ele>
        <time>2013-06-15T10:08:21Z</time>
      </trkpt>
      <trkpt lat="44.42126" lon="3.74883">
        <ele>1559.4</ele>
        <time>2013-06-15T10:08:22Z</time>
      </trkpt>
      <trkpt lat="44.42128" lon="3.74874">
        <ele>1558.92</ele>
        <time>2013-06-15T10:08:23Z</time>
      </trkpt>
      <trkpt lat="44.4213" lon="3.74866">
        <ele>1558.43</ele>
        <time>2013-06-15T10:08:24Z</time>
      </trkpt>
      <trkpt lat="44.42133" lon="3.74857">
        <ele>1557.95</ele>
        <time>2013-06-15T10:08:25Z</time>
      </trkpt>
      <trkpt lat="44.42136" lon="3.7485">
        <ele>1557.95</ele>
        <time>2013-06-15T10:08:26Z</time>
      </trkpt>
      <trkpt lat="44.42161" lon="3.74768">
        <ele>1555.07</ele>
        <time>2013-06-15T10:08:36Z</time>
      </trkpt>
      <trkpt lat="44.42162" lon="3.74759">
        <ele>1554.59</ele>
        <time>2013-06-15T10:08:37Z</time>
      </trkpt>
      <trkpt lat="44.42161" lon="3.74752">
        <ele>1554.11</ele>
        <time>2013-06-15T10:08:38Z</time>
      </trkpt>
      <trkpt lat="44.4216" lon="3.74745">
        <ele>1554.11</ele>
        <time>2013-06-15T10:08:39Z</time>
      </trkpt>
      <trkpt lat="44.42156" lon="3.74741">
        <ele>1553.63</ele>
        <time>2013-06-15T10:08:40Z</time>
      </trkpt>
      <trkpt lat="44.42152" lon="3.74739">
        <ele>1553.63</ele>
        <time>2013-06-15T10:08:41Z</time>
      </trkpt>
      <trkpt lat="44.42148" lon="3.74738">
        <ele>1553.63</ele>
        <time>2013-06-15T10:08:42Z</time>
      </trkpt>
      <trkpt lat="44.42144" lon="3.74738">
        <ele>1553.63</ele>
        <time>2013-06-15T10:08:43Z</time>
      </trkpt>
      <trkpt lat="44.42139" lon="3.74738">
        <ele>1554.11</ele>
        <time>2013-06-15T10:08:44Z</time>
      </trkpt>
      <trkpt lat="44.42135" lon="3.74738">
        <ele>1553.63</ele>
        <time>2013-06-15T10:08:45Z</time>
      </trkpt>
      <trkpt lat="44.42123" lon="3.74739">
        <ele>1553.63</ele>
        <time>2013-06-15T10:08:51Z</time>
      </trkpt>
      <trkpt lat="44.42118" lon="3.74739">
        <ele>1553.15</ele>
        <time>2013-06-15T10:09:10Z</time>
      </trkpt>
      <trkpt lat="44.42114" lon="3.74739">
        <ele>1553.15</ele>
        <time>2013-06-15T10:09:11Z</time>
      </trkpt>
      <trkpt lat="44.42104" lon="3.74739">
        <ele>1552.67</ele>
        <time>2013-06-15T10:09:13Z</time>
      </trkpt>
      <trkpt lat="44.42099" lon="3.74738">
        <ele>1553.15</ele>
        <time>2013-06-15T10:09:14Z</time>
      </trkpt>
      <trkpt lat="44.42094" lon="3.74736">
        <ele>1552.19</ele>
        <time>2013-06-15T10:09:15Z</time>
      </trkpt>
      <trkpt lat="44.42042" lon="3.74718">
        <ele>1549.3</ele>
        <time>2013-06-15T10:09:23Z</time>
      </trkpt>
      <trkpt lat="44.42027" lon="3.74715">
        <ele>1547.86</ele>
        <time>2013-06-15T10:09:25Z</time>
      </trkpt>
      <trkpt lat="44.42005" lon="3.74715">
        <ele>1546.42</ele>
        <time>2013-06-15T10:09:28Z</time>
      </trkpt>
      <trkpt lat="44.41997" lon="3.74714">
        <ele>1545.46</ele>
        <time>2013-06-15T10:09:29Z</time>
      </trkpt>
      <trkpt lat="44.41989" lon="3.74713">
        <ele>1545.46</ele>
        <time>2013-06-15T10:09:30Z</time>
      </trkpt>
      <trkpt lat="44.41966" lon="3.74706">
        <ele>1543.53</ele>
        <time>2013-06-15T10:09:33Z</time>
      </trkpt>
      <trkpt lat="44.41943" lon="3.74696">
        <ele>1541.61</ele>
        <time>2013-06-15T10:09:36Z</time>
      </trkpt>
      <trkpt lat="44.41916" lon="3.74682">
        <ele>1539.21</ele>
        <time>2013-06-15T10:09:40Z</time>
      </trkpt>
      <trkpt lat="44.41909" lon="3.7468">
        <ele>1539.21</ele>
        <time>2013-06-15T10:09:41Z</time>
      </trkpt>
      <trkpt lat="44.41895" lon="3.74677">
        <ele>1538.25</ele>
        <time>2013-06-15T10:09:43Z</time>
      </trkpt>
      <trkpt lat="44.41858" lon="3.74673">
        <ele>1534.4</ele>
        <time>2013-06-15T10:09:48Z</time>
      </trkpt>
      <trkpt lat="44.41818" lon="3.74671">
        <ele>1532</ele>
        <time>2013-06-15T10:09:53Z</time>
      </trkpt>
      <trkpt lat="44.41777" lon="3.74668">
        <ele>1529.11</ele>
        <time>2013-06-15T10:09:58Z</time>
      </trkpt>
      <trkpt lat="44.41761" lon="3.74668">
        <ele>1529.11</ele>
        <time>2013-06-15T10:10:00Z</time>
      </trkpt>
      <trkpt lat="44.41753" lon="3.74666">
        <ele>1528.15</ele>
        <time>2013-06-15T10:10:01Z</time>
      </trkpt>
      <trkpt lat="44.41745" lon="3.74664">
        <ele>1527.67</ele>
        <time>2013-06-15T10:10:02Z</time>
      </trkpt>
      <trkpt lat="44.41712" lon="3.74651">
        <ele>1524.31</ele>
        <time>2013-06-15T10:10:06Z</time>
      </trkpt>
      <trkpt lat="44.41677" lon="3.74638">
        <ele>1521.9</ele>
        <time>2013-06-15T10:10:10Z</time>
      </trkpt>
      <trkpt lat="44.41644" lon="3.74632">
        <ele>1519.02</ele>
        <time>2013-06-15T10:10:14Z</time>
      </trkpt>
      <trkpt lat="44.41611" lon="3.74623">
        <ele>1516.14</ele>
        <time>2013-06-15T10:10:18Z</time>
      </trkpt>
      <trkpt lat="44.41603" lon="3.74618">
        <ele>1516.14</ele>
        <time>2013-06-15T10:10:19Z</time>
      </trkpt>
      <trkpt lat="44.41596" lon="3.74613">
        <ele>1515.66</ele>
        <time>2013-06-15T10:10:20Z</time>
      </trkpt>
      <trkpt lat="44.41589" lon="3.74606">
        <ele>1514.69</ele>
        <time>2013-06-15T10:10:21Z</time>
      </trkpt>
      <trkpt lat="44.41582" lon="3.74599">
        <ele>1514.69</ele>
        <time>2013-06-15T10:10:22Z</time>
      </trkpt>
      <trkpt lat="44.41575" lon="3.74592">
        <ele>1514.69</ele>
        <time>2013-06-15T10:10:23Z</time>
      </trkpt>
      <trkpt lat="44.41568" lon="3.74587">
        <ele>1513.25</ele>
        <time>2013-06-15T10:10:24Z</time>
      </trkpt>
      <trkpt lat="44.41559" lon="3.74583">
        <ele>1512.77</ele>
        <time>2013-06-15T10:10:25Z</time>
      </trkpt>
      <trkpt lat="44.41512" lon="3.74567">
        <ele>1509.89</ele>
        <time>2013-06-15T10:10:31Z</time>
      </trkpt>
      <trkpt lat="44.41505" lon="3.74562">
        <ele>1509.89</ele>
        <time>2013-06-15T10:10:32Z</time>
      </trkpt>
      <trkpt lat="44.41499" lon="3.74556">
        <ele>1508.93</ele>
        <time>2013-06-15T10:10:33Z</time>
      </trkpt>
      <trkpt lat="44.41492" lon="3.74549">
        <ele>1508.45</ele>
        <time>2013-06-15T10:10:34Z</time>
      </trkpt>
      <trkpt lat="44.41469" lon="3.74519">
        <ele>1507</ele>
        <time>2013-06-15T10:10:38Z</time>
      </trkpt>
      <trkpt lat="44.41445" lon="3.74474">
        <ele>1505.56</ele>
        <time>2013-06-15T10:10:43Z</time>
      </trkpt>
      <trkpt lat="44.41424" lon="3.74409">
        <ele>1502.2</ele>
        <time>2013-06-15T10:10:49Z</time>
      </trkpt>
      <trkpt lat="44.41417" lon="3.74386">
        <ele>1500.76</ele>
        <time>2013-06-15T10:10:51Z</time>
      </trkpt>
      <trkpt lat="44.41414" lon="3.74373">
        <ele>1499.79</ele>
        <time>2013-06-15T10:10:52Z</time>
      </trkpt>
      <trkpt lat="44.41413" lon="3.74361">
        <ele>1498.83</ele>
        <time>2013-06-15T10:10:53Z</time>
      </trkpt>
      <trkpt lat="44.41405" lon="3.74278">
        <ele>1495.95</ele>
        <time>2013-06-15T10:11:00Z</time>
      </trkpt>
      <trkpt lat="44.41404" lon="3.74266">
        <ele>1495.95</ele>
        <time>2013-06-15T10:11:01Z</time>
      </trkpt>
      <trkpt lat="44.41404" lon="3.74159">
        <ele>1492.1</ele>
        <time>2013-06-15T10:11:10Z</time>
      </trkpt>
      <trkpt lat="44.41405" lon="3.74061">
        <ele>1489.7</ele>
        <time>2013-06-15T10:11:18Z</time>
      </trkpt>
      <trkpt lat="44.41406" lon="3.74037">
        <ele>1489.22</ele>
        <time>2013-06-15T10:11:20Z</time>
      </trkpt>
      <trkpt lat="44.41423" lon="3.73933">
        <ele>1487.3</ele>
        <time>2013-06-15T10:11:29Z</time>
      </trkpt>
      <trkpt lat="44.41428" lon="3.739">
        <ele>1487.3</ele>
        <time>2013-06-15T10:11:32Z</time>
      </trkpt>
      <trkpt lat="44.4143" lon="3.73889">
        <ele>1487.3</ele>
        <time>2013-06-15T10:11:33Z</time>
      </trkpt>
      <trkpt lat="44.41434" lon="3.73878">
        <ele>1486.34</ele>
        <time>2013-06-15T10:11:34Z</time>
      </trkpt>
      <trkpt lat="44.41474" lon="3.73783">
        <ele>1484.41</ele>
        <time>2013-06-15T10:11:44Z</time>
      </trkpt>
      <trkpt lat="44.41478" lon="3.73774">
        <ele>1484.41</ele>
        <time>2013-06-15T10:11:45Z</time>
      </trkpt>
      <trkpt lat="44.41496" lon="3.73741">
        <ele>1482.01</ele>
        <time>2013-06-15T10:11:49Z</time>
      </trkpt>
      <trkpt lat="44.41513" lon="3.73709">
        <ele>1481.53</ele>
        <time>2013-06-15T10:11:53Z</time>
      </trkpt>
      <trkpt lat="44.41518" lon="3.73702">
        <ele>1480.57</ele>
        <time>2013-06-15T10:11:54Z</time>
      </trkpt>
      <trkpt lat="44.41531" lon="3.73683">
        <ele>1481.53</ele>
        <time>2013-06-15T10:11:57Z</time>
      </trkpt>
      <trkpt lat="44.41534" lon="3.73678">
        <ele>1481.05</ele>
        <time>2013-06-15T10:11:58Z</time>
      </trkpt>
      <trkpt lat="44.41537" lon="3.73673">
        <ele>1481.05</ele>
        <time>2013-06-15T10:11:59Z</time>
      </trkpt>
      <trkpt lat="44.41551" lon="3.73634">
        <ele>1482.49</ele>
        <time>2013-06-15T10:12:08Z</time>
      </trkpt>
      <trkpt lat="44.41555" lon="3.73591">
        <ele>1484.41</ele>
        <time>2013-06-15T10:12:18Z</time>
      </trkpt>
      <trkpt lat="44.41555" lon="3.73552">
        <ele>1486.34</ele>
        <time>2013-06-15T10:12:27Z</time>
      </trkpt>
      <trkpt lat="44.41562" lon="3.73509">
        <ele>1487.3</ele>
        <time>2013-06-15T10:12:37Z</time>
      </trkpt>
      <trkpt lat="44.41567" lon="3.73465">
        <ele>1489.7</ele>
        <time>2013-06-15T10:12:48Z</time>
      </trkpt>
      <trkpt lat="44.41579" lon="3.73422">
        <ele>1491.62</ele>
        <time>2013-06-15T10:13:00Z</time>
      </trkpt>
      <trkpt lat="44.41593" lon="3.73375">
        <ele>1493.55</ele>
        <time>2013-06-15T10:13:13Z</time>
      </trkpt>
      <trkpt lat="44.4161" lon="3.73341">
        <ele>1495.95</ele>
        <time>2013-06-15T10:13:24Z</time>
      </trkpt>
      <trkpt lat="44.41627" lon="3.73306">
        <ele>1497.39</ele>
        <time>2013-06-15T10:13:35Z</time>
      </trkpt>
      <trkpt lat="44.41646" lon="3.73269">
        <ele>1500.27</ele>
        <time>2013-06-15T10:13:47Z</time>
      </trkpt>
      <trkpt lat="44.4167" lon="3.73234">
        <ele>1501.72</ele>
        <time>2013-06-15T10:14:00Z</time>
      </trkpt>
      <trkpt lat="44.41687" lon="3.7321">
        <ele>1504.6</ele>
        <time>2013-06-15T10:14:10Z</time>
      </trkpt>
      <trkpt lat="44.41705" lon="3.73185">
        <ele>1506.52</ele>
        <time>2013-06-15T10:14:21Z</time>
      </trkpt>
      <trkpt lat="44.41721" lon="3.73161">
        <ele>1507.48</ele>
        <time>2013-06-15T10:14:31Z</time>
      </trkpt>
      <trkpt lat="44.41733" lon="3.73144">
        <ele>1509.89</ele>
        <time>2013-06-15T10:14:38Z</time>
      </trkpt>
      <trkpt lat="44.41735" lon="3.73142">
        <ele>1510.37</ele>
        <time>2013-06-15T10:14:39Z</time>
      </trkpt>
      <trkpt lat="44.41754" lon="3.73122">
        <ele>1511.33</ele>
        <time>2013-06-15T10:14:49Z</time>
      </trkpt>
      <trkpt lat="44.41773" lon="3.731">
        <ele>1513.25</ele>
        <time>2013-06-15T10:14:59Z</time>
      </trkpt>
      <trkpt lat="44.41792" lon="3.73075">
        <ele>1515.66</ele>
        <time>2013-06-15T10:15:10Z</time>
      </trkpt>
      <trkpt lat="44.41812" lon="3.73053">
        <ele>1516.62</ele>
        <time>2013-06-15T10:15:20Z</time>
      </trkpt>
      <trkpt lat="44.41835" lon="3.7303">
        <ele>1519.02</ele>
        <time>2013-06-15T10:15:32Z</time>
      </trkpt>
      <trkpt lat="44.41843" lon="3.73023">
        <ele>1522.39</ele>
        <time>2013-06-15T10:15:36Z</time>
      </trkpt>
      <trkpt lat="44.41861" lon="3.73002">
        <ele>1521.9</ele>
        <time>2013-06-15T10:15:46Z</time>
      </trkpt>
      <trkpt lat="44.41865" lon="3.72998">
        <ele>1514.21</ele>
        <time>2013-06-15T10:15:48Z</time>
      </trkpt>
      <trkpt lat="44.41867" lon="3.72996">
        <ele>1533.92</ele>
        <time>2013-06-15T10:15:49Z</time>
      </trkpt>
      <trkpt lat="44.41869" lon="3.72995">
        <ele>1522.39</ele>
        <time>2013-06-15T10:15:50Z</time>
      </trkpt>
      <trkpt lat="44.41892" lon="3.72968">
        <ele>1524.79</ele>
        <time>2013-06-15T10:16:03Z</time>
      </trkpt>
      <trkpt lat="44.41915" lon="3.72951">
        <ele>1526.71</ele>
        <time>2013-06-15T10:16:15Z</time>
      </trkpt>
      <trkpt lat="44.41937" lon="3.72936">
        <ele>1529.59</ele>
        <time>2013-06-15T10:16:27Z</time>
      </trkpt>
      <trkpt lat="44.41954" lon="3.72928">
        <ele>1531.04</ele>
        <time>2013-06-15T10:16:36Z</time>
      </trkpt>
      <trkpt lat="44.41974" lon="3.72914">
        <ele>1532.48</ele>
        <time>2013-06-15T10:16:47Z</time>
      </trkpt>
      <trkpt lat="44.41976" lon="3.72912">
        <ele>1532.48</ele>
        <time>2013-06-15T10:16:48Z</time>
      </trkpt>
      <trkpt lat="44.41977" lon="3.7291">
        <ele>1532.96</ele>
        <time>2013-06-15T10:16:49Z</time>
      </trkpt>
      <trkpt lat="44.41979" lon="3.72909">
        <ele>1532.48</ele>
        <time>2013-06-15T10:16:50Z</time>
      </trkpt>
      <trkpt lat="44.41981" lon="3.72908">
        <ele>1533.44</ele>
        <time>2013-06-15T10:16:51Z</time>
      </trkpt>
      <trkpt lat="44.41983" lon="3.72907">
        <ele>1533.44</ele>
        <time>2013-06-15T10:16:52Z</time>
      </trkpt>
      <trkpt lat="44.42005" lon="3.72894">
        <ele>1534.88</ele>
        <time>2013-06-15T10:17:03Z</time>
      </trkpt>
      <trkpt lat="44.42029" lon="3.72877">
        <ele>1536.8</ele>
        <time>2013-06-15T10:17:15Z</time>
      </trkpt>
      <trkpt lat="44.42049" lon="3.72864">
        <ele>1538.73</ele>
        <time>2013-06-15T10:17:26Z</time>
      </trkpt>
      <trkpt lat="44.42077" lon="3.72849">
        <ele>1541.61</ele>
        <time>2013-06-15T10:17:39Z</time>
      </trkpt>
      <trkpt lat="44.42102" lon="3.72833">
        <ele>1544.01</ele>
        <time>2013-06-15T10:17:51Z</time>
      </trkpt>
      <trkpt lat="44.42108" lon="3.72829">
        <ele>1544.5</ele>
        <time>2013-06-15T10:17:54Z</time>
      </trkpt>
      <trkpt lat="44.4211" lon="3.72828">
        <ele>1544.5</ele>
        <time>2013-06-15T10:17:55Z</time>
      </trkpt>
      <trkpt lat="44.42139" lon="3.72812">
        <ele>1547.38</ele>
        <time>2013-06-15T10:18:09Z</time>
      </trkpt>
      <trkpt lat="44.42158" lon="3.72803">
        <ele>1548.82</ele>
        <time>2013-06-15T10:18:19Z</time>
      </trkpt>
      <trkpt lat="44.42181" lon="3.72793">
        <ele>1550.74</ele>
        <time>2013-06-15T10:18:30Z</time>
      </trkpt>
      <trkpt lat="44.42201" lon="3.72783">
        <ele>1552.67</ele>
        <time>2013-06-15T10:18:40Z</time>
      </trkpt>
      <trkpt lat="44.42225" lon="3.7277">
        <ele>1555.07</ele>
        <time>2013-06-15T10:18:52Z</time>
      </trkpt>
      <trkpt lat="44.42239" lon="3.72765">
        <ele>1556.51</ele>
        <time>2013-06-15T10:18:59Z</time>
      </trkpt>
      <trkpt lat="44.42263" lon="3.72759">
        <ele>1557.95</ele>
        <time>2013-06-15T10:19:11Z</time>
      </trkpt>
      <trkpt lat="44.42286" lon="3.72755">
        <ele>1560.36</ele>
        <time>2013-06-15T10:19:21Z</time>
      </trkpt>
      <trkpt lat="44.42306" lon="3.72747">
        <ele>1560.84</ele>
        <time>2013-06-15T10:19:30Z</time>
      </trkpt>
      <trkpt lat="44.42325" lon="3.72732">
        <ele>1560.36</ele>
        <time>2013-06-15T10:19:39Z</time>
      </trkpt>
      <trkpt lat="44.42325" lon="3.72728">
        <ele>1560.36</ele>
        <time>2013-06-15T10:19:40Z</time>
      </trkpt>
      <trkpt lat="44.42324" lon="3.72724">
        <ele>1559.88</ele>
        <time>2013-06-15T10:19:41Z</time>
      </trkpt>
      <trkpt lat="44.42322" lon="3.72721">
        <ele>1560.36</ele>
        <time>2013-06-15T10:19:42Z</time>
      </trkpt>
      <trkpt lat="44.4232" lon="3.72719">
        <ele>1560.36</ele>
        <time>2013-06-15T10:19:43Z</time>
      </trkpt>
      <trkpt lat="44.42317" lon="3.72717">
        <ele>1560.36</ele>
        <time>2013-06-15T10:19:44Z</time>
      </trkpt>
      <trkpt lat="44.42315" lon="3.72715">
        <ele>1560.84</ele>
        <time>2013-06-15T10:19:45Z</time>
      </trkpt>
      <trkpt lat="44.4229" lon="3.7269">
        <ele>1561.32</ele>
        <time>2013-06-15T10:19:55Z</time>
      </trkpt>
      <trkpt lat="44.42269" lon="3.72666">
        <ele>1560.84</ele>
        <time>2013-06-15T10:20:03Z</time>
      </trkpt>
      <trkpt lat="44.42241" lon="3.7263">
        <ele>1563.24</ele>
        <time>2013-06-15T10:20:14Z</time>
      </trkpt>
      <trkpt lat="44.42204" lon="3.72594">
        <ele>1563.24</ele>
        <time>2013-06-15T10:20:26Z</time>
      </trkpt>
      <trkpt lat="44.42167" lon="3.72557">
        <ele>1563.24</ele>
        <time>2013-06-15T10:20:38Z</time>
      </trkpt>
      <trkpt lat="44.42147" lon="3.72509">
        <ele>1564.68</ele>
        <time>2013-06-15T10:20:49Z</time>
      </trkpt>
      <trkpt lat="44.42134" lon="3.72442">
        <ele>1565.16</ele>
        <time>2013-06-15T10:21:02Z</time>
      </trkpt>
      <trkpt lat="44.42127" lon="3.72388">
        <ele>1565.64</ele>
        <time>2013-06-15T10:21:12Z</time>
      </trkpt>
      <trkpt lat="44.42118" lon="3.72338">
        <ele>1566.12</ele>
        <time>2013-06-15T10:21:21Z</time>
      </trkpt>
      <trkpt lat="44.42118" lon="3.72332">
        <ele>1565.64</ele>
        <time>2013-06-15T10:21:22Z</time>
      </trkpt>
      <trkpt lat="44.42109" lon="3.72281">
        <ele>1565.64</ele>
        <time>2013-06-15T10:21:31Z</time>
      </trkpt>
      <trkpt lat="44.42094" lon="3.722">
        <ele>1564.68</ele>
        <time>2013-06-15T10:21:44Z</time>
      </trkpt>
      <trkpt lat="44.42087" lon="3.72114">
        <ele>1563.24</ele>
        <time>2013-06-15T10:21:57Z</time>
      </trkpt>
      <trkpt lat="44.4209" lon="3.72075">
        <ele>1562.76</ele>
        <time>2013-06-15T10:22:03Z</time>
      </trkpt>
      <trkpt lat="44.42091" lon="3.7207">
        <ele>1562.76</ele>
        <time>2013-06-15T10:22:04Z</time>
      </trkpt>
      <trkpt lat="44.42093" lon="3.72064">
        <ele>1562.28</ele>
        <time>2013-06-15T10:22:05Z</time>
      </trkpt>
      <trkpt lat="44.42095" lon="3.72059">
        <ele>1562.76</ele>
        <time>2013-06-15T10:22:06Z</time>
      </trkpt>
      <trkpt lat="44.42097" lon="3.72055">
        <ele>1562.76</ele>
        <time>2013-06-15T10:22:07Z</time>
      </trkpt>
      <trkpt lat="44.42103" lon="3.72045">
        <ele>1566.12</ele>
        <time>2013-06-15T10:22:12Z</time>
      </trkpt>
      <trkpt lat="44.42103" lon="3.72045">
        <ele>1562.76</ele>
        <time>2013-06-15T10:22:13Z</time>
      </trkpt>
      <trkpt lat="44.42103" lon="3.72045">
        <ele>1558.43</ele>
        <time>2013-06-15T10:22:23Z</time>
      </trkpt>
      <trkpt lat="44.42103" lon="3.72045">
        <ele>1562.76</ele>
        <time>2013-06-15T10:22:24Z</time>
      </trkpt>
      <trkpt lat="44.42103" lon="3.72045">
        <ele>1567.57</ele>
        <time>2013-06-15T10:22:29Z</time>
      </trkpt>
      <trkpt lat="44.42103" lon="3.72045">
        <ele>1564.68</ele>
        <time>2013-06-15T10:22:30Z</time>
      </trkpt>
      <trkpt lat="44.42103" lon="3.72045">
        <ele>1557.95</ele>
        <time>2013-06-15T10:22:31Z</time>
      </trkpt>
      <trkpt lat="44.42103" lon="3.72045">
        <ele>1565.16</ele>
        <time>2013-06-15T10:22:33Z</time>
      </trkpt>
      <trkpt lat="44.42103" lon="3.72045">
        <ele>1565.16</ele>
        <time>2013-06-15T10:22:34Z</time>
      </trkpt>
      <trkpt lat="44.42104" lon="3.72044">
        <ele>1562.28</ele>
        <time>2013-06-15T10:22:41Z</time>
      </trkpt>
      <trkpt lat="44.42105" lon="3.72042">
        <ele>1561.8</ele>
        <time>2013-06-15T10:22:42Z</time>
      </trkpt>
      <trkpt lat="44.42107" lon="3.7204">
        <ele>1561.8</ele>
        <time>2013-06-15T10:22:43Z</time>
      </trkpt>
      <trkpt lat="44.42109" lon="3.72037">
        <ele>1561.8</ele>
        <time>2013-06-15T10:22:44Z</time>
      </trkpt>
      <trkpt lat="44.42117" lon="3.72025">
        <ele>1560.84</ele>
        <time>2013-06-15T10:22:47Z</time>
      </trkpt>
      <trkpt lat="44.4212" lon="3.72022">
        <ele>1560.84</ele>
        <time>2013-06-15T10:22:48Z</time>
      </trkpt>
      <trkpt lat="44.42123" lon="3.72019">
        <ele>1560.84</ele>
        <time>2013-06-15T10:22:49Z</time>
      </trkpt>
      <trkpt lat="44.42161" lon="3.71985">
        <ele>1558.43</ele>
        <time>2013-06-15T10:22:59Z</time>
      </trkpt>
      <trkpt lat="44.4221" lon="3.71947">
        <ele>1555.55</ele>
        <time>2013-06-15T10:23:08Z</time>
      </trkpt>
      <trkpt lat="44.42268" lon="3.71896">
        <ele>1554.11</ele>
        <time>2013-06-15T10:23:19Z</time>
      </trkpt>
      <trkpt lat="44.42281" lon="3.71883">
        <ele>1552.67</ele>
        <time>2013-06-15T10:23:22Z</time>
      </trkpt>
      <trkpt lat="44.42327" lon="3.71823">
        <ele>1549.78</ele>
        <time>2013-06-15T10:23:32Z</time>
      </trkpt>
      <trkpt lat="44.42375" lon="3.71758">
        <ele>1547.86</ele>
        <time>2013-06-15T10:23:42Z</time>
      </trkpt>
      <trkpt lat="44.42426" lon="3.71673">
        <ele>1546.9</ele>
        <time>2013-06-15T10:23:54Z</time>
      </trkpt>
      <trkpt lat="44.42442" lon="3.71648">
        <ele>1545.94</ele>
        <time>2013-06-15T10:23:58Z</time>
      </trkpt>
      <trkpt lat="44.42446" lon="3.71641">
        <ele>1546.9</ele>
        <time>2013-06-15T10:23:59Z</time>
      </trkpt>
      <trkpt lat="44.42476" lon="3.71567">
        <ele>1547.38</ele>
        <time>2013-06-15T10:24:10Z</time>
      </trkpt>
      <trkpt lat="44.42481" lon="3.71553">
        <ele>1546.9</ele>
        <time>2013-06-15T10:24:12Z</time>
      </trkpt>
      <trkpt lat="44.42515" lon="3.71477">
        <ele>1545.94</ele>
        <time>2013-06-15T10:24:23Z</time>
      </trkpt>
      <trkpt lat="44.42543" lon="3.71397">
        <ele>1544.01</ele>
        <time>2013-06-15T10:24:33Z</time>
      </trkpt>
      <trkpt lat="44.42557" lon="3.71354">
        <ele>1542.57</ele>
        <time>2013-06-15T10:24:38Z</time>
      </trkpt>
      <trkpt lat="44.42565" lon="3.71321">
        <ele>1542.09</ele>
        <time>2013-06-15T10:24:42Z</time>
      </trkpt>
      <trkpt lat="44.42581" lon="3.71246">
        <ele>1539.69</ele>
        <time>2013-06-15T10:24:50Z</time>
      </trkpt>
      <trkpt lat="44.42592" lon="3.71209">
        <ele>1538.25</ele>
        <time>2013-06-15T10:24:54Z</time>
      </trkpt>
      <trkpt lat="44.42593" lon="3.71199">
        <ele>1538.25</ele>
        <time>2013-06-15T10:24:55Z</time>
      </trkpt>
      <trkpt lat="44.42592" lon="3.7119">
        <ele>1537.77</ele>
        <time>2013-06-15T10:24:56Z</time>
      </trkpt>
      <trkpt lat="44.42589" lon="3.71182">
        <ele>1538.25</ele>
        <time>2013-06-15T10:24:57Z</time>
      </trkpt>
      <trkpt lat="44.42584" lon="3.71175">
        <ele>1537.77</ele>
        <time>2013-06-15T10:24:58Z</time>
      </trkpt>
      <trkpt lat="44.42579" lon="3.71168">
        <ele>1537.29</ele>
        <time>2013-06-15T10:24:59Z</time>
      </trkpt>
      <trkpt lat="44.42574" lon="3.71162">
        <ele>1537.29</ele>
        <time>2013-06-15T10:25:00Z</time>
      </trkpt>
      <trkpt lat="44.42545" lon="3.71133">
        <ele>1536.32</ele>
        <time>2013-06-15T10:25:05Z</time>
      </trkpt>
      <trkpt lat="44.4254" lon="3.71126">
        <ele>1536.32</ele>
        <time>2013-06-15T10:25:06Z</time>
      </trkpt>
      <trkpt lat="44.42529" lon="3.71105">
        <ele>1536.8</ele>
        <time>2013-06-15T10:25:09Z</time>
      </trkpt>
      <trkpt lat="44.4252" lon="3.71072">
        <ele>1537.77</ele>
        <time>2013-06-15T10:25:14Z</time>
      </trkpt>
      <trkpt lat="44.42512" lon="3.71048">
        <ele>1538.73</ele>
        <time>2013-06-15T10:25:18Z</time>
      </trkpt>
      <trkpt lat="44.4251" lon="3.71043">
        <ele>1538.73</ele>
        <time>2013-06-15T10:25:19Z</time>
      </trkpt>
      <trkpt lat="44.42498" lon="3.71014">
        <ele>1532</ele>
        <time>2013-06-15T10:25:25Z</time>
      </trkpt>
      <trkpt lat="44.42496" lon="3.7101">
        <ele>1526.23</ele>
        <time>2013-06-15T10:25:26Z</time>
      </trkpt>
      <trkpt lat="44.42494" lon="3.71006">
        <ele>1540.65</ele>
        <time>2013-06-15T10:25:27Z</time>
      </trkpt>
      <trkpt lat="44.42492" lon="3.71001">
        <ele>1540.17</ele>
        <time>2013-06-15T10:25:28Z</time>
      </trkpt>
      <trkpt lat="44.42487" lon="3.70994">
        <ele>1548.34</ele>
        <time>2013-06-15T10:25:30Z</time>
      </trkpt>
      <trkpt lat="44.42484" lon="3.7099">
        <ele>1544.98</ele>
        <time>2013-06-15T10:25:31Z</time>
      </trkpt>
      <trkpt lat="44.42481" lon="3.70987">
        <ele>1541.13</ele>
        <time>2013-06-15T10:25:32Z</time>
      </trkpt>
      <trkpt lat="44.42479" lon="3.70984">
        <ele>1541.13</ele>
        <time>2013-06-15T10:25:33Z</time>
      </trkpt>
      <trkpt lat="44.42459" lon="3.70941">
        <ele>1542.09</ele>
        <time>2013-06-15T10:25:43Z</time>
      </trkpt>
      <trkpt lat="44.42454" lon="3.70902">
        <ele>1543.05</ele>
        <time>2013-06-15T10:25:52Z</time>
      </trkpt>
      <trkpt lat="44.42451" lon="3.7086">
        <ele>1544.5</ele>
        <time>2013-06-15T10:26:02Z</time>
      </trkpt>
      <trkpt lat="44.42452" lon="3.70812">
        <ele>1545.94</ele>
        <time>2013-06-15T10:26:13Z</time>
      </trkpt>
      <trkpt lat="44.42453" lon="3.70773">
        <ele>1546.9</ele>
        <time>2013-06-15T10:26:23Z</time>
      </trkpt>
      <trkpt lat="44.42459" lon="3.70728">
        <ele>1547.86</ele>
        <time>2013-06-15T10:26:35Z</time>
      </trkpt>
      <trkpt lat="44.42467" lon="3.7069">
        <ele>1549.78</ele>
        <time>2013-06-15T10:26:45Z</time>
      </trkpt>
      <trkpt lat="44.42475" lon="3.70653">
        <ele>1551.71</ele>
        <time>2013-06-15T10:26:56Z</time>
      </trkpt>
      <trkpt lat="44.4248" lon="3.70623">
        <ele>1552.67</ele>
        <time>2013-06-15T10:27:05Z</time>
      </trkpt>
      <trkpt lat="44.4249" lon="3.70579">
        <ele>1553.63</ele>
        <time>2013-06-15T10:27:17Z</time>
      </trkpt>
      <trkpt lat="44.42502" lon="3.70533">
        <ele>1556.03</ele>
        <time>2013-06-15T10:27:29Z</time>
      </trkpt>
      <trkpt lat="44.42508" lon="3.70516">
        <ele>1556.99</ele>
        <time>2013-06-15T10:27:34Z</time>
      </trkpt>
      <trkpt lat="44.42524" lon="3.70486">
        <ele>1558.92</ele>
        <time>2013-06-15T10:27:45Z</time>
      </trkpt>
      <trkpt lat="44.42548" lon="3.70455">
        <ele>1559.88</ele>
        <time>2013-06-15T10:27:57Z</time>
      </trkpt>
      <trkpt lat="44.4257" lon="3.70432">
        <ele>1562.76</ele>
        <time>2013-06-15T10:28:08Z</time>
      </trkpt>
      <trkpt lat="44.42597" lon="3.70404">
        <ele>1563.72</ele>
        <time>2013-06-15T10:28:20Z</time>
      </trkpt>
      <trkpt lat="44.42622" lon="3.70369">
        <ele>1565.16</ele>
        <time>2013-06-15T10:28:32Z</time>
      </trkpt>
      <trkpt lat="44.42646" lon="3.70339">
        <ele>1566.12</ele>
        <time>2013-06-15T10:28:43Z</time>
      </trkpt>
      <trkpt lat="44.42672" lon="3.7031">
        <ele>1566.61</ele>
        <time>2013-06-15T10:28:53Z</time>
      </trkpt>
      <trkpt lat="44.42686" lon="3.70277">
        <ele>1567.57</ele>
        <time>2013-06-15T10:29:02Z</time>
      </trkpt>
      <trkpt lat="44.4268" lon="3.70223">
        <ele>1568.53</ele>
        <time>2013-06-15T10:29:13Z</time>
      </trkpt>
      <trkpt lat="44.42666" lon="3.7019">
        <ele>1568.05</ele>
        <time>2013-06-15T10:29:20Z</time>
      </trkpt>
      <trkpt lat="44.42663" lon="3.70186">
        <ele>1568.05</ele>
        <time>2013-06-15T10:29:21Z</time>
      </trkpt>
      <trkpt lat="44.42659" lon="3.70183">
        <ele>1568.05</ele>
        <time>2013-06-15T10:29:22Z</time>
      </trkpt>
      <trkpt lat="44.42648" lon="3.70175">
        <ele>1568.05</ele>
        <time>2013-06-15T10:29:25Z</time>
      </trkpt>
      <trkpt lat="44.42601" lon="3.70146">
        <ele>1568.05</ele>
        <time>2013-06-15T10:29:37Z</time>
      </trkpt>
      <trkpt lat="44.42554" lon="3.70112">
        <ele>1568.53</ele>
        <time>2013-06-15T10:29:50Z</time>
      </trkpt>
      <trkpt lat="44.4253" lon="3.70092">
        <ele>1567.57</ele>
        <time>2013-06-15T10:30:00Z</time>
      </trkpt>
      <trkpt lat="44.4253" lon="3.70091">
        <ele>1568.05</ele>
        <time>2013-06-15T10:30:17Z</time>
      </trkpt>
      <trkpt lat="44.4253" lon="3.70091">
        <ele>1567.57</ele>
        <time>2013-06-15T10:30:32Z</time>
      </trkpt>
      <trkpt lat="44.42529" lon="3.70091">
        <ele>1568.53</ele>
        <time>2013-06-15T10:30:48Z</time>
      </trkpt>
      <trkpt lat="44.4253" lon="3.70091">
        <ele>1563.72</ele>
        <time>2013-06-15T10:30:59Z</time>
      </trkpt>
      <trkpt lat="44.4253" lon="3.70091">
        <ele>1569.97</ele>
        <time>2013-06-15T10:31:00Z</time>
      </trkpt>
      <trkpt lat="44.4253" lon="3.7009">
        <ele>1563.24</ele>
        <time>2013-06-15T10:31:09Z</time>
      </trkpt>
      <trkpt lat="44.42529" lon="3.7009">
        <ele>1569.01</ele>
        <time>2013-06-15T10:31:11Z</time>
      </trkpt>
      <trkpt lat="44.42529" lon="3.7009">
        <ele>1567.57</ele>
        <time>2013-06-15T10:31:28Z</time>
      </trkpt>
      <trkpt lat="44.42529" lon="3.7009">
        <ele>1568.53</ele>
        <time>2013-06-15T10:31:30Z</time>
      </trkpt>
      <trkpt lat="44.42526" lon="3.70085">
        <ele>1568.05</ele>
        <time>2013-06-15T10:31:39Z</time>
      </trkpt>
      <trkpt lat="44.42515" lon="3.70068">
        <ele>1568.53</ele>
        <time>2013-06-15T10:31:47Z</time>
      </trkpt>
      <trkpt lat="44.42514" lon="3.70066">
        <ele>1569.01</ele>
        <time>2013-06-15T10:31:48Z</time>
      </trkpt>
      <trkpt lat="44.42513" lon="3.70065">
        <ele>1569.49</ele>
        <time>2013-06-15T10:31:49Z</time>
      </trkpt>
      <trkpt lat="44.42511" lon="3.70064">
        <ele>1568.05</ele>
        <time>2013-06-15T10:31:58Z</time>
      </trkpt>
      <trkpt lat="44.42511" lon="3.70065">
        <ele>1569.49</ele>
        <time>2013-06-15T10:32:25Z</time>
      </trkpt>
      <trkpt lat="44.4251" lon="3.70064">
        <ele>1565.64</ele>
        <time>2013-06-15T10:32:44Z</time>
      </trkpt>
      <trkpt lat="44.4251" lon="3.70064">
        <ele>1570.93</ele>
        <time>2013-06-15T10:32:45Z</time>
      </trkpt>
      <trkpt lat="44.4251" lon="3.70064">
        <ele>1569.49</ele>
        <time>2013-06-15T10:32:48Z</time>
      </trkpt>
      <trkpt lat="44.42508" lon="3.70062">
        <ele>1569.01</ele>
        <time>2013-06-15T10:33:01Z</time>
      </trkpt>
      <trkpt lat="44.42508" lon="3.7006">
        <ele>1569.01</ele>
        <time>2013-06-15T10:33:02Z</time>
      </trkpt>
      <trkpt lat="44.42506" lon="3.70059">
        <ele>1569.49</ele>
        <time>2013-06-15T10:33:03Z</time>
      </trkpt>
      <trkpt lat="44.42487" lon="3.70037">
        <ele>1569.97</ele>
        <time>2013-06-15T10:33:12Z</time>
      </trkpt>
      <trkpt lat="44.42462" lon="3.70009">
        <ele>1570.45</ele>
        <time>2013-06-15T10:33:23Z</time>
      </trkpt>
      <trkpt lat="44.42432" lon="3.69986">
        <ele>1571.89</ele>
        <time>2013-06-15T10:33:33Z</time>
      </trkpt>
      <trkpt lat="44.42399" lon="3.69963">
        <ele>1572.37</ele>
        <time>2013-06-15T10:33:43Z</time>
      </trkpt>
      <trkpt lat="44.42386" lon="3.69955">
        <ele>1580.06</ele>
        <time>2013-06-15T10:33:48Z</time>
      </trkpt>
      <trkpt lat="44.42384" lon="3.69954">
        <ele>1572.85</ele>
        <time>2013-06-15T10:33:49Z</time>
      </trkpt>
      <trkpt lat="44.42375" lon="3.69948">
        <ele>1572.85</ele>
        <time>2013-06-15T10:33:53Z</time>
      </trkpt>
      <trkpt lat="44.42375" lon="3.69934">
        <ele>1574.3</ele>
        <time>2013-06-15T10:33:58Z</time>
      </trkpt>
      <trkpt lat="44.42385" lon="3.69934">
        <ele>1574.3</ele>
        <time>2013-06-15T10:34:03Z</time>
      </trkpt>
      <trkpt lat="44.42417" lon="3.69928">
        <ele>1576.22</ele>
        <time>2013-06-15T10:34:14Z</time>
      </trkpt>
      <trkpt lat="44.42439" lon="3.69921">
        <ele>1576.7</ele>
        <time>2013-06-15T10:34:22Z</time>
      </trkpt>
      <trkpt lat="44.42471" lon="3.69908">
        <ele>1577.66</ele>
        <time>2013-06-15T10:34:33Z</time>
      </trkpt>
      <trkpt lat="44.42503" lon="3.69893">
        <ele>1577.66</ele>
        <time>2013-06-15T10:34:43Z</time>
      </trkpt>
      <trkpt lat="44.42538" lon="3.69874">
        <ele>1579.58</ele>
        <time>2013-06-15T10:34:54Z</time>
      </trkpt>
      <trkpt lat="44.42571" lon="3.69854">
        <ele>1580.06</ele>
        <time>2013-06-15T10:35:05Z</time>
      </trkpt>
      <trkpt lat="44.42578" lon="3.69849">
        <ele>1584.39</ele>
        <time>2013-06-15T10:35:07Z</time>
      </trkpt>
      <trkpt lat="44.42582" lon="3.69848">
        <ele>1580.06</ele>
        <time>2013-06-15T10:35:08Z</time>
      </trkpt>
      <trkpt lat="44.42581" lon="3.69844">
        <ele>1580.06</ele>
        <time>2013-06-15T10:35:13Z</time>
      </trkpt>
      <trkpt lat="44.42559" lon="3.69839">
        <ele>1579.1</ele>
        <time>2013-06-15T10:35:23Z</time>
      </trkpt>
      <trkpt lat="44.42545" lon="3.69809">
        <ele>1577.66</ele>
        <time>2013-06-15T10:35:33Z</time>
      </trkpt>
      <trkpt lat="44.42545" lon="3.69768">
        <ele>1577.66</ele>
        <time>2013-06-15T10:35:41Z</time>
      </trkpt>
      <trkpt lat="44.42546" lon="3.69751">
        <ele>1577.66</ele>
        <time>2013-06-15T10:35:44Z</time>
      </trkpt>
      <trkpt lat="44.42544" lon="3.69721">
        <ele>1577.66</ele>
        <time>2013-06-15T10:35:49Z</time>
      </trkpt>
      <trkpt lat="44.42533" lon="3.6966">
        <ele>1576.22</ele>
        <time>2013-06-15T10:36:00Z</time>
      </trkpt>
      <trkpt lat="44.42523" lon="3.69606">
        <ele>1575.74</ele>
        <time>2013-06-15T10:36:11Z</time>
      </trkpt>
      <trkpt lat="44.42523" lon="3.69601">
        <ele>1576.22</ele>
        <time>2013-06-15T10:36:12Z</time>
      </trkpt>
      <trkpt lat="44.42517" lon="3.69572">
        <ele>1575.26</ele>
        <time>2013-06-15T10:36:17Z</time>
      </trkpt>
      <trkpt lat="44.42508" lon="3.69552">
        <ele>1575.26</ele>
        <time>2013-06-15T10:36:21Z</time>
      </trkpt>
      <trkpt lat="44.42488" lon="3.6953">
        <ele>1574.3</ele>
        <time>2013-06-15T10:36:27Z</time>
      </trkpt>
      <trkpt lat="44.42466" lon="3.69518">
        <ele>1573.82</ele>
        <time>2013-06-15T10:36:32Z</time>
      </trkpt>
      <trkpt lat="44.42444" lon="3.69502">
        <ele>1572.85</ele>
        <time>2013-06-15T10:36:37Z</time>
      </trkpt>
      <trkpt lat="44.42419" lon="3.69479">
        <ele>1572.85</ele>
        <time>2013-06-15T10:36:44Z</time>
      </trkpt>
      <trkpt lat="44.42403" lon="3.69467">
        <ele>1570.93</ele>
        <time>2013-06-15T10:36:48Z</time>
      </trkpt>
      <trkpt lat="44.42368" lon="3.69417">
        <ele>1569.49</ele>
        <time>2013-06-15T10:36:58Z</time>
      </trkpt>
      <trkpt lat="44.42356" lon="3.69376">
        <ele>1569.01</ele>
        <time>2013-06-15T10:37:04Z</time>
      </trkpt>
      <trkpt lat="44.4235" lon="3.69323">
        <ele>1569.01</ele>
        <time>2013-06-15T10:37:12Z</time>
      </trkpt>
      <trkpt lat="44.42348" lon="3.69305">
        <ele>1569.01</ele>
        <time>2013-06-15T10:37:15Z</time>
      </trkpt>
      <trkpt lat="44.42341" lon="3.69282">
        <ele>1567.57</ele>
        <time>2013-06-15T10:37:19Z</time>
      </trkpt>
      <trkpt lat="44.4233" lon="3.69268">
        <ele>1567.57</ele>
        <time>2013-06-15T10:37:22Z</time>
      </trkpt>
      <trkpt lat="44.42311" lon="3.69253">
        <ele>1566.12</ele>
        <time>2013-06-15T10:37:26Z</time>
      </trkpt>
      <trkpt lat="44.4229" lon="3.69242">
        <ele>1565.16</ele>
        <time>2013-06-15T10:37:30Z</time>
      </trkpt>
      <trkpt lat="44.42234" lon="3.69209">
        <ele>1561.8</ele>
        <time>2013-06-15T10:37:40Z</time>
      </trkpt>
      <trkpt lat="44.42217" lon="3.69198">
        <ele>1560.36</ele>
        <time>2013-06-15T10:37:43Z</time>
      </trkpt>
      <trkpt lat="44.42195" lon="3.69183">
        <ele>1559.88</ele>
        <time>2013-06-15T10:37:47Z</time>
      </trkpt>
      <trkpt lat="44.42176" lon="3.69163">
        <ele>1560.36</ele>
        <time>2013-06-15T10:37:51Z</time>
      </trkpt>
      <trkpt lat="44.42167" lon="3.69135">
        <ele>1556.03</ele>
        <time>2013-06-15T10:37:55Z</time>
      </trkpt>
      <trkpt lat="44.42171" lon="3.69109">
        <ele>1554.59</ele>
        <time>2013-06-15T10:37:58Z</time>
      </trkpt>
      <trkpt lat="44.4217" lon="3.69064">
        <ele>1551.71</ele>
        <time>2013-06-15T10:38:03Z</time>
      </trkpt>
      <trkpt lat="44.42156" lon="3.69033">
        <ele>1549.3</ele>
        <time>2013-06-15T10:38:07Z</time>
      </trkpt>
      <trkpt lat="44.42138" lon="3.69004">
        <ele>1546.9</ele>
        <time>2013-06-15T10:38:11Z</time>
      </trkpt>
      <trkpt lat="44.42097" lon="3.68926">
        <ele>1543.05</ele>
        <time>2013-06-15T10:38:21Z</time>
      </trkpt>
      <trkpt lat="44.4209" lon="3.68911">
        <ele>1542.09</ele>
        <time>2013-06-15T10:38:23Z</time>
      </trkpt>
      <trkpt lat="44.4208" lon="3.68889">
        <ele>1542.09</ele>
        <time>2013-06-15T10:38:26Z</time>
      </trkpt>
      <trkpt lat="44.42053" lon="3.68842">
        <ele>1539.69</ele>
        <time>2013-06-15T10:38:33Z</time>
      </trkpt>
      <trkpt lat="44.42044" lon="3.6883">
        <ele>1538.73</ele>
        <time>2013-06-15T10:38:35Z</time>
      </trkpt>
      <trkpt lat="44.42027" lon="3.68815">
        <ele>1537.29</ele>
        <time>2013-06-15T10:38:38Z</time>
      </trkpt>
      <trkpt lat="44.41989" lon="3.68796">
        <ele>1534.88</ele>
        <time>2013-06-15T10:38:44Z</time>
      </trkpt>
      <trkpt lat="44.4191" lon="3.68785">
        <ele>1531.52</ele>
        <time>2013-06-15T10:38:55Z</time>
      </trkpt>
      <trkpt lat="44.41838" lon="3.68795">
        <ele>1528.15</ele>
        <time>2013-06-15T10:39:06Z</time>
      </trkpt>
      <trkpt lat="44.41796" lon="3.68797">
        <ele>1527.67</ele>
        <time>2013-06-15T10:39:13Z</time>
      </trkpt>
      <trkpt lat="44.41729" lon="3.68801">
        <ele>1526.23</ele>
        <time>2013-06-15T10:39:25Z</time>
      </trkpt>
      <trkpt lat="44.4168" lon="3.68817">
        <ele>1524.31</ele>
        <time>2013-06-15T10:39:34Z</time>
      </trkpt>
      <trkpt lat="44.41625" lon="3.68845">
        <ele>1522.87</ele>
        <time>2013-06-15T10:39:45Z</time>
      </trkpt>
      <trkpt lat="44.41567" lon="3.68875">
        <ele>1520.94</ele>
        <time>2013-06-15T10:39:56Z</time>
      </trkpt>
      <trkpt lat="44.41543" lon="3.68891">
        <ele>1519.98</ele>
        <time>2013-06-15T10:40:01Z</time>
      </trkpt>
      <trkpt lat="44.41522" lon="3.68899">
        <ele>1519.02</ele>
        <time>2013-06-15T10:40:06Z</time>
      </trkpt>
      <trkpt lat="44.41494" lon="3.68904">
        <ele>1517.58</ele>
        <time>2013-06-15T10:40:15Z</time>
      </trkpt>
      <trkpt lat="44.4149" lon="3.68904">
        <ele>1517.58</ele>
        <time>2013-06-15T10:40:16Z</time>
      </trkpt>
      <trkpt lat="44.41476" lon="3.68902">
        <ele>1516.14</ele>
        <time>2013-06-15T10:40:19Z</time>
      </trkpt>
      <trkpt lat="44.41471" lon="3.689">
        <ele>1515.18</ele>
        <time>2013-06-15T10:40:20Z</time>
      </trkpt>
      <trkpt lat="44.41457" lon="3.68889">
        <ele>1514.21</ele>
        <time>2013-06-15T10:40:23Z</time>
      </trkpt>
      <trkpt lat="44.41454" lon="3.68882">
        <ele>1513.25</ele>
        <time>2013-06-15T10:40:24Z</time>
      </trkpt>
      <trkpt lat="44.41453" lon="3.68875">
        <ele>1512.29</ele>
        <time>2013-06-15T10:40:25Z</time>
      </trkpt>
      <trkpt lat="44.41452" lon="3.68868">
        <ele>1512.29</ele>
        <time>2013-06-15T10:40:26Z</time>
      </trkpt>
      <trkpt lat="44.41452" lon="3.6886">
        <ele>1511.81</ele>
        <time>2013-06-15T10:40:27Z</time>
      </trkpt>
      <trkpt lat="44.41453" lon="3.68852">
        <ele>1511.81</ele>
        <time>2013-06-15T10:40:28Z</time>
      </trkpt>
      <trkpt lat="44.41453" lon="3.68844">
        <ele>1511.81</ele>
        <time>2013-06-15T10:40:29Z</time>
      </trkpt>
      <trkpt lat="44.41453" lon="3.68837">
        <ele>1510.85</ele>
        <time>2013-06-15T10:40:30Z</time>
      </trkpt>
      <trkpt lat="44.41452" lon="3.6883">
        <ele>1510.85</ele>
        <time>2013-06-15T10:40:31Z</time>
      </trkpt>
      <trkpt lat="44.41452" lon="3.68815">
        <ele>1510.37</ele>
        <time>2013-06-15T10:40:33Z</time>
      </trkpt>
      <trkpt lat="44.41451" lon="3.68809">
        <ele>1510.37</ele>
        <time>2013-06-15T10:40:34Z</time>
      </trkpt>
      <trkpt lat="44.41449" lon="3.68804">
        <ele>1509.89</ele>
        <time>2013-06-15T10:40:35Z</time>
      </trkpt>
      <trkpt lat="44.41447" lon="3.688">
        <ele>1509.41</ele>
        <time>2013-06-15T10:40:36Z</time>
      </trkpt>
      <trkpt lat="44.41446" lon="3.68798">
        <ele>1509.89</ele>
        <time>2013-06-15T10:40:42Z</time>
      </trkpt>
      <trkpt lat="44.41446" lon="3.68793">
        <ele>1509.41</ele>
        <time>2013-06-15T10:40:47Z</time>
      </trkpt>
      <trkpt lat="44.41447" lon="3.6879">
        <ele>1508.93</ele>
        <time>2013-06-15T10:40:48Z</time>
      </trkpt>
      <trkpt lat="44.41448" lon="3.68786">
        <ele>1508.45</ele>
        <time>2013-06-15T10:40:49Z</time>
      </trkpt>
      <trkpt lat="44.41454" lon="3.68762">
        <ele>1508.93</ele>
        <time>2013-06-15T10:40:54Z</time>
      </trkpt>
      <trkpt lat="44.41462" lon="3.68728">
        <ele>1507.97</ele>
        <time>2013-06-15T10:41:00Z</time>
      </trkpt>
      <trkpt lat="44.41463" lon="3.68723">
        <ele>1508.45</ele>
        <time>2013-06-15T10:41:01Z</time>
      </trkpt>
      <trkpt lat="44.41464" lon="3.68717">
        <ele>1507.48</ele>
        <time>2013-06-15T10:41:02Z</time>
      </trkpt>
      <trkpt lat="44.41482" lon="3.68645">
        <ele>1505.56</ele>
        <time>2013-06-15T10:41:14Z</time>
      </trkpt>
      <trkpt lat="44.41502" lon="3.68574">
        <ele>1504.12</ele>
        <time>2013-06-15T10:41:25Z</time>
      </trkpt>
      <trkpt lat="44.41506" lon="3.68552">
        <ele>1502.68</ele>
        <time>2013-06-15T10:41:28Z</time>
      </trkpt>
      <trkpt lat="44.41508" lon="3.68545">
        <ele>1503.16</ele>
        <time>2013-06-15T10:41:29Z</time>
      </trkpt>
      <trkpt lat="44.41533" lon="3.68463">
        <ele>1501.24</ele>
        <time>2013-06-15T10:41:40Z</time>
      </trkpt>
      <trkpt lat="44.41536" lon="3.68456">
        <ele>1501.24</ele>
        <time>2013-06-15T10:41:41Z</time>
      </trkpt>
      <trkpt lat="44.41539" lon="3.6845">
        <ele>1501.24</ele>
        <time>2013-06-15T10:41:42Z</time>
      </trkpt>
      <trkpt lat="44.41543" lon="3.68444">
        <ele>1501.24</ele>
        <time>2013-06-15T10:41:43Z</time>
      </trkpt>
      <trkpt lat="44.41547" lon="3.68438">
        <ele>1501.24</ele>
        <time>2013-06-15T10:41:44Z</time>
      </trkpt>
      <trkpt lat="44.41551" lon="3.68433">
        <ele>1501.24</ele>
        <time>2013-06-15T10:41:45Z</time>
      </trkpt>
      <trkpt lat="44.41555" lon="3.68428">
        <ele>1501.24</ele>
        <time>2013-06-15T10:41:46Z</time>
      </trkpt>
      <trkpt lat="44.41559" lon="3.68423">
        <ele>1501.72</ele>
        <time>2013-06-15T10:41:47Z</time>
      </trkpt>
      <trkpt lat="44.41564" lon="3.68418">
        <ele>1501.24</ele>
        <time>2013-06-15T10:41:48Z</time>
      </trkpt>
      <trkpt lat="44.41608" lon="3.68365">
        <ele>1501.24</ele>
        <time>2013-06-15T10:41:59Z</time>
      </trkpt>
      <trkpt lat="44.41612" lon="3.68361">
        <ele>1500.76</ele>
        <time>2013-06-15T10:42:00Z</time>
      </trkpt>
      <trkpt lat="44.41626" lon="3.68351">
        <ele>1500.76</ele>
        <time>2013-06-15T10:42:03Z</time>
      </trkpt>
      <trkpt lat="44.41631" lon="3.68349">
        <ele>1500.76</ele>
        <time>2013-06-15T10:42:04Z</time>
      </trkpt>
      <trkpt lat="44.41645" lon="3.68348">
        <ele>1500.76</ele>
        <time>2013-06-15T10:42:07Z</time>
      </trkpt>
      <trkpt lat="44.4165" lon="3.68349">
        <ele>1500.76</ele>
        <time>2013-06-15T10:42:08Z</time>
      </trkpt>
      <trkpt lat="44.41654" lon="3.68351">
        <ele>1501.24</ele>
        <time>2013-06-15T10:42:09Z</time>
      </trkpt>
      <trkpt lat="44.4168" lon="3.68361">
        <ele>1501.24</ele>
        <time>2013-06-15T10:42:15Z</time>
      </trkpt>
      <trkpt lat="44.41684" lon="3.68363">
        <ele>1501.24</ele>
        <time>2013-06-15T10:42:16Z</time>
      </trkpt>
      <trkpt lat="44.41693" lon="3.68368">
        <ele>1501.24</ele>
        <time>2013-06-15T10:42:18Z</time>
      </trkpt>
      <trkpt lat="44.41719" lon="3.68393">
        <ele>1501.72</ele>
        <time>2013-06-15T10:42:25Z</time>
      </trkpt>
      <trkpt lat="44.41743" lon="3.68425">
        <ele>1502.68</ele>
        <time>2013-06-15T10:42:33Z</time>
      </trkpt>
      <trkpt lat="44.41746" lon="3.68429">
        <ele>1502.68</ele>
        <time>2013-06-15T10:42:34Z</time>
      </trkpt>
      <trkpt lat="44.41749" lon="3.68434">
        <ele>1502.68</ele>
        <time>2013-06-15T10:42:35Z</time>
      </trkpt>
      <trkpt lat="44.41752" lon="3.68438">
        <ele>1502.68</ele>
        <time>2013-06-15T10:42:36Z</time>
      </trkpt>
      <trkpt lat="44.41755" lon="3.68442">
        <ele>1502.68</ele>
        <time>2013-06-15T10:42:37Z</time>
      </trkpt>
      <trkpt lat="44.41759" lon="3.68445">
        <ele>1502.2</ele>
        <time>2013-06-15T10:42:38Z</time>
      </trkpt>
      <trkpt lat="44.41763" lon="3.68448">
        <ele>1502.68</ele>
        <time>2013-06-15T10:42:39Z</time>
      </trkpt>
      <trkpt lat="44.41784" lon="3.68465">
        <ele>1502.68</ele>
        <time>2013-06-15T10:42:45Z</time>
      </trkpt>
      <trkpt lat="44.41787" lon="3.68468">
        <ele>1502.68</ele>
        <time>2013-06-15T10:42:46Z</time>
      </trkpt>
      <trkpt lat="44.41791" lon="3.68471">
        <ele>1502.68</ele>
        <time>2013-06-15T10:42:47Z</time>
      </trkpt>
      <trkpt lat="44.41794" lon="3.68474">
        <ele>1503.16</ele>
        <time>2013-06-15T10:42:48Z</time>
      </trkpt>
      <trkpt lat="44.41797" lon="3.68477">
        <ele>1503.16</ele>
        <time>2013-06-15T10:42:49Z</time>
      </trkpt>
      <trkpt lat="44.41801" lon="3.68479">
        <ele>1503.16</ele>
        <time>2013-06-15T10:42:50Z</time>
      </trkpt>
      <trkpt lat="44.41822" lon="3.68492">
        <ele>1503.16</ele>
        <time>2013-06-15T10:42:57Z</time>
      </trkpt>
      <trkpt lat="44.41842" lon="3.68487">
        <ele>1511.81</ele>
        <time>2013-06-15T10:43:04Z</time>
      </trkpt>
      <trkpt lat="44.41845" lon="3.68485">
        <ele>1502.2</ele>
        <time>2013-06-15T10:43:05Z</time>
      </trkpt>
      <trkpt lat="44.41865" lon="3.68477">
        <ele>1501.24</ele>
        <time>2013-06-15T10:43:11Z</time>
      </trkpt>
      <trkpt lat="44.41869" lon="3.68476">
        <ele>1500.76</ele>
        <time>2013-06-15T10:43:12Z</time>
      </trkpt>
      <trkpt lat="44.4188" lon="3.68474">
        <ele>1500.27</ele>
        <time>2013-06-15T10:43:14Z</time>
      </trkpt>
      <trkpt lat="44.41931" lon="3.68468">
        <ele>1496.91</ele>
        <time>2013-06-15T10:43:23Z</time>
      </trkpt>
      <trkpt lat="44.41979" lon="3.68459">
        <ele>1494.03</ele>
        <time>2013-06-15T10:43:30Z</time>
      </trkpt>
      <trkpt lat="44.42025" lon="3.68453">
        <ele>1490.66</ele>
        <time>2013-06-15T10:43:36Z</time>
      </trkpt>
      <trkpt lat="44.42049" lon="3.68452">
        <ele>1489.22</ele>
        <time>2013-06-15T10:43:39Z</time>
      </trkpt>
      <trkpt lat="44.42058" lon="3.68451">
        <ele>1488.26</ele>
        <time>2013-06-15T10:43:40Z</time>
      </trkpt>
      <trkpt lat="44.42066" lon="3.6845">
        <ele>1488.26</ele>
        <time>2013-06-15T10:43:41Z</time>
      </trkpt>
      <trkpt lat="44.42101" lon="3.6845">
        <ele>1484.89</ele>
        <time>2013-06-15T10:43:45Z</time>
      </trkpt>
      <trkpt lat="44.42146" lon="3.68445">
        <ele>1481.53</ele>
        <time>2013-06-15T10:43:50Z</time>
      </trkpt>
      <trkpt lat="44.42163" lon="3.6844">
        <ele>1480.57</ele>
        <time>2013-06-15T10:43:52Z</time>
      </trkpt>
      <trkpt lat="44.42217" lon="3.68436">
        <ele>1477.2</ele>
        <time>2013-06-15T10:43:58Z</time>
      </trkpt>
      <trkpt lat="44.42272" lon="3.68427">
        <ele>1473.36</ele>
        <time>2013-06-15T10:44:04Z</time>
      </trkpt>
      <trkpt lat="44.42309" lon="3.68426">
        <ele>1470.47</ele>
        <time>2013-06-15T10:44:08Z</time>
      </trkpt>
      <trkpt lat="44.42381" lon="3.68451">
        <ele>1468.07</ele>
        <time>2013-06-15T10:44:17Z</time>
      </trkpt>
      <trkpt lat="44.42387" lon="3.68455">
        <ele>1467.11</ele>
        <time>2013-06-15T10:44:18Z</time>
      </trkpt>
      <trkpt lat="44.42392" lon="3.68458">
        <ele>1467.11</ele>
        <time>2013-06-15T10:44:19Z</time>
      </trkpt>
      <trkpt lat="44.42396" lon="3.68459">
        <ele>1467.11</ele>
        <time>2013-06-15T10:44:20Z</time>
      </trkpt>
      <trkpt lat="44.42399" lon="3.68458">
        <ele>1467.11</ele>
        <time>2013-06-15T10:44:21Z</time>
      </trkpt>
      <trkpt lat="44.42401" lon="3.68455">
        <ele>1466.63</ele>
        <time>2013-06-15T10:44:22Z</time>
      </trkpt>
      <trkpt lat="44.424" lon="3.68452">
        <ele>1466.63</ele>
        <time>2013-06-15T10:44:23Z</time>
      </trkpt>
      <trkpt lat="44.42398" lon="3.68447">
        <ele>1466.15</ele>
        <time>2013-06-15T10:44:24Z</time>
      </trkpt>
      <trkpt lat="44.42395" lon="3.68443">
        <ele>1465.67</ele>
        <time>2013-06-15T10:44:25Z</time>
      </trkpt>
      <trkpt lat="44.42392" lon="3.68439">
        <ele>1465.19</ele>
        <time>2013-06-15T10:44:26Z</time>
      </trkpt>
      <trkpt lat="44.42382" lon="3.68426">
        <ele>1459.9</ele>
        <time>2013-06-15T10:44:29Z</time>
      </trkpt>
      <trkpt lat="44.42378" lon="3.68421">
        <ele>1464.23</ele>
        <time>2013-06-15T10:44:30Z</time>
      </trkpt>
      <trkpt lat="44.42344" lon="3.68385">
        <ele>1460.38</ele>
        <time>2013-06-15T10:44:37Z</time>
      </trkpt>
      <trkpt lat="44.42323" lon="3.68356">
        <ele>1457.98</ele>
        <time>2013-06-15T10:44:41Z</time>
      </trkpt>
      <trkpt lat="44.42304" lon="3.68338">
        <ele>1457.02</ele>
        <time>2013-06-15T10:44:44Z</time>
      </trkpt>
      <trkpt lat="44.42297" lon="3.68334">
        <ele>1456.53</ele>
        <time>2013-06-15T10:44:45Z</time>
      </trkpt>
      <trkpt lat="44.42276" lon="3.68316">
        <ele>1454.13</ele>
        <time>2013-06-15T10:44:48Z</time>
      </trkpt>
      <trkpt lat="44.42245" lon="3.68293">
        <ele>1449.81</ele>
        <time>2013-06-15T10:44:52Z</time>
      </trkpt>
      <trkpt lat="44.42223" lon="3.68271">
        <ele>1448.36</ele>
        <time>2013-06-15T10:44:55Z</time>
      </trkpt>
      <trkpt lat="44.42186" lon="3.6824">
        <ele>1445.48</ele>
        <time>2013-06-15T10:45:00Z</time>
      </trkpt>
      <trkpt lat="44.42155" lon="3.68215">
        <ele>1442.11</ele>
        <time>2013-06-15T10:45:04Z</time>
      </trkpt>
      <trkpt lat="44.42124" lon="3.68187">
        <ele>1438.75</ele>
        <time>2013-06-15T10:45:08Z</time>
      </trkpt>
      <trkpt lat="44.42098" lon="3.68168">
        <ele>1435.87</ele>
        <time>2013-06-15T10:45:11Z</time>
      </trkpt>
      <trkpt lat="44.4209" lon="3.68161">
        <ele>1434.42</ele>
        <time>2013-06-15T10:45:12Z</time>
      </trkpt>
      <trkpt lat="44.42082" lon="3.68152">
        <ele>1433.46</ele>
        <time>2013-06-15T10:45:13Z</time>
      </trkpt>
      <trkpt lat="44.42068" lon="3.68135">
        <ele>1432.98</ele>
        <time>2013-06-15T10:45:15Z</time>
      </trkpt>
      <trkpt lat="44.4206" lon="3.68127">
        <ele>1432.02</ele>
        <time>2013-06-15T10:45:16Z</time>
      </trkpt>
      <trkpt lat="44.42052" lon="3.68121">
        <ele>1431.54</ele>
        <time>2013-06-15T10:45:17Z</time>
      </trkpt>
      <trkpt lat="44.42043" lon="3.68114">
        <ele>1430.58</ele>
        <time>2013-06-15T10:45:18Z</time>
      </trkpt>
      <trkpt lat="44.42035" lon="3.68107">
        <ele>1430.1</ele>
        <time>2013-06-15T10:45:19Z</time>
      </trkpt>
      <trkpt lat="44.42027" lon="3.681">
        <ele>1429.62</ele>
        <time>2013-06-15T10:45:20Z</time>
      </trkpt>
      <trkpt lat="44.42004" lon="3.68077">
        <ele>1426.25</ele>
        <time>2013-06-15T10:45:23Z</time>
      </trkpt>
      <trkpt lat="44.41969" lon="3.68031">
        <ele>1422.89</ele>
        <time>2013-06-15T10:45:28Z</time>
      </trkpt>
      <trkpt lat="44.41955" lon="3.68014">
        <ele>1422.41</ele>
        <time>2013-06-15T10:45:30Z</time>
      </trkpt>
      <trkpt lat="44.41936" lon="3.67987">
        <ele>1419.04</ele>
        <time>2013-06-15T10:45:33Z</time>
      </trkpt>
      <trkpt lat="44.41901" lon="3.67944">
        <ele>1416.16</ele>
        <time>2013-06-15T10:45:39Z</time>
      </trkpt>
      <trkpt lat="44.41898" lon="3.67939">
        <ele>1416.16</ele>
        <time>2013-06-15T10:45:40Z</time>
      </trkpt>
      <trkpt lat="44.41897" lon="3.67936">
        <ele>1416.16</ele>
        <time>2013-06-15T10:45:41Z</time>
      </trkpt>
      <trkpt lat="44.41897" lon="3.67934">
        <ele>1411.83</ele>
        <time>2013-06-15T10:45:44Z</time>
      </trkpt>
      <trkpt lat="44.41897" lon="3.67934">
        <ele>1415.68</ele>
        <time>2013-06-15T10:45:45Z</time>
      </trkpt>
      <trkpt lat="44.41897" lon="3.67932">
        <ele>1416.16</ele>
        <time>2013-06-15T10:45:47Z</time>
      </trkpt>
      <trkpt lat="44.41898" lon="3.6793">
        <ele>1415.68</ele>
        <time>2013-06-15T10:45:48Z</time>
      </trkpt>
      <trkpt lat="44.41899" lon="3.6793">
        <ele>1416.16</ele>
        <time>2013-06-15T10:45:49Z</time>
      </trkpt>
      <trkpt lat="44.41901" lon="3.67931">
        <ele>1415.68</ele>
        <time>2013-06-15T10:45:50Z</time>
      </trkpt>
      <trkpt lat="44.41902" lon="3.67932">
        <ele>1416.16</ele>
        <time>2013-06-15T10:45:51Z</time>
      </trkpt>
      <trkpt lat="44.41903" lon="3.67933">
        <ele>1416.16</ele>
        <time>2013-06-15T10:45:52Z</time>
      </trkpt>
      <trkpt lat="44.41906" lon="3.67934">
        <ele>1416.16</ele>
        <time>2013-06-15T10:45:53Z</time>
      </trkpt>
      <trkpt lat="44.41927" lon="3.67951">
        <ele>1415.68</ele>
        <time>2013-06-15T10:46:01Z</time>
      </trkpt>
      <trkpt lat="44.41951" lon="3.67966">
        <ele>1415.68</ele>
        <time>2013-06-15T10:46:08Z</time>
      </trkpt>
      <trkpt lat="44.41956" lon="3.67972">
        <ele>1416.16</ele>
        <time>2013-06-15T10:46:10Z</time>
      </trkpt>
      <trkpt lat="44.4196" lon="3.67974">
        <ele>1416.64</ele>
        <time>2013-06-15T10:46:11Z</time>
      </trkpt>
      <trkpt lat="44.41963" lon="3.67976">
        <ele>1416.64</ele>
        <time>2013-06-15T10:46:12Z</time>
      </trkpt>
      <trkpt lat="44.41972" lon="3.67981">
        <ele>1409.43</ele>
        <time>2013-06-15T10:46:15Z</time>
      </trkpt>
      <trkpt lat="44.41975" lon="3.67984">
        <ele>1417.6</ele>
        <time>2013-06-15T10:46:16Z</time>
      </trkpt>
      <trkpt lat="44.42006" lon="3.68003">
        <ele>1417.12</ele>
        <time>2013-06-15T10:46:26Z</time>
      </trkpt>
      <trkpt lat="44.42046" lon="3.68024">
        <ele>1417.6</ele>
        <time>2013-06-15T10:46:37Z</time>
      </trkpt>
      <trkpt lat="44.42061" lon="3.68029">
        <ele>1417.12</ele>
        <time>2013-06-15T10:46:41Z</time>
      </trkpt>
      <trkpt lat="44.42065" lon="3.68029">
        <ele>1417.12</ele>
        <time>2013-06-15T10:46:42Z</time>
      </trkpt>
      <trkpt lat="44.4207" lon="3.68029">
        <ele>1416.64</ele>
        <time>2013-06-15T10:46:43Z</time>
      </trkpt>
      <trkpt lat="44.42085" lon="3.68027">
        <ele>1417.12</ele>
        <time>2013-06-15T10:46:46Z</time>
      </trkpt>
      <trkpt lat="44.4209" lon="3.68026">
        <ele>1416.64</ele>
        <time>2013-06-15T10:46:47Z</time>
      </trkpt>
      <trkpt lat="44.42095" lon="3.68026">
        <ele>1416.16</ele>
        <time>2013-06-15T10:46:48Z</time>
      </trkpt>
      <trkpt lat="44.42149" lon="3.68025">
        <ele>1416.16</ele>
        <time>2013-06-15T10:46:59Z</time>
      </trkpt>
      <trkpt lat="44.42153" lon="3.68023">
        <ele>1416.16</ele>
        <time>2013-06-15T10:47:00Z</time>
      </trkpt>
      <trkpt lat="44.42158" lon="3.6802">
        <ele>1416.16</ele>
        <time>2013-06-15T10:47:01Z</time>
      </trkpt>
      <trkpt lat="44.42161" lon="3.68015">
        <ele>1415.68</ele>
        <time>2013-06-15T10:47:02Z</time>
      </trkpt>
      <trkpt lat="44.42165" lon="3.68009">
        <ele>1415.2</ele>
        <time>2013-06-15T10:47:03Z</time>
      </trkpt>
      <trkpt lat="44.42167" lon="3.68003">
        <ele>1415.2</ele>
        <time>2013-06-15T10:47:04Z</time>
      </trkpt>
      <trkpt lat="44.42169" lon="3.67997">
        <ele>1415.2</ele>
        <time>2013-06-15T10:47:05Z</time>
      </trkpt>
      <trkpt lat="44.4217" lon="3.67991">
        <ele>1415.2</ele>
        <time>2013-06-15T10:47:06Z</time>
      </trkpt>
      <trkpt lat="44.4217" lon="3.67985">
        <ele>1415.2</ele>
        <time>2013-06-15T10:47:07Z</time>
      </trkpt>
      <trkpt lat="44.42169" lon="3.6798">
        <ele>1415.68</ele>
        <time>2013-06-15T10:47:08Z</time>
      </trkpt>
      <trkpt lat="44.42168" lon="3.67975">
        <ele>1415.68</ele>
        <time>2013-06-15T10:47:09Z</time>
      </trkpt>
      <trkpt lat="44.42148" lon="3.67953">
        <ele>1416.16</ele>
        <time>2013-06-15T10:47:16Z</time>
      </trkpt>
      <trkpt lat="44.42121" lon="3.67923">
        <ele>1417.6</ele>
        <time>2013-06-15T10:47:25Z</time>
      </trkpt>
      <trkpt lat="44.42118" lon="3.67919">
        <ele>1417.12</ele>
        <time>2013-06-15T10:47:26Z</time>
      </trkpt>
      <trkpt lat="44.42093" lon="3.67877">
        <ele>1418.08</ele>
        <time>2013-06-15T10:47:36Z</time>
      </trkpt>
      <trkpt lat="44.42088" lon="3.67865">
        <ele>1419.52</ele>
        <time>2013-06-15T10:47:39Z</time>
      </trkpt>
      <trkpt lat="44.42076" lon="3.67835">
        <ele>1420</ele>
        <time>2013-06-15T10:47:48Z</time>
      </trkpt>
      <trkpt lat="44.42065" lon="3.67803">
        <ele>1420.97</ele>
        <time>2013-06-15T10:47:57Z</time>
      </trkpt>
      <trkpt lat="44.42056" lon="3.67775">
        <ele>1422.89</ele>
        <time>2013-06-15T10:48:05Z</time>
      </trkpt>
      <trkpt lat="44.42047" lon="3.67751">
        <ele>1423.85</ele>
        <time>2013-06-15T10:48:11Z</time>
      </trkpt>
      <trkpt lat="44.42043" lon="3.67744">
        <ele>1417.6</ele>
        <time>2013-06-15T10:48:13Z</time>
      </trkpt>
      <trkpt lat="44.42042" lon="3.6774">
        <ele>1419.52</ele>
        <time>2013-06-15T10:48:14Z</time>
      </trkpt>
      <trkpt lat="44.4204" lon="3.67736">
        <ele>1414.72</ele>
        <time>2013-06-15T10:48:15Z</time>
      </trkpt>
      <trkpt lat="44.42038" lon="3.67733">
        <ele>1424.81</ele>
        <time>2013-06-15T10:48:16Z</time>
      </trkpt>
      <trkpt lat="44.42037" lon="3.67729">
        <ele>1424.81</ele>
        <time>2013-06-15T10:48:17Z</time>
      </trkpt>
      <trkpt lat="44.42033" lon="3.6772">
        <ele>1439.23</ele>
        <time>2013-06-15T10:48:20Z</time>
      </trkpt>
      <trkpt lat="44.42032" lon="3.67717">
        <ele>1425.77</ele>
        <time>2013-06-15T10:48:21Z</time>
      </trkpt>
      <trkpt lat="44.42018" lon="3.67687">
        <ele>1426.73</ele>
        <time>2013-06-15T10:48:31Z</time>
      </trkpt>
      <trkpt lat="44.42006" lon="3.67658">
        <ele>1428.66</ele>
        <time>2013-06-15T10:48:41Z</time>
      </trkpt>
      <trkpt lat="44.42005" lon="3.67656">
        <ele>1428.66</ele>
        <time>2013-06-15T10:48:42Z</time>
      </trkpt>
      <trkpt lat="44.42005" lon="3.67653">
        <ele>1429.14</ele>
        <time>2013-06-15T10:48:43Z</time>
      </trkpt>
      <trkpt lat="44.42004" lon="3.67651">
        <ele>1433.94</ele>
        <time>2013-06-15T10:48:44Z</time>
      </trkpt>
      <trkpt lat="44.42003" lon="3.67647">
        <ele>1418.08</ele>
        <time>2013-06-15T10:48:45Z</time>
      </trkpt>
      <trkpt lat="44.42002" lon="3.67643">
        <ele>1430.1</ele>
        <time>2013-06-15T10:48:46Z</time>
      </trkpt>
      <trkpt lat="44.41989" lon="3.67607">
        <ele>1430.1</ele>
        <time>2013-06-15T10:48:55Z</time>
      </trkpt>
      <trkpt lat="44.41979" lon="3.67544">
        <ele>1430.58</ele>
        <time>2013-06-15T10:49:08Z</time>
      </trkpt>
      <trkpt lat="44.41988" lon="3.67474">
        <ele>1430.1</ele>
        <time>2013-06-15T10:49:23Z</time>
      </trkpt>
      <trkpt lat="44.41996" lon="3.67433">
        <ele>1429.62</ele>
        <time>2013-06-15T10:49:30Z</time>
      </trkpt>
      <trkpt lat="44.41997" lon="3.67427">
        <ele>1429.62</ele>
        <time>2013-06-15T10:49:31Z</time>
      </trkpt>
      <trkpt lat="44.41998" lon="3.67421">
        <ele>1429.14</ele>
        <time>2013-06-15T10:49:32Z</time>
      </trkpt>
      <trkpt lat="44.41998" lon="3.67415">
        <ele>1430.1</ele>
        <time>2013-06-15T10:49:33Z</time>
      </trkpt>
      <trkpt lat="44.42" lon="3.67408">
        <ele>1429.62</ele>
        <time>2013-06-15T10:49:34Z</time>
      </trkpt>
      <trkpt lat="44.42002" lon="3.67402">
        <ele>1429.62</ele>
        <time>2013-06-15T10:49:35Z</time>
      </trkpt>
      <trkpt lat="44.42006" lon="3.67391">
        <ele>1429.62</ele>
        <time>2013-06-15T10:49:37Z</time>
      </trkpt>
      <trkpt lat="44.42008" lon="3.67385">
        <ele>1429.62</ele>
        <time>2013-06-15T10:49:38Z</time>
      </trkpt>
      <trkpt lat="44.42021" lon="3.6734">
        <ele>1430.1</ele>
        <time>2013-06-15T10:49:46Z</time>
      </trkpt>
      <trkpt lat="44.42023" lon="3.67334">
        <ele>1430.1</ele>
        <time>2013-06-15T10:49:47Z</time>
      </trkpt>
      <trkpt lat="44.42025" lon="3.67328">
        <ele>1430.1</ele>
        <time>2013-06-15T10:49:48Z</time>
      </trkpt>
      <trkpt lat="44.4203" lon="3.67317">
        <ele>1429.62</ele>
        <time>2013-06-15T10:49:50Z</time>
      </trkpt>
      <trkpt lat="44.42041" lon="3.67293">
        <ele>1429.14</ele>
        <time>2013-06-15T10:49:54Z</time>
      </trkpt>
      <trkpt lat="44.4205" lon="3.67266">
        <ele>1429.14</ele>
        <time>2013-06-15T10:49:58Z</time>
      </trkpt>
      <trkpt lat="44.42053" lon="3.6726">
        <ele>1429.14</ele>
        <time>2013-06-15T10:49:59Z</time>
      </trkpt>
      <trkpt lat="44.42056" lon="3.67252">
        <ele>1428.18</ele>
        <time>2013-06-15T10:50:00Z</time>
      </trkpt>
      <trkpt lat="44.42067" lon="3.67223">
        <ele>1427.21</ele>
        <time>2013-06-15T10:50:04Z</time>
      </trkpt>
      <trkpt lat="44.42071" lon="3.67216">
        <ele>1427.7</ele>
        <time>2013-06-15T10:50:05Z</time>
      </trkpt>
      <trkpt lat="44.42113" lon="3.67126">
        <ele>1425.29</ele>
        <time>2013-06-15T10:50:17Z</time>
      </trkpt>
      <trkpt lat="44.42116" lon="3.67119">
        <ele>1424.81</ele>
        <time>2013-06-15T10:50:18Z</time>
      </trkpt>
      <trkpt lat="44.42125" lon="3.67095">
        <ele>1423.37</ele>
        <time>2013-06-15T10:50:21Z</time>
      </trkpt>
      <trkpt lat="44.42128" lon="3.67086">
        <ele>1422.89</ele>
        <time>2013-06-15T10:50:22Z</time>
      </trkpt>
      <trkpt lat="44.42131" lon="3.67077">
        <ele>1422.89</ele>
        <time>2013-06-15T10:50:23Z</time>
      </trkpt>
      <trkpt lat="44.42136" lon="3.67059">
        <ele>1422.41</ele>
        <time>2013-06-15T10:50:25Z</time>
      </trkpt>
      <trkpt lat="44.42159" lon="3.6696">
        <ele>1420</ele>
        <time>2013-06-15T10:50:36Z</time>
      </trkpt>
      <trkpt lat="44.42166" lon="3.66934">
        <ele>1420.49</ele>
        <time>2013-06-15T10:50:39Z</time>
      </trkpt>
      <trkpt lat="44.42167" lon="3.66925">
        <ele>1420.49</ele>
        <time>2013-06-15T10:50:40Z</time>
      </trkpt>
      <trkpt lat="44.42168" lon="3.66916">
        <ele>1420</ele>
        <time>2013-06-15T10:50:41Z</time>
      </trkpt>
      <trkpt lat="44.42168" lon="3.669">
        <ele>1420</ele>
        <time>2013-06-15T10:50:43Z</time>
      </trkpt>
      <trkpt lat="44.42168" lon="3.66893">
        <ele>1420.49</ele>
        <time>2013-06-15T10:50:44Z</time>
      </trkpt>
      <trkpt lat="44.42168" lon="3.66887">
        <ele>1420.97</ele>
        <time>2013-06-15T10:50:45Z</time>
      </trkpt>
      <trkpt lat="44.42166" lon="3.66882">
        <ele>1420.97</ele>
        <time>2013-06-15T10:50:46Z</time>
      </trkpt>
      <trkpt lat="44.42162" lon="3.66877">
        <ele>1420.49</ele>
        <time>2013-06-15T10:50:47Z</time>
      </trkpt>
      <trkpt lat="44.42158" lon="3.66872">
        <ele>1420.49</ele>
        <time>2013-06-15T10:50:48Z</time>
      </trkpt>
      <trkpt lat="44.42154" lon="3.66867">
        <ele>1420.97</ele>
        <time>2013-06-15T10:50:49Z</time>
      </trkpt>
      <trkpt lat="44.4215" lon="3.66863">
        <ele>1420.97</ele>
        <time>2013-06-15T10:50:50Z</time>
      </trkpt>
      <trkpt lat="44.42146" lon="3.66858">
        <ele>1420.97</ele>
        <time>2013-06-15T10:50:51Z</time>
      </trkpt>
      <trkpt lat="44.42142" lon="3.66854">
        <ele>1420.97</ele>
        <time>2013-06-15T10:50:52Z</time>
      </trkpt>
      <trkpt lat="44.4212" lon="3.66832">
        <ele>1421.45</ele>
        <time>2013-06-15T10:50:58Z</time>
      </trkpt>
      <trkpt lat="44.42109" lon="3.66825">
        <ele>1421.93</ele>
        <time>2013-06-15T10:51:01Z</time>
      </trkpt>
      <trkpt lat="44.42089" lon="3.66815">
        <ele>1422.41</ele>
        <time>2013-06-15T10:51:06Z</time>
      </trkpt>
      <trkpt lat="44.42085" lon="3.66813">
        <ele>1422.41</ele>
        <time>2013-06-15T10:51:07Z</time>
      </trkpt>
      <trkpt lat="44.42076" lon="3.66807">
        <ele>1421.93</ele>
        <time>2013-06-15T10:51:09Z</time>
      </trkpt>
      <trkpt lat="44.42072" lon="3.66804">
        <ele>1422.89</ele>
        <time>2013-06-15T10:51:10Z</time>
      </trkpt>
      <trkpt lat="44.42069" lon="3.66801">
        <ele>1422.41</ele>
        <time>2013-06-15T10:51:11Z</time>
      </trkpt>
      <trkpt lat="44.42057" lon="3.66794">
        <ele>1423.37</ele>
        <time>2013-06-15T10:51:14Z</time>
      </trkpt>
      <trkpt lat="44.42036" lon="3.66783">
        <ele>1423.37</ele>
        <time>2013-06-15T10:51:19Z</time>
      </trkpt>
      <trkpt lat="44.42016" lon="3.66772">
        <ele>1423.37</ele>
        <time>2013-06-15T10:51:24Z</time>
      </trkpt>
      <trkpt lat="44.42012" lon="3.6677">
        <ele>1423.37</ele>
        <time>2013-06-15T10:51:25Z</time>
      </trkpt>
      <trkpt lat="44.42009" lon="3.66767">
        <ele>1424.33</ele>
        <time>2013-06-15T10:51:26Z</time>
      </trkpt>
      <trkpt lat="44.41974" lon="3.6675">
        <ele>1424.81</ele>
        <time>2013-06-15T10:51:35Z</time>
      </trkpt>
      <trkpt lat="44.41947" lon="3.66739">
        <ele>1425.29</ele>
        <time>2013-06-15T10:51:44Z</time>
      </trkpt>
      <trkpt lat="44.41947" lon="3.66738">
        <ele>1424.81</ele>
        <time>2013-06-15T10:52:03Z</time>
      </trkpt>
      <trkpt lat="44.41946" lon="3.66738">
        <ele>1425.29</ele>
        <time>2013-06-15T10:52:18Z</time>
      </trkpt>
      <trkpt lat="44.41945" lon="3.66737">
        <ele>1425.29</ele>
        <time>2013-06-15T10:52:19Z</time>
      </trkpt>
      <trkpt lat="44.41924" lon="3.6672">
        <ele>1424.81</ele>
        <time>2013-06-15T10:52:27Z</time>
      </trkpt>
      <trkpt lat="44.41921" lon="3.66717">
        <ele>1425.29</ele>
        <time>2013-06-15T10:52:28Z</time>
      </trkpt>
      <trkpt lat="44.41918" lon="3.66714">
        <ele>1425.29</ele>
        <time>2013-06-15T10:52:29Z</time>
      </trkpt>
      <trkpt lat="44.41914" lon="3.66711">
        <ele>1425.29</ele>
        <time>2013-06-15T10:52:30Z</time>
      </trkpt>
      <trkpt lat="44.41912" lon="3.66707">
        <ele>1425.77</ele>
        <time>2013-06-15T10:52:31Z</time>
      </trkpt>
      <trkpt lat="44.41909" lon="3.66704">
        <ele>1425.77</ele>
        <time>2013-06-15T10:52:32Z</time>
      </trkpt>
      <trkpt lat="44.41907" lon="3.667">
        <ele>1425.29</ele>
        <time>2013-06-15T10:52:33Z</time>
      </trkpt>
      <trkpt lat="44.41905" lon="3.66695">
        <ele>1425.77</ele>
        <time>2013-06-15T10:52:34Z</time>
      </trkpt>
      <trkpt lat="44.41903" lon="3.66691">
        <ele>1426.25</ele>
        <time>2013-06-15T10:52:35Z</time>
      </trkpt>
      <trkpt lat="44.419" lon="3.66687">
        <ele>1426.25</ele>
        <time>2013-06-15T10:52:36Z</time>
      </trkpt>
      <trkpt lat="44.41891" lon="3.66666">
        <ele>1426.25</ele>
        <time>2013-06-15T10:52:41Z</time>
      </trkpt>
      <trkpt lat="44.41889" lon="3.66661">
        <ele>1427.21</ele>
        <time>2013-06-15T10:52:42Z</time>
      </trkpt>
      <trkpt lat="44.41887" lon="3.66656">
        <ele>1427.21</ele>
        <time>2013-06-15T10:52:43Z</time>
      </trkpt>
      <trkpt lat="44.41885" lon="3.66651">
        <ele>1426.73</ele>
        <time>2013-06-15T10:52:44Z</time>
      </trkpt>
      <trkpt lat="44.41882" lon="3.66646">
        <ele>1427.21</ele>
        <time>2013-06-15T10:52:45Z</time>
      </trkpt>
      <trkpt lat="44.41871" lon="3.66607">
        <ele>1427.21</ele>
        <time>2013-06-15T10:52:53Z</time>
      </trkpt>
      <trkpt lat="44.41868" lon="3.66553">
        <ele>1426.73</ele>
        <time>2013-06-15T10:53:03Z</time>
      </trkpt>
      <trkpt lat="44.41869" lon="3.66512">
        <ele>1426.25</ele>
        <time>2013-06-15T10:53:10Z</time>
      </trkpt>
      <trkpt lat="44.4187" lon="3.66506">
        <ele>1425.77</ele>
        <time>2013-06-15T10:53:11Z</time>
      </trkpt>
      <trkpt lat="44.41872" lon="3.665">
        <ele>1425.77</ele>
        <time>2013-06-15T10:53:12Z</time>
      </trkpt>
      <trkpt lat="44.41873" lon="3.66495">
        <ele>1425.77</ele>
        <time>2013-06-15T10:53:13Z</time>
      </trkpt>
      <trkpt lat="44.41874" lon="3.66489">
        <ele>1426.25</ele>
        <time>2013-06-15T10:53:14Z</time>
      </trkpt>
      <trkpt lat="44.41874" lon="3.66484">
        <ele>1425.77</ele>
        <time>2013-06-15T10:53:15Z</time>
      </trkpt>
      <trkpt lat="44.41874" lon="3.66479">
        <ele>1426.25</ele>
        <time>2013-06-15T10:53:16Z</time>
      </trkpt>
      <trkpt lat="44.41875" lon="3.66474">
        <ele>1428.18</ele>
        <time>2013-06-15T10:53:17Z</time>
      </trkpt>
      <trkpt lat="44.41876" lon="3.6647">
        <ele>1425.77</ele>
        <time>2013-06-15T10:53:18Z</time>
      </trkpt>
      <trkpt lat="44.41884" lon="3.66423">
        <ele>1425.29</ele>
        <time>2013-06-15T10:53:27Z</time>
      </trkpt>
      <trkpt lat="44.41887" lon="3.6641">
        <ele>1425.29</ele>
        <time>2013-06-15T10:53:29Z</time>
      </trkpt>
      <trkpt lat="44.41908" lon="3.66332">
        <ele>1423.37</ele>
        <time>2013-06-15T10:53:41Z</time>
      </trkpt>
      <trkpt lat="44.41933" lon="3.66251">
        <ele>1421.93</ele>
        <time>2013-06-15T10:53:52Z</time>
      </trkpt>
      <trkpt lat="44.41937" lon="3.66235">
        <ele>1421.45</ele>
        <time>2013-06-15T10:53:54Z</time>
      </trkpt>
      <trkpt lat="44.41943" lon="3.66211">
        <ele>1416.64</ele>
        <time>2013-06-15T10:53:57Z</time>
      </trkpt>
      <trkpt lat="44.41945" lon="3.66204">
        <ele>1420.97</ele>
        <time>2013-06-15T10:53:58Z</time>
      </trkpt>
      <trkpt lat="44.4196" lon="3.66155">
        <ele>1419.52</ele>
        <time>2013-06-15T10:54:04Z</time>
      </trkpt>
      <trkpt lat="44.41971" lon="3.66115">
        <ele>1418.56</ele>
        <time>2013-06-15T10:54:09Z</time>
      </trkpt>
      <trkpt lat="44.41974" lon="3.66098">
        <ele>1418.08</ele>
        <time>2013-06-15T10:54:11Z</time>
      </trkpt>
      <trkpt lat="44.41975" lon="3.6609">
        <ele>1418.08</ele>
        <time>2013-06-15T10:54:12Z</time>
      </trkpt>
      <trkpt lat="44.41977" lon="3.66082">
        <ele>1417.6</ele>
        <time>2013-06-15T10:54:13Z</time>
      </trkpt>
      <trkpt lat="44.41979" lon="3.66074">
        <ele>1417.12</ele>
        <time>2013-06-15T10:54:14Z</time>
      </trkpt>
      <trkpt lat="44.41981" lon="3.66066">
        <ele>1417.12</ele>
        <time>2013-06-15T10:54:15Z</time>
      </trkpt>
      <trkpt lat="44.41988" lon="3.66042">
        <ele>1416.16</ele>
        <time>2013-06-15T10:54:18Z</time>
      </trkpt>
      <trkpt lat="44.41992" lon="3.66034">
        <ele>1415.2</ele>
        <time>2013-06-15T10:54:19Z</time>
      </trkpt>
      <trkpt lat="44.41995" lon="3.66026">
        <ele>1415.68</ele>
        <time>2013-06-15T10:54:20Z</time>
      </trkpt>
      <trkpt lat="44.42009" lon="3.65989">
        <ele>1414.24</ele>
        <time>2013-06-15T10:54:25Z</time>
      </trkpt>
      <trkpt lat="44.42014" lon="3.65967">
        <ele>1414.72</ele>
        <time>2013-06-15T10:54:28Z</time>
      </trkpt>
      <trkpt lat="44.42017" lon="3.65961">
        <ele>1414.24</ele>
        <time>2013-06-15T10:54:29Z</time>
      </trkpt>
      <trkpt lat="44.42019" lon="3.65955">
        <ele>1414.24</ele>
        <time>2013-06-15T10:54:30Z</time>
      </trkpt>
      <trkpt lat="44.4202" lon="3.65949">
        <ele>1414.24</ele>
        <time>2013-06-15T10:54:31Z</time>
      </trkpt>
      <trkpt lat="44.4202" lon="3.65943">
        <ele>1414.24</ele>
        <time>2013-06-15T10:54:32Z</time>
      </trkpt>
      <trkpt lat="44.4202" lon="3.65936">
        <ele>1413.76</ele>
        <time>2013-06-15T10:54:33Z</time>
      </trkpt>
      <trkpt lat="44.4202" lon="3.6593">
        <ele>1413.28</ele>
        <time>2013-06-15T10:54:34Z</time>
      </trkpt>
      <trkpt lat="44.42019" lon="3.65923">
        <ele>1412.79</ele>
        <time>2013-06-15T10:54:35Z</time>
      </trkpt>
      <trkpt lat="44.4202" lon="3.65916">
        <ele>1412.79</ele>
        <time>2013-06-15T10:54:36Z</time>
      </trkpt>
      <trkpt lat="44.42022" lon="3.6591">
        <ele>1412.31</ele>
        <time>2013-06-15T10:54:37Z</time>
      </trkpt>
      <trkpt lat="44.42023" lon="3.65904">
        <ele>1411.83</ele>
        <time>2013-06-15T10:54:38Z</time>
      </trkpt>
      <trkpt lat="44.42024" lon="3.65897">
        <ele>1412.31</ele>
        <time>2013-06-15T10:54:39Z</time>
      </trkpt>
      <trkpt lat="44.42025" lon="3.65882">
        <ele>1411.35</ele>
        <time>2013-06-15T10:54:41Z</time>
      </trkpt>
      <trkpt lat="44.42024" lon="3.65874">
        <ele>1410.87</ele>
        <time>2013-06-15T10:54:42Z</time>
      </trkpt>
      <trkpt lat="44.42024" lon="3.65867">
        <ele>1410.39</ele>
        <time>2013-06-15T10:54:43Z</time>
      </trkpt>
      <trkpt lat="44.42025" lon="3.6586">
        <ele>1410.39</ele>
        <time>2013-06-15T10:54:44Z</time>
      </trkpt>
      <trkpt lat="44.42026" lon="3.65852">
        <ele>1410.39</ele>
        <time>2013-06-15T10:54:45Z</time>
      </trkpt>
      <trkpt lat="44.42026" lon="3.65845">
        <ele>1409.91</ele>
        <time>2013-06-15T10:54:46Z</time>
      </trkpt>
      <trkpt lat="44.42025" lon="3.65836">
        <ele>1409.43</ele>
        <time>2013-06-15T10:54:47Z</time>
      </trkpt>
      <trkpt lat="44.42025" lon="3.65828">
        <ele>1408.47</ele>
        <time>2013-06-15T10:54:48Z</time>
      </trkpt>
      <trkpt lat="44.42026" lon="3.65766">
        <ele>1407.51</ele>
        <time>2013-06-15T10:54:56Z</time>
      </trkpt>
      <trkpt lat="44.42027" lon="3.65759">
        <ele>1407.51</ele>
        <time>2013-06-15T10:54:57Z</time>
      </trkpt>
      <trkpt lat="44.42026" lon="3.65752">
        <ele>1407.03</ele>
        <time>2013-06-15T10:54:58Z</time>
      </trkpt>
      <trkpt lat="44.42026" lon="3.65747">
        <ele>1407.51</ele>
        <time>2013-06-15T10:54:59Z</time>
      </trkpt>
      <trkpt lat="44.42026" lon="3.65745">
        <ele>1407.51</ele>
        <time>2013-06-15T10:55:00Z</time>
      </trkpt>
      <trkpt lat="44.42026" lon="3.65743">
        <ele>1407.99</ele>
        <time>2013-06-15T10:55:01Z</time>
      </trkpt>
      <trkpt lat="44.42024" lon="3.65741">
        <ele>1407.99</ele>
        <time>2013-06-15T10:55:02Z</time>
      </trkpt>
      <trkpt lat="44.42023" lon="3.6574">
        <ele>1407.51</ele>
        <time>2013-06-15T10:55:03Z</time>
      </trkpt>
      <trkpt lat="44.42022" lon="3.65737">
        <ele>1407.99</ele>
        <time>2013-06-15T10:55:04Z</time>
      </trkpt>
      <trkpt lat="44.42022" lon="3.65735">
        <ele>1407.51</ele>
        <time>2013-06-15T10:55:05Z</time>
      </trkpt>
      <trkpt lat="44.42022" lon="3.65733">
        <ele>1407.51</ele>
        <time>2013-06-15T10:55:06Z</time>
      </trkpt>
      <trkpt lat="44.42022" lon="3.6573">
        <ele>1407.51</ele>
        <time>2013-06-15T10:55:07Z</time>
      </trkpt>
      <trkpt lat="44.42022" lon="3.65728">
        <ele>1407.51</ele>
        <time>2013-06-15T10:55:08Z</time>
      </trkpt>
      <trkpt lat="44.42022" lon="3.65726">
        <ele>1407.51</ele>
        <time>2013-06-15T10:55:09Z</time>
      </trkpt>
      <trkpt lat="44.42023" lon="3.65724">
        <ele>1407.51</ele>
        <time>2013-06-15T10:55:10Z</time>
      </trkpt>
      <trkpt lat="44.42024" lon="3.65721">
        <ele>1407.51</ele>
        <time>2013-06-15T10:55:11Z</time>
      </trkpt>
      <trkpt lat="44.42025" lon="3.65718">
        <ele>1407.03</ele>
        <time>2013-06-15T10:55:12Z</time>
      </trkpt>
      <trkpt lat="44.42026" lon="3.65715">
        <ele>1400.78</ele>
        <time>2013-06-15T10:55:13Z</time>
      </trkpt>
      <trkpt lat="44.42027" lon="3.65712">
        <ele>1410.39</ele>
        <time>2013-06-15T10:55:14Z</time>
      </trkpt>
      <trkpt lat="44.42028" lon="3.65709">
        <ele>1410.39</ele>
        <time>2013-06-15T10:55:15Z</time>
      </trkpt>
      <trkpt lat="44.42029" lon="3.65706">
        <ele>1405.58</ele>
        <time>2013-06-15T10:55:16Z</time>
      </trkpt>
      <trkpt lat="44.4203" lon="3.65703">
        <ele>1408.47</ele>
        <time>2013-06-15T10:55:17Z</time>
      </trkpt>
      <trkpt lat="44.4203" lon="3.657">
        <ele>1414.72</ele>
        <time>2013-06-15T10:55:18Z</time>
      </trkpt>
      <trkpt lat="44.42032" lon="3.65694">
        <ele>1408.95</ele>
        <time>2013-06-15T10:55:20Z</time>
      </trkpt>
      <trkpt lat="44.42032" lon="3.65691">
        <ele>1405.58</ele>
        <time>2013-06-15T10:55:21Z</time>
      </trkpt>
      <trkpt lat="44.42033" lon="3.65687">
        <ele>1409.43</ele>
        <time>2013-06-15T10:55:22Z</time>
      </trkpt>
      <trkpt lat="44.42035" lon="3.65677">
        <ele>1399.82</ele>
        <time>2013-06-15T10:55:25Z</time>
      </trkpt>
      <trkpt lat="44.42036" lon="3.65674">
        <ele>1408.95</ele>
        <time>2013-06-15T10:55:26Z</time>
      </trkpt>
      <trkpt lat="44.42055" lon="3.65645">
        <ele>1407.51</ele>
        <time>2013-06-15T10:55:36Z</time>
      </trkpt>
      <trkpt lat="44.42087" lon="3.656">
        <ele>1407.99</ele>
        <time>2013-06-15T10:55:48Z</time>
      </trkpt>
      <trkpt lat="44.4209" lon="3.65596">
        <ele>1407.51</ele>
        <time>2013-06-15T10:55:49Z</time>
      </trkpt>
      <trkpt lat="44.42093" lon="3.65592">
        <ele>1407.99</ele>
        <time>2013-06-15T10:55:50Z</time>
      </trkpt>
      <trkpt lat="44.421" lon="3.65584">
        <ele>1407.51</ele>
        <time>2013-06-15T10:55:52Z</time>
      </trkpt>
      <trkpt lat="44.42138" lon="3.65525">
        <ele>1407.51</ele>
        <time>2013-06-15T10:56:04Z</time>
      </trkpt>
      <trkpt lat="44.42145" lon="3.65515">
        <ele>1407.51</ele>
        <time>2013-06-15T10:56:06Z</time>
      </trkpt>
      <trkpt lat="44.42185" lon="3.65456">
        <ele>1406.07</ele>
        <time>2013-06-15T10:56:17Z</time>
      </trkpt>
      <trkpt lat="44.42225" lon="3.65389">
        <ele>1405.1</ele>
        <time>2013-06-15T10:56:28Z</time>
      </trkpt>
      <trkpt lat="44.42239" lon="3.65364">
        <ele>1405.1</ele>
        <time>2013-06-15T10:56:32Z</time>
      </trkpt>
      <trkpt lat="44.42242" lon="3.65357">
        <ele>1404.14</ele>
        <time>2013-06-15T10:56:33Z</time>
      </trkpt>
      <trkpt lat="44.42251" lon="3.65336">
        <ele>1403.18</ele>
        <time>2013-06-15T10:56:36Z</time>
      </trkpt>
      <trkpt lat="44.42254" lon="3.65328">
        <ele>1402.7</ele>
        <time>2013-06-15T10:56:37Z</time>
      </trkpt>
      <trkpt lat="44.42257" lon="3.65321">
        <ele>1403.18</ele>
        <time>2013-06-15T10:56:38Z</time>
      </trkpt>
      <trkpt lat="44.42259" lon="3.65313">
        <ele>1401.74</ele>
        <time>2013-06-15T10:56:39Z</time>
      </trkpt>
      <trkpt lat="44.42261" lon="3.65305">
        <ele>1402.22</ele>
        <time>2013-06-15T10:56:40Z</time>
      </trkpt>
      <trkpt lat="44.42263" lon="3.65297">
        <ele>1401.74</ele>
        <time>2013-06-15T10:56:41Z</time>
      </trkpt>
      <trkpt lat="44.42273" lon="3.65259">
        <ele>1400.78</ele>
        <time>2013-06-15T10:56:48Z</time>
      </trkpt>
      <trkpt lat="44.42275" lon="3.65256">
        <ele>1401.74</ele>
        <time>2013-06-15T10:56:49Z</time>
      </trkpt>
      <trkpt lat="44.42278" lon="3.65254">
        <ele>1401.26</ele>
        <time>2013-06-15T10:56:50Z</time>
      </trkpt>
      <trkpt lat="44.42281" lon="3.65251">
        <ele>1400.78</ele>
        <time>2013-06-15T10:56:52Z</time>
      </trkpt>
      <trkpt lat="44.42282" lon="3.65249">
        <ele>1400.78</ele>
        <time>2013-06-15T10:56:53Z</time>
      </trkpt>
      <trkpt lat="44.42282" lon="3.65248">
        <ele>1399.82</ele>
        <time>2013-06-15T10:56:59Z</time>
      </trkpt>
      <trkpt lat="44.4228" lon="3.65244">
        <ele>1400.3</ele>
        <time>2013-06-15T10:57:05Z</time>
      </trkpt>
      <trkpt lat="44.42278" lon="3.6524">
        <ele>1400.78</ele>
        <time>2013-06-15T10:57:07Z</time>
      </trkpt>
      <trkpt lat="44.42277" lon="3.65236">
        <ele>1400.78</ele>
        <time>2013-06-15T10:57:09Z</time>
      </trkpt>
      <trkpt lat="44.42277" lon="3.65234">
        <ele>1400.78</ele>
        <time>2013-06-15T10:57:10Z</time>
      </trkpt>
      <trkpt lat="44.42278" lon="3.65232">
        <ele>1400.78</ele>
        <time>2013-06-15T10:57:11Z</time>
      </trkpt>
      <trkpt lat="44.42278" lon="3.6523">
        <ele>1400.3</ele>
        <time>2013-06-15T10:57:12Z</time>
      </trkpt>
      <trkpt lat="44.42279" lon="3.65228">
        <ele>1399.82</ele>
        <time>2013-06-15T10:57:13Z</time>
      </trkpt>
      <trkpt lat="44.42279" lon="3.65225">
        <ele>1400.78</ele>
        <time>2013-06-15T10:57:23Z</time>
      </trkpt>
      <trkpt lat="44.42279" lon="3.65227">
        <ele>1400.78</ele>
        <time>2013-06-15T10:57:36Z</time>
      </trkpt>
      <trkpt lat="44.42279" lon="3.65241">
        <ele>1400.78</ele>
        <time>2013-06-15T10:57:42Z</time>
      </trkpt>
      <trkpt lat="44.4228" lon="3.65243">
        <ele>1400.78</ele>
        <time>2013-06-15T10:57:43Z</time>
      </trkpt>
      <trkpt lat="44.42282" lon="3.65245">
        <ele>1400.3</ele>
        <time>2013-06-15T10:57:44Z</time>
      </trkpt>
      <trkpt lat="44.42283" lon="3.65248">
        <ele>1400.78</ele>
        <time>2013-06-15T10:57:45Z</time>
      </trkpt>
      <trkpt lat="44.42284" lon="3.65252">
        <ele>1399.82</ele>
        <time>2013-06-15T10:57:46Z</time>
      </trkpt>
      <trkpt lat="44.42295" lon="3.65273">
        <ele>1397.41</ele>
        <time>2013-06-15T10:57:51Z</time>
      </trkpt>
      <trkpt lat="44.42298" lon="3.65279">
        <ele>1397.89</ele>
        <time>2013-06-15T10:57:52Z</time>
      </trkpt>
      <trkpt lat="44.42315" lon="3.65315">
        <ele>1394.53</ele>
        <time>2013-06-15T10:57:57Z</time>
      </trkpt>
      <trkpt lat="44.42325" lon="3.65335">
        <ele>1393.57</ele>
        <time>2013-06-15T10:58:00Z</time>
      </trkpt>
      <trkpt lat="44.42328" lon="3.65339">
        <ele>1393.09</ele>
        <time>2013-06-15T10:58:01Z</time>
      </trkpt>
      <trkpt lat="44.42331" lon="3.6534">
        <ele>1392.61</ele>
        <time>2013-06-15T10:58:02Z</time>
      </trkpt>
      <trkpt lat="44.42335" lon="3.65339">
        <ele>1392.13</ele>
        <time>2013-06-15T10:58:03Z</time>
      </trkpt>
      <trkpt lat="44.42339" lon="3.65336">
        <ele>1391.65</ele>
        <time>2013-06-15T10:58:04Z</time>
      </trkpt>
      <trkpt lat="44.42353" lon="3.65328">
        <ele>1390.2</ele>
        <time>2013-06-15T10:58:07Z</time>
      </trkpt>
      <trkpt lat="44.42358" lon="3.65324">
        <ele>1390.2</ele>
        <time>2013-06-15T10:58:08Z</time>
      </trkpt>
      <trkpt lat="44.42361" lon="3.6532">
        <ele>1389.72</ele>
        <time>2013-06-15T10:58:09Z</time>
      </trkpt>
      <trkpt lat="44.42365" lon="3.65314">
        <ele>1389.24</ele>
        <time>2013-06-15T10:58:10Z</time>
      </trkpt>
      <trkpt lat="44.42368" lon="3.65308">
        <ele>1389.24</ele>
        <time>2013-06-15T10:58:11Z</time>
      </trkpt>
      <trkpt lat="44.42376" lon="3.65293">
        <ele>1387.8</ele>
        <time>2013-06-15T10:58:13Z</time>
      </trkpt>
      <trkpt lat="44.42395" lon="3.65251">
        <ele>1375.78</ele>
        <time>2013-06-15T10:58:18Z</time>
      </trkpt>
      <trkpt lat="44.42399" lon="3.65242">
        <ele>1386.36</ele>
        <time>2013-06-15T10:58:19Z</time>
      </trkpt>
      <trkpt lat="44.42419" lon="3.65177">
        <ele>1383.96</ele>
        <time>2013-06-15T10:58:26Z</time>
      </trkpt>
      <trkpt lat="44.4245" lon="3.65073">
        <ele>1381.55</ele>
        <time>2013-06-15T10:58:36Z</time>
      </trkpt>
      <trkpt lat="44.42469" lon="3.65004">
        <ele>1379.15</ele>
        <time>2013-06-15T10:58:43Z</time>
      </trkpt>
      <trkpt lat="44.42473" lon="3.64996">
        <ele>1379.15</ele>
        <time>2013-06-15T10:58:44Z</time>
      </trkpt>
      <trkpt lat="44.42505" lon="3.64945">
        <ele>1375.78</ele>
        <time>2013-06-15T10:58:50Z</time>
      </trkpt>
      <trkpt lat="44.4251" lon="3.64937">
        <ele>1374.82</ele>
        <time>2013-06-15T10:58:51Z</time>
      </trkpt>
      <trkpt lat="44.42515" lon="3.64927">
        <ele>1374.82</ele>
        <time>2013-06-15T10:58:52Z</time>
      </trkpt>
      <trkpt lat="44.42538" lon="3.64876">
        <ele>1370.98</ele>
        <time>2013-06-15T10:58:57Z</time>
      </trkpt>
      <trkpt lat="44.42542" lon="3.64865">
        <ele>1371.46</ele>
        <time>2013-06-15T10:58:58Z</time>
      </trkpt>
      <trkpt lat="44.42564" lon="3.64813">
        <ele>1368.57</ele>
        <time>2013-06-15T10:59:03Z</time>
      </trkpt>
      <trkpt lat="44.42577" lon="3.64783">
        <ele>1366.65</ele>
        <time>2013-06-15T10:59:06Z</time>
      </trkpt>
      <trkpt lat="44.42586" lon="3.64762">
        <ele>1365.21</ele>
        <time>2013-06-15T10:59:08Z</time>
      </trkpt>
      <trkpt lat="44.42603" lon="3.6472">
        <ele>1362.33</ele>
        <time>2013-06-15T10:59:12Z</time>
      </trkpt>
      <trkpt lat="44.42615" lon="3.64688">
        <ele>1359.92</ele>
        <time>2013-06-15T10:59:15Z</time>
      </trkpt>
      <trkpt lat="44.42634" lon="3.64644">
        <ele>1356.08</ele>
        <time>2013-06-15T10:59:19Z</time>
      </trkpt>
      <trkpt lat="44.4265" lon="3.64607">
        <ele>1352.71</ele>
        <time>2013-06-15T10:59:22Z</time>
      </trkpt>
      <trkpt lat="44.42665" lon="3.64571">
        <ele>1351.27</ele>
        <time>2013-06-15T10:59:25Z</time>
      </trkpt>
      <trkpt lat="44.42678" lon="3.64537">
        <ele>1349.35</ele>
        <time>2013-06-15T10:59:28Z</time>
      </trkpt>
      <trkpt lat="44.42686" lon="3.64516">
        <ele>1346.94</ele>
        <time>2013-06-15T10:59:30Z</time>
      </trkpt>
      <trkpt lat="44.4269" lon="3.64505">
        <ele>1346.46</ele>
        <time>2013-06-15T10:59:31Z</time>
      </trkpt>
      <trkpt lat="44.42693" lon="3.64494">
        <ele>1345.5</ele>
        <time>2013-06-15T10:59:32Z</time>
      </trkpt>
      <trkpt lat="44.42696" lon="3.64481">
        <ele>1344.54</ele>
        <time>2013-06-15T10:59:33Z</time>
      </trkpt>
      <trkpt lat="44.42699" lon="3.64469">
        <ele>1343.58</ele>
        <time>2013-06-15T10:59:34Z</time>
      </trkpt>
      <trkpt lat="44.42717" lon="3.64419">
        <ele>1339.73</ele>
        <time>2013-06-15T10:59:38Z</time>
      </trkpt>
      <trkpt lat="44.42725" lon="3.64395">
        <ele>1338.29</ele>
        <time>2013-06-15T10:59:40Z</time>
      </trkpt>
      <trkpt lat="44.4273" lon="3.6438">
        <ele>1337.33</ele>
        <time>2013-06-15T10:59:42Z</time>
      </trkpt>
      <trkpt lat="44.4274" lon="3.64348">
        <ele>1335.89</ele>
        <time>2013-06-15T10:59:49Z</time>
      </trkpt>
      <trkpt lat="44.4274" lon="3.64348">
        <ele>1341.18</ele>
        <time>2013-06-15T10:59:55Z</time>
      </trkpt>
      <trkpt lat="44.4274" lon="3.64347">
        <ele>1335.89</ele>
        <time>2013-06-15T10:59:56Z</time>
      </trkpt>
      <trkpt lat="44.4274" lon="3.64347">
        <ele>1335.89</ele>
        <time>2013-06-15T10:59:57Z</time>
      </trkpt>
      <trkpt lat="44.4274" lon="3.64345">
        <ele>1334.93</ele>
        <time>2013-06-15T10:59:58Z</time>
      </trkpt>
      <trkpt lat="44.42741" lon="3.64339">
        <ele>1334.93</ele>
        <time>2013-06-15T11:00:05Z</time>
      </trkpt>
      <trkpt lat="44.42742" lon="3.64329">
        <ele>1334.45</ele>
        <time>2013-06-15T11:00:27Z</time>
      </trkpt>
      <trkpt lat="44.42748" lon="3.64291">
        <ele>1332.04</ele>
        <time>2013-06-15T11:00:33Z</time>
      </trkpt>
      <trkpt lat="44.42749" lon="3.64283">
        <ele>1332.04</ele>
        <time>2013-06-15T11:00:34Z</time>
      </trkpt>
      <trkpt lat="44.42751" lon="3.64275">
        <ele>1331.08</ele>
        <time>2013-06-15T11:00:35Z</time>
      </trkpt>
      <trkpt lat="44.42754" lon="3.64266">
        <ele>1330.6</ele>
        <time>2013-06-15T11:00:36Z</time>
      </trkpt>
      <trkpt lat="44.42756" lon="3.64257">
        <ele>1329.16</ele>
        <time>2013-06-15T11:00:37Z</time>
      </trkpt>
      <trkpt lat="44.42762" lon="3.64238">
        <ele>1328.2</ele>
        <time>2013-06-15T11:00:39Z</time>
      </trkpt>
      <trkpt lat="44.42767" lon="3.64218">
        <ele>1326.76</ele>
        <time>2013-06-15T11:00:41Z</time>
      </trkpt>
      <trkpt lat="44.42768" lon="3.64208">
        <ele>1325.8</ele>
        <time>2013-06-15T11:00:42Z</time>
      </trkpt>
      <trkpt lat="44.42769" lon="3.64197">
        <ele>1324.83</ele>
        <time>2013-06-15T11:00:43Z</time>
      </trkpt>
      <trkpt lat="44.42768" lon="3.64186">
        <ele>1324.83</ele>
        <time>2013-06-15T11:00:44Z</time>
      </trkpt>
      <trkpt lat="44.42767" lon="3.64174">
        <ele>1323.39</ele>
        <time>2013-06-15T11:00:45Z</time>
      </trkpt>
      <trkpt lat="44.42765" lon="3.64151">
        <ele>1321.95</ele>
        <time>2013-06-15T11:00:47Z</time>
      </trkpt>
      <trkpt lat="44.42759" lon="3.6411">
        <ele>1319.55</ele>
        <time>2013-06-15T11:00:51Z</time>
      </trkpt>
      <trkpt lat="44.42756" lon="3.64099">
        <ele>1318.59</ele>
        <time>2013-06-15T11:00:52Z</time>
      </trkpt>
      <trkpt lat="44.42754" lon="3.64088">
        <ele>1318.1</ele>
        <time>2013-06-15T11:00:53Z</time>
      </trkpt>
      <trkpt lat="44.42752" lon="3.64076">
        <ele>1316.66</ele>
        <time>2013-06-15T11:00:54Z</time>
      </trkpt>
      <trkpt lat="44.42749" lon="3.64065">
        <ele>1316.66</ele>
        <time>2013-06-15T11:00:55Z</time>
      </trkpt>
      <trkpt lat="44.42745" lon="3.64053">
        <ele>1315.7</ele>
        <time>2013-06-15T11:00:56Z</time>
      </trkpt>
      <trkpt lat="44.42741" lon="3.64043">
        <ele>1315.22</ele>
        <time>2013-06-15T11:00:57Z</time>
      </trkpt>
      <trkpt lat="44.42735" lon="3.64033">
        <ele>1315.22</ele>
        <time>2013-06-15T11:00:58Z</time>
      </trkpt>
      <trkpt lat="44.42729" lon="3.64024">
        <ele>1314.74</ele>
        <time>2013-06-15T11:00:59Z</time>
      </trkpt>
      <trkpt lat="44.42723" lon="3.64017">
        <ele>1315.22</ele>
        <time>2013-06-15T11:01:00Z</time>
      </trkpt>
      <trkpt lat="44.42718" lon="3.6401">
        <ele>1314.74</ele>
        <time>2013-06-15T11:01:01Z</time>
      </trkpt>
      <trkpt lat="44.42709" lon="3.64001">
        <ele>1314.74</ele>
        <time>2013-06-15T11:01:03Z</time>
      </trkpt>
      <trkpt lat="44.427" lon="3.63993">
        <ele>1314.74</ele>
        <time>2013-06-15T11:01:05Z</time>
      </trkpt>
      <trkpt lat="44.42697" lon="3.63989">
        <ele>1315.22</ele>
        <time>2013-06-15T11:01:06Z</time>
      </trkpt>
      <trkpt lat="44.42693" lon="3.63984">
        <ele>1314.74</ele>
        <time>2013-06-15T11:01:07Z</time>
      </trkpt>
      <trkpt lat="44.42689" lon="3.63979">
        <ele>1315.22</ele>
        <time>2013-06-15T11:01:08Z</time>
      </trkpt>
      <trkpt lat="44.42686" lon="3.63975">
        <ele>1314.74</ele>
        <time>2013-06-15T11:01:09Z</time>
      </trkpt>
      <trkpt lat="44.42682" lon="3.63971">
        <ele>1314.74</ele>
        <time>2013-06-15T11:01:10Z</time>
      </trkpt>
      <trkpt lat="44.42678" lon="3.63968">
        <ele>1315.22</ele>
        <time>2013-06-15T11:01:11Z</time>
      </trkpt>
      <trkpt lat="44.42654" lon="3.63933">
        <ele>1314.26</ele>
        <time>2013-06-15T11:01:19Z</time>
      </trkpt>
      <trkpt lat="44.42646" lon="3.63909">
        <ele>1311.38</ele>
        <time>2013-06-15T11:01:22Z</time>
      </trkpt>
      <trkpt lat="44.42643" lon="3.639">
        <ele>1310.41</ele>
        <time>2013-06-15T11:01:23Z</time>
      </trkpt>
      <trkpt lat="44.42642" lon="3.63889">
        <ele>1308.49</ele>
        <time>2013-06-15T11:01:24Z</time>
      </trkpt>
      <trkpt lat="44.4264" lon="3.63853">
        <ele>1305.13</ele>
        <time>2013-06-15T11:01:27Z</time>
      </trkpt>
      <trkpt lat="44.42636" lon="3.63832">
        <ele>1302.72</ele>
        <time>2013-06-15T11:01:29Z</time>
      </trkpt>
      <trkpt lat="44.42624" lon="3.638">
        <ele>1299.84</ele>
        <time>2013-06-15T11:01:32Z</time>
      </trkpt>
      <trkpt lat="44.42616" lon="3.6378">
        <ele>1298.4</ele>
        <time>2013-06-15T11:01:34Z</time>
      </trkpt>
      <trkpt lat="44.42614" lon="3.6377">
        <ele>1297.92</ele>
        <time>2013-06-15T11:01:35Z</time>
      </trkpt>
      <trkpt lat="44.42612" lon="3.63759">
        <ele>1296.48</ele>
        <time>2013-06-15T11:01:36Z</time>
      </trkpt>
      <trkpt lat="44.42609" lon="3.63735">
        <ele>1294.07</ele>
        <time>2013-06-15T11:01:38Z</time>
      </trkpt>
      <trkpt lat="44.42605" lon="3.63713">
        <ele>1291.19</ele>
        <time>2013-06-15T11:01:40Z</time>
      </trkpt>
      <trkpt lat="44.42601" lon="3.63694">
        <ele>1288.78</ele>
        <time>2013-06-15T11:01:42Z</time>
      </trkpt>
      <trkpt lat="44.42599" lon="3.63685">
        <ele>1288.78</ele>
        <time>2013-06-15T11:01:43Z</time>
      </trkpt>
      <trkpt lat="44.42598" lon="3.63676">
        <ele>1287.34</ele>
        <time>2013-06-15T11:01:44Z</time>
      </trkpt>
      <trkpt lat="44.42597" lon="3.63665">
        <ele>1286.86</ele>
        <time>2013-06-15T11:01:45Z</time>
      </trkpt>
      <trkpt lat="44.42597" lon="3.63654">
        <ele>1285.9</ele>
        <time>2013-06-15T11:01:46Z</time>
      </trkpt>
      <trkpt lat="44.42596" lon="3.63644">
        <ele>1284.94</ele>
        <time>2013-06-15T11:01:47Z</time>
      </trkpt>
      <trkpt lat="44.42597" lon="3.63634">
        <ele>1284.94</ele>
        <time>2013-06-15T11:01:48Z</time>
      </trkpt>
      <trkpt lat="44.42599" lon="3.63625">
        <ele>1284.94</ele>
        <time>2013-06-15T11:01:49Z</time>
      </trkpt>
      <trkpt lat="44.42601" lon="3.63616">
        <ele>1284.94</ele>
        <time>2013-06-15T11:01:50Z</time>
      </trkpt>
      <trkpt lat="44.42608" lon="3.63593">
        <ele>1285.9</ele>
        <time>2013-06-15T11:01:53Z</time>
      </trkpt>
      <trkpt lat="44.42615" lon="3.63567">
        <ele>1286.38</ele>
        <time>2013-06-15T11:01:59Z</time>
      </trkpt>
      <trkpt lat="44.42618" lon="3.63559">
        <ele>1287.82</ele>
        <time>2013-06-15T11:02:03Z</time>
      </trkpt>
      <trkpt lat="44.42619" lon="3.63557">
        <ele>1287.34</ele>
        <time>2013-06-15T11:02:04Z</time>
      </trkpt>
      <trkpt lat="44.4262" lon="3.63555">
        <ele>1287.34</ele>
        <time>2013-06-15T11:02:05Z</time>
      </trkpt>
      <trkpt lat="44.4262" lon="3.63552">
        <ele>1287.82</ele>
        <time>2013-06-15T11:02:06Z</time>
      </trkpt>
      <trkpt lat="44.4262" lon="3.6355">
        <ele>1287.34</ele>
        <time>2013-06-15T11:02:07Z</time>
      </trkpt>
      <trkpt lat="44.42621" lon="3.63547">
        <ele>1287.82</ele>
        <time>2013-06-15T11:02:08Z</time>
      </trkpt>
      <trkpt lat="44.42621" lon="3.63545">
        <ele>1287.82</ele>
        <time>2013-06-15T11:02:09Z</time>
      </trkpt>
      <trkpt lat="44.4262" lon="3.63543">
        <ele>1288.3</ele>
        <time>2013-06-15T11:02:10Z</time>
      </trkpt>
      <trkpt lat="44.4262" lon="3.63541">
        <ele>1287.82</ele>
        <time>2013-06-15T11:02:11Z</time>
      </trkpt>
      <trkpt lat="44.42619" lon="3.63539">
        <ele>1288.3</ele>
        <time>2013-06-15T11:02:12Z</time>
      </trkpt>
      <trkpt lat="44.42618" lon="3.63537">
        <ele>1288.3</ele>
        <time>2013-06-15T11:02:13Z</time>
      </trkpt>
      <trkpt lat="44.42617" lon="3.63534">
        <ele>1288.3</ele>
        <time>2013-06-15T11:02:14Z</time>
      </trkpt>
      <trkpt lat="44.42603" lon="3.63512">
        <ele>1287.34</ele>
        <time>2013-06-15T11:02:21Z</time>
      </trkpt>
      <trkpt lat="44.42597" lon="3.63509">
        <ele>1287.34</ele>
        <time>2013-06-15T11:02:29Z</time>
      </trkpt>
      <trkpt lat="44.42597" lon="3.63508">
        <ele>1286.86</ele>
        <time>2013-06-15T11:02:40Z</time>
      </trkpt>
      <trkpt lat="44.42598" lon="3.63508">
        <ele>1286.86</ele>
        <time>2013-06-15T11:02:42Z</time>
      </trkpt>
      <trkpt lat="44.42599" lon="3.63509">
        <ele>1286.86</ele>
        <time>2013-06-15T11:02:43Z</time>
      </trkpt>
      <trkpt lat="44.42601" lon="3.6351">
        <ele>1286.86</ele>
        <time>2013-06-15T11:02:44Z</time>
      </trkpt>
      <trkpt lat="44.42603" lon="3.63509">
        <ele>1287.34</ele>
        <time>2013-06-15T11:02:50Z</time>
      </trkpt>
      <trkpt lat="44.42603" lon="3.63507">
        <ele>1287.34</ele>
        <time>2013-06-15T11:02:56Z</time>
      </trkpt>
      <trkpt lat="44.42603" lon="3.63505">
        <ele>1286.86</ele>
        <time>2013-06-15T11:02:57Z</time>
      </trkpt>
      <trkpt lat="44.42602" lon="3.63503">
        <ele>1287.34</ele>
        <time>2013-06-15T11:02:58Z</time>
      </trkpt>
      <trkpt lat="44.42589" lon="3.63477">
        <ele>1290.23</ele>
        <time>2013-06-15T11:03:09Z</time>
      </trkpt>
      <trkpt lat="44.42576" lon="3.63455">
        <ele>1291.67</ele>
        <time>2013-06-15T11:03:19Z</time>
      </trkpt>
      <trkpt lat="44.42559" lon="3.63419">
        <ele>1293.59</ele>
        <time>2013-06-15T11:03:31Z</time>
      </trkpt>
      <trkpt lat="44.42552" lon="3.63377">
        <ele>1291.19</ele>
        <time>2013-06-15T11:03:39Z</time>
      </trkpt>
      <trkpt lat="44.42563" lon="3.63309">
        <ele>1289.75</ele>
        <time>2013-06-15T11:03:49Z</time>
      </trkpt>
      <trkpt lat="44.42587" lon="3.63227">
        <ele>1287.34</ele>
        <time>2013-06-15T11:04:00Z</time>
      </trkpt>
      <trkpt lat="44.42593" lon="3.63212">
        <ele>1287.34</ele>
        <time>2013-06-15T11:04:02Z</time>
      </trkpt>
      <trkpt lat="44.42612" lon="3.63182">
        <ele>1286.86</ele>
        <time>2013-06-15T11:04:07Z</time>
      </trkpt>
      <trkpt lat="44.42616" lon="3.63177">
        <ele>1286.86</ele>
        <time>2013-06-15T11:04:08Z</time>
      </trkpt>
      <trkpt lat="44.42673" lon="3.63125">
        <ele>1286.38</ele>
        <time>2013-06-15T11:04:20Z</time>
      </trkpt>
      <trkpt lat="44.42739" lon="3.63085">
        <ele>1285.9</ele>
        <time>2013-06-15T11:04:33Z</time>
      </trkpt>
      <trkpt lat="44.42791" lon="3.63044">
        <ele>1283.98</ele>
        <time>2013-06-15T11:04:43Z</time>
      </trkpt>
      <trkpt lat="44.42797" lon="3.63039">
        <ele>1283.5</ele>
        <time>2013-06-15T11:04:44Z</time>
      </trkpt>
      <trkpt lat="44.42821" lon="3.63014">
        <ele>1280.13</ele>
        <time>2013-06-15T11:04:48Z</time>
      </trkpt>
      <trkpt lat="44.42842" lon="3.62991">
        <ele>1278.21</ele>
        <time>2013-06-15T11:04:51Z</time>
      </trkpt>
      <trkpt lat="44.42871" lon="3.62957">
        <ele>1276.29</ele>
        <time>2013-06-15T11:04:55Z</time>
      </trkpt>
      <trkpt lat="44.42898" lon="3.62922">
        <ele>1274.36</ele>
        <time>2013-06-15T11:04:59Z</time>
      </trkpt>
      <trkpt lat="44.42906" lon="3.62915">
        <ele>1273.88</ele>
        <time>2013-06-15T11:05:00Z</time>
      </trkpt>
      <trkpt lat="44.42915" lon="3.6291">
        <ele>1272.92</ele>
        <time>2013-06-15T11:05:01Z</time>
      </trkpt>
      <trkpt lat="44.42942" lon="3.62896">
        <ele>1272.92</ele>
        <time>2013-06-15T11:05:04Z</time>
      </trkpt>
      <trkpt lat="44.43012" lon="3.62834">
        <ele>1271.48</ele>
        <time>2013-06-15T11:05:14Z</time>
      </trkpt>
      <trkpt lat="44.43018" lon="3.62826">
        <ele>1270.52</ele>
        <time>2013-06-15T11:05:15Z</time>
      </trkpt>
      <trkpt lat="44.43023" lon="3.62817">
        <ele>1270.52</ele>
        <time>2013-06-15T11:05:16Z</time>
      </trkpt>
      <trkpt lat="44.43036" lon="3.62787">
        <ele>1268.6</ele>
        <time>2013-06-15T11:05:19Z</time>
      </trkpt>
      <trkpt lat="44.43042" lon="3.6278">
        <ele>1268.6</ele>
        <time>2013-06-15T11:05:20Z</time>
      </trkpt>
      <trkpt lat="44.43089" lon="3.62744">
        <ele>1269.56</ele>
        <time>2013-06-15T11:05:28Z</time>
      </trkpt>
      <trkpt lat="44.43095" lon="3.62743">
        <ele>1269.08</ele>
        <time>2013-06-15T11:05:29Z</time>
      </trkpt>
      <trkpt lat="44.43128" lon="3.62739">
        <ele>1283.5</ele>
        <time>2013-06-15T11:05:35Z</time>
      </trkpt>
      <trkpt lat="44.43133" lon="3.62738">
        <ele>1268.6</ele>
        <time>2013-06-15T11:05:36Z</time>
      </trkpt>
      <trkpt lat="44.43137" lon="3.62736">
        <ele>1269.56</ele>
        <time>2013-06-15T11:05:37Z</time>
      </trkpt>
      <trkpt lat="44.4314" lon="3.62734">
        <ele>1269.08</ele>
        <time>2013-06-15T11:05:38Z</time>
      </trkpt>
      <trkpt lat="44.43144" lon="3.6273">
        <ele>1269.56</ele>
        <time>2013-06-15T11:05:39Z</time>
      </trkpt>
      <trkpt lat="44.43147" lon="3.62727">
        <ele>1268.6</ele>
        <time>2013-06-15T11:05:40Z</time>
      </trkpt>
      <trkpt lat="44.43176" lon="3.62711">
        <ele>1271</ele>
        <time>2013-06-15T11:05:50Z</time>
      </trkpt>
      <trkpt lat="44.43195" lon="3.62719">
        <ele>1274.36</ele>
        <time>2013-06-15T11:05:59Z</time>
      </trkpt>
      <trkpt lat="44.43201" lon="3.62721">
        <ele>1271.48</ele>
        <time>2013-06-15T11:06:02Z</time>
      </trkpt>
      <trkpt lat="44.43203" lon="3.62722">
        <ele>1274.85</ele>
        <time>2013-06-15T11:06:03Z</time>
      </trkpt>
      <trkpt lat="44.43229" lon="3.62728">
        <ele>1278.21</ele>
        <time>2013-06-15T11:06:16Z</time>
      </trkpt>
      <trkpt lat="44.4325" lon="3.62727">
        <ele>1281.09</ele>
        <time>2013-06-15T11:06:27Z</time>
      </trkpt>
      <trkpt lat="44.43271" lon="3.62726">
        <ele>1283.98</ele>
        <time>2013-06-15T11:06:39Z</time>
      </trkpt>
      <trkpt lat="44.43292" lon="3.62718">
        <ele>1285.9</ele>
        <time>2013-06-15T11:06:51Z</time>
      </trkpt>
      <trkpt lat="44.43314" lon="3.62705">
        <ele>1288.3</ele>
        <time>2013-06-15T11:07:02Z</time>
      </trkpt>
      <trkpt lat="44.43331" lon="3.62685">
        <ele>1288.78</ele>
        <time>2013-06-15T11:07:13Z</time>
      </trkpt>
      <trkpt lat="44.43345" lon="3.62643">
        <ele>1290.23</ele>
        <time>2013-06-15T11:07:26Z</time>
      </trkpt>
      <trkpt lat="44.43352" lon="3.62602">
        <ele>1289.27</ele>
        <time>2013-06-15T11:07:36Z</time>
      </trkpt>
      <trkpt lat="44.4335" lon="3.62596">
        <ele>1288.78</ele>
        <time>2013-06-15T11:07:37Z</time>
      </trkpt>
      <trkpt lat="44.43348" lon="3.6259">
        <ele>1288.78</ele>
        <time>2013-06-15T11:07:38Z</time>
      </trkpt>
      <trkpt lat="44.43346" lon="3.62584">
        <ele>1287.82</ele>
        <time>2013-06-15T11:07:39Z</time>
      </trkpt>
      <trkpt lat="44.43343" lon="3.62577">
        <ele>1287.34</ele>
        <time>2013-06-15T11:07:40Z</time>
      </trkpt>
      <trkpt lat="44.43329" lon="3.62548">
        <ele>1285.9</ele>
        <time>2013-06-15T11:07:44Z</time>
      </trkpt>
      <trkpt lat="44.43311" lon="3.62498">
        <ele>1284.94</ele>
        <time>2013-06-15T11:07:50Z</time>
      </trkpt>
      <trkpt lat="44.43306" lon="3.62468">
        <ele>1286.38</ele>
        <time>2013-06-15T11:07:54Z</time>
      </trkpt>
      <trkpt lat="44.43298" lon="3.62428">
        <ele>1287.34</ele>
        <time>2013-06-15T11:08:01Z</time>
      </trkpt>
      <trkpt lat="44.43297" lon="3.62423">
        <ele>1287.82</ele>
        <time>2013-06-15T11:08:02Z</time>
      </trkpt>
      <trkpt lat="44.43283" lon="3.62372">
        <ele>1289.27</ele>
        <time>2013-06-15T11:08:13Z</time>
      </trkpt>
      <trkpt lat="44.43272" lon="3.62331">
        <ele>1291.67</ele>
        <time>2013-06-15T11:08:23Z</time>
      </trkpt>
      <trkpt lat="44.43264" lon="3.62296">
        <ele>1293.11</ele>
        <time>2013-06-15T11:08:32Z</time>
      </trkpt>
      <trkpt lat="44.4325" lon="3.62258">
        <ele>1295.99</ele>
        <time>2013-06-15T11:08:43Z</time>
      </trkpt>
      <trkpt lat="44.43234" lon="3.62234">
        <ele>1298.88</ele>
        <time>2013-06-15T11:08:53Z</time>
      </trkpt>
      <trkpt lat="44.43229" lon="3.62197">
        <ele>1300.8</ele>
        <time>2013-06-15T11:09:03Z</time>
      </trkpt>
      <trkpt lat="44.4323" lon="3.62152">
        <ele>1301.76</ele>
        <time>2013-06-15T11:09:13Z</time>
      </trkpt>
      <trkpt lat="44.43227" lon="3.621">
        <ele>1303.69</ele>
        <time>2013-06-15T11:09:25Z</time>
      </trkpt>
      <trkpt lat="44.43224" lon="3.62043">
        <ele>1306.09</ele>
        <time>2013-06-15T11:09:38Z</time>
      </trkpt>
      <trkpt lat="44.43223" lon="3.61985">
        <ele>1308.01</ele>
        <time>2013-06-15T11:09:51Z</time>
      </trkpt>
      <trkpt lat="44.43224" lon="3.61976">
        <ele>1296.96</ele>
        <time>2013-06-15T11:09:53Z</time>
      </trkpt>
      <trkpt lat="44.43223" lon="3.61972">
        <ele>1308.49</ele>
        <time>2013-06-15T11:09:54Z</time>
      </trkpt>
      <trkpt lat="44.43224" lon="3.61943">
        <ele>1309.93</ele>
        <time>2013-06-15T11:10:01Z</time>
      </trkpt>
      <trkpt lat="44.4324" lon="3.61913">
        <ele>1311.86</ele>
        <time>2013-06-15T11:10:11Z</time>
      </trkpt>
      <trkpt lat="44.43265" lon="3.61894">
        <ele>1313.78</ele>
        <time>2013-06-15T11:10:22Z</time>
      </trkpt>
      <trkpt lat="44.43295" lon="3.61878">
        <ele>1315.7</ele>
        <time>2013-06-15T11:10:34Z</time>
      </trkpt>
      <trkpt lat="44.4332" lon="3.61867">
        <ele>1317.14</ele>
        <time>2013-06-15T11:10:44Z</time>
      </trkpt>
      <trkpt lat="44.43347" lon="3.61854">
        <ele>1319.07</ele>
        <time>2013-06-15T11:10:56Z</time>
      </trkpt>
      <trkpt lat="44.43369" lon="3.61846">
        <ele>1320.99</ele>
        <time>2013-06-15T11:11:05Z</time>
      </trkpt>
      <trkpt lat="44.4339" lon="3.61834">
        <ele>1322.91</ele>
        <time>2013-06-15T11:11:15Z</time>
      </trkpt>
      <trkpt lat="44.43416" lon="3.61823">
        <ele>1325.8</ele>
        <time>2013-06-15T11:11:27Z</time>
      </trkpt>
      <trkpt lat="44.43434" lon="3.61814">
        <ele>1327.24</ele>
        <time>2013-06-15T11:11:36Z</time>
      </trkpt>
      <trkpt lat="44.43453" lon="3.61806">
        <ele>1330.6</ele>
        <time>2013-06-15T11:11:45Z</time>
      </trkpt>
      <trkpt lat="44.43465" lon="3.61801">
        <ele>1332.04</ele>
        <time>2013-06-15T11:11:51Z</time>
      </trkpt>
      <trkpt lat="44.43488" lon="3.61792">
        <ele>1334.45</ele>
        <time>2013-06-15T11:12:03Z</time>
      </trkpt>
      <trkpt lat="44.43508" lon="3.61787">
        <ele>1336.85</ele>
        <time>2013-06-15T11:12:14Z</time>
      </trkpt>
      <trkpt lat="44.43514" lon="3.61786">
        <ele>1338.29</ele>
        <time>2013-06-15T11:12:17Z</time>
      </trkpt>
      <trkpt lat="44.43539" lon="3.61779">
        <ele>1341.66</ele>
        <time>2013-06-15T11:12:31Z</time>
      </trkpt>
      <trkpt lat="44.43561" lon="3.61765">
        <ele>1343.58</ele>
        <time>2013-06-15T11:12:43Z</time>
      </trkpt>
      <trkpt lat="44.4358" lon="3.61755">
        <ele>1345.5</ele>
        <time>2013-06-15T11:12:53Z</time>
      </trkpt>
      <trkpt lat="44.43602" lon="3.61749">
        <ele>1339.25</ele>
        <time>2013-06-15T11:13:03Z</time>
      </trkpt>
      <trkpt lat="44.43604" lon="3.6175">
        <ele>1347.91</ele>
        <time>2013-06-15T11:13:04Z</time>
      </trkpt>
      <trkpt lat="44.43608" lon="3.6175">
        <ele>1356.56</ele>
        <time>2013-06-15T11:13:06Z</time>
      </trkpt>
      <trkpt lat="44.4361" lon="3.61751">
        <ele>1347.91</ele>
        <time>2013-06-15T11:13:07Z</time>
      </trkpt>
      <trkpt lat="44.43612" lon="3.61751">
        <ele>1333.97</ele>
        <time>2013-06-15T11:13:08Z</time>
      </trkpt>
      <trkpt lat="44.43614" lon="3.61751">
        <ele>1352.71</ele>
        <time>2013-06-15T11:13:09Z</time>
      </trkpt>
      <trkpt lat="44.43616" lon="3.61752">
        <ele>1348.87</ele>
        <time>2013-06-15T11:13:10Z</time>
      </trkpt>
      <trkpt lat="44.4362" lon="3.61753">
        <ele>1366.17</ele>
        <time>2013-06-15T11:13:12Z</time>
      </trkpt>
      <trkpt lat="44.43622" lon="3.61753">
        <ele>1349.35</ele>
        <time>2013-06-15T11:13:13Z</time>
      </trkpt>
      <trkpt lat="44.4363" lon="3.61757">
        <ele>1337.33</ele>
        <time>2013-06-15T11:13:17Z</time>
      </trkpt>
      <trkpt lat="44.43632" lon="3.61757">
        <ele>1359.92</ele>
        <time>2013-06-15T11:13:18Z</time>
      </trkpt>
      <trkpt lat="44.43634" lon="3.61758">
        <ele>1350.79</ele>
        <time>2013-06-15T11:13:19Z</time>
      </trkpt>
      <trkpt lat="44.43642" lon="3.6176">
        <ele>1336.37</ele>
        <time>2013-06-15T11:13:23Z</time>
      </trkpt>
      <trkpt lat="44.43644" lon="3.61762">
        <ele>1353.19</ele>
        <time>2013-06-15T11:13:24Z</time>
      </trkpt>
      <trkpt lat="44.43646" lon="3.61763">
        <ele>1353.19</ele>
        <time>2013-06-15T11:13:25Z</time>
      </trkpt>
      <trkpt lat="44.43647" lon="3.61764">
        <ele>1363.77</ele>
        <time>2013-06-15T11:13:26Z</time>
      </trkpt>
      <trkpt lat="44.4365" lon="3.61765">
        <ele>1368.57</ele>
        <time>2013-06-15T11:13:27Z</time>
      </trkpt>
      <trkpt lat="44.43652" lon="3.61766">
        <ele>1363.77</ele>
        <time>2013-06-15T11:13:28Z</time>
      </trkpt>
      <trkpt lat="44.43654" lon="3.61768">
        <ele>1357.52</ele>
        <time>2013-06-15T11:13:29Z</time>
      </trkpt>
      <trkpt lat="44.43656" lon="3.61769">
        <ele>1370.02</ele>
        <time>2013-06-15T11:13:30Z</time>
      </trkpt>
      <trkpt lat="44.43658" lon="3.6177">
        <ele>1353.19</ele>
        <time>2013-06-15T11:13:31Z</time>
      </trkpt>
      <trkpt lat="44.4366" lon="3.61771">
        <ele>1353.19</ele>
        <time>2013-06-15T11:13:32Z</time>
      </trkpt>
      <trkpt lat="44.43685" lon="3.61776">
        <ele>1355.12</ele>
        <time>2013-06-15T11:13:44Z</time>
      </trkpt>
      <trkpt lat="44.43709" lon="3.61779">
        <ele>1358</ele>
        <time>2013-06-15T11:13:55Z</time>
      </trkpt>
      <trkpt lat="44.43711" lon="3.61779">
        <ele>1357.52</ele>
        <time>2013-06-15T11:13:56Z</time>
      </trkpt>
      <trkpt lat="44.43728" lon="3.61774">
        <ele>1360.4</ele>
        <time>2013-06-15T11:14:05Z</time>
      </trkpt>
      <trkpt lat="44.4373" lon="3.61773">
        <ele>1359.92</ele>
        <time>2013-06-15T11:14:06Z</time>
      </trkpt>
      <trkpt lat="44.43732" lon="3.61773">
        <ele>1359.92</ele>
        <time>2013-06-15T11:14:07Z</time>
      </trkpt>
      <trkpt lat="44.43734" lon="3.61773">
        <ele>1360.4</ele>
        <time>2013-06-15T11:14:08Z</time>
      </trkpt>
      <trkpt lat="44.43736" lon="3.61772">
        <ele>1360.4</ele>
        <time>2013-06-15T11:14:09Z</time>
      </trkpt>
      <trkpt lat="44.43753" lon="3.61772">
        <ele>1362.81</ele>
        <time>2013-06-15T11:14:18Z</time>
      </trkpt>
      <trkpt lat="44.43763" lon="3.61774">
        <ele>1363.77</ele>
        <time>2013-06-15T11:14:23Z</time>
      </trkpt>
      <trkpt lat="44.43782" lon="3.61773">
        <ele>1364.73</ele>
        <time>2013-06-15T11:14:33Z</time>
      </trkpt>
      <trkpt lat="44.43794" lon="3.61771">
        <ele>1366.17</ele>
        <time>2013-06-15T11:14:39Z</time>
      </trkpt>
      <trkpt lat="44.43818" lon="3.61771">
        <ele>1368.09</ele>
        <time>2013-06-15T11:14:49Z</time>
      </trkpt>
      <trkpt lat="44.43837" lon="3.61771">
        <ele>1369.05</ele>
        <time>2013-06-15T11:14:58Z</time>
      </trkpt>
      <trkpt lat="44.4386" lon="3.61776">
        <ele>1371.94</ele>
        <time>2013-06-15T11:15:09Z</time>
      </trkpt>
      <trkpt lat="44.43877" lon="3.61777">
        <ele>1373.38</ele>
        <time>2013-06-15T11:15:17Z</time>
      </trkpt>
      <trkpt lat="44.43902" lon="3.61786">
        <ele>1374.82</ele>
        <time>2013-06-15T11:15:29Z</time>
      </trkpt>
      <trkpt lat="44.43904" lon="3.61786">
        <ele>1374.82</ele>
        <time>2013-06-15T11:15:30Z</time>
      </trkpt>
      <trkpt lat="44.43907" lon="3.61787">
        <ele>1374.82</ele>
        <time>2013-06-15T11:15:31Z</time>
      </trkpt>
      <trkpt lat="44.43909" lon="3.61788">
        <ele>1375.3</ele>
        <time>2013-06-15T11:15:32Z</time>
      </trkpt>
      <trkpt lat="44.4391" lon="3.61789">
        <ele>1375.78</ele>
        <time>2013-06-15T11:15:33Z</time>
      </trkpt>
      <trkpt lat="44.43917" lon="3.61792">
        <ele>1375.78</ele>
        <time>2013-06-15T11:15:37Z</time>
      </trkpt>
      <trkpt lat="44.43918" lon="3.61793">
        <ele>1375.78</ele>
        <time>2013-06-15T11:15:38Z</time>
      </trkpt>
      <trkpt lat="44.4392" lon="3.61794">
        <ele>1376.75</ele>
        <time>2013-06-15T11:15:39Z</time>
      </trkpt>
      <trkpt lat="44.43921" lon="3.61795">
        <ele>1376.75</ele>
        <time>2013-06-15T11:15:40Z</time>
      </trkpt>
      <trkpt lat="44.43922" lon="3.61795">
        <ele>1377.23</ele>
        <time>2013-06-15T11:15:41Z</time>
      </trkpt>
      <trkpt lat="44.43924" lon="3.61796">
        <ele>1377.71</ele>
        <time>2013-06-15T11:15:42Z</time>
      </trkpt>
      <trkpt lat="44.43926" lon="3.61796">
        <ele>1377.23</ele>
        <time>2013-06-15T11:15:43Z</time>
      </trkpt>
      <trkpt lat="44.43927" lon="3.61797">
        <ele>1377.23</ele>
        <time>2013-06-15T11:15:44Z</time>
      </trkpt>
      <trkpt lat="44.43929" lon="3.61798">
        <ele>1377.71</ele>
        <time>2013-06-15T11:15:45Z</time>
      </trkpt>
      <trkpt lat="44.4393" lon="3.61799">
        <ele>1377.71</ele>
        <time>2013-06-15T11:15:46Z</time>
      </trkpt>
      <trkpt lat="44.43948" lon="3.61801">
        <ele>1379.63</ele>
        <time>2013-06-15T11:15:55Z</time>
      </trkpt>
      <trkpt lat="44.43968" lon="3.61804">
        <ele>1382.03</ele>
        <time>2013-06-15T11:16:05Z</time>
      </trkpt>
      <trkpt lat="44.43989" lon="3.61809">
        <ele>1384.44</ele>
        <time>2013-06-15T11:16:17Z</time>
      </trkpt>
      <trkpt lat="44.43997" lon="3.6181">
        <ele>1385.4</ele>
        <time>2013-06-15T11:16:22Z</time>
      </trkpt>
      <trkpt lat="44.43998" lon="3.61809">
        <ele>1385.4</ele>
        <time>2013-06-15T11:16:23Z</time>
      </trkpt>
      <trkpt lat="44.44" lon="3.6181">
        <ele>1385.4</ele>
        <time>2013-06-15T11:16:24Z</time>
      </trkpt>
      <trkpt lat="44.44001" lon="3.61809">
        <ele>1386.36</ele>
        <time>2013-06-15T11:16:25Z</time>
      </trkpt>
      <trkpt lat="44.44003" lon="3.61809">
        <ele>1386.36</ele>
        <time>2013-06-15T11:16:26Z</time>
      </trkpt>
      <trkpt lat="44.44004" lon="3.6181">
        <ele>1386.36</ele>
        <time>2013-06-15T11:16:27Z</time>
      </trkpt>
      <trkpt lat="44.44006" lon="3.61811">
        <ele>1386.36</ele>
        <time>2013-06-15T11:16:28Z</time>
      </trkpt>
      <trkpt lat="44.44022" lon="3.61819">
        <ele>1388.28</ele>
        <time>2013-06-15T11:16:38Z</time>
      </trkpt>
      <trkpt lat="44.44028" lon="3.61823">
        <ele>1389.72</ele>
        <time>2013-06-15T11:16:42Z</time>
      </trkpt>
      <trkpt lat="44.4404" lon="3.61831">
        <ele>1391.17</ele>
        <time>2013-06-15T11:16:50Z</time>
      </trkpt>
      <trkpt lat="44.44041" lon="3.61833">
        <ele>1391.65</ele>
        <time>2013-06-15T11:16:51Z</time>
      </trkpt>
      <trkpt lat="44.44043" lon="3.61834">
        <ele>1391.65</ele>
        <time>2013-06-15T11:16:52Z</time>
      </trkpt>
      <trkpt lat="44.44045" lon="3.61835">
        <ele>1392.13</ele>
        <time>2013-06-15T11:16:53Z</time>
      </trkpt>
      <trkpt lat="44.44047" lon="3.61836">
        <ele>1392.13</ele>
        <time>2013-06-15T11:16:54Z</time>
      </trkpt>
      <trkpt lat="44.44058" lon="3.61842">
        <ele>1393.57</ele>
        <time>2013-06-15T11:17:00Z</time>
      </trkpt>
      <trkpt lat="44.44059" lon="3.61842">
        <ele>1393.57</ele>
        <time>2013-06-15T11:17:01Z</time>
      </trkpt>
      <trkpt lat="44.44061" lon="3.61843">
        <ele>1394.05</ele>
        <time>2013-06-15T11:17:02Z</time>
      </trkpt>
      <trkpt lat="44.44063" lon="3.61844">
        <ele>1394.53</ele>
        <time>2013-06-15T11:17:03Z</time>
      </trkpt>
      <trkpt lat="44.44065" lon="3.61846">
        <ele>1395.01</ele>
        <time>2013-06-15T11:17:04Z</time>
      </trkpt>
      <trkpt lat="44.44067" lon="3.61848">
        <ele>1395.01</ele>
        <time>2013-06-15T11:17:05Z</time>
      </trkpt>
      <trkpt lat="44.44068" lon="3.61849">
        <ele>1395.01</ele>
        <time>2013-06-15T11:17:06Z</time>
      </trkpt>
      <trkpt lat="44.4407" lon="3.6185">
        <ele>1395.01</ele>
        <time>2013-06-15T11:17:07Z</time>
      </trkpt>
      <trkpt lat="44.44071" lon="3.6185">
        <ele>1395.49</ele>
        <time>2013-06-15T11:17:08Z</time>
      </trkpt>
      <trkpt lat="44.44073" lon="3.61851">
        <ele>1395.49</ele>
        <time>2013-06-15T11:17:09Z</time>
      </trkpt>
      <trkpt lat="44.44074" lon="3.61853">
        <ele>1395.97</ele>
        <time>2013-06-15T11:17:10Z</time>
      </trkpt>
      <trkpt lat="44.44075" lon="3.61854">
        <ele>1396.45</ele>
        <time>2013-06-15T11:17:11Z</time>
      </trkpt>
      <trkpt lat="44.44077" lon="3.61855">
        <ele>1396.45</ele>
        <time>2013-06-15T11:17:12Z</time>
      </trkpt>
      <trkpt lat="44.44079" lon="3.61856">
        <ele>1396.93</ele>
        <time>2013-06-15T11:17:13Z</time>
      </trkpt>
      <trkpt lat="44.44081" lon="3.61857">
        <ele>1396.93</ele>
        <time>2013-06-15T11:17:14Z</time>
      </trkpt>
      <trkpt lat="44.44082" lon="3.61858">
        <ele>1396.45</ele>
        <time>2013-06-15T11:17:15Z</time>
      </trkpt>
      <trkpt lat="44.44084" lon="3.61858">
        <ele>1396.45</ele>
        <time>2013-06-15T11:17:16Z</time>
      </trkpt>
      <trkpt lat="44.44086" lon="3.61859">
        <ele>1397.41</ele>
        <time>2013-06-15T11:17:17Z</time>
      </trkpt>
      <trkpt lat="44.44088" lon="3.6186">
        <ele>1396.93</ele>
        <time>2013-06-15T11:17:18Z</time>
      </trkpt>
      <trkpt lat="44.44089" lon="3.6186">
        <ele>1396.93</ele>
        <time>2013-06-15T11:17:19Z</time>
      </trkpt>
      <trkpt lat="44.44091" lon="3.61861">
        <ele>1397.89</ele>
        <time>2013-06-15T11:17:20Z</time>
      </trkpt>
      <trkpt lat="44.44093" lon="3.61863">
        <ele>1398.37</ele>
        <time>2013-06-15T11:17:21Z</time>
      </trkpt>
      <trkpt lat="44.44095" lon="3.61865">
        <ele>1398.37</ele>
        <time>2013-06-15T11:17:22Z</time>
      </trkpt>
      <trkpt lat="44.44097" lon="3.61867">
        <ele>1398.37</ele>
        <time>2013-06-15T11:17:23Z</time>
      </trkpt>
      <trkpt lat="44.44105" lon="3.61873">
        <ele>1401.74</ele>
        <time>2013-06-15T11:17:27Z</time>
      </trkpt>
      <trkpt lat="44.44126" lon="3.61885">
        <ele>1400.3</ele>
        <time>2013-06-15T11:17:37Z</time>
      </trkpt>
      <trkpt lat="44.44147" lon="3.61893">
        <ele>1401.74</ele>
        <time>2013-06-15T11:17:47Z</time>
      </trkpt>
      <trkpt lat="44.44175" lon="3.61896">
        <ele>1404.14</ele>
        <time>2013-06-15T11:17:59Z</time>
      </trkpt>
      <trkpt lat="44.44202" lon="3.61898">
        <ele>1405.1</ele>
        <time>2013-06-15T11:18:09Z</time>
      </trkpt>
      <trkpt lat="44.44236" lon="3.619">
        <ele>1407.03</ele>
        <time>2013-06-15T11:18:21Z</time>
      </trkpt>
      <trkpt lat="44.44262" lon="3.619">
        <ele>1408.47</ele>
        <time>2013-06-15T11:18:31Z</time>
      </trkpt>
      <trkpt lat="44.44283" lon="3.61897">
        <ele>1409.43</ele>
        <time>2013-06-15T11:18:39Z</time>
      </trkpt>
      <trkpt lat="44.44303" lon="3.6189">
        <ele>1411.35</ele>
        <time>2013-06-15T11:18:46Z</time>
      </trkpt>
      <trkpt lat="44.44328" lon="3.61873">
        <ele>1411.35</ele>
        <time>2013-06-15T11:18:54Z</time>
      </trkpt>
      <trkpt lat="44.44355" lon="3.61848">
        <ele>1410.87</ele>
        <time>2013-06-15T11:19:02Z</time>
      </trkpt>
      <trkpt lat="44.44387" lon="3.61818">
        <ele>1411.83</ele>
        <time>2013-06-15T11:19:12Z</time>
      </trkpt>
      <trkpt lat="44.4441" lon="3.61795">
        <ele>1413.28</ele>
        <time>2013-06-15T11:19:20Z</time>
      </trkpt>
      <trkpt lat="44.44439" lon="3.61767">
        <ele>1415.2</ele>
        <time>2013-06-15T11:19:31Z</time>
      </trkpt>
      <trkpt lat="44.44465" lon="3.61741">
        <ele>1416.16</ele>
        <time>2013-06-15T11:19:41Z</time>
      </trkpt>
      <trkpt lat="44.44502" lon="3.61703">
        <ele>1416.64</ele>
        <time>2013-06-15T11:19:54Z</time>
      </trkpt>
      <trkpt lat="44.44525" lon="3.61689">
        <ele>1416.16</ele>
        <time>2013-06-15T11:20:00Z</time>
      </trkpt>
      <trkpt lat="44.44529" lon="3.61687">
        <ele>1416.16</ele>
        <time>2013-06-15T11:20:01Z</time>
      </trkpt>
      <trkpt lat="44.44547" lon="3.61686">
        <ele>1415.68</ele>
        <time>2013-06-15T11:20:05Z</time>
      </trkpt>
      <trkpt lat="44.44552" lon="3.61687">
        <ele>1415.68</ele>
        <time>2013-06-15T11:20:06Z</time>
      </trkpt>
      <trkpt lat="44.44572" lon="3.61692">
        <ele>1415.2</ele>
        <time>2013-06-15T11:20:10Z</time>
      </trkpt>
      <trkpt lat="44.44582" lon="3.61694">
        <ele>1415.2</ele>
        <time>2013-06-15T11:20:12Z</time>
      </trkpt>
      <trkpt lat="44.44588" lon="3.61695">
        <ele>1415.2</ele>
        <time>2013-06-15T11:20:13Z</time>
      </trkpt>
      <trkpt lat="44.44593" lon="3.61696">
        <ele>1414.24</ele>
        <time>2013-06-15T11:20:14Z</time>
      </trkpt>
      <trkpt lat="44.44599" lon="3.61698">
        <ele>1414.24</ele>
        <time>2013-06-15T11:20:15Z</time>
      </trkpt>
      <trkpt lat="44.44605" lon="3.61699">
        <ele>1413.76</ele>
        <time>2013-06-15T11:20:16Z</time>
      </trkpt>
      <trkpt lat="44.44617" lon="3.61702">
        <ele>1413.76</ele>
        <time>2013-06-15T11:20:18Z</time>
      </trkpt>
      <trkpt lat="44.44683" lon="3.61697">
        <ele>1411.83</ele>
        <time>2013-06-15T11:20:28Z</time>
      </trkpt>
      <trkpt lat="44.44703" lon="3.61694">
        <ele>1410.39</ele>
        <time>2013-06-15T11:20:31Z</time>
      </trkpt>
      <trkpt lat="44.44779" lon="3.61682">
        <ele>1407.51</ele>
        <time>2013-06-15T11:20:42Z</time>
      </trkpt>
      <trkpt lat="44.44844" lon="3.61664">
        <ele>1404.14</ele>
        <time>2013-06-15T11:20:51Z</time>
      </trkpt>
      <trkpt lat="44.44851" lon="3.6166">
        <ele>1404.14</ele>
        <time>2013-06-15T11:20:52Z</time>
      </trkpt>
      <trkpt lat="44.44882" lon="3.61642">
        <ele>1400.78</ele>
        <time>2013-06-15T11:20:56Z</time>
      </trkpt>
      <trkpt lat="44.44924" lon="3.61613">
        <ele>1397.41</ele>
        <time>2013-06-15T11:21:01Z</time>
      </trkpt>
      <trkpt lat="44.44951" lon="3.61592">
        <ele>1395.49</ele>
        <time>2013-06-15T11:21:04Z</time>
      </trkpt>
      <trkpt lat="44.44968" lon="3.61578">
        <ele>1394.53</ele>
        <time>2013-06-15T11:21:06Z</time>
      </trkpt>
      <trkpt lat="44.45004" lon="3.61547">
        <ele>1391.17</ele>
        <time>2013-06-15T11:21:10Z</time>
      </trkpt>
      <trkpt lat="44.45089" lon="3.61487">
        <ele>1388.28</ele>
        <time>2013-06-15T11:21:20Z</time>
      </trkpt>
      <trkpt lat="44.45098" lon="3.61484">
        <ele>1387.32</ele>
        <time>2013-06-15T11:21:21Z</time>
      </trkpt>
      <trkpt lat="44.45133" lon="3.61479">
        <ele>1386.84</ele>
        <time>2013-06-15T11:21:25Z</time>
      </trkpt>
      <trkpt lat="44.45141" lon="3.6148">
        <ele>1386.84</ele>
        <time>2013-06-15T11:21:26Z</time>
      </trkpt>
      <trkpt lat="44.45149" lon="3.61482">
        <ele>1386.84</ele>
        <time>2013-06-15T11:21:27Z</time>
      </trkpt>
      <trkpt lat="44.45239" lon="3.61491">
        <ele>1384.44</ele>
        <time>2013-06-15T11:21:38Z</time>
      </trkpt>
      <trkpt lat="44.45301" lon="3.61472">
        <ele>1382.51</ele>
        <time>2013-06-15T11:21:46Z</time>
      </trkpt>
      <trkpt lat="44.45359" lon="3.61434">
        <ele>1379.15</ele>
        <time>2013-06-15T11:21:54Z</time>
      </trkpt>
      <trkpt lat="44.45367" lon="3.6143">
        <ele>1378.67</ele>
        <time>2013-06-15T11:21:55Z</time>
      </trkpt>
      <trkpt lat="44.45375" lon="3.61429">
        <ele>1378.19</ele>
        <time>2013-06-15T11:21:56Z</time>
      </trkpt>
      <trkpt lat="44.45383" lon="3.6143">
        <ele>1378.19</ele>
        <time>2013-06-15T11:21:57Z</time>
      </trkpt>
      <trkpt lat="44.45391" lon="3.61434">
        <ele>1378.19</ele>
        <time>2013-06-15T11:21:58Z</time>
      </trkpt>
      <trkpt lat="44.45398" lon="3.61439">
        <ele>1378.19</ele>
        <time>2013-06-15T11:21:59Z</time>
      </trkpt>
      <trkpt lat="44.45405" lon="3.61444">
        <ele>1377.71</ele>
        <time>2013-06-15T11:22:00Z</time>
      </trkpt>
      <trkpt lat="44.45428" lon="3.61462">
        <ele>1377.71</ele>
        <time>2013-06-15T11:22:04Z</time>
      </trkpt>
      <trkpt lat="44.45444" lon="3.61474">
        <ele>1378.19</ele>
        <time>2013-06-15T11:22:07Z</time>
      </trkpt>
      <trkpt lat="44.45448" lon="3.61479">
        <ele>1378.19</ele>
        <time>2013-06-15T11:22:08Z</time>
      </trkpt>
      <trkpt lat="44.45453" lon="3.61485">
        <ele>1378.67</ele>
        <time>2013-06-15T11:22:09Z</time>
      </trkpt>
      <trkpt lat="44.45456" lon="3.61492">
        <ele>1378.67</ele>
        <time>2013-06-15T11:22:10Z</time>
      </trkpt>
      <trkpt lat="44.45459" lon="3.61498">
        <ele>1378.67</ele>
        <time>2013-06-15T11:22:11Z</time>
      </trkpt>
      <trkpt lat="44.4546" lon="3.61505">
        <ele>1378.67</ele>
        <time>2013-06-15T11:22:12Z</time>
      </trkpt>
      <trkpt lat="44.4546" lon="3.61512">
        <ele>1379.15</ele>
        <time>2013-06-15T11:22:13Z</time>
      </trkpt>
      <trkpt lat="44.45458" lon="3.61519">
        <ele>1379.63</ele>
        <time>2013-06-15T11:22:14Z</time>
      </trkpt>
      <trkpt lat="44.45457" lon="3.61526">
        <ele>1379.63</ele>
        <time>2013-06-15T11:22:15Z</time>
      </trkpt>
      <trkpt lat="44.45455" lon="3.61532">
        <ele>1380.11</ele>
        <time>2013-06-15T11:22:16Z</time>
      </trkpt>
      <trkpt lat="44.45452" lon="3.61537">
        <ele>1380.11</ele>
        <time>2013-06-15T11:22:17Z</time>
      </trkpt>
      <trkpt lat="44.45449" lon="3.61541">
        <ele>1379.15</ele>
        <time>2013-06-15T11:22:18Z</time>
      </trkpt>
      <trkpt lat="44.45448" lon="3.61546">
        <ele>1380.11</ele>
        <time>2013-06-15T11:22:19Z</time>
      </trkpt>
      <trkpt lat="44.45447" lon="3.61551">
        <ele>1380.11</ele>
        <time>2013-06-15T11:22:20Z</time>
      </trkpt>
      <trkpt lat="44.45447" lon="3.61555">
        <ele>1379.63</ele>
        <time>2013-06-15T11:22:21Z</time>
      </trkpt>
      <trkpt lat="44.45447" lon="3.61558">
        <ele>1379.63</ele>
        <time>2013-06-15T11:22:26Z</time>
      </trkpt>
      <trkpt lat="44.45448" lon="3.61559">
        <ele>1379.63</ele>
        <time>2013-06-15T11:22:43Z</time>
      </trkpt>
      <trkpt lat="44.45448" lon="3.6156">
        <ele>1379.63</ele>
        <time>2013-06-15T11:23:06Z</time>
      </trkpt>
      <trkpt lat="44.45448" lon="3.61561">
        <ele>1380.11</ele>
        <time>2013-06-15T11:23:35Z</time>
      </trkpt>
      <trkpt lat="44.45448" lon="3.6156">
        <ele>1379.63</ele>
        <time>2013-06-15T11:24:01Z</time>
      </trkpt>
      <trkpt lat="44.45448" lon="3.61559">
        <ele>1380.59</ele>
        <time>2013-06-15T11:24:32Z</time>
      </trkpt>
      <trkpt lat="44.45448" lon="3.61557">
        <ele>1380.59</ele>
        <time>2013-06-15T11:25:01Z</time>
      </trkpt>
      <trkpt lat="44.45448" lon="3.61555">
        <ele>1380.11</ele>
        <time>2013-06-15T11:25:33Z</time>
      </trkpt>
      <trkpt lat="44.45448" lon="3.61555">
        <ele>1379.15</ele>
        <time>2013-06-15T11:26:01Z</time>
      </trkpt>
      <trkpt lat="44.45448" lon="3.61556">
        <ele>1379.15</ele>
        <time>2013-06-15T11:26:26Z</time>
      </trkpt>
      <trkpt lat="44.45448" lon="3.61558">
        <ele>1380.11</ele>
        <time>2013-06-15T11:26:51Z</time>
      </trkpt>
      <trkpt lat="44.45448" lon="3.61557">
        <ele>1379.15</ele>
        <time>2013-06-15T11:27:20Z</time>
      </trkpt>
      <trkpt lat="44.45447" lon="3.61559">
        <ele>1379.63</ele>
        <time>2013-06-15T11:27:47Z</time>
      </trkpt>
      <trkpt lat="44.45448" lon="3.61559">
        <ele>1379.63</ele>
        <time>2013-06-15T11:28:14Z</time>
      </trkpt>
      <trkpt lat="44.45448" lon="3.61557">
        <ele>1379.63</ele>
        <time>2013-06-15T11:28:46Z</time>
      </trkpt>
      <trkpt lat="44.45449" lon="3.61558">
        <ele>1379.63</ele>
        <time>2013-06-15T11:29:21Z</time>
      </trkpt>
      <trkpt lat="44.45448" lon="3.61558">
        <ele>1379.63</ele>
        <time>2013-06-15T11:29:49Z</time>
      </trkpt>
      <trkpt lat="44.45448" lon="3.61558">
        <ele>1380.11</ele>
        <time>2013-06-15T11:30:17Z</time>
      </trkpt>
      <trkpt lat="44.45448" lon="3.61557">
        <ele>1379.63</ele>
        <time>2013-06-15T11:30:47Z</time>
      </trkpt>
      <trkpt lat="44.45448" lon="3.61557">
        <ele>1379.63</ele>
        <time>2013-06-15T11:31:17Z</time>
      </trkpt>
      <trkpt lat="44.45448" lon="3.61557">
        <ele>1379.15</ele>
        <time>2013-06-15T11:31:50Z</time>
      </trkpt>
      <trkpt lat="44.45448" lon="3.61558">
        <ele>1378.67</ele>
        <time>2013-06-15T11:32:19Z</time>
      </trkpt>
      <trkpt lat="44.45447" lon="3.61559">
        <ele>1379.63</ele>
        <time>2013-06-15T11:32:50Z</time>
      </trkpt>
      <trkpt lat="44.45447" lon="3.61558">
        <ele>1378.67</ele>
        <time>2013-06-15T11:33:23Z</time>
      </trkpt>
      <trkpt lat="44.45448" lon="3.61558">
        <ele>1378.67</ele>
        <time>2013-06-15T11:33:55Z</time>
      </trkpt>
      <trkpt lat="44.45449" lon="3.61559">
        <ele>1378.67</ele>
        <time>2013-06-15T11:34:26Z</time>
      </trkpt>
      <trkpt lat="44.45449" lon="3.61559">
        <ele>1378.67</ele>
        <time>2013-06-15T11:34:52Z</time>
      </trkpt>
      <trkpt lat="44.45449" lon="3.61558">
        <ele>1377.71</ele>
        <time>2013-06-15T11:35:21Z</time>
      </trkpt>
      <trkpt lat="44.45449" lon="3.61557">
        <ele>1377.71</ele>
        <time>2013-06-15T11:35:41Z</time>
      </trkpt>
      <trkpt lat="44.45448" lon="3.61558">
        <ele>1377.71</ele>
        <time>2013-06-15T11:36:06Z</time>
      </trkpt>
      <trkpt lat="44.45448" lon="3.61559">
        <ele>1377.71</ele>
        <time>2013-06-15T11:36:29Z</time>
      </trkpt>
      <trkpt lat="44.45448" lon="3.61558">
        <ele>1377.71</ele>
        <time>2013-06-15T11:36:54Z</time>
      </trkpt>
      <trkpt lat="44.45448" lon="3.61559">
        <ele>1377.23</ele>
        <time>2013-06-15T11:37:18Z</time>
      </trkpt>
      <trkpt lat="44.45449" lon="3.61561">
        <ele>1377.71</ele>
        <time>2013-06-15T11:37:45Z</time>
      </trkpt>
      <trkpt lat="44.45448" lon="3.6156">
        <ele>1377.23</ele>
        <time>2013-06-15T11:38:15Z</time>
      </trkpt>
      <trkpt lat="44.45447" lon="3.61561">
        <ele>1377.71</ele>
        <time>2013-06-15T11:38:43Z</time>
      </trkpt>
      <trkpt lat="44.45447" lon="3.61561">
        <ele>1376.75</ele>
        <time>2013-06-15T11:39:08Z</time>
      </trkpt>
      <trkpt lat="44.45446" lon="3.6156">
        <ele>1377.23</ele>
        <time>2013-06-15T11:39:34Z</time>
      </trkpt>
      <trkpt lat="44.45446" lon="3.61561">
        <ele>1376.75</ele>
        <time>2013-06-15T11:40:03Z</time>
      </trkpt>
      <trkpt lat="44.45445" lon="3.61561">
        <ele>1376.75</ele>
        <time>2013-06-15T11:40:38Z</time>
      </trkpt>
      <trkpt lat="44.45445" lon="3.6156">
        <ele>1377.23</ele>
        <time>2013-06-15T11:41:09Z</time>
      </trkpt>
      <trkpt lat="44.45446" lon="3.6156">
        <ele>1376.75</ele>
        <time>2013-06-15T11:41:42Z</time>
      </trkpt>
      <trkpt lat="44.45446" lon="3.61561">
        <ele>1376.75</ele>
        <time>2013-06-15T11:42:14Z</time>
      </trkpt>
      <trkpt lat="44.45445" lon="3.6156">
        <ele>1377.23</ele>
        <time>2013-06-15T11:42:42Z</time>
      </trkpt>
      <trkpt lat="44.45445" lon="3.61559">
        <ele>1377.23</ele>
        <time>2013-06-15T11:43:08Z</time>
      </trkpt>
      <trkpt lat="44.45446" lon="3.6156">
        <ele>1377.23</ele>
        <time>2013-06-15T11:43:34Z</time>
      </trkpt>
      <trkpt lat="44.45446" lon="3.61559">
        <ele>1376.26</ele>
        <time>2013-06-15T11:44:05Z</time>
      </trkpt>
      <trkpt lat="44.45447" lon="3.6156">
        <ele>1377.23</ele>
        <time>2013-06-15T11:44:37Z</time>
      </trkpt>
      <trkpt lat="44.45446" lon="3.61559">
        <ele>1377.23</ele>
        <time>2013-06-15T11:45:10Z</time>
      </trkpt>
      <trkpt lat="44.45446" lon="3.6156">
        <ele>1377.23</ele>
        <time>2013-06-15T11:45:42Z</time>
      </trkpt>
      <trkpt lat="44.45447" lon="3.61561">
        <ele>1376.75</ele>
        <time>2013-06-15T11:46:10Z</time>
      </trkpt>
      <trkpt lat="44.45448" lon="3.61561">
        <ele>1376.75</ele>
        <time>2013-06-15T11:46:43Z</time>
      </trkpt>
      <trkpt lat="44.45447" lon="3.61563">
        <ele>1376.75</ele>
        <time>2013-06-15T11:47:14Z</time>
      </trkpt>
      <trkpt lat="44.45445" lon="3.61563">
        <ele>1376.26</ele>
        <time>2013-06-15T11:47:46Z</time>
      </trkpt>
      <trkpt lat="44.45447" lon="3.61562">
        <ele>1376.75</ele>
        <time>2013-06-15T11:48:17Z</time>
      </trkpt>
      <trkpt lat="44.45447" lon="3.61558">
        <ele>1353.19</ele>
        <time>2013-06-15T11:50:32Z</time>
      </trkpt>
      <trkpt lat="44.45448" lon="3.61559">
        <ele>1356.56</ele>
        <time>2013-06-15T11:50:41Z</time>
      </trkpt>
      <trkpt lat="44.45448" lon="3.61559">
        <ele>1359.44</ele>
        <time>2013-06-15T11:50:49Z</time>
      </trkpt>
      <trkpt lat="44.45449" lon="3.61558">
        <ele>1361.36</ele>
        <time>2013-06-15T11:50:53Z</time>
      </trkpt>
      <trkpt lat="44.45448" lon="3.61557">
        <ele>1364.73</ele>
        <time>2013-06-15T11:50:57Z</time>
      </trkpt>
      <trkpt lat="44.45448" lon="3.61558">
        <ele>1365.69</ele>
        <time>2013-06-15T11:50:59Z</time>
      </trkpt>
      <trkpt lat="44.45448" lon="3.61559">
        <ele>1368.09</ele>
        <time>2013-06-15T11:51:03Z</time>
      </trkpt>
      <trkpt lat="44.45449" lon="3.61559">
        <ele>1369.54</ele>
        <time>2013-06-15T11:51:07Z</time>
      </trkpt>
      <trkpt lat="44.45449" lon="3.61559">
        <ele>1371.94</ele>
        <time>2013-06-15T11:51:43Z</time>
      </trkpt>
      <trkpt lat="44.45449" lon="3.61557">
        <ele>1371.94</ele>
        <time>2013-06-15T11:52:16Z</time>
      </trkpt>
      <trkpt lat="44.45448" lon="3.61557">
        <ele>1371.94</ele>
        <time>2013-06-15T11:52:47Z</time>
      </trkpt>
      <trkpt lat="44.45448" lon="3.61558">
        <ele>1374.82</ele>
        <time>2013-06-15T11:52:59Z</time>
      </trkpt>
      <trkpt lat="44.45448" lon="3.61558">
        <ele>1371.94</ele>
        <time>2013-06-15T11:53:10Z</time>
      </trkpt>
      <trkpt lat="44.45448" lon="3.61559">
        <ele>1372.9</ele>
        <time>2013-06-15T11:53:32Z</time>
      </trkpt>
      <trkpt lat="44.4545" lon="3.61559">
        <ele>1372.9</ele>
        <time>2013-06-15T11:54:03Z</time>
      </trkpt>
      <trkpt lat="44.4545" lon="3.61559">
        <ele>1372.42</ele>
        <time>2013-06-15T11:54:34Z</time>
      </trkpt>
      <trkpt lat="44.45451" lon="3.61559">
        <ele>1372.42</ele>
        <time>2013-06-15T11:55:01Z</time>
      </trkpt>
      <trkpt lat="44.4545" lon="3.61558">
        <ele>1372.9</ele>
        <time>2013-06-15T11:55:31Z</time>
      </trkpt>
      <trkpt lat="44.4545" lon="3.61557">
        <ele>1373.38</ele>
        <time>2013-06-15T11:55:57Z</time>
      </trkpt>
      <trkpt lat="44.45449" lon="3.61558">
        <ele>1372.9</ele>
        <time>2013-06-15T11:56:27Z</time>
      </trkpt>
      <trkpt lat="44.45447" lon="3.61557">
        <ele>1372.42</ele>
        <time>2013-06-15T11:57:05Z</time>
      </trkpt>
      <trkpt lat="44.45448" lon="3.61556">
        <ele>1373.38</ele>
        <time>2013-06-15T11:57:43Z</time>
      </trkpt>
      <trkpt lat="44.45448" lon="3.61557">
        <ele>1372.9</ele>
        <time>2013-06-15T11:58:15Z</time>
      </trkpt>
      <trkpt lat="44.45447" lon="3.61558">
        <ele>1373.38</ele>
        <time>2013-06-15T11:58:48Z</time>
      </trkpt>
      <trkpt lat="44.45447" lon="3.61559">
        <ele>1373.86</ele>
        <time>2013-06-15T11:59:22Z</time>
      </trkpt>
      <trkpt lat="44.45446" lon="3.61559">
        <ele>1372.9</ele>
        <time>2013-06-15T11:59:57Z</time>
      </trkpt>
      <trkpt lat="44.45446" lon="3.61559">
        <ele>1374.34</ele>
        <time>2013-06-15T12:00:33Z</time>
      </trkpt>
      <trkpt lat="44.45448" lon="3.6156">
        <ele>1373.38</ele>
        <time>2013-06-15T12:00:42Z</time>
      </trkpt>
      <trkpt lat="44.45451" lon="3.6156">
        <ele>1373.86</ele>
        <time>2013-06-15T12:00:52Z</time>
      </trkpt>
      <trkpt lat="44.45452" lon="3.61558">
        <ele>1373.86</ele>
        <time>2013-06-15T12:01:02Z</time>
      </trkpt>
      <trkpt lat="44.45451" lon="3.61558">
        <ele>1369.54</ele>
        <time>2013-06-15T12:01:17Z</time>
      </trkpt>
      <trkpt lat="44.45451" lon="3.61558">
        <ele>1374.34</ele>
        <time>2013-06-15T12:01:18Z</time>
      </trkpt>
      <trkpt lat="44.45451" lon="3.61558">
        <ele>1373.86</ele>
        <time>2013-06-15T12:01:30Z</time>
      </trkpt>
      <trkpt lat="44.45454" lon="3.61553">
        <ele>1373.86</ele>
        <time>2013-06-15T12:01:34Z</time>
      </trkpt>
      <trkpt lat="44.45456" lon="3.61541">
        <ele>1373.86</ele>
        <time>2013-06-15T12:01:39Z</time>
      </trkpt>
      <trkpt lat="44.4546" lon="3.61504">
        <ele>1373.86</ele>
        <time>2013-06-15T12:01:50Z</time>
      </trkpt>
      <trkpt lat="44.45459" lon="3.61491">
        <ele>1372.9</ele>
        <time>2013-06-15T12:01:53Z</time>
      </trkpt>
      <trkpt lat="44.45473" lon="3.61484">
        <ele>1373.86</ele>
        <time>2013-06-15T12:02:00Z</time>
      </trkpt>
      <trkpt lat="44.45474" lon="3.61486">
        <ele>1373.86</ele>
        <time>2013-06-15T12:02:01Z</time>
      </trkpt>
      <trkpt lat="44.4548" lon="3.61502">
        <ele>1375.78</ele>
        <time>2013-06-15T12:02:08Z</time>
      </trkpt>
      <trkpt lat="44.4548" lon="3.61511">
        <ele>1377.23</ele>
        <time>2013-06-15T12:02:12Z</time>
      </trkpt>
      <trkpt lat="44.45487" lon="3.61535">
        <ele>1378.67</ele>
        <time>2013-06-15T12:02:23Z</time>
      </trkpt>
      <trkpt lat="44.45488" lon="3.61541">
        <ele>1379.63</ele>
        <time>2013-06-15T12:02:26Z</time>
      </trkpt>
      <trkpt lat="44.45489" lon="3.61545">
        <ele>1379.63</ele>
        <time>2013-06-15T12:02:28Z</time>
      </trkpt>
      <trkpt lat="44.45493" lon="3.61563">
        <ele>1381.07</ele>
        <time>2013-06-15T12:02:37Z</time>
      </trkpt>
      <trkpt lat="44.45497" lon="3.61577">
        <ele>1382.03</ele>
        <time>2013-06-15T12:02:44Z</time>
      </trkpt>
      <trkpt lat="44.45499" lon="3.61586">
        <ele>1382.51</ele>
        <time>2013-06-15T12:02:49Z</time>
      </trkpt>
      <trkpt lat="44.455" lon="3.61597">
        <ele>1383.47</ele>
        <time>2013-06-15T12:02:54Z</time>
      </trkpt>
      <trkpt lat="44.45503" lon="3.61618">
        <ele>1385.4</ele>
        <time>2013-06-15T12:03:04Z</time>
      </trkpt>
      <trkpt lat="44.45507" lon="3.6163">
        <ele>1386.36</ele>
        <time>2013-06-15T12:03:11Z</time>
      </trkpt>
      <trkpt lat="44.45515" lon="3.61646">
        <ele>1387.8</ele>
        <time>2013-06-15T12:03:22Z</time>
      </trkpt>
      <trkpt lat="44.45524" lon="3.61657">
        <ele>1389.24</ele>
        <time>2013-06-15T12:03:31Z</time>
      </trkpt>
      <trkpt lat="44.45525" lon="3.61658">
        <ele>1389.24</ele>
        <time>2013-06-15T12:03:32Z</time>
      </trkpt>
      <trkpt lat="44.45534" lon="3.61673">
        <ele>1390.68</ele>
        <time>2013-06-15T12:03:42Z</time>
      </trkpt>
      <trkpt lat="44.45545" lon="3.61683">
        <ele>1391.65</ele>
        <time>2013-06-15T12:03:50Z</time>
      </trkpt>
      <trkpt lat="44.45561" lon="3.61691">
        <ele>1393.09</ele>
        <time>2013-06-15T12:04:01Z</time>
      </trkpt>
      <trkpt lat="44.4557" lon="3.61696">
        <ele>1394.53</ele>
        <time>2013-06-15T12:04:07Z</time>
      </trkpt>
      <trkpt lat="44.45585" lon="3.617">
        <ele>1395.01</ele>
        <time>2013-06-15T12:04:16Z</time>
      </trkpt>
      <trkpt lat="44.4559" lon="3.61695">
        <ele>1395.01</ele>
        <time>2013-06-15T12:04:20Z</time>
      </trkpt>
      <trkpt lat="44.45596" lon="3.61692">
        <ele>1395.01</ele>
        <time>2013-06-15T12:04:24Z</time>
      </trkpt>
      <trkpt lat="44.45614" lon="3.61685">
        <ele>1396.93</ele>
        <time>2013-06-15T12:04:35Z</time>
      </trkpt>
      <trkpt lat="44.45628" lon="3.61677">
        <ele>1396.45</ele>
        <time>2013-06-15T12:04:44Z</time>
      </trkpt>
      <trkpt lat="44.45647" lon="3.61662">
        <ele>1398.86</ele>
        <time>2013-06-15T12:04:54Z</time>
      </trkpt>
      <trkpt lat="44.45665" lon="3.6165">
        <ele>1400.3</ele>
        <time>2013-06-15T12:05:04Z</time>
      </trkpt>
      <trkpt lat="44.45667" lon="3.61648">
        <ele>1401.26</ele>
        <time>2013-06-15T12:05:06Z</time>
      </trkpt>
      <trkpt lat="44.45677" lon="3.61634">
        <ele>1401.74</ele>
        <time>2013-06-15T12:05:14Z</time>
      </trkpt>
      <trkpt lat="44.45679" lon="3.6163">
        <ele>1402.7</ele>
        <time>2013-06-15T12:05:16Z</time>
      </trkpt>
      <trkpt lat="44.45696" lon="3.61614">
        <ele>1403.66</ele>
        <time>2013-06-15T12:05:27Z</time>
      </trkpt>
      <trkpt lat="44.45711" lon="3.6161">
        <ele>1405.1</ele>
        <time>2013-06-15T12:05:37Z</time>
      </trkpt>
      <trkpt lat="44.45718" lon="3.61611">
        <ele>1406.55</ele>
        <time>2013-06-15T12:05:43Z</time>
      </trkpt>
      <trkpt lat="44.4572" lon="3.61613">
        <ele>1406.55</ele>
        <time>2013-06-15T12:05:45Z</time>
      </trkpt>
      <trkpt lat="44.45735" lon="3.61613">
        <ele>1407.99</ele>
        <time>2013-06-15T12:05:53Z</time>
      </trkpt>
      <trkpt lat="44.45747" lon="3.61623">
        <ele>1408.47</ele>
        <time>2013-06-15T12:06:02Z</time>
      </trkpt>
      <trkpt lat="44.45754" lon="3.61632">
        <ele>1410.39</ele>
        <time>2013-06-15T12:06:08Z</time>
      </trkpt>
      <trkpt lat="44.45757" lon="3.61639">
        <ele>1410.39</ele>
        <time>2013-06-15T12:06:12Z</time>
      </trkpt>
      <trkpt lat="44.45759" lon="3.61647">
        <ele>1411.35</ele>
        <time>2013-06-15T12:06:16Z</time>
      </trkpt>
      <trkpt lat="44.45765" lon="3.61666">
        <ele>1412.31</ele>
        <time>2013-06-15T12:06:24Z</time>
      </trkpt>
      <trkpt lat="44.45765" lon="3.61669">
        <ele>1412.31</ele>
        <time>2013-06-15T12:06:25Z</time>
      </trkpt>
      <trkpt lat="44.45767" lon="3.61697">
        <ele>1413.76</ele>
        <time>2013-06-15T12:06:36Z</time>
      </trkpt>
      <trkpt lat="44.45774" lon="3.6173">
        <ele>1414.72</ele>
        <time>2013-06-15T12:06:48Z</time>
      </trkpt>
      <trkpt lat="44.45777" lon="3.61765">
        <ele>1415.2</ele>
        <time>2013-06-15T12:06:59Z</time>
      </trkpt>
      <trkpt lat="44.4578" lon="3.61793">
        <ele>1415.2</ele>
        <time>2013-06-15T12:07:08Z</time>
      </trkpt>
      <trkpt lat="44.45782" lon="3.61805">
        <ele>1428.66</ele>
        <time>2013-06-15T12:07:12Z</time>
      </trkpt>
      <trkpt lat="44.45782" lon="3.61808">
        <ele>1417.12</ele>
        <time>2013-06-15T12:07:13Z</time>
      </trkpt>
      <trkpt lat="44.45789" lon="3.61839">
        <ele>1417.6</ele>
        <time>2013-06-15T12:07:23Z</time>
      </trkpt>
      <trkpt lat="44.4579" lon="3.61855">
        <ele>1417.6</ele>
        <time>2013-06-15T12:07:29Z</time>
      </trkpt>
      <trkpt lat="44.45794" lon="3.61886">
        <ele>1420</ele>
        <time>2013-06-15T12:07:40Z</time>
      </trkpt>
      <trkpt lat="44.45798" lon="3.61908">
        <ele>1421.93</ele>
        <time>2013-06-15T12:07:49Z</time>
      </trkpt>
      <trkpt lat="44.45797" lon="3.61912">
        <ele>1421.93</ele>
        <time>2013-06-15T12:07:51Z</time>
      </trkpt>
      <trkpt lat="44.45799" lon="3.61934">
        <ele>1422.89</ele>
        <time>2013-06-15T12:07:59Z</time>
      </trkpt>
      <trkpt lat="44.45804" lon="3.61964">
        <ele>1424.81</ele>
        <time>2013-06-15T12:08:10Z</time>
      </trkpt>
      <trkpt lat="44.45808" lon="3.61983">
        <ele>1424.81</ele>
        <time>2013-06-15T12:08:17Z</time>
      </trkpt>
      <trkpt lat="44.4581" lon="3.62007">
        <ele>1427.21</ele>
        <time>2013-06-15T12:08:27Z</time>
      </trkpt>
      <trkpt lat="44.45813" lon="3.62024">
        <ele>1428.66</ele>
        <time>2013-06-15T12:08:35Z</time>
      </trkpt>
      <trkpt lat="44.45815" lon="3.62036">
        <ele>1428.66</ele>
        <time>2013-06-15T12:08:40Z</time>
      </trkpt>
      <trkpt lat="44.4582" lon="3.62066">
        <ele>1430.58</ele>
        <time>2013-06-15T12:08:53Z</time>
      </trkpt>
      <trkpt lat="44.45824" lon="3.6209">
        <ele>1431.54</ele>
        <time>2013-06-15T12:09:03Z</time>
      </trkpt>
      <trkpt lat="44.45828" lon="3.62111">
        <ele>1432.5</ele>
        <time>2013-06-15T12:09:11Z</time>
      </trkpt>
      <trkpt lat="44.4583" lon="3.62133">
        <ele>1432.98</ele>
        <time>2013-06-15T12:09:18Z</time>
      </trkpt>
      <trkpt lat="44.45834" lon="3.62175">
        <ele>1434.42</ele>
        <time>2013-06-15T12:09:30Z</time>
      </trkpt>
      <trkpt lat="44.45833" lon="3.62202">
        <ele>1435.39</ele>
        <time>2013-06-15T12:09:38Z</time>
      </trkpt>
      <trkpt lat="44.45837" lon="3.62235">
        <ele>1436.83</ele>
        <time>2013-06-15T12:09:47Z</time>
      </trkpt>
      <trkpt lat="44.45833" lon="3.6227">
        <ele>1436.83</ele>
        <time>2013-06-15T12:09:56Z</time>
      </trkpt>
      <trkpt lat="44.45821" lon="3.62315">
        <ele>1437.31</ele>
        <time>2013-06-15T12:10:07Z</time>
      </trkpt>
      <trkpt lat="44.45816" lon="3.62333">
        <ele>1436.83</ele>
        <time>2013-06-15T12:10:11Z</time>
      </trkpt>
      <trkpt lat="44.45803" lon="3.62373">
        <ele>1438.27</ele>
        <time>2013-06-15T12:10:21Z</time>
      </trkpt>
      <trkpt lat="44.45802" lon="3.62377">
        <ele>1429.62</ele>
        <time>2013-06-15T12:10:22Z</time>
      </trkpt>
      <trkpt lat="44.45801" lon="3.62381">
        <ele>1439.23</ele>
        <time>2013-06-15T12:10:23Z</time>
      </trkpt>
      <trkpt lat="44.45782" lon="3.62421">
        <ele>1438.27</ele>
        <time>2013-06-15T12:10:33Z</time>
      </trkpt>
      <trkpt lat="44.45758" lon="3.62472">
        <ele>1437.31</ele>
        <time>2013-06-15T12:10:44Z</time>
      </trkpt>
      <trkpt lat="44.45738" lon="3.62517">
        <ele>1437.79</ele>
        <time>2013-06-15T12:10:55Z</time>
      </trkpt>
      <trkpt lat="44.45736" lon="3.62522">
        <ele>1437.79</ele>
        <time>2013-06-15T12:10:56Z</time>
      </trkpt>
      <trkpt lat="44.45722" lon="3.62557">
        <ele>1438.75</ele>
        <time>2013-06-15T12:11:05Z</time>
      </trkpt>
      <trkpt lat="44.45707" lon="3.62609">
        <ele>1438.27</ele>
        <time>2013-06-15T12:11:15Z</time>
      </trkpt>
      <trkpt lat="44.45703" lon="3.62638">
        <ele>1437.31</ele>
        <time>2013-06-15T12:11:20Z</time>
      </trkpt>
      <trkpt lat="44.45702" lon="3.62645">
        <ele>1437.31</ele>
        <time>2013-06-15T12:11:21Z</time>
      </trkpt>
      <trkpt lat="44.45704" lon="3.62695">
        <ele>1436.35</ele>
        <time>2013-06-15T12:11:30Z</time>
      </trkpt>
      <trkpt lat="44.45706" lon="3.62706">
        <ele>1443.56</ele>
        <time>2013-06-15T12:11:32Z</time>
      </trkpt>
      <trkpt lat="44.45707" lon="3.62712">
        <ele>1435.87</ele>
        <time>2013-06-15T12:11:33Z</time>
      </trkpt>
      <trkpt lat="44.45709" lon="3.62745">
        <ele>1433.94</ele>
        <time>2013-06-15T12:11:39Z</time>
      </trkpt>
      <trkpt lat="44.45708" lon="3.62751">
        <ele>1433.46</ele>
        <time>2013-06-15T12:11:40Z</time>
      </trkpt>
      <trkpt lat="44.45707" lon="3.62756">
        <ele>1433.46</ele>
        <time>2013-06-15T12:11:41Z</time>
      </trkpt>
      <trkpt lat="44.45704" lon="3.62761">
        <ele>1433.46</ele>
        <time>2013-06-15T12:11:42Z</time>
      </trkpt>
      <trkpt lat="44.45702" lon="3.62765">
        <ele>1432.98</ele>
        <time>2013-06-15T12:11:43Z</time>
      </trkpt>
      <trkpt lat="44.45699" lon="3.62768">
        <ele>1432.5</ele>
        <time>2013-06-15T12:11:44Z</time>
      </trkpt>
      <trkpt lat="44.45696" lon="3.62772">
        <ele>1433.46</ele>
        <time>2013-06-15T12:11:45Z</time>
      </trkpt>
      <trkpt lat="44.45693" lon="3.62776">
        <ele>1432.98</ele>
        <time>2013-06-15T12:11:46Z</time>
      </trkpt>
      <trkpt lat="44.45678" lon="3.62819">
        <ele>1433.94</ele>
        <time>2013-06-15T12:11:55Z</time>
      </trkpt>
      <trkpt lat="44.45667" lon="3.62866">
        <ele>1434.42</ele>
        <time>2013-06-15T12:12:05Z</time>
      </trkpt>
      <trkpt lat="44.45655" lon="3.62917">
        <ele>1435.39</ele>
        <time>2013-06-15T12:12:17Z</time>
      </trkpt>
      <trkpt lat="44.4564" lon="3.6297">
        <ele>1436.35</ele>
        <time>2013-06-15T12:12:30Z</time>
      </trkpt>
      <trkpt lat="44.45629" lon="3.63015">
        <ele>1437.31</ele>
        <time>2013-06-15T12:12:41Z</time>
      </trkpt>
      <trkpt lat="44.45617" lon="3.63059">
        <ele>1438.75</ele>
        <time>2013-06-15T12:12:52Z</time>
      </trkpt>
      <trkpt lat="44.45595" lon="3.63103">
        <ele>1439.23</ele>
        <time>2013-06-15T12:13:04Z</time>
      </trkpt>
      <trkpt lat="44.45575" lon="3.63129">
        <ele>1427.21</ele>
        <time>2013-06-15T12:13:12Z</time>
      </trkpt>
      <trkpt lat="44.45572" lon="3.63133">
        <ele>1440.19</ele>
        <time>2013-06-15T12:13:13Z</time>
      </trkpt>
      <trkpt lat="44.45565" lon="3.63143">
        <ele>1444.52</ele>
        <time>2013-06-15T12:13:16Z</time>
      </trkpt>
      <trkpt lat="44.45563" lon="3.63146">
        <ele>1439.71</ele>
        <time>2013-06-15T12:13:17Z</time>
      </trkpt>
      <trkpt lat="44.45558" lon="3.63153">
        <ele>1443.56</ele>
        <time>2013-06-15T12:13:19Z</time>
      </trkpt>
      <trkpt lat="44.45553" lon="3.63158">
        <ele>1439.23</ele>
        <time>2013-06-15T12:13:21Z</time>
      </trkpt>
      <trkpt lat="44.4555" lon="3.6316">
        <ele>1439.71</ele>
        <time>2013-06-15T12:13:22Z</time>
      </trkpt>
      <trkpt lat="44.45547" lon="3.63161">
        <ele>1439.71</ele>
        <time>2013-06-15T12:13:23Z</time>
      </trkpt>
      <trkpt lat="44.45544" lon="3.63169">
        <ele>1433.46</ele>
        <time>2013-06-15T12:13:26Z</time>
      </trkpt>
      <trkpt lat="44.45542" lon="3.63172">
        <ele>1439.71</ele>
        <time>2013-06-15T12:13:27Z</time>
      </trkpt>
      <trkpt lat="44.45538" lon="3.63177">
        <ele>1434.91</ele>
        <time>2013-06-15T12:13:29Z</time>
      </trkpt>
      <trkpt lat="44.45537" lon="3.6318">
        <ele>1439.71</ele>
        <time>2013-06-15T12:13:30Z</time>
      </trkpt>
      <trkpt lat="44.45533" lon="3.63184">
        <ele>1444.04</ele>
        <time>2013-06-15T12:13:32Z</time>
      </trkpt>
      <trkpt lat="44.45531" lon="3.63187">
        <ele>1444.04</ele>
        <time>2013-06-15T12:13:33Z</time>
      </trkpt>
      <trkpt lat="44.45529" lon="3.63189">
        <ele>1440.19</ele>
        <time>2013-06-15T12:13:34Z</time>
      </trkpt>
      <trkpt lat="44.45527" lon="3.63191">
        <ele>1440.19</ele>
        <time>2013-06-15T12:13:35Z</time>
      </trkpt>
      <trkpt lat="44.45523" lon="3.63196">
        <ele>1437.31</ele>
        <time>2013-06-15T12:13:37Z</time>
      </trkpt>
      <trkpt lat="44.45521" lon="3.63198">
        <ele>1426.25</ele>
        <time>2013-06-15T12:13:38Z</time>
      </trkpt>
      <trkpt lat="44.45519" lon="3.632">
        <ele>1440.19</ele>
        <time>2013-06-15T12:13:39Z</time>
      </trkpt>
      <trkpt lat="44.45517" lon="3.63203">
        <ele>1452.21</ele>
        <time>2013-06-15T12:13:40Z</time>
      </trkpt>
      <trkpt lat="44.45515" lon="3.63205">
        <ele>1439.71</ele>
        <time>2013-06-15T12:13:41Z</time>
      </trkpt>
      <trkpt lat="44.45508" lon="3.63214">
        <ele>1446.44</ele>
        <time>2013-06-15T12:13:44Z</time>
      </trkpt>
      <trkpt lat="44.45506" lon="3.63217">
        <ele>1439.23</ele>
        <time>2013-06-15T12:13:45Z</time>
      </trkpt>
      <trkpt lat="44.45504" lon="3.6322">
        <ele>1443.08</ele>
        <time>2013-06-15T12:13:46Z</time>
      </trkpt>
      <trkpt lat="44.45502" lon="3.63223">
        <ele>1438.75</ele>
        <time>2013-06-15T12:13:47Z</time>
      </trkpt>
      <trkpt lat="44.45497" lon="3.6323">
        <ele>1432.5</ele>
        <time>2013-06-15T12:13:49Z</time>
      </trkpt>
      <trkpt lat="44.45495" lon="3.63232">
        <ele>1439.23</ele>
        <time>2013-06-15T12:13:50Z</time>
      </trkpt>
      <trkpt lat="44.45492" lon="3.63235">
        <ele>1453.17</ele>
        <time>2013-06-15T12:13:55Z</time>
      </trkpt>
      <trkpt lat="44.45492" lon="3.63235">
        <ele>1438.75</ele>
        <time>2013-06-15T12:13:56Z</time>
      </trkpt>
      <trkpt lat="44.45491" lon="3.63237">
        <ele>1438.75</ele>
        <time>2013-06-15T12:14:04Z</time>
      </trkpt>
      <trkpt lat="44.45473" lon="3.63263">
        <ele>1438.27</ele>
        <time>2013-06-15T12:14:15Z</time>
      </trkpt>
      <trkpt lat="44.45445" lon="3.63301">
        <ele>1438.75</ele>
        <time>2013-06-15T12:14:26Z</time>
      </trkpt>
      <trkpt lat="44.45407" lon="3.63354">
        <ele>1437.79</ele>
        <time>2013-06-15T12:14:40Z</time>
      </trkpt>
      <trkpt lat="44.45382" lon="3.63388">
        <ele>1440.19</ele>
        <time>2013-06-15T12:14:51Z</time>
      </trkpt>
      <trkpt lat="44.45348" lon="3.63432">
        <ele>1440.67</ele>
        <time>2013-06-15T12:15:04Z</time>
      </trkpt>
      <trkpt lat="44.45325" lon="3.63463">
        <ele>1441.15</ele>
        <time>2013-06-15T12:15:13Z</time>
      </trkpt>
      <trkpt lat="44.45315" lon="3.63477">
        <ele>1441.63</ele>
        <time>2013-06-15T12:15:21Z</time>
      </trkpt>
      <trkpt lat="44.45316" lon="3.63477">
        <ele>1441.63</ele>
        <time>2013-06-15T12:15:46Z</time>
      </trkpt>
      <trkpt lat="44.45312" lon="3.63481">
        <ele>1441.63</ele>
        <time>2013-06-15T12:16:06Z</time>
      </trkpt>
      <trkpt lat="44.453" lon="3.63494">
        <ele>1441.63</ele>
        <time>2013-06-15T12:16:15Z</time>
      </trkpt>
      <trkpt lat="44.45298" lon="3.63494">
        <ele>1441.63</ele>
        <time>2013-06-15T12:16:16Z</time>
      </trkpt>
      <trkpt lat="44.45282" lon="3.6351">
        <ele>1442.6</ele>
        <time>2013-06-15T12:16:26Z</time>
      </trkpt>
      <trkpt lat="44.45262" lon="3.63533">
        <ele>1444.04</ele>
        <time>2013-06-15T12:16:38Z</time>
      </trkpt>
      <trkpt lat="44.45244" lon="3.63551">
        <ele>1444.04</ele>
        <time>2013-06-15T12:16:48Z</time>
      </trkpt>
      <trkpt lat="44.45222" lon="3.63568">
        <ele>1445</ele>
        <time>2013-06-15T12:17:00Z</time>
      </trkpt>
      <trkpt lat="44.45211" lon="3.63577">
        <ele>1445.48</ele>
        <time>2013-06-15T12:17:05Z</time>
      </trkpt>
      <trkpt lat="44.4518" lon="3.636">
        <ele>1446.92</ele>
        <time>2013-06-15T12:17:19Z</time>
      </trkpt>
      <trkpt lat="44.45157" lon="3.63613">
        <ele>1448.84</ele>
        <time>2013-06-15T12:17:29Z</time>
      </trkpt>
      <trkpt lat="44.45127" lon="3.63629">
        <ele>1450.77</ele>
        <time>2013-06-15T12:17:42Z</time>
      </trkpt>
      <trkpt lat="44.45104" lon="3.63644">
        <ele>1451.73</ele>
        <time>2013-06-15T12:17:52Z</time>
      </trkpt>
      <trkpt lat="44.45078" lon="3.63665">
        <ele>1453.65</ele>
        <time>2013-06-15T12:18:03Z</time>
      </trkpt>
      <trkpt lat="44.45053" lon="3.6369">
        <ele>1454.61</ele>
        <time>2013-06-15T12:18:14Z</time>
      </trkpt>
      <trkpt lat="44.45037" lon="3.63717">
        <ele>1455.57</ele>
        <time>2013-06-15T12:18:24Z</time>
      </trkpt>
      <trkpt lat="44.45018" lon="3.63754">
        <ele>1456.53</ele>
        <time>2013-06-15T12:18:36Z</time>
      </trkpt>
      <trkpt lat="44.45001" lon="3.63788">
        <ele>1458.46</ele>
        <time>2013-06-15T12:18:47Z</time>
      </trkpt>
      <trkpt lat="44.45" lon="3.63791">
        <ele>1458.46</ele>
        <time>2013-06-15T12:18:48Z</time>
      </trkpt>
      <trkpt lat="44.44986" lon="3.63823">
        <ele>1459.42</ele>
        <time>2013-06-15T12:18:58Z</time>
      </trkpt>
      <trkpt lat="44.4497" lon="3.63859">
        <ele>1461.34</ele>
        <time>2013-06-15T12:19:09Z</time>
      </trkpt>
      <trkpt lat="44.44957" lon="3.63884">
        <ele>1461.82</ele>
        <time>2013-06-15T12:19:18Z</time>
      </trkpt>
      <trkpt lat="44.4495" lon="3.63899">
        <ele>1462.78</ele>
        <time>2013-06-15T12:19:24Z</time>
      </trkpt>
      <trkpt lat="44.44934" lon="3.63922">
        <ele>1463.74</ele>
        <time>2013-06-15T12:19:32Z</time>
      </trkpt>
      <trkpt lat="44.44924" lon="3.6394">
        <ele>1464.23</ele>
        <time>2013-06-15T12:19:39Z</time>
      </trkpt>
      <trkpt lat="44.44912" lon="3.63964">
        <ele>1465.19</ele>
        <time>2013-06-15T12:19:46Z</time>
      </trkpt>
      <trkpt lat="44.44907" lon="3.63973">
        <ele>1465.67</ele>
        <time>2013-06-15T12:19:49Z</time>
      </trkpt>
      <trkpt lat="44.44871" lon="3.64001">
        <ele>1466.63</ele>
        <time>2013-06-15T12:20:01Z</time>
      </trkpt>
      <trkpt lat="44.44833" lon="3.64028">
        <ele>1466.63</ele>
        <time>2013-06-15T12:20:13Z</time>
      </trkpt>
      <trkpt lat="44.44809" lon="3.64059">
        <ele>1468.07</ele>
        <time>2013-06-15T12:20:23Z</time>
      </trkpt>
      <trkpt lat="44.44794" lon="3.64086">
        <ele>1469.99</ele>
        <time>2013-06-15T12:20:31Z</time>
      </trkpt>
      <trkpt lat="44.44771" lon="3.64117">
        <ele>1471.44</ele>
        <time>2013-06-15T12:20:41Z</time>
      </trkpt>
      <trkpt lat="44.44753" lon="3.64142">
        <ele>1471.92</ele>
        <time>2013-06-15T12:20:50Z</time>
      </trkpt>
      <trkpt lat="44.44732" lon="3.64175">
        <ele>1473.36</ele>
        <time>2013-06-15T12:21:00Z</time>
      </trkpt>
      <trkpt lat="44.44715" lon="3.64201">
        <ele>1473.84</ele>
        <time>2013-06-15T12:21:08Z</time>
      </trkpt>
      <trkpt lat="44.44703" lon="3.64233">
        <ele>1474.8</ele>
        <time>2013-06-15T12:21:16Z</time>
      </trkpt>
      <trkpt lat="44.44701" lon="3.64237">
        <ele>1474.32</ele>
        <time>2013-06-15T12:21:17Z</time>
      </trkpt>
      <trkpt lat="44.44692" lon="3.64263">
        <ele>1481.53</ele>
        <time>2013-06-15T12:21:24Z</time>
      </trkpt>
      <trkpt lat="44.44691" lon="3.64268">
        <ele>1475.76</ele>
        <time>2013-06-15T12:21:25Z</time>
      </trkpt>
      <trkpt lat="44.44688" lon="3.64302">
        <ele>1477.2</ele>
        <time>2013-06-15T12:21:33Z</time>
      </trkpt>
      <trkpt lat="44.44688" lon="3.64332">
        <ele>1478.16</ele>
        <time>2013-06-15T12:21:40Z</time>
      </trkpt>
      <trkpt lat="44.44693" lon="3.64368">
        <ele>1478.65</ele>
        <time>2013-06-15T12:21:49Z</time>
      </trkpt>
      <trkpt lat="44.44692" lon="3.64407">
        <ele>1480.57</ele>
        <time>2013-06-15T12:21:59Z</time>
      </trkpt>
      <trkpt lat="44.44684" lon="3.64436">
        <ele>1481.05</ele>
        <time>2013-06-15T12:22:06Z</time>
      </trkpt>
      <trkpt lat="44.44676" lon="3.64468">
        <ele>1487.78</ele>
        <time>2013-06-15T12:22:13Z</time>
      </trkpt>
      <trkpt lat="44.44674" lon="3.64473">
        <ele>1481.53</ele>
        <time>2013-06-15T12:22:14Z</time>
      </trkpt>
      <trkpt lat="44.44663" lon="3.64511">
        <ele>1482.49</ele>
        <time>2013-06-15T12:22:23Z</time>
      </trkpt>
      <trkpt lat="44.44642" lon="3.64537">
        <ele>1482.49</ele>
        <time>2013-06-15T12:22:31Z</time>
      </trkpt>
      <trkpt lat="44.44615" lon="3.64576">
        <ele>1483.93</ele>
        <time>2013-06-15T12:22:42Z</time>
      </trkpt>
      <trkpt lat="44.44606" lon="3.64597">
        <ele>1483.93</ele>
        <time>2013-06-15T12:22:47Z</time>
      </trkpt>
      <trkpt lat="44.44605" lon="3.64605">
        <ele>1484.41</ele>
        <time>2013-06-15T12:22:49Z</time>
      </trkpt>
      <trkpt lat="44.44596" lon="3.64633">
        <ele>1485.37</ele>
        <time>2013-06-15T12:22:56Z</time>
      </trkpt>
      <trkpt lat="44.44583" lon="3.64673">
        <ele>1485.85</ele>
        <time>2013-06-15T12:23:05Z</time>
      </trkpt>
      <trkpt lat="44.44574" lon="3.64706">
        <ele>1486.82</ele>
        <time>2013-06-15T12:23:13Z</time>
      </trkpt>
      <trkpt lat="44.44564" lon="3.64737">
        <ele>1486.82</ele>
        <time>2013-06-15T12:23:20Z</time>
      </trkpt>
      <trkpt lat="44.44553" lon="3.64763">
        <ele>1486.82</ele>
        <time>2013-06-15T12:23:27Z</time>
      </trkpt>
      <trkpt lat="44.44536" lon="3.64795">
        <ele>1487.3</ele>
        <time>2013-06-15T12:23:36Z</time>
      </trkpt>
      <trkpt lat="44.44534" lon="3.64798">
        <ele>1487.3</ele>
        <time>2013-06-15T12:23:37Z</time>
      </trkpt>
      <trkpt lat="44.44511" lon="3.64829">
        <ele>1487.78</ele>
        <time>2013-06-15T12:23:45Z</time>
      </trkpt>
      <trkpt lat="44.44509" lon="3.64836">
        <ele>1487.78</ele>
        <time>2013-06-15T12:23:46Z</time>
      </trkpt>
      <trkpt lat="44.44504" lon="3.64879">
        <ele>1489.22</ele>
        <time>2013-06-15T12:23:56Z</time>
      </trkpt>
      <trkpt lat="44.44505" lon="3.64898">
        <ele>1490.66</ele>
        <time>2013-06-15T12:24:00Z</time>
      </trkpt>
      <trkpt lat="44.44503" lon="3.64913">
        <ele>1484.89</ele>
        <time>2013-06-15T12:24:03Z</time>
      </trkpt>
      <trkpt lat="44.44503" lon="3.64918">
        <ele>1495.47</ele>
        <time>2013-06-15T12:24:04Z</time>
      </trkpt>
      <trkpt lat="44.44503" lon="3.64922">
        <ele>1489.7</ele>
        <time>2013-06-15T12:24:05Z</time>
      </trkpt>
      <trkpt lat="44.44502" lon="3.64936">
        <ele>1497.39</ele>
        <time>2013-06-15T12:24:08Z</time>
      </trkpt>
      <trkpt lat="44.44502" lon="3.64941">
        <ele>1490.66</ele>
        <time>2013-06-15T12:24:09Z</time>
      </trkpt>
      <trkpt lat="44.44502" lon="3.64952">
        <ele>1479.61</ele>
        <time>2013-06-15T12:24:11Z</time>
      </trkpt>
      <trkpt lat="44.44502" lon="3.64957">
        <ele>1494.99</ele>
        <time>2013-06-15T12:24:12Z</time>
      </trkpt>
      <trkpt lat="44.44501" lon="3.64977">
        <ele>1496.91</ele>
        <time>2013-06-15T12:24:16Z</time>
      </trkpt>
      <trkpt lat="44.44501" lon="3.64982">
        <ele>1490.18</ele>
        <time>2013-06-15T12:24:17Z</time>
      </trkpt>
      <trkpt lat="44.44501" lon="3.64987">
        <ele>1495.95</ele>
        <time>2013-06-15T12:24:18Z</time>
      </trkpt>
      <trkpt lat="44.44501" lon="3.64993">
        <ele>1490.18</ele>
        <time>2013-06-15T12:24:19Z</time>
      </trkpt>
      <trkpt lat="44.44501" lon="3.64998">
        <ele>1496.43</ele>
        <time>2013-06-15T12:24:20Z</time>
      </trkpt>
      <trkpt lat="44.44502" lon="3.65002">
        <ele>1490.66</ele>
        <time>2013-06-15T12:24:21Z</time>
      </trkpt>
      <trkpt lat="44.44509" lon="3.65055">
        <ele>1492.1</ele>
        <time>2013-06-15T12:24:32Z</time>
      </trkpt>
      <trkpt lat="44.44514" lon="3.65094">
        <ele>1492.1</ele>
        <time>2013-06-15T12:24:40Z</time>
      </trkpt>
      <trkpt lat="44.44518" lon="3.65141">
        <ele>1492.1</ele>
        <time>2013-06-15T12:24:49Z</time>
      </trkpt>
      <trkpt lat="44.4452" lon="3.65173">
        <ele>1493.06</ele>
        <time>2013-06-15T12:24:56Z</time>
      </trkpt>
      <trkpt lat="44.4452" lon="3.65213">
        <ele>1493.06</ele>
        <time>2013-06-15T12:25:04Z</time>
      </trkpt>
      <trkpt lat="44.44515" lon="3.65257">
        <ele>1493.55</ele>
        <time>2013-06-15T12:25:13Z</time>
      </trkpt>
      <trkpt lat="44.44498" lon="3.65292">
        <ele>1495.47</ele>
        <time>2013-06-15T12:25:22Z</time>
      </trkpt>
      <trkpt lat="44.44478" lon="3.65323">
        <ele>1495.47</ele>
        <time>2013-06-15T12:25:30Z</time>
      </trkpt>
      <trkpt lat="44.44451" lon="3.65364">
        <ele>1495.95</ele>
        <time>2013-06-15T12:25:40Z</time>
      </trkpt>
      <trkpt lat="44.44428" lon="3.65403">
        <ele>1497.87</ele>
        <time>2013-06-15T12:25:51Z</time>
      </trkpt>
      <trkpt lat="44.44413" lon="3.6543">
        <ele>1498.35</ele>
        <time>2013-06-15T12:25:59Z</time>
      </trkpt>
      <trkpt lat="44.44388" lon="3.65474">
        <ele>1499.31</ele>
        <time>2013-06-15T12:26:11Z</time>
      </trkpt>
      <trkpt lat="44.44362" lon="3.65522">
        <ele>1499.79</ele>
        <time>2013-06-15T12:26:24Z</time>
      </trkpt>
      <trkpt lat="44.44341" lon="3.6556">
        <ele>1501.24</ele>
        <time>2013-06-15T12:26:34Z</time>
      </trkpt>
      <trkpt lat="44.44328" lon="3.65586">
        <ele>1502.2</ele>
        <time>2013-06-15T12:26:41Z</time>
      </trkpt>
      <trkpt lat="44.44327" lon="3.65589">
        <ele>1502.68</ele>
        <time>2013-06-15T12:26:42Z</time>
      </trkpt>
      <trkpt lat="44.44326" lon="3.65592">
        <ele>1502.68</ele>
        <time>2013-06-15T12:26:43Z</time>
      </trkpt>
      <trkpt lat="44.44324" lon="3.65596">
        <ele>1503.16</ele>
        <time>2013-06-15T12:26:44Z</time>
      </trkpt>
      <trkpt lat="44.44305" lon="3.65621">
        <ele>1503.16</ele>
        <time>2013-06-15T12:26:53Z</time>
      </trkpt>
      <trkpt lat="44.44287" lon="3.65631">
        <ele>1503.16</ele>
        <time>2013-06-15T12:26:59Z</time>
      </trkpt>
      <trkpt lat="44.44259" lon="3.65656">
        <ele>1504.12</ele>
        <time>2013-06-15T12:27:09Z</time>
      </trkpt>
      <trkpt lat="44.44229" lon="3.6569">
        <ele>1505.08</ele>
        <time>2013-06-15T12:27:19Z</time>
      </trkpt>
      <trkpt lat="44.44214" lon="3.6572">
        <ele>1506.04</ele>
        <time>2013-06-15T12:27:27Z</time>
      </trkpt>
      <trkpt lat="44.44203" lon="3.65749">
        <ele>1506.52</ele>
        <time>2013-06-15T12:27:35Z</time>
      </trkpt>
      <trkpt lat="44.44187" lon="3.6578">
        <ele>1507.48</ele>
        <time>2013-06-15T12:27:44Z</time>
      </trkpt>
      <trkpt lat="44.4417" lon="3.65813">
        <ele>1508.93</ele>
        <time>2013-06-15T12:27:54Z</time>
      </trkpt>
      <trkpt lat="44.44159" lon="3.65844">
        <ele>1509.41</ele>
        <time>2013-06-15T12:28:03Z</time>
      </trkpt>
      <trkpt lat="44.4415" lon="3.65872">
        <ele>1510.37</ele>
        <time>2013-06-15T12:28:11Z</time>
      </trkpt>
      <trkpt lat="44.44141" lon="3.65897">
        <ele>1511.33</ele>
        <time>2013-06-15T12:28:18Z</time>
      </trkpt>
      <trkpt lat="44.44132" lon="3.65927">
        <ele>1512.29</ele>
        <time>2013-06-15T12:28:27Z</time>
      </trkpt>
      <trkpt lat="44.44132" lon="3.65931">
        <ele>1512.77</ele>
        <time>2013-06-15T12:28:28Z</time>
      </trkpt>
      <trkpt lat="44.44132" lon="3.65935">
        <ele>1513.25</ele>
        <time>2013-06-15T12:28:29Z</time>
      </trkpt>
      <trkpt lat="44.44127" lon="3.6596">
        <ele>1507.48</ele>
        <time>2013-06-15T12:28:35Z</time>
      </trkpt>
      <trkpt lat="44.44126" lon="3.65964">
        <ele>1513.73</ele>
        <time>2013-06-15T12:28:36Z</time>
      </trkpt>
      <trkpt lat="44.44124" lon="3.65998">
        <ele>1514.69</ele>
        <time>2013-06-15T12:28:45Z</time>
      </trkpt>
      <trkpt lat="44.44109" lon="3.66028">
        <ele>1515.66</ele>
        <time>2013-06-15T12:28:54Z</time>
      </trkpt>
      <trkpt lat="44.44071" lon="3.66049">
        <ele>1515.66</ele>
        <time>2013-06-15T12:29:07Z</time>
      </trkpt>
      <trkpt lat="44.44048" lon="3.66059">
        <ele>1516.62</ele>
        <time>2013-06-15T12:29:15Z</time>
      </trkpt>
      <trkpt lat="44.44018" lon="3.66059">
        <ele>1517.1</ele>
        <time>2013-06-15T12:29:24Z</time>
      </trkpt>
      <trkpt lat="44.43987" lon="3.6606">
        <ele>1518.54</ele>
        <time>2013-06-15T12:29:34Z</time>
      </trkpt>
      <trkpt lat="44.43954" lon="3.66064">
        <ele>1519.5</ele>
        <time>2013-06-15T12:29:45Z</time>
      </trkpt>
      <trkpt lat="44.43923" lon="3.66069">
        <ele>1519.98</ele>
        <time>2013-06-15T12:29:55Z</time>
      </trkpt>
      <trkpt lat="44.43903" lon="3.66071">
        <ele>1516.62</ele>
        <time>2013-06-15T12:30:01Z</time>
      </trkpt>
      <trkpt lat="44.439" lon="3.66071">
        <ele>1521.42</ele>
        <time>2013-06-15T12:30:02Z</time>
      </trkpt>
      <trkpt lat="44.43867" lon="3.66068">
        <ele>1521.42</ele>
        <time>2013-06-15T12:30:12Z</time>
      </trkpt>
      <trkpt lat="44.43824" lon="3.66055">
        <ele>1522.39</ele>
        <time>2013-06-15T12:30:25Z</time>
      </trkpt>
      <trkpt lat="44.43789" lon="3.66059">
        <ele>1523.35</ele>
        <time>2013-06-15T12:30:35Z</time>
      </trkpt>
      <trkpt lat="44.43748" lon="3.66079">
        <ele>1524.31</ele>
        <time>2013-06-15T12:30:48Z</time>
      </trkpt>
      <trkpt lat="44.43734" lon="3.66111">
        <ele>1524.31</ele>
        <time>2013-06-15T12:30:57Z</time>
      </trkpt>
      <trkpt lat="44.43745" lon="3.66156">
        <ele>1524.79</ele>
        <time>2013-06-15T12:31:07Z</time>
      </trkpt>
      <trkpt lat="44.4376" lon="3.66202">
        <ele>1525.27</ele>
        <time>2013-06-15T12:31:17Z</time>
      </trkpt>
      <trkpt lat="44.4377" lon="3.66259">
        <ele>1525.27</ele>
        <time>2013-06-15T12:31:28Z</time>
      </trkpt>
      <trkpt lat="44.43767" lon="3.66322">
        <ele>1527.19</ele>
        <time>2013-06-15T12:31:40Z</time>
      </trkpt>
      <trkpt lat="44.43764" lon="3.66371">
        <ele>1528.15</ele>
        <time>2013-06-15T12:31:51Z</time>
      </trkpt>
      <trkpt lat="44.43759" lon="3.66426">
        <ele>1529.59</ele>
        <time>2013-06-15T12:32:03Z</time>
      </trkpt>
      <trkpt lat="44.4375" lon="3.66476">
        <ele>1530.56</ele>
        <time>2013-06-15T12:32:14Z</time>
      </trkpt>
      <trkpt lat="44.4374" lon="3.66525">
        <ele>1531.52</ele>
        <time>2013-06-15T12:32:25Z</time>
      </trkpt>
      <trkpt lat="44.4372" lon="3.66583">
        <ele>1532</ele>
        <time>2013-06-15T12:32:38Z</time>
      </trkpt>
      <trkpt lat="44.43686" lon="3.66642">
        <ele>1534.4</ele>
        <time>2013-06-15T12:32:53Z</time>
      </trkpt>
      <trkpt lat="44.43653" lon="3.6668">
        <ele>1535.84</ele>
        <time>2013-06-15T12:33:04Z</time>
      </trkpt>
      <trkpt lat="44.43608" lon="3.66721">
        <ele>1537.29</ele>
        <time>2013-06-15T12:33:19Z</time>
      </trkpt>
      <trkpt lat="44.43563" lon="3.66752">
        <ele>1538.73</ele>
        <time>2013-06-15T12:33:32Z</time>
      </trkpt>
      <trkpt lat="44.43518" lon="3.66776">
        <ele>1539.69</ele>
        <time>2013-06-15T12:33:45Z</time>
      </trkpt>
      <trkpt lat="44.43478" lon="3.66794">
        <ele>1541.13</ele>
        <time>2013-06-15T12:33:56Z</time>
      </trkpt>
      <trkpt lat="44.43441" lon="3.66814">
        <ele>1543.05</ele>
        <time>2013-06-15T12:34:07Z</time>
      </trkpt>
      <trkpt lat="44.43417" lon="3.66842">
        <ele>1544.01</ele>
        <time>2013-06-15T12:34:17Z</time>
      </trkpt>
      <trkpt lat="44.43408" lon="3.66897">
        <ele>1544.01</ele>
        <time>2013-06-15T12:34:29Z</time>
      </trkpt>
      <trkpt lat="44.43407" lon="3.66937">
        <ele>1544.5</ele>
        <time>2013-06-15T12:34:38Z</time>
      </trkpt>
      <trkpt lat="44.43413" lon="3.66996">
        <ele>1546.9</ele>
        <time>2013-06-15T12:34:50Z</time>
      </trkpt>
      <trkpt lat="44.4342" lon="3.67057">
        <ele>1547.86</ele>
        <time>2013-06-15T12:35:02Z</time>
      </trkpt>
      <trkpt lat="44.43427" lon="3.67114">
        <ele>1549.78</ele>
        <time>2013-06-15T12:35:14Z</time>
      </trkpt>
      <trkpt lat="44.4343" lon="3.67147">
        <ele>1550.26</ele>
        <time>2013-06-15T12:35:21Z</time>
      </trkpt>
      <trkpt lat="44.43446" lon="3.67204">
        <ele>1551.22</ele>
        <time>2013-06-15T12:35:33Z</time>
      </trkpt>
      <trkpt lat="44.43457" lon="3.6722">
        <ele>1552.19</ele>
        <time>2013-06-15T12:35:37Z</time>
      </trkpt>
      <trkpt lat="44.43466" lon="3.67232">
        <ele>1551.71</ele>
        <time>2013-06-15T12:35:40Z</time>
      </trkpt>
      <trkpt lat="44.43469" lon="3.67235">
        <ele>1551.71</ele>
        <time>2013-06-15T12:35:41Z</time>
      </trkpt>
      <trkpt lat="44.43475" lon="3.67242">
        <ele>1552.19</ele>
        <time>2013-06-15T12:35:43Z</time>
      </trkpt>
      <trkpt lat="44.43512" lon="3.67279">
        <ele>1552.67</ele>
        <time>2013-06-15T12:35:54Z</time>
      </trkpt>
      <trkpt lat="44.43515" lon="3.67283">
        <ele>1552.67</ele>
        <time>2013-06-15T12:35:55Z</time>
      </trkpt>
      <trkpt lat="44.43527" lon="3.67297">
        <ele>1553.15</ele>
        <time>2013-06-15T12:35:59Z</time>
      </trkpt>
      <trkpt lat="44.4353" lon="3.67301">
        <ele>1552.67</ele>
        <time>2013-06-15T12:36:00Z</time>
      </trkpt>
      <trkpt lat="44.43537" lon="3.67309">
        <ele>1553.15</ele>
        <time>2013-06-15T12:36:02Z</time>
      </trkpt>
      <trkpt lat="44.43575" lon="3.67345">
        <ele>1553.63</ele>
        <time>2013-06-15T12:36:13Z</time>
      </trkpt>
      <trkpt lat="44.43578" lon="3.67349">
        <ele>1553.15</ele>
        <time>2013-06-15T12:36:14Z</time>
      </trkpt>
      <trkpt lat="44.43604" lon="3.67395">
        <ele>1553.63</ele>
        <time>2013-06-15T12:36:24Z</time>
      </trkpt>
      <trkpt lat="44.43606" lon="3.674">
        <ele>1553.15</ele>
        <time>2013-06-15T12:36:25Z</time>
      </trkpt>
      <trkpt lat="44.43608" lon="3.67405">
        <ele>1553.63</ele>
        <time>2013-06-15T12:36:26Z</time>
      </trkpt>
      <trkpt lat="44.43609" lon="3.67411">
        <ele>1553.63</ele>
        <time>2013-06-15T12:36:27Z</time>
      </trkpt>
      <trkpt lat="44.43612" lon="3.67422">
        <ele>1553.63</ele>
        <time>2013-06-15T12:36:29Z</time>
      </trkpt>
      <trkpt lat="44.43613" lon="3.67428">
        <ele>1553.15</ele>
        <time>2013-06-15T12:36:30Z</time>
      </trkpt>
      <trkpt lat="44.43613" lon="3.67433">
        <ele>1553.15</ele>
        <time>2013-06-15T12:36:31Z</time>
      </trkpt>
      <trkpt lat="44.43614" lon="3.67439">
        <ele>1553.63</ele>
        <time>2013-06-15T12:36:32Z</time>
      </trkpt>
      <trkpt lat="44.43615" lon="3.67445">
        <ele>1554.11</ele>
        <time>2013-06-15T12:36:33Z</time>
      </trkpt>
      <trkpt lat="44.43618" lon="3.67479">
        <ele>1553.15</ele>
        <time>2013-06-15T12:36:39Z</time>
      </trkpt>
      <trkpt lat="44.43618" lon="3.67485">
        <ele>1553.63</ele>
        <time>2013-06-15T12:36:40Z</time>
      </trkpt>
      <trkpt lat="44.43618" lon="3.67491">
        <ele>1553.63</ele>
        <time>2013-06-15T12:36:41Z</time>
      </trkpt>
      <trkpt lat="44.43618" lon="3.67566">
        <ele>1553.15</ele>
        <time>2013-06-15T12:36:53Z</time>
      </trkpt>
      <trkpt lat="44.43618" lon="3.67579">
        <ele>1553.15</ele>
        <time>2013-06-15T12:36:55Z</time>
      </trkpt>
      <trkpt lat="44.43619" lon="3.6761">
        <ele>1553.15</ele>
        <time>2013-06-15T12:37:00Z</time>
      </trkpt>
      <trkpt lat="44.43619" lon="3.67616">
        <ele>1553.15</ele>
        <time>2013-06-15T12:37:01Z</time>
      </trkpt>
      <trkpt lat="44.4362" lon="3.67654">
        <ele>1553.15</ele>
        <time>2013-06-15T12:37:07Z</time>
      </trkpt>
      <trkpt lat="44.4362" lon="3.6766">
        <ele>1552.67</ele>
        <time>2013-06-15T12:37:08Z</time>
      </trkpt>
      <trkpt lat="44.43621" lon="3.67708">
        <ele>1554.11</ele>
        <time>2013-06-15T12:37:17Z</time>
      </trkpt>
      <trkpt lat="44.4362" lon="3.67756">
        <ele>1553.63</ele>
        <time>2013-06-15T12:37:26Z</time>
      </trkpt>
      <trkpt lat="44.43618" lon="3.678">
        <ele>1553.63</ele>
        <time>2013-06-15T12:37:36Z</time>
      </trkpt>
      <trkpt lat="44.43615" lon="3.67823">
        <ele>1553.15</ele>
        <time>2013-06-15T12:37:44Z</time>
      </trkpt>
      <trkpt lat="44.43615" lon="3.67829">
        <ele>1553.63</ele>
        <time>2013-06-15T12:37:56Z</time>
      </trkpt>
      <trkpt lat="44.43614" lon="3.67828">
        <ele>1553.63</ele>
        <time>2013-06-15T12:38:21Z</time>
      </trkpt>
      <trkpt lat="44.43615" lon="3.67828">
        <ele>1553.63</ele>
        <time>2013-06-15T12:38:50Z</time>
      </trkpt>
      <trkpt lat="44.43616" lon="3.67828">
        <ele>1554.11</ele>
        <time>2013-06-15T12:39:17Z</time>
      </trkpt>
      <trkpt lat="44.43615" lon="3.67828">
        <ele>1554.11</ele>
        <time>2013-06-15T12:39:41Z</time>
      </trkpt>
      <trkpt lat="44.43615" lon="3.67828">
        <ele>1554.11</ele>
        <time>2013-06-15T12:40:07Z</time>
      </trkpt>
      <trkpt lat="44.43616" lon="3.67828">
        <ele>1554.59</ele>
        <time>2013-06-15T12:40:35Z</time>
      </trkpt>
      <trkpt lat="44.43615" lon="3.67828">
        <ele>1554.59</ele>
        <time>2013-06-15T12:41:02Z</time>
      </trkpt>
      <trkpt lat="44.43615" lon="3.67828">
        <ele>1555.55</ele>
        <time>2013-06-15T12:41:34Z</time>
      </trkpt>
      <trkpt lat="44.43616" lon="3.67828">
        <ele>1555.07</ele>
        <time>2013-06-15T12:42:11Z</time>
      </trkpt>
      <trkpt lat="44.43615" lon="3.67828">
        <ele>1555.07</ele>
        <time>2013-06-15T12:42:43Z</time>
      </trkpt>
      <trkpt lat="44.43615" lon="3.67828">
        <ele>1555.55</ele>
        <time>2013-06-15T12:43:13Z</time>
      </trkpt>
      <trkpt lat="44.43615" lon="3.67828">
        <ele>1555.55</ele>
        <time>2013-06-15T12:43:41Z</time>
      </trkpt>
      <trkpt lat="44.43615" lon="3.67827">
        <ele>1555.55</ele>
        <time>2013-06-15T12:44:08Z</time>
      </trkpt>
      <trkpt lat="44.43615" lon="3.67827">
        <ele>1555.55</ele>
        <time>2013-06-15T12:44:34Z</time>
      </trkpt>
      <trkpt lat="44.43615" lon="3.67827">
        <ele>1556.03</ele>
        <time>2013-06-15T12:45:06Z</time>
      </trkpt>
      <trkpt lat="44.43616" lon="3.67828">
        <ele>1556.03</ele>
        <time>2013-06-15T12:45:40Z</time>
      </trkpt>
      <trkpt lat="44.43616" lon="3.67828">
        <ele>1556.03</ele>
        <time>2013-06-15T12:46:09Z</time>
      </trkpt>
      <trkpt lat="44.43616" lon="3.67829">
        <ele>1556.51</ele>
        <time>2013-06-15T12:46:12Z</time>
      </trkpt>
      <trkpt lat="44.43615" lon="3.67831">
        <ele>1556.03</ele>
        <time>2013-06-15T12:46:13Z</time>
      </trkpt>
      <trkpt lat="44.43614" lon="3.67832">
        <ele>1556.03</ele>
        <time>2013-06-15T12:46:14Z</time>
      </trkpt>
      <trkpt lat="44.43614" lon="3.67835">
        <ele>1556.03</ele>
        <time>2013-06-15T12:46:15Z</time>
      </trkpt>
      <trkpt lat="44.43613" lon="3.67838">
        <ele>1548.82</ele>
        <time>2013-06-15T12:46:16Z</time>
      </trkpt>
      <trkpt lat="44.43612" lon="3.67841">
        <ele>1556.51</ele>
        <time>2013-06-15T12:46:17Z</time>
      </trkpt>
      <trkpt lat="44.43598" lon="3.67883">
        <ele>1554.59</ele>
        <time>2013-06-15T12:46:26Z</time>
      </trkpt>
      <trkpt lat="44.43569" lon="3.67962">
        <ele>1552.19</ele>
        <time>2013-06-15T12:46:39Z</time>
      </trkpt>
      <trkpt lat="44.43531" lon="3.6803">
        <ele>1549.78</ele>
        <time>2013-06-15T12:46:51Z</time>
      </trkpt>
      <trkpt lat="44.43515" lon="3.68058">
        <ele>1549.3</ele>
        <time>2013-06-15T12:46:56Z</time>
      </trkpt>
      <trkpt lat="44.43508" lon="3.68083">
        <ele>1549.3</ele>
        <time>2013-06-15T12:47:00Z</time>
      </trkpt>
      <trkpt lat="44.43508" lon="3.6809">
        <ele>1549.3</ele>
        <time>2013-06-15T12:47:01Z</time>
      </trkpt>
      <trkpt lat="44.43509" lon="3.68095">
        <ele>1549.3</ele>
        <time>2013-06-15T12:47:02Z</time>
      </trkpt>
      <trkpt lat="44.43515" lon="3.68118">
        <ele>1549.78</ele>
        <time>2013-06-15T12:47:06Z</time>
      </trkpt>
      <trkpt lat="44.43535" lon="3.68155">
        <ele>1549.3</ele>
        <time>2013-06-15T12:47:14Z</time>
      </trkpt>
      <trkpt lat="44.43537" lon="3.6816">
        <ele>1549.78</ele>
        <time>2013-06-15T12:47:15Z</time>
      </trkpt>
      <trkpt lat="44.4354" lon="3.68165">
        <ele>1549.78</ele>
        <time>2013-06-15T12:47:16Z</time>
      </trkpt>
      <trkpt lat="44.43543" lon="3.68169">
        <ele>1549.78</ele>
        <time>2013-06-15T12:47:17Z</time>
      </trkpt>
      <trkpt lat="44.43546" lon="3.68173">
        <ele>1549.78</ele>
        <time>2013-06-15T12:47:18Z</time>
      </trkpt>
      <trkpt lat="44.43549" lon="3.68178">
        <ele>1549.3</ele>
        <time>2013-06-15T12:47:19Z</time>
      </trkpt>
      <trkpt lat="44.43575" lon="3.68213">
        <ele>1549.78</ele>
        <time>2013-06-15T12:47:29Z</time>
      </trkpt>
      <trkpt lat="44.43593" lon="3.68234">
        <ele>1549.3</ele>
        <time>2013-06-15T12:47:35Z</time>
      </trkpt>
      <trkpt lat="44.43596" lon="3.68239">
        <ele>1549.3</ele>
        <time>2013-06-15T12:47:36Z</time>
      </trkpt>
      <trkpt lat="44.43604" lon="3.68253">
        <ele>1541.61</ele>
        <time>2013-06-15T12:47:39Z</time>
      </trkpt>
      <trkpt lat="44.43606" lon="3.68259">
        <ele>1549.78</ele>
        <time>2013-06-15T12:47:40Z</time>
      </trkpt>
      <trkpt lat="44.4361" lon="3.68271">
        <ele>1555.55</ele>
        <time>2013-06-15T12:47:42Z</time>
      </trkpt>
      <trkpt lat="44.43612" lon="3.68277">
        <ele>1548.82</ele>
        <time>2013-06-15T12:47:43Z</time>
      </trkpt>
      <trkpt lat="44.43613" lon="3.68283">
        <ele>1548.82</ele>
        <time>2013-06-15T12:47:44Z</time>
      </trkpt>
      <trkpt lat="44.43624" lon="3.68334">
        <ele>1547.38</ele>
        <time>2013-06-15T12:47:51Z</time>
      </trkpt>
      <trkpt lat="44.43641" lon="3.68405">
        <ele>1545.94</ele>
        <time>2013-06-15T12:48:01Z</time>
      </trkpt>
      <trkpt lat="44.43643" lon="3.68426">
        <ele>1545.46</ele>
        <time>2013-06-15T12:48:04Z</time>
      </trkpt>
      <trkpt lat="44.43634" lon="3.68504">
        <ele>1543.53</ele>
        <time>2013-06-15T12:48:14Z</time>
      </trkpt>
      <trkpt lat="44.43629" lon="3.68579">
        <ele>1539.21</ele>
        <time>2013-06-15T12:48:23Z</time>
      </trkpt>
      <trkpt lat="44.43629" lon="3.68587">
        <ele>1542.57</ele>
        <time>2013-06-15T12:48:24Z</time>
      </trkpt>
      <trkpt lat="44.43622" lon="3.68682">
        <ele>1540.65</ele>
        <time>2013-06-15T12:48:35Z</time>
      </trkpt>
      <trkpt lat="44.4362" lon="3.6869">
        <ele>1540.17</ele>
        <time>2013-06-15T12:48:36Z</time>
      </trkpt>
      <trkpt lat="44.43618" lon="3.68698">
        <ele>1540.17</ele>
        <time>2013-06-15T12:48:37Z</time>
      </trkpt>
      <trkpt lat="44.43616" lon="3.68706">
        <ele>1539.69</ele>
        <time>2013-06-15T12:48:38Z</time>
      </trkpt>
      <trkpt lat="44.43615" lon="3.68715">
        <ele>1539.69</ele>
        <time>2013-06-15T12:48:39Z</time>
      </trkpt>
      <trkpt lat="44.43615" lon="3.68723">
        <ele>1539.21</ele>
        <time>2013-06-15T12:48:40Z</time>
      </trkpt>
      <trkpt lat="44.43616" lon="3.68732">
        <ele>1539.21</ele>
        <time>2013-06-15T12:48:41Z</time>
      </trkpt>
      <trkpt lat="44.43617" lon="3.6874">
        <ele>1539.21</ele>
        <time>2013-06-15T12:48:42Z</time>
      </trkpt>
      <trkpt lat="44.43625" lon="3.6879">
        <ele>1537.77</ele>
        <time>2013-06-15T12:48:48Z</time>
      </trkpt>
      <trkpt lat="44.43625" lon="3.68798">
        <ele>1537.77</ele>
        <time>2013-06-15T12:48:49Z</time>
      </trkpt>
      <trkpt lat="44.43623" lon="3.68805">
        <ele>1537.29</ele>
        <time>2013-06-15T12:48:50Z</time>
      </trkpt>
      <trkpt lat="44.43621" lon="3.6881">
        <ele>1537.77</ele>
        <time>2013-06-15T12:48:51Z</time>
      </trkpt>
      <trkpt lat="44.43619" lon="3.68814">
        <ele>1538.25</ele>
        <time>2013-06-15T12:48:52Z</time>
      </trkpt>
      <trkpt lat="44.43618" lon="3.68817">
        <ele>1538.25</ele>
        <time>2013-06-15T12:48:53Z</time>
      </trkpt>
      <trkpt lat="44.43616" lon="3.68819">
        <ele>1538.73</ele>
        <time>2013-06-15T12:48:54Z</time>
      </trkpt>
      <trkpt lat="44.43615" lon="3.68822">
        <ele>1538.73</ele>
        <time>2013-06-15T12:48:55Z</time>
      </trkpt>
      <trkpt lat="44.43602" lon="3.68848">
        <ele>1540.17</ele>
        <time>2013-06-15T12:49:04Z</time>
      </trkpt>
      <trkpt lat="44.43591" lon="3.68875">
        <ele>1541.13</ele>
        <time>2013-06-15T12:49:14Z</time>
      </trkpt>
      <trkpt lat="44.43579" lon="3.68903">
        <ele>1542.09</ele>
        <time>2013-06-15T12:49:24Z</time>
      </trkpt>
      <trkpt lat="44.43577" lon="3.68908">
        <ele>1542.57</ele>
        <time>2013-06-15T12:49:26Z</time>
      </trkpt>
      <trkpt lat="44.43568" lon="3.68934">
        <ele>1544.01</ele>
        <time>2013-06-15T12:49:36Z</time>
      </trkpt>
      <trkpt lat="44.43564" lon="3.68946">
        <ele>1544.98</ele>
        <time>2013-06-15T12:49:41Z</time>
      </trkpt>
      <trkpt lat="44.43561" lon="3.68951">
        <ele>1544.5</ele>
        <time>2013-06-15T12:49:43Z</time>
      </trkpt>
      <trkpt lat="44.4355" lon="3.68978">
        <ele>1546.42</ele>
        <time>2013-06-15T12:49:53Z</time>
      </trkpt>
      <trkpt lat="44.43539" lon="3.69004">
        <ele>1546.9</ele>
        <time>2013-06-15T12:50:03Z</time>
      </trkpt>
      <trkpt lat="44.43525" lon="3.69033">
        <ele>1548.34</ele>
        <time>2013-06-15T12:50:15Z</time>
      </trkpt>
      <trkpt lat="44.43515" lon="3.69058">
        <ele>1548.82</ele>
        <time>2013-06-15T12:50:24Z</time>
      </trkpt>
      <trkpt lat="44.43504" lon="3.69086">
        <ele>1550.26</ele>
        <time>2013-06-15T12:50:35Z</time>
      </trkpt>
      <trkpt lat="44.43493" lon="3.69104">
        <ele>1551.71</ele>
        <time>2013-06-15T12:50:43Z</time>
      </trkpt>
      <trkpt lat="44.43483" lon="3.69128">
        <ele>1551.71</ele>
        <time>2013-06-15T12:50:53Z</time>
      </trkpt>
      <trkpt lat="44.43473" lon="3.69146">
        <ele>1553.15</ele>
        <time>2013-06-15T12:51:01Z</time>
      </trkpt>
      <trkpt lat="44.43455" lon="3.69175">
        <ele>1555.07</ele>
        <time>2013-06-15T12:51:14Z</time>
      </trkpt>
      <trkpt lat="44.43436" lon="3.692">
        <ele>1556.03</ele>
        <time>2013-06-15T12:51:25Z</time>
      </trkpt>
      <trkpt lat="44.43421" lon="3.69219">
        <ele>1557.95</ele>
        <time>2013-06-15T12:51:35Z</time>
      </trkpt>
      <trkpt lat="44.43406" lon="3.69237">
        <ele>1559.88</ele>
        <time>2013-06-15T12:51:45Z</time>
      </trkpt>
      <trkpt lat="44.43392" lon="3.69252">
        <ele>1560.84</ele>
        <time>2013-06-15T12:51:53Z</time>
      </trkpt>
      <trkpt lat="44.43381" lon="3.69263">
        <ele>1556.51</ele>
        <time>2013-06-15T12:51:59Z</time>
      </trkpt>
      <trkpt lat="44.43379" lon="3.69265">
        <ele>1561.8</ele>
        <time>2013-06-15T12:52:00Z</time>
      </trkpt>
      <trkpt lat="44.43367" lon="3.69282">
        <ele>1562.76</ele>
        <time>2013-06-15T12:52:09Z</time>
      </trkpt>
      <trkpt lat="44.43356" lon="3.69291">
        <ele>1563.24</ele>
        <time>2013-06-15T12:52:17Z</time>
      </trkpt>
      <trkpt lat="44.43346" lon="3.693">
        <ele>1563.24</ele>
        <time>2013-06-15T12:52:25Z</time>
      </trkpt>
      <trkpt lat="44.43344" lon="3.69302">
        <ele>1563.24</ele>
        <time>2013-06-15T12:52:27Z</time>
      </trkpt>
      <trkpt lat="44.43339" lon="3.69308">
        <ele>1563.72</ele>
        <time>2013-06-15T12:52:36Z</time>
      </trkpt>
      <trkpt lat="44.43338" lon="3.69309">
        <ele>1569.49</ele>
        <time>2013-06-15T12:52:39Z</time>
      </trkpt>
      <trkpt lat="44.43338" lon="3.69309">
        <ele>1562.28</ele>
        <time>2013-06-15T12:52:40Z</time>
      </trkpt>
      <trkpt lat="44.43338" lon="3.69309">
        <ele>1564.2</ele>
        <time>2013-06-15T12:53:03Z</time>
      </trkpt>
      <trkpt lat="44.43339" lon="3.69309">
        <ele>1565.16</ele>
        <time>2013-06-15T12:53:10Z</time>
      </trkpt>
      <trkpt lat="44.43341" lon="3.6931">
        <ele>1564.68</ele>
        <time>2013-06-15T12:53:17Z</time>
      </trkpt>
      <trkpt lat="44.43343" lon="3.69321">
        <ele>1566.61</ele>
        <time>2013-06-15T12:53:27Z</time>
      </trkpt>
      <trkpt lat="44.43343" lon="3.69322">
        <ele>1566.61</ele>
        <time>2013-06-15T12:53:28Z</time>
      </trkpt>
      <trkpt lat="44.43351" lon="3.69328">
        <ele>1568.53</ele>
        <time>2013-06-15T12:53:38Z</time>
      </trkpt>
      <trkpt lat="44.43352" lon="3.6933">
        <ele>1568.53</ele>
        <time>2013-06-15T12:53:40Z</time>
      </trkpt>
      <trkpt lat="44.43353" lon="3.69332">
        <ele>1569.01</ele>
        <time>2013-06-15T12:53:42Z</time>
      </trkpt>
      <trkpt lat="44.43356" lon="3.69337">
        <ele>1569.97</ele>
        <time>2013-06-15T12:53:46Z</time>
      </trkpt>
      <trkpt lat="44.43359" lon="3.69341">
        <ele>1569.97</ele>
        <time>2013-06-15T12:53:50Z</time>
      </trkpt>
      <trkpt lat="44.4336" lon="3.69343">
        <ele>1569.97</ele>
        <time>2013-06-15T12:53:52Z</time>
      </trkpt>
      <trkpt lat="44.43367" lon="3.69356">
        <ele>1571.89</ele>
        <time>2013-06-15T12:54:04Z</time>
      </trkpt>
      <trkpt lat="44.43369" lon="3.6936">
        <ele>1572.85</ele>
        <time>2013-06-15T12:54:08Z</time>
      </trkpt>
      <trkpt lat="44.43375" lon="3.6937">
        <ele>1573.33</ele>
        <time>2013-06-15T12:54:19Z</time>
      </trkpt>
      <trkpt lat="44.43382" lon="3.69383">
        <ele>1576.7</ele>
        <time>2013-06-15T12:54:32Z</time>
      </trkpt>
      <trkpt lat="44.43389" lon="3.69392">
        <ele>1577.18</ele>
        <time>2013-06-15T12:54:42Z</time>
      </trkpt>
      <trkpt lat="44.43394" lon="3.69396">
        <ele>1578.62</ele>
        <time>2013-06-15T12:54:48Z</time>
      </trkpt>
      <trkpt lat="44.43401" lon="3.69406">
        <ele>1580.54</ele>
        <time>2013-06-15T12:55:00Z</time>
      </trkpt>
      <trkpt lat="44.43403" lon="3.69411">
        <ele>1581.03</ele>
        <time>2013-06-15T12:55:05Z</time>
      </trkpt>
      <trkpt lat="44.43408" lon="3.69419">
        <ele>1582.95</ele>
        <time>2013-06-15T12:55:15Z</time>
      </trkpt>
      <trkpt lat="44.43412" lon="3.69423">
        <ele>1583.43</ele>
        <time>2013-06-15T12:55:19Z</time>
      </trkpt>
      <trkpt lat="44.43417" lon="3.69425">
        <ele>1584.39</ele>
        <time>2013-06-15T12:55:24Z</time>
      </trkpt>
      <trkpt lat="44.43425" lon="3.69431">
        <ele>1585.83</ele>
        <time>2013-06-15T12:55:34Z</time>
      </trkpt>
      <trkpt lat="44.43428" lon="3.69437">
        <ele>1586.31</ele>
        <time>2013-06-15T12:55:40Z</time>
      </trkpt>
      <trkpt lat="44.43435" lon="3.69448">
        <ele>1588.24</ele>
        <time>2013-06-15T12:55:51Z</time>
      </trkpt>
      <trkpt lat="44.43444" lon="3.69458">
        <ele>1590.16</ele>
        <time>2013-06-15T12:56:03Z</time>
      </trkpt>
      <trkpt lat="44.43451" lon="3.69466">
        <ele>1591.12</ele>
        <time>2013-06-15T12:56:12Z</time>
      </trkpt>
      <trkpt lat="44.43452" lon="3.69468">
        <ele>1591.12</ele>
        <time>2013-06-15T12:56:14Z</time>
      </trkpt>
      <trkpt lat="44.4346" lon="3.69477">
        <ele>1593.04</ele>
        <time>2013-06-15T12:56:25Z</time>
      </trkpt>
      <trkpt lat="44.43467" lon="3.69486">
        <ele>1594</ele>
        <time>2013-06-15T12:56:35Z</time>
      </trkpt>
      <trkpt lat="44.43478" lon="3.69496">
        <ele>1596.41</ele>
        <time>2013-06-15T12:56:48Z</time>
      </trkpt>
      <trkpt lat="44.43479" lon="3.69498">
        <ele>1596.89</ele>
        <time>2013-06-15T12:56:50Z</time>
      </trkpt>
      <trkpt lat="44.43481" lon="3.69499">
        <ele>1596.41</ele>
        <time>2013-06-15T12:56:52Z</time>
      </trkpt>
      <trkpt lat="44.43487" lon="3.69507">
        <ele>1598.81</ele>
        <time>2013-06-15T12:57:01Z</time>
      </trkpt>
      <trkpt lat="44.43489" lon="3.69509">
        <ele>1599.29</ele>
        <time>2013-06-15T12:57:04Z</time>
      </trkpt>
      <trkpt lat="44.43492" lon="3.69513">
        <ele>1599.29</ele>
        <time>2013-06-15T12:57:07Z</time>
      </trkpt>
      <trkpt lat="44.43501" lon="3.69522">
        <ele>1599.77</ele>
        <time>2013-06-15T12:57:18Z</time>
      </trkpt>
      <trkpt lat="44.4351" lon="3.69533">
        <ele>1601.69</ele>
        <time>2013-06-15T12:57:29Z</time>
      </trkpt>
      <trkpt lat="44.43515" lon="3.69539">
        <ele>1602.17</ele>
        <time>2013-06-15T12:57:40Z</time>
      </trkpt>
      <trkpt lat="44.43516" lon="3.6954">
        <ele>1602.66</ele>
        <time>2013-06-15T12:57:50Z</time>
      </trkpt>
      <trkpt lat="44.43516" lon="3.6954">
        <ele>1601.69</ele>
        <time>2013-06-15T12:57:54Z</time>
      </trkpt>
      <trkpt lat="44.43514" lon="3.69544">
        <ele>1602.17</ele>
        <time>2013-06-15T12:57:57Z</time>
      </trkpt>
      <trkpt lat="44.43512" lon="3.69547">
        <ele>1603.14</ele>
        <time>2013-06-15T12:58:01Z</time>
      </trkpt>
      <trkpt lat="44.43507" lon="3.69561">
        <ele>1604.58</ele>
        <time>2013-06-15T12:58:12Z</time>
      </trkpt>
      <trkpt lat="44.43505" lon="3.69576">
        <ele>1606.5</ele>
        <time>2013-06-15T12:58:22Z</time>
      </trkpt>
      <trkpt lat="44.43505" lon="3.69581">
        <ele>1606.98</ele>
        <time>2013-06-15T12:58:26Z</time>
      </trkpt>
      <trkpt lat="44.43504" lon="3.69587">
        <ele>1606.98</ele>
        <time>2013-06-15T12:58:30Z</time>
      </trkpt>
      <trkpt lat="44.435" lon="3.69603">
        <ele>1608.9</ele>
        <time>2013-06-15T12:58:43Z</time>
      </trkpt>
      <trkpt lat="44.43495" lon="3.69618">
        <ele>1610.35</ele>
        <time>2013-06-15T12:58:55Z</time>
      </trkpt>
      <trkpt lat="44.43493" lon="3.69624">
        <ele>1610.83</ele>
        <time>2013-06-15T12:59:00Z</time>
      </trkpt>
      <trkpt lat="44.43487" lon="3.69634">
        <ele>1611.79</ele>
        <time>2013-06-15T12:59:10Z</time>
      </trkpt>
      <trkpt lat="44.43487" lon="3.69636">
        <ele>1612.27</ele>
        <time>2013-06-15T12:59:11Z</time>
      </trkpt>
      <trkpt lat="44.43486" lon="3.69643">
        <ele>1612.75</ele>
        <time>2013-06-15T12:59:17Z</time>
      </trkpt>
      <trkpt lat="44.43477" lon="3.69652">
        <ele>1614.19</ele>
        <time>2013-06-15T12:59:28Z</time>
      </trkpt>
      <trkpt lat="44.43474" lon="3.69655">
        <ele>1615.15</ele>
        <time>2013-06-15T12:59:31Z</time>
      </trkpt>
      <trkpt lat="44.43474" lon="3.69657">
        <ele>1615.63</ele>
        <time>2013-06-15T12:59:33Z</time>
      </trkpt>
      <trkpt lat="44.43472" lon="3.69659">
        <ele>1615.15</ele>
        <time>2013-06-15T12:59:35Z</time>
      </trkpt>
      <trkpt lat="44.4347" lon="3.69665">
        <ele>1615.63</ele>
        <time>2013-06-15T12:59:40Z</time>
      </trkpt>
      <trkpt lat="44.43468" lon="3.69667">
        <ele>1616.11</ele>
        <time>2013-06-15T12:59:42Z</time>
      </trkpt>
      <trkpt lat="44.43463" lon="3.6968">
        <ele>1617.56</ele>
        <time>2013-06-15T12:59:52Z</time>
      </trkpt>
      <trkpt lat="44.43462" lon="3.69682">
        <ele>1617.56</ele>
        <time>2013-06-15T12:59:54Z</time>
      </trkpt>
      <trkpt lat="44.43457" lon="3.69697">
        <ele>1618.52</ele>
        <time>2013-06-15T13:00:05Z</time>
      </trkpt>
      <trkpt lat="44.43456" lon="3.69699">
        <ele>1619</ele>
        <time>2013-06-15T13:00:07Z</time>
      </trkpt>
      <trkpt lat="44.43452" lon="3.69718">
        <ele>1620.44</ele>
        <time>2013-06-15T13:00:18Z</time>
      </trkpt>
      <trkpt lat="44.43449" lon="3.69737">
        <ele>1622.36</ele>
        <time>2013-06-15T13:00:30Z</time>
      </trkpt>
      <trkpt lat="44.43448" lon="3.69741">
        <ele>1623.32</ele>
        <time>2013-06-15T13:00:38Z</time>
      </trkpt>
      <trkpt lat="44.43446" lon="3.6974">
        <ele>1622.36</ele>
        <time>2013-06-15T13:00:45Z</time>
      </trkpt>
      <trkpt lat="44.43447" lon="3.69739">
        <ele>1621.88</ele>
        <time>2013-06-15T13:01:24Z</time>
      </trkpt>
      <trkpt lat="44.43447" lon="3.69739">
        <ele>1623.32</ele>
        <time>2013-06-15T13:01:42Z</time>
      </trkpt>
      <trkpt lat="44.43447" lon="3.6974">
        <ele>1623.32</ele>
        <time>2013-06-15T13:01:52Z</time>
      </trkpt>
      <trkpt lat="44.43448" lon="3.69755">
        <ele>1625.73</ele>
        <time>2013-06-15T13:02:03Z</time>
      </trkpt>
      <trkpt lat="44.43447" lon="3.69767">
        <ele>1627.17</ele>
        <time>2013-06-15T13:02:12Z</time>
      </trkpt>
      <trkpt lat="44.43445" lon="3.69771">
        <ele>1628.13</ele>
        <time>2013-06-15T13:02:17Z</time>
      </trkpt>
      <trkpt lat="44.43441" lon="3.69783">
        <ele>1630.53</ele>
        <time>2013-06-15T13:02:28Z</time>
      </trkpt>
      <trkpt lat="44.43437" lon="3.6979">
        <ele>1631.98</ele>
        <time>2013-06-15T13:02:37Z</time>
      </trkpt>
      <trkpt lat="44.43431" lon="3.69793">
        <ele>1634.38</ele>
        <time>2013-06-15T13:02:48Z</time>
      </trkpt>
      <trkpt lat="44.43426" lon="3.69796">
        <ele>1636.3</ele>
        <time>2013-06-15T13:02:56Z</time>
      </trkpt>
      <trkpt lat="44.43423" lon="3.69797">
        <ele>1636.3</ele>
        <time>2013-06-15T13:03:00Z</time>
      </trkpt>
      <trkpt lat="44.43416" lon="3.698">
        <ele>1638.22</ele>
        <time>2013-06-15T13:03:10Z</time>
      </trkpt>
      <trkpt lat="44.43411" lon="3.69803">
        <ele>1639.67</ele>
        <time>2013-06-15T13:03:20Z</time>
      </trkpt>
      <trkpt lat="44.43405" lon="3.69807">
        <ele>1641.59</ele>
        <time>2013-06-15T13:03:29Z</time>
      </trkpt>
      <trkpt lat="44.43403" lon="3.69808">
        <ele>1642.55</ele>
        <time>2013-06-15T13:03:32Z</time>
      </trkpt>
      <trkpt lat="44.43399" lon="3.6981">
        <ele>1643.51</ele>
        <time>2013-06-15T13:03:38Z</time>
      </trkpt>
      <trkpt lat="44.43392" lon="3.69813">
        <ele>1643.99</ele>
        <time>2013-06-15T13:03:47Z</time>
      </trkpt>
      <trkpt lat="44.43387" lon="3.69817">
        <ele>1645.43</ele>
        <time>2013-06-15T13:03:56Z</time>
      </trkpt>
      <trkpt lat="44.43381" lon="3.69819">
        <ele>1646.88</ele>
        <time>2013-06-15T13:04:04Z</time>
      </trkpt>
      <trkpt lat="44.43378" lon="3.6982">
        <ele>1647.36</ele>
        <time>2013-06-15T13:04:08Z</time>
      </trkpt>
      <trkpt lat="44.43375" lon="3.69821">
        <ele>1647.84</ele>
        <time>2013-06-15T13:04:11Z</time>
      </trkpt>
      <trkpt lat="44.43372" lon="3.69823">
        <ele>1647.84</ele>
        <time>2013-06-15T13:04:14Z</time>
      </trkpt>
      <trkpt lat="44.4337" lon="3.69826">
        <ele>1648.32</ele>
        <time>2013-06-15T13:04:17Z</time>
      </trkpt>
      <trkpt lat="44.43369" lon="3.69828">
        <ele>1648.8</ele>
        <time>2013-06-15T13:04:19Z</time>
      </trkpt>
      <trkpt lat="44.43363" lon="3.69832">
        <ele>1649.76</ele>
        <time>2013-06-15T13:04:25Z</time>
      </trkpt>
      <trkpt lat="44.43362" lon="3.69836">
        <ele>1649.76</ele>
        <time>2013-06-15T13:04:28Z</time>
      </trkpt>
      <trkpt lat="44.43352" lon="3.69846">
        <ele>1650.72</ele>
        <time>2013-06-15T13:04:39Z</time>
      </trkpt>
      <trkpt lat="44.43342" lon="3.69857">
        <ele>1651.68</ele>
        <time>2013-06-15T13:04:50Z</time>
      </trkpt>
      <trkpt lat="44.43336" lon="3.69867">
        <ele>1652.64</ele>
        <time>2013-06-15T13:04:59Z</time>
      </trkpt>
      <trkpt lat="44.43326" lon="3.69877">
        <ele>1652.64</ele>
        <time>2013-06-15T13:05:10Z</time>
      </trkpt>
      <trkpt lat="44.43325" lon="3.69879">
        <ele>1653.12</ele>
        <time>2013-06-15T13:05:12Z</time>
      </trkpt>
      <trkpt lat="44.43321" lon="3.69881">
        <ele>1652.64</ele>
        <time>2013-06-15T13:05:16Z</time>
      </trkpt>
      <trkpt lat="44.43318" lon="3.69887">
        <ele>1653.6</ele>
        <time>2013-06-15T13:05:27Z</time>
      </trkpt>
      <trkpt lat="44.43318" lon="3.69889">
        <ele>1652.16</ele>
        <time>2013-06-15T13:05:34Z</time>
      </trkpt>
      <trkpt lat="44.43318" lon="3.69888">
        <ele>1655.53</ele>
        <time>2013-06-15T13:05:36Z</time>
      </trkpt>
      <trkpt lat="44.43318" lon="3.69888">
        <ele>1658.41</ele>
        <time>2013-06-15T13:05:37Z</time>
      </trkpt>
      <trkpt lat="44.43318" lon="3.69888">
        <ele>1653.12</ele>
        <time>2013-06-15T13:05:38Z</time>
      </trkpt>
      <trkpt lat="44.43318" lon="3.69888">
        <ele>1649.76</ele>
        <time>2013-06-15T13:05:41Z</time>
      </trkpt>
      <trkpt lat="44.43318" lon="3.69888">
        <ele>1653.6</ele>
        <time>2013-06-15T13:05:42Z</time>
      </trkpt>
      <trkpt lat="44.43318" lon="3.69888">
        <ele>1653.12</ele>
        <time>2013-06-15T13:05:43Z</time>
      </trkpt>
      <trkpt lat="44.43318" lon="3.69888">
        <ele>1649.76</ele>
        <time>2013-06-15T13:05:56Z</time>
      </trkpt>
      <trkpt lat="44.43318" lon="3.69888">
        <ele>1654.09</ele>
        <time>2013-06-15T13:05:57Z</time>
      </trkpt>
      <trkpt lat="44.43315" lon="3.69891">
        <ele>1653.12</ele>
        <time>2013-06-15T13:06:12Z</time>
      </trkpt>
      <trkpt lat="44.43307" lon="3.69912">
        <ele>1652.16</ele>
        <time>2013-06-15T13:06:21Z</time>
      </trkpt>
      <trkpt lat="44.43295" lon="3.69945">
        <ele>1652.16</ele>
        <time>2013-06-15T13:06:29Z</time>
      </trkpt>
      <trkpt lat="44.43281" lon="3.69976">
        <ele>1651.68</ele>
        <time>2013-06-15T13:06:38Z</time>
      </trkpt>
      <trkpt lat="44.43273" lon="3.7">
        <ele>1652.64</ele>
        <time>2013-06-15T13:06:46Z</time>
      </trkpt>
      <trkpt lat="44.43265" lon="3.7003">
        <ele>1653.12</ele>
        <time>2013-06-15T13:06:57Z</time>
      </trkpt>
      <trkpt lat="44.43262" lon="3.70048">
        <ele>1652.64</ele>
        <time>2013-06-15T13:07:05Z</time>
      </trkpt>
      <trkpt lat="44.4326" lon="3.70055">
        <ele>1651.68</ele>
        <time>2013-06-15T13:07:12Z</time>
      </trkpt>
      <trkpt lat="44.43257" lon="3.70064">
        <ele>1652.16</ele>
        <time>2013-06-15T13:07:20Z</time>
      </trkpt>
      <trkpt lat="44.43255" lon="3.70078">
        <ele>1650.72</ele>
        <time>2013-06-15T13:07:30Z</time>
      </trkpt>
      <trkpt lat="44.43254" lon="3.70083">
        <ele>1650.24</ele>
        <time>2013-06-15T13:07:33Z</time>
      </trkpt>
      <trkpt lat="44.43249" lon="3.70095">
        <ele>1649.28</ele>
        <time>2013-06-15T13:07:37Z</time>
      </trkpt>
      <trkpt lat="44.43244" lon="3.70118">
        <ele>1647.36</ele>
        <time>2013-06-15T13:07:43Z</time>
      </trkpt>
      <trkpt lat="44.43236" lon="3.70148">
        <ele>1645.43</ele>
        <time>2013-06-15T13:07:48Z</time>
      </trkpt>
      <trkpt lat="44.43232" lon="3.70161">
        <ele>1644.95</ele>
        <time>2013-06-15T13:07:50Z</time>
      </trkpt>
      <trkpt lat="44.43224" lon="3.70182">
        <ele>1644.47</ele>
        <time>2013-06-15T13:07:54Z</time>
      </trkpt>
      <trkpt lat="44.43213" lon="3.70214">
        <ele>1643.03</ele>
        <time>2013-06-15T13:08:00Z</time>
      </trkpt>
      <trkpt lat="44.4321" lon="3.70238">
        <ele>1642.07</ele>
        <time>2013-06-15T13:08:04Z</time>
      </trkpt>
      <trkpt lat="44.43202" lon="3.7029">
        <ele>1641.59</ele>
        <time>2013-06-15T13:08:12Z</time>
      </trkpt>
      <trkpt lat="44.43199" lon="3.70316">
        <ele>1641.11</ele>
        <time>2013-06-15T13:08:16Z</time>
      </trkpt>
      <trkpt lat="44.43198" lon="3.70373">
        <ele>1640.15</ele>
        <time>2013-06-15T13:08:24Z</time>
      </trkpt>
      <trkpt lat="44.43197" lon="3.70387">
        <ele>1639.67</ele>
        <time>2013-06-15T13:08:26Z</time>
      </trkpt>
      <trkpt lat="44.43188" lon="3.70442">
        <ele>1641.11</ele>
        <time>2013-06-15T13:08:37Z</time>
      </trkpt>
      <trkpt lat="44.43182" lon="3.70473">
        <ele>1641.59</ele>
        <time>2013-06-15T13:08:46Z</time>
      </trkpt>
      <trkpt lat="44.43178" lon="3.70509">
        <ele>1643.51</ele>
        <time>2013-06-15T13:08:56Z</time>
      </trkpt>
      <trkpt lat="44.43175" lon="3.70541">
        <ele>1645.43</ele>
        <time>2013-06-15T13:09:06Z</time>
      </trkpt>
      <trkpt lat="44.43169" lon="3.70569">
        <ele>1645.91</ele>
        <time>2013-06-15T13:09:16Z</time>
      </trkpt>
      <trkpt lat="44.43169" lon="3.70571">
        <ele>1646.4</ele>
        <time>2013-06-15T13:09:17Z</time>
      </trkpt>
      <trkpt lat="44.43166" lon="3.70593">
        <ele>1647.36</ele>
        <time>2013-06-15T13:09:26Z</time>
      </trkpt>
      <trkpt lat="44.43166" lon="3.70607">
        <ele>1648.32</ele>
        <time>2013-06-15T13:09:33Z</time>
      </trkpt>
      <trkpt lat="44.43162" lon="3.70624">
        <ele>1650.24</ele>
        <time>2013-06-15T13:09:41Z</time>
      </trkpt>
      <trkpt lat="44.43157" lon="3.70646">
        <ele>1649.76</ele>
        <time>2013-06-15T13:09:51Z</time>
      </trkpt>
      <trkpt lat="44.43157" lon="3.70651">
        <ele>1649.76</ele>
        <time>2013-06-15T13:09:53Z</time>
      </trkpt>
      <trkpt lat="44.43156" lon="3.70663">
        <ele>1650.24</ele>
        <time>2013-06-15T13:10:03Z</time>
      </trkpt>
      <trkpt lat="44.43156" lon="3.70667">
        <ele>1649.76</ele>
        <time>2013-06-15T13:10:07Z</time>
      </trkpt>
      <trkpt lat="44.43151" lon="3.70676">
        <ele>1650.24</ele>
        <time>2013-06-15T13:10:15Z</time>
      </trkpt>
      <trkpt lat="44.4315" lon="3.70683">
        <ele>1649.76</ele>
        <time>2013-06-15T13:10:24Z</time>
      </trkpt>
      <trkpt lat="44.43142" lon="3.70707">
        <ele>1647.84</ele>
        <time>2013-06-15T13:10:33Z</time>
      </trkpt>
      <trkpt lat="44.43137" lon="3.7072">
        <ele>1647.84</ele>
        <time>2013-06-15T13:10:37Z</time>
      </trkpt>
      <trkpt lat="44.43129" lon="3.70758">
        <ele>1646.4</ele>
        <time>2013-06-15T13:10:47Z</time>
      </trkpt>
      <trkpt lat="44.43124" lon="3.70772">
        <ele>1645.91</ele>
        <time>2013-06-15T13:10:51Z</time>
      </trkpt>
      <trkpt lat="44.43122" lon="3.70773">
        <ele>1645.43</ele>
        <time>2013-06-15T13:11:00Z</time>
      </trkpt>
      <trkpt lat="44.43122" lon="3.70773">
        <ele>1645.91</ele>
        <time>2013-06-15T13:11:19Z</time>
      </trkpt>
      <trkpt lat="44.4312" lon="3.70775">
        <ele>1645.43</ele>
        <time>2013-06-15T13:11:32Z</time>
      </trkpt>
      <trkpt lat="44.43121" lon="3.70777">
        <ele>1644.95</ele>
        <time>2013-06-15T13:11:35Z</time>
      </trkpt>
      <trkpt lat="44.43121" lon="3.70782">
        <ele>1643.99</ele>
        <time>2013-06-15T13:11:39Z</time>
      </trkpt>
      <trkpt lat="44.43121" lon="3.70785">
        <ele>1643.99</ele>
        <time>2013-06-15T13:11:41Z</time>
      </trkpt>
      <trkpt lat="44.43116" lon="3.70796">
        <ele>1643.03</ele>
        <time>2013-06-15T13:11:48Z</time>
      </trkpt>
      <trkpt lat="44.43112" lon="3.70807">
        <ele>1641.59</ele>
        <time>2013-06-15T13:11:57Z</time>
      </trkpt>
      <trkpt lat="44.4311" lon="3.7081">
        <ele>1640.63</ele>
        <time>2013-06-15T13:12:00Z</time>
      </trkpt>
      <trkpt lat="44.4311" lon="3.70814">
        <ele>1634.38</ele>
        <time>2013-06-15T13:12:04Z</time>
      </trkpt>
      <trkpt lat="44.4311" lon="3.70814">
        <ele>1641.11</ele>
        <time>2013-06-15T13:12:05Z</time>
      </trkpt>
      <trkpt lat="44.4311" lon="3.70814">
        <ele>1640.63</ele>
        <time>2013-06-15T13:12:08Z</time>
      </trkpt>
      <trkpt lat="44.43115" lon="3.70827">
        <ele>1639.19</ele>
        <time>2013-06-15T13:12:13Z</time>
      </trkpt>
      <trkpt lat="44.4312" lon="3.70873">
        <ele>1634.38</ele>
        <time>2013-06-15T13:12:21Z</time>
      </trkpt>
      <trkpt lat="44.43121" lon="3.70884">
        <ele>1633.42</ele>
        <time>2013-06-15T13:12:23Z</time>
      </trkpt>
      <trkpt lat="44.43121" lon="3.70891">
        <ele>1632.94</ele>
        <time>2013-06-15T13:12:24Z</time>
      </trkpt>
      <trkpt lat="44.4312" lon="3.70913">
        <ele>1630.53</ele>
        <time>2013-06-15T13:12:27Z</time>
      </trkpt>
      <trkpt lat="44.43116" lon="3.70945">
        <ele>1628.13</ele>
        <time>2013-06-15T13:12:31Z</time>
      </trkpt>
      <trkpt lat="44.43115" lon="3.70969">
        <ele>1624.77</ele>
        <time>2013-06-15T13:12:34Z</time>
      </trkpt>
      <trkpt lat="44.43113" lon="3.71005">
        <ele>1621.88</ele>
        <time>2013-06-15T13:12:38Z</time>
      </trkpt>
      <trkpt lat="44.43113" lon="3.71014">
        <ele>1620.92</ele>
        <time>2013-06-15T13:12:39Z</time>
      </trkpt>
      <trkpt lat="44.43109" lon="3.71053">
        <ele>1618.04</ele>
        <time>2013-06-15T13:12:43Z</time>
      </trkpt>
      <trkpt lat="44.43108" lon="3.71093">
        <ele>1615.63</ele>
        <time>2013-06-15T13:12:47Z</time>
      </trkpt>
      <trkpt lat="44.43107" lon="3.71139">
        <ele>1613.23</ele>
        <time>2013-06-15T13:12:52Z</time>
      </trkpt>
      <trkpt lat="44.43103" lon="3.71188">
        <ele>1611.31</ele>
        <time>2013-06-15T13:12:58Z</time>
      </trkpt>
      <trkpt lat="44.43098" lon="3.71232">
        <ele>1611.79</ele>
        <time>2013-06-15T13:13:07Z</time>
      </trkpt>
      <trkpt lat="44.43096" lon="3.71261">
        <ele>1612.27</ele>
        <time>2013-06-15T13:13:17Z</time>
      </trkpt>
      <trkpt lat="44.43095" lon="3.71294">
        <ele>1612.75</ele>
        <time>2013-06-15T13:13:29Z</time>
      </trkpt>
      <trkpt lat="44.43094" lon="3.71328">
        <ele>1613.23</ele>
        <time>2013-06-15T13:13:41Z</time>
      </trkpt>
      <trkpt lat="44.43095" lon="3.71351">
        <ele>1614.67</ele>
        <time>2013-06-15T13:13:50Z</time>
      </trkpt>
      <trkpt lat="44.43095" lon="3.71364">
        <ele>1615.15</ele>
        <time>2013-06-15T13:13:56Z</time>
      </trkpt>
      <trkpt lat="44.43096" lon="3.71392">
        <ele>1616.59</ele>
        <time>2013-06-15T13:14:09Z</time>
      </trkpt>
      <trkpt lat="44.43097" lon="3.71412">
        <ele>1613.23</ele>
        <time>2013-06-15T13:14:18Z</time>
      </trkpt>
      <trkpt lat="44.43097" lon="3.71414">
        <ele>1618.52</ele>
        <time>2013-06-15T13:14:19Z</time>
      </trkpt>
      <trkpt lat="44.43096" lon="3.71416">
        <ele>1618.52</ele>
        <time>2013-06-15T13:14:20Z</time>
      </trkpt>
      <trkpt lat="44.43096" lon="3.71424">
        <ele>1619.48</ele>
        <time>2013-06-15T13:14:24Z</time>
      </trkpt>
      <trkpt lat="44.43095" lon="3.71434">
        <ele>1619.96</ele>
        <time>2013-06-15T13:14:29Z</time>
      </trkpt>
      <trkpt lat="44.43095" lon="3.71442">
        <ele>1620.44</ele>
        <time>2013-06-15T13:14:33Z</time>
      </trkpt>
      <trkpt lat="44.43095" lon="3.71453">
        <ele>1621.4</ele>
        <time>2013-06-15T13:14:39Z</time>
      </trkpt>
      <trkpt lat="44.43094" lon="3.7146">
        <ele>1621.4</ele>
        <time>2013-06-15T13:14:43Z</time>
      </trkpt>
      <trkpt lat="44.43095" lon="3.71471">
        <ele>1623.32</ele>
        <time>2013-06-15T13:14:49Z</time>
      </trkpt>
      <trkpt lat="44.43094" lon="3.71481">
        <ele>1623.8</ele>
        <time>2013-06-15T13:14:56Z</time>
      </trkpt>
      <trkpt lat="44.43094" lon="3.71486">
        <ele>1624.28</ele>
        <time>2013-06-15T13:14:59Z</time>
      </trkpt>
      <trkpt lat="44.43094" lon="3.71497">
        <ele>1625.73</ele>
        <time>2013-06-15T13:15:06Z</time>
      </trkpt>
      <trkpt lat="44.4309" lon="3.71517">
        <ele>1627.65</ele>
        <time>2013-06-15T13:15:18Z</time>
      </trkpt>
      <trkpt lat="44.4309" lon="3.71527">
        <ele>1629.09</ele>
        <time>2013-06-15T13:15:24Z</time>
      </trkpt>
      <trkpt lat="44.43089" lon="3.71533">
        <ele>1629.57</ele>
        <time>2013-06-15T13:15:28Z</time>
      </trkpt>
      <trkpt lat="44.43087" lon="3.71546">
        <ele>1631.49</ele>
        <time>2013-06-15T13:15:36Z</time>
      </trkpt>
      <trkpt lat="44.43087" lon="3.71552">
        <ele>1631.98</ele>
        <time>2013-06-15T13:15:40Z</time>
      </trkpt>
      <trkpt lat="44.43086" lon="3.7156">
        <ele>1632.46</ele>
        <time>2013-06-15T13:15:45Z</time>
      </trkpt>
      <trkpt lat="44.43086" lon="3.71567">
        <ele>1632.94</ele>
        <time>2013-06-15T13:15:49Z</time>
      </trkpt>
      <trkpt lat="44.43084" lon="3.71576">
        <ele>1634.38</ele>
        <time>2013-06-15T13:15:54Z</time>
      </trkpt>
      <trkpt lat="44.43083" lon="3.71587">
        <ele>1635.82</ele>
        <time>2013-06-15T13:16:00Z</time>
      </trkpt>
      <trkpt lat="44.43083" lon="3.7159">
        <ele>1636.3</ele>
        <time>2013-06-15T13:16:02Z</time>
      </trkpt>
      <trkpt lat="44.43083" lon="3.71598">
        <ele>1636.78</ele>
        <time>2013-06-15T13:16:07Z</time>
      </trkpt>
      <trkpt lat="44.4308" lon="3.71616">
        <ele>1638.7</ele>
        <time>2013-06-15T13:16:18Z</time>
      </trkpt>
      <trkpt lat="44.43079" lon="3.71622">
        <ele>1639.67</ele>
        <time>2013-06-15T13:16:21Z</time>
      </trkpt>
      <trkpt lat="44.43076" lon="3.71628">
        <ele>1640.63</ele>
        <time>2013-06-15T13:16:25Z</time>
      </trkpt>
      <trkpt lat="44.43076" lon="3.71634">
        <ele>1641.11</ele>
        <time>2013-06-15T13:16:29Z</time>
      </trkpt>
      <trkpt lat="44.43078" lon="3.7164">
        <ele>1641.59</ele>
        <time>2013-06-15T13:16:33Z</time>
      </trkpt>
      <trkpt lat="44.43077" lon="3.71656">
        <ele>1643.51</ele>
        <time>2013-06-15T13:16:43Z</time>
      </trkpt>
      <trkpt lat="44.43077" lon="3.71676">
        <ele>1645.43</ele>
        <time>2013-06-15T13:16:54Z</time>
      </trkpt>
      <trkpt lat="44.43076" lon="3.7169">
        <ele>1646.4</ele>
        <time>2013-06-15T13:17:03Z</time>
      </trkpt>
      <trkpt lat="44.43076" lon="3.71702">
        <ele>1646.88</ele>
        <time>2013-06-15T13:17:10Z</time>
      </trkpt>
      <trkpt lat="44.43076" lon="3.71708">
        <ele>1647.84</ele>
        <time>2013-06-15T13:17:14Z</time>
      </trkpt>
      <trkpt lat="44.43076" lon="3.71712">
        <ele>1647.84</ele>
        <time>2013-06-15T13:17:16Z</time>
      </trkpt>
      <trkpt lat="44.43074" lon="3.71737">
        <ele>1650.24</ele>
        <time>2013-06-15T13:17:31Z</time>
      </trkpt>
      <trkpt lat="44.43074" lon="3.71744">
        <ele>1650.72</ele>
        <time>2013-06-15T13:17:36Z</time>
      </trkpt>
      <trkpt lat="44.43074" lon="3.71747">
        <ele>1650.72</ele>
        <time>2013-06-15T13:17:38Z</time>
      </trkpt>
      <trkpt lat="44.43073" lon="3.71752">
        <ele>1651.2</ele>
        <time>2013-06-15T13:17:41Z</time>
      </trkpt>
      <trkpt lat="44.43075" lon="3.71759">
        <ele>1651.2</ele>
        <time>2013-06-15T13:17:45Z</time>
      </trkpt>
      <trkpt lat="44.43075" lon="3.71769">
        <ele>1652.64</ele>
        <time>2013-06-15T13:17:51Z</time>
      </trkpt>
      <trkpt lat="44.43076" lon="3.7179">
        <ele>1654.57</ele>
        <time>2013-06-15T13:18:03Z</time>
      </trkpt>
      <trkpt lat="44.43076" lon="3.71794">
        <ele>1654.57</ele>
        <time>2013-06-15T13:18:05Z</time>
      </trkpt>
      <trkpt lat="44.43076" lon="3.71803">
        <ele>1655.53</ele>
        <time>2013-06-15T13:18:11Z</time>
      </trkpt>
      <trkpt lat="44.43076" lon="3.71809">
        <ele>1656.01</ele>
        <time>2013-06-15T13:18:14Z</time>
      </trkpt>
      <trkpt lat="44.43077" lon="3.7183">
        <ele>1657.93</ele>
        <time>2013-06-15T13:18:26Z</time>
      </trkpt>
      <trkpt lat="44.43077" lon="3.71836">
        <ele>1657.93</ele>
        <time>2013-06-15T13:18:30Z</time>
      </trkpt>
      <trkpt lat="44.43077" lon="3.71857">
        <ele>1660.81</ele>
        <time>2013-06-15T13:18:43Z</time>
      </trkpt>
      <trkpt lat="44.43077" lon="3.71872">
        <ele>1661.3</ele>
        <time>2013-06-15T13:18:51Z</time>
      </trkpt>
      <trkpt lat="44.43077" lon="3.71879">
        <ele>1662.26</ele>
        <time>2013-06-15T13:18:55Z</time>
      </trkpt>
      <trkpt lat="44.43075" lon="3.71903">
        <ele>1663.7</ele>
        <time>2013-06-15T13:19:07Z</time>
      </trkpt>
      <trkpt lat="44.43075" lon="3.71927">
        <ele>1665.14</ele>
        <time>2013-06-15T13:19:18Z</time>
      </trkpt>
      <trkpt lat="44.43075" lon="3.71931">
        <ele>1665.62</ele>
        <time>2013-06-15T13:19:20Z</time>
      </trkpt>
      <trkpt lat="44.43074" lon="3.71952">
        <ele>1667.54</ele>
        <time>2013-06-15T13:19:30Z</time>
      </trkpt>
      <trkpt lat="44.43074" lon="3.71959">
        <ele>1667.06</ele>
        <time>2013-06-15T13:19:33Z</time>
      </trkpt>
      <trkpt lat="44.43075" lon="3.71973">
        <ele>1668.51</ele>
        <time>2013-06-15T13:19:40Z</time>
      </trkpt>
      <trkpt lat="44.43076" lon="3.72008">
        <ele>1670.43</ele>
        <time>2013-06-15T13:19:53Z</time>
      </trkpt>
      <trkpt lat="44.43076" lon="3.72037">
        <ele>1672.83</ele>
        <time>2013-06-15T13:20:05Z</time>
      </trkpt>
      <trkpt lat="44.43072" lon="3.7207">
        <ele>1673.31</ele>
        <time>2013-06-15T13:20:19Z</time>
      </trkpt>
      <trkpt lat="44.43069" lon="3.72091">
        <ele>1673.79</ele>
        <time>2013-06-15T13:20:26Z</time>
      </trkpt>
      <trkpt lat="44.43058" lon="3.72121">
        <ele>1673.79</ele>
        <time>2013-06-15T13:20:38Z</time>
      </trkpt>
      <trkpt lat="44.4305" lon="3.72154">
        <ele>1672.83</ele>
        <time>2013-06-15T13:20:47Z</time>
      </trkpt>
      <trkpt lat="44.43037" lon="3.72183">
        <ele>1670.91</ele>
        <time>2013-06-15T13:20:55Z</time>
      </trkpt>
      <trkpt lat="44.43027" lon="3.72224">
        <ele>1669.95</ele>
        <time>2013-06-15T13:21:05Z</time>
      </trkpt>
      <trkpt lat="44.43015" lon="3.72266">
        <ele>1669.47</ele>
        <time>2013-06-15T13:21:16Z</time>
      </trkpt>
      <trkpt lat="44.4301" lon="3.72294">
        <ele>1669.95</ele>
        <time>2013-06-15T13:21:24Z</time>
      </trkpt>
      <trkpt lat="44.43002" lon="3.72325">
        <ele>1670.91</ele>
        <time>2013-06-15T13:21:34Z</time>
      </trkpt>
      <trkpt lat="44.42989" lon="3.72358">
        <ele>1670.43</ele>
        <time>2013-06-15T13:21:44Z</time>
      </trkpt>
      <trkpt lat="44.42982" lon="3.72392">
        <ele>1670.43</ele>
        <time>2013-06-15T13:21:54Z</time>
      </trkpt>
      <trkpt lat="44.42976" lon="3.72422">
        <ele>1670.91</ele>
        <time>2013-06-15T13:22:04Z</time>
      </trkpt>
      <trkpt lat="44.42975" lon="3.72453">
        <ele>1670.43</ele>
        <time>2013-06-15T13:22:14Z</time>
      </trkpt>
      <trkpt lat="44.42974" lon="3.72492">
        <ele>1670.91</ele>
        <time>2013-06-15T13:22:28Z</time>
      </trkpt>
      <trkpt lat="44.42975" lon="3.72515">
        <ele>1671.87</ele>
        <time>2013-06-15T13:22:38Z</time>
      </trkpt>
      <trkpt lat="44.42975" lon="3.72533">
        <ele>1672.83</ele>
        <time>2013-06-15T13:22:46Z</time>
      </trkpt>
      <trkpt lat="44.42976" lon="3.72546">
        <ele>1673.79</ele>
        <time>2013-06-15T13:22:53Z</time>
      </trkpt>
      <trkpt lat="44.42976" lon="3.72568">
        <ele>1675.23</ele>
        <time>2013-06-15T13:23:04Z</time>
      </trkpt>
      <trkpt lat="44.42976" lon="3.72583">
        <ele>1675.72</ele>
        <time>2013-06-15T13:23:13Z</time>
      </trkpt>
      <trkpt lat="44.42975" lon="3.72596">
        <ele>1677.16</ele>
        <time>2013-06-15T13:23:21Z</time>
      </trkpt>
      <trkpt lat="44.42976" lon="3.72605">
        <ele>1677.64</ele>
        <time>2013-06-15T13:23:26Z</time>
      </trkpt>
      <trkpt lat="44.42976" lon="3.72622">
        <ele>1680.04</ele>
        <time>2013-06-15T13:23:36Z</time>
      </trkpt>
      <trkpt lat="44.42979" lon="3.72626">
        <ele>1679.56</ele>
        <time>2013-06-15T13:23:39Z</time>
      </trkpt>
      <trkpt lat="44.4298" lon="3.7263">
        <ele>1681</ele>
        <time>2013-06-15T13:23:41Z</time>
      </trkpt>
      <trkpt lat="44.42978" lon="3.72645">
        <ele>1682.44</ele>
        <time>2013-06-15T13:23:49Z</time>
      </trkpt>
      <trkpt lat="44.42981" lon="3.72655">
        <ele>1682.93</ele>
        <time>2013-06-15T13:23:55Z</time>
      </trkpt>
      <trkpt lat="44.42984" lon="3.72659">
        <ele>1683.41</ele>
        <time>2013-06-15T13:23:58Z</time>
      </trkpt>
      <trkpt lat="44.42985" lon="3.72663">
        <ele>1683.89</ele>
        <time>2013-06-15T13:24:01Z</time>
      </trkpt>
      <trkpt lat="44.42984" lon="3.72669">
        <ele>1684.37</ele>
        <time>2013-06-15T13:24:05Z</time>
      </trkpt>
      <trkpt lat="44.42987" lon="3.72675">
        <ele>1683.89</ele>
        <time>2013-06-15T13:24:09Z</time>
      </trkpt>
      <trkpt lat="44.42992" lon="3.72679">
        <ele>1684.85</ele>
        <time>2013-06-15T13:24:18Z</time>
      </trkpt>
      <trkpt lat="44.42994" lon="3.72681">
        <ele>1684.85</ele>
        <time>2013-06-15T13:24:25Z</time>
      </trkpt>
      <trkpt lat="44.42993" lon="3.72682">
        <ele>1685.33</ele>
        <time>2013-06-15T13:24:38Z</time>
      </trkpt>
      <trkpt lat="44.42993" lon="3.72682">
        <ele>1685.33</ele>
        <time>2013-06-15T13:24:41Z</time>
      </trkpt>
      <trkpt lat="44.4299" lon="3.72686">
        <ele>1685.33</ele>
        <time>2013-06-15T13:24:49Z</time>
      </trkpt>
      <trkpt lat="44.42986" lon="3.72698">
        <ele>1684.85</ele>
        <time>2013-06-15T13:24:56Z</time>
      </trkpt>
      <trkpt lat="44.42967" lon="3.7273">
        <ele>1686.29</ele>
        <time>2013-06-15T13:25:06Z</time>
      </trkpt>
      <trkpt lat="44.42964" lon="3.72738">
        <ele>1683.41</ele>
        <time>2013-06-15T13:25:08Z</time>
      </trkpt>
      <trkpt lat="44.42946" lon="3.7278">
        <ele>1682.44</ele>
        <time>2013-06-15T13:25:18Z</time>
      </trkpt>
      <trkpt lat="44.42928" lon="3.72818">
        <ele>1681</ele>
        <time>2013-06-15T13:25:26Z</time>
      </trkpt>
      <trkpt lat="44.42908" lon="3.72857">
        <ele>1680.52</ele>
        <time>2013-06-15T13:25:35Z</time>
      </trkpt>
      <trkpt lat="44.42906" lon="3.72862">
        <ele>1680.52</ele>
        <time>2013-06-15T13:25:36Z</time>
      </trkpt>
      <trkpt lat="44.42904" lon="3.72867">
        <ele>1680.04</ele>
        <time>2013-06-15T13:25:37Z</time>
      </trkpt>
      <trkpt lat="44.42902" lon="3.72871">
        <ele>1680.52</ele>
        <time>2013-06-15T13:25:38Z</time>
      </trkpt>
      <trkpt lat="44.42899" lon="3.72876">
        <ele>1680.04</ele>
        <time>2013-06-15T13:25:39Z</time>
      </trkpt>
      <trkpt lat="44.4288" lon="3.72911">
        <ele>1679.56</ele>
        <time>2013-06-15T13:25:48Z</time>
      </trkpt>
      <trkpt lat="44.42866" lon="3.7294">
        <ele>1679.56</ele>
        <time>2013-06-15T13:25:56Z</time>
      </trkpt>
      <trkpt lat="44.42856" lon="3.72959">
        <ele>1679.08</ele>
        <time>2013-06-15T13:26:03Z</time>
      </trkpt>
      <trkpt lat="44.42854" lon="3.72968">
        <ele>1685.33</ele>
        <time>2013-06-15T13:26:06Z</time>
      </trkpt>
      <trkpt lat="44.42853" lon="3.72971">
        <ele>1672.83</ele>
        <time>2013-06-15T13:26:07Z</time>
      </trkpt>
      <trkpt lat="44.42852" lon="3.72974">
        <ele>1681.96</ele>
        <time>2013-06-15T13:26:08Z</time>
      </trkpt>
      <trkpt lat="44.42851" lon="3.7298">
        <ele>1668.51</ele>
        <time>2013-06-15T13:26:10Z</time>
      </trkpt>
      <trkpt lat="44.42849" lon="3.72982">
        <ele>1683.41</ele>
        <time>2013-06-15T13:26:11Z</time>
      </trkpt>
      <trkpt lat="44.42848" lon="3.72985">
        <ele>1679.56</ele>
        <time>2013-06-15T13:26:12Z</time>
      </trkpt>
      <trkpt lat="44.42839" lon="3.73017">
        <ele>1680.04</ele>
        <time>2013-06-15T13:26:24Z</time>
      </trkpt>
      <trkpt lat="44.42828" lon="3.73038">
        <ele>1680.52</ele>
        <time>2013-06-15T13:26:34Z</time>
      </trkpt>
      <trkpt lat="44.42821" lon="3.73051">
        <ele>1681</ele>
        <time>2013-06-15T13:26:40Z</time>
      </trkpt>
      <trkpt lat="44.42821" lon="3.73053">
        <ele>1681.48</ele>
        <time>2013-06-15T13:26:41Z</time>
      </trkpt>
      <trkpt lat="44.4282" lon="3.73055">
        <ele>1681.48</ele>
        <time>2013-06-15T13:26:42Z</time>
      </trkpt>
      <trkpt lat="44.4281" lon="3.7308">
        <ele>1681.96</ele>
        <time>2013-06-15T13:26:54Z</time>
      </trkpt>
      <trkpt lat="44.42809" lon="3.7309">
        <ele>1682.44</ele>
        <time>2013-06-15T13:27:00Z</time>
      </trkpt>
      <trkpt lat="44.42808" lon="3.73092">
        <ele>1682.44</ele>
        <time>2013-06-15T13:27:01Z</time>
      </trkpt>
      <trkpt lat="44.42808" lon="3.73094">
        <ele>1682.93</ele>
        <time>2013-06-15T13:27:02Z</time>
      </trkpt>
      <trkpt lat="44.42807" lon="3.73096">
        <ele>1682.93</ele>
        <time>2013-06-15T13:27:03Z</time>
      </trkpt>
      <trkpt lat="44.42807" lon="3.73097">
        <ele>1682.44</ele>
        <time>2013-06-15T13:27:04Z</time>
      </trkpt>
      <trkpt lat="44.42807" lon="3.73099">
        <ele>1682.93</ele>
        <time>2013-06-15T13:27:05Z</time>
      </trkpt>
      <trkpt lat="44.42806" lon="3.731">
        <ele>1684.85</ele>
        <time>2013-06-15T13:27:06Z</time>
      </trkpt>
      <trkpt lat="44.42806" lon="3.73102">
        <ele>1681.48</ele>
        <time>2013-06-15T13:27:07Z</time>
      </trkpt>
      <trkpt lat="44.42806" lon="3.73103">
        <ele>1686.29</ele>
        <time>2013-06-15T13:27:08Z</time>
      </trkpt>
      <trkpt lat="44.42806" lon="3.73105">
        <ele>1682.93</ele>
        <time>2013-06-15T13:27:09Z</time>
      </trkpt>
      <trkpt lat="44.42806" lon="3.73106">
        <ele>1683.89</ele>
        <time>2013-06-15T13:27:10Z</time>
      </trkpt>
      <trkpt lat="44.42806" lon="3.73108">
        <ele>1683.89</ele>
        <time>2013-06-15T13:27:11Z</time>
      </trkpt>
      <trkpt lat="44.42806" lon="3.7311">
        <ele>1683.41</ele>
        <time>2013-06-15T13:27:12Z</time>
      </trkpt>
      <trkpt lat="44.42805" lon="3.73112">
        <ele>1683.89</ele>
        <time>2013-06-15T13:27:13Z</time>
      </trkpt>
      <trkpt lat="44.42799" lon="3.73121">
        <ele>1684.85</ele>
        <time>2013-06-15T13:27:20Z</time>
      </trkpt>
      <trkpt lat="44.42799" lon="3.73123">
        <ele>1684.85</ele>
        <time>2013-06-15T13:27:21Z</time>
      </trkpt>
      <trkpt lat="44.42799" lon="3.73124">
        <ele>1685.33</ele>
        <time>2013-06-15T13:27:22Z</time>
      </trkpt>
      <trkpt lat="44.42799" lon="3.73126">
        <ele>1684.85</ele>
        <time>2013-06-15T13:27:23Z</time>
      </trkpt>
      <trkpt lat="44.428" lon="3.73127">
        <ele>1685.33</ele>
        <time>2013-06-15T13:27:24Z</time>
      </trkpt>
      <trkpt lat="44.428" lon="3.73129">
        <ele>1685.33</ele>
        <time>2013-06-15T13:27:25Z</time>
      </trkpt>
      <trkpt lat="44.42801" lon="3.7313">
        <ele>1685.33</ele>
        <time>2013-06-15T13:27:26Z</time>
      </trkpt>
      <trkpt lat="44.42801" lon="3.73132">
        <ele>1685.33</ele>
        <time>2013-06-15T13:27:27Z</time>
      </trkpt>
      <trkpt lat="44.42802" lon="3.73133">
        <ele>1685.33</ele>
        <time>2013-06-15T13:27:28Z</time>
      </trkpt>
      <trkpt lat="44.42804" lon="3.73138">
        <ele>1685.81</ele>
        <time>2013-06-15T13:27:31Z</time>
      </trkpt>
      <trkpt lat="44.42803" lon="3.73139">
        <ele>1685.33</ele>
        <time>2013-06-15T13:27:32Z</time>
      </trkpt>
      <trkpt lat="44.42803" lon="3.73141">
        <ele>1686.29</ele>
        <time>2013-06-15T13:27:33Z</time>
      </trkpt>
      <trkpt lat="44.428" lon="3.73145">
        <ele>1686.77</ele>
        <time>2013-06-15T13:27:36Z</time>
      </trkpt>
      <trkpt lat="44.42799" lon="3.73146">
        <ele>1686.77</ele>
        <time>2013-06-15T13:27:37Z</time>
      </trkpt>
      <trkpt lat="44.42798" lon="3.73148">
        <ele>1687.25</ele>
        <time>2013-06-15T13:27:38Z</time>
      </trkpt>
      <trkpt lat="44.42797" lon="3.7315">
        <ele>1687.25</ele>
        <time>2013-06-15T13:27:39Z</time>
      </trkpt>
      <trkpt lat="44.42795" lon="3.73151">
        <ele>1687.25</ele>
        <time>2013-06-15T13:27:40Z</time>
      </trkpt>
      <trkpt lat="44.42794" lon="3.73152">
        <ele>1687.25</ele>
        <time>2013-06-15T13:27:41Z</time>
      </trkpt>
      <trkpt lat="44.42793" lon="3.73154">
        <ele>1687.73</ele>
        <time>2013-06-15T13:27:42Z</time>
      </trkpt>
      <trkpt lat="44.42792" lon="3.73155">
        <ele>1687.73</ele>
        <time>2013-06-15T13:27:43Z</time>
      </trkpt>
      <trkpt lat="44.42784" lon="3.73167">
        <ele>1689.17</ele>
        <time>2013-06-15T13:27:50Z</time>
      </trkpt>
      <trkpt lat="44.42783" lon="3.73169">
        <ele>1689.65</ele>
        <time>2013-06-15T13:27:51Z</time>
      </trkpt>
      <trkpt lat="44.42782" lon="3.73171">
        <ele>1689.65</ele>
        <time>2013-06-15T13:27:52Z</time>
      </trkpt>
      <trkpt lat="44.42781" lon="3.73172">
        <ele>1689.65</ele>
        <time>2013-06-15T13:27:53Z</time>
      </trkpt>
      <trkpt lat="44.4278" lon="3.73174">
        <ele>1689.17</ele>
        <time>2013-06-15T13:27:54Z</time>
      </trkpt>
      <trkpt lat="44.42779" lon="3.73175">
        <ele>1689.65</ele>
        <time>2013-06-15T13:27:55Z</time>
      </trkpt>
      <trkpt lat="44.42778" lon="3.73177">
        <ele>1690.14</ele>
        <time>2013-06-15T13:27:56Z</time>
      </trkpt>
      <trkpt lat="44.42777" lon="3.73179">
        <ele>1690.62</ele>
        <time>2013-06-15T13:27:57Z</time>
      </trkpt>
      <trkpt lat="44.42768" lon="3.73196">
        <ele>1690.14</ele>
        <time>2013-06-15T13:28:06Z</time>
      </trkpt>
      <trkpt lat="44.42757" lon="3.73214">
        <ele>1690.14</ele>
        <time>2013-06-15T13:28:15Z</time>
      </trkpt>
      <trkpt lat="44.42746" lon="3.73236">
        <ele>1691.1</ele>
        <time>2013-06-15T13:28:26Z</time>
      </trkpt>
      <trkpt lat="44.42738" lon="3.73255">
        <ele>1692.06</ele>
        <time>2013-06-15T13:28:36Z</time>
      </trkpt>
      <trkpt lat="44.42738" lon="3.73261">
        <ele>1692.54</ele>
        <time>2013-06-15T13:28:39Z</time>
      </trkpt>
      <trkpt lat="44.42737" lon="3.73263">
        <ele>1692.54</ele>
        <time>2013-06-15T13:28:40Z</time>
      </trkpt>
      <trkpt lat="44.42737" lon="3.73265">
        <ele>1693.02</ele>
        <time>2013-06-15T13:28:41Z</time>
      </trkpt>
      <trkpt lat="44.42736" lon="3.73268">
        <ele>1692.54</ele>
        <time>2013-06-15T13:28:42Z</time>
      </trkpt>
      <trkpt lat="44.42737" lon="3.7327">
        <ele>1692.54</ele>
        <time>2013-06-15T13:28:43Z</time>
      </trkpt>
      <trkpt lat="44.42736" lon="3.73273">
        <ele>1692.54</ele>
        <time>2013-06-15T13:28:44Z</time>
      </trkpt>
      <trkpt lat="44.42736" lon="3.73274">
        <ele>1692.54</ele>
        <time>2013-06-15T13:28:45Z</time>
      </trkpt>
      <trkpt lat="44.42735" lon="3.73276">
        <ele>1693.02</ele>
        <time>2013-06-15T13:28:46Z</time>
      </trkpt>
      <trkpt lat="44.42733" lon="3.73278">
        <ele>1693.5</ele>
        <time>2013-06-15T13:28:47Z</time>
      </trkpt>
      <trkpt lat="44.42732" lon="3.7328">
        <ele>1693.02</ele>
        <time>2013-06-15T13:28:48Z</time>
      </trkpt>
      <trkpt lat="44.42731" lon="3.73282">
        <ele>1693.02</ele>
        <time>2013-06-15T13:28:49Z</time>
      </trkpt>
      <trkpt lat="44.42725" lon="3.733">
        <ele>1693.5</ele>
        <time>2013-06-15T13:28:57Z</time>
      </trkpt>
      <trkpt lat="44.42724" lon="3.73302">
        <ele>1693.5</ele>
        <time>2013-06-15T13:28:58Z</time>
      </trkpt>
      <trkpt lat="44.42724" lon="3.73305">
        <ele>1693.5</ele>
        <time>2013-06-15T13:28:59Z</time>
      </trkpt>
      <trkpt lat="44.42723" lon="3.73307">
        <ele>1693.5</ele>
        <time>2013-06-15T13:29:00Z</time>
      </trkpt>
      <trkpt lat="44.42722" lon="3.73309">
        <ele>1693.5</ele>
        <time>2013-06-15T13:29:01Z</time>
      </trkpt>
      <trkpt lat="44.42721" lon="3.73311">
        <ele>1693.98</ele>
        <time>2013-06-15T13:29:02Z</time>
      </trkpt>
      <trkpt lat="44.4272" lon="3.73313">
        <ele>1694.94</ele>
        <time>2013-06-15T13:29:03Z</time>
      </trkpt>
      <trkpt lat="44.42719" lon="3.73315">
        <ele>1694.46</ele>
        <time>2013-06-15T13:29:04Z</time>
      </trkpt>
      <trkpt lat="44.42719" lon="3.73318">
        <ele>1694.94</ele>
        <time>2013-06-15T13:29:05Z</time>
      </trkpt>
      <trkpt lat="44.42718" lon="3.7332">
        <ele>1694.46</ele>
        <time>2013-06-15T13:29:06Z</time>
      </trkpt>
      <trkpt lat="44.42716" lon="3.73322">
        <ele>1693.98</ele>
        <time>2013-06-15T13:29:07Z</time>
      </trkpt>
      <trkpt lat="44.42715" lon="3.73323">
        <ele>1694.46</ele>
        <time>2013-06-15T13:29:08Z</time>
      </trkpt>
      <trkpt lat="44.42714" lon="3.73326">
        <ele>1694.46</ele>
        <time>2013-06-15T13:29:09Z</time>
      </trkpt>
      <trkpt lat="44.42713" lon="3.73327">
        <ele>1694.46</ele>
        <time>2013-06-15T13:29:10Z</time>
      </trkpt>
      <trkpt lat="44.42712" lon="3.73329">
        <ele>1694.46</ele>
        <time>2013-06-15T13:29:11Z</time>
      </trkpt>
      <trkpt lat="44.42705" lon="3.73347">
        <ele>1691.58</ele>
        <time>2013-06-15T13:29:19Z</time>
      </trkpt>
      <trkpt lat="44.42704" lon="3.73348">
        <ele>1695.42</ele>
        <time>2013-06-15T13:29:20Z</time>
      </trkpt>
      <trkpt lat="44.42703" lon="3.7335">
        <ele>1695.42</ele>
        <time>2013-06-15T13:29:21Z</time>
      </trkpt>
      <trkpt lat="44.42703" lon="3.73352">
        <ele>1695.42</ele>
        <time>2013-06-15T13:29:22Z</time>
      </trkpt>
      <trkpt lat="44.42702" lon="3.73354">
        <ele>1695.42</ele>
        <time>2013-06-15T13:29:23Z</time>
      </trkpt>
      <trkpt lat="44.42702" lon="3.73356">
        <ele>1695.42</ele>
        <time>2013-06-15T13:29:24Z</time>
      </trkpt>
      <trkpt lat="44.42701" lon="3.73358">
        <ele>1695.9</ele>
        <time>2013-06-15T13:29:25Z</time>
      </trkpt>
      <trkpt lat="44.427" lon="3.73362">
        <ele>1695.9</ele>
        <time>2013-06-15T13:29:27Z</time>
      </trkpt>
      <trkpt lat="44.427" lon="3.73364">
        <ele>1696.38</ele>
        <time>2013-06-15T13:29:28Z</time>
      </trkpt>
      <trkpt lat="44.427" lon="3.73366">
        <ele>1695.9</ele>
        <time>2013-06-15T13:29:29Z</time>
      </trkpt>
      <trkpt lat="44.427" lon="3.73368">
        <ele>1696.38</ele>
        <time>2013-06-15T13:29:30Z</time>
      </trkpt>
      <trkpt lat="44.427" lon="3.7337">
        <ele>1696.38</ele>
        <time>2013-06-15T13:29:31Z</time>
      </trkpt>
      <trkpt lat="44.427" lon="3.73372">
        <ele>1696.38</ele>
        <time>2013-06-15T13:29:32Z</time>
      </trkpt>
      <trkpt lat="44.42699" lon="3.73374">
        <ele>1696.38</ele>
        <time>2013-06-15T13:29:33Z</time>
      </trkpt>
      <trkpt lat="44.42699" lon="3.73377">
        <ele>1696.86</ele>
        <time>2013-06-15T13:29:34Z</time>
      </trkpt>
      <trkpt lat="44.42698" lon="3.73379">
        <ele>1696.38</ele>
        <time>2013-06-15T13:29:35Z</time>
      </trkpt>
      <trkpt lat="44.42698" lon="3.73381">
        <ele>1696.38</ele>
        <time>2013-06-15T13:29:36Z</time>
      </trkpt>
      <trkpt lat="44.42697" lon="3.73383">
        <ele>1696.38</ele>
        <time>2013-06-15T13:29:37Z</time>
      </trkpt>
      <trkpt lat="44.42697" lon="3.73386">
        <ele>1695.9</ele>
        <time>2013-06-15T13:29:38Z</time>
      </trkpt>
      <trkpt lat="44.42698" lon="3.73388">
        <ele>1695.9</ele>
        <time>2013-06-15T13:29:39Z</time>
      </trkpt>
      <trkpt lat="44.42698" lon="3.7339">
        <ele>1696.38</ele>
        <time>2013-06-15T13:29:40Z</time>
      </trkpt>
      <trkpt lat="44.42693" lon="3.73405">
        <ele>1696.86</ele>
        <time>2013-06-15T13:29:47Z</time>
      </trkpt>
      <trkpt lat="44.42692" lon="3.73407">
        <ele>1696.38</ele>
        <time>2013-06-15T13:29:48Z</time>
      </trkpt>
      <trkpt lat="44.42688" lon="3.73432">
        <ele>1697.34</ele>
        <time>2013-06-15T13:29:58Z</time>
      </trkpt>
      <trkpt lat="44.42686" lon="3.73459">
        <ele>1697.34</ele>
        <time>2013-06-15T13:30:06Z</time>
      </trkpt>
      <trkpt lat="44.42679" lon="3.73488">
        <ele>1697.34</ele>
        <time>2013-06-15T13:30:15Z</time>
      </trkpt>
      <trkpt lat="44.42672" lon="3.73516">
        <ele>1697.34</ele>
        <time>2013-06-15T13:30:23Z</time>
      </trkpt>
      <trkpt lat="44.42671" lon="3.7352">
        <ele>1697.83</ele>
        <time>2013-06-15T13:30:24Z</time>
      </trkpt>
      <trkpt lat="44.42671" lon="3.73523">
        <ele>1697.83</ele>
        <time>2013-06-15T13:30:25Z</time>
      </trkpt>
      <trkpt lat="44.4267" lon="3.73527">
        <ele>1697.83</ele>
        <time>2013-06-15T13:30:26Z</time>
      </trkpt>
      <trkpt lat="44.42668" lon="3.7353">
        <ele>1697.34</ele>
        <time>2013-06-15T13:30:27Z</time>
      </trkpt>
      <trkpt lat="44.42668" lon="3.73534">
        <ele>1697.34</ele>
        <time>2013-06-15T13:30:28Z</time>
      </trkpt>
      <trkpt lat="44.42668" lon="3.73537">
        <ele>1698.31</ele>
        <time>2013-06-15T13:30:29Z</time>
      </trkpt>
      <trkpt lat="44.42669" lon="3.7354">
        <ele>1697.83</ele>
        <time>2013-06-15T13:30:30Z</time>
      </trkpt>
      <trkpt lat="44.42669" lon="3.73543">
        <ele>1697.83</ele>
        <time>2013-06-15T13:30:31Z</time>
      </trkpt>
      <trkpt lat="44.42669" lon="3.73547">
        <ele>1698.31</ele>
        <time>2013-06-15T13:30:32Z</time>
      </trkpt>
      <trkpt lat="44.42668" lon="3.7355">
        <ele>1697.83</ele>
        <time>2013-06-15T13:30:33Z</time>
      </trkpt>
      <trkpt lat="44.42668" lon="3.73553">
        <ele>1698.31</ele>
        <time>2013-06-15T13:30:34Z</time>
      </trkpt>
      <trkpt lat="44.42663" lon="3.73592">
        <ele>1697.83</ele>
        <time>2013-06-15T13:30:44Z</time>
      </trkpt>
      <trkpt lat="44.42658" lon="3.73627">
        <ele>1697.83</ele>
        <time>2013-06-15T13:30:54Z</time>
      </trkpt>
      <trkpt lat="44.42651" lon="3.73672">
        <ele>1697.83</ele>
        <time>2013-06-15T13:31:07Z</time>
      </trkpt>
      <trkpt lat="44.42644" lon="3.73715">
        <ele>1697.83</ele>
        <time>2013-06-15T13:31:19Z</time>
      </trkpt>
      <trkpt lat="44.42638" lon="3.73761">
        <ele>1697.83</ele>
        <time>2013-06-15T13:31:30Z</time>
      </trkpt>
      <trkpt lat="44.42629" lon="3.7381">
        <ele>1697.83</ele>
        <time>2013-06-15T13:31:42Z</time>
      </trkpt>
      <trkpt lat="44.4262" lon="3.73853">
        <ele>1697.34</ele>
        <time>2013-06-15T13:31:53Z</time>
      </trkpt>
      <trkpt lat="44.42611" lon="3.73894">
        <ele>1697.83</ele>
        <time>2013-06-15T13:32:07Z</time>
      </trkpt>
      <trkpt lat="44.42603" lon="3.73916">
        <ele>1698.79</ele>
        <time>2013-06-15T13:32:18Z</time>
      </trkpt>
      <trkpt lat="44.42602" lon="3.73916">
        <ele>1698.79</ele>
        <time>2013-06-15T13:32:27Z</time>
      </trkpt>
      <trkpt lat="44.42603" lon="3.73918">
        <ele>1697.83</ele>
        <time>2013-06-15T13:32:28Z</time>
      </trkpt>
      <trkpt lat="44.42603" lon="3.73919">
        <ele>1698.31</ele>
        <time>2013-06-15T13:32:29Z</time>
      </trkpt>
      <trkpt lat="44.42604" lon="3.73922">
        <ele>1698.31</ele>
        <time>2013-06-15T13:32:30Z</time>
      </trkpt>
      <trkpt lat="44.42605" lon="3.73925">
        <ele>1698.31</ele>
        <time>2013-06-15T13:32:31Z</time>
      </trkpt>
      <trkpt lat="44.42605" lon="3.73928">
        <ele>1697.83</ele>
        <time>2013-06-15T13:32:32Z</time>
      </trkpt>
      <trkpt lat="44.42606" lon="3.73931">
        <ele>1698.31</ele>
        <time>2013-06-15T13:32:33Z</time>
      </trkpt>
      <trkpt lat="44.42607" lon="3.73935">
        <ele>1698.31</ele>
        <time>2013-06-15T13:32:34Z</time>
      </trkpt>
      <trkpt lat="44.42609" lon="3.73938">
        <ele>1698.31</ele>
        <time>2013-06-15T13:32:35Z</time>
      </trkpt>
      <trkpt lat="44.4261" lon="3.73941">
        <ele>1697.83</ele>
        <time>2013-06-15T13:32:36Z</time>
      </trkpt>
      <trkpt lat="44.42612" lon="3.73945">
        <ele>1697.83</ele>
        <time>2013-06-15T13:32:37Z</time>
      </trkpt>
      <trkpt lat="44.42612" lon="3.73949">
        <ele>1697.83</ele>
        <time>2013-06-15T13:32:38Z</time>
      </trkpt>
      <trkpt lat="44.42613" lon="3.73952">
        <ele>1697.83</ele>
        <time>2013-06-15T13:32:39Z</time>
      </trkpt>
      <trkpt lat="44.42614" lon="3.73956">
        <ele>1697.83</ele>
        <time>2013-06-15T13:32:40Z</time>
      </trkpt>
      <trkpt lat="44.42614" lon="3.73959">
        <ele>1697.83</ele>
        <time>2013-06-15T13:32:41Z</time>
      </trkpt>
      <trkpt lat="44.42614" lon="3.73962">
        <ele>1697.34</ele>
        <time>2013-06-15T13:32:42Z</time>
      </trkpt>
      <trkpt lat="44.42611" lon="3.73974">
        <ele>1697.83</ele>
        <time>2013-06-15T13:32:47Z</time>
      </trkpt>
      <trkpt lat="44.4261" lon="3.73976">
        <ele>1697.34</ele>
        <time>2013-06-15T13:32:53Z</time>
      </trkpt>
      <trkpt lat="44.42609" lon="3.73977">
        <ele>1697.34</ele>
        <time>2013-06-15T13:33:16Z</time>
      </trkpt>
      <trkpt lat="44.42609" lon="3.73982">
        <ele>1697.83</ele>
        <time>2013-06-15T13:33:25Z</time>
      </trkpt>
      <trkpt lat="44.4261" lon="3.73982">
        <ele>1697.34</ele>
        <time>2013-06-15T13:33:51Z</time>
      </trkpt>
      <trkpt lat="44.4261" lon="3.73981">
        <ele>1698.31</ele>
        <time>2013-06-15T13:34:18Z</time>
      </trkpt>
      <trkpt lat="44.4261" lon="3.73982">
        <ele>1697.83</ele>
        <time>2013-06-15T13:34:45Z</time>
      </trkpt>
      <trkpt lat="44.4261" lon="3.73982">
        <ele>1697.83</ele>
        <time>2013-06-15T13:35:13Z</time>
      </trkpt>
      <trkpt lat="44.4261" lon="3.73982">
        <ele>1697.83</ele>
        <time>2013-06-15T13:35:42Z</time>
      </trkpt>
      <trkpt lat="44.4261" lon="3.73982">
        <ele>1698.79</ele>
        <time>2013-06-15T13:36:14Z</time>
      </trkpt>
      <trkpt lat="44.4261" lon="3.73982">
        <ele>1698.79</ele>
        <time>2013-06-15T13:36:42Z</time>
      </trkpt>
      <trkpt lat="44.4261" lon="3.73982">
        <ele>1698.31</ele>
        <time>2013-06-15T13:37:09Z</time>
      </trkpt>
      <trkpt lat="44.42609" lon="3.73982">
        <ele>1698.79</ele>
        <time>2013-06-15T13:37:41Z</time>
      </trkpt>
      <trkpt lat="44.42609" lon="3.73982">
        <ele>1698.31</ele>
        <time>2013-06-15T13:38:12Z</time>
      </trkpt>
      <trkpt lat="44.42609" lon="3.73982">
        <ele>1698.79</ele>
        <time>2013-06-15T13:38:44Z</time>
      </trkpt>
      <trkpt lat="44.4261" lon="3.73983">
        <ele>1698.79</ele>
        <time>2013-06-15T13:39:04Z</time>
      </trkpt>
      <trkpt lat="44.42612" lon="3.73984">
        <ele>1698.31</ele>
        <time>2013-06-15T13:39:12Z</time>
      </trkpt>
      <trkpt lat="44.42618" lon="3.74">
        <ele>1697.83</ele>
        <time>2013-06-15T13:39:19Z</time>
      </trkpt>
      <trkpt lat="44.42623" lon="3.74035">
        <ele>1695.9</ele>
        <time>2013-06-15T13:39:27Z</time>
      </trkpt>
      <trkpt lat="44.42629" lon="3.74061">
        <ele>1693.98</ele>
        <time>2013-06-15T13:39:35Z</time>
      </trkpt>
      <trkpt lat="44.4263" lon="3.74067">
        <ele>1693.5</ele>
        <time>2013-06-15T13:39:44Z</time>
      </trkpt>
      <trkpt lat="44.4263" lon="3.74069">
        <ele>1693.5</ele>
        <time>2013-06-15T13:39:50Z</time>
      </trkpt>
      <trkpt lat="44.42626" lon="3.74076">
        <ele>1692.54</ele>
        <time>2013-06-15T13:39:53Z</time>
      </trkpt>
      <trkpt lat="44.42616" lon="3.74081">
        <ele>1692.06</ele>
        <time>2013-06-15T13:39:58Z</time>
      </trkpt>
      <trkpt lat="44.42595" lon="3.74095">
        <ele>1691.1</ele>
        <time>2013-06-15T13:40:07Z</time>
      </trkpt>
      <trkpt lat="44.4257" lon="3.74108">
        <ele>1690.14</ele>
        <time>2013-06-15T13:40:16Z</time>
      </trkpt>
      <trkpt lat="44.42563" lon="3.74113">
        <ele>1681.96</ele>
        <time>2013-06-15T13:40:19Z</time>
      </trkpt>
      <trkpt lat="44.42561" lon="3.74114">
        <ele>1690.14</ele>
        <time>2013-06-15T13:40:20Z</time>
      </trkpt>
      <trkpt lat="44.42536" lon="3.74119">
        <ele>1687.25</ele>
        <time>2013-06-15T13:40:28Z</time>
      </trkpt>
      <trkpt lat="44.42529" lon="3.74131">
        <ele>1687.25</ele>
        <time>2013-06-15T13:40:33Z</time>
      </trkpt>
      <trkpt lat="44.42525" lon="3.74152">
        <ele>1684.37</ele>
        <time>2013-06-15T13:40:37Z</time>
      </trkpt>
      <trkpt lat="44.42516" lon="3.74192">
        <ele>1680.04</ele>
        <time>2013-06-15T13:40:42Z</time>
      </trkpt>
      <trkpt lat="44.4251" lon="3.74232">
        <ele>1676.2</ele>
        <time>2013-06-15T13:40:46Z</time>
      </trkpt>
      <trkpt lat="44.42506" lon="3.74268">
        <ele>1672.35</ele>
        <time>2013-06-15T13:40:50Z</time>
      </trkpt>
      <trkpt lat="44.42502" lon="3.74302">
        <ele>1667.06</ele>
        <time>2013-06-15T13:40:53Z</time>
      </trkpt>
      <trkpt lat="44.425" lon="3.74352">
        <ele>1663.7</ele>
        <time>2013-06-15T13:40:57Z</time>
      </trkpt>
      <trkpt lat="44.42499" lon="3.74375">
        <ele>1662.74</ele>
        <time>2013-06-15T13:40:59Z</time>
      </trkpt>
      <trkpt lat="44.42498" lon="3.74384">
        <ele>1661.78</ele>
        <time>2013-06-15T13:41:00Z</time>
      </trkpt>
      <trkpt lat="44.42496" lon="3.74389">
        <ele>1662.26</ele>
        <time>2013-06-15T13:41:01Z</time>
      </trkpt>
      <trkpt lat="44.42495" lon="3.74393">
        <ele>1661.78</ele>
        <time>2013-06-15T13:41:02Z</time>
      </trkpt>
      <trkpt lat="44.42494" lon="3.74397">
        <ele>1661.3</ele>
        <time>2013-06-15T13:41:03Z</time>
      </trkpt>
      <trkpt lat="44.42493" lon="3.74402">
        <ele>1660.33</ele>
        <time>2013-06-15T13:41:04Z</time>
      </trkpt>
      <trkpt lat="44.42493" lon="3.74407">
        <ele>1655.53</ele>
        <time>2013-06-15T13:41:05Z</time>
      </trkpt>
      <trkpt lat="44.42493" lon="3.74412">
        <ele>1661.78</ele>
        <time>2013-06-15T13:41:06Z</time>
      </trkpt>
      <trkpt lat="44.42494" lon="3.74416">
        <ele>1660.33</ele>
        <time>2013-06-15T13:41:07Z</time>
      </trkpt>
      <trkpt lat="44.42492" lon="3.74465">
        <ele>1659.85</ele>
        <time>2013-06-15T13:41:17Z</time>
      </trkpt>
      <trkpt lat="44.4249" lon="3.74477">
        <ele>1659.37</ele>
        <time>2013-06-15T13:41:19Z</time>
      </trkpt>
      <trkpt lat="44.42488" lon="3.74483">
        <ele>1659.85</ele>
        <time>2013-06-15T13:41:20Z</time>
      </trkpt>
      <trkpt lat="44.42481" lon="3.74502">
        <ele>1657.93</ele>
        <time>2013-06-15T13:41:23Z</time>
      </trkpt>
      <trkpt lat="44.42474" lon="3.74523">
        <ele>1656.97</ele>
        <time>2013-06-15T13:41:26Z</time>
      </trkpt>
      <trkpt lat="44.42467" lon="3.7455">
        <ele>1656.49</ele>
        <time>2013-06-15T13:41:30Z</time>
      </trkpt>
      <trkpt lat="44.42466" lon="3.74556">
        <ele>1656.01</ele>
        <time>2013-06-15T13:41:31Z</time>
      </trkpt>
      <trkpt lat="44.42447" lon="3.74632">
        <ele>1656.01</ele>
        <time>2013-06-15T13:41:44Z</time>
      </trkpt>
      <trkpt lat="44.42446" lon="3.74638">
        <ele>1656.49</ele>
        <time>2013-06-15T13:41:45Z</time>
      </trkpt>
      <trkpt lat="44.42442" lon="3.74657">
        <ele>1655.53</ele>
        <time>2013-06-15T13:41:48Z</time>
      </trkpt>
      <trkpt lat="44.42439" lon="3.74676">
        <ele>1655.05</ele>
        <time>2013-06-15T13:41:51Z</time>
      </trkpt>
      <trkpt lat="44.42437" lon="3.74682">
        <ele>1655.53</ele>
        <time>2013-06-15T13:41:52Z</time>
      </trkpt>
      <trkpt lat="44.4243" lon="3.74699">
        <ele>1654.57</ele>
        <time>2013-06-15T13:41:55Z</time>
      </trkpt>
      <trkpt lat="44.42428" lon="3.74704">
        <ele>1654.57</ele>
        <time>2013-06-15T13:41:56Z</time>
      </trkpt>
      <trkpt lat="44.42427" lon="3.7471">
        <ele>1654.09</ele>
        <time>2013-06-15T13:41:57Z</time>
      </trkpt>
      <trkpt lat="44.42424" lon="3.74729">
        <ele>1653.12</ele>
        <time>2013-06-15T13:42:00Z</time>
      </trkpt>
      <trkpt lat="44.4242" lon="3.74751">
        <ele>1653.6</ele>
        <time>2013-06-15T13:42:04Z</time>
      </trkpt>
      <trkpt lat="44.42418" lon="3.74784">
        <ele>1652.16</ele>
        <time>2013-06-15T13:42:10Z</time>
      </trkpt>
      <trkpt lat="44.42415" lon="3.74802">
        <ele>1651.2</ele>
        <time>2013-06-15T13:42:13Z</time>
      </trkpt>
      <trkpt lat="44.42415" lon="3.74828">
        <ele>1649.76</ele>
        <time>2013-06-15T13:42:17Z</time>
      </trkpt>
      <trkpt lat="44.42415" lon="3.74846">
        <ele>1649.28</ele>
        <time>2013-06-15T13:42:20Z</time>
      </trkpt>
      <trkpt lat="44.42416" lon="3.74858">
        <ele>1649.28</ele>
        <time>2013-06-15T13:42:22Z</time>
      </trkpt>
      <trkpt lat="44.42419" lon="3.7487">
        <ele>1648.8</ele>
        <time>2013-06-15T13:42:24Z</time>
      </trkpt>
      <trkpt lat="44.4242" lon="3.74876">
        <ele>1648.8</ele>
        <time>2013-06-15T13:42:25Z</time>
      </trkpt>
      <trkpt lat="44.42438" lon="3.7495">
        <ele>1645.43</ele>
        <time>2013-06-15T13:42:36Z</time>
      </trkpt>
      <trkpt lat="44.42452" lon="3.74986">
        <ele>1644.47</ele>
        <time>2013-06-15T13:42:42Z</time>
      </trkpt>
      <trkpt lat="44.42473" lon="3.75041">
        <ele>1641.59</ele>
        <time>2013-06-15T13:42:50Z</time>
      </trkpt>
      <trkpt lat="44.42476" lon="3.75048">
        <ele>1641.11</ele>
        <time>2013-06-15T13:42:51Z</time>
      </trkpt>
      <trkpt lat="44.42486" lon="3.75075">
        <ele>1640.63</ele>
        <time>2013-06-15T13:42:55Z</time>
      </trkpt>
      <trkpt lat="44.425" lon="3.75133">
        <ele>1637.74</ele>
        <time>2013-06-15T13:43:04Z</time>
      </trkpt>
      <trkpt lat="44.42501" lon="3.75139">
        <ele>1638.22</ele>
        <time>2013-06-15T13:43:05Z</time>
      </trkpt>
      <trkpt lat="44.425" lon="3.75143">
        <ele>1638.22</ele>
        <time>2013-06-15T13:43:06Z</time>
      </trkpt>
      <trkpt lat="44.42499" lon="3.75146">
        <ele>1637.74</ele>
        <time>2013-06-15T13:43:07Z</time>
      </trkpt>
      <trkpt lat="44.42498" lon="3.75146">
        <ele>1638.22</ele>
        <time>2013-06-15T13:43:14Z</time>
      </trkpt>
      <trkpt lat="44.42498" lon="3.75146">
        <ele>1638.22</ele>
        <time>2013-06-15T13:43:19Z</time>
      </trkpt>
      <trkpt lat="44.42497" lon="3.75148">
        <ele>1637.74</ele>
        <time>2013-06-15T13:43:20Z</time>
      </trkpt>
      <trkpt lat="44.42495" lon="3.75149">
        <ele>1637.74</ele>
        <time>2013-06-15T13:43:21Z</time>
      </trkpt>
      <trkpt lat="44.42491" lon="3.75149">
        <ele>1636.78</ele>
        <time>2013-06-15T13:43:22Z</time>
      </trkpt>
      <trkpt lat="44.42488" lon="3.75149">
        <ele>1636.3</ele>
        <time>2013-06-15T13:43:23Z</time>
      </trkpt>
      <trkpt lat="44.42462" lon="3.75151">
        <ele>1635.34</ele>
        <time>2013-06-15T13:43:30Z</time>
      </trkpt>
      <trkpt lat="44.42453" lon="3.75151">
        <ele>1633.9</ele>
        <time>2013-06-15T13:43:32Z</time>
      </trkpt>
      <trkpt lat="44.42448" lon="3.75151">
        <ele>1632.94</ele>
        <time>2013-06-15T13:43:33Z</time>
      </trkpt>
      <trkpt lat="44.42443" lon="3.75151">
        <ele>1632.94</ele>
        <time>2013-06-15T13:43:34Z</time>
      </trkpt>
      <trkpt lat="44.42428" lon="3.7515">
        <ele>1630.05</ele>
        <time>2013-06-15T13:43:37Z</time>
      </trkpt>
      <trkpt lat="44.42408" lon="3.75149">
        <ele>1626.21</ele>
        <time>2013-06-15T13:43:41Z</time>
      </trkpt>
      <trkpt lat="44.42402" lon="3.75147">
        <ele>1625.25</ele>
        <time>2013-06-15T13:43:42Z</time>
      </trkpt>
      <trkpt lat="44.42397" lon="3.75145">
        <ele>1623.32</ele>
        <time>2013-06-15T13:43:43Z</time>
      </trkpt>
      <trkpt lat="44.42387" lon="3.75141">
        <ele>1623.32</ele>
        <time>2013-06-15T13:43:45Z</time>
      </trkpt>
      <trkpt lat="44.42383" lon="3.75141">
        <ele>1622.84</ele>
        <time>2013-06-15T13:43:46Z</time>
      </trkpt>
      <trkpt lat="44.42379" lon="3.75142">
        <ele>1621.88</ele>
        <time>2013-06-15T13:43:47Z</time>
      </trkpt>
      <trkpt lat="44.42376" lon="3.75142">
        <ele>1621.4</ele>
        <time>2013-06-15T13:43:48Z</time>
      </trkpt>
      <trkpt lat="44.42372" lon="3.75141">
        <ele>1620.92</ele>
        <time>2013-06-15T13:43:49Z</time>
      </trkpt>
      <trkpt lat="44.42369" lon="3.7514">
        <ele>1620.44</ele>
        <time>2013-06-15T13:43:50Z</time>
      </trkpt>
      <trkpt lat="44.42352" lon="3.75142">
        <ele>1617.07</ele>
        <time>2013-06-15T13:43:55Z</time>
      </trkpt>
      <trkpt lat="44.42349" lon="3.75143">
        <ele>1617.07</ele>
        <time>2013-06-15T13:43:56Z</time>
      </trkpt>
      <trkpt lat="44.42344" lon="3.75143">
        <ele>1616.11</ele>
        <time>2013-06-15T13:43:57Z</time>
      </trkpt>
      <trkpt lat="44.42333" lon="3.75143">
        <ele>1614.67</ele>
        <time>2013-06-15T13:44:00Z</time>
      </trkpt>
      <trkpt lat="44.42314" lon="3.75142">
        <ele>1610.83</ele>
        <time>2013-06-15T13:44:07Z</time>
      </trkpt>
      <trkpt lat="44.42312" lon="3.75141">
        <ele>1610.83</ele>
        <time>2013-06-15T13:44:08Z</time>
      </trkpt>
      <trkpt lat="44.42297" lon="3.75134">
        <ele>1607.46</ele>
        <time>2013-06-15T13:44:16Z</time>
      </trkpt>
      <trkpt lat="44.42286" lon="3.75131">
        <ele>1606.02</ele>
        <time>2013-06-15T13:44:21Z</time>
      </trkpt>
      <trkpt lat="44.42285" lon="3.75127">
        <ele>1605.54</ele>
        <time>2013-06-15T13:44:22Z</time>
      </trkpt>
      <trkpt lat="44.42284" lon="3.75124">
        <ele>1604.58</ele>
        <time>2013-06-15T13:44:23Z</time>
      </trkpt>
      <trkpt lat="44.42282" lon="3.75121">
        <ele>1604.58</ele>
        <time>2013-06-15T13:44:24Z</time>
      </trkpt>
      <trkpt lat="44.4228" lon="3.7512">
        <ele>1603.62</ele>
        <time>2013-06-15T13:44:25Z</time>
      </trkpt>
      <trkpt lat="44.42277" lon="3.75119">
        <ele>1603.62</ele>
        <time>2013-06-15T13:44:26Z</time>
      </trkpt>
      <trkpt lat="44.42274" lon="3.75118">
        <ele>1602.66</ele>
        <time>2013-06-15T13:44:27Z</time>
      </trkpt>
      <trkpt lat="44.42272" lon="3.75116">
        <ele>1601.69</ele>
        <time>2013-06-15T13:44:28Z</time>
      </trkpt>
      <trkpt lat="44.4227" lon="3.75114">
        <ele>1601.69</ele>
        <time>2013-06-15T13:44:29Z</time>
      </trkpt>
      <trkpt lat="44.42269" lon="3.75114">
        <ele>1601.21</ele>
        <time>2013-06-15T13:44:30Z</time>
      </trkpt>
      <trkpt lat="44.42266" lon="3.75114">
        <ele>1600.25</ele>
        <time>2013-06-15T13:44:31Z</time>
      </trkpt>
      <trkpt lat="44.42264" lon="3.75113">
        <ele>1599.77</ele>
        <time>2013-06-15T13:44:32Z</time>
      </trkpt>
      <trkpt lat="44.42261" lon="3.75112">
        <ele>1599.29</ele>
        <time>2013-06-15T13:44:33Z</time>
      </trkpt>
      <trkpt lat="44.42258" lon="3.7511">
        <ele>1598.33</ele>
        <time>2013-06-15T13:44:34Z</time>
      </trkpt>
      <trkpt lat="44.42255" lon="3.75108">
        <ele>1597.85</ele>
        <time>2013-06-15T13:44:35Z</time>
      </trkpt>
      <trkpt lat="44.42252" lon="3.75106">
        <ele>1596.89</ele>
        <time>2013-06-15T13:44:36Z</time>
      </trkpt>
      <trkpt lat="44.42247" lon="3.75105">
        <ele>1595.93</ele>
        <time>2013-06-15T13:44:37Z</time>
      </trkpt>
      <trkpt lat="44.42243" lon="3.75103">
        <ele>1595.93</ele>
        <time>2013-06-15T13:44:38Z</time>
      </trkpt>
      <trkpt lat="44.42231" lon="3.75102">
        <ele>1593.52</ele>
        <time>2013-06-15T13:44:42Z</time>
      </trkpt>
      <trkpt lat="44.42227" lon="3.75103">
        <ele>1593.04</ele>
        <time>2013-06-15T13:44:43Z</time>
      </trkpt>
      <trkpt lat="44.42217" lon="3.75102">
        <ele>1591.12</ele>
        <time>2013-06-15T13:44:47Z</time>
      </trkpt>
      <trkpt lat="44.42207" lon="3.75098">
        <ele>1589.68</ele>
        <time>2013-06-15T13:44:51Z</time>
      </trkpt>
      <trkpt lat="44.42202" lon="3.75097">
        <ele>1587.75</ele>
        <time>2013-06-15T13:44:53Z</time>
      </trkpt>
      <trkpt lat="44.42192" lon="3.75095">
        <ele>1585.83</ele>
        <time>2013-06-15T13:44:57Z</time>
      </trkpt>
      <trkpt lat="44.42178" lon="3.75092">
        <ele>1582.47</ele>
        <time>2013-06-15T13:45:02Z</time>
      </trkpt>
      <trkpt lat="44.42161" lon="3.75092">
        <ele>1579.1</ele>
        <time>2013-06-15T13:45:08Z</time>
      </trkpt>
      <trkpt lat="44.42152" lon="3.75092">
        <ele>1578.14</ele>
        <time>2013-06-15T13:45:12Z</time>
      </trkpt>
      <trkpt lat="44.42147" lon="3.7509">
        <ele>1576.7</ele>
        <time>2013-06-15T13:45:16Z</time>
      </trkpt>
      <trkpt lat="44.42146" lon="3.7509">
        <ele>1576.22</ele>
        <time>2013-06-15T13:45:17Z</time>
      </trkpt>
      <trkpt lat="44.42145" lon="3.75089">
        <ele>1575.26</ele>
        <time>2013-06-15T13:45:18Z</time>
      </trkpt>
      <trkpt lat="44.42143" lon="3.75089">
        <ele>1574.78</ele>
        <time>2013-06-15T13:45:19Z</time>
      </trkpt>
      <trkpt lat="44.42141" lon="3.75087">
        <ele>1573.82</ele>
        <time>2013-06-15T13:45:20Z</time>
      </trkpt>
      <trkpt lat="44.4214" lon="3.75087">
        <ele>1573.82</ele>
        <time>2013-06-15T13:45:21Z</time>
      </trkpt>
      <trkpt lat="44.42136" lon="3.75086">
        <ele>1572.85</ele>
        <time>2013-06-15T13:45:24Z</time>
      </trkpt>
      <trkpt lat="44.42134" lon="3.75085">
        <ele>1571.89</ele>
        <time>2013-06-15T13:45:25Z</time>
      </trkpt>
      <trkpt lat="44.42132" lon="3.75084">
        <ele>1571.89</ele>
        <time>2013-06-15T13:45:26Z</time>
      </trkpt>
      <trkpt lat="44.42129" lon="3.75083">
        <ele>1570.93</ele>
        <time>2013-06-15T13:45:27Z</time>
      </trkpt>
      <trkpt lat="44.42128" lon="3.7508">
        <ele>1570.45</ele>
        <time>2013-06-15T13:45:28Z</time>
      </trkpt>
      <trkpt lat="44.42127" lon="3.75078">
        <ele>1569.97</ele>
        <time>2013-06-15T13:45:29Z</time>
      </trkpt>
      <trkpt lat="44.42123" lon="3.75073">
        <ele>1570.45</ele>
        <time>2013-06-15T13:45:35Z</time>
      </trkpt>
      <trkpt lat="44.42121" lon="3.75074">
        <ele>1569.97</ele>
        <time>2013-06-15T13:45:59Z</time>
      </trkpt>
      <trkpt lat="44.42121" lon="3.75075">
        <ele>1570.93</ele>
        <time>2013-06-15T13:46:11Z</time>
      </trkpt>
      <trkpt lat="44.42121" lon="3.75075">
        <ele>1570.45</ele>
        <time>2013-06-15T13:46:24Z</time>
      </trkpt>
      <trkpt lat="44.42121" lon="3.75075">
        <ele>1570.45</ele>
        <time>2013-06-15T13:46:26Z</time>
      </trkpt>
      <trkpt lat="44.4212" lon="3.75074">
        <ele>1569.97</ele>
        <time>2013-06-15T13:46:27Z</time>
      </trkpt>
      <trkpt lat="44.42119" lon="3.75072">
        <ele>1569.97</ele>
        <time>2013-06-15T13:46:28Z</time>
      </trkpt>
      <trkpt lat="44.42119" lon="3.7507">
        <ele>1569.49</ele>
        <time>2013-06-15T13:46:29Z</time>
      </trkpt>
      <trkpt lat="44.42118" lon="3.75067">
        <ele>1568.53</ele>
        <time>2013-06-15T13:46:30Z</time>
      </trkpt>
      <trkpt lat="44.42117" lon="3.75062">
        <ele>1566.61</ele>
        <time>2013-06-15T13:46:32Z</time>
      </trkpt>
      <trkpt lat="44.42114" lon="3.75059">
        <ele>1565.64</ele>
        <time>2013-06-15T13:46:34Z</time>
      </trkpt>
      <trkpt lat="44.42111" lon="3.75058">
        <ele>1565.16</ele>
        <time>2013-06-15T13:46:36Z</time>
      </trkpt>
      <trkpt lat="44.42109" lon="3.75058">
        <ele>1564.68</ele>
        <time>2013-06-15T13:46:37Z</time>
      </trkpt>
      <trkpt lat="44.42106" lon="3.75058">
        <ele>1563.72</ele>
        <time>2013-06-15T13:46:38Z</time>
      </trkpt>
      <trkpt lat="44.42104" lon="3.75058">
        <ele>1562.76</ele>
        <time>2013-06-15T13:46:39Z</time>
      </trkpt>
      <trkpt lat="44.42102" lon="3.75058">
        <ele>1562.76</ele>
        <time>2013-06-15T13:46:40Z</time>
      </trkpt>
      <trkpt lat="44.421" lon="3.75058">
        <ele>1562.28</ele>
        <time>2013-06-15T13:46:41Z</time>
      </trkpt>
      <trkpt lat="44.42085" lon="3.75059">
        <ele>1558.92</ele>
        <time>2013-06-15T13:46:47Z</time>
      </trkpt>
      <trkpt lat="44.42068" lon="3.75063">
        <ele>1555.55</ele>
        <time>2013-06-15T13:46:53Z</time>
      </trkpt>
      <trkpt lat="44.42061" lon="3.75062">
        <ele>1554.59</ele>
        <time>2013-06-15T13:46:55Z</time>
      </trkpt>
      <trkpt lat="44.42045" lon="3.75066">
        <ele>1551.22</ele>
        <time>2013-06-15T13:47:00Z</time>
      </trkpt>
      <trkpt lat="44.42032" lon="3.75068">
        <ele>1549.78</ele>
        <time>2013-06-15T13:47:04Z</time>
      </trkpt>
      <trkpt lat="44.42031" lon="3.75066">
        <ele>1549.3</ele>
        <time>2013-06-15T13:47:05Z</time>
      </trkpt>
      <trkpt lat="44.42031" lon="3.75058">
        <ele>1547.38</ele>
        <time>2013-06-15T13:47:07Z</time>
      </trkpt>
      <trkpt lat="44.42033" lon="3.75053">
        <ele>1546.9</ele>
        <time>2013-06-15T13:47:08Z</time>
      </trkpt>
      <trkpt lat="44.42036" lon="3.75042">
        <ele>1545.46</ele>
        <time>2013-06-15T13:47:10Z</time>
      </trkpt>
      <trkpt lat="44.4204" lon="3.75031">
        <ele>1544.01</ele>
        <time>2013-06-15T13:47:13Z</time>
      </trkpt>
      <trkpt lat="44.42041" lon="3.75028">
        <ele>1543.53</ele>
        <time>2013-06-15T13:47:14Z</time>
      </trkpt>
      <trkpt lat="44.42035" lon="3.75024">
        <ele>1541.61</ele>
        <time>2013-06-15T13:47:18Z</time>
      </trkpt>
      <trkpt lat="44.42024" lon="3.75026">
        <ele>1538.73</ele>
        <time>2013-06-15T13:47:21Z</time>
      </trkpt>
      <trkpt lat="44.4202" lon="3.75028">
        <ele>1537.77</ele>
        <time>2013-06-15T13:47:22Z</time>
      </trkpt>
      <trkpt lat="44.42015" lon="3.75029">
        <ele>1536.8</ele>
        <time>2013-06-15T13:47:23Z</time>
      </trkpt>
      <trkpt lat="44.42011" lon="3.75031">
        <ele>1535.84</ele>
        <time>2013-06-15T13:47:24Z</time>
      </trkpt>
      <trkpt lat="44.41996" lon="3.75036">
        <ele>1533.92</ele>
        <time>2013-06-15T13:47:29Z</time>
      </trkpt>
      <trkpt lat="44.41996" lon="3.75032">
        <ele>1533.44</ele>
        <time>2013-06-15T13:47:31Z</time>
      </trkpt>
      <trkpt lat="44.41999" lon="3.75021">
        <ele>1532.48</ele>
        <time>2013-06-15T13:47:37Z</time>
      </trkpt>
      <trkpt lat="44.42" lon="3.75015">
        <ele>1531.04</ele>
        <time>2013-06-15T13:47:41Z</time>
      </trkpt>
      <trkpt lat="44.41997" lon="3.75011">
        <ele>1529.11</ele>
        <time>2013-06-15T13:47:50Z</time>
      </trkpt>
      <trkpt lat="44.41987" lon="3.75015">
        <ele>1526.23</ele>
        <time>2013-06-15T13:47:55Z</time>
      </trkpt>
      <trkpt lat="44.41983" lon="3.75015">
        <ele>1525.27</ele>
        <time>2013-06-15T13:47:56Z</time>
      </trkpt>
      <trkpt lat="44.41957" lon="3.75026">
        <ele>1520.94</ele>
        <time>2013-06-15T13:48:02Z</time>
      </trkpt>
      <trkpt lat="44.41943" lon="3.75034">
        <ele>1518.06</ele>
        <time>2013-06-15T13:48:06Z</time>
      </trkpt>
      <trkpt lat="44.41937" lon="3.7504">
        <ele>1517.1</ele>
        <time>2013-06-15T13:48:08Z</time>
      </trkpt>
      <trkpt lat="44.41931" lon="3.75044">
        <ele>1516.14</ele>
        <time>2013-06-15T13:48:10Z</time>
      </trkpt>
      <trkpt lat="44.41926" lon="3.75046">
        <ele>1514.69</ele>
        <time>2013-06-15T13:48:14Z</time>
      </trkpt>
      <trkpt lat="44.41926" lon="3.75044">
        <ele>1513.73</ele>
        <time>2013-06-15T13:48:15Z</time>
      </trkpt>
      <trkpt lat="44.41925" lon="3.75033">
        <ele>1510.85</ele>
        <time>2013-06-15T13:48:23Z</time>
      </trkpt>
      <trkpt lat="44.41923" lon="3.75033">
        <ele>1509.89</ele>
        <time>2013-06-15T13:48:24Z</time>
      </trkpt>
      <trkpt lat="44.41917" lon="3.75035">
        <ele>1508.93</ele>
        <time>2013-06-15T13:48:27Z</time>
      </trkpt>
      <trkpt lat="44.41916" lon="3.75034">
        <ele>1508.93</ele>
        <time>2013-06-15T13:48:28Z</time>
      </trkpt>
      <trkpt lat="44.41915" lon="3.75031">
        <ele>1508.45</ele>
        <time>2013-06-15T13:48:29Z</time>
      </trkpt>
      <trkpt lat="44.41915" lon="3.75028">
        <ele>1507.48</ele>
        <time>2013-06-15T13:48:30Z</time>
      </trkpt>
      <trkpt lat="44.41915" lon="3.75025">
        <ele>1507</ele>
        <time>2013-06-15T13:48:31Z</time>
      </trkpt>
      <trkpt lat="44.41915" lon="3.75015">
        <ele>1505.56</ele>
        <time>2013-06-15T13:48:34Z</time>
      </trkpt>
      <trkpt lat="44.41909" lon="3.75015">
        <ele>1504.12</ele>
        <time>2013-06-15T13:48:37Z</time>
      </trkpt>
      <trkpt lat="44.41898" lon="3.75015">
        <ele>1501.72</ele>
        <time>2013-06-15T13:48:42Z</time>
      </trkpt>
      <trkpt lat="44.41902" lon="3.74993">
        <ele>1499.79</ele>
        <time>2013-06-15T13:48:49Z</time>
      </trkpt>
      <trkpt lat="44.41913" lon="3.74974">
        <ele>1496.43</ele>
        <time>2013-06-15T13:48:53Z</time>
      </trkpt>
      <trkpt lat="44.41916" lon="3.74969">
        <ele>1494.99</ele>
        <time>2013-06-15T13:48:56Z</time>
      </trkpt>
      <trkpt lat="44.419" lon="3.74975">
        <ele>1492.58</ele>
        <time>2013-06-15T13:49:02Z</time>
      </trkpt>
      <trkpt lat="44.41896" lon="3.74964">
        <ele>1489.7</ele>
        <time>2013-06-15T13:49:06Z</time>
      </trkpt>
      <trkpt lat="44.41902" lon="3.7494">
        <ele>1487.78</ele>
        <time>2013-06-15T13:49:14Z</time>
      </trkpt>
      <trkpt lat="44.41897" lon="3.74941">
        <ele>1485.85</ele>
        <time>2013-06-15T13:49:17Z</time>
      </trkpt>
      <trkpt lat="44.41892" lon="3.74941">
        <ele>1484.89</ele>
        <time>2013-06-15T13:49:19Z</time>
      </trkpt>
      <trkpt lat="44.41883" lon="3.74942">
        <ele>1482.97</ele>
        <time>2013-06-15T13:49:23Z</time>
      </trkpt>
      <trkpt lat="44.41875" lon="3.74938">
        <ele>1481.53</ele>
        <time>2013-06-15T13:49:26Z</time>
      </trkpt>
      <trkpt lat="44.4186" lon="3.74938">
        <ele>1478.16</ele>
        <time>2013-06-15T13:49:31Z</time>
      </trkpt>
      <trkpt lat="44.41853" lon="3.74939">
        <ele>1476.24</ele>
        <time>2013-06-15T13:49:33Z</time>
      </trkpt>
      <trkpt lat="44.41839" lon="3.74951">
        <ele>1473.36</ele>
        <time>2013-06-15T13:49:39Z</time>
      </trkpt>
      <trkpt lat="44.41838" lon="3.74953">
        <ele>1473.36</ele>
        <time>2013-06-15T13:49:40Z</time>
      </trkpt>
      <trkpt lat="44.41822" lon="3.74962">
        <ele>1470.47</ele>
        <time>2013-06-15T13:49:44Z</time>
      </trkpt>
      <trkpt lat="44.41803" lon="3.74976">
        <ele>1468.07</ele>
        <time>2013-06-15T13:49:49Z</time>
      </trkpt>
      <trkpt lat="44.41791" lon="3.74988">
        <ele>1465.19</ele>
        <time>2013-06-15T13:49:53Z</time>
      </trkpt>
      <trkpt lat="44.41785" lon="3.74991">
        <ele>1464.71</ele>
        <time>2013-06-15T13:49:56Z</time>
      </trkpt>
      <trkpt lat="44.41782" lon="3.7499">
        <ele>1463.74</ele>
        <time>2013-06-15T13:49:57Z</time>
      </trkpt>
      <trkpt lat="44.41777" lon="3.74991">
        <ele>1462.78</ele>
        <time>2013-06-15T13:49:59Z</time>
      </trkpt>
      <trkpt lat="44.41756" lon="3.74994">
        <ele>1459.42</ele>
        <time>2013-06-15T13:50:05Z</time>
      </trkpt>
      <trkpt lat="44.41753" lon="3.74993">
        <ele>1458.46</ele>
        <time>2013-06-15T13:50:06Z</time>
      </trkpt>
      <trkpt lat="44.41748" lon="3.74987">
        <ele>1457.98</ele>
        <time>2013-06-15T13:50:08Z</time>
      </trkpt>
      <trkpt lat="44.41746" lon="3.74978">
        <ele>1456.05</ele>
        <time>2013-06-15T13:50:11Z</time>
      </trkpt>
      <trkpt lat="44.41743" lon="3.74968">
        <ele>1455.09</ele>
        <time>2013-06-15T13:50:15Z</time>
      </trkpt>
      <trkpt lat="44.41732" lon="3.7497">
        <ele>1454.13</ele>
        <time>2013-06-15T13:50:23Z</time>
      </trkpt>
      <trkpt lat="44.41716" lon="3.74977">
        <ele>1453.17</ele>
        <time>2013-06-15T13:50:28Z</time>
      </trkpt>
      <trkpt lat="44.41711" lon="3.74979">
        <ele>1453.65</ele>
        <time>2013-06-15T13:50:29Z</time>
      </trkpt>
      <trkpt lat="44.41707" lon="3.7498">
        <ele>1453.17</ele>
        <time>2013-06-15T13:50:30Z</time>
      </trkpt>
      <trkpt lat="44.41686" lon="3.74984">
        <ele>1451.25</ele>
        <time>2013-06-15T13:50:35Z</time>
      </trkpt>
      <trkpt lat="44.41682" lon="3.74984">
        <ele>1451.25</ele>
        <time>2013-06-15T13:50:36Z</time>
      </trkpt>
      <trkpt lat="44.41678" lon="3.74985">
        <ele>1450.77</ele>
        <time>2013-06-15T13:50:37Z</time>
      </trkpt>
      <trkpt lat="44.41662" lon="3.74988">
        <ele>1447.4</ele>
        <time>2013-06-15T13:50:41Z</time>
      </trkpt>
      <trkpt lat="44.41647" lon="3.74994">
        <ele>1443.56</ele>
        <time>2013-06-15T13:50:46Z</time>
      </trkpt>
      <trkpt lat="44.41644" lon="3.74994">
        <ele>1443.08</ele>
        <time>2013-06-15T13:50:47Z</time>
      </trkpt>
      <trkpt lat="44.4164" lon="3.74994">
        <ele>1442.11</ele>
        <time>2013-06-15T13:50:49Z</time>
      </trkpt>
      <trkpt lat="44.41637" lon="3.74994">
        <ele>1441.63</ele>
        <time>2013-06-15T13:50:50Z</time>
      </trkpt>
      <trkpt lat="44.41621" lon="3.74998">
        <ele>1439.23</ele>
        <time>2013-06-15T13:50:56Z</time>
      </trkpt>
      <trkpt lat="44.41601" lon="3.74999">
        <ele>1436.83</ele>
        <time>2013-06-15T13:51:02Z</time>
      </trkpt>
      <trkpt lat="44.41599" lon="3.74999">
        <ele>1436.35</ele>
        <time>2013-06-15T13:51:03Z</time>
      </trkpt>
      <trkpt lat="44.41597" lon="3.75">
        <ele>1435.87</ele>
        <time>2013-06-15T13:51:04Z</time>
      </trkpt>
      <trkpt lat="44.41589" lon="3.74999">
        <ele>1433.94</ele>
        <time>2013-06-15T13:51:08Z</time>
      </trkpt>
      <trkpt lat="44.41587" lon="3.74999">
        <ele>1433.94</ele>
        <time>2013-06-15T13:51:09Z</time>
      </trkpt>
      <trkpt lat="44.41585" lon="3.74998">
        <ele>1433.46</ele>
        <time>2013-06-15T13:51:10Z</time>
      </trkpt>
      <trkpt lat="44.41577" lon="3.74996">
        <ele>1431.54</ele>
        <time>2013-06-15T13:51:13Z</time>
      </trkpt>
      <trkpt lat="44.41574" lon="3.74996">
        <ele>1431.06</ele>
        <time>2013-06-15T13:51:14Z</time>
      </trkpt>
      <trkpt lat="44.41571" lon="3.74995">
        <ele>1430.1</ele>
        <time>2013-06-15T13:51:15Z</time>
      </trkpt>
      <trkpt lat="44.41568" lon="3.74994">
        <ele>1429.62</ele>
        <time>2013-06-15T13:51:16Z</time>
      </trkpt>
      <trkpt lat="44.41565" lon="3.74994">
        <ele>1429.62</ele>
        <time>2013-06-15T13:51:17Z</time>
      </trkpt>
      <trkpt lat="44.41564" lon="3.74993">
        <ele>1429.62</ele>
        <time>2013-06-15T13:51:18Z</time>
      </trkpt>
      <trkpt lat="44.41561" lon="3.74993">
        <ele>1429.14</ele>
        <time>2013-06-15T13:51:19Z</time>
      </trkpt>
      <trkpt lat="44.41555" lon="3.74994">
        <ele>1427.7</ele>
        <time>2013-06-15T13:51:23Z</time>
      </trkpt>
      <trkpt lat="44.41545" lon="3.74991">
        <ele>1426.73</ele>
        <time>2013-06-15T13:51:31Z</time>
      </trkpt>
      <trkpt lat="44.41535" lon="3.7499">
        <ele>1424.33</ele>
        <time>2013-06-15T13:51:37Z</time>
      </trkpt>
      <trkpt lat="44.41532" lon="3.74989">
        <ele>1421.45</ele>
        <time>2013-06-15T13:51:42Z</time>
      </trkpt>
      <trkpt lat="44.41521" lon="3.74992">
        <ele>1420</ele>
        <time>2013-06-15T13:51:49Z</time>
      </trkpt>
      <trkpt lat="44.41514" lon="3.74992">
        <ele>1418.56</ele>
        <time>2013-06-15T13:51:56Z</time>
      </trkpt>
      <trkpt lat="44.41511" lon="3.74992">
        <ele>1417.12</ele>
        <time>2013-06-15T13:51:57Z</time>
      </trkpt>
      <trkpt lat="44.41508" lon="3.74993">
        <ele>1416.64</ele>
        <time>2013-06-15T13:51:58Z</time>
      </trkpt>
      <trkpt lat="44.41504" lon="3.74995">
        <ele>1416.16</ele>
        <time>2013-06-15T13:51:59Z</time>
      </trkpt>
      <trkpt lat="44.41499" lon="3.74997">
        <ele>1415.2</ele>
        <time>2013-06-15T13:52:00Z</time>
      </trkpt>
      <trkpt lat="44.41488" lon="3.75005">
        <ele>1413.28</ele>
        <time>2013-06-15T13:52:05Z</time>
      </trkpt>
      <trkpt lat="44.41481" lon="3.75006">
        <ele>1411.83</ele>
        <time>2013-06-15T13:52:09Z</time>
      </trkpt>
      <trkpt lat="44.41479" lon="3.75007">
        <ele>1411.83</ele>
        <time>2013-06-15T13:52:10Z</time>
      </trkpt>
      <trkpt lat="44.41477" lon="3.75008">
        <ele>1410.87</ele>
        <time>2013-06-15T13:52:11Z</time>
      </trkpt>
      <trkpt lat="44.41475" lon="3.75008">
        <ele>1411.35</ele>
        <time>2013-06-15T13:52:12Z</time>
      </trkpt>
      <trkpt lat="44.41472" lon="3.75009">
        <ele>1410.39</ele>
        <time>2013-06-15T13:52:13Z</time>
      </trkpt>
      <trkpt lat="44.41462" lon="3.75012">
        <ele>1409.43</ele>
        <time>2013-06-15T13:52:17Z</time>
      </trkpt>
      <trkpt lat="44.41459" lon="3.75011">
        <ele>1408.95</ele>
        <time>2013-06-15T13:52:18Z</time>
      </trkpt>
      <trkpt lat="44.41457" lon="3.75011">
        <ele>1408.95</ele>
        <time>2013-06-15T13:52:19Z</time>
      </trkpt>
      <trkpt lat="44.41455" lon="3.7501">
        <ele>1408.47</ele>
        <time>2013-06-15T13:52:20Z</time>
      </trkpt>
      <trkpt lat="44.41453" lon="3.75009">
        <ele>1408.47</ele>
        <time>2013-06-15T13:52:21Z</time>
      </trkpt>
      <trkpt lat="44.41448" lon="3.7501">
        <ele>1407.51</ele>
        <time>2013-06-15T13:52:25Z</time>
      </trkpt>
      <trkpt lat="44.41437" lon="3.75015">
        <ele>1406.55</ele>
        <time>2013-06-15T13:52:35Z</time>
      </trkpt>
      <trkpt lat="44.41434" lon="3.75015">
        <ele>1405.58</ele>
        <time>2013-06-15T13:52:37Z</time>
      </trkpt>
      <trkpt lat="44.41428" lon="3.75014">
        <ele>1403.66</ele>
        <time>2013-06-15T13:52:45Z</time>
      </trkpt>
      <trkpt lat="44.41414" lon="3.75015">
        <ele>1401.26</ele>
        <time>2013-06-15T13:52:52Z</time>
      </trkpt>
      <trkpt lat="44.41402" lon="3.75023">
        <ele>1399.34</ele>
        <time>2013-06-15T13:52:56Z</time>
      </trkpt>
      <trkpt lat="44.41393" lon="3.75031">
        <ele>1397.41</ele>
        <time>2013-06-15T13:52:59Z</time>
      </trkpt>
      <trkpt lat="44.41389" lon="3.75033">
        <ele>1396.45</ele>
        <time>2013-06-15T13:53:01Z</time>
      </trkpt>
      <trkpt lat="44.41386" lon="3.75033">
        <ele>1396.45</ele>
        <time>2013-06-15T13:53:02Z</time>
      </trkpt>
      <trkpt lat="44.41384" lon="3.75034">
        <ele>1396.45</ele>
        <time>2013-06-15T13:53:03Z</time>
      </trkpt>
      <trkpt lat="44.41379" lon="3.75037">
        <ele>1395.01</ele>
        <time>2013-06-15T13:53:06Z</time>
      </trkpt>
      <trkpt lat="44.41377" lon="3.75038">
        <ele>1395.01</ele>
        <time>2013-06-15T13:53:07Z</time>
      </trkpt>
      <trkpt lat="44.41373" lon="3.75038">
        <ele>1394.53</ele>
        <time>2013-06-15T13:53:08Z</time>
      </trkpt>
      <trkpt lat="44.41368" lon="3.75037">
        <ele>1393.57</ele>
        <time>2013-06-15T13:53:09Z</time>
      </trkpt>
      <trkpt lat="44.41364" lon="3.75037">
        <ele>1392.61</ele>
        <time>2013-06-15T13:53:10Z</time>
      </trkpt>
      <trkpt lat="44.41361" lon="3.75036">
        <ele>1392.61</ele>
        <time>2013-06-15T13:53:11Z</time>
      </trkpt>
      <trkpt lat="44.41358" lon="3.75035">
        <ele>1392.61</ele>
        <time>2013-06-15T13:53:12Z</time>
      </trkpt>
      <trkpt lat="44.41354" lon="3.75034">
        <ele>1392.13</ele>
        <time>2013-06-15T13:53:13Z</time>
      </trkpt>
      <trkpt lat="44.41351" lon="3.75033">
        <ele>1391.65</ele>
        <time>2013-06-15T13:53:14Z</time>
      </trkpt>
      <trkpt lat="44.41348" lon="3.7503">
        <ele>1391.17</ele>
        <time>2013-06-15T13:53:15Z</time>
      </trkpt>
      <trkpt lat="44.41347" lon="3.75028">
        <ele>1390.68</ele>
        <time>2013-06-15T13:53:16Z</time>
      </trkpt>
      <trkpt lat="44.41345" lon="3.75027">
        <ele>1390.2</ele>
        <time>2013-06-15T13:53:17Z</time>
      </trkpt>
      <trkpt lat="44.41342" lon="3.75026">
        <ele>1390.2</ele>
        <time>2013-06-15T13:53:18Z</time>
      </trkpt>
      <trkpt lat="44.41341" lon="3.75025">
        <ele>1389.72</ele>
        <time>2013-06-15T13:53:19Z</time>
      </trkpt>
      <trkpt lat="44.41339" lon="3.75024">
        <ele>1389.24</ele>
        <time>2013-06-15T13:53:20Z</time>
      </trkpt>
      <trkpt lat="44.41336" lon="3.75022">
        <ele>1389.24</ele>
        <time>2013-06-15T13:53:21Z</time>
      </trkpt>
      <trkpt lat="44.41334" lon="3.75021">
        <ele>1388.28</ele>
        <time>2013-06-15T13:53:22Z</time>
      </trkpt>
      <trkpt lat="44.41331" lon="3.7502">
        <ele>1388.28</ele>
        <time>2013-06-15T13:53:23Z</time>
      </trkpt>
      <trkpt lat="44.41324" lon="3.75019">
        <ele>1388.28</ele>
        <time>2013-06-15T13:53:26Z</time>
      </trkpt>
      <trkpt lat="44.41305" lon="3.75025">
        <ele>1385.88</ele>
        <time>2013-06-15T13:53:32Z</time>
      </trkpt>
      <trkpt lat="44.41302" lon="3.75025">
        <ele>1385.88</ele>
        <time>2013-06-15T13:53:33Z</time>
      </trkpt>
      <trkpt lat="44.413" lon="3.75024">
        <ele>1385.88</ele>
        <time>2013-06-15T13:53:34Z</time>
      </trkpt>
      <trkpt lat="44.41298" lon="3.75023">
        <ele>1386.36</ele>
        <time>2013-06-15T13:53:35Z</time>
      </trkpt>
      <trkpt lat="44.41296" lon="3.75023">
        <ele>1385.88</ele>
        <time>2013-06-15T13:53:36Z</time>
      </trkpt>
      <trkpt lat="44.41286" lon="3.75022">
        <ele>1383.47</ele>
        <time>2013-06-15T13:53:42Z</time>
      </trkpt>
      <trkpt lat="44.41283" lon="3.75023">
        <ele>1383.47</ele>
        <time>2013-06-15T13:53:43Z</time>
      </trkpt>
      <trkpt lat="44.41281" lon="3.75024">
        <ele>1383.47</ele>
        <time>2013-06-15T13:53:44Z</time>
      </trkpt>
      <trkpt lat="44.41279" lon="3.75025">
        <ele>1383.47</ele>
        <time>2013-06-15T13:53:45Z</time>
      </trkpt>
      <trkpt lat="44.41276" lon="3.75025">
        <ele>1382.51</ele>
        <time>2013-06-15T13:53:46Z</time>
      </trkpt>
      <trkpt lat="44.41267" lon="3.75027">
        <ele>1381.07</ele>
        <time>2013-06-15T13:53:49Z</time>
      </trkpt>
      <trkpt lat="44.41263" lon="3.75027">
        <ele>1380.59</ele>
        <time>2013-06-15T13:53:50Z</time>
      </trkpt>
      <trkpt lat="44.41259" lon="3.75026">
        <ele>1380.11</ele>
        <time>2013-06-15T13:53:51Z</time>
      </trkpt>
      <trkpt lat="44.41255" lon="3.75024">
        <ele>1380.59</ele>
        <time>2013-06-15T13:53:52Z</time>
      </trkpt>
      <trkpt lat="44.41252" lon="3.75023">
        <ele>1379.63</ele>
        <time>2013-06-15T13:53:53Z</time>
      </trkpt>
      <trkpt lat="44.41249" lon="3.75023">
        <ele>1380.11</ele>
        <time>2013-06-15T13:53:54Z</time>
      </trkpt>
      <trkpt lat="44.41241" lon="3.75023">
        <ele>1379.15</ele>
        <time>2013-06-15T13:53:57Z</time>
      </trkpt>
      <trkpt lat="44.41239" lon="3.75023">
        <ele>1378.67</ele>
        <time>2013-06-15T13:53:58Z</time>
      </trkpt>
      <trkpt lat="44.41236" lon="3.75023">
        <ele>1378.67</ele>
        <time>2013-06-15T13:53:59Z</time>
      </trkpt>
      <trkpt lat="44.41235" lon="3.75023">
        <ele>1378.67</ele>
        <time>2013-06-15T13:54:00Z</time>
      </trkpt>
      <trkpt lat="44.41233" lon="3.75023">
        <ele>1378.19</ele>
        <time>2013-06-15T13:54:01Z</time>
      </trkpt>
      <trkpt lat="44.41231" lon="3.75023">
        <ele>1377.71</ele>
        <time>2013-06-15T13:54:02Z</time>
      </trkpt>
      <trkpt lat="44.41229" lon="3.75025">
        <ele>1377.23</ele>
        <time>2013-06-15T13:54:03Z</time>
      </trkpt>
      <trkpt lat="44.41226" lon="3.75027">
        <ele>1376.75</ele>
        <time>2013-06-15T13:54:04Z</time>
      </trkpt>
      <trkpt lat="44.41224" lon="3.7503">
        <ele>1376.26</ele>
        <time>2013-06-15T13:54:05Z</time>
      </trkpt>
      <trkpt lat="44.41221" lon="3.75032">
        <ele>1376.26</ele>
        <time>2013-06-15T13:54:06Z</time>
      </trkpt>
      <trkpt lat="44.41218" lon="3.75034">
        <ele>1375.3</ele>
        <time>2013-06-15T13:54:07Z</time>
      </trkpt>
      <trkpt lat="44.41215" lon="3.75036">
        <ele>1374.34</ele>
        <time>2013-06-15T13:54:08Z</time>
      </trkpt>
      <trkpt lat="44.41211" lon="3.75038">
        <ele>1374.34</ele>
        <time>2013-06-15T13:54:09Z</time>
      </trkpt>
      <trkpt lat="44.41207" lon="3.75039">
        <ele>1373.86</ele>
        <time>2013-06-15T13:54:10Z</time>
      </trkpt>
      <trkpt lat="44.41203" lon="3.75041">
        <ele>1373.38</ele>
        <time>2013-06-15T13:54:11Z</time>
      </trkpt>
      <trkpt lat="44.41178" lon="3.75039">
        <ele>1370.02</ele>
        <time>2013-06-15T13:54:18Z</time>
      </trkpt>
      <trkpt lat="44.41168" lon="3.75035">
        <ele>1367.13</ele>
        <time>2013-06-15T13:54:22Z</time>
      </trkpt>
      <trkpt lat="44.41166" lon="3.75036">
        <ele>1366.65</ele>
        <time>2013-06-15T13:54:23Z</time>
      </trkpt>
      <trkpt lat="44.41148" lon="3.75038">
        <ele>1365.21</ele>
        <time>2013-06-15T13:54:28Z</time>
      </trkpt>
      <trkpt lat="44.41145" lon="3.75038">
        <ele>1364.73</ele>
        <time>2013-06-15T13:54:29Z</time>
      </trkpt>
      <trkpt lat="44.41143" lon="3.75037">
        <ele>1364.73</ele>
        <time>2013-06-15T13:54:30Z</time>
      </trkpt>
      <trkpt lat="44.4114" lon="3.75037">
        <ele>1364.25</ele>
        <time>2013-06-15T13:54:31Z</time>
      </trkpt>
      <trkpt lat="44.41138" lon="3.75038">
        <ele>1363.77</ele>
        <time>2013-06-15T13:54:32Z</time>
      </trkpt>
      <trkpt lat="44.41136" lon="3.75039">
        <ele>1363.29</ele>
        <time>2013-06-15T13:54:33Z</time>
      </trkpt>
      <trkpt lat="44.41116" lon="3.75049">
        <ele>1360.88</ele>
        <time>2013-06-15T13:54:40Z</time>
      </trkpt>
      <trkpt lat="44.41111" lon="3.75052">
        <ele>1359.44</ele>
        <time>2013-06-15T13:54:42Z</time>
      </trkpt>
      <trkpt lat="44.41108" lon="3.75052">
        <ele>1358.96</ele>
        <time>2013-06-15T13:54:43Z</time>
      </trkpt>
      <trkpt lat="44.41104" lon="3.75051">
        <ele>1358.48</ele>
        <time>2013-06-15T13:54:44Z</time>
      </trkpt>
      <trkpt lat="44.41101" lon="3.7505">
        <ele>1357.52</ele>
        <time>2013-06-15T13:54:45Z</time>
      </trkpt>
      <trkpt lat="44.41097" lon="3.75049">
        <ele>1357.52</ele>
        <time>2013-06-15T13:54:46Z</time>
      </trkpt>
      <trkpt lat="44.41074" lon="3.75047">
        <ele>1355.6</ele>
        <time>2013-06-15T13:54:54Z</time>
      </trkpt>
      <trkpt lat="44.41071" lon="3.7505">
        <ele>1355.12</ele>
        <time>2013-06-15T13:55:08Z</time>
      </trkpt>
      <trkpt lat="44.41071" lon="3.75049">
        <ele>1355.6</ele>
        <time>2013-06-15T13:55:26Z</time>
      </trkpt>
      <trkpt lat="44.41071" lon="3.75049">
        <ele>1356.08</ele>
        <time>2013-06-15T13:55:47Z</time>
      </trkpt>
      <trkpt lat="44.41071" lon="3.75049">
        <ele>1349.35</ele>
        <time>2013-06-15T13:55:48Z</time>
      </trkpt>
      <trkpt lat="44.4107" lon="3.75049">
        <ele>1351.75</ele>
        <time>2013-06-15T13:55:49Z</time>
      </trkpt>
      <trkpt lat="44.4107" lon="3.75049">
        <ele>1354.63</ele>
        <time>2013-06-15T13:55:50Z</time>
      </trkpt>
      <trkpt lat="44.4107" lon="3.75049">
        <ele>1358.96</ele>
        <time>2013-06-15T13:55:51Z</time>
      </trkpt>
      <trkpt lat="44.4107" lon="3.75049">
        <ele>1355.6</ele>
        <time>2013-06-15T13:55:52Z</time>
      </trkpt>
      <trkpt lat="44.41069" lon="3.75049">
        <ele>1355.6</ele>
        <time>2013-06-15T13:56:10Z</time>
      </trkpt>
      <trkpt lat="44.41069" lon="3.75049">
        <ele>1354.63</ele>
        <time>2013-06-15T13:56:15Z</time>
      </trkpt>
      <trkpt lat="44.41067" lon="3.75048">
        <ele>1354.63</ele>
        <time>2013-06-15T13:56:16Z</time>
      </trkpt>
      <trkpt lat="44.41065" lon="3.75048">
        <ele>1354.15</ele>
        <time>2013-06-15T13:56:17Z</time>
      </trkpt>
      <trkpt lat="44.41063" lon="3.75049">
        <ele>1353.19</ele>
        <time>2013-06-15T13:56:18Z</time>
      </trkpt>
      <trkpt lat="44.4106" lon="3.75049">
        <ele>1354.15</ele>
        <time>2013-06-15T13:56:19Z</time>
      </trkpt>
      <trkpt lat="44.41044" lon="3.7505">
        <ele>1351.27</ele>
        <time>2013-06-15T13:56:25Z</time>
      </trkpt>
      <trkpt lat="44.41023" lon="3.75049">
        <ele>1348.87</ele>
        <time>2013-06-15T13:56:31Z</time>
      </trkpt>
      <trkpt lat="44.41012" lon="3.75048">
        <ele>1346.94</ele>
        <time>2013-06-15T13:56:35Z</time>
      </trkpt>
      <trkpt lat="44.40992" lon="3.75052">
        <ele>1344.54</ele>
        <time>2013-06-15T13:56:43Z</time>
      </trkpt>
      <trkpt lat="44.40979" lon="3.75054">
        <ele>1342.14</ele>
        <time>2013-06-15T13:56:53Z</time>
      </trkpt>
      <trkpt lat="44.40969" lon="3.75048">
        <ele>1339.25</ele>
        <time>2013-06-15T13:57:02Z</time>
      </trkpt>
      <trkpt lat="44.40968" lon="3.75046">
        <ele>1339.73</ele>
        <time>2013-06-15T13:57:06Z</time>
      </trkpt>
      <trkpt lat="44.40967" lon="3.75045">
        <ele>1338.77</ele>
        <time>2013-06-15T13:57:07Z</time>
      </trkpt>
      <trkpt lat="44.40966" lon="3.75044">
        <ele>1339.73</ele>
        <time>2013-06-15T13:57:08Z</time>
      </trkpt>
      <trkpt lat="44.40964" lon="3.75044">
        <ele>1338.77</ele>
        <time>2013-06-15T13:57:09Z</time>
      </trkpt>
      <trkpt lat="44.40963" lon="3.75044">
        <ele>1338.29</ele>
        <time>2013-06-15T13:57:10Z</time>
      </trkpt>
      <trkpt lat="44.4096" lon="3.75045">
        <ele>1337.81</ele>
        <time>2013-06-15T13:57:11Z</time>
      </trkpt>
      <trkpt lat="44.40934" lon="3.75059">
        <ele>1334.93</ele>
        <time>2013-06-15T13:57:19Z</time>
      </trkpt>
      <trkpt lat="44.40926" lon="3.75064">
        <ele>1333.01</ele>
        <time>2013-06-15T13:57:22Z</time>
      </trkpt>
      <trkpt lat="44.40919" lon="3.75072">
        <ele>1336.85</ele>
        <time>2013-06-15T13:57:26Z</time>
      </trkpt>
      <trkpt lat="44.40918" lon="3.75074">
        <ele>1331.56</ele>
        <time>2013-06-15T13:57:27Z</time>
      </trkpt>
      <trkpt lat="44.40916" lon="3.75076">
        <ele>1325.8</ele>
        <time>2013-06-15T13:57:28Z</time>
      </trkpt>
      <trkpt lat="44.40915" lon="3.75079">
        <ele>1331.56</ele>
        <time>2013-06-15T13:57:29Z</time>
      </trkpt>
      <trkpt lat="44.40903" lon="3.7509">
        <ele>1328.2</ele>
        <time>2013-06-15T13:57:34Z</time>
      </trkpt>
      <trkpt lat="44.409" lon="3.7509">
        <ele>1328.2</ele>
        <time>2013-06-15T13:57:35Z</time>
      </trkpt>
      <trkpt lat="44.40885" lon="3.75081">
        <ele>1326.28</ele>
        <time>2013-06-15T13:57:40Z</time>
      </trkpt>
      <trkpt lat="44.4088" lon="3.75077">
        <ele>1325.31</ele>
        <time>2013-06-15T13:57:41Z</time>
      </trkpt>
      <trkpt lat="44.40875" lon="3.75075">
        <ele>1324.83</ele>
        <time>2013-06-15T13:57:42Z</time>
      </trkpt>
      <trkpt lat="44.40869" lon="3.75073">
        <ele>1324.35</ele>
        <time>2013-06-15T13:57:43Z</time>
      </trkpt>
      <trkpt lat="44.40863" lon="3.75071">
        <ele>1322.43</ele>
        <time>2013-06-15T13:57:44Z</time>
      </trkpt>
      <trkpt lat="44.40856" lon="3.75068">
        <ele>1322.43</ele>
        <time>2013-06-15T13:57:45Z</time>
      </trkpt>
      <trkpt lat="44.4085" lon="3.75066">
        <ele>1322.43</ele>
        <time>2013-06-15T13:57:46Z</time>
      </trkpt>
      <trkpt lat="44.40822" lon="3.75053">
        <ele>1320.03</ele>
        <time>2013-06-15T13:57:50Z</time>
      </trkpt>
      <trkpt lat="44.40814" lon="3.75052">
        <ele>1319.55</ele>
        <time>2013-06-15T13:57:51Z</time>
      </trkpt>
      <trkpt lat="44.40808" lon="3.75052">
        <ele>1319.07</ele>
        <time>2013-06-15T13:57:52Z</time>
      </trkpt>
      <trkpt lat="44.40801" lon="3.75053">
        <ele>1318.1</ele>
        <time>2013-06-15T13:57:53Z</time>
      </trkpt>
      <trkpt lat="44.40795" lon="3.75054">
        <ele>1318.1</ele>
        <time>2013-06-15T13:57:54Z</time>
      </trkpt>
      <trkpt lat="44.40757" lon="3.75057">
        <ele>1314.74</ele>
        <time>2013-06-15T13:57:59Z</time>
      </trkpt>
      <trkpt lat="44.4075" lon="3.75057">
        <ele>1313.78</ele>
        <time>2013-06-15T13:58:00Z</time>
      </trkpt>
      <trkpt lat="44.40742" lon="3.75056">
        <ele>1313.3</ele>
        <time>2013-06-15T13:58:01Z</time>
      </trkpt>
      <trkpt lat="44.40714" lon="3.75044">
        <ele>1310.41</ele>
        <time>2013-06-15T13:58:06Z</time>
      </trkpt>
      <trkpt lat="44.40684" lon="3.75017">
        <ele>1306.57</ele>
        <time>2013-06-15T13:58:12Z</time>
      </trkpt>
      <trkpt lat="44.40678" lon="3.75012">
        <ele>1306.57</ele>
        <time>2013-06-15T13:58:13Z</time>
      </trkpt>
      <trkpt lat="44.40663" lon="3.74994">
        <ele>1305.13</ele>
        <time>2013-06-15T13:58:16Z</time>
      </trkpt>
      <trkpt lat="44.40658" lon="3.74987">
        <ele>1303.2</ele>
        <time>2013-06-15T13:58:17Z</time>
      </trkpt>
      <trkpt lat="44.40653" lon="3.74978">
        <ele>1302.72</ele>
        <time>2013-06-15T13:58:18Z</time>
      </trkpt>
      <trkpt lat="44.40648" lon="3.74969">
        <ele>1302.24</ele>
        <time>2013-06-15T13:58:19Z</time>
      </trkpt>
      <trkpt lat="44.40645" lon="3.74958">
        <ele>1301.76</ele>
        <time>2013-06-15T13:58:20Z</time>
      </trkpt>
      <trkpt lat="44.40642" lon="3.74947">
        <ele>1300.8</ele>
        <time>2013-06-15T13:58:21Z</time>
      </trkpt>
      <trkpt lat="44.40639" lon="3.74935">
        <ele>1300.8</ele>
        <time>2013-06-15T13:58:22Z</time>
      </trkpt>
      <trkpt lat="44.40632" lon="3.74911">
        <ele>1297.92</ele>
        <time>2013-06-15T13:58:24Z</time>
      </trkpt>
      <trkpt lat="44.40627" lon="3.74899">
        <ele>1297.44</ele>
        <time>2013-06-15T13:58:25Z</time>
      </trkpt>
      <trkpt lat="44.40621" lon="3.74888">
        <ele>1296.96</ele>
        <time>2013-06-15T13:58:26Z</time>
      </trkpt>
      <trkpt lat="44.40608" lon="3.74865">
        <ele>1294.55</ele>
        <time>2013-06-15T13:58:28Z</time>
      </trkpt>
      <trkpt lat="44.40603" lon="3.74852">
        <ele>1294.07</ele>
        <time>2013-06-15T13:58:29Z</time>
      </trkpt>
      <trkpt lat="44.406" lon="3.74838">
        <ele>1293.11</ele>
        <time>2013-06-15T13:58:30Z</time>
      </trkpt>
      <trkpt lat="44.40596" lon="3.74808">
        <ele>1291.67</ele>
        <time>2013-06-15T13:58:32Z</time>
      </trkpt>
      <trkpt lat="44.40591" lon="3.74794">
        <ele>1290.71</ele>
        <time>2013-06-15T13:58:33Z</time>
      </trkpt>
      <trkpt lat="44.40585" lon="3.7478">
        <ele>1289.27</ele>
        <time>2013-06-15T13:58:34Z</time>
      </trkpt>
      <trkpt lat="44.40573" lon="3.74753">
        <ele>1286.86</ele>
        <time>2013-06-15T13:58:36Z</time>
      </trkpt>
      <trkpt lat="44.40569" lon="3.74738">
        <ele>1285.9</ele>
        <time>2013-06-15T13:58:37Z</time>
      </trkpt>
      <trkpt lat="44.40568" lon="3.74722">
        <ele>1284.94</ele>
        <time>2013-06-15T13:58:38Z</time>
      </trkpt>
      <trkpt lat="44.40569" lon="3.74706">
        <ele>1284.46</ele>
        <time>2013-06-15T13:58:39Z</time>
      </trkpt>
      <trkpt lat="44.40572" lon="3.7469">
        <ele>1283.02</ele>
        <time>2013-06-15T13:58:40Z</time>
      </trkpt>
      <trkpt lat="44.40575" lon="3.74674">
        <ele>1282.06</ele>
        <time>2013-06-15T13:58:41Z</time>
      </trkpt>
      <trkpt lat="44.40585" lon="3.74626">
        <ele>1279.65</ele>
        <time>2013-06-15T13:58:44Z</time>
      </trkpt>
      <trkpt lat="44.40591" lon="3.7461">
        <ele>1278.21</ele>
        <time>2013-06-15T13:58:45Z</time>
      </trkpt>
      <trkpt lat="44.40609" lon="3.74567">
        <ele>1276.29</ele>
        <time>2013-06-15T13:58:48Z</time>
      </trkpt>
      <trkpt lat="44.40611" lon="3.74554">
        <ele>1275.33</ele>
        <time>2013-06-15T13:58:49Z</time>
      </trkpt>
      <trkpt lat="44.40612" lon="3.74542">
        <ele>1275.33</ele>
        <time>2013-06-15T13:58:50Z</time>
      </trkpt>
      <trkpt lat="44.4061" lon="3.74531">
        <ele>1274.36</ele>
        <time>2013-06-15T13:58:51Z</time>
      </trkpt>
      <trkpt lat="44.40604" lon="3.74524">
        <ele>1273.88</ele>
        <time>2013-06-15T13:58:52Z</time>
      </trkpt>
      <trkpt lat="44.40597" lon="3.7452">
        <ele>1272.92</ele>
        <time>2013-06-15T13:58:53Z</time>
      </trkpt>
      <trkpt lat="44.40588" lon="3.74521">
        <ele>1272.44</ele>
        <time>2013-06-15T13:58:54Z</time>
      </trkpt>
      <trkpt lat="44.4058" lon="3.74527">
        <ele>1271.48</ele>
        <time>2013-06-15T13:58:55Z</time>
      </trkpt>
      <trkpt lat="44.40571" lon="3.74534">
        <ele>1270.52</ele>
        <time>2013-06-15T13:58:56Z</time>
      </trkpt>
      <trkpt lat="44.40562" lon="3.7454">
        <ele>1270.52</ele>
        <time>2013-06-15T13:58:57Z</time>
      </trkpt>
      <trkpt lat="44.40553" lon="3.74544">
        <ele>1269.56</ele>
        <time>2013-06-15T13:58:58Z</time>
      </trkpt>
      <trkpt lat="44.40543" lon="3.74547">
        <ele>1268.12</ele>
        <time>2013-06-15T13:58:59Z</time>
      </trkpt>
      <trkpt lat="44.40532" lon="3.74547">
        <ele>1267.16</ele>
        <time>2013-06-15T13:59:00Z</time>
      </trkpt>
      <trkpt lat="44.40521" lon="3.74545">
        <ele>1266.67</ele>
        <time>2013-06-15T13:59:01Z</time>
      </trkpt>
      <trkpt lat="44.40511" lon="3.74542">
        <ele>1265.71</ele>
        <time>2013-06-15T13:59:02Z</time>
      </trkpt>
      <trkpt lat="44.40502" lon="3.74537">
        <ele>1266.67</ele>
        <time>2013-06-15T13:59:03Z</time>
      </trkpt>
      <trkpt lat="44.40492" lon="3.7453">
        <ele>1263.79</ele>
        <time>2013-06-15T13:59:04Z</time>
      </trkpt>
      <trkpt lat="44.40463" lon="3.74509">
        <ele>1260.91</ele>
        <time>2013-06-15T13:59:07Z</time>
      </trkpt>
      <trkpt lat="44.40456" lon="3.745">
        <ele>1259.46</ele>
        <time>2013-06-15T13:59:08Z</time>
      </trkpt>
      <trkpt lat="44.40449" lon="3.74488">
        <ele>1258.5</ele>
        <time>2013-06-15T13:59:09Z</time>
      </trkpt>
      <trkpt lat="44.40443" lon="3.74476">
        <ele>1258.02</ele>
        <time>2013-06-15T13:59:10Z</time>
      </trkpt>
      <trkpt lat="44.40438" lon="3.74463">
        <ele>1256.58</ele>
        <time>2013-06-15T13:59:11Z</time>
      </trkpt>
      <trkpt lat="44.40429" lon="3.74438">
        <ele>1255.14</ele>
        <time>2013-06-15T13:59:13Z</time>
      </trkpt>
      <trkpt lat="44.40426" lon="3.74428">
        <ele>1255.14</ele>
        <time>2013-06-15T13:59:14Z</time>
      </trkpt>
      <trkpt lat="44.40423" lon="3.7442">
        <ele>1255.14</ele>
        <time>2013-06-15T13:59:15Z</time>
      </trkpt>
      <trkpt lat="44.40419" lon="3.74415">
        <ele>1255.14</ele>
        <time>2013-06-15T13:59:16Z</time>
      </trkpt>
      <trkpt lat="44.40413" lon="3.74416">
        <ele>1255.14</ele>
        <time>2013-06-15T13:59:17Z</time>
      </trkpt>
      <trkpt lat="44.4041" lon="3.74421">
        <ele>1254.66</ele>
        <time>2013-06-15T13:59:18Z</time>
      </trkpt>
      <trkpt lat="44.40409" lon="3.74429">
        <ele>1253.7</ele>
        <time>2013-06-15T13:59:19Z</time>
      </trkpt>
      <trkpt lat="44.4041" lon="3.74437">
        <ele>1254.18</ele>
        <time>2013-06-15T13:59:20Z</time>
      </trkpt>
      <trkpt lat="44.40413" lon="3.74444">
        <ele>1253.7</ele>
        <time>2013-06-15T13:59:21Z</time>
      </trkpt>
      <trkpt lat="44.40416" lon="3.7445">
        <ele>1253.22</ele>
        <time>2013-06-15T13:59:22Z</time>
      </trkpt>
      <trkpt lat="44.4042" lon="3.74456">
        <ele>1252.74</ele>
        <time>2013-06-15T13:59:23Z</time>
      </trkpt>
      <trkpt lat="44.40422" lon="3.74462">
        <ele>1252.74</ele>
        <time>2013-06-15T13:59:24Z</time>
      </trkpt>
      <trkpt lat="44.40422" lon="3.74468">
        <ele>1252.74</ele>
        <time>2013-06-15T13:59:25Z</time>
      </trkpt>
      <trkpt lat="44.40422" lon="3.74473">
        <ele>1254.66</ele>
        <time>2013-06-15T13:59:26Z</time>
      </trkpt>
      <trkpt lat="44.4042" lon="3.74479">
        <ele>1251.77</ele>
        <time>2013-06-15T13:59:27Z</time>
      </trkpt>
      <trkpt lat="44.40418" lon="3.74485">
        <ele>1250.81</ele>
        <time>2013-06-15T13:59:28Z</time>
      </trkpt>
      <trkpt lat="44.40415" lon="3.74491">
        <ele>1249.85</ele>
        <time>2013-06-15T13:59:29Z</time>
      </trkpt>
      <trkpt lat="44.40414" lon="3.74496">
        <ele>1249.37</ele>
        <time>2013-06-15T13:59:30Z</time>
      </trkpt>
      <trkpt lat="44.40412" lon="3.745">
        <ele>1248.41</ele>
        <time>2013-06-15T13:59:31Z</time>
      </trkpt>
      <trkpt lat="44.4041" lon="3.74505">
        <ele>1247.93</ele>
        <time>2013-06-15T13:59:32Z</time>
      </trkpt>
      <trkpt lat="44.40408" lon="3.74508">
        <ele>1246.97</ele>
        <time>2013-06-15T13:59:33Z</time>
      </trkpt>
      <trkpt lat="44.40404" lon="3.74509">
        <ele>1246.49</ele>
        <time>2013-06-15T13:59:34Z</time>
      </trkpt>
      <trkpt lat="44.404" lon="3.7451">
        <ele>1246.97</ele>
        <time>2013-06-15T13:59:35Z</time>
      </trkpt>
      <trkpt lat="44.40396" lon="3.74512">
        <ele>1246.01</ele>
        <time>2013-06-15T13:59:36Z</time>
      </trkpt>
      <trkpt lat="44.40392" lon="3.74516">
        <ele>1246.01</ele>
        <time>2013-06-15T13:59:37Z</time>
      </trkpt>
      <trkpt lat="44.40388" lon="3.74519">
        <ele>1245.53</ele>
        <time>2013-06-15T13:59:38Z</time>
      </trkpt>
      <trkpt lat="44.40384" lon="3.74521">
        <ele>1245.04</ele>
        <time>2013-06-15T13:59:39Z</time>
      </trkpt>
      <trkpt lat="44.40379" lon="3.74524">
        <ele>1244.56</ele>
        <time>2013-06-15T13:59:40Z</time>
      </trkpt>
      <trkpt lat="44.40356" lon="3.7453">
        <ele>1242.64</ele>
        <time>2013-06-15T13:59:47Z</time>
      </trkpt>
      <trkpt lat="44.40325" lon="3.74497">
        <ele>1240.24</ele>
        <time>2013-06-15T13:59:55Z</time>
      </trkpt>
      <trkpt lat="44.40316" lon="3.74489">
        <ele>1239.76</ele>
        <time>2013-06-15T13:59:57Z</time>
      </trkpt>
      <trkpt lat="44.40311" lon="3.74486">
        <ele>1239.76</ele>
        <time>2013-06-15T13:59:58Z</time>
      </trkpt>
      <trkpt lat="44.40306" lon="3.74484">
        <ele>1239.28</ele>
        <time>2013-06-15T13:59:59Z</time>
      </trkpt>
      <trkpt lat="44.40301" lon="3.74483">
        <ele>1239.28</ele>
        <time>2013-06-15T14:00:00Z</time>
      </trkpt>
      <trkpt lat="44.40295" lon="3.74484">
        <ele>1238.8</ele>
        <time>2013-06-15T14:00:01Z</time>
      </trkpt>
      <trkpt lat="44.40283" lon="3.74484">
        <ele>1237.35</ele>
        <time>2013-06-15T14:00:03Z</time>
      </trkpt>
      <trkpt lat="44.40276" lon="3.74482">
        <ele>1236.87</ele>
        <time>2013-06-15T14:00:04Z</time>
      </trkpt>
      <trkpt lat="44.4027" lon="3.74478">
        <ele>1235.91</ele>
        <time>2013-06-15T14:00:05Z</time>
      </trkpt>
      <trkpt lat="44.40235" lon="3.74455">
        <ele>1233.99</ele>
        <time>2013-06-15T14:00:10Z</time>
      </trkpt>
      <trkpt lat="44.40212" lon="3.7444">
        <ele>1232.07</ele>
        <time>2013-06-15T14:00:13Z</time>
      </trkpt>
      <trkpt lat="44.40205" lon="3.74436">
        <ele>1232.07</ele>
        <time>2013-06-15T14:00:14Z</time>
      </trkpt>
      <trkpt lat="44.40197" lon="3.74433">
        <ele>1231.59</ele>
        <time>2013-06-15T14:00:15Z</time>
      </trkpt>
      <trkpt lat="44.40189" lon="3.74432">
        <ele>1230.62</ele>
        <time>2013-06-15T14:00:16Z</time>
      </trkpt>
      <trkpt lat="44.40181" lon="3.74432">
        <ele>1230.14</ele>
        <time>2013-06-15T14:00:17Z</time>
      </trkpt>
      <trkpt lat="44.40172" lon="3.74432">
        <ele>1229.66</ele>
        <time>2013-06-15T14:00:18Z</time>
      </trkpt>
      <trkpt lat="44.40136" lon="3.74433">
        <ele>1226.3</ele>
        <time>2013-06-15T14:00:22Z</time>
      </trkpt>
      <trkpt lat="44.40102" lon="3.74425">
        <ele>1223.9</ele>
        <time>2013-06-15T14:00:26Z</time>
      </trkpt>
      <trkpt lat="44.40097" lon="3.74422">
        <ele>1223.9</ele>
        <time>2013-06-15T14:00:27Z</time>
      </trkpt>
      <trkpt lat="44.40094" lon="3.74417">
        <ele>1223.9</ele>
        <time>2013-06-15T14:00:28Z</time>
      </trkpt>
      <trkpt lat="44.40091" lon="3.7441">
        <ele>1223.42</ele>
        <time>2013-06-15T14:00:29Z</time>
      </trkpt>
      <trkpt lat="44.40089" lon="3.74402">
        <ele>1222.93</ele>
        <time>2013-06-15T14:00:30Z</time>
      </trkpt>
      <trkpt lat="44.40086" lon="3.74394">
        <ele>1222.45</ele>
        <time>2013-06-15T14:00:31Z</time>
      </trkpt>
      <trkpt lat="44.40083" lon="3.74387">
        <ele>1221.49</ele>
        <time>2013-06-15T14:00:32Z</time>
      </trkpt>
      <trkpt lat="44.40078" lon="3.74381">
        <ele>1221.97</ele>
        <time>2013-06-15T14:00:33Z</time>
      </trkpt>
      <trkpt lat="44.40072" lon="3.74378">
        <ele>1221.49</ele>
        <time>2013-06-15T14:00:34Z</time>
      </trkpt>
      <trkpt lat="44.40066" lon="3.74377">
        <ele>1221.01</ele>
        <time>2013-06-15T14:00:35Z</time>
      </trkpt>
      <trkpt lat="44.40046" lon="3.74373">
        <ele>1219.57</ele>
        <time>2013-06-15T14:00:38Z</time>
      </trkpt>
      <trkpt lat="44.40027" lon="3.74371">
        <ele>1220.05</ele>
        <time>2013-06-15T14:00:42Z</time>
      </trkpt>
      <trkpt lat="44.40024" lon="3.74375">
        <ele>1219.57</ele>
        <time>2013-06-15T14:00:43Z</time>
      </trkpt>
      <trkpt lat="44.40021" lon="3.74379">
        <ele>1219.09</ele>
        <time>2013-06-15T14:00:44Z</time>
      </trkpt>
      <trkpt lat="44.40017" lon="3.74394">
        <ele>1217.65</ele>
        <time>2013-06-15T14:00:50Z</time>
      </trkpt>
      <trkpt lat="44.40014" lon="3.74406">
        <ele>1216.21</ele>
        <time>2013-06-15T14:00:53Z</time>
      </trkpt>
      <trkpt lat="44.40012" lon="3.74412">
        <ele>1215.24</ele>
        <time>2013-06-15T14:00:54Z</time>
      </trkpt>
      <trkpt lat="44.40009" lon="3.74419">
        <ele>1215.24</ele>
        <time>2013-06-15T14:00:55Z</time>
      </trkpt>
      <trkpt lat="44.40007" lon="3.74425">
        <ele>1214.28</ele>
        <time>2013-06-15T14:00:56Z</time>
      </trkpt>
      <trkpt lat="44.40003" lon="3.74431">
        <ele>1213.8</ele>
        <time>2013-06-15T14:00:57Z</time>
      </trkpt>
      <trkpt lat="44.39998" lon="3.74435">
        <ele>1213.8</ele>
        <time>2013-06-15T14:00:58Z</time>
      </trkpt>
      <trkpt lat="44.39993" lon="3.74438">
        <ele>1213.32</ele>
        <time>2013-06-15T14:00:59Z</time>
      </trkpt>
      <trkpt lat="44.39987" lon="3.74441">
        <ele>1212.84</ele>
        <time>2013-06-15T14:01:00Z</time>
      </trkpt>
      <trkpt lat="44.39981" lon="3.74442">
        <ele>1212.36</ele>
        <time>2013-06-15T14:01:01Z</time>
      </trkpt>
      <trkpt lat="44.39975" lon="3.74442">
        <ele>1212.84</ele>
        <time>2013-06-15T14:01:02Z</time>
      </trkpt>
      <trkpt lat="44.39969" lon="3.74442">
        <ele>1212.84</ele>
        <time>2013-06-15T14:01:03Z</time>
      </trkpt>
      <trkpt lat="44.39957" lon="3.74442">
        <ele>1212.84</ele>
        <time>2013-06-15T14:01:05Z</time>
      </trkpt>
      <trkpt lat="44.39952" lon="3.74444">
        <ele>1212.36</ele>
        <time>2013-06-15T14:01:06Z</time>
      </trkpt>
      <trkpt lat="44.39946" lon="3.74446">
        <ele>1212.36</ele>
        <time>2013-06-15T14:01:07Z</time>
      </trkpt>
      <trkpt lat="44.39929" lon="3.74455">
        <ele>1209.48</ele>
        <time>2013-06-15T14:01:10Z</time>
      </trkpt>
      <trkpt lat="44.39923" lon="3.74457">
        <ele>1209.48</ele>
        <time>2013-06-15T14:01:11Z</time>
      </trkpt>
      <trkpt lat="44.39903" lon="3.74461">
        <ele>1208.51</ele>
        <time>2013-06-15T14:01:14Z</time>
      </trkpt>
      <trkpt lat="44.39897" lon="3.7446">
        <ele>1208.51</ele>
        <time>2013-06-15T14:01:15Z</time>
      </trkpt>
      <trkpt lat="44.3989" lon="3.74458">
        <ele>1208.03</ele>
        <time>2013-06-15T14:01:16Z</time>
      </trkpt>
      <trkpt lat="44.39873" lon="3.7445">
        <ele>1208.51</ele>
        <time>2013-06-15T14:01:19Z</time>
      </trkpt>
      <trkpt lat="44.39863" lon="3.74445">
        <ele>1209.48</ele>
        <time>2013-06-15T14:01:21Z</time>
      </trkpt>
      <trkpt lat="44.39854" lon="3.74443">
        <ele>1209.48</ele>
        <time>2013-06-15T14:01:23Z</time>
      </trkpt>
      <trkpt lat="44.39842" lon="3.74443">
        <ele>1209.48</ele>
        <time>2013-06-15T14:01:25Z</time>
      </trkpt>
      <trkpt lat="44.39811" lon="3.74449">
        <ele>1207.07</ele>
        <time>2013-06-15T14:01:31Z</time>
      </trkpt>
      <trkpt lat="44.398" lon="3.74449">
        <ele>1207.07</ele>
        <time>2013-06-15T14:01:33Z</time>
      </trkpt>
      <trkpt lat="44.39794" lon="3.74449">
        <ele>1207.07</ele>
        <time>2013-06-15T14:01:34Z</time>
      </trkpt>
      <trkpt lat="44.39788" lon="3.7445">
        <ele>1206.59</ele>
        <time>2013-06-15T14:01:35Z</time>
      </trkpt>
      <trkpt lat="44.39784" lon="3.74453">
        <ele>1206.59</ele>
        <time>2013-06-15T14:01:36Z</time>
      </trkpt>
      <trkpt lat="44.3978" lon="3.74458">
        <ele>1206.59</ele>
        <time>2013-06-15T14:01:37Z</time>
      </trkpt>
      <trkpt lat="44.39777" lon="3.74463">
        <ele>1206.11</ele>
        <time>2013-06-15T14:01:38Z</time>
      </trkpt>
      <trkpt lat="44.39774" lon="3.74469">
        <ele>1205.63</ele>
        <time>2013-06-15T14:01:39Z</time>
      </trkpt>
      <trkpt lat="44.39771" lon="3.74476">
        <ele>1206.11</ele>
        <time>2013-06-15T14:01:40Z</time>
      </trkpt>
      <trkpt lat="44.39765" lon="3.74488">
        <ele>1205.63</ele>
        <time>2013-06-15T14:01:42Z</time>
      </trkpt>
      <trkpt lat="44.39753" lon="3.7451">
        <ele>1206.11</ele>
        <time>2013-06-15T14:01:47Z</time>
      </trkpt>
      <trkpt lat="44.39749" lon="3.74511">
        <ele>1206.11</ele>
        <time>2013-06-15T14:01:48Z</time>
      </trkpt>
      <trkpt lat="44.39742" lon="3.74512">
        <ele>1206.11</ele>
        <time>2013-06-15T14:01:50Z</time>
      </trkpt>
      <trkpt lat="44.39718" lon="3.74512">
        <ele>1205.15</ele>
        <time>2013-06-15T14:01:55Z</time>
      </trkpt>
      <trkpt lat="44.39686" lon="3.74508">
        <ele>1203.71</ele>
        <time>2013-06-15T14:02:01Z</time>
      </trkpt>
      <trkpt lat="44.39681" lon="3.74509">
        <ele>1204.19</ele>
        <time>2013-06-15T14:02:02Z</time>
      </trkpt>
      <trkpt lat="44.39676" lon="3.74512">
        <ele>1203.71</ele>
        <time>2013-06-15T14:02:03Z</time>
      </trkpt>
      <trkpt lat="44.3967" lon="3.74514">
        <ele>1203.23</ele>
        <time>2013-06-15T14:02:04Z</time>
      </trkpt>
      <trkpt lat="44.39665" lon="3.74515">
        <ele>1203.23</ele>
        <time>2013-06-15T14:02:05Z</time>
      </trkpt>
      <trkpt lat="44.39659" lon="3.74514">
        <ele>1203.71</ele>
        <time>2013-06-15T14:02:06Z</time>
      </trkpt>
      <trkpt lat="44.39653" lon="3.74512">
        <ele>1203.23</ele>
        <time>2013-06-15T14:02:07Z</time>
      </trkpt>
      <trkpt lat="44.39648" lon="3.7451">
        <ele>1203.23</ele>
        <time>2013-06-15T14:02:08Z</time>
      </trkpt>
      <trkpt lat="44.39642" lon="3.74508">
        <ele>1203.23</ele>
        <time>2013-06-15T14:02:09Z</time>
      </trkpt>
      <trkpt lat="44.39637" lon="3.74508">
        <ele>1202.75</ele>
        <time>2013-06-15T14:02:10Z</time>
      </trkpt>
      <trkpt lat="44.39631" lon="3.74509">
        <ele>1202.75</ele>
        <time>2013-06-15T14:02:11Z</time>
      </trkpt>
      <trkpt lat="44.39625" lon="3.74511">
        <ele>1202.75</ele>
        <time>2013-06-15T14:02:12Z</time>
      </trkpt>
      <trkpt lat="44.39619" lon="3.74514">
        <ele>1203.71</ele>
        <time>2013-06-15T14:02:13Z</time>
      </trkpt>
      <trkpt lat="44.39607" lon="3.74519">
        <ele>1200.82</ele>
        <time>2013-06-15T14:02:15Z</time>
      </trkpt>
      <trkpt lat="44.39593" lon="3.74522">
        <ele>1199.86</ele>
        <time>2013-06-15T14:02:17Z</time>
      </trkpt>
      <trkpt lat="44.39586" lon="3.74522">
        <ele>1199.86</ele>
        <time>2013-06-15T14:02:18Z</time>
      </trkpt>
      <trkpt lat="44.39579" lon="3.74523">
        <ele>1199.86</ele>
        <time>2013-06-15T14:02:19Z</time>
      </trkpt>
      <trkpt lat="44.39541" lon="3.74529">
        <ele>1196.5</ele>
        <time>2013-06-15T14:02:24Z</time>
      </trkpt>
      <trkpt lat="44.39533" lon="3.7453">
        <ele>1196.5</ele>
        <time>2013-06-15T14:02:25Z</time>
      </trkpt>
      <trkpt lat="44.39481" lon="3.7454">
        <ele>1195.54</ele>
        <time>2013-06-15T14:02:33Z</time>
      </trkpt>
      <trkpt lat="44.39465" lon="3.74548">
        <ele>1195.06</ele>
        <time>2013-06-15T14:02:36Z</time>
      </trkpt>
      <trkpt lat="44.39453" lon="3.74553">
        <ele>1194.09</ele>
        <time>2013-06-15T14:02:38Z</time>
      </trkpt>
      <trkpt lat="44.39447" lon="3.74557">
        <ele>1194.09</ele>
        <time>2013-06-15T14:02:39Z</time>
      </trkpt>
      <trkpt lat="44.39431" lon="3.74572">
        <ele>1193.13</ele>
        <time>2013-06-15T14:02:42Z</time>
      </trkpt>
      <trkpt lat="44.39426" lon="3.74578">
        <ele>1192.65</ele>
        <time>2013-06-15T14:02:43Z</time>
      </trkpt>
      <trkpt lat="44.39421" lon="3.74583">
        <ele>1193.61</ele>
        <time>2013-06-15T14:02:44Z</time>
      </trkpt>
      <trkpt lat="44.39415" lon="3.74588">
        <ele>1192.65</ele>
        <time>2013-06-15T14:02:45Z</time>
      </trkpt>
      <trkpt lat="44.39409" lon="3.74593">
        <ele>1191.69</ele>
        <time>2013-06-15T14:02:46Z</time>
      </trkpt>
      <trkpt lat="44.39404" lon="3.74599">
        <ele>1190.25</ele>
        <time>2013-06-15T14:02:47Z</time>
      </trkpt>
      <trkpt lat="44.394" lon="3.74607">
        <ele>1189.29</ele>
        <time>2013-06-15T14:02:48Z</time>
      </trkpt>
      <trkpt lat="44.39396" lon="3.74612">
        <ele>1188.33</ele>
        <time>2013-06-15T14:02:49Z</time>
      </trkpt>
      <trkpt lat="44.3939" lon="3.74615">
        <ele>1187.37</ele>
        <time>2013-06-15T14:02:50Z</time>
      </trkpt>
      <trkpt lat="44.39384" lon="3.74617">
        <ele>1186.88</ele>
        <time>2013-06-15T14:02:51Z</time>
      </trkpt>
      <trkpt lat="44.39377" lon="3.74618">
        <ele>1186.4</ele>
        <time>2013-06-15T14:02:52Z</time>
      </trkpt>
      <trkpt lat="44.39371" lon="3.74616">
        <ele>1185.92</ele>
        <time>2013-06-15T14:02:53Z</time>
      </trkpt>
      <trkpt lat="44.39366" lon="3.74612">
        <ele>1185.44</ele>
        <time>2013-06-15T14:02:54Z</time>
      </trkpt>
      <trkpt lat="44.39362" lon="3.74606">
        <ele>1184.48</ele>
        <time>2013-06-15T14:02:55Z</time>
      </trkpt>
      <trkpt lat="44.39359" lon="3.74599">
        <ele>1184.48</ele>
        <time>2013-06-15T14:02:56Z</time>
      </trkpt>
      <trkpt lat="44.39356" lon="3.7459">
        <ele>1184</ele>
        <time>2013-06-15T14:02:57Z</time>
      </trkpt>
      <trkpt lat="44.39355" lon="3.74582">
        <ele>1183.52</ele>
        <time>2013-06-15T14:02:58Z</time>
      </trkpt>
      <trkpt lat="44.39355" lon="3.74574">
        <ele>1183.52</ele>
        <time>2013-06-15T14:02:59Z</time>
      </trkpt>
      <trkpt lat="44.39355" lon="3.74565">
        <ele>1182.56</ele>
        <time>2013-06-15T14:03:00Z</time>
      </trkpt>
      <trkpt lat="44.39355" lon="3.74555">
        <ele>1182.08</ele>
        <time>2013-06-15T14:03:01Z</time>
      </trkpt>
      <trkpt lat="44.39356" lon="3.74545">
        <ele>1181.12</ele>
        <time>2013-06-15T14:03:02Z</time>
      </trkpt>
      <trkpt lat="44.39358" lon="3.74535">
        <ele>1180.64</ele>
        <time>2013-06-15T14:03:03Z</time>
      </trkpt>
      <trkpt lat="44.3936" lon="3.74527">
        <ele>1180.16</ele>
        <time>2013-06-15T14:03:04Z</time>
      </trkpt>
      <trkpt lat="44.39363" lon="3.7452">
        <ele>1179.19</ele>
        <time>2013-06-15T14:03:05Z</time>
      </trkpt>
      <trkpt lat="44.39367" lon="3.74512">
        <ele>1178.23</ele>
        <time>2013-06-15T14:03:06Z</time>
      </trkpt>
      <trkpt lat="44.3937" lon="3.74503">
        <ele>1176.31</ele>
        <time>2013-06-15T14:03:07Z</time>
      </trkpt>
      <trkpt lat="44.39383" lon="3.7447">
        <ele>1172.95</ele>
        <time>2013-06-15T14:03:10Z</time>
      </trkpt>
      <trkpt lat="44.3939" lon="3.7445">
        <ele>1171.02</ele>
        <time>2013-06-15T14:03:12Z</time>
      </trkpt>
      <trkpt lat="44.39392" lon="3.7444">
        <ele>1170.54</ele>
        <time>2013-06-15T14:03:13Z</time>
      </trkpt>
      <trkpt lat="44.39391" lon="3.7443">
        <ele>1170.06</ele>
        <time>2013-06-15T14:03:14Z</time>
      </trkpt>
      <trkpt lat="44.39388" lon="3.7442">
        <ele>1169.58</ele>
        <time>2013-06-15T14:03:15Z</time>
      </trkpt>
      <trkpt lat="44.39384" lon="3.74412">
        <ele>1169.58</ele>
        <time>2013-06-15T14:03:16Z</time>
      </trkpt>
      <trkpt lat="44.39378" lon="3.74405">
        <ele>1170.06</ele>
        <time>2013-06-15T14:03:17Z</time>
      </trkpt>
      <trkpt lat="44.39372" lon="3.74399">
        <ele>1169.58</ele>
        <time>2013-06-15T14:03:18Z</time>
      </trkpt>
      <trkpt lat="44.39362" lon="3.74388">
        <ele>1171.5</ele>
        <time>2013-06-15T14:03:20Z</time>
      </trkpt>
      <trkpt lat="44.39359" lon="3.74382">
        <ele>1172.47</ele>
        <time>2013-06-15T14:03:21Z</time>
      </trkpt>
      <trkpt lat="44.39356" lon="3.74375">
        <ele>1171.98</ele>
        <time>2013-06-15T14:03:22Z</time>
      </trkpt>
      <trkpt lat="44.39349" lon="3.74357">
        <ele>1172.95</ele>
        <time>2013-06-15T14:03:25Z</time>
      </trkpt>
      <trkpt lat="44.39346" lon="3.74353">
        <ele>1173.43</ele>
        <time>2013-06-15T14:03:26Z</time>
      </trkpt>
      <trkpt lat="44.3934" lon="3.74349">
        <ele>1174.39</ele>
        <time>2013-06-15T14:03:28Z</time>
      </trkpt>
      <trkpt lat="44.3933" lon="3.74346">
        <ele>1174.39</ele>
        <time>2013-06-15T14:03:34Z</time>
      </trkpt>
      <trkpt lat="44.3933" lon="3.74346">
        <ele>1174.87</ele>
        <time>2013-06-15T14:03:55Z</time>
      </trkpt>
      <trkpt lat="44.3932" lon="3.74344">
        <ele>1175.35</ele>
        <time>2013-06-15T14:04:05Z</time>
      </trkpt>
      <trkpt lat="44.39311" lon="3.74346">
        <ele>1174.39</ele>
        <time>2013-06-15T14:04:08Z</time>
      </trkpt>
      <trkpt lat="44.39307" lon="3.74346">
        <ele>1173.91</ele>
        <time>2013-06-15T14:04:09Z</time>
      </trkpt>
      <trkpt lat="44.39302" lon="3.74347">
        <ele>1173.91</ele>
        <time>2013-06-15T14:04:10Z</time>
      </trkpt>
      <trkpt lat="44.39297" lon="3.74348">
        <ele>1173.43</ele>
        <time>2013-06-15T14:04:11Z</time>
      </trkpt>
      <trkpt lat="44.39291" lon="3.74349">
        <ele>1172.95</ele>
        <time>2013-06-15T14:04:12Z</time>
      </trkpt>
      <trkpt lat="44.39285" lon="3.74349">
        <ele>1171.98</ele>
        <time>2013-06-15T14:04:13Z</time>
      </trkpt>
      <trkpt lat="44.39263" lon="3.74351">
        <ele>1171.5</ele>
        <time>2013-06-15T14:04:16Z</time>
      </trkpt>
      <trkpt lat="44.39256" lon="3.74351">
        <ele>1170.06</ele>
        <time>2013-06-15T14:04:17Z</time>
      </trkpt>
      <trkpt lat="44.39227" lon="3.74354">
        <ele>1165.74</ele>
        <time>2013-06-15T14:04:21Z</time>
      </trkpt>
      <trkpt lat="44.39213" lon="3.74353">
        <ele>1163.33</ele>
        <time>2013-06-15T14:04:23Z</time>
      </trkpt>
      <trkpt lat="44.39208" lon="3.74351">
        <ele>1161.89</ele>
        <time>2013-06-15T14:04:24Z</time>
      </trkpt>
      <trkpt lat="44.39203" lon="3.74346">
        <ele>1161.89</ele>
        <time>2013-06-15T14:04:25Z</time>
      </trkpt>
      <trkpt lat="44.392" lon="3.7434">
        <ele>1161.89</ele>
        <time>2013-06-15T14:04:26Z</time>
      </trkpt>
      <trkpt lat="44.3919" lon="3.74314">
        <ele>1162.85</ele>
        <time>2013-06-15T14:04:30Z</time>
      </trkpt>
      <trkpt lat="44.39187" lon="3.74309">
        <ele>1162.85</ele>
        <time>2013-06-15T14:04:31Z</time>
      </trkpt>
      <trkpt lat="44.39183" lon="3.74305">
        <ele>1162.85</ele>
        <time>2013-06-15T14:04:32Z</time>
      </trkpt>
      <trkpt lat="44.39178" lon="3.74303">
        <ele>1162.85</ele>
        <time>2013-06-15T14:04:33Z</time>
      </trkpt>
      <trkpt lat="44.39172" lon="3.74301">
        <ele>1162.37</ele>
        <time>2013-06-15T14:04:34Z</time>
      </trkpt>
      <trkpt lat="44.39155" lon="3.74298">
        <ele>1161.89</ele>
        <time>2013-06-15T14:04:37Z</time>
      </trkpt>
      <trkpt lat="44.39132" lon="3.74307">
        <ele>1167.18</ele>
        <time>2013-06-15T14:04:42Z</time>
      </trkpt>
      <trkpt lat="44.39129" lon="3.7431">
        <ele>1161.41</ele>
        <time>2013-06-15T14:04:43Z</time>
      </trkpt>
      <trkpt lat="44.39126" lon="3.74315">
        <ele>1172.47</ele>
        <time>2013-06-15T14:04:49Z</time>
      </trkpt>
      <trkpt lat="44.39126" lon="3.74315">
        <ele>1148.43</ele>
        <time>2013-06-15T14:04:50Z</time>
      </trkpt>
      <trkpt lat="44.39126" lon="3.74315">
        <ele>1162.37</ele>
        <time>2013-06-15T14:04:51Z</time>
      </trkpt>
      <trkpt lat="44.39127" lon="3.74315">
        <ele>1154.2</ele>
        <time>2013-06-15T14:04:56Z</time>
      </trkpt>
      <trkpt lat="44.39127" lon="3.74316">
        <ele>1161.89</ele>
        <time>2013-06-15T14:04:57Z</time>
      </trkpt>
      <trkpt lat="44.39127" lon="3.74316">
        <ele>1160.93</ele>
        <time>2013-06-15T14:05:02Z</time>
      </trkpt>
      <trkpt lat="44.39118" lon="3.74328">
        <ele>1159.97</ele>
        <time>2013-06-15T14:05:06Z</time>
      </trkpt>
      <trkpt lat="44.39115" lon="3.74333">
        <ele>1159.49</ele>
        <time>2013-06-15T14:05:07Z</time>
      </trkpt>
      <trkpt lat="44.39112" lon="3.74338">
        <ele>1159.49</ele>
        <time>2013-06-15T14:05:08Z</time>
      </trkpt>
      <trkpt lat="44.39103" lon="3.74347">
        <ele>1158.53</ele>
        <time>2013-06-15T14:05:10Z</time>
      </trkpt>
      <trkpt lat="44.39098" lon="3.74351">
        <ele>1158.05</ele>
        <time>2013-06-15T14:05:11Z</time>
      </trkpt>
      <trkpt lat="44.39055" lon="3.74371">
        <ele>1158.05</ele>
        <time>2013-06-15T14:05:17Z</time>
      </trkpt>
      <trkpt lat="44.39037" lon="3.74386">
        <ele>1156.6</ele>
        <time>2013-06-15T14:05:20Z</time>
      </trkpt>
      <trkpt lat="44.39032" lon="3.74393">
        <ele>1156.6</ele>
        <time>2013-06-15T14:05:21Z</time>
      </trkpt>
      <trkpt lat="44.39" lon="3.7443">
        <ele>1157.56</ele>
        <time>2013-06-15T14:05:28Z</time>
      </trkpt>
      <trkpt lat="44.38995" lon="3.74432">
        <ele>1158.05</ele>
        <time>2013-06-15T14:05:29Z</time>
      </trkpt>
      <trkpt lat="44.38991" lon="3.74435">
        <ele>1158.53</ele>
        <time>2013-06-15T14:05:30Z</time>
      </trkpt>
      <trkpt lat="44.38973" lon="3.74449">
        <ele>1159.01</ele>
        <time>2013-06-15T14:05:35Z</time>
      </trkpt>
      <trkpt lat="44.38969" lon="3.74451">
        <ele>1159.49</ele>
        <time>2013-06-15T14:05:36Z</time>
      </trkpt>
      <trkpt lat="44.38966" lon="3.74452">
        <ele>1160.45</ele>
        <time>2013-06-15T14:05:37Z</time>
      </trkpt>
      <trkpt lat="44.38929" lon="3.74472">
        <ele>1161.41</ele>
        <time>2013-06-15T14:05:48Z</time>
      </trkpt>
      <trkpt lat="44.38915" lon="3.74475">
        <ele>1166.7</ele>
        <time>2013-06-15T14:05:52Z</time>
      </trkpt>
      <trkpt lat="44.38912" lon="3.74475">
        <ele>1161.41</ele>
        <time>2013-06-15T14:05:53Z</time>
      </trkpt>
      <trkpt lat="44.38904" lon="3.74476">
        <ele>1161.41</ele>
        <time>2013-06-15T14:05:55Z</time>
      </trkpt>
      <trkpt lat="44.38853" lon="3.74469">
        <ele>1159.97</ele>
        <time>2013-06-15T14:06:05Z</time>
      </trkpt>
      <trkpt lat="44.38847" lon="3.74469">
        <ele>1158.53</ele>
        <time>2013-06-15T14:06:06Z</time>
      </trkpt>
      <trkpt lat="44.3884" lon="3.74471">
        <ele>1158.53</ele>
        <time>2013-06-15T14:06:07Z</time>
      </trkpt>
      <trkpt lat="44.38834" lon="3.74473">
        <ele>1158.05</ele>
        <time>2013-06-15T14:06:08Z</time>
      </trkpt>
      <trkpt lat="44.38827" lon="3.74474">
        <ele>1157.56</ele>
        <time>2013-06-15T14:06:09Z</time>
      </trkpt>
      <trkpt lat="44.38821" lon="3.74476">
        <ele>1156.6</ele>
        <time>2013-06-15T14:06:10Z</time>
      </trkpt>
      <trkpt lat="44.38807" lon="3.7448">
        <ele>1156.12</ele>
        <time>2013-06-15T14:06:12Z</time>
      </trkpt>
      <trkpt lat="44.38752" lon="3.74497">
        <ele>1152.76</ele>
        <time>2013-06-15T14:06:19Z</time>
      </trkpt>
      <trkpt lat="44.38744" lon="3.745">
        <ele>1152.28</ele>
        <time>2013-06-15T14:06:20Z</time>
      </trkpt>
      <trkpt lat="44.38736" lon="3.74504">
        <ele>1151.8</ele>
        <time>2013-06-15T14:06:21Z</time>
      </trkpt>
      <trkpt lat="44.38728" lon="3.74509">
        <ele>1151.8</ele>
        <time>2013-06-15T14:06:22Z</time>
      </trkpt>
      <trkpt lat="44.38721" lon="3.74515">
        <ele>1152.28</ele>
        <time>2013-06-15T14:06:23Z</time>
      </trkpt>
      <trkpt lat="44.38715" lon="3.74522">
        <ele>1151.32</ele>
        <time>2013-06-15T14:06:24Z</time>
      </trkpt>
      <trkpt lat="44.38708" lon="3.74529">
        <ele>1151.32</ele>
        <time>2013-06-15T14:06:25Z</time>
      </trkpt>
      <trkpt lat="44.38701" lon="3.74535">
        <ele>1150.84</ele>
        <time>2013-06-15T14:06:26Z</time>
      </trkpt>
      <trkpt lat="44.38692" lon="3.74539">
        <ele>1150.84</ele>
        <time>2013-06-15T14:06:27Z</time>
      </trkpt>
      <trkpt lat="44.38684" lon="3.74542">
        <ele>1150.84</ele>
        <time>2013-06-15T14:06:28Z</time>
      </trkpt>
      <trkpt lat="44.38668" lon="3.74546">
        <ele>1149.87</ele>
        <time>2013-06-15T14:06:30Z</time>
      </trkpt>
      <trkpt lat="44.3866" lon="3.74546">
        <ele>1149.39</ele>
        <time>2013-06-15T14:06:31Z</time>
      </trkpt>
      <trkpt lat="44.38651" lon="3.74544">
        <ele>1149.39</ele>
        <time>2013-06-15T14:06:32Z</time>
      </trkpt>
      <trkpt lat="44.38643" lon="3.74541">
        <ele>1149.39</ele>
        <time>2013-06-15T14:06:33Z</time>
      </trkpt>
      <trkpt lat="44.38634" lon="3.74538">
        <ele>1149.39</ele>
        <time>2013-06-15T14:06:34Z</time>
      </trkpt>
      <trkpt lat="44.38625" lon="3.74534">
        <ele>1148.91</ele>
        <time>2013-06-15T14:06:35Z</time>
      </trkpt>
      <trkpt lat="44.38608" lon="3.74527">
        <ele>1147.95</ele>
        <time>2013-06-15T14:06:37Z</time>
      </trkpt>
      <trkpt lat="44.386" lon="3.74521">
        <ele>1146.51</ele>
        <time>2013-06-15T14:06:38Z</time>
      </trkpt>
      <trkpt lat="44.38592" lon="3.74515">
        <ele>1146.03</ele>
        <time>2013-06-15T14:06:39Z</time>
      </trkpt>
      <trkpt lat="44.38577" lon="3.745">
        <ele>1145.55</ele>
        <time>2013-06-15T14:06:41Z</time>
      </trkpt>
      <trkpt lat="44.38554" lon="3.74477">
        <ele>1144.11</ele>
        <time>2013-06-15T14:06:44Z</time>
      </trkpt>
      <trkpt lat="44.38548" lon="3.74471">
        <ele>1144.59</ele>
        <time>2013-06-15T14:06:45Z</time>
      </trkpt>
      <trkpt lat="44.3854" lon="3.74467">
        <ele>1144.59</ele>
        <time>2013-06-15T14:06:46Z</time>
      </trkpt>
      <trkpt lat="44.38533" lon="3.74465">
        <ele>1144.59</ele>
        <time>2013-06-15T14:06:47Z</time>
      </trkpt>
      <trkpt lat="44.38525" lon="3.74464">
        <ele>1144.11</ele>
        <time>2013-06-15T14:06:48Z</time>
      </trkpt>
      <trkpt lat="44.38516" lon="3.74466">
        <ele>1143.63</ele>
        <time>2013-06-15T14:06:49Z</time>
      </trkpt>
      <trkpt lat="44.38508" lon="3.74468">
        <ele>1143.63</ele>
        <time>2013-06-15T14:06:50Z</time>
      </trkpt>
      <trkpt lat="44.38492" lon="3.74474">
        <ele>1143.14</ele>
        <time>2013-06-15T14:06:52Z</time>
      </trkpt>
      <trkpt lat="44.38443" lon="3.74479">
        <ele>1142.66</ele>
        <time>2013-06-15T14:06:58Z</time>
      </trkpt>
      <trkpt lat="44.38436" lon="3.74477">
        <ele>1142.66</ele>
        <time>2013-06-15T14:06:59Z</time>
      </trkpt>
      <trkpt lat="44.3843" lon="3.74474">
        <ele>1142.66</ele>
        <time>2013-06-15T14:07:00Z</time>
      </trkpt>
      <trkpt lat="44.38394" lon="3.7446">
        <ele>1141.22</ele>
        <time>2013-06-15T14:07:05Z</time>
      </trkpt>
      <trkpt lat="44.38385" lon="3.74459">
        <ele>1140.74</ele>
        <time>2013-06-15T14:07:06Z</time>
      </trkpt>
      <trkpt lat="44.38377" lon="3.74459">
        <ele>1139.78</ele>
        <time>2013-06-15T14:07:07Z</time>
      </trkpt>
      <trkpt lat="44.38368" lon="3.7446">
        <ele>1139.78</ele>
        <time>2013-06-15T14:07:08Z</time>
      </trkpt>
      <trkpt lat="44.38351" lon="3.74459">
        <ele>1139.78</ele>
        <time>2013-06-15T14:07:10Z</time>
      </trkpt>
      <trkpt lat="44.38343" lon="3.74457">
        <ele>1139.3</ele>
        <time>2013-06-15T14:07:11Z</time>
      </trkpt>
      <trkpt lat="44.38336" lon="3.74454">
        <ele>1139.3</ele>
        <time>2013-06-15T14:07:12Z</time>
      </trkpt>
      <trkpt lat="44.38322" lon="3.74447">
        <ele>1138.82</ele>
        <time>2013-06-15T14:07:14Z</time>
      </trkpt>
      <trkpt lat="44.38315" lon="3.74446">
        <ele>1138.82</ele>
        <time>2013-06-15T14:07:15Z</time>
      </trkpt>
      <trkpt lat="44.3831" lon="3.74448">
        <ele>1138.34</ele>
        <time>2013-06-15T14:07:16Z</time>
      </trkpt>
      <trkpt lat="44.38304" lon="3.74453">
        <ele>1138.82</ele>
        <time>2013-06-15T14:07:17Z</time>
      </trkpt>
      <trkpt lat="44.383" lon="3.74458">
        <ele>1139.3</ele>
        <time>2013-06-15T14:07:18Z</time>
      </trkpt>
      <trkpt lat="44.38296" lon="3.74464">
        <ele>1138.34</ele>
        <time>2013-06-15T14:07:19Z</time>
      </trkpt>
      <trkpt lat="44.38292" lon="3.7447">
        <ele>1137.86</ele>
        <time>2013-06-15T14:07:20Z</time>
      </trkpt>
      <trkpt lat="44.38284" lon="3.74485">
        <ele>1137.86</ele>
        <time>2013-06-15T14:07:22Z</time>
      </trkpt>
      <trkpt lat="44.38278" lon="3.74491">
        <ele>1137.38</ele>
        <time>2013-06-15T14:07:23Z</time>
      </trkpt>
      <trkpt lat="44.38271" lon="3.74495">
        <ele>1137.38</ele>
        <time>2013-06-15T14:07:24Z</time>
      </trkpt>
      <trkpt lat="44.3825" lon="3.74502">
        <ele>1137.38</ele>
        <time>2013-06-15T14:07:27Z</time>
      </trkpt>
      <trkpt lat="44.38244" lon="3.74507">
        <ele>1137.38</ele>
        <time>2013-06-15T14:07:28Z</time>
      </trkpt>
      <trkpt lat="44.38233" lon="3.74517">
        <ele>1137.38</ele>
        <time>2013-06-15T14:07:30Z</time>
      </trkpt>
      <trkpt lat="44.38227" lon="3.7452">
        <ele>1137.86</ele>
        <time>2013-06-15T14:07:31Z</time>
      </trkpt>
      <trkpt lat="44.38221" lon="3.74521">
        <ele>1137.86</ele>
        <time>2013-06-15T14:07:32Z</time>
      </trkpt>
      <trkpt lat="44.38215" lon="3.7452">
        <ele>1137.38</ele>
        <time>2013-06-15T14:07:33Z</time>
      </trkpt>
      <trkpt lat="44.38209" lon="3.74517">
        <ele>1137.38</ele>
        <time>2013-06-15T14:07:34Z</time>
      </trkpt>
      <trkpt lat="44.38204" lon="3.74514">
        <ele>1137.38</ele>
        <time>2013-06-15T14:07:35Z</time>
      </trkpt>
      <trkpt lat="44.382" lon="3.74513">
        <ele>1137.38</ele>
        <time>2013-06-15T14:07:36Z</time>
      </trkpt>
      <trkpt lat="44.38197" lon="3.74512">
        <ele>1138.34</ele>
        <time>2013-06-15T14:07:37Z</time>
      </trkpt>
      <trkpt lat="44.38194" lon="3.7451">
        <ele>1137.86</ele>
        <time>2013-06-15T14:07:38Z</time>
      </trkpt>
      <trkpt lat="44.38186" lon="3.74507">
        <ele>1137.86</ele>
        <time>2013-06-15T14:07:46Z</time>
      </trkpt>
      <trkpt lat="44.38182" lon="3.74506">
        <ele>1137.38</ele>
        <time>2013-06-15T14:08:00Z</time>
      </trkpt>
      <trkpt lat="44.38177" lon="3.74505">
        <ele>1136.9</ele>
        <time>2013-06-15T14:08:04Z</time>
      </trkpt>
      <trkpt lat="44.38174" lon="3.74504">
        <ele>1136.42</ele>
        <time>2013-06-15T14:08:05Z</time>
      </trkpt>
      <trkpt lat="44.3817" lon="3.74502">
        <ele>1135.94</ele>
        <time>2013-06-15T14:08:06Z</time>
      </trkpt>
      <trkpt lat="44.38166" lon="3.74499">
        <ele>1135.45</ele>
        <time>2013-06-15T14:08:07Z</time>
      </trkpt>
      <trkpt lat="44.38161" lon="3.74496">
        <ele>1134.97</ele>
        <time>2013-06-15T14:08:08Z</time>
      </trkpt>
      <trkpt lat="44.38156" lon="3.74493">
        <ele>1134.49</ele>
        <time>2013-06-15T14:08:09Z</time>
      </trkpt>
      <trkpt lat="44.38151" lon="3.74491">
        <ele>1134.49</ele>
        <time>2013-06-15T14:08:10Z</time>
      </trkpt>
      <trkpt lat="44.38145" lon="3.7449">
        <ele>1133.53</ele>
        <time>2013-06-15T14:08:11Z</time>
      </trkpt>
      <trkpt lat="44.3814" lon="3.74489">
        <ele>1134.01</ele>
        <time>2013-06-15T14:08:12Z</time>
      </trkpt>
      <trkpt lat="44.38135" lon="3.74488">
        <ele>1134.01</ele>
        <time>2013-06-15T14:08:13Z</time>
      </trkpt>
      <trkpt lat="44.3813" lon="3.74486">
        <ele>1134.97</ele>
        <time>2013-06-15T14:08:14Z</time>
      </trkpt>
      <trkpt lat="44.38125" lon="3.74483">
        <ele>1134.49</ele>
        <time>2013-06-15T14:08:15Z</time>
      </trkpt>
      <trkpt lat="44.38121" lon="3.74478">
        <ele>1134.97</ele>
        <time>2013-06-15T14:08:16Z</time>
      </trkpt>
      <trkpt lat="44.38117" lon="3.74474">
        <ele>1134.01</ele>
        <time>2013-06-15T14:08:17Z</time>
      </trkpt>
      <trkpt lat="44.38112" lon="3.74472">
        <ele>1134.49</ele>
        <time>2013-06-15T14:08:18Z</time>
      </trkpt>
      <trkpt lat="44.38107" lon="3.74471">
        <ele>1134.01</ele>
        <time>2013-06-15T14:08:19Z</time>
      </trkpt>
      <trkpt lat="44.38101" lon="3.74472">
        <ele>1133.53</ele>
        <time>2013-06-15T14:08:20Z</time>
      </trkpt>
      <trkpt lat="44.38096" lon="3.74472">
        <ele>1133.05</ele>
        <time>2013-06-15T14:08:21Z</time>
      </trkpt>
      <trkpt lat="44.3809" lon="3.7447">
        <ele>1133.05</ele>
        <time>2013-06-15T14:08:22Z</time>
      </trkpt>
      <trkpt lat="44.38081" lon="3.74467">
        <ele>1130.65</ele>
        <time>2013-06-15T14:08:24Z</time>
      </trkpt>
      <trkpt lat="44.38067" lon="3.74484">
        <ele>1128.73</ele>
        <time>2013-06-15T14:08:28Z</time>
      </trkpt>
      <trkpt lat="44.3806" lon="3.74483">
        <ele>1127.28</ele>
        <time>2013-06-15T14:08:30Z</time>
      </trkpt>
      <trkpt lat="44.38057" lon="3.74478">
        <ele>1127.28</ele>
        <time>2013-06-15T14:08:31Z</time>
      </trkpt>
      <trkpt lat="44.38056" lon="3.74472">
        <ele>1126.32</ele>
        <time>2013-06-15T14:08:32Z</time>
      </trkpt>
      <trkpt lat="44.38055" lon="3.74464">
        <ele>1124.4</ele>
        <time>2013-06-15T14:08:33Z</time>
      </trkpt>
      <trkpt lat="44.38053" lon="3.74457">
        <ele>1123.92</ele>
        <time>2013-06-15T14:08:34Z</time>
      </trkpt>
      <trkpt lat="44.38049" lon="3.74451">
        <ele>1122.96</ele>
        <time>2013-06-15T14:08:35Z</time>
      </trkpt>
      <trkpt lat="44.38045" lon="3.74447">
        <ele>1122</ele>
        <time>2013-06-15T14:08:36Z</time>
      </trkpt>
      <trkpt lat="44.3804" lon="3.74446">
        <ele>1121.52</ele>
        <time>2013-06-15T14:08:37Z</time>
      </trkpt>
      <trkpt lat="44.38035" lon="3.74447">
        <ele>1121.03</ele>
        <time>2013-06-15T14:08:38Z</time>
      </trkpt>
      <trkpt lat="44.38031" lon="3.74448">
        <ele>1121.03</ele>
        <time>2013-06-15T14:08:39Z</time>
      </trkpt>
      <trkpt lat="44.38026" lon="3.74451">
        <ele>1120.55</ele>
        <time>2013-06-15T14:08:40Z</time>
      </trkpt>
      <trkpt lat="44.38023" lon="3.74455">
        <ele>1120.07</ele>
        <time>2013-06-15T14:08:41Z</time>
      </trkpt>
      <trkpt lat="44.38021" lon="3.74459">
        <ele>1120.07</ele>
        <time>2013-06-15T14:08:42Z</time>
      </trkpt>
      <trkpt lat="44.38021" lon="3.74463">
        <ele>1120.07</ele>
        <time>2013-06-15T14:08:43Z</time>
      </trkpt>
      <trkpt lat="44.3802" lon="3.74466">
        <ele>1119.59</ele>
        <time>2013-06-15T14:08:44Z</time>
      </trkpt>
      <trkpt lat="44.38019" lon="3.74469">
        <ele>1120.07</ele>
        <time>2013-06-15T14:08:45Z</time>
      </trkpt>
      <trkpt lat="44.38016" lon="3.74485">
        <ele>1113.82</ele>
        <time>2013-06-15T14:08:50Z</time>
      </trkpt>
      <trkpt lat="44.38014" lon="3.74489">
        <ele>1120.07</ele>
        <time>2013-06-15T14:08:51Z</time>
      </trkpt>
      <trkpt lat="44.38018" lon="3.74527">
        <ele>1118.63</ele>
        <time>2013-06-15T14:08:59Z</time>
      </trkpt>
      <trkpt lat="44.38026" lon="3.74566">
        <ele>1119.11</ele>
        <time>2013-06-15T14:09:09Z</time>
      </trkpt>
      <trkpt lat="44.3803" lon="3.74576">
        <ele>1115.27</ele>
        <time>2013-06-15T14:09:15Z</time>
      </trkpt>
      <trkpt lat="44.3803" lon="3.74576">
        <ele>1122.48</ele>
        <time>2013-06-15T14:09:16Z</time>
      </trkpt>
      <trkpt lat="44.3803" lon="3.74577">
        <ele>1118.63</ele>
        <time>2013-06-15T14:09:18Z</time>
      </trkpt>
      <trkpt lat="44.3803" lon="3.74577">
        <ele>1119.11</ele>
        <time>2013-06-15T14:09:19Z</time>
      </trkpt>
      <trkpt lat="44.38029" lon="3.74577">
        <ele>1110.46</ele>
        <time>2013-06-15T14:09:24Z</time>
      </trkpt>
      <trkpt lat="44.38029" lon="3.74577">
        <ele>1119.59</ele>
        <time>2013-06-15T14:09:25Z</time>
      </trkpt>
      <trkpt lat="44.38029" lon="3.74577">
        <ele>1115.27</ele>
        <time>2013-06-15T14:09:29Z</time>
      </trkpt>
      <trkpt lat="44.38029" lon="3.74577">
        <ele>1118.63</ele>
        <time>2013-06-15T14:09:30Z</time>
      </trkpt>
      <trkpt lat="44.38041" lon="3.74604">
        <ele>1116.71</ele>
        <time>2013-06-15T14:09:37Z</time>
      </trkpt>
      <trkpt lat="44.38043" lon="3.7461">
        <ele>1116.71</ele>
        <time>2013-06-15T14:09:38Z</time>
      </trkpt>
      <trkpt lat="44.38046" lon="3.74617">
        <ele>1116.23</ele>
        <time>2013-06-15T14:09:39Z</time>
      </trkpt>
      <trkpt lat="44.3805" lon="3.74624">
        <ele>1115.27</ele>
        <time>2013-06-15T14:09:40Z</time>
      </trkpt>
      <trkpt lat="44.38055" lon="3.74631">
        <ele>1114.79</ele>
        <time>2013-06-15T14:09:41Z</time>
      </trkpt>
      <trkpt lat="44.3806" lon="3.74638">
        <ele>1113.34</ele>
        <time>2013-06-15T14:09:42Z</time>
      </trkpt>
      <trkpt lat="44.38066" lon="3.74644">
        <ele>1112.86</ele>
        <time>2013-06-15T14:09:43Z</time>
      </trkpt>
      <trkpt lat="44.38072" lon="3.74649">
        <ele>1112.86</ele>
        <time>2013-06-15T14:09:44Z</time>
      </trkpt>
      <trkpt lat="44.38092" lon="3.74668">
        <ele>1109.98</ele>
        <time>2013-06-15T14:09:47Z</time>
      </trkpt>
      <trkpt lat="44.38098" lon="3.74676">
        <ele>1109.02</ele>
        <time>2013-06-15T14:09:48Z</time>
      </trkpt>
      <trkpt lat="44.38105" lon="3.74686">
        <ele>1108.06</ele>
        <time>2013-06-15T14:09:49Z</time>
      </trkpt>
      <trkpt lat="44.3811" lon="3.74696">
        <ele>1108.06</ele>
        <time>2013-06-15T14:09:50Z</time>
      </trkpt>
      <trkpt lat="44.38116" lon="3.74706">
        <ele>1107.1</ele>
        <time>2013-06-15T14:09:51Z</time>
      </trkpt>
      <trkpt lat="44.38138" lon="3.74751">
        <ele>1103.25</ele>
        <time>2013-06-15T14:09:55Z</time>
      </trkpt>
      <trkpt lat="44.38147" lon="3.74774">
        <ele>1101.33</ele>
        <time>2013-06-15T14:09:57Z</time>
      </trkpt>
      <trkpt lat="44.3815" lon="3.74785">
        <ele>1100.85</ele>
        <time>2013-06-15T14:09:58Z</time>
      </trkpt>
      <trkpt lat="44.38152" lon="3.74797">
        <ele>1100.37</ele>
        <time>2013-06-15T14:09:59Z</time>
      </trkpt>
      <trkpt lat="44.38153" lon="3.74809">
        <ele>1099.4</ele>
        <time>2013-06-15T14:10:00Z</time>
      </trkpt>
      <trkpt lat="44.38152" lon="3.74821">
        <ele>1098.92</ele>
        <time>2013-06-15T14:10:01Z</time>
      </trkpt>
      <trkpt lat="44.38153" lon="3.74835">
        <ele>1097.96</ele>
        <time>2013-06-15T14:10:02Z</time>
      </trkpt>
      <trkpt lat="44.38154" lon="3.74848">
        <ele>1097</ele>
        <time>2013-06-15T14:10:03Z</time>
      </trkpt>
      <trkpt lat="44.38161" lon="3.74891">
        <ele>1094.6</ele>
        <time>2013-06-15T14:10:06Z</time>
      </trkpt>
      <trkpt lat="44.38162" lon="3.74906">
        <ele>1093.16</ele>
        <time>2013-06-15T14:10:07Z</time>
      </trkpt>
      <trkpt lat="44.38162" lon="3.74918">
        <ele>1093.16</ele>
        <time>2013-06-15T14:10:08Z</time>
      </trkpt>
      <trkpt lat="44.38162" lon="3.74928">
        <ele>1092.2</ele>
        <time>2013-06-15T14:10:09Z</time>
      </trkpt>
      <trkpt lat="44.38174" lon="3.74949">
        <ele>1091.23</ele>
        <time>2013-06-15T14:10:12Z</time>
      </trkpt>
      <trkpt lat="44.38187" lon="3.74955">
        <ele>1090.27</ele>
        <time>2013-06-15T14:10:14Z</time>
      </trkpt>
      <trkpt lat="44.382" lon="3.74961">
        <ele>1089.79</ele>
        <time>2013-06-15T14:10:16Z</time>
      </trkpt>
      <trkpt lat="44.38204" lon="3.74965">
        <ele>1089.79</ele>
        <time>2013-06-15T14:10:17Z</time>
      </trkpt>
      <trkpt lat="44.38206" lon="3.7497">
        <ele>1089.31</ele>
        <time>2013-06-15T14:10:18Z</time>
      </trkpt>
      <trkpt lat="44.38206" lon="3.74976">
        <ele>1089.79</ele>
        <time>2013-06-15T14:10:19Z</time>
      </trkpt>
      <trkpt lat="44.38192" lon="3.74976">
        <ele>1086.91</ele>
        <time>2013-06-15T14:10:22Z</time>
      </trkpt>
      <trkpt lat="44.38187" lon="3.74971">
        <ele>1094.12</ele>
        <time>2013-06-15T14:10:23Z</time>
      </trkpt>
      <trkpt lat="44.38182" lon="3.74967">
        <ele>1086.43</ele>
        <time>2013-06-15T14:10:24Z</time>
      </trkpt>
      <trkpt lat="44.38176" lon="3.74965">
        <ele>1085.47</ele>
        <time>2013-06-15T14:10:25Z</time>
      </trkpt>
      <trkpt lat="44.38171" lon="3.74963">
        <ele>1086.43</ele>
        <time>2013-06-15T14:10:26Z</time>
      </trkpt>
      <trkpt lat="44.38165" lon="3.74962">
        <ele>1084.99</ele>
        <time>2013-06-15T14:10:27Z</time>
      </trkpt>
      <trkpt lat="44.3816" lon="3.74962">
        <ele>1084.5</ele>
        <time>2013-06-15T14:10:28Z</time>
      </trkpt>
      <trkpt lat="44.38145" lon="3.7496">
        <ele>1083.54</ele>
        <time>2013-06-15T14:10:31Z</time>
      </trkpt>
      <trkpt lat="44.3814" lon="3.74959">
        <ele>1082.58</ele>
        <time>2013-06-15T14:10:32Z</time>
      </trkpt>
      <trkpt lat="44.38136" lon="3.74955">
        <ele>1082.1</ele>
        <time>2013-06-15T14:10:33Z</time>
      </trkpt>
      <trkpt lat="44.38134" lon="3.74948">
        <ele>1081.14</ele>
        <time>2013-06-15T14:10:34Z</time>
      </trkpt>
      <trkpt lat="44.38134" lon="3.74939">
        <ele>1080.18</ele>
        <time>2013-06-15T14:10:35Z</time>
      </trkpt>
      <trkpt lat="44.38135" lon="3.7493">
        <ele>1079.7</ele>
        <time>2013-06-15T14:10:36Z</time>
      </trkpt>
      <trkpt lat="44.38137" lon="3.74911">
        <ele>1079.22</ele>
        <time>2013-06-15T14:10:41Z</time>
      </trkpt>
      <trkpt lat="44.38137" lon="3.74911">
        <ele>1082.58</ele>
        <time>2013-06-15T14:10:43Z</time>
      </trkpt>
      <trkpt lat="44.38136" lon="3.74911">
        <ele>1078.74</ele>
        <time>2013-06-15T14:10:45Z</time>
      </trkpt>
      <trkpt lat="44.38136" lon="3.74911">
        <ele>1079.22</ele>
        <time>2013-06-15T14:10:46Z</time>
      </trkpt>
      <trkpt lat="44.38135" lon="3.74899">
        <ele>1077.78</ele>
        <time>2013-06-15T14:10:50Z</time>
      </trkpt>
      <trkpt lat="44.38132" lon="3.74894">
        <ele>1077.78</ele>
        <time>2013-06-15T14:10:51Z</time>
      </trkpt>
      <trkpt lat="44.38129" lon="3.7489">
        <ele>1077.78</ele>
        <time>2013-06-15T14:10:52Z</time>
      </trkpt>
      <trkpt lat="44.38125" lon="3.74886">
        <ele>1076.33</ele>
        <time>2013-06-15T14:10:53Z</time>
      </trkpt>
      <trkpt lat="44.3812" lon="3.74883">
        <ele>1076.33</ele>
        <time>2013-06-15T14:10:54Z</time>
      </trkpt>
      <trkpt lat="44.38107" lon="3.74883">
        <ele>1074.89</ele>
        <time>2013-06-15T14:10:56Z</time>
      </trkpt>
      <trkpt lat="44.38067" lon="3.74892">
        <ele>1070.57</ele>
        <time>2013-06-15T14:11:01Z</time>
      </trkpt>
      <trkpt lat="44.38039" lon="3.749">
        <ele>1067.68</ele>
        <time>2013-06-15T14:11:04Z</time>
      </trkpt>
      <trkpt lat="44.38019" lon="3.74909">
        <ele>1064.8</ele>
        <time>2013-06-15T14:11:06Z</time>
      </trkpt>
      <trkpt lat="44.38" lon="3.74915">
        <ele>1063.84</ele>
        <time>2013-06-15T14:11:08Z</time>
      </trkpt>
      <trkpt lat="44.37983" lon="3.74922">
        <ele>1061.43</ele>
        <time>2013-06-15T14:11:10Z</time>
      </trkpt>
      <trkpt lat="44.37939" lon="3.74929">
        <ele>1057.11</ele>
        <time>2013-06-15T14:11:15Z</time>
      </trkpt>
      <trkpt lat="44.37914" lon="3.74937">
        <ele>1053.74</ele>
        <time>2013-06-15T14:11:18Z</time>
      </trkpt>
      <trkpt lat="44.37905" lon="3.74937">
        <ele>1052.78</ele>
        <time>2013-06-15T14:11:19Z</time>
      </trkpt>
      <trkpt lat="44.37851" lon="3.74932">
        <ele>1046.53</ele>
        <time>2013-06-15T14:11:24Z</time>
      </trkpt>
      <trkpt lat="44.37815" lon="3.74931">
        <ele>1042.21</ele>
        <time>2013-06-15T14:11:27Z</time>
      </trkpt>
      <trkpt lat="44.37777" lon="3.74938">
        <ele>1040.28</ele>
        <time>2013-06-15T14:11:30Z</time>
      </trkpt>
      <trkpt lat="44.37764" lon="3.74941">
        <ele>1036.44</ele>
        <time>2013-06-15T14:11:31Z</time>
      </trkpt>
      <trkpt lat="44.37724" lon="3.74949">
        <ele>1032.11</ele>
        <time>2013-06-15T14:11:34Z</time>
      </trkpt>
      <trkpt lat="44.37683" lon="3.74947">
        <ele>1028.75</ele>
        <time>2013-06-15T14:11:37Z</time>
      </trkpt>
      <trkpt lat="44.37634" lon="3.74953">
        <ele>1023.46</ele>
        <time>2013-06-15T14:11:41Z</time>
      </trkpt>
      <trkpt lat="44.37625" lon="3.74954">
        <ele>1022.02</ele>
        <time>2013-06-15T14:11:42Z</time>
      </trkpt>
      <trkpt lat="44.37598" lon="3.74965">
        <ele>1019.62</ele>
        <time>2013-06-15T14:11:45Z</time>
      </trkpt>
      <trkpt lat="44.37567" lon="3.74978">
        <ele>1015.29</ele>
        <time>2013-06-15T14:11:48Z</time>
      </trkpt>
      <trkpt lat="44.37556" lon="3.74982">
        <ele>1013.85</ele>
        <time>2013-06-15T14:11:49Z</time>
      </trkpt>
      <trkpt lat="44.37509" lon="3.7499">
        <ele>1009.04</ele>
        <time>2013-06-15T14:11:53Z</time>
      </trkpt>
      <trkpt lat="44.37484" lon="3.74996">
        <ele>1005.68</ele>
        <time>2013-06-15T14:11:55Z</time>
      </trkpt>
      <trkpt lat="44.3747" lon="3.75">
        <ele>1004.23</ele>
        <time>2013-06-15T14:11:56Z</time>
      </trkpt>
      <trkpt lat="44.37429" lon="3.75006">
        <ele>999.43</ele>
        <time>2013-06-15T14:11:59Z</time>
      </trkpt>
      <trkpt lat="44.37401" lon="3.75008">
        <ele>996.06</ele>
        <time>2013-06-15T14:12:01Z</time>
      </trkpt>
      <trkpt lat="44.37372" lon="3.75014">
        <ele>992.22</ele>
        <time>2013-06-15T14:12:03Z</time>
      </trkpt>
      <trkpt lat="44.37343" lon="3.75019">
        <ele>990.78</ele>
        <time>2013-06-15T14:12:05Z</time>
      </trkpt>
      <trkpt lat="44.37305" lon="3.7503">
        <ele>987.89</ele>
        <time>2013-06-15T14:12:08Z</time>
      </trkpt>
      <trkpt lat="44.37257" lon="3.75011">
        <ele>986.45</ele>
        <time>2013-06-15T14:12:13Z</time>
      </trkpt>
      <trkpt lat="44.37242" lon="3.74991">
        <ele>990.78</ele>
        <time>2013-06-15T14:12:15Z</time>
      </trkpt>
      <trkpt lat="44.37235" lon="3.74982">
        <ele>984.05</ele>
        <time>2013-06-15T14:12:16Z</time>
      </trkpt>
      <trkpt lat="44.37228" lon="3.74971">
        <ele>983.09</ele>
        <time>2013-06-15T14:12:17Z</time>
      </trkpt>
      <trkpt lat="44.37214" lon="3.74943">
        <ele>982.12</ele>
        <time>2013-06-15T14:12:20Z</time>
      </trkpt>
      <trkpt lat="44.37195" lon="3.74941">
        <ele>981.64</ele>
        <time>2013-06-15T14:12:25Z</time>
      </trkpt>
      <trkpt lat="44.37193" lon="3.74946">
        <ele>981.64</ele>
        <time>2013-06-15T14:12:26Z</time>
      </trkpt>
      <trkpt lat="44.37178" lon="3.74981">
        <ele>983.09</ele>
        <time>2013-06-15T14:12:34Z</time>
      </trkpt>
      <trkpt lat="44.37155" lon="3.74993">
        <ele>984.05</ele>
        <time>2013-06-15T14:12:43Z</time>
      </trkpt>
      <trkpt lat="44.37148" lon="3.74987">
        <ele>983.57</ele>
        <time>2013-06-15T14:12:45Z</time>
      </trkpt>
      <trkpt lat="44.37144" lon="3.74985">
        <ele>984.05</ele>
        <time>2013-06-15T14:12:46Z</time>
      </trkpt>
      <trkpt lat="44.3714" lon="3.74983">
        <ele>984.05</ele>
        <time>2013-06-15T14:12:47Z</time>
      </trkpt>
      <trkpt lat="44.37087" lon="3.74954">
        <ele>985.49</ele>
        <time>2013-06-15T14:13:00Z</time>
      </trkpt>
      <trkpt lat="44.37074" lon="3.74942">
        <ele>986.93</ele>
        <time>2013-06-15T14:13:03Z</time>
      </trkpt>
      <trkpt lat="44.37069" lon="3.74937">
        <ele>987.41</ele>
        <time>2013-06-15T14:13:04Z</time>
      </trkpt>
      <trkpt lat="44.37064" lon="3.7493">
        <ele>987.89</ele>
        <time>2013-06-15T14:13:05Z</time>
      </trkpt>
      <trkpt lat="44.3706" lon="3.74924">
        <ele>988.37</ele>
        <time>2013-06-15T14:13:06Z</time>
      </trkpt>
      <trkpt lat="44.37056" lon="3.74919">
        <ele>988.85</ele>
        <time>2013-06-15T14:13:07Z</time>
      </trkpt>
      <trkpt lat="44.37052" lon="3.74913">
        <ele>988.85</ele>
        <time>2013-06-15T14:13:08Z</time>
      </trkpt>
      <trkpt lat="44.37047" lon="3.74909">
        <ele>988.85</ele>
        <time>2013-06-15T14:13:09Z</time>
      </trkpt>
      <trkpt lat="44.37043" lon="3.74905">
        <ele>988.37</ele>
        <time>2013-06-15T14:13:10Z</time>
      </trkpt>
      <trkpt lat="44.37038" lon="3.74902">
        <ele>987.89</ele>
        <time>2013-06-15T14:13:11Z</time>
      </trkpt>
      <trkpt lat="44.37033" lon="3.74899">
        <ele>987.41</ele>
        <time>2013-06-15T14:13:12Z</time>
      </trkpt>
      <trkpt lat="44.37001" lon="3.74882">
        <ele>984.05</ele>
        <time>2013-06-15T14:13:17Z</time>
      </trkpt>
      <trkpt lat="44.36963" lon="3.74865">
        <ele>980.2</ele>
        <time>2013-06-15T14:13:22Z</time>
      </trkpt>
      <trkpt lat="44.36954" lon="3.74863">
        <ele>979.72</ele>
        <time>2013-06-15T14:13:23Z</time>
      </trkpt>
      <trkpt lat="44.36945" lon="3.74862">
        <ele>978.76</ele>
        <time>2013-06-15T14:13:24Z</time>
      </trkpt>
      <trkpt lat="44.36935" lon="3.74862">
        <ele>978.76</ele>
        <time>2013-06-15T14:13:25Z</time>
      </trkpt>
      <trkpt lat="44.36926" lon="3.74862">
        <ele>977.8</ele>
        <time>2013-06-15T14:13:26Z</time>
      </trkpt>
      <trkpt lat="44.36886" lon="3.74864">
        <ele>974.91</ele>
        <time>2013-06-15T14:13:30Z</time>
      </trkpt>
      <trkpt lat="44.36873" lon="3.74864">
        <ele>974.43</ele>
        <time>2013-06-15T14:13:31Z</time>
      </trkpt>
      <trkpt lat="44.36842" lon="3.7486">
        <ele>971.07</ele>
        <time>2013-06-15T14:13:34Z</time>
      </trkpt>
      <trkpt lat="44.36799" lon="3.74848">
        <ele>967.7</ele>
        <time>2013-06-15T14:13:38Z</time>
      </trkpt>
      <trkpt lat="44.36788" lon="3.74842">
        <ele>966.74</ele>
        <time>2013-06-15T14:13:39Z</time>
      </trkpt>
      <trkpt lat="44.36778" lon="3.74834">
        <ele>965.78</ele>
        <time>2013-06-15T14:13:40Z</time>
      </trkpt>
      <trkpt lat="44.3677" lon="3.74823">
        <ele>965.78</ele>
        <time>2013-06-15T14:13:41Z</time>
      </trkpt>
      <trkpt lat="44.36762" lon="3.7481">
        <ele>964.34</ele>
        <time>2013-06-15T14:13:42Z</time>
      </trkpt>
      <trkpt lat="44.36756" lon="3.74797">
        <ele>963.38</ele>
        <time>2013-06-15T14:13:43Z</time>
      </trkpt>
      <trkpt lat="44.36749" lon="3.74784">
        <ele>962.42</ele>
        <time>2013-06-15T14:13:44Z</time>
      </trkpt>
      <trkpt lat="44.36729" lon="3.74742">
        <ele>960.01</ele>
        <time>2013-06-15T14:13:47Z</time>
      </trkpt>
      <trkpt lat="44.36721" lon="3.7473">
        <ele>959.05</ele>
        <time>2013-06-15T14:13:48Z</time>
      </trkpt>
      <trkpt lat="44.36712" lon="3.74718">
        <ele>958.09</ele>
        <time>2013-06-15T14:13:49Z</time>
      </trkpt>
      <trkpt lat="44.36702" lon="3.74709">
        <ele>957.13</ele>
        <time>2013-06-15T14:13:50Z</time>
      </trkpt>
      <trkpt lat="44.36691" lon="3.74702">
        <ele>956.65</ele>
        <time>2013-06-15T14:13:51Z</time>
      </trkpt>
      <trkpt lat="44.36679" lon="3.74697">
        <ele>954.73</ele>
        <time>2013-06-15T14:13:52Z</time>
      </trkpt>
      <trkpt lat="44.36667" lon="3.74695">
        <ele>956.65</ele>
        <time>2013-06-15T14:13:53Z</time>
      </trkpt>
      <trkpt lat="44.36655" lon="3.74694">
        <ele>953.77</ele>
        <time>2013-06-15T14:13:54Z</time>
      </trkpt>
      <trkpt lat="44.36619" lon="3.74689">
        <ele>950.4</ele>
        <time>2013-06-15T14:13:57Z</time>
      </trkpt>
      <trkpt lat="44.36607" lon="3.74688">
        <ele>949.92</ele>
        <time>2013-06-15T14:13:58Z</time>
      </trkpt>
      <trkpt lat="44.36559" lon="3.74677">
        <ele>945.59</ele>
        <time>2013-06-15T14:14:02Z</time>
      </trkpt>
      <trkpt lat="44.36547" lon="3.74672">
        <ele>945.59</ele>
        <time>2013-06-15T14:14:03Z</time>
      </trkpt>
      <trkpt lat="44.365" lon="3.74649">
        <ele>941.27</ele>
        <time>2013-06-15T14:14:07Z</time>
      </trkpt>
      <trkpt lat="44.36475" lon="3.74645">
        <ele>939.35</ele>
        <time>2013-06-15T14:14:09Z</time>
      </trkpt>
      <trkpt lat="44.36463" lon="3.74645">
        <ele>938.38</ele>
        <time>2013-06-15T14:14:10Z</time>
      </trkpt>
      <trkpt lat="44.36406" lon="3.74655">
        <ele>935.5</ele>
        <time>2013-06-15T14:14:15Z</time>
      </trkpt>
      <trkpt lat="44.36397" lon="3.74661">
        <ele>934.54</ele>
        <time>2013-06-15T14:14:16Z</time>
      </trkpt>
      <trkpt lat="44.3639" lon="3.7467">
        <ele>933.58</ele>
        <time>2013-06-15T14:14:17Z</time>
      </trkpt>
      <trkpt lat="44.36385" lon="3.74681">
        <ele>933.1</ele>
        <time>2013-06-15T14:14:18Z</time>
      </trkpt>
      <trkpt lat="44.36381" lon="3.74694">
        <ele>932.14</ele>
        <time>2013-06-15T14:14:19Z</time>
      </trkpt>
      <trkpt lat="44.36379" lon="3.74706">
        <ele>931.65</ele>
        <time>2013-06-15T14:14:20Z</time>
      </trkpt>
      <trkpt lat="44.36378" lon="3.74717">
        <ele>931.65</ele>
        <time>2013-06-15T14:14:21Z</time>
      </trkpt>
      <trkpt lat="44.36376" lon="3.74724">
        <ele>931.17</ele>
        <time>2013-06-15T14:14:22Z</time>
      </trkpt>
      <trkpt lat="44.36374" lon="3.74728">
        <ele>931.17</ele>
        <time>2013-06-15T14:14:23Z</time>
      </trkpt>
      <trkpt lat="44.3637" lon="3.74729">
        <ele>930.21</ele>
        <time>2013-06-15T14:14:24Z</time>
      </trkpt>
      <trkpt lat="44.36366" lon="3.74725">
        <ele>929.73</ele>
        <time>2013-06-15T14:14:25Z</time>
      </trkpt>
      <trkpt lat="44.36365" lon="3.74717">
        <ele>929.73</ele>
        <time>2013-06-15T14:14:26Z</time>
      </trkpt>
      <trkpt lat="44.36367" lon="3.7471">
        <ele>929.25</ele>
        <time>2013-06-15T14:14:27Z</time>
      </trkpt>
      <trkpt lat="44.36368" lon="3.74702">
        <ele>928.77</ele>
        <time>2013-06-15T14:14:28Z</time>
      </trkpt>
      <trkpt lat="44.36383" lon="3.7464">
        <ele>925.41</ele>
        <time>2013-06-15T14:14:35Z</time>
      </trkpt>
      <trkpt lat="44.36388" lon="3.74619">
        <ele>924.93</ele>
        <time>2013-06-15T14:14:37Z</time>
      </trkpt>
      <trkpt lat="44.36393" lon="3.74596">
        <ele>923</ele>
        <time>2013-06-15T14:14:39Z</time>
      </trkpt>
      <trkpt lat="44.36402" lon="3.74552">
        <ele>920.6</ele>
        <time>2013-06-15T14:14:43Z</time>
      </trkpt>
      <trkpt lat="44.36402" lon="3.74544">
        <ele>920.6</ele>
        <time>2013-06-15T14:14:44Z</time>
      </trkpt>
      <trkpt lat="44.364" lon="3.74537">
        <ele>920.12</ele>
        <time>2013-06-15T14:14:45Z</time>
      </trkpt>
      <trkpt lat="44.36396" lon="3.74531">
        <ele>919.64</ele>
        <time>2013-06-15T14:14:46Z</time>
      </trkpt>
      <trkpt lat="44.3639" lon="3.74528">
        <ele>919.16</ele>
        <time>2013-06-15T14:14:47Z</time>
      </trkpt>
      <trkpt lat="44.36384" lon="3.74529">
        <ele>918.68</ele>
        <time>2013-06-15T14:14:48Z</time>
      </trkpt>
      <trkpt lat="44.36379" lon="3.74534">
        <ele>918.2</ele>
        <time>2013-06-15T14:14:49Z</time>
      </trkpt>
      <trkpt lat="44.36375" lon="3.7454">
        <ele>917.72</ele>
        <time>2013-06-15T14:14:50Z</time>
      </trkpt>
      <trkpt lat="44.36371" lon="3.74548">
        <ele>917.24</ele>
        <time>2013-06-15T14:14:51Z</time>
      </trkpt>
      <trkpt lat="44.36359" lon="3.74574">
        <ele>915.31</ele>
        <time>2013-06-15T14:14:54Z</time>
      </trkpt>
      <trkpt lat="44.36347" lon="3.74602">
        <ele>912.91</ele>
        <time>2013-06-15T14:14:57Z</time>
      </trkpt>
      <trkpt lat="44.36345" lon="3.74613">
        <ele>912.91</ele>
        <time>2013-06-15T14:14:58Z</time>
      </trkpt>
      <trkpt lat="44.36342" lon="3.74624">
        <ele>912.43</ele>
        <time>2013-06-15T14:14:59Z</time>
      </trkpt>
      <trkpt lat="44.36341" lon="3.74636">
        <ele>911.95</ele>
        <time>2013-06-15T14:15:00Z</time>
      </trkpt>
      <trkpt lat="44.36341" lon="3.74648">
        <ele>910.99</ele>
        <time>2013-06-15T14:15:01Z</time>
      </trkpt>
      <trkpt lat="44.36341" lon="3.7466">
        <ele>910.99</ele>
        <time>2013-06-15T14:15:02Z</time>
      </trkpt>
      <trkpt lat="44.36342" lon="3.74671">
        <ele>910.51</ele>
        <time>2013-06-15T14:15:03Z</time>
      </trkpt>
      <trkpt lat="44.36343" lon="3.7468">
        <ele>910.99</ele>
        <time>2013-06-15T14:15:04Z</time>
      </trkpt>
      <trkpt lat="44.36343" lon="3.74687">
        <ele>910.51</ele>
        <time>2013-06-15T14:15:05Z</time>
      </trkpt>
      <trkpt lat="44.36342" lon="3.74692">
        <ele>910.51</ele>
        <time>2013-06-15T14:15:06Z</time>
      </trkpt>
      <trkpt lat="44.3634" lon="3.74693">
        <ele>910.03</ele>
        <time>2013-06-15T14:15:07Z</time>
      </trkpt>
      <trkpt lat="44.36338" lon="3.74692">
        <ele>909.54</ele>
        <time>2013-06-15T14:15:08Z</time>
      </trkpt>
      <trkpt lat="44.36335" lon="3.74687">
        <ele>909.06</ele>
        <time>2013-06-15T14:15:09Z</time>
      </trkpt>
      <trkpt lat="44.36333" lon="3.74681">
        <ele>908.58</ele>
        <time>2013-06-15T14:15:10Z</time>
      </trkpt>
      <trkpt lat="44.36331" lon="3.74674">
        <ele>908.1</ele>
        <time>2013-06-15T14:15:11Z</time>
      </trkpt>
      <trkpt lat="44.36324" lon="3.74658">
        <ele>907.14</ele>
        <time>2013-06-15T14:15:13Z</time>
      </trkpt>
      <trkpt lat="44.3632" lon="3.74649">
        <ele>907.14</ele>
        <time>2013-06-15T14:15:14Z</time>
      </trkpt>
      <trkpt lat="44.3631" lon="3.74621">
        <ele>905.22</ele>
        <time>2013-06-15T14:15:17Z</time>
      </trkpt>
      <trkpt lat="44.36309" lon="3.7461">
        <ele>903.78</ele>
        <time>2013-06-15T14:15:18Z</time>
      </trkpt>
      <trkpt lat="44.36308" lon="3.74598">
        <ele>903.78</ele>
        <time>2013-06-15T14:15:19Z</time>
      </trkpt>
      <trkpt lat="44.36306" lon="3.74547">
        <ele>900.89</ele>
        <time>2013-06-15T14:15:23Z</time>
      </trkpt>
      <trkpt lat="44.36305" lon="3.7452">
        <ele>899.45</ele>
        <time>2013-06-15T14:15:25Z</time>
      </trkpt>
      <trkpt lat="44.36306" lon="3.74481">
        <ele>897.53</ele>
        <time>2013-06-15T14:15:28Z</time>
      </trkpt>
      <trkpt lat="44.36308" lon="3.74469">
        <ele>898.01</ele>
        <time>2013-06-15T14:15:29Z</time>
      </trkpt>
      <trkpt lat="44.36331" lon="3.74377">
        <ele>897.53</ele>
        <time>2013-06-15T14:15:38Z</time>
      </trkpt>
      <trkpt lat="44.36332" lon="3.74364">
        <ele>898.01</ele>
        <time>2013-06-15T14:15:41Z</time>
      </trkpt>
      <trkpt lat="44.3633" lon="3.74361">
        <ele>898.01</ele>
        <time>2013-06-15T14:15:42Z</time>
      </trkpt>
      <trkpt lat="44.36328" lon="3.74358">
        <ele>898.01</ele>
        <time>2013-06-15T14:15:43Z</time>
      </trkpt>
      <trkpt lat="44.36307" lon="3.74348">
        <ele>898.01</ele>
        <time>2013-06-15T14:15:52Z</time>
      </trkpt>
      <trkpt lat="44.36287" lon="3.74342">
        <ele>896.57</ele>
        <time>2013-06-15T14:15:57Z</time>
      </trkpt>
      <trkpt lat="44.36284" lon="3.74344">
        <ele>896.57</ele>
        <time>2013-06-15T14:15:58Z</time>
      </trkpt>
      <trkpt lat="44.36282" lon="3.74347">
        <ele>896.09</ele>
        <time>2013-06-15T14:15:59Z</time>
      </trkpt>
      <trkpt lat="44.36267" lon="3.74385">
        <ele>897.53</ele>
        <time>2013-06-15T14:16:08Z</time>
      </trkpt>
      <trkpt lat="44.36259" lon="3.74403">
        <ele>897.53</ele>
        <time>2013-06-15T14:16:12Z</time>
      </trkpt>
      <trkpt lat="44.36255" lon="3.74406">
        <ele>896.57</ele>
        <time>2013-06-15T14:16:13Z</time>
      </trkpt>
      <trkpt lat="44.36251" lon="3.74409">
        <ele>897.05</ele>
        <time>2013-06-15T14:16:14Z</time>
      </trkpt>
      <trkpt lat="44.36228" lon="3.74431">
        <ele>898.49</ele>
        <time>2013-06-15T14:16:22Z</time>
      </trkpt>
      <trkpt lat="44.36221" lon="3.74465">
        <ele>899.93</ele>
        <time>2013-06-15T14:16:29Z</time>
      </trkpt>
      <trkpt lat="44.36218" lon="3.74468">
        <ele>899.93</ele>
        <time>2013-06-15T14:16:30Z</time>
      </trkpt>
      <trkpt lat="44.36216" lon="3.7447">
        <ele>900.41</ele>
        <time>2013-06-15T14:16:31Z</time>
      </trkpt>
      <trkpt lat="44.36215" lon="3.74473">
        <ele>900.89</ele>
        <time>2013-06-15T14:16:32Z</time>
      </trkpt>
      <trkpt lat="44.36213" lon="3.74476">
        <ele>901.37</ele>
        <time>2013-06-15T14:16:33Z</time>
      </trkpt>
      <trkpt lat="44.36198" lon="3.74511">
        <ele>903.3</ele>
        <time>2013-06-15T14:16:42Z</time>
      </trkpt>
      <trkpt lat="44.36187" lon="3.74562">
        <ele>906.18</ele>
        <time>2013-06-15T14:16:53Z</time>
      </trkpt>
      <trkpt lat="44.36184" lon="3.74612">
        <ele>907.62</ele>
        <time>2013-06-15T14:17:05Z</time>
      </trkpt>
      <trkpt lat="44.36181" lon="3.7465">
        <ele>909.06</ele>
        <time>2013-06-15T14:17:15Z</time>
      </trkpt>
      <trkpt lat="44.36179" lon="3.74689">
        <ele>910.99</ele>
        <time>2013-06-15T14:17:25Z</time>
      </trkpt>
      <trkpt lat="44.3618" lon="3.74716">
        <ele>911.47</ele>
        <time>2013-06-15T14:17:32Z</time>
      </trkpt>
      <trkpt lat="44.3619" lon="3.74732">
        <ele>912.43</ele>
        <time>2013-06-15T14:17:42Z</time>
      </trkpt>
      <trkpt lat="44.3619" lon="3.74733">
        <ele>911.95</ele>
        <time>2013-06-15T14:17:54Z</time>
      </trkpt>
      <trkpt lat="44.3619" lon="3.74733">
        <ele>908.58</ele>
        <time>2013-06-15T14:18:01Z</time>
      </trkpt>
      <trkpt lat="44.3619" lon="3.74733">
        <ele>910.99</ele>
        <time>2013-06-15T14:18:02Z</time>
      </trkpt>
    </trkseg>
  </trk>
</gpx>